<?xml version='1.0' encoding='UTF-8'?><gpx version="1.1" creator="JPX - https://github.com/jenetics/jpx" xmlns="http://www.topografix.com/GPX/1/1"><trk><trkseg><trkpt lat="44.4248411707723" lon="7.536476617679546"><ele>508.0</ele><time>2026-04-19T09:36:55.002Z</time></trkpt><trkpt lat="44.42486131365992" lon="7.5365802966135025"><ele>507.99999999999994</ele><time>2026-04-19T09:36:58.002Z</time></trkpt><trkpt lat="44.42489199564616" lon="7.536664512464767"><ele>507.99999999999994</ele><time>2026-04-19T09:37:01.001Z</time></trkpt><trkpt lat="44.424956214857026" lon="7.536715421355755"><ele>508.0</ele><time>2026-04-19T09:37:15Z</time></trkpt><trkpt lat="44.42504852277978" lon="7.536889926671616"><ele>508.0</ele><time>2026-04-19T09:38:45Z</time></trkpt><trkpt lat="44.42509230527232" lon="7.537035203332536"><ele>507.79999999999995</ele><time>2026-04-19T09:38:47Z</time></trkpt><trkpt lat="44.42513632537388" lon="7.537192912825476"><ele>507.59999999999997</ele><time>2026-04-19T09:38:49Z</time></trkpt><trkpt lat="44.425161809616455" lon="7.5372776701915205"><ele>507.40000000000003</ele><time>2026-04-19T09:38:50Z</time></trkpt><trkpt lat="44.42518821712245" lon="7.537367534771417"><ele>507.20000000000005</ele><time>2026-04-19T09:38:51Z</time></trkpt><trkpt lat="44.425230697072024" lon="7.537508398877238"><ele>507.0</ele><time>2026-04-19T09:38:53Z</time></trkpt><trkpt lat="44.42525373371961" lon="7.537647945409066"><ele>507.0</ele><time>2026-04-19T09:38:55Z</time></trkpt><trkpt lat="44.42528242695623" lon="7.537766433240655"><ele>507.00000000000006</ele><time>2026-04-19T09:38:56.999Z</time></trkpt><trkpt lat="44.42531968837162" lon="7.53786706018887"><ele>507.00000000000006</ele><time>2026-04-19T09:38:58.999Z</time></trkpt><trkpt lat="44.42522685788259" lon="7.5378977876266635"><ele>507.0</ele><time>2026-04-19T09:39:00.999Z</time></trkpt><trkpt lat="44.42512034861757" lon="7.537993321650147"><ele>507.0</ele><time>2026-04-19T09:39:02.999Z</time></trkpt><trkpt lat="44.42505409492636" lon="7.538052748222616"><ele>507.0</ele><time>2026-04-19T09:39:03.999Z</time></trkpt><trkpt lat="44.424981029183144" lon="7.538118284893047"><ele>507.00000000000006</ele><time>2026-04-19T09:39:04.999Z</time></trkpt><trkpt lat="44.42490381293652" lon="7.538187544392238"><ele>507.00000000000006</ele><time>2026-04-19T09:39:05.999Z</time></trkpt><trkpt lat="44.424821906318776" lon="7.538261010935312"><ele>507.0</ele><time>2026-04-19T09:39:06.999Z</time></trkpt><trkpt lat="44.42474003771509" lon="7.538334443378334"><ele>507.0</ele><time>2026-04-19T09:39:07.999Z</time></trkpt><trkpt lat="44.42466533797264" lon="7.5384014456851425"><ele>507.5</ele><time>2026-04-19T09:39:08.999Z</time></trkpt><trkpt lat="44.424599274669724" lon="7.53846070149221"><ele>508.0</ele><time>2026-04-19T09:39:09.999Z</time></trkpt><trkpt lat="44.424504491808" lon="7.538545717443673"><ele>508.5</ele><time>2026-04-19T09:39:11.999Z</time></trkpt><trkpt lat="44.42444812454919" lon="7.538609742164414"><ele>509.0</ele><time>2026-04-19T09:39:13.999Z</time></trkpt><trkpt lat="44.42436642077617" lon="7.538576547213538"><ele>509.5</ele><time>2026-04-19T09:39:15.999Z</time></trkpt><trkpt lat="44.42431429781222" lon="7.53848159174376"><ele>510.0</ele><time>2026-04-19T09:39:17.999Z</time></trkpt><trkpt lat="44.42418279096352" lon="7.538659475273757"><ele>509.8</ele><time>2026-04-19T09:39:18.999Z</time></trkpt><trkpt lat="44.42410734801528" lon="7.538742958584569"><ele>509.6</ele><time>2026-04-19T09:39:19.999Z</time></trkpt><trkpt lat="44.424024265367706" lon="7.538825844795215"><ele>509.4</ele><time>2026-04-19T09:39:20.999Z</time></trkpt><trkpt lat="44.423929720630575" lon="7.53890810142581"><ele>509.2</ele><time>2026-04-19T09:39:21.999Z</time></trkpt><trkpt lat="44.42382625425493" lon="7.538992307758649"><ele>509.0</ele><time>2026-04-19T09:39:22.999Z</time></trkpt><trkpt lat="44.42372351950766" lon="7.539080740376796"><ele>509.0</ele><time>2026-04-19T09:39:23.999Z</time></trkpt><trkpt lat="44.42361028359937" lon="7.539154510236608"><ele>509.0</ele><time>2026-04-19T09:39:24.999Z</time></trkpt><trkpt lat="44.42350426238429" lon="7.539245401503475"><ele>509.0</ele><time>2026-04-19T09:39:25.999Z</time></trkpt><trkpt lat="44.42341345792028" lon="7.539358757900193"><ele>509.0</ele><time>2026-04-19T09:39:26.999Z</time></trkpt><trkpt lat="44.42331726510691" lon="7.539446746818891"><ele>509.0</ele><time>2026-04-19T09:39:27.999Z</time></trkpt><trkpt lat="44.4232167631257" lon="7.539539708167388"><ele>509.0</ele><time>2026-04-19T09:39:28.999Z</time></trkpt><trkpt lat="44.423111503395305" lon="7.5396424354380605"><ele>509.0</ele><time>2026-04-19T09:39:29.999Z</time></trkpt><trkpt lat="44.42299758077226" lon="7.539721605428652"><ele>509.0</ele><time>2026-04-19T09:39:30.999Z</time></trkpt><trkpt lat="44.422921516632535" lon="7.5398274786385615"><ele>509.25</ele><time>2026-04-19T09:39:31.999Z</time></trkpt><trkpt lat="44.42283547551009" lon="7.539913628119582"><ele>509.5</ele><time>2026-04-19T09:39:32.999Z</time></trkpt><trkpt lat="44.42273657203148" lon="7.540014328582409"><ele>509.75</ele><time>2026-04-19T09:39:33.999Z</time></trkpt><trkpt lat="44.42263947981598" lon="7.540110937929384"><ele>510.0</ele><time>2026-04-19T09:39:34.999Z</time></trkpt><trkpt lat="44.422554278885116" lon="7.540197100574291"><ele>510.0</ele><time>2026-04-19T09:39:35.999Z</time></trkpt><trkpt lat="44.42247714907223" lon="7.54027280597664"><ele>510.0</ele><time>2026-04-19T09:39:36.999Z</time></trkpt><trkpt lat="44.422408447103074" lon="7.540339611791086"><ele>510.0</ele><time>2026-04-19T09:39:37.999Z</time></trkpt><trkpt lat="44.42233470198232" lon="7.54041238675854"><ele>510.0</ele><time>2026-04-19T09:39:38.999Z</time></trkpt><trkpt lat="44.42224198035019" lon="7.540474537595734"><ele>510.0</ele><time>2026-04-19T09:39:39.999Z</time></trkpt><trkpt lat="44.42214904493618" lon="7.54056216290323"><ele>510.0</ele><time>2026-04-19T09:39:40.999Z</time></trkpt><trkpt lat="44.422060557421894" lon="7.540646540619466"><ele>510.0</ele><time>2026-04-19T09:39:41.999Z</time></trkpt><trkpt lat="44.42197140890306" lon="7.540732411471842"><ele>510.0</ele><time>2026-04-19T09:39:42.999Z</time></trkpt><trkpt lat="44.42188431982889" lon="7.540818451458873"><ele>510.0</ele><time>2026-04-19T09:39:43.999Z</time></trkpt><trkpt lat="44.42179919317333" lon="7.540907959575687"><ele>510.0</ele><time>2026-04-19T09:39:44.999Z</time></trkpt><trkpt lat="44.42170664988605" lon="7.5410235576287645"><ele>510.0</ele><time>2026-04-19T09:39:45.999Z</time></trkpt><trkpt lat="44.421638959610796" lon="7.5411657793253175"><ele>510.0</ele><time>2026-04-19T09:39:46.999Z</time></trkpt><trkpt lat="44.421575135630384" lon="7.541293276719735"><ele>510.0</ele><time>2026-04-19T09:39:47.999Z</time></trkpt><trkpt lat="44.421482552632064" lon="7.541416351578662"><ele>510.0</ele><time>2026-04-19T09:39:48.999Z</time></trkpt><trkpt lat="44.42137443296626" lon="7.541515608861639"><ele>510.2</ele><time>2026-04-19T09:39:49.999Z</time></trkpt><trkpt lat="44.42128812209872" lon="7.541590874237293"><ele>510.4</ele><time>2026-04-19T09:39:50.999Z</time></trkpt><trkpt lat="44.421204996161535" lon="7.541665399799169"><ele>510.6</ele><time>2026-04-19T09:39:51.999Z</time></trkpt><trkpt lat="44.42112660406602" lon="7.541733393925749"><ele>510.8</ele><time>2026-04-19T09:39:52.999Z</time></trkpt><trkpt lat="44.421057158572545" lon="7.541797168464036"><ele>511.0</ele><time>2026-04-19T09:39:53.999Z</time></trkpt><trkpt lat="44.42099464390371" lon="7.54185726724938"><ele>511.0</ele><time>2026-04-19T09:39:54.999Z</time></trkpt><trkpt lat="44.42093851545232" lon="7.541913736225273"><ele>511.0</ele><time>2026-04-19T09:39:55.999Z</time></trkpt><trkpt lat="44.420852393323294" lon="7.541999379082673"><ele>511.0</ele><time>2026-04-19T09:39:57.999Z</time></trkpt><trkpt lat="44.42077821352984" lon="7.5420692383046"><ele>511.0</ele><time>2026-04-19T09:41:06.999Z</time></trkpt><trkpt lat="44.420702519627525" lon="7.542145456045495"><ele>511.0</ele><time>2026-04-19T09:41:08.999Z</time></trkpt><trkpt lat="44.42058949079987" lon="7.542250088062173"><ele>511.1666666666667</ele><time>2026-04-19T09:41:10.999Z</time></trkpt><trkpt lat="44.420526952738754" lon="7.542304765150624"><ele>511.33333333333337</ele><time>2026-04-19T09:41:11.999Z</time></trkpt><trkpt lat="44.42046558888715" lon="7.542365024829837"><ele>511.5</ele><time>2026-04-19T09:41:12.999Z</time></trkpt><trkpt lat="44.42041301179778" lon="7.542428335592129"><ele>511.66666666666663</ele><time>2026-04-19T09:41:13.999Z</time></trkpt><trkpt lat="44.420360214569286" lon="7.542498479657057"><ele>511.8333333333333</ele><time>2026-04-19T09:41:14.999Z</time></trkpt><trkpt lat="44.420342019023934" lon="7.542611090498868"><ele>512.0</ele><time>2026-04-19T09:41:15.999Z</time></trkpt><trkpt lat="44.42031987802613" lon="7.542724336122116"><ele>512.0</ele><time>2026-04-19T09:41:16.999Z</time></trkpt><trkpt lat="44.42029927496019" lon="7.542855801447593"><ele>512.0</ele><time>2026-04-19T09:41:17.999Z</time></trkpt><trkpt lat="44.420272517925234" lon="7.54299795631478"><ele>512.0</ele><time>2026-04-19T09:41:18.999Z</time></trkpt><trkpt lat="44.420250066713024" lon="7.543151510326461"><ele>512.0</ele><time>2026-04-19T09:41:19.999Z</time></trkpt><trkpt lat="44.420249178903" lon="7.543294751469307"><ele>512.0</ele><time>2026-04-19T09:41:20.999Z</time></trkpt><trkpt lat="44.4202585725181" lon="7.54345418248738"><ele>512.0</ele><time>2026-04-19T09:41:21.999Z</time></trkpt><trkpt lat="44.42030875216751" lon="7.5436222671611235"><ele>512.0</ele><time>2026-04-19T09:41:22.999Z</time></trkpt><trkpt lat="44.42037060187304" lon="7.543790691254833"><ele>512.0</ele><time>2026-04-19T09:41:23.999Z</time></trkpt><trkpt lat="44.42044015383759" lon="7.543974542091399"><ele>512.0</ele><time>2026-04-19T09:41:24.999Z</time></trkpt><trkpt lat="44.42050764137963" lon="7.5441598257841695"><ele>512.25</ele><time>2026-04-19T09:41:25.999Z</time></trkpt><trkpt lat="44.42057116972681" lon="7.544338884823321"><ele>512.5</ele><time>2026-04-19T09:41:26.999Z</time></trkpt><trkpt lat="44.420629929803525" lon="7.5445047140502615"><ele>512.75</ele><time>2026-04-19T09:41:27.999Z</time></trkpt><trkpt lat="44.420684434483036" lon="7.544658533922467"><ele>513.0</ele><time>2026-04-19T09:41:28.999Z</time></trkpt><trkpt lat="44.420735371106964" lon="7.544802007177333"><ele>513.0</ele><time>2026-04-19T09:41:29.999Z</time></trkpt><trkpt lat="44.42078087473147" lon="7.544930050590056"><ele>513.0</ele><time>2026-04-19T09:41:30.999Z</time></trkpt><trkpt lat="44.4208206382363" lon="7.545041941779774"><ele>513.0</ele><time>2026-04-19T09:41:31.999Z</time></trkpt><trkpt lat="44.42085162554994" lon="7.545129137496079"><ele>513.0</ele><time>2026-04-19T09:41:32.999Z</time></trkpt><trkpt lat="44.42087152533757" lon="7.545256812250929"><ele>513.0</ele><time>2026-04-19T09:41:34.999Z</time></trkpt><trkpt lat="44.42068001624387" lon="7.545392883649296"><ele>512.8</ele><time>2026-04-19T09:41:36.999Z</time></trkpt><trkpt lat="44.42059289678521" lon="7.545437004416343"><ele>512.5999999999999</ele><time>2026-04-19T09:41:37.999Z</time></trkpt><trkpt lat="44.420497271344914" lon="7.545496862808633"><ele>512.4000000000001</ele><time>2026-04-19T09:41:38.999Z</time></trkpt><trkpt lat="44.42040020965206" lon="7.545566942340593"><ele>512.2</ele><time>2026-04-19T09:41:39.999Z</time></trkpt><trkpt lat="44.420308569224545" lon="7.545631817451481"><ele>512.0</ele><time>2026-04-19T09:41:40.999Z</time></trkpt><trkpt lat="44.420226081964984" lon="7.545684658768186"><ele>511.99999999999994</ele><time>2026-04-19T09:41:41.999Z</time></trkpt><trkpt lat="44.42015021024585" lon="7.545730965547429"><ele>512.0</ele><time>2026-04-19T09:41:42.999Z</time></trkpt><trkpt lat="44.42007963711591" lon="7.545770611591814"><ele>512.0</ele><time>2026-04-19T09:41:43.999Z</time></trkpt><trkpt lat="44.419981964725736" lon="7.545830151330059"><ele>512.0</ele><time>2026-04-19T09:41:45.999Z</time></trkpt><trkpt lat="44.41992637539699" lon="7.545892300472463"><ele>511.99999999999994</ele><time>2026-04-19T09:41:47.999Z</time></trkpt><trkpt lat="44.419875860461815" lon="7.545994934653622"><ele>512.0</ele><time>2026-04-19T09:41:50.999Z</time></trkpt><trkpt lat="44.41981469288145" lon="7.5460835282151795"><ele>511.99999999999994</ele><time>2026-04-19T09:41:53.999Z</time></trkpt><trkpt lat="44.41976860771205" lon="7.546144662456002"><ele>512.0</ele><time>2026-04-19T09:41:54.999Z</time></trkpt><trkpt lat="44.41971068330021" lon="7.546226934558001"><ele>512.0</ele><time>2026-04-19T09:41:55.999Z</time></trkpt><trkpt lat="44.41964030099802" lon="7.5463261894160985"><ele>512.0</ele><time>2026-04-19T09:41:56.999Z</time></trkpt><trkpt lat="44.41956141648572" lon="7.5464165648411266"><ele>511.99999999999994</ele><time>2026-04-19T09:41:57.999Z</time></trkpt><trkpt lat="44.41947524794376" lon="7.546487196909909"><ele>512.0</ele><time>2026-04-19T09:41:58.999Z</time></trkpt><trkpt lat="44.41938643834388" lon="7.546549732884098"><ele>511.8</ele><time>2026-04-19T09:41:59.999Z</time></trkpt><trkpt lat="44.41929688768198" lon="7.5466110044519565"><ele>511.6</ele><time>2026-04-19T09:42:00.999Z</time></trkpt><trkpt lat="44.41920759566065" lon="7.546671085658203"><ele>511.40000000000003</ele><time>2026-04-19T09:42:01.999Z</time></trkpt><trkpt lat="44.41911694882674" lon="7.546732391981299"><ele>511.20000000000005</ele><time>2026-04-19T09:42:02.999Z</time></trkpt><trkpt lat="44.41902538450061" lon="7.54679926430228"><ele>511.0</ele><time>2026-04-19T09:42:03.999Z</time></trkpt><trkpt lat="44.418930496409864" lon="7.546868012765145"><ele>511.0</ele><time>2026-04-19T09:42:04.999Z</time></trkpt><trkpt lat="44.418832135807534" lon="7.546933897951808"><ele>511.0</ele><time>2026-04-19T09:42:05.999Z</time></trkpt><trkpt lat="44.4187323434885" lon="7.546999528098312"><ele>511.0</ele><time>2026-04-19T09:42:06.999Z</time></trkpt><trkpt lat="44.41862864026948" lon="7.54706848160638"><ele>511.0</ele><time>2026-04-19T09:42:07.999Z</time></trkpt><trkpt lat="44.418524322367915" lon="7.547138896237896"><ele>511.5</ele><time>2026-04-19T09:42:08.999Z</time></trkpt><trkpt lat="44.418418704654584" lon="7.547211227082476"><ele>512.0</ele><time>2026-04-19T09:42:09.999Z</time></trkpt><trkpt lat="44.41831062056777" lon="7.5472850267111555"><ele>512.5</ele><time>2026-04-19T09:42:10.999Z</time></trkpt><trkpt lat="44.41820129685593" lon="7.547358534023384"><ele>513.0</ele><time>2026-04-19T09:42:11.999Z</time></trkpt><trkpt lat="44.418090028364574" lon="7.547434129588089"><ele>513.5</ele><time>2026-04-19T09:42:12.999Z</time></trkpt><trkpt lat="44.41797807729313" lon="7.547510638684906"><ele>514.0</ele><time>2026-04-19T09:42:13.999Z</time></trkpt><trkpt lat="44.41786539931266" lon="7.547587710319479"><ele>514.5</ele><time>2026-04-19T09:42:14.999Z</time></trkpt><trkpt lat="44.41775194452535" lon="7.547665199153148"><ele>515.0</ele><time>2026-04-19T09:42:15.999Z</time></trkpt><trkpt lat="44.41763820681507" lon="7.54774256510062"><ele>515.0</ele><time>2026-04-19T09:42:16.998Z</time></trkpt><trkpt lat="44.41752558639342" lon="7.547819673295873"><ele>515.0</ele><time>2026-04-19T09:42:17.998Z</time></trkpt><trkpt lat="44.417411807666596" lon="7.54789696756043"><ele>515.0</ele><time>2026-04-19T09:42:18.998Z</time></trkpt><trkpt lat="44.417294923954614" lon="7.547975606363529"><ele>515.0</ele><time>2026-04-19T09:42:19.998Z</time></trkpt><trkpt lat="44.41717521616051" lon="7.548055160008148"><ele>514.75</ele><time>2026-04-19T09:42:20.998Z</time></trkpt><trkpt lat="44.41705452843965" lon="7.54813636698373"><ele>514.5</ele><time>2026-04-19T09:42:21.998Z</time></trkpt><trkpt lat="44.41693214318681" lon="7.548218818142444"><ele>514.25</ele><time>2026-04-19T09:42:22.998Z</time></trkpt><trkpt lat="44.41680788926644" lon="7.5483026096723"><ele>514.0</ele><time>2026-04-19T09:42:23.998Z</time></trkpt><trkpt lat="44.416686485602845" lon="7.548385770109486"><ele>514.0</ele><time>2026-04-19T09:42:24.998Z</time></trkpt><trkpt lat="44.416565798719084" lon="7.548468334432454"><ele>514.0</ele><time>2026-04-19T09:42:25.998Z</time></trkpt><trkpt lat="44.41644475844677" lon="7.548550202399389"><ele>514.0</ele><time>2026-04-19T09:42:26.998Z</time></trkpt><trkpt lat="44.41633392416731" lon="7.548625616688167"><ele>514.0</ele><time>2026-04-19T09:42:27.998Z</time></trkpt><trkpt lat="44.416230731510915" lon="7.548695324209037"><ele>514.2</ele><time>2026-04-19T09:42:28.998Z</time></trkpt><trkpt lat="44.4161337540802" lon="7.548761693620982"><ele>514.4</ele><time>2026-04-19T09:42:29.998Z</time></trkpt><trkpt lat="44.41603777581383" lon="7.548826366900224"><ele>514.6</ele><time>2026-04-19T09:42:30.998Z</time></trkpt><trkpt lat="44.415938179813786" lon="7.548892403751818"><ele>514.8</ele><time>2026-04-19T09:42:31.998Z</time></trkpt><trkpt lat="44.41583719544072" lon="7.548959719795796"><ele>515.0</ele><time>2026-04-19T09:42:32.998Z</time></trkpt><trkpt lat="44.41573399216816" lon="7.549030537629788"><ele>515.0</ele><time>2026-04-19T09:42:33.998Z</time></trkpt><trkpt lat="44.415626098643855" lon="7.549102734454869"><ele>515.0</ele><time>2026-04-19T09:42:34.998Z</time></trkpt><trkpt lat="44.415509209625064" lon="7.5491802948453826"><ele>515.0</ele><time>2026-04-19T09:42:35.998Z</time></trkpt><trkpt lat="44.41538974151335" lon="7.549260743057995"><ele>515.0</ele><time>2026-04-19T09:42:36.998Z</time></trkpt><trkpt lat="44.4152681883094" lon="7.54934454376847"><ele>515.25</ele><time>2026-04-19T09:42:37.998Z</time></trkpt><trkpt lat="44.41514890407945" lon="7.549427034991155"><ele>515.5</ele><time>2026-04-19T09:42:38.998Z</time></trkpt><trkpt lat="44.41503521927835" lon="7.549508254823505"><ele>515.75</ele><time>2026-04-19T09:42:39.998Z</time></trkpt><trkpt lat="44.41492741065026" lon="7.549586513805375"><ele>516.0</ele><time>2026-04-19T09:42:40.998Z</time></trkpt><trkpt lat="44.41482224093025" lon="7.549659777217814"><ele>516.0</ele><time>2026-04-19T09:42:41.998Z</time></trkpt><trkpt lat="44.414721354149755" lon="7.549728822014271"><ele>516.0</ele><time>2026-04-19T09:42:42.998Z</time></trkpt><trkpt lat="44.41462617948192" lon="7.549796113070586"><ele>516.0</ele><time>2026-04-19T09:42:43.998Z</time></trkpt><trkpt lat="44.4145339260287" lon="7.549860889751616"><ele>516.0</ele><time>2026-04-19T09:42:44.998Z</time></trkpt><trkpt lat="44.414444906330935" lon="7.549923227855894"><ele>516.0</ele><time>2026-04-19T09:42:45.998Z</time></trkpt><trkpt lat="44.41435973720047" lon="7.549982484844648"><ele>516.4</ele><time>2026-04-19T09:42:46.998Z</time></trkpt><trkpt lat="44.41427798604421" lon="7.55003730998346"><ele>516.8</ele><time>2026-04-19T09:42:47.998Z</time></trkpt><trkpt lat="44.41419870926518" lon="7.550089367097027"><ele>517.1999999999999</ele><time>2026-04-19T09:42:48.998Z</time></trkpt><trkpt lat="44.4141188384585" lon="7.550141032149688"><ele>517.6</ele><time>2026-04-19T09:42:49.999Z</time></trkpt><trkpt lat="44.4140372703641" lon="7.550191608320785"><ele>518.0</ele><time>2026-04-19T09:42:50.999Z</time></trkpt><trkpt lat="44.41394575298151" lon="7.550247835771691"><ele>518.0</ele><time>2026-04-19T09:42:51.999Z</time></trkpt><trkpt lat="44.41384823867084" lon="7.550315752696237"><ele>518.0</ele><time>2026-04-19T09:42:52.999Z</time></trkpt><trkpt lat="44.413749864529294" lon="7.550385393889367"><ele>518.0</ele><time>2026-04-19T09:42:53.999Z</time></trkpt><trkpt lat="44.41365008094544" lon="7.550452801805965"><ele>518.0</ele><time>2026-04-19T09:42:54.999Z</time></trkpt><trkpt lat="44.413550421352994" lon="7.550519658122999"><ele>518.0</ele><time>2026-04-19T09:42:55.999Z</time></trkpt><trkpt lat="44.41345269988386" lon="7.550587336499769"><ele>518.1999999999999</ele><time>2026-04-19T09:42:56.999Z</time></trkpt><trkpt lat="44.413356081424055" lon="7.550654009515667"><ele>518.4</ele><time>2026-04-19T09:42:57.999Z</time></trkpt><trkpt lat="44.41325884149765" lon="7.5507185216677435"><ele>518.5999999999999</ele><time>2026-04-19T09:42:58.999Z</time></trkpt><trkpt lat="44.41316341171118" lon="7.550782079733467"><ele>518.8</ele><time>2026-04-19T09:42:59.999Z</time></trkpt><trkpt lat="44.413070048705805" lon="7.550845024102021"><ele>519.0</ele><time>2026-04-19T09:43:00.999Z</time></trkpt><trkpt lat="44.41297798032053" lon="7.550909609369018"><ele>519.0</ele><time>2026-04-19T09:43:01.999Z</time></trkpt><trkpt lat="44.41289010468322" lon="7.550971653886919"><ele>519.0</ele><time>2026-04-19T09:43:02.999Z</time></trkpt><trkpt lat="44.412800724049035" lon="7.551033190225987"><ele>519.0</ele><time>2026-04-19T09:43:03.999Z</time></trkpt><trkpt lat="44.41271177550763" lon="7.551092668649039"><ele>519.0</ele><time>2026-04-19T09:43:04.999Z</time></trkpt><trkpt lat="44.41262500178178" lon="7.551150811516286"><ele>519.0</ele><time>2026-04-19T09:43:05.999Z</time></trkpt><trkpt lat="44.41254156776843" lon="7.551206714559107"><ele>518.8</ele><time>2026-04-19T09:43:06.999Z</time></trkpt><trkpt lat="44.412456395830006" lon="7.551265535584878"><ele>518.5999999999999</ele><time>2026-04-19T09:43:07.999Z</time></trkpt><trkpt lat="44.41236275984721" lon="7.551329230586724"><ele>518.4</ele><time>2026-04-19T09:43:08.999Z</time></trkpt><trkpt lat="44.41226306219175" lon="7.551395746356976"><ele>518.1999999999999</ele><time>2026-04-19T09:43:09.999Z</time></trkpt><trkpt lat="44.41216212188941" lon="7.551467073741248"><ele>518.0</ele><time>2026-04-19T09:43:10.999Z</time></trkpt><trkpt lat="44.412066583967615" lon="7.551530235657164"><ele>518.0</ele><time>2026-04-19T09:43:11.999Z</time></trkpt><trkpt lat="44.41197915318973" lon="7.551587982994293"><ele>518.0</ele><time>2026-04-19T09:43:12.999Z</time></trkpt><trkpt lat="44.411899228838465" lon="7.5516393520394605"><ele>518.0</ele><time>2026-04-19T09:43:13.999Z</time></trkpt><trkpt lat="44.41182971792614" lon="7.55168386080667"><ele>518.0</ele><time>2026-04-19T09:43:14.999Z</time></trkpt><trkpt lat="44.41176715905465" lon="7.551730243350395"><ele>518.0</ele><time>2026-04-19T09:43:15.999Z</time></trkpt><trkpt lat="44.41167186047758" lon="7.551815253859752"><ele>518.0</ele><time>2026-04-19T09:43:17.999Z</time></trkpt><trkpt lat="44.41157388785851" lon="7.551901086667756"><ele>518.0</ele><time>2026-04-19T09:43:19.999Z</time></trkpt><trkpt lat="44.41150299895503" lon="7.551957663502145"><ele>518.0</ele><time>2026-04-19T09:43:20.999Z</time></trkpt><trkpt lat="44.411417452606344" lon="7.552019188841906"><ele>518.0</ele><time>2026-04-19T09:43:21.999Z</time></trkpt><trkpt lat="44.411319240247124" lon="7.552081766034061"><ele>518.0</ele><time>2026-04-19T09:43:22.999Z</time></trkpt><trkpt lat="44.411210718542144" lon="7.552145652311861"><ele>518.0</ele><time>2026-04-19T09:43:23.999Z</time></trkpt><trkpt lat="44.411094855571044" lon="7.552208862719191"><ele>518.4</ele><time>2026-04-19T09:43:24.999Z</time></trkpt><trkpt lat="44.410981491765746" lon="7.552267512470502"><ele>518.8</ele><time>2026-04-19T09:43:25.999Z</time></trkpt><trkpt lat="44.41087726369362" lon="7.552320802660864"><ele>519.2</ele><time>2026-04-19T09:43:26.999Z</time></trkpt><trkpt lat="44.410778875707045" lon="7.552373332209849"><ele>519.6</ele><time>2026-04-19T09:43:27.999Z</time></trkpt><trkpt lat="44.41068410977286" lon="7.552424998730274"><ele>520.0</ele><time>2026-04-19T09:43:28.999Z</time></trkpt><trkpt lat="44.4105915613229" lon="7.552473490469849"><ele>520.0</ele><time>2026-04-19T09:43:29.999Z</time></trkpt><trkpt lat="44.410502162592465" lon="7.552517762662739"><ele>520.0</ele><time>2026-04-19T09:43:30.999Z</time></trkpt><trkpt lat="44.41041480720328" lon="7.552559366087154"><ele>520.0</ele><time>2026-04-19T09:43:31.999Z</time></trkpt><trkpt lat="44.41032980897067" lon="7.55259454557269"><ele>520.0</ele><time>2026-04-19T09:43:32.999Z</time></trkpt><trkpt lat="44.41024481936497" lon="7.5526202325769445"><ele>520.0</ele><time>2026-04-19T09:43:33.999Z</time></trkpt><trkpt lat="44.410160925659596" lon="7.552632926021329"><ele>520.0</ele><time>2026-04-19T09:43:34.999Z</time></trkpt><trkpt lat="44.410081789197214" lon="7.552631317356711"><ele>520.0</ele><time>2026-04-19T09:43:35.999Z</time></trkpt><trkpt lat="44.41001245944995" lon="7.552621889085993"><ele>520.0</ele><time>2026-04-19T09:43:36.999Z</time></trkpt><trkpt lat="44.409894810240495" lon="7.5526013055136305"><ele>520.0</ele><time>2026-04-19T09:43:38.999Z</time></trkpt><trkpt lat="44.40979523841606" lon="7.5525981449907915"><ele>520.0</ele><time>2026-04-19T09:43:40.999Z</time></trkpt><trkpt lat="44.40968540186308" lon="7.552807667922491"><ele>519.0</ele><time>2026-04-19T09:43:42.999Z</time></trkpt><trkpt lat="44.40962643163553" lon="7.552869010911663"><ele>518.0</ele><time>2026-04-19T09:43:43.999Z</time></trkpt><trkpt lat="44.40955287287251" lon="7.552889958286735"><ele>517.0</ele><time>2026-04-19T09:43:44.999Z</time></trkpt><trkpt lat="44.40946927095355" lon="7.55290542261496"><ele>516.0</ele><time>2026-04-19T09:43:45.999Z</time></trkpt><trkpt lat="44.40936988564702" lon="7.552856340469138"><ele>515.0</ele><time>2026-04-19T09:43:46.999Z</time></trkpt><trkpt lat="44.40925669878038" lon="7.552820737197328"><ele>515.0</ele><time>2026-04-19T09:43:47.999Z</time></trkpt><trkpt lat="44.4091279397825" lon="7.55275785911285"><ele>515.0</ele><time>2026-04-19T09:43:48.999Z</time></trkpt><trkpt lat="44.408979841989705" lon="7.552700619580195"><ele>515.0</ele><time>2026-04-19T09:43:49.999Z</time></trkpt><trkpt lat="44.408813949202795" lon="7.552637444122813"><ele>513.6666666666666</ele><time>2026-04-19T09:43:50.999Z</time></trkpt><trkpt lat="44.40862326895896" lon="7.552571026919561"><ele>512.3333333333334</ele><time>2026-04-19T09:43:51.999Z</time></trkpt><trkpt lat="44.4084228366234" lon="7.552483376870906"><ele>511.0</ele><time>2026-04-19T09:43:52.999Z</time></trkpt><trkpt lat="44.408208216219535" lon="7.5524006842665"><ele>509.5</ele><time>2026-04-19T09:43:53.999Z</time></trkpt><trkpt lat="44.40797663830151" lon="7.55231801366162"><ele>508.0</ele><time>2026-04-19T09:43:54.999Z</time></trkpt><trkpt lat="44.40773692519241" lon="7.552234871130306"><ele>508.0</ele><time>2026-04-19T09:43:55.999Z</time></trkpt><trkpt lat="44.407471161717375" lon="7.552118374281193"><ele>508.0</ele><time>2026-04-19T09:43:56.999Z</time></trkpt><trkpt lat="44.40718491951123" lon="7.55200749867539"><ele>506.0</ele><time>2026-04-19T09:43:57.999Z</time></trkpt><trkpt lat="44.40684627178602" lon="7.552043210561271"><ele>504.0</ele><time>2026-04-19T09:43:58.999Z</time></trkpt><trkpt lat="44.406508983170944" lon="7.552003149824105"><ele>506.0</ele><time>2026-04-19T09:43:59.999Z</time></trkpt><trkpt lat="44.40616588553098" lon="7.551982806597491"><ele>508.0</ele><time>2026-04-19T09:44:00.999Z</time></trkpt><trkpt lat="44.40625376872707" lon="7.551672002457578"><ele>508.0</ele><time>2026-04-19T09:44:01.999Z</time></trkpt><trkpt lat="44.406029661376294" lon="7.551584449428887"><ele>508.0</ele><time>2026-04-19T09:44:02.999Z</time></trkpt><trkpt lat="44.40581569008512" lon="7.551492994062551"><ele>508.0</ele><time>2026-04-19T09:44:03.999Z</time></trkpt><trkpt lat="44.40562558474403" lon="7.551359120816348"><ele>508.0</ele><time>2026-04-19T09:44:04.999Z</time></trkpt><trkpt lat="44.405445318197074" lon="7.551206285844824"><ele>508.0</ele><time>2026-04-19T09:44:05.999Z</time></trkpt><trkpt lat="44.4052746190265" lon="7.551026197399124"><ele>509.0</ele><time>2026-04-19T09:44:06.999Z</time></trkpt><trkpt lat="44.40509803590877" lon="7.550833560814884"><ele>510.0</ele><time>2026-04-19T09:44:07.999Z</time></trkpt><trkpt lat="44.4049146386513" lon="7.550630293356497"><ele>510.0</ele><time>2026-04-19T09:44:08.999Z</time></trkpt><trkpt lat="44.40471567704196" lon="7.550435995780314"><ele>510.0</ele><time>2026-04-19T09:44:09.999Z</time></trkpt><trkpt lat="44.40451400237508" lon="7.550210162800336"><ele>508.5</ele><time>2026-04-19T09:44:10.999Z</time></trkpt><trkpt lat="44.404306307898956" lon="7.549985680564114"><ele>507.0</ele><time>2026-04-19T09:44:11.999Z</time></trkpt><trkpt lat="44.40410271452169" lon="7.549758137225738"><ele>505.0</ele><time>2026-04-19T09:44:12.999Z</time></trkpt><trkpt lat="44.40390999817189" lon="7.549539830984818"><ele>503.0</ele><time>2026-04-19T09:44:13.999Z</time></trkpt><trkpt lat="44.40372944715989" lon="7.549325862950309"><ele>503.0</ele><time>2026-04-19T09:44:14.999Z</time></trkpt><trkpt lat="44.403573171425165" lon="7.5490811304425325"><ele>503.0</ele><time>2026-04-19T09:44:15.999Z</time></trkpt><trkpt lat="44.40340523822601" lon="7.548831200811223"><ele>509.0</ele><time>2026-04-19T09:44:16.999Z</time></trkpt><trkpt lat="44.40323029102163" lon="7.548599417804401"><ele>515.0</ele><time>2026-04-19T09:44:17.999Z</time></trkpt><trkpt lat="44.40307274021987" lon="7.5483543092082135"><ele>505.5</ele><time>2026-04-19T09:44:18.999Z</time></trkpt><trkpt lat="44.40291692138741" lon="7.5481133965936555"><ele>496.0</ele><time>2026-04-19T09:44:19.999Z</time></trkpt><trkpt lat="44.40276738950147" lon="7.547883904879105"><ele>501.0</ele><time>2026-04-19T09:44:20.999Z</time></trkpt><trkpt lat="44.402623522964184" lon="7.547664789805547"><ele>506.0</ele><time>2026-04-19T09:44:21.999Z</time></trkpt><trkpt lat="44.40248214849057" lon="7.547452240535903"><ele>511.0</ele><time>2026-04-19T09:44:22.999Z</time></trkpt><trkpt lat="44.40234090766605" lon="7.5472402554574645"><ele>507.6666666666667</ele><time>2026-04-19T09:44:23.999Z</time></trkpt><trkpt lat="44.40219853708598" lon="7.547021793171534"><ele>504.33333333333337</ele><time>2026-04-19T09:44:24.999Z</time></trkpt><trkpt lat="44.40205278892924" lon="7.5468012167264655"><ele>501.0</ele><time>2026-04-19T09:44:25.999Z</time></trkpt><trkpt lat="44.40191189700194" lon="7.546577651903231"><ele>501.0</ele><time>2026-04-19T09:44:26.999Z</time></trkpt><trkpt lat="44.401778690415156" lon="7.546348851252261"><ele>501.0</ele><time>2026-04-19T09:44:27.999Z</time></trkpt><trkpt lat="44.40165735396396" lon="7.546118671878244"><ele>501.0</ele><time>2026-04-19T09:44:28.999Z</time></trkpt><trkpt lat="44.40154398853321" lon="7.545894607058286"><ele>502.0</ele><time>2026-04-19T09:44:29.999Z</time></trkpt><trkpt lat="44.40143568924346" lon="7.545679730334166"><ele>503.0</ele><time>2026-04-19T09:44:30.998Z</time></trkpt><trkpt lat="44.40133130224068" lon="7.545471980648256"><ele>504.0</ele><time>2026-04-19T09:44:31.998Z</time></trkpt><trkpt lat="44.40122990674431" lon="7.545275882710607"><ele>504.0</ele><time>2026-04-19T09:44:32.998Z</time></trkpt><trkpt lat="44.40113157553851" lon="7.545086334886112"><ele>504.0</ele><time>2026-04-19T09:44:33.998Z</time></trkpt><trkpt lat="44.401037269579476" lon="7.544906940401011"><ele>504.0</ele><time>2026-04-19T09:44:34.998Z</time></trkpt><trkpt lat="44.40094901483401" lon="7.54473552665064"><ele>504.0</ele><time>2026-04-19T09:44:35.998Z</time></trkpt><trkpt lat="44.400866155097276" lon="7.544573738267436"><ele>504.0</ele><time>2026-04-19T09:44:36.998Z</time></trkpt><trkpt lat="44.40078924719885" lon="7.544421944553418"><ele>504.0</ele><time>2026-04-19T09:44:37.998Z</time></trkpt><trkpt lat="44.400717457030375" lon="7.544282948968115"><ele>504.0</ele><time>2026-04-19T09:44:38.998Z</time></trkpt><trkpt lat="44.40065028484829" lon="7.544169890238534"><ele>503.3333333333333</ele><time>2026-04-19T09:44:39.998Z</time></trkpt><trkpt lat="44.40058376293953" lon="7.544076233023257"><ele>502.66666666666663</ele><time>2026-04-19T09:44:40.998Z</time></trkpt><trkpt lat="44.40051666422133" lon="7.543999957360342"><ele>502.0</ele><time>2026-04-19T09:44:41.998Z</time></trkpt><trkpt lat="44.4004505261085" lon="7.5439387255762105"><ele>501.3333333333333</ele><time>2026-04-19T09:44:42.998Z</time></trkpt><trkpt lat="44.400386707166625" lon="7.543884484051319"><ele>500.66666666666663</ele><time>2026-04-19T09:44:43.998Z</time></trkpt><trkpt lat="44.4003253586829" lon="7.5438429864409455"><ele>500.0</ele><time>2026-04-19T09:44:44.998Z</time></trkpt><trkpt lat="44.40026350416801" lon="7.543821793323952"><ele>500.0</ele><time>2026-04-19T09:44:45.998Z</time></trkpt><trkpt lat="44.400197126679025" lon="7.543837140104308"><ele>500.0</ele><time>2026-04-19T09:44:46.998Z</time></trkpt><trkpt lat="44.40012190868263" lon="7.543909348199347"><ele>500.0</ele><time>2026-04-19T09:44:47.998Z</time></trkpt><trkpt lat="44.40005969802073" lon="7.544013571227277"><ele>500.0</ele><time>2026-04-19T09:44:48.998Z</time></trkpt><trkpt lat="44.3999914161774" lon="7.5441318062402205"><ele>500.0</ele><time>2026-04-19T09:44:49.998Z</time></trkpt><trkpt lat="44.399923019461376" lon="7.54425380516046"><ele>500.0</ele><time>2026-04-19T09:44:50.998Z</time></trkpt><trkpt lat="44.39980206134108" lon="7.544366676847602"><ele>500.0</ele><time>2026-04-19T09:44:51.998Z</time></trkpt><trkpt lat="44.399667633108" lon="7.544491042042573"><ele>500.0</ele><time>2026-04-19T09:44:52.998Z</time></trkpt><trkpt lat="44.399524013724466" lon="7.544650726026558"><ele>497.3333333333333</ele><time>2026-04-19T09:44:53.998Z</time></trkpt><trkpt lat="44.399374992549234" lon="7.544832524965884"><ele>494.66666666666663</ele><time>2026-04-19T09:44:54.998Z</time></trkpt><trkpt lat="44.39920750181043" lon="7.545011871420116"><ele>492.0</ele><time>2026-04-19T09:44:55.999Z</time></trkpt><trkpt lat="44.39903425481098" lon="7.545211800993174"><ele>492.0</ele><time>2026-04-19T09:44:56.999Z</time></trkpt><trkpt lat="44.398851295691806" lon="7.545424654040343"><ele>492.0</ele><time>2026-04-19T09:44:57.999Z</time></trkpt><trkpt lat="44.398658306424885" lon="7.545647717831449"><ele>492.0</ele><time>2026-04-19T09:44:58.999Z</time></trkpt><trkpt lat="44.39846150874648" lon="7.545866770626671"><ele>492.0</ele><time>2026-04-19T09:44:59.999Z</time></trkpt><trkpt lat="44.39826527724905" lon="7.546090449518817"><ele>492.0</ele><time>2026-04-19T09:45:00.999Z</time></trkpt><trkpt lat="44.398074525668086" lon="7.5463107771128115"><ele>492.0</ele><time>2026-04-19T09:45:01.999Z</time></trkpt><trkpt lat="44.39788928621354" lon="7.546527677968718"><ele>493.5</ele><time>2026-04-19T09:45:02.999Z</time></trkpt><trkpt lat="44.3977079138421" lon="7.546737168207883"><ele>495.0</ele><time>2026-04-19T09:45:03.999Z</time></trkpt><trkpt lat="44.397534138538965" lon="7.546936250695408"><ele>495.0</ele><time>2026-04-19T09:45:04.999Z</time></trkpt><trkpt lat="44.397367569840846" lon="7.547126790462722"><ele>495.0</ele><time>2026-04-19T09:45:05.999Z</time></trkpt><trkpt lat="44.39719618112806" lon="7.547325639704377"><ele>495.0</ele><time>2026-04-19T09:45:06.999Z</time></trkpt><trkpt lat="44.39685125888398" lon="7.5477163800707805"><ele>495.66666666666663</ele><time>2026-04-19T09:45:08.999Z</time></trkpt><trkpt lat="44.3966936816292" lon="7.547895685262767"><ele>496.3333333333333</ele><time>2026-04-19T09:45:09.999Z</time></trkpt><trkpt lat="44.396544993371315" lon="7.548066649749341"><ele>497.0</ele><time>2026-04-19T09:45:10.999Z</time></trkpt><trkpt lat="44.39640331248868" lon="7.548230079133068"><ele>500.0</ele><time>2026-04-19T09:45:11.999Z</time></trkpt><trkpt lat="44.39626951726608" lon="7.548385012736574"><ele>503.0</ele><time>2026-04-19T09:45:12.999Z</time></trkpt><trkpt lat="44.396143612321744" lon="7.548532058221639"><ele>506.0</ele><time>2026-04-19T09:45:13.999Z</time></trkpt><trkpt lat="44.39602575075577" lon="7.54866666554714"><ele>508.0</ele><time>2026-04-19T09:45:14.999Z</time></trkpt><trkpt lat="44.39592118086388" lon="7.548782614965352"><ele>510.0</ele><time>2026-04-19T09:45:15.999Z</time></trkpt><trkpt lat="44.39582927266606" lon="7.548873410352167"><ele>512.0</ele><time>2026-04-19T09:45:16.999Z</time></trkpt><trkpt lat="44.39574304075215" lon="7.548933499649131"><ele>514.0</ele><time>2026-04-19T09:45:17.999Z</time></trkpt><trkpt lat="44.39565463057336" lon="7.548954018053733"><ele>516.0</ele><time>2026-04-19T09:45:18.999Z</time></trkpt><trkpt lat="44.39557547304267" lon="7.548973018105396"><ele>516.0</ele><time>2026-04-19T09:45:19.999Z</time></trkpt><trkpt lat="44.395513034489596" lon="7.549029522969237"><ele>516.0</ele><time>2026-04-19T09:45:20.999Z</time></trkpt><trkpt lat="44.39548237776942" lon="7.54912603778646"><ele>516.0</ele><time>2026-04-19T09:45:21.999Z</time></trkpt><trkpt lat="44.395471025882465" lon="7.5492321138063785"><ele>516.0</ele><time>2026-04-19T09:45:22.999Z</time></trkpt><trkpt lat="44.39549962142266" lon="7.549341642548415"><ele>516.0</ele><time>2026-04-19T09:45:23.999Z</time></trkpt><trkpt lat="44.3955635672809" lon="7.54944830710565"><ele>516.0</ele><time>2026-04-19T09:45:24.999Z</time></trkpt><trkpt lat="44.39561234220011" lon="7.5496258214070835"><ele>515.6666666666666</ele><time>2026-04-19T09:45:25.999Z</time></trkpt><trkpt lat="44.395672947979705" lon="7.54981342881733"><ele>515.3333333333333</ele><time>2026-04-19T09:45:26.999Z</time></trkpt><trkpt lat="44.39573475630053" lon="7.550029591953564"><ele>515.0</ele><time>2026-04-19T09:45:27.999Z</time></trkpt><trkpt lat="44.39579287850732" lon="7.550271948950423"><ele>517.0</ele><time>2026-04-19T09:45:28.999Z</time></trkpt><trkpt lat="44.39585083944224" lon="7.550532283639256"><ele>519.0</ele><time>2026-04-19T09:45:29.999Z</time></trkpt><trkpt lat="44.3959138478603" lon="7.550806579863001"><ele>521.0</ele><time>2026-04-19T09:45:30.999Z</time></trkpt><trkpt lat="44.39598731141462" lon="7.5510935770162275"><ele>524.5</ele><time>2026-04-19T09:45:31.999Z</time></trkpt><trkpt lat="44.39606942277833" lon="7.551391552357597"><ele>528.0</ele><time>2026-04-19T09:45:32.999Z</time></trkpt><trkpt lat="44.39615498542752" lon="7.551696634978836"><ele>528.0</ele><time>2026-04-19T09:45:33.999Z</time></trkpt><trkpt lat="44.39623777548028" lon="7.552007484787598"><ele>528.0</ele><time>2026-04-19T09:45:34.999Z</time></trkpt><trkpt lat="44.39631551671311" lon="7.552298889419017"><ele>525.0</ele><time>2026-04-19T09:45:35.999Z</time></trkpt><trkpt lat="44.39638933399966" lon="7.552569925027456"><ele>522.0</ele><time>2026-04-19T09:45:36.999Z</time></trkpt><trkpt lat="44.39646088454104" lon="7.5528281204489485"><ele>519.0</ele><time>2026-04-19T09:45:37.999Z</time></trkpt><trkpt lat="44.39652937704275" lon="7.553073613677301"><ele>519.0</ele><time>2026-04-19T09:45:38.999Z</time></trkpt><trkpt lat="44.39659267672036" lon="7.553309908900196"><ele>519.0</ele><time>2026-04-19T09:45:39.999Z</time></trkpt><trkpt lat="44.39664915168654" lon="7.553534611266171"><ele>519.0</ele><time>2026-04-19T09:45:40.999Z</time></trkpt><trkpt lat="44.39670184836296" lon="7.553749049316696"><ele>519.25</ele><time>2026-04-19T09:45:41.999Z</time></trkpt><trkpt lat="44.39675162270904" lon="7.553954763025657"><ele>519.5</ele><time>2026-04-19T09:45:42.999Z</time></trkpt><trkpt lat="44.39680242335265" lon="7.554147635900863"><ele>519.75</ele><time>2026-04-19T09:45:43.999Z</time></trkpt><trkpt lat="44.39684906628149" lon="7.554329444708885"><ele>520.0</ele><time>2026-04-19T09:45:44.999Z</time></trkpt><trkpt lat="44.396877784846765" lon="7.554505674191104"><ele>519.5</ele><time>2026-04-19T09:45:45.999Z</time></trkpt><trkpt lat="44.39687046419738" lon="7.554673150302006"><ele>519.0</ele><time>2026-04-19T09:45:46.999Z</time></trkpt><trkpt lat="44.39682571122317" lon="7.554826706659769"><ele>518.5</ele><time>2026-04-19T09:45:47.999Z</time></trkpt><trkpt lat="44.39676313528544" lon="7.554957961649936"><ele>518.0</ele><time>2026-04-19T09:45:48.999Z</time></trkpt><trkpt lat="44.396688926982904" lon="7.5550573121085325"><ele>518.0</ele><time>2026-04-19T09:45:49.999Z</time></trkpt><trkpt lat="44.396607133982506" lon="7.555113969542495"><ele>518.0</ele><time>2026-04-19T09:45:50.999Z</time></trkpt><trkpt lat="44.39652085253073" lon="7.555125013900093"><ele>518.0</ele><time>2026-04-19T09:45:51.999Z</time></trkpt><trkpt lat="44.39644377801289" lon="7.55509720153444"><ele>518.0</ele><time>2026-04-19T09:45:52.999Z</time></trkpt><trkpt lat="44.39637953296837" lon="7.555048689219769"><ele>518.0</ele><time>2026-04-19T09:45:53.999Z</time></trkpt><trkpt lat="44.3963043396363" lon="7.554985045435522"><ele>518.0</ele><time>2026-04-19T09:45:55.999Z</time></trkpt><trkpt lat="44.396246953160116" lon="7.5548559100143144"><ele>518.5</ele><time>2026-04-19T09:45:58.999Z</time></trkpt><trkpt lat="44.39619064468403" lon="7.554803395385236"><ele>519.0</ele><time>2026-04-19T09:45:59.999Z</time></trkpt><trkpt lat="44.396134132722416" lon="7.5547474635171845"><ele>519.5</ele><time>2026-04-19T09:46:00.999Z</time></trkpt><trkpt lat="44.396057185842096" lon="7.554782802330287"><ele>520.0</ele><time>2026-04-19T09:46:01.999Z</time></trkpt><trkpt lat="44.39598119794918" lon="7.554850642161659"><ele>520.5</ele><time>2026-04-19T09:46:02.999Z</time></trkpt><trkpt lat="44.39592464776584" lon="7.554950340300925"><ele>521.0</ele><time>2026-04-19T09:46:03.999Z</time></trkpt><trkpt lat="44.39587466409042" lon="7.5550465135173495"><ele>521.0</ele><time>2026-04-19T09:46:04.999Z</time></trkpt><trkpt lat="44.39585649087281" lon="7.5551321387677115"><ele>521.0</ele><time>2026-04-19T09:46:05.999Z</time></trkpt><trkpt lat="44.395741282097994" lon="7.555116464466602"><ele>521.0</ele><time>2026-04-19T09:46:06.999Z</time></trkpt><trkpt lat="44.39563900422848" lon="7.555085173393731"><ele>521.0</ele><time>2026-04-19T09:46:07.999Z</time></trkpt><trkpt lat="44.39551342486915" lon="7.5550403359395215"><ele>521.0</ele><time>2026-04-19T09:46:08.999Z</time></trkpt><trkpt lat="44.39535878546153" lon="7.5549865635285585"><ele>520.3333333333333</ele><time>2026-04-19T09:46:09.999Z</time></trkpt><trkpt lat="44.39518925965712" lon="7.554938001724311"><ele>519.6666666666666</ele><time>2026-04-19T09:46:10.999Z</time></trkpt><trkpt lat="44.39501269212833" lon="7.554885741363909"><ele>519.0</ele><time>2026-04-19T09:46:11.999Z</time></trkpt><trkpt lat="44.394843594432764" lon="7.5548321949038275"><ele>519.0</ele><time>2026-04-19T09:46:12.999Z</time></trkpt><trkpt lat="44.394692557712794" lon="7.554787608986293"><ele>519.0</ele><time>2026-04-19T09:46:13.999Z</time></trkpt><trkpt lat="44.39456495088402" lon="7.554754486702143"><ele>519.0</ele><time>2026-04-19T09:46:14.999Z</time></trkpt><trkpt lat="44.39445336788473" lon="7.554697785781879"><ele>519.0</ele><time>2026-04-19T09:46:15.999Z</time></trkpt><trkpt lat="44.39434006094041" lon="7.554661936484766"><ele>518.2</ele><time>2026-04-19T09:46:16.999Z</time></trkpt><trkpt lat="44.39423071837249" lon="7.554627341450082"><ele>517.4</ele><time>2026-04-19T09:46:17.999Z</time></trkpt><trkpt lat="44.39412750589674" lon="7.554594671466561"><ele>516.6</ele><time>2026-04-19T09:46:18.999Z</time></trkpt><trkpt lat="44.39403135385223" lon="7.554564056082553"><ele>515.8</ele><time>2026-04-19T09:46:19.999Z</time></trkpt><trkpt lat="44.39393809676806" lon="7.554534362472039"><ele>515.0</ele><time>2026-04-19T09:46:20.999Z</time></trkpt><trkpt lat="44.393845696526846" lon="7.554504941731129"><ele>517.4</ele><time>2026-04-19T09:46:21.999Z</time></trkpt><trkpt lat="44.39374516740026" lon="7.5544729326855125"><ele>519.8</ele><time>2026-04-19T09:46:22.999Z</time></trkpt><trkpt lat="44.39363769778874" lon="7.554437669015895"><ele>522.2</ele><time>2026-04-19T09:46:23.999Z</time></trkpt><trkpt lat="44.393532223702486" lon="7.554401904302728"><ele>524.6</ele><time>2026-04-19T09:46:24.999Z</time></trkpt><trkpt lat="44.3934303721798" lon="7.554367552119377"><ele>527.0</ele><time>2026-04-19T09:46:25.999Z</time></trkpt><trkpt lat="44.39333517335727" lon="7.554337299158399"><ele>527.0</ele><time>2026-04-19T09:46:26.999Z</time></trkpt><trkpt lat="44.393246091271216" lon="7.554333299287203"><ele>527.0</ele><time>2026-04-19T09:46:27.999Z</time></trkpt><trkpt lat="44.393179393574265" lon="7.554318167425179"><ele>527.0</ele><time>2026-04-19T09:46:28.999Z</time></trkpt><trkpt lat="44.39307208742872" lon="7.554282882226807"><ele>527.0</ele><time>2026-04-19T09:46:30.999Z</time></trkpt><trkpt lat="44.393002058635496" lon="7.5542927389151755"><ele>527.0</ele><time>2026-04-19T09:46:32.999Z</time></trkpt><trkpt lat="44.39293296871115" lon="7.5543160245295455"><ele>527.0</ele><time>2026-04-19T09:46:33.999Z</time></trkpt><trkpt lat="44.39285278937243" lon="7.554363381687407"><ele>526.5</ele><time>2026-04-19T09:46:34.999Z</time></trkpt><trkpt lat="44.392776148674436" lon="7.554441657932499"><ele>526.0</ele><time>2026-04-19T09:46:35.999Z</time></trkpt><trkpt lat="44.392732167938334" lon="7.554532259508326"><ele>525.5</ele><time>2026-04-19T09:46:36.999Z</time></trkpt><trkpt lat="44.39266342027643" lon="7.554629849821874"><ele>525.0</ele><time>2026-04-19T09:46:38.999Z</time></trkpt><trkpt lat="44.392614149441215" lon="7.554702346514702"><ele>524.5</ele><time>2026-04-19T09:46:41.999Z</time></trkpt><trkpt lat="44.39254857151371" lon="7.554785114600369"><ele>524.0</ele><time>2026-04-19T09:46:44.999Z</time></trkpt><trkpt lat="44.392481619998186" lon="7.554801486890478"><ele>521.2</ele><time>2026-04-19T09:46:47.999Z</time></trkpt><trkpt lat="44.39241094819911" lon="7.554821406354187"><ele>518.4</ele><time>2026-04-19T09:46:49.999Z</time></trkpt><trkpt lat="44.39229512811135" lon="7.554846144559868"><ele>515.6</ele><time>2026-04-19T09:46:51.998Z</time></trkpt><trkpt lat="44.39222248171481" lon="7.554976466945945"><ele>512.8</ele><time>2026-04-19T09:46:53.998Z</time></trkpt><trkpt lat="44.39223089069453" lon="7.555081579184399"><ele>510.0</ele><time>2026-04-19T09:46:54.998Z</time></trkpt><trkpt lat="44.39223687199849" lon="7.55518792073441"><ele>510.0</ele><time>2026-04-19T09:46:55.998Z</time></trkpt><trkpt lat="44.392244404698666" lon="7.555312321315029"><ele>510.0</ele><time>2026-04-19T09:46:56.998Z</time></trkpt><trkpt lat="44.39223998420344" lon="7.55543145556834"><ele>510.0</ele><time>2026-04-19T09:46:57.998Z</time></trkpt><trkpt lat="44.39221582482013" lon="7.555569227103966"><ele>510.0</ele><time>2026-04-19T09:46:58.998Z</time></trkpt><trkpt lat="44.39216789221184" lon="7.555719086033285"><ele>510.0</ele><time>2026-04-19T09:46:59.998Z</time></trkpt><trkpt lat="44.3921063085385" lon="7.555879833196099"><ele>507.66666666666663</ele><time>2026-04-19T09:47:00.998Z</time></trkpt><trkpt lat="44.39204060603688" lon="7.556051922648049"><ele>505.3333333333333</ele><time>2026-04-19T09:47:01.998Z</time></trkpt><trkpt lat="44.391967428160505" lon="7.5562459155449195"><ele>503.0</ele><time>2026-04-19T09:47:02.998Z</time></trkpt><trkpt lat="44.391897490661954" lon="7.556441908616047"><ele>503.0</ele><time>2026-04-19T09:47:03.998Z</time></trkpt><trkpt lat="44.391826425397156" lon="7.5566365246926726"><ele>503.0</ele><time>2026-04-19T09:47:04.998Z</time></trkpt><trkpt lat="44.39176025950234" lon="7.556821011256465"><ele>503.0</ele><time>2026-04-19T09:47:05.998Z</time></trkpt><trkpt lat="44.39169911328559" lon="7.55699578300713"><ele>503.0</ele><time>2026-04-19T09:47:06.998Z</time></trkpt><trkpt lat="44.391639847696894" lon="7.5571582760669544"><ele>503.0</ele><time>2026-04-19T09:47:07.998Z</time></trkpt><trkpt lat="44.39158387613769" lon="7.557311715418777"><ele>503.0</ele><time>2026-04-19T09:47:08.998Z</time></trkpt><trkpt lat="44.39152706098523" lon="7.557469392248252"><ele>503.0</ele><time>2026-04-19T09:47:09.998Z</time></trkpt><trkpt lat="44.391470383546164" lon="7.557625984373797"><ele>503.0</ele><time>2026-04-19T09:47:10.998Z</time></trkpt><trkpt lat="44.391419842537836" lon="7.557770032499998"><ele>502.59999999999997</ele><time>2026-04-19T09:47:11.998Z</time></trkpt><trkpt lat="44.39137168229319" lon="7.557905434193607"><ele>502.19999999999993</ele><time>2026-04-19T09:47:12.998Z</time></trkpt><trkpt lat="44.391324168822756" lon="7.558024158351932"><ele>501.8</ele><time>2026-04-19T09:47:13.998Z</time></trkpt><trkpt lat="44.39128361891605" lon="7.558108736864619"><ele>501.4</ele><time>2026-04-19T09:47:14.998Z</time></trkpt><trkpt lat="44.39122844897718" lon="7.558198868038327"><ele>501.0</ele><time>2026-04-19T09:47:16.998Z</time></trkpt><trkpt lat="44.39113526662624" lon="7.558241878680533"><ele>501.0</ele><time>2026-04-19T09:47:18.998Z</time></trkpt><trkpt lat="44.39109129180677" lon="7.558319756588252"><ele>501.0</ele><time>2026-04-19T09:47:19.998Z</time></trkpt><trkpt lat="44.39106065425256" lon="7.558410733471685"><ele>501.0</ele><time>2026-04-19T09:47:20.999Z</time></trkpt><trkpt lat="44.39106816919689" lon="7.5585376287244825"><ele>501.0</ele><time>2026-04-19T09:47:21.999Z</time></trkpt><trkpt lat="44.39110246284325" lon="7.558679672669216"><ele>501.0</ele><time>2026-04-19T09:47:22.999Z</time></trkpt><trkpt lat="44.391126692524246" lon="7.558837844678796"><ele>501.25</ele><time>2026-04-19T09:47:23.999Z</time></trkpt><trkpt lat="44.391122894735496" lon="7.559007511811211"><ele>501.5</ele><time>2026-04-19T09:47:24.999Z</time></trkpt><trkpt lat="44.39111016049439" lon="7.55918482601738"><ele>501.75</ele><time>2026-04-19T09:47:25.999Z</time></trkpt><trkpt lat="44.39112066582066" lon="7.559367808164696"><ele>502.0</ele><time>2026-04-19T09:47:26.999Z</time></trkpt><trkpt lat="44.39113454077744" lon="7.559539119565761"><ele>501.6</ele><time>2026-04-19T09:47:27.999Z</time></trkpt><trkpt lat="44.39114852949261" lon="7.55969903428548"><ele>501.20000000000005</ele><time>2026-04-19T09:47:28.999Z</time></trkpt><trkpt lat="44.39116187542009" lon="7.559852841280854"><ele>500.8</ele><time>2026-04-19T09:47:29.999Z</time></trkpt><trkpt lat="44.39117412856207" lon="7.5600054503245175"><ele>500.4</ele><time>2026-04-19T09:47:30.999Z</time></trkpt><trkpt lat="44.39118451020888" lon="7.560157113280266"><ele>500.0</ele><time>2026-04-19T09:47:31.999Z</time></trkpt><trkpt lat="44.391195967198115" lon="7.560313327137029"><ele>500.2</ele><time>2026-04-19T09:47:32.999Z</time></trkpt><trkpt lat="44.39121042803385" lon="7.5604735336311"><ele>500.4</ele><time>2026-04-19T09:47:33.999Z</time></trkpt><trkpt lat="44.39122529722719" lon="7.560631048310891"><ele>500.6</ele><time>2026-04-19T09:47:34.999Z</time></trkpt><trkpt lat="44.391238891039364" lon="7.560775550115417"><ele>500.8</ele><time>2026-04-19T09:47:35.999Z</time></trkpt><trkpt lat="44.39125426178279" lon="7.560902441981091"><ele>501.0</ele><time>2026-04-19T09:47:36.999Z</time></trkpt><trkpt lat="44.39127126879997" lon="7.561022805371711"><ele>501.0</ele><time>2026-04-19T09:47:37.999Z</time></trkpt><trkpt lat="44.391267129226044" lon="7.561143420089122"><ele>501.0</ele><time>2026-04-19T09:47:38.999Z</time></trkpt><trkpt lat="44.39127581953433" lon="7.56126572961249"><ele>501.0</ele><time>2026-04-19T09:47:39.999Z</time></trkpt><trkpt lat="44.39128200272132" lon="7.561384521746927"><ele>501.0</ele><time>2026-04-19T09:47:40.999Z</time></trkpt><trkpt lat="44.391303120923794" lon="7.561486337742316"><ele>501.0</ele><time>2026-04-19T09:47:41.999Z</time></trkpt><trkpt lat="44.39128980509137" lon="7.561600862951327"><ele>501.0</ele><time>2026-04-19T09:47:43.999Z</time></trkpt><trkpt lat="44.39128370714237" lon="7.561721375055955"><ele>501.0</ele><time>2026-04-19T09:47:46.999Z</time></trkpt><trkpt lat="44.39128689249731" lon="7.561826651355997"><ele>501.0</ele><time>2026-04-19T09:47:48.999Z</time></trkpt><trkpt lat="44.39128504516411" lon="7.561935398002189"><ele>501.0</ele><time>2026-04-19T09:47:50.999Z</time></trkpt><trkpt lat="44.3912769294081" lon="7.562044793363499"><ele>501.0</ele><time>2026-04-19T09:47:52.999Z</time></trkpt><trkpt lat="44.39126275386588" lon="7.562164448475445"><ele>501.0</ele><time>2026-04-19T09:47:54.999Z</time></trkpt><trkpt lat="44.39121586951049" lon="7.562302017970727"><ele>501.0</ele><time>2026-04-19T09:47:56.999Z</time></trkpt><trkpt lat="44.39117156756252" lon="7.5623692057067196"><ele>501.0</ele><time>2026-04-19T09:47:57.999Z</time></trkpt><trkpt lat="44.391121644767075" lon="7.562446542712868"><ele>501.0</ele><time>2026-04-19T09:47:58.999Z</time></trkpt><trkpt lat="44.39108109406746" lon="7.562526052368873"><ele>501.0</ele><time>2026-04-19T09:47:59.999Z</time></trkpt><trkpt lat="44.39103757381148" lon="7.562678476395743"><ele>501.0</ele><time>2026-04-19T09:48:01.999Z</time></trkpt><trkpt lat="44.391059532360046" lon="7.562843453430862"><ele>501.0</ele><time>2026-04-19T09:48:03.999Z</time></trkpt><trkpt lat="44.391173214290184" lon="7.5628855428313475"><ele>501.0</ele><time>2026-04-19T09:48:04.999Z</time></trkpt><trkpt lat="44.39124425383956" lon="7.56294690660979"><ele>501.0</ele><time>2026-04-19T09:48:05.999Z</time></trkpt><trkpt lat="44.39130711661206" lon="7.563010586971814"><ele>501.0</ele><time>2026-04-19T09:48:06.999Z</time></trkpt><trkpt lat="44.391356032462" lon="7.5630824893558835"><ele>501.0</ele><time>2026-04-19T09:48:07.999Z</time></trkpt><trkpt lat="44.39138657874172" lon="7.563164645216796"><ele>501.0</ele><time>2026-04-19T09:48:08.999Z</time></trkpt><trkpt lat="44.39140535266881" lon="7.563251298436677"><ele>501.0</ele><time>2026-04-19T09:48:09.999Z</time></trkpt><trkpt lat="44.39142477737077" lon="7.563339252056405"><ele>501.0</ele><time>2026-04-19T09:48:10.999Z</time></trkpt><trkpt lat="44.39146291819581" lon="7.563412196584996"><ele>501.0</ele><time>2026-04-19T09:48:11.999Z</time></trkpt><trkpt lat="44.39152450403815" lon="7.5634758391446155"><ele>501.0</ele><time>2026-04-19T09:48:12.999Z</time></trkpt><trkpt lat="44.39161410475963" lon="7.563443534709207"><ele>501.0</ele><time>2026-04-19T09:48:13.999Z</time></trkpt><trkpt lat="44.39171368852492" lon="7.563408452769346"><ele>501.0</ele><time>2026-04-19T09:48:14.999Z</time></trkpt><trkpt lat="44.39182654429926" lon="7.563377281275983"><ele>501.0</ele><time>2026-04-19T09:48:15.999Z</time></trkpt><trkpt lat="44.39195141637629" lon="7.56342565201096"><ele>501.0</ele><time>2026-04-19T09:48:16.999Z</time></trkpt><trkpt lat="44.39208174966323" lon="7.563484275706038"><ele>501.0</ele><time>2026-04-19T09:48:17.999Z</time></trkpt><trkpt lat="44.39221663454495" lon="7.56354741297158"><ele>501.0</ele><time>2026-04-19T09:48:18.999Z</time></trkpt><trkpt lat="44.392360051437294" lon="7.5636137034838935"><ele>501.0</ele><time>2026-04-19T09:48:19.999Z</time></trkpt><trkpt lat="44.39249830837724" lon="7.5636754411115215"><ele>500.75</ele><time>2026-04-19T09:48:20.999Z</time></trkpt><trkpt lat="44.39262898346024" lon="7.563736921781568"><ele>500.5</ele><time>2026-04-19T09:48:21.999Z</time></trkpt><trkpt lat="44.392755976315605" lon="7.563793809238629"><ele>500.25</ele><time>2026-04-19T09:48:22.999Z</time></trkpt><trkpt lat="44.3928733656199" lon="7.56384802529685"><ele>500.0</ele><time>2026-04-19T09:48:23.999Z</time></trkpt><trkpt lat="44.392984268702" lon="7.563897760791698"><ele>499.8</ele><time>2026-04-19T09:48:24.999Z</time></trkpt><trkpt lat="44.393088069271606" lon="7.563942435733021"><ele>499.6</ele><time>2026-04-19T09:48:25.999Z</time></trkpt><trkpt lat="44.393173566032445" lon="7.563988944309396"><ele>499.4</ele><time>2026-04-19T09:48:26.999Z</time></trkpt><trkpt lat="44.393232151816626" lon="7.564064541276954"><ele>499.2</ele><time>2026-04-19T09:48:27.999Z</time></trkpt><trkpt lat="44.39325673991311" lon="7.5642795715610545"><ele>499.0</ele><time>2026-04-19T09:48:29.999Z</time></trkpt><trkpt lat="44.39324885594842" lon="7.564427230844112"><ele>498.75</ele><time>2026-04-19T09:48:30.999Z</time></trkpt><trkpt lat="44.39324210531787" lon="7.56459453736003"><ele>498.5</ele><time>2026-04-19T09:48:31.999Z</time></trkpt><trkpt lat="44.39323386239698" lon="7.564778263387121"><ele>498.25</ele><time>2026-04-19T09:48:32.999Z</time></trkpt><trkpt lat="44.3932236107166" lon="7.56498278172458"><ele>498.0</ele><time>2026-04-19T09:48:33.999Z</time></trkpt><trkpt lat="44.39321301004819" lon="7.56519426181673"><ele>498.0</ele><time>2026-04-19T09:48:34.999Z</time></trkpt><trkpt lat="44.39320189258138" lon="7.565416052039459"><ele>498.0</ele><time>2026-04-19T09:48:35.999Z</time></trkpt><trkpt lat="44.393203090979846" lon="7.565649126877122"><ele>498.0</ele><time>2026-04-19T09:48:36.999Z</time></trkpt><trkpt lat="44.393190163426745" lon="7.565888119211204"><ele>498.0</ele><time>2026-04-19T09:48:37.999Z</time></trkpt><trkpt lat="44.39317759070863" lon="7.566133524637779"><ele>498.0</ele><time>2026-04-19T09:48:38.999Z</time></trkpt><trkpt lat="44.39316301597639" lon="7.566384202156912"><ele>498.0</ele><time>2026-04-19T09:48:39.999Z</time></trkpt><trkpt lat="44.393150140633324" lon="7.566628151577892"><ele>497.66666666666663</ele><time>2026-04-19T09:48:40.999Z</time></trkpt><trkpt lat="44.39314602222144" lon="7.566863204140967"><ele>497.3333333333333</ele><time>2026-04-19T09:48:41.999Z</time></trkpt><trkpt lat="44.3931572226338" lon="7.567091972713661"><ele>497.0</ele><time>2026-04-19T09:48:42.999Z</time></trkpt><trkpt lat="44.39319268604471" lon="7.567309659878797"><ele>497.0</ele><time>2026-04-19T09:48:43.999Z</time></trkpt><trkpt lat="44.39325672682094" lon="7.56751659758986"><ele>497.0</ele><time>2026-04-19T09:48:44.999Z</time></trkpt><trkpt lat="44.393344823058804" lon="7.567725511243074"><ele>497.0</ele><time>2026-04-19T09:48:45.999Z</time></trkpt><trkpt lat="44.39342689774807" lon="7.567956966384105"><ele>498.0</ele><time>2026-04-19T09:48:46.999Z</time></trkpt><trkpt lat="44.39353988186345" lon="7.568174788903937"><ele>499.0</ele><time>2026-04-19T09:48:47.999Z</time></trkpt><trkpt lat="44.3936408773569" lon="7.568413099651877"><ele>500.0</ele><time>2026-04-19T09:48:48.999Z</time></trkpt><trkpt lat="44.39374910264334" lon="7.568653820840813"><ele>499.3333333333333</ele><time>2026-04-19T09:48:49.999Z</time></trkpt><trkpt lat="44.393865581301846" lon="7.568891184968645"><ele>498.66666666666663</ele><time>2026-04-19T09:48:50.999Z</time></trkpt><trkpt lat="44.39399144568701" lon="7.5691240507811"><ele>498.0</ele><time>2026-04-19T09:48:51.999Z</time></trkpt><trkpt lat="44.39412333221995" lon="7.569352027359633"><ele>500.33333333333337</ele><time>2026-04-19T09:48:52.999Z</time></trkpt><trkpt lat="44.39425297095366" lon="7.569577353673321"><ele>502.6666666666667</ele><time>2026-04-19T09:48:53.999Z</time></trkpt><trkpt lat="44.39437578098859" lon="7.569796905320132"><ele>505.0</ele><time>2026-04-19T09:48:54.999Z</time></trkpt><trkpt lat="44.394491233944386" lon="7.57000221715041"><ele>505.0</ele><time>2026-04-19T09:48:55.999Z</time></trkpt><trkpt lat="44.39459938628247" lon="7.570193154950028"><ele>505.0</ele><time>2026-04-19T09:48:56.999Z</time></trkpt><trkpt lat="44.39469621435028" lon="7.570375316651383"><ele>505.0</ele><time>2026-04-19T09:48:57.999Z</time></trkpt><trkpt lat="44.394780694738415" lon="7.570554802248833"><ele>505.5</ele><time>2026-04-19T09:48:58.999Z</time></trkpt><trkpt lat="44.394845188050304" lon="7.570729514322814"><ele>506.0</ele><time>2026-04-19T09:48:59.999Z</time></trkpt><trkpt lat="44.39489195497342" lon="7.570902235884938"><ele>506.5</ele><time>2026-04-19T09:49:00.999Z</time></trkpt><trkpt lat="44.39493553319508" lon="7.571069396190188"><ele>507.0</ele><time>2026-04-19T09:49:01.999Z</time></trkpt><trkpt lat="44.394980362368834" lon="7.57123201952914"><ele>507.0</ele><time>2026-04-19T09:49:02.999Z</time></trkpt><trkpt lat="44.39504361287013" lon="7.571392489692632"><ele>507.0</ele><time>2026-04-19T09:49:03.999Z</time></trkpt><trkpt lat="44.39513396282676" lon="7.571543099923713"><ele>507.0</ele><time>2026-04-19T09:49:04.999Z</time></trkpt><trkpt lat="44.39524214651585" lon="7.571688402476368"><ele>507.0</ele><time>2026-04-19T09:49:05.999Z</time></trkpt><trkpt lat="44.39535586665855" lon="7.571843201629272"><ele>507.0</ele><time>2026-04-19T09:49:06.998Z</time></trkpt><trkpt lat="44.395466969351" lon="7.57200345411563"><ele>507.0</ele><time>2026-04-19T09:49:07.998Z</time></trkpt><trkpt lat="44.39558185789928" lon="7.5721650635670015"><ele>507.0</ele><time>2026-04-19T09:49:08.998Z</time></trkpt><trkpt lat="44.395692601668536" lon="7.572327151776058"><ele>507.33333333333337</ele><time>2026-04-19T09:49:09.998Z</time></trkpt><trkpt lat="44.39580281246034" lon="7.572486163439004"><ele>507.6666666666667</ele><time>2026-04-19T09:49:10.998Z</time></trkpt><trkpt lat="44.39591362148811" lon="7.572642467044519"><ele>508.0</ele><time>2026-04-19T09:49:11.998Z</time></trkpt><trkpt lat="44.39602616831916" lon="7.57279572105066"><ele>508.0</ele><time>2026-04-19T09:49:12.998Z</time></trkpt><trkpt lat="44.39613892506492" lon="7.572941556959206"><ele>508.0</ele><time>2026-04-19T09:49:13.998Z</time></trkpt><trkpt lat="44.39625359191214" lon="7.573073510261977"><ele>508.0</ele><time>2026-04-19T09:49:14.998Z</time></trkpt><trkpt lat="44.396366157003584" lon="7.573192164010395"><ele>508.0</ele><time>2026-04-19T09:49:15.998Z</time></trkpt><trkpt lat="44.39647021817253" lon="7.573303411431898"><ele>508.0</ele><time>2026-04-19T09:49:16.998Z</time></trkpt><trkpt lat="44.39657139749506" lon="7.573404635003089"><ele>508.0</ele><time>2026-04-19T09:49:17.998Z</time></trkpt><trkpt lat="44.39668108699291" lon="7.5734720821296815"><ele>508.0</ele><time>2026-04-19T09:49:18.998Z</time></trkpt><trkpt lat="44.39680033264602" lon="7.573502395592759"><ele>508.0</ele><time>2026-04-19T09:49:19.998Z</time></trkpt><trkpt lat="44.39692476653176" lon="7.57352231637686"><ele>508.0</ele><time>2026-04-19T09:49:20.998Z</time></trkpt><trkpt lat="44.39704406539631" lon="7.573524761571687"><ele>508.0</ele><time>2026-04-19T09:49:21.999Z</time></trkpt><trkpt lat="44.397158277276574" lon="7.573505909142539"><ele>508.0</ele><time>2026-04-19T09:49:22.999Z</time></trkpt><trkpt lat="44.39726816425794" lon="7.57347837391039"><ele>508.0</ele><time>2026-04-19T09:49:23.999Z</time></trkpt><trkpt lat="44.39737072732248" lon="7.5734491566001365"><ele>507.50000000000006</ele><time>2026-04-19T09:49:24.999Z</time></trkpt><trkpt lat="44.39746308936321" lon="7.573419974415325"><ele>507.0</ele><time>2026-04-19T09:49:25.999Z</time></trkpt><trkpt lat="44.39755046234915" lon="7.573421263246057"><ele>506.5</ele><time>2026-04-19T09:49:26.999Z</time></trkpt><trkpt lat="44.39761890650185" lon="7.573383320116927"><ele>506.0</ele><time>2026-04-19T09:49:27.999Z</time></trkpt><trkpt lat="44.3977025310173" lon="7.573364600545112"><ele>505.50000000000006</ele><time>2026-04-19T09:49:29.999Z</time></trkpt><trkpt lat="44.39776788345815" lon="7.573403056069091"><ele>505.0</ele><time>2026-04-19T09:49:31.999Z</time></trkpt><trkpt lat="44.39774077465457" lon="7.57365257352932"><ele>505.0</ele><time>2026-04-19T09:49:34.999Z</time></trkpt><trkpt lat="44.39771276793161" lon="7.573770616093478"><ele>505.0</ele><time>2026-04-19T09:49:35.999Z</time></trkpt><trkpt lat="44.397679500012465" lon="7.573910586225636"><ele>505.0</ele><time>2026-04-19T09:49:36.999Z</time></trkpt><trkpt lat="44.397648107095364" lon="7.574063327997546"><ele>505.0</ele><time>2026-04-19T09:49:37.999Z</time></trkpt><trkpt lat="44.397618211333175" lon="7.574220450161576"><ele>505.0</ele><time>2026-04-19T09:49:38.999Z</time></trkpt><trkpt lat="44.397591833515165" lon="7.574370012036353"><ele>505.0</ele><time>2026-04-19T09:49:39.999Z</time></trkpt><trkpt lat="44.39757278554037" lon="7.574519423860575"><ele>505.0</ele><time>2026-04-19T09:49:40.999Z</time></trkpt><trkpt lat="44.39757741962148" lon="7.574677628981227"><ele>505.0</ele><time>2026-04-19T09:49:41.999Z</time></trkpt><trkpt lat="44.39761707215272" lon="7.574848151071439"><ele>505.0</ele><time>2026-04-19T09:49:42.999Z</time></trkpt><trkpt lat="44.39767659840424" lon="7.575036436361581"><ele>505.0</ele><time>2026-04-19T09:49:43.999Z</time></trkpt><trkpt lat="44.397739097887424" lon="7.5752430961477355"><ele>505.0</ele><time>2026-04-19T09:49:44.999Z</time></trkpt><trkpt lat="44.39779893524809" lon="7.575462186201084"><ele>505.0</ele><time>2026-04-19T09:49:45.999Z</time></trkpt><trkpt lat="44.397861057417856" lon="7.575691714242503"><ele>505.0</ele><time>2026-04-19T09:49:46.999Z</time></trkpt><trkpt lat="44.39792681698745" lon="7.575920407282577"><ele>505.0</ele><time>2026-04-19T09:49:47.999Z</time></trkpt><trkpt lat="44.39799000261228" lon="7.576141972560608"><ele>505.0</ele><time>2026-04-19T09:49:48.999Z</time></trkpt><trkpt lat="44.398044470574874" lon="7.576356499391661"><ele>505.25</ele><time>2026-04-19T09:49:49.999Z</time></trkpt><trkpt lat="44.398080296095806" lon="7.576547827241116"><ele>505.5</ele><time>2026-04-19T09:49:50.999Z</time></trkpt><trkpt lat="44.39809580975076" lon="7.576711928255153"><ele>505.75</ele><time>2026-04-19T09:49:51.999Z</time></trkpt><trkpt lat="44.39808324330658" lon="7.576863717309744"><ele>506.0</ele><time>2026-04-19T09:49:52.999Z</time></trkpt><trkpt lat="44.39803869039347" lon="7.5770111786484104"><ele>506.5</ele><time>2026-04-19T09:49:53.999Z</time></trkpt><trkpt lat="44.39798793965646" lon="7.577168360197375"><ele>507.0</ele><time>2026-04-19T09:49:54.999Z</time></trkpt><trkpt lat="44.39794668042926" lon="7.577344039658415"><ele>507.5</ele><time>2026-04-19T09:49:55.999Z</time></trkpt><trkpt lat="44.39789332719826" lon="7.577533604787467"><ele>508.0</ele><time>2026-04-19T09:49:56.999Z</time></trkpt><trkpt lat="44.397856912921185" lon="7.577743798340316"><ele>508.6666666666667</ele><time>2026-04-19T09:49:57.999Z</time></trkpt><trkpt lat="44.39783204243104" lon="7.577965715157243"><ele>509.33333333333337</ele><time>2026-04-19T09:49:58.999Z</time></trkpt><trkpt lat="44.3977930879721" lon="7.578189046715206"><ele>510.0</ele><time>2026-04-19T09:49:59.999Z</time></trkpt><trkpt lat="44.39776387232422" lon="7.578398727134983"><ele>510.0</ele><time>2026-04-19T09:50:00.999Z</time></trkpt><trkpt lat="44.39775560379859" lon="7.578590799753449"><ele>510.0</ele><time>2026-04-19T09:50:01.999Z</time></trkpt><trkpt lat="44.39776202369392" lon="7.578764006049352"><ele>510.0</ele><time>2026-04-19T09:50:02.999Z</time></trkpt><trkpt lat="44.39777908697855" lon="7.578916764505975"><ele>510.0</ele><time>2026-04-19T09:50:03.999Z</time></trkpt><trkpt lat="44.3977892028335" lon="7.579054977432861"><ele>510.75</ele><time>2026-04-19T09:50:04.999Z</time></trkpt><trkpt lat="44.39778228935045" lon="7.579179763336014"><ele>511.5</ele><time>2026-04-19T09:50:05.999Z</time></trkpt><trkpt lat="44.39777117824914" lon="7.579322344272147"><ele>512.25</ele><time>2026-04-19T09:50:06.999Z</time></trkpt><trkpt lat="44.397757347029355" lon="7.5794911872484265"><ele>513.0</ele><time>2026-04-19T09:50:07.999Z</time></trkpt><trkpt lat="44.39773782135513" lon="7.579683698982589"><ele>513.0</ele><time>2026-04-19T09:50:08.999Z</time></trkpt><trkpt lat="44.39769507555562" lon="7.579898168946088"><ele>513.0</ele><time>2026-04-19T09:50:09.999Z</time></trkpt><trkpt lat="44.39766378973622" lon="7.5801307606145345"><ele>513.0</ele><time>2026-04-19T09:50:10.999Z</time></trkpt><trkpt lat="44.39764747561858" lon="7.580350306853473"><ele>512.4</ele><time>2026-04-19T09:50:11.999Z</time></trkpt><trkpt lat="44.397621432893324" lon="7.58053523504294"><ele>511.79999999999995</ele><time>2026-04-19T09:50:12.999Z</time></trkpt><trkpt lat="44.3976001025684" lon="7.580689215686443"><ele>511.2</ele><time>2026-04-19T09:50:13.999Z</time></trkpt><trkpt lat="44.39757782333522" lon="7.580811846967248"><ele>510.6</ele><time>2026-04-19T09:50:14.999Z</time></trkpt><trkpt lat="44.39754156076813" lon="7.580904268353485"><ele>510.0</ele><time>2026-04-19T09:50:15.999Z</time></trkpt><trkpt lat="44.39748573609589" lon="7.580970893037936"><ele>510.0</ele><time>2026-04-19T09:50:16.999Z</time></trkpt><trkpt lat="44.397425115991545" lon="7.581032309255197"><ele>510.0</ele><time>2026-04-19T09:50:17.999Z</time></trkpt><trkpt lat="44.39736396907323" lon="7.581108289414316"><ele>510.0</ele><time>2026-04-19T09:50:18.999Z</time></trkpt><trkpt lat="44.397313620807466" lon="7.581218035412084"><ele>510.0</ele><time>2026-04-19T09:50:19.999Z</time></trkpt><trkpt lat="44.397292976040646" lon="7.581350353019958"><ele>510.0</ele><time>2026-04-19T09:50:20.999Z</time></trkpt><trkpt lat="44.397301668033485" lon="7.5815025090806"><ele>510.0</ele><time>2026-04-19T09:50:21.999Z</time></trkpt><trkpt lat="44.39732382073121" lon="7.581679084372871"><ele>510.0</ele><time>2026-04-19T09:50:22.999Z</time></trkpt><trkpt lat="44.39731669606634" lon="7.581867721182607"><ele>510.0</ele><time>2026-04-19T09:50:23.999Z</time></trkpt><trkpt lat="44.39728131862872" lon="7.582072565621276"><ele>510.0</ele><time>2026-04-19T09:50:24.999Z</time></trkpt><trkpt lat="44.397235900541055" lon="7.582295405959818"><ele>510.33333333333337</ele><time>2026-04-19T09:50:25.999Z</time></trkpt><trkpt lat="44.39718607195172" lon="7.582537239229896"><ele>510.6666666666667</ele><time>2026-04-19T09:50:26.999Z</time></trkpt><trkpt lat="44.397128647462786" lon="7.582795395917697"><ele>511.0</ele><time>2026-04-19T09:50:27.999Z</time></trkpt><trkpt lat="44.39706519328463" lon="7.583063050393952"><ele>511.0</ele><time>2026-04-19T09:50:28.999Z</time></trkpt><trkpt lat="44.396995909471556" lon="7.583342154034958"><ele>511.0</ele><time>2026-04-19T09:50:29.999Z</time></trkpt><trkpt lat="44.396922678920106" lon="7.583633183260122"><ele>511.0</ele><time>2026-04-19T09:50:30.999Z</time></trkpt><trkpt lat="44.39684589584115" lon="7.583934529467176"><ele>510.0</ele><time>2026-04-19T09:50:31.999Z</time></trkpt><trkpt lat="44.396766785044306" lon="7.584247966705279"><ele>509.0</ele><time>2026-04-19T09:50:32.999Z</time></trkpt><trkpt lat="44.39668991407864" lon="7.584578335003783"><ele>509.0</ele><time>2026-04-19T09:50:33.999Z</time></trkpt><trkpt lat="44.39660996201075" lon="7.5848884799133325"><ele>509.0</ele><time>2026-04-19T09:50:34.999Z</time></trkpt><trkpt lat="44.39653934431182" lon="7.585192657699783"><ele>509.0</ele><time>2026-04-19T09:50:35.999Z</time></trkpt><trkpt lat="44.39647194815089" lon="7.585488275742839"><ele>509.0</ele><time>2026-04-19T09:50:36.999Z</time></trkpt><trkpt lat="44.39640792442804" lon="7.5857710582355065"><ele>509.0</ele><time>2026-04-19T09:50:37.999Z</time></trkpt><trkpt lat="44.39634444275703" lon="7.58604285153469"><ele>509.0</ele><time>2026-04-19T09:50:38.999Z</time></trkpt><trkpt lat="44.39628476498086" lon="7.586296714818839"><ele>509.0</ele><time>2026-04-19T09:50:39.999Z</time></trkpt><trkpt lat="44.39622735004441" lon="7.586540191228719"><ele>509.0</ele><time>2026-04-19T09:50:40.999Z</time></trkpt><trkpt lat="44.39616875167914" lon="7.58677253448064"><ele>509.0</ele><time>2026-04-19T09:50:41.999Z</time></trkpt><trkpt lat="44.39611353216519" lon="7.5869954291950945"><ele>509.0</ele><time>2026-04-19T09:50:42.999Z</time></trkpt><trkpt lat="44.396049932207234" lon="7.587205284747487"><ele>509.0</ele><time>2026-04-19T09:50:43.999Z</time></trkpt><trkpt lat="44.395989678479154" lon="7.58739810477698"><ele>509.0</ele><time>2026-04-19T09:50:44.999Z</time></trkpt><trkpt lat="44.39592261546817" lon="7.587579577966205"><ele>509.0</ele><time>2026-04-19T09:50:45.999Z</time></trkpt><trkpt lat="44.39585049322244" lon="7.587738069443064"><ele>509.0</ele><time>2026-04-19T09:50:46.999Z</time></trkpt><trkpt lat="44.395771856909334" lon="7.5878784755728885"><ele>509.0</ele><time>2026-04-19T09:50:47.999Z</time></trkpt><trkpt lat="44.395684419185734" lon="7.587981118055306"><ele>508.79999999999995</ele><time>2026-04-19T09:50:48.999Z</time></trkpt><trkpt lat="44.39561750680066" lon="7.5880831212959325"><ele>508.59999999999997</ele><time>2026-04-19T09:50:49.999Z</time></trkpt><trkpt lat="44.39559317253382" lon="7.588207571934222"><ele>508.4</ele><time>2026-04-19T09:50:50.999Z</time></trkpt><trkpt lat="44.39561296512562" lon="7.588357609392259"><ele>508.2</ele><time>2026-04-19T09:50:51.999Z</time></trkpt><trkpt lat="44.395669256082215" lon="7.588534090158481"><ele>508.0</ele><time>2026-04-19T09:50:52.999Z</time></trkpt><trkpt lat="44.39574876895185" lon="7.588709436869249"><ele>507.6666666666667</ele><time>2026-04-19T09:50:53.999Z</time></trkpt><trkpt lat="44.395810359671934" lon="7.588916995743722"><ele>507.33333333333337</ele><time>2026-04-19T09:50:54.999Z</time></trkpt><trkpt lat="44.39584430532763" lon="7.58915925726299"><ele>507.0</ele><time>2026-04-19T09:50:55.999Z</time></trkpt><trkpt lat="44.395857765006966" lon="7.589433598166303"><ele>507.0</ele><time>2026-04-19T09:50:56.999Z</time></trkpt><trkpt lat="44.3958478739684" lon="7.589749016961449"><ele>507.0</ele><time>2026-04-19T09:50:57.999Z</time></trkpt><trkpt lat="44.39580892033274" lon="7.590059663192756"><ele>506.5</ele><time>2026-04-19T09:50:58.999Z</time></trkpt><trkpt lat="44.3957673834766" lon="7.590380104300045"><ele>506.0</ele><time>2026-04-19T09:50:59.999Z</time></trkpt><trkpt lat="44.39572850188721" lon="7.590721626040371"><ele>506.0</ele><time>2026-04-19T09:51:00.999Z</time></trkpt><trkpt lat="44.39567169656445" lon="7.591060318855355"><ele>506.0</ele><time>2026-04-19T09:51:01.999Z</time></trkpt><trkpt lat="44.39562399472141" lon="7.591404752922554"><ele>505.5</ele><time>2026-04-19T09:51:02.999Z</time></trkpt><trkpt lat="44.39557816921539" lon="7.591765192233416"><ele>505.0</ele><time>2026-04-19T09:51:03.999Z</time></trkpt><trkpt lat="44.39552690287393" lon="7.592140096535894"><ele>505.5</ele><time>2026-04-19T09:51:04.999Z</time></trkpt><trkpt lat="44.39547213686858" lon="7.5925268725266335"><ele>506.0</ele><time>2026-04-19T09:51:05.999Z</time></trkpt><trkpt lat="44.39541749909665" lon="7.592928200708428"><ele>506.0</ele><time>2026-04-19T09:51:06.999Z</time></trkpt><trkpt lat="44.39536785049629" lon="7.593342761344774"><ele>506.0</ele><time>2026-04-19T09:51:07.999Z</time></trkpt><trkpt lat="44.39531915786145" lon="7.593769464117448"><ele>505.5</ele><time>2026-04-19T09:51:08.999Z</time></trkpt><trkpt lat="44.395269654676966" lon="7.594204754003103"><ele>505.0</ele><time>2026-04-19T09:51:09.999Z</time></trkpt><trkpt lat="44.39522526913721" lon="7.594636870608118"><ele>504.5</ele><time>2026-04-19T09:51:10.999Z</time></trkpt><trkpt lat="44.39518575906866" lon="7.595048368363973"><ele>504.0</ele><time>2026-04-19T09:51:11.999Z</time></trkpt><trkpt lat="44.395148587025325" lon="7.5954492453285205"><ele>504.0</ele><time>2026-04-19T09:51:12.999Z</time></trkpt><trkpt lat="44.395115679141846" lon="7.595841707658231"><ele>504.0</ele><time>2026-04-19T09:51:13.999Z</time></trkpt><trkpt lat="44.395083992783846" lon="7.596226376859853"><ele>504.5</ele><time>2026-04-19T09:51:14.999Z</time></trkpt><trkpt lat="44.395049581627404" lon="7.596601335244142"><ele>505.0</ele><time>2026-04-19T09:51:15.999Z</time></trkpt><trkpt lat="44.3950129989092" lon="7.596966154072384"><ele>505.0</ele><time>2026-04-19T09:51:16.999Z</time></trkpt><trkpt lat="44.394975679546626" lon="7.59732395417492"><ele>505.0</ele><time>2026-04-19T09:51:17.999Z</time></trkpt><trkpt lat="44.39493510265998" lon="7.597679467177902"><ele>504.0</ele><time>2026-04-19T09:51:18.999Z</time></trkpt><trkpt lat="44.394890500939745" lon="7.598030432640534"><ele>503.0</ele><time>2026-04-19T09:51:19.999Z</time></trkpt><trkpt lat="44.39484254736337" lon="7.598377476096396"><ele>502.5</ele><time>2026-04-19T09:51:20.999Z</time></trkpt><trkpt lat="44.394792244939325" lon="7.598717794086497"><ele>502.0</ele><time>2026-04-19T09:51:21.999Z</time></trkpt><trkpt lat="44.39474561874905" lon="7.599061678753495"><ele>502.0</ele><time>2026-04-19T09:51:22.999Z</time></trkpt><trkpt lat="44.39470566229325" lon="7.5994089170461185"><ele>502.0</ele><time>2026-04-19T09:51:23.999Z</time></trkpt><trkpt lat="44.39466946625931" lon="7.5997544540486235"><ele>503.0</ele><time>2026-04-19T09:51:24.999Z</time></trkpt><trkpt lat="44.394638610755926" lon="7.600096999360077"><ele>504.0</ele><time>2026-04-19T09:51:25.999Z</time></trkpt><trkpt lat="44.39460656966992" lon="7.600437559069501"><ele>504.0</ele><time>2026-04-19T09:51:26.999Z</time></trkpt><trkpt lat="44.39457344044298" lon="7.600772254804262"><ele>504.0</ele><time>2026-04-19T09:51:27.999Z</time></trkpt><trkpt lat="44.39454151786218" lon="7.601114442445261"><ele>502.5</ele><time>2026-04-19T09:51:28.999Z</time></trkpt><trkpt lat="44.39451088200328" lon="7.601454710770907"><ele>501.0</ele><time>2026-04-19T09:51:29.999Z</time></trkpt><trkpt lat="44.394480945691676" lon="7.601784553077723"><ele>501.0</ele><time>2026-04-19T09:51:30.999Z</time></trkpt><trkpt lat="44.394450681899805" lon="7.6021071539624945"><ele>501.0</ele><time>2026-04-19T09:51:31.999Z</time></trkpt><trkpt lat="44.394418481489524" lon="7.602422967746741"><ele>501.0</ele><time>2026-04-19T09:51:32.999Z</time></trkpt><trkpt lat="44.394387779716276" lon="7.602730245010413"><ele>501.0</ele><time>2026-04-19T09:51:33.999Z</time></trkpt><trkpt lat="44.39435738081053" lon="7.603031555937935"><ele>501.0</ele><time>2026-04-19T09:51:34.999Z</time></trkpt><trkpt lat="44.39432620354275" lon="7.603326169801506"><ele>501.0</ele><time>2026-04-19T09:51:35.999Z</time></trkpt><trkpt lat="44.39429580222337" lon="7.6036151756852295"><ele>501.0</ele><time>2026-04-19T09:51:36.999Z</time></trkpt><trkpt lat="44.394268078674976" lon="7.603903544820016"><ele>501.0</ele><time>2026-04-19T09:51:37.999Z</time></trkpt><trkpt lat="44.39423749654076" lon="7.604191847446163"><ele>500.66666666666663</ele><time>2026-04-19T09:51:38.999Z</time></trkpt><trkpt lat="44.39420505766177" lon="7.604482465003834"><ele>500.3333333333333</ele><time>2026-04-19T09:51:39.999Z</time></trkpt><trkpt lat="44.39416979567955" lon="7.604777203189431"><ele>500.0</ele><time>2026-04-19T09:51:40.999Z</time></trkpt><trkpt lat="44.39413391670912" lon="7.605074764412382"><ele>499.66666666666663</ele><time>2026-04-19T09:51:41.999Z</time></trkpt><trkpt lat="44.3940975281022" lon="7.60537019411663"><ele>499.33333333333337</ele><time>2026-04-19T09:51:42.999Z</time></trkpt><trkpt lat="44.39405947143033" lon="7.605672152708936"><ele>499.0</ele><time>2026-04-19T09:51:43.999Z</time></trkpt><trkpt lat="44.39402008784745" lon="7.605972710670131"><ele>498.6666666666667</ele><time>2026-04-19T09:51:44.999Z</time></trkpt><trkpt lat="44.393979553192715" lon="7.606270211865176"><ele>498.33333333333337</ele><time>2026-04-19T09:51:45.999Z</time></trkpt><trkpt lat="44.39393923214428" lon="7.606563403850626"><ele>498.0</ele><time>2026-04-19T09:51:46.999Z</time></trkpt><trkpt lat="44.39390095264521" lon="7.606855690315451"><ele>498.0</ele><time>2026-04-19T09:51:47.999Z</time></trkpt><trkpt lat="44.39387025178084" lon="7.607150795812175"><ele>498.0</ele><time>2026-04-19T09:51:48.999Z</time></trkpt><trkpt lat="44.39384566081917" lon="7.607454997028035"><ele>498.0</ele><time>2026-04-19T09:51:49.999Z</time></trkpt><trkpt lat="44.39382265758837" lon="7.607771287544508"><ele>498.0</ele><time>2026-04-19T09:51:50.999Z</time></trkpt><trkpt lat="44.39380960592855" lon="7.608089889217831"><ele>498.0</ele><time>2026-04-19T09:51:51.999Z</time></trkpt><trkpt lat="44.393799191334544" lon="7.608416429726763"><ele>498.0</ele><time>2026-04-19T09:51:52.999Z</time></trkpt><trkpt lat="44.39378858554618" lon="7.608743077965632"><ele>498.0</ele><time>2026-04-19T09:51:53.999Z</time></trkpt><trkpt lat="44.393776859142584" lon="7.609068829390169"><ele>498.0</ele><time>2026-04-19T09:51:54.999Z</time></trkpt><trkpt lat="44.39376662520437" lon="7.609396144280705"><ele>498.0</ele><time>2026-04-19T09:51:55.999Z</time></trkpt><trkpt lat="44.39375838519897" lon="7.609726658309295"><ele>498.0</ele><time>2026-04-19T09:51:56.999Z</time></trkpt><trkpt lat="44.393751902825976" lon="7.610058963869917"><ele>498.0</ele><time>2026-04-19T09:51:57.999Z</time></trkpt><trkpt lat="44.39373835534983" lon="7.610388874494989"><ele>498.0</ele><time>2026-04-19T09:51:58.999Z</time></trkpt><trkpt lat="44.39372134031068" lon="7.610719967785002"><ele>498.0</ele><time>2026-04-19T09:51:59.999Z</time></trkpt><trkpt lat="44.39370888981593" lon="7.611046492475"><ele>497.5</ele><time>2026-04-19T09:52:00.999Z</time></trkpt><trkpt lat="44.393700965694244" lon="7.611372414407697"><ele>497.0</ele><time>2026-04-19T09:52:01.999Z</time></trkpt><trkpt lat="44.39369387621245" lon="7.611697280528166"><ele>496.5</ele><time>2026-04-19T09:52:02.999Z</time></trkpt><trkpt lat="44.39368741565366" lon="7.6120212503982385"><ele>496.0</ele><time>2026-04-19T09:52:03.999Z</time></trkpt><trkpt lat="44.393678382657555" lon="7.6123458289400885"><ele>496.0</ele><time>2026-04-19T09:52:04.999Z</time></trkpt><trkpt lat="44.39367454276172" lon="7.612683369492924"><ele>496.0</ele><time>2026-04-19T09:52:05.999Z</time></trkpt><trkpt lat="44.393671463661754" lon="7.613029362664119"><ele>495.5</ele><time>2026-04-19T09:52:06.999Z</time></trkpt><trkpt lat="44.39366903644118" lon="7.613389429043159"><ele>495.0</ele><time>2026-04-19T09:52:07.999Z</time></trkpt><trkpt lat="44.39365992106647" lon="7.613735052290997"><ele>495.0</ele><time>2026-04-19T09:52:08.999Z</time></trkpt><trkpt lat="44.393647726479514" lon="7.614070235313118"><ele>495.0</ele><time>2026-04-19T09:52:09.999Z</time></trkpt><trkpt lat="44.393636110668545" lon="7.614401615286352"><ele>494.5</ele><time>2026-04-19T09:52:10.999Z</time></trkpt><trkpt lat="44.393624178940605" lon="7.614723251038432"><ele>494.0</ele><time>2026-04-19T09:52:11.999Z</time></trkpt><trkpt lat="44.393613959884604" lon="7.615040798849024"><ele>493.5</ele><time>2026-04-19T09:52:12.999Z</time></trkpt><trkpt lat="44.393605211114156" lon="7.615360893500939"><ele>493.0</ele><time>2026-04-19T09:52:13.999Z</time></trkpt><trkpt lat="44.39359613264625" lon="7.615677030264464"><ele>493.0</ele><time>2026-04-19T09:52:14.999Z</time></trkpt><trkpt lat="44.39358354858626" lon="7.615979217151238"><ele>493.0</ele><time>2026-04-19T09:52:15.999Z</time></trkpt><trkpt lat="44.39357195180286" lon="7.616267128611469"><ele>493.0</ele><time>2026-04-19T09:52:16.999Z</time></trkpt><trkpt lat="44.39356051440728" lon="7.616547146340631"><ele>493.0</ele><time>2026-04-19T09:52:17.999Z</time></trkpt><trkpt lat="44.39355439796172" lon="7.6168141106379315"><ele>493.0</ele><time>2026-04-19T09:52:18.999Z</time></trkpt><trkpt lat="44.393548916281716" lon="7.617073556793377"><ele>493.0</ele><time>2026-04-19T09:52:19.999Z</time></trkpt><trkpt lat="44.39353933871709" lon="7.617322915556515"><ele>492.6666666666667</ele><time>2026-04-19T09:52:20.999Z</time></trkpt><trkpt lat="44.39353161138864" lon="7.617567992190242"><ele>492.33333333333337</ele><time>2026-04-19T09:52:21.999Z</time></trkpt><trkpt lat="44.39352442856461" lon="7.617821296487289"><ele>492.0</ele><time>2026-04-19T09:52:22.999Z</time></trkpt><trkpt lat="44.393516324611134" lon="7.61808189601491"><ele>492.0</ele><time>2026-04-19T09:52:23.999Z</time></trkpt><trkpt lat="44.393503506700036" lon="7.618348363678315"><ele>492.0</ele><time>2026-04-19T09:52:24.999Z</time></trkpt><trkpt lat="44.39349323196747" lon="7.618619039252932"><ele>492.0</ele><time>2026-04-19T09:52:25.999Z</time></trkpt><trkpt lat="44.393487491774565" lon="7.618906090908945"><ele>491.33333333333337</ele><time>2026-04-19T09:52:26.999Z</time></trkpt><trkpt lat="44.39347664792183" lon="7.619208286767715"><ele>490.6666666666667</ele><time>2026-04-19T09:52:27.999Z</time></trkpt><trkpt lat="44.39346665557583" lon="7.619522310772829"><ele>490.0</ele><time>2026-04-19T09:52:28.999Z</time></trkpt><trkpt lat="44.39345873839583" lon="7.619847433682101"><ele>490.0</ele><time>2026-04-19T09:52:29.999Z</time></trkpt><trkpt lat="44.393446556601525" lon="7.620180298229774"><ele>490.0</ele><time>2026-04-19T09:52:30.999Z</time></trkpt><trkpt lat="44.39343540515878" lon="7.620520476907203"><ele>490.0</ele><time>2026-04-19T09:52:31.999Z</time></trkpt><trkpt lat="44.39342496040333" lon="7.620859848491666"><ele>490.0</ele><time>2026-04-19T09:52:32.999Z</time></trkpt><trkpt lat="44.39341358761243" lon="7.621204334230167"><ele>490.0</ele><time>2026-04-19T09:52:33.999Z</time></trkpt><trkpt lat="44.39340092006364" lon="7.621549821758452"><ele>490.0</ele><time>2026-04-19T09:52:34.999Z</time></trkpt><trkpt lat="44.39339196907052" lon="7.621897849904894"><ele>490.0</ele><time>2026-04-19T09:52:35.999Z</time></trkpt><trkpt lat="44.3933834315801" lon="7.622259269432458"><ele>490.0</ele><time>2026-04-19T09:52:36.999Z</time></trkpt><trkpt lat="44.39337171891571" lon="7.62263898612803"><ele>490.0</ele><time>2026-04-19T09:52:37.999Z</time></trkpt><trkpt lat="44.39336002091667" lon="7.62302978480727"><ele>490.0</ele><time>2026-04-19T09:52:38.999Z</time></trkpt><trkpt lat="44.39334765007889" lon="7.623435112584142"><ele>489.5</ele><time>2026-04-19T09:52:39.999Z</time></trkpt><trkpt lat="44.393334555894725" lon="7.623826188622968"><ele>489.0</ele><time>2026-04-19T09:52:40.999Z</time></trkpt><trkpt lat="44.39332295331752" lon="7.624193552243644"><ele>488.5</ele><time>2026-04-19T09:52:41.999Z</time></trkpt><trkpt lat="44.393312578685276" lon="7.624562286187216"><ele>488.0</ele><time>2026-04-19T09:52:42.999Z</time></trkpt><trkpt lat="44.39330129466772" lon="7.624955526168153"><ele>488.0</ele><time>2026-04-19T09:52:43.999Z</time></trkpt><trkpt lat="44.39328655112065" lon="7.625352277020762"><ele>488.0</ele><time>2026-04-19T09:52:44.999Z</time></trkpt><trkpt lat="44.393272983493624" lon="7.625738142390915"><ele>488.0</ele><time>2026-04-19T09:52:45.999Z</time></trkpt><trkpt lat="44.393260689051225" lon="7.626120680369176"><ele>488.0</ele><time>2026-04-19T09:52:46.999Z</time></trkpt><trkpt lat="44.393245646696684" lon="7.626497813015086"><ele>488.5</ele><time>2026-04-19T09:52:47.999Z</time></trkpt><trkpt lat="44.3932293206324" lon="7.62686281962728"><ele>489.0</ele><time>2026-04-19T09:52:48.999Z</time></trkpt><trkpt lat="44.3932138619956" lon="7.627214371363757"><ele>487.5</ele><time>2026-04-19T09:52:49.999Z</time></trkpt><trkpt lat="44.39319936044547" lon="7.627556388644639"><ele>486.0</ele><time>2026-04-19T09:52:50.999Z</time></trkpt><trkpt lat="44.3931862186499" lon="7.627908686366809"><ele>486.0</ele><time>2026-04-19T09:52:51.999Z</time></trkpt><trkpt lat="44.393178369573334" lon="7.628262156268409"><ele>486.0</ele><time>2026-04-19T09:52:52.999Z</time></trkpt><trkpt lat="44.39317470672989" lon="7.628605427518471"><ele>486.0</ele><time>2026-04-19T09:52:53.999Z</time></trkpt><trkpt lat="44.393172649551744" lon="7.6289357155525375"><ele>486.0</ele><time>2026-04-19T09:52:54.999Z</time></trkpt><trkpt lat="44.39317014891339" lon="7.62925330359611"><ele>486.0</ele><time>2026-04-19T09:52:55.999Z</time></trkpt><trkpt lat="44.39317064360291" lon="7.6295704824218165"><ele>486.0</ele><time>2026-04-19T09:52:56.999Z</time></trkpt><trkpt lat="44.39317072447892" lon="7.629885829087492"><ele>486.0</ele><time>2026-04-19T09:52:57.999Z</time></trkpt><trkpt lat="44.3931739172025" lon="7.630200235612603"><ele>486.0</ele><time>2026-04-19T09:52:58.999Z</time></trkpt><trkpt lat="44.39318207945827" lon="7.630509102953937"><ele>486.0</ele><time>2026-04-19T09:52:59.999Z</time></trkpt><trkpt lat="44.39319101353519" lon="7.630821989177385"><ele>485.5</ele><time>2026-04-19T09:53:00.999Z</time></trkpt><trkpt lat="44.393199194288655" lon="7.631140859822182"><ele>485.0</ele><time>2026-04-19T09:53:01.999Z</time></trkpt><trkpt lat="44.393207783641586" lon="7.631457857665617"><ele>485.0</ele><time>2026-04-19T09:53:02.999Z</time></trkpt><trkpt lat="44.39321564243808" lon="7.631772508282639"><ele>485.0</ele><time>2026-04-19T09:53:03.999Z</time></trkpt><trkpt lat="44.393221532205644" lon="7.6321045739256235"><ele>485.5</ele><time>2026-04-19T09:53:04.999Z</time></trkpt><trkpt lat="44.39323402767521" lon="7.632437747369463"><ele>486.0</ele><time>2026-04-19T09:53:05.999Z</time></trkpt><trkpt lat="44.39325651049847" lon="7.632777860203197"><ele>485.0</ele><time>2026-04-19T09:53:06.999Z</time></trkpt><trkpt lat="44.3932885401584" lon="7.633124549052716"><ele>484.0</ele><time>2026-04-19T09:53:07.999Z</time></trkpt><trkpt lat="44.393317448035496" lon="7.633448557334307"><ele>484.0</ele><time>2026-04-19T09:53:08.999Z</time></trkpt><trkpt lat="44.39334109265754" lon="7.633760608424062"><ele>484.0</ele><time>2026-04-19T09:53:09.999Z</time></trkpt><trkpt lat="44.3933650563538" lon="7.634059610233203"><ele>484.0</ele><time>2026-04-19T09:53:10.999Z</time></trkpt><trkpt lat="44.39338710409148" lon="7.634346159109531"><ele>484.33333333333337</ele><time>2026-04-19T09:53:11.999Z</time></trkpt><trkpt lat="44.393411327397864" lon="7.634620370057684"><ele>484.66666666666663</ele><time>2026-04-19T09:53:12.999Z</time></trkpt><trkpt lat="44.393435356646236" lon="7.634884292084588"><ele>485.0</ele><time>2026-04-19T09:53:13.999Z</time></trkpt><trkpt lat="44.39345790622019" lon="7.635136644211811"><ele>484.66666666666663</ele><time>2026-04-19T09:53:14.999Z</time></trkpt><trkpt lat="44.3934779782663" lon="7.635387355053717"><ele>484.33333333333337</ele><time>2026-04-19T09:53:15.999Z</time></trkpt><trkpt lat="44.393489075379236" lon="7.6356475178864125"><ele>484.0</ele><time>2026-04-19T09:53:16.999Z</time></trkpt><trkpt lat="44.39348698278532" lon="7.635910492521473"><ele>483.6666666666667</ele><time>2026-04-19T09:53:17.999Z</time></trkpt><trkpt lat="44.393464723805124" lon="7.636193133457058"><ele>483.33333333333337</ele><time>2026-04-19T09:53:19Z</time></trkpt><trkpt lat="44.393439817731874" lon="7.636484122203064"><ele>483.0</ele><time>2026-04-19T09:53:20Z</time></trkpt><trkpt lat="44.39341424739466" lon="7.636753913363938"><ele>482.66666666666663</ele><time>2026-04-19T09:53:21Z</time></trkpt><trkpt lat="44.39338787709029" lon="7.637011677180652"><ele>482.3333333333333</ele><time>2026-04-19T09:53:22Z</time></trkpt><trkpt lat="44.393367515949535" lon="7.637257265589685"><ele>482.0</ele><time>2026-04-19T09:53:23Z</time></trkpt><trkpt lat="44.393345684292775" lon="7.63749114660012"><ele>482.0</ele><time>2026-04-19T09:53:24Z</time></trkpt><trkpt lat="44.393330718799426" lon="7.637716746340292"><ele>482.0</ele><time>2026-04-19T09:53:25Z</time></trkpt><trkpt lat="44.39331797431565" lon="7.637932359549708"><ele>482.0</ele><time>2026-04-19T09:53:26Z</time></trkpt><trkpt lat="44.39329830267655" lon="7.6381349710791655"><ele>482.25</ele><time>2026-04-19T09:53:27Z</time></trkpt><trkpt lat="44.393282557546144" lon="7.638331142361886"><ele>482.5</ele><time>2026-04-19T09:53:28Z</time></trkpt><trkpt lat="44.393266748770124" lon="7.638521393213779"><ele>482.75</ele><time>2026-04-19T09:53:29Z</time></trkpt><trkpt lat="44.39324991283401" lon="7.638703178181145"><ele>483.0</ele><time>2026-04-19T09:53:30Z</time></trkpt><trkpt lat="44.39322190456885" lon="7.638872217923798"><ele>483.0</ele><time>2026-04-19T09:53:31Z</time></trkpt><trkpt lat="44.3931874034929" lon="7.639052644800546"><ele>483.0</ele><time>2026-04-19T09:53:32Z</time></trkpt><trkpt lat="44.39316999484789" lon="7.639251566021512"><ele>483.0</ele><time>2026-04-19T09:53:33Z</time></trkpt><trkpt lat="44.39317667065379" lon="7.639463286824339"><ele>483.0</ele><time>2026-04-19T09:53:34Z</time></trkpt><trkpt lat="44.39319028628136" lon="7.639700453041327"><ele>482.66666666666663</ele><time>2026-04-19T09:53:35Z</time></trkpt><trkpt lat="44.39319979523643" lon="7.6399468999847056"><ele>482.3333333333333</ele><time>2026-04-19T09:53:36Z</time></trkpt><trkpt lat="44.39321102186821" lon="7.6402072377810315"><ele>482.0</ele><time>2026-04-19T09:53:37Z</time></trkpt><trkpt lat="44.39320375126718" lon="7.64048696722733"><ele>482.0</ele><time>2026-04-19T09:53:38Z</time></trkpt><trkpt lat="44.39320534427481" lon="7.640769149824881"><ele>482.0</ele><time>2026-04-19T09:53:39Z</time></trkpt><trkpt lat="44.39322128173157" lon="7.641058405373947"><ele>482.0</ele><time>2026-04-19T09:53:40Z</time></trkpt><trkpt lat="44.39322147773861" lon="7.641362923399819"><ele>481.5</ele><time>2026-04-19T09:53:41Z</time></trkpt><trkpt lat="44.39320627054491" lon="7.641681328135587"><ele>481.0</ele><time>2026-04-19T09:53:42Z</time></trkpt><trkpt lat="44.393222277954656" lon="7.642028732970147"><ele>480.0</ele><time>2026-04-19T09:53:43Z</time></trkpt><trkpt lat="44.39322252062939" lon="7.642378938130605"><ele>479.0</ele><time>2026-04-19T09:53:44Z</time></trkpt><trkpt lat="44.39322080541506" lon="7.642736362994837"><ele>478.0</ele><time>2026-04-19T09:53:45Z</time></trkpt><trkpt lat="44.39322510113193" lon="7.6431119915178405"><ele>477.0</ele><time>2026-04-19T09:53:46Z</time></trkpt><trkpt lat="44.39321215506429" lon="7.6434865761262545"><ele>477.5</ele><time>2026-04-19T09:53:47Z</time></trkpt><trkpt lat="44.39321418729529" lon="7.643860000001891"><ele>478.0</ele><time>2026-04-19T09:53:48Z</time></trkpt><trkpt lat="44.3932169804925" lon="7.644253023101459"><ele>478.0</ele><time>2026-04-19T09:53:49Z</time></trkpt><trkpt lat="44.39323711187532" lon="7.644655101438083"><ele>478.0</ele><time>2026-04-19T09:53:50Z</time></trkpt><trkpt lat="44.393238912526776" lon="7.645066868704531"><ele>478.0</ele><time>2026-04-19T09:53:51Z</time></trkpt><trkpt lat="44.393241754440794" lon="7.645479964975134"><ele>478.0</ele><time>2026-04-19T09:53:52Z</time></trkpt><trkpt lat="44.39324550715225" lon="7.645891467710347"><ele>477.0</ele><time>2026-04-19T09:53:53Z</time></trkpt><trkpt lat="44.39324888484104" lon="7.646313357485715"><ele>476.0</ele><time>2026-04-19T09:53:54Z</time></trkpt><trkpt lat="44.39325258556784" lon="7.646728706352754"><ele>475.5</ele><time>2026-04-19T09:53:55Z</time></trkpt><trkpt lat="44.39325701408246" lon="7.647122473526773"><ele>475.0</ele><time>2026-04-19T09:53:56Z</time></trkpt><trkpt lat="44.3932626401235" lon="7.647496330303427"><ele>476.0</ele><time>2026-04-19T09:53:57Z</time></trkpt><trkpt lat="44.393267603350985" lon="7.6478577528601495"><ele>477.0</ele><time>2026-04-19T09:53:58Z</time></trkpt><trkpt lat="44.39326651669975" lon="7.6482301813175555"><ele>477.0</ele><time>2026-04-19T09:53:59Z</time></trkpt><trkpt lat="44.393254158261534" lon="7.648622485608837"><ele>477.0</ele><time>2026-04-19T09:54:00Z</time></trkpt><trkpt lat="44.393227689408555" lon="7.649021265527831"><ele>477.0</ele><time>2026-04-19T09:54:01Z</time></trkpt><trkpt lat="44.39318965127236" lon="7.649420700766078"><ele>477.0</ele><time>2026-04-19T09:54:02Z</time></trkpt><trkpt lat="44.393144798206734" lon="7.649819205181109"><ele>476.5</ele><time>2026-04-19T09:54:03Z</time></trkpt><trkpt lat="44.39310687188003" lon="7.6502223441343515"><ele>476.0</ele><time>2026-04-19T09:54:04Z</time></trkpt><trkpt lat="44.3930712566181" lon="7.650629746694968"><ele>476.0</ele><time>2026-04-19T09:54:05Z</time></trkpt><trkpt lat="44.39303457332627" lon="7.651039666628063"><ele>476.0</ele><time>2026-04-19T09:54:06Z</time></trkpt><trkpt lat="44.3929965765387" lon="7.651444147960512"><ele>477.0</ele><time>2026-04-19T09:54:07Z</time></trkpt><trkpt lat="44.39295782565863" lon="7.651843792524934"><ele>478.0</ele><time>2026-04-19T09:54:08Z</time></trkpt><trkpt lat="44.39292003821191" lon="7.652238997472465"><ele>478.0</ele><time>2026-04-19T09:54:09Z</time></trkpt><trkpt lat="44.392885993799396" lon="7.652616015592949"><ele>478.0</ele><time>2026-04-19T09:54:10Z</time></trkpt><trkpt lat="44.39285379760443" lon="7.65297741415573"><ele>476.0</ele><time>2026-04-19T09:54:11Z</time></trkpt><trkpt lat="44.39282253677983" lon="7.653327766990663"><ele>474.0</ele><time>2026-04-19T09:54:12Z</time></trkpt><trkpt lat="44.3927909303051" lon="7.653665693568807"><ele>473.0</ele><time>2026-04-19T09:54:13Z</time></trkpt><trkpt lat="44.3927604044792" lon="7.653992147034647"><ele>472.0</ele><time>2026-04-19T09:54:14Z</time></trkpt><trkpt lat="44.392730679162476" lon="7.654309560442084"><ele>471.6666666666667</ele><time>2026-04-19T09:54:15Z</time></trkpt><trkpt lat="44.39270265467071" lon="7.654615804777813"><ele>471.33333333333337</ele><time>2026-04-19T09:54:16Z</time></trkpt><trkpt lat="44.39267527945002" lon="7.654915121126356"><ele>471.0</ele><time>2026-04-19T09:54:17Z</time></trkpt><trkpt lat="44.39264621949576" lon="7.655223922633375"><ele>470.33333333333337</ele><time>2026-04-19T09:54:18Z</time></trkpt><trkpt lat="44.39261787336907" lon="7.655531685565032"><ele>469.6666666666667</ele><time>2026-04-19T09:54:19Z</time></trkpt><trkpt lat="44.39259115755783" lon="7.655824629410998"><ele>469.0</ele><time>2026-04-19T09:54:20Z</time></trkpt><trkpt lat="44.39256352491581" lon="7.656103978219341"><ele>469.33333333333337</ele><time>2026-04-19T09:54:21Z</time></trkpt><trkpt lat="44.392536428508784" lon="7.656375877338939"><ele>469.66666666666663</ele><time>2026-04-19T09:54:22Z</time></trkpt><trkpt lat="44.39250887095609" lon="7.656653314416673"><ele>470.0</ele><time>2026-04-19T09:54:23Z</time></trkpt><trkpt lat="44.392481261364864" lon="7.656941004575326"><ele>470.0</ele><time>2026-04-19T09:54:24Z</time></trkpt><trkpt lat="44.39245434674201" lon="7.657232190417724"><ele>470.0</ele><time>2026-04-19T09:54:25Z</time></trkpt><trkpt lat="44.39242840007264" lon="7.6575227475029575"><ele>470.0</ele><time>2026-04-19T09:54:26Z</time></trkpt><trkpt lat="44.39240305690547" lon="7.657809292844483"><ele>469.66666666666663</ele><time>2026-04-19T09:54:27Z</time></trkpt><trkpt lat="44.39237755059515" lon="7.658082750443276"><ele>469.33333333333337</ele><time>2026-04-19T09:54:28Z</time></trkpt><trkpt lat="44.39235148542413" lon="7.658344324619481"><ele>469.0</ele><time>2026-04-19T09:54:29Z</time></trkpt><trkpt lat="44.39232776805333" lon="7.658597411758087"><ele>468.6666666666667</ele><time>2026-04-19T09:54:30Z</time></trkpt><trkpt lat="44.39230634388689" lon="7.658840657153903"><ele>468.33333333333337</ele><time>2026-04-19T09:54:31Z</time></trkpt><trkpt lat="44.39228784000466" lon="7.659073478958683"><ele>468.0</ele><time>2026-04-19T09:54:32Z</time></trkpt><trkpt lat="44.39228575737147" lon="7.6592932538228675"><ele>468.33333333333337</ele><time>2026-04-19T09:54:33Z</time></trkpt><trkpt lat="44.39229753604849" lon="7.659516129663091"><ele>468.6666666666667</ele><time>2026-04-19T09:54:34Z</time></trkpt><trkpt lat="44.392328583847664" lon="7.659749922508665"><ele>469.0</ele><time>2026-04-19T09:54:35Z</time></trkpt><trkpt lat="44.39238116255561" lon="7.6599954775663335"><ele>469.0</ele><time>2026-04-19T09:54:36Z</time></trkpt><trkpt lat="44.392451632464926" lon="7.660238864135325"><ele>469.0</ele><time>2026-04-19T09:54:37Z</time></trkpt><trkpt lat="44.39253907779144" lon="7.660479397790855"><ele>469.0</ele><time>2026-04-19T09:54:38Z</time></trkpt><trkpt lat="44.39264208517321" lon="7.660727352330054"><ele>468.6666666666667</ele><time>2026-04-19T09:54:39Z</time></trkpt><trkpt lat="44.39276164794572" lon="7.660984835710403"><ele>468.33333333333337</ele><time>2026-04-19T09:54:40Z</time></trkpt><trkpt lat="44.39288204337881" lon="7.661246527243136"><ele>468.0</ele><time>2026-04-19T09:54:41Z</time></trkpt><trkpt lat="44.393018948123576" lon="7.6615268176507705"><ele>467.5</ele><time>2026-04-19T09:54:42Z</time></trkpt><trkpt lat="44.3931616167473" lon="7.6618218863301655"><ele>467.0</ele><time>2026-04-19T09:54:43Z</time></trkpt><trkpt lat="44.39329950057699" lon="7.662131584049004"><ele>467.0</ele><time>2026-04-19T09:54:44Z</time></trkpt><trkpt lat="44.39344405531592" lon="7.6624522125476"><ele>467.0</ele><time>2026-04-19T09:54:45Z</time></trkpt><trkpt lat="44.39359185971278" lon="7.662779788924444"><ele>466.0</ele><time>2026-04-19T09:54:46Z</time></trkpt><trkpt lat="44.39373920794047" lon="7.663115906152688"><ele>465.0</ele><time>2026-04-19T09:54:47Z</time></trkpt><trkpt lat="44.393882188135265" lon="7.663455681416629"><ele>464.5</ele><time>2026-04-19T09:54:48Z</time></trkpt><trkpt lat="44.39402577053101" lon="7.663791605021497"><ele>464.0</ele><time>2026-04-19T09:54:49Z</time></trkpt><trkpt lat="44.39417401447916" lon="7.664115999936259"><ele>464.0</ele><time>2026-04-19T09:54:50Z</time></trkpt><trkpt lat="44.39432067623801" lon="7.664437128213228"><ele>464.0</ele><time>2026-04-19T09:54:51Z</time></trkpt><trkpt lat="44.39446556530206" lon="7.664755816486407"><ele>464.0</ele><time>2026-04-19T09:54:52Z</time></trkpt><trkpt lat="44.3946107576199" lon="7.665071005880677"><ele>464.0</ele><time>2026-04-19T09:54:53Z</time></trkpt><trkpt lat="44.39475569345508" lon="7.665383817437231"><ele>464.0</ele><time>2026-04-19T09:54:54Z</time></trkpt><trkpt lat="44.39489197549084" lon="7.665684788391707"><ele>464.0</ele><time>2026-04-19T09:54:55Z</time></trkpt><trkpt lat="44.39502287856057" lon="7.665971559224779"><ele>462.0</ele><time>2026-04-19T09:54:56Z</time></trkpt><trkpt lat="44.395146444905656" lon="7.666245153287047"><ele>460.0</ele><time>2026-04-19T09:54:57Z</time></trkpt><trkpt lat="44.39526810405681" lon="7.666509488913487"><ele>460.0</ele><time>2026-04-19T09:54:58Z</time></trkpt><trkpt lat="44.395387181253895" lon="7.666768472368566"><ele>460.0</ele><time>2026-04-19T09:54:59Z</time></trkpt><trkpt lat="44.395506548065335" lon="7.6670268116000315"><ele>460.0</ele><time>2026-04-19T09:55:00Z</time></trkpt><trkpt lat="44.395625149873325" lon="7.667285484836395"><ele>460.0</ele><time>2026-04-19T09:55:01Z</time></trkpt><trkpt lat="44.39573390264998" lon="7.667560786192801"><ele>460.0</ele><time>2026-04-19T09:55:02Z</time></trkpt><trkpt lat="44.39582321012477" lon="7.667862754555719"><ele>460.0</ele><time>2026-04-19T09:55:03Z</time></trkpt><trkpt lat="44.39588995092098" lon="7.66818615532151"><ele>460.0</ele><time>2026-04-19T09:55:04Z</time></trkpt><trkpt lat="44.39594268534494" lon="7.668518079726163"><ele>460.0</ele><time>2026-04-19T09:55:05Z</time></trkpt><trkpt lat="44.39599469324299" lon="7.66885635854718"><ele>460.0</ele><time>2026-04-19T09:55:06Z</time></trkpt><trkpt lat="44.39605316839277" lon="7.669197230984434"><ele>460.0</ele><time>2026-04-19T09:55:07Z</time></trkpt><trkpt lat="44.39611344736313" lon="7.669543475197655"><ele>460.0</ele><time>2026-04-19T09:55:08Z</time></trkpt><trkpt lat="44.39616949791404" lon="7.669884526217018"><ele>460.0</ele><time>2026-04-19T09:55:09Z</time></trkpt><trkpt lat="44.39622278872567" lon="7.670210495982712"><ele>460.0</ele><time>2026-04-19T09:55:10Z</time></trkpt><trkpt lat="44.39627534556815" lon="7.670520275246821"><ele>460.0</ele><time>2026-04-19T09:55:11Z</time></trkpt><trkpt lat="44.39632862430049" lon="7.670818866813668"><ele>460.0</ele><time>2026-04-19T09:55:12Z</time></trkpt><trkpt lat="44.396386014925916" lon="7.671104424696499"><ele>460.0</ele><time>2026-04-19T09:55:13Z</time></trkpt><trkpt lat="44.39646122701221" lon="7.671380603353178"><ele>459.0</ele><time>2026-04-19T09:55:14Z</time></trkpt><trkpt lat="44.39656422232853" lon="7.671662430416869"><ele>458.0</ele><time>2026-04-19T09:55:15Z</time></trkpt><trkpt lat="44.3966814209144" lon="7.67195271733262"><ele>457.5</ele><time>2026-04-19T09:55:16Z</time></trkpt><trkpt lat="44.39680200192857" lon="7.672250736970805"><ele>457.0</ele><time>2026-04-19T09:55:17Z</time></trkpt><trkpt lat="44.396929880932454" lon="7.672559429404023"><ele>457.5</ele><time>2026-04-19T09:55:18Z</time></trkpt><trkpt lat="44.39705913063078" lon="7.672876442301755"><ele>458.0</ele><time>2026-04-19T09:55:19Z</time></trkpt><trkpt lat="44.3971929650665" lon="7.673206234468158"><ele>458.0</ele><time>2026-04-19T09:55:20Z</time></trkpt><trkpt lat="44.397333723333986" lon="7.673545859242894"><ele>458.0</ele><time>2026-04-19T09:55:21Z</time></trkpt><trkpt lat="44.39747490249241" lon="7.673883095716076"><ele>458.0</ele><time>2026-04-19T09:55:22Z</time></trkpt><trkpt lat="44.39760856137343" lon="7.6742045084195105"><ele>458.0</ele><time>2026-04-19T09:55:23Z</time></trkpt><trkpt lat="44.397733520153224" lon="7.674508883704737"><ele>458.5</ele><time>2026-04-19T09:55:24Z</time></trkpt><trkpt lat="44.39785527508778" lon="7.674805149003327"><ele>459.0</ele><time>2026-04-19T09:55:25.001Z</time></trkpt><trkpt lat="44.39797272508474" lon="7.675089484226356"><ele>458.0</ele><time>2026-04-19T09:55:26.001Z</time></trkpt><trkpt lat="44.39808348624219" lon="7.6753661410279985"><ele>457.0</ele><time>2026-04-19T09:55:27.001Z</time></trkpt><trkpt lat="44.39819325712355" lon="7.675642965143278"><ele>457.0</ele><time>2026-04-19T09:55:28.001Z</time></trkpt><trkpt lat="44.39830998240506" lon="7.675931131952379"><ele>457.0</ele><time>2026-04-19T09:55:29.001Z</time></trkpt><trkpt lat="44.398428250967676" lon="7.676223058716176"><ele>456.5</ele><time>2026-04-19T09:55:30.001Z</time></trkpt><trkpt lat="44.39854926194529" lon="7.67651341940661"><ele>456.0</ele><time>2026-04-19T09:55:31.001Z</time></trkpt><trkpt lat="44.39866927659736" lon="7.676799201185141"><ele>456.0</ele><time>2026-04-19T09:55:32.001Z</time></trkpt><trkpt lat="44.39878290956237" lon="7.677073069866693"><ele>456.0</ele><time>2026-04-19T09:55:33.001Z</time></trkpt><trkpt lat="44.39888936132144" lon="7.677333443686223"><ele>456.0</ele><time>2026-04-19T09:55:34.001Z</time></trkpt><trkpt lat="44.398990227850824" lon="7.67758093027529"><ele>456.0</ele><time>2026-04-19T09:55:35.001Z</time></trkpt><trkpt lat="44.399087882396955" lon="7.677819946455286"><ele>456.0</ele><time>2026-04-19T09:55:36.001Z</time></trkpt><trkpt lat="44.39918207682294" lon="7.678050432340069"><ele>456.0</ele><time>2026-04-19T09:55:37.001Z</time></trkpt><trkpt lat="44.39927324182092" lon="7.6782728323488145"><ele>456.0</ele><time>2026-04-19T09:55:38.001Z</time></trkpt><trkpt lat="44.39936173366041" lon="7.6784852686598315"><ele>456.0</ele><time>2026-04-19T09:55:39.001Z</time></trkpt><trkpt lat="44.39944729121139" lon="7.678687631662234"><ele>456.0</ele><time>2026-04-19T09:55:40.001Z</time></trkpt><trkpt lat="44.39953134837803" lon="7.678883127268207"><ele>456.0</ele><time>2026-04-19T09:55:41.001Z</time></trkpt><trkpt lat="44.399619421919894" lon="7.6790808578808605"><ele>456.0</ele><time>2026-04-19T09:55:42.001Z</time></trkpt><trkpt lat="44.39971595186018" lon="7.679276243818933"><ele>456.0</ele><time>2026-04-19T09:55:43.001Z</time></trkpt><trkpt lat="44.39982222936776" lon="7.679462379300711"><ele>455.33333333333337</ele><time>2026-04-19T09:55:44.001Z</time></trkpt><trkpt lat="44.3999292677809" lon="7.679644457151334"><ele>454.6666666666667</ele><time>2026-04-19T09:55:45.001Z</time></trkpt><trkpt lat="44.40003055535971" lon="7.679818379518775"><ele>454.0</ele><time>2026-04-19T09:55:46.001Z</time></trkpt><trkpt lat="44.400126177936855" lon="7.679981863713343"><ele>454.0</ele><time>2026-04-19T09:55:47.001Z</time></trkpt><trkpt lat="44.400217421438235" lon="7.680138612016849"><ele>454.0</ele><time>2026-04-19T09:55:48.001Z</time></trkpt><trkpt lat="44.400305938636215" lon="7.680287384379971"><ele>454.0</ele><time>2026-04-19T09:55:49.001Z</time></trkpt><trkpt lat="44.40038931566857" lon="7.680430218358535"><ele>454.0</ele><time>2026-04-19T09:55:50.001Z</time></trkpt><trkpt lat="44.40046805822313" lon="7.680569120427035"><ele>453.75</ele><time>2026-04-19T09:55:51.001Z</time></trkpt><trkpt lat="44.40054850101509" lon="7.680707257922922"><ele>453.5</ele><time>2026-04-19T09:55:52.001Z</time></trkpt><trkpt lat="44.400640345134086" lon="7.680862813919974"><ele>453.25</ele><time>2026-04-19T09:55:53.001Z</time></trkpt><trkpt lat="44.40073322409732" lon="7.681029025475127"><ele>453.0</ele><time>2026-04-19T09:55:54.001Z</time></trkpt><trkpt lat="44.400823859832876" lon="7.681201591590805"><ele>452.5</ele><time>2026-04-19T09:55:55.001Z</time></trkpt><trkpt lat="44.40091248407473" lon="7.681370393503737"><ele>452.0</ele><time>2026-04-19T09:55:56.001Z</time></trkpt><trkpt lat="44.40100318963907" lon="7.681537513242621"><ele>451.5</ele><time>2026-04-19T09:55:57.001Z</time></trkpt><trkpt lat="44.401098375903" lon="7.681699533583072"><ele>451.0</ele><time>2026-04-19T09:55:58.001Z</time></trkpt><trkpt lat="44.401198870713074" lon="7.681851230508033"><ele>451.0</ele><time>2026-04-19T09:55:59.001Z</time></trkpt><trkpt lat="44.40130530049598" lon="7.681994297032014"><ele>451.0</ele><time>2026-04-19T09:56:00.001Z</time></trkpt><trkpt lat="44.4014139697663" lon="7.682132950801"><ele>451.0</ele><time>2026-04-19T09:56:01.001Z</time></trkpt><trkpt lat="44.401517143907846" lon="7.68226893837872"><ele>451.0</ele><time>2026-04-19T09:56:02.001Z</time></trkpt><trkpt lat="44.40161759753094" lon="7.682403779230634"><ele>451.0</ele><time>2026-04-19T09:56:03.001Z</time></trkpt><trkpt lat="44.40171595230305" lon="7.6825338482925245"><ele>451.0</ele><time>2026-04-19T09:56:04.001Z</time></trkpt><trkpt lat="44.40180950873135" lon="7.682662338344217"><ele>451.0</ele><time>2026-04-19T09:56:05.001Z</time></trkpt><trkpt lat="44.40189494412756" lon="7.682796384917334"><ele>451.0</ele><time>2026-04-19T09:56:06.001Z</time></trkpt><trkpt lat="44.401971794357245" lon="7.682935292468933"><ele>451.0</ele><time>2026-04-19T09:56:07.001Z</time></trkpt><trkpt lat="44.4020415678557" lon="7.683076823257031"><ele>451.0</ele><time>2026-04-19T09:56:08.001Z</time></trkpt><trkpt lat="44.40210408955593" lon="7.683223210738519"><ele>451.0</ele><time>2026-04-19T09:56:09.001Z</time></trkpt><trkpt lat="44.40215870852288" lon="7.683367100898848"><ele>451.0</ele><time>2026-04-19T09:56:10.001Z</time></trkpt><trkpt lat="44.40220769268094" lon="7.68350291983695"><ele>451.20000000000005</ele><time>2026-04-19T09:56:11.001Z</time></trkpt><trkpt lat="44.402256799642615" lon="7.683631772162368"><ele>451.40000000000003</ele><time>2026-04-19T09:56:12.001Z</time></trkpt><trkpt lat="44.40230632732278" lon="7.683758881642996"><ele>451.6</ele><time>2026-04-19T09:56:13Z</time></trkpt><trkpt lat="44.40235182779615" lon="7.683881659619225"><ele>451.8</ele><time>2026-04-19T09:56:14Z</time></trkpt><trkpt lat="44.402393741426565" lon="7.684003316269874"><ele>452.0</ele><time>2026-04-19T09:56:15Z</time></trkpt><trkpt lat="44.40243304102251" lon="7.684123949482357"><ele>452.0</ele><time>2026-04-19T09:56:16Z</time></trkpt><trkpt lat="44.40246918928923" lon="7.684244357699307"><ele>452.00000000000006</ele><time>2026-04-19T09:56:17Z</time></trkpt><trkpt lat="44.40250203775651" lon="7.684373035098719"><ele>452.00000000000006</ele><time>2026-04-19T09:56:18Z</time></trkpt><trkpt lat="44.40253114539891" lon="7.684504430393129"><ele>452.0</ele><time>2026-04-19T09:56:19Z</time></trkpt><trkpt lat="44.402558250834254" lon="7.6846336035111555"><ele>452.0</ele><time>2026-04-19T09:56:20Z</time></trkpt><trkpt lat="44.40258363535276" lon="7.684755664729173"><ele>451.99999999999994</ele><time>2026-04-19T09:56:21Z</time></trkpt><trkpt lat="44.40260943501769" lon="7.684873200263321"><ele>452.0</ele><time>2026-04-19T09:56:22Z</time></trkpt><trkpt lat="44.402640914042856" lon="7.684981654871563"><ele>452.0</ele><time>2026-04-19T09:56:23Z</time></trkpt><trkpt lat="44.40267257467969" lon="7.6850755264578705"><ele>452.0</ele><time>2026-04-19T09:56:24Z</time></trkpt><trkpt lat="44.40269883768936" lon="7.685157879327521"><ele>451.99999999999994</ele><time>2026-04-19T09:56:25Z</time></trkpt><trkpt lat="44.40271484027035" lon="7.685312608488702"><ele>452.0</ele><time>2026-04-19T09:56:27Z</time></trkpt><trkpt lat="44.40266473407553" lon="7.685452180568585"><ele>451.99999999999994</ele><time>2026-04-19T09:56:29Z</time></trkpt><trkpt lat="44.40261075195709" lon="7.685530833826251"><ele>452.0</ele><time>2026-04-19T09:56:30Z</time></trkpt><trkpt lat="44.402552787583005" lon="7.685614947338698"><ele>452.0</ele><time>2026-04-19T09:56:31Z</time></trkpt><trkpt lat="44.4024758787885" lon="7.685668979584705"><ele>452.0</ele><time>2026-04-19T09:56:32Z</time></trkpt><trkpt lat="44.40239972261048" lon="7.685743856015649"><ele>451.99999999999994</ele><time>2026-04-19T09:56:33Z</time></trkpt><trkpt lat="44.40231775725861" lon="7.68581959288973"><ele>452.0</ele><time>2026-04-19T09:56:34Z</time></trkpt><trkpt lat="44.40223924337694" lon="7.685909260106184"><ele>452.0</ele><time>2026-04-19T09:56:35Z</time></trkpt><trkpt lat="44.4021564610405" lon="7.68598167430092"><ele>452.00000000000006</ele><time>2026-04-19T09:56:36Z</time></trkpt><trkpt lat="44.402071861719136" lon="7.686056438623445"><ele>452.00000000000006</ele><time>2026-04-19T09:56:37Z</time></trkpt><trkpt lat="44.40199176895174" lon="7.686127688591623"><ele>452.0</ele><time>2026-04-19T09:56:38Z</time></trkpt><trkpt lat="44.401914666237055" lon="7.68619791903706"><ele>452.0</ele><time>2026-04-19T09:56:39Z</time></trkpt><trkpt lat="44.40184175096819" lon="7.6862679549706625"><ele>451.40000000000003</ele><time>2026-04-19T09:56:40Z</time></trkpt><trkpt lat="44.401770371938234" lon="7.686325153728534"><ele>450.80000000000007</ele><time>2026-04-19T09:56:41Z</time></trkpt><trkpt lat="44.401710601625346" lon="7.686374940841214"><ele>450.2</ele><time>2026-04-19T09:56:42Z</time></trkpt><trkpt lat="44.401664018670495" lon="7.686437629018017"><ele>449.6</ele><time>2026-04-19T09:56:43Z</time></trkpt><trkpt lat="44.40163865367722" lon="7.686604936360506"><ele>449.0</ele><time>2026-04-19T09:56:45Z</time></trkpt><trkpt lat="44.40162334205817" lon="7.686775732439734"><ele>449.0</ele><time>2026-04-19T09:56:47Z</time></trkpt><trkpt lat="44.40160344597957" lon="7.686861588773942"><ele>448.99999999999994</ele><time>2026-04-19T09:56:48Z</time></trkpt><trkpt lat="44.40156932994557" lon="7.686945705566793"><ele>449.0</ele><time>2026-04-19T09:56:49Z</time></trkpt><trkpt lat="44.401515015818184" lon="7.687013622193722"><ele>449.0</ele><time>2026-04-19T09:56:50Z</time></trkpt><trkpt lat="44.40144520655646" lon="7.687059276542598"><ele>448.99999999999994</ele><time>2026-04-19T09:56:51Z</time></trkpt><trkpt lat="44.40136602765197" lon="7.687076263873841"><ele>449.0</ele><time>2026-04-19T09:56:52Z</time></trkpt><trkpt lat="44.40129014262731" lon="7.68703285051972"><ele>449.0</ele><time>2026-04-19T09:56:53Z</time></trkpt><trkpt lat="44.401221237223304" lon="7.68697425370911"><ele>447.79999999999995</ele><time>2026-04-19T09:56:54Z</time></trkpt><trkpt lat="44.40113371922406" lon="7.686940571796444"><ele>446.59999999999997</ele><time>2026-04-19T09:56:55Z</time></trkpt><trkpt lat="44.401040249238804" lon="7.686890945341762"><ele>445.4</ele><time>2026-04-19T09:56:56Z</time></trkpt><trkpt lat="44.40093364071167" lon="7.686862931089384"><ele>444.2</ele><time>2026-04-19T09:56:57Z</time></trkpt><trkpt lat="44.40082191013468" lon="7.686839055317565"><ele>443.0</ele><time>2026-04-19T09:56:58Z</time></trkpt><trkpt lat="44.400710500953664" lon="7.686812739156029"><ele>443.0</ele><time>2026-04-19T09:56:59Z</time></trkpt><trkpt lat="44.400597753048395" lon="7.686784881681918"><ele>443.0</ele><time>2026-04-19T09:57:00Z</time></trkpt><trkpt lat="44.40048388623885" lon="7.686753968447094"><ele>443.0</ele><time>2026-04-19T09:57:01Z</time></trkpt><trkpt lat="44.400369167594675" lon="7.686720724691535"><ele>443.0</ele><time>2026-04-19T09:57:02Z</time></trkpt><trkpt lat="44.40025402791692" lon="7.686694701774752"><ele>440.75</ele><time>2026-04-19T09:57:03Z</time></trkpt><trkpt lat="44.400141485990545" lon="7.686679922841268"><ele>438.5</ele><time>2026-04-19T09:57:04Z</time></trkpt><trkpt lat="44.40003086721818" lon="7.686681338977138"><ele>436.25</ele><time>2026-04-19T09:57:05Z</time></trkpt><trkpt lat="44.39991800420144" lon="7.686712249153848"><ele>434.0</ele><time>2026-04-19T09:57:06Z</time></trkpt><trkpt lat="44.39981147255806" lon="7.686769696037119"><ele>434.0</ele><time>2026-04-19T09:57:07Z</time></trkpt><trkpt lat="44.39971958824883" lon="7.686861725693367"><ele>434.0</ele><time>2026-04-19T09:57:08Z</time></trkpt><trkpt lat="44.39964077293801" lon="7.686980025812733"><ele>434.0</ele><time>2026-04-19T09:57:09Z</time></trkpt><trkpt lat="44.3995689470936" lon="7.687104493567902"><ele>434.0</ele><time>2026-04-19T09:57:10Z</time></trkpt><trkpt lat="44.39950058822148" lon="7.687229661762768"><ele>433.0</ele><time>2026-04-19T09:57:11Z</time></trkpt><trkpt lat="44.39943456911462" lon="7.687350065457923"><ele>432.0</ele><time>2026-04-19T09:57:12Z</time></trkpt><trkpt lat="44.39937167326664" lon="7.6874660740739635"><ele>431.0</ele><time>2026-04-19T09:57:13Z</time></trkpt><trkpt lat="44.39930956427758" lon="7.687578154515918"><ele>430.0</ele><time>2026-04-19T09:57:14Z</time></trkpt><trkpt lat="44.39924662614051" lon="7.687685654718217"><ele>429.0</ele><time>2026-04-19T09:57:15Z</time></trkpt><trkpt lat="44.39918590104877" lon="7.687790874592247"><ele>429.0</ele><time>2026-04-19T09:57:16Z</time></trkpt><trkpt lat="44.39912816395626" lon="7.6878937331973445"><ele>429.0</ele><time>2026-04-19T09:57:17Z</time></trkpt><trkpt lat="44.39907257185452" lon="7.687992698792859"><ele>429.0</ele><time>2026-04-19T09:57:18Z</time></trkpt><trkpt lat="44.39902003830227" lon="7.688086035621175"><ele>429.0</ele><time>2026-04-19T09:57:19Z</time></trkpt><trkpt lat="44.3989702351354" lon="7.688175001518714"><ele>429.0</ele><time>2026-04-19T09:57:20Z</time></trkpt><trkpt lat="44.39892269792591" lon="7.6882586087096465"><ele>429.0</ele><time>2026-04-19T09:57:21Z</time></trkpt><trkpt lat="44.398877238784564" lon="7.688339457320871"><ele>429.0</ele><time>2026-04-19T09:57:22Z</time></trkpt><trkpt lat="44.39883464474761" lon="7.688415805818627"><ele>429.0</ele><time>2026-04-19T09:57:23Z</time></trkpt><trkpt lat="44.398761627198276" lon="7.688552524022796"><ele>429.0</ele><time>2026-04-19T09:57:25Z</time></trkpt><trkpt lat="44.39869826526592" lon="7.688666065468897"><ele>429.0</ele><time>2026-04-19T09:57:27Z</time></trkpt><trkpt lat="44.398641143149774" lon="7.688758708189446"><ele>429.0</ele><time>2026-04-19T09:57:29Z</time></trkpt><trkpt lat="44.39857484436912" lon="7.688883306602583"><ele>429.7142857142857</ele><time>2026-04-19T09:57:31.001Z</time></trkpt><trkpt lat="44.398524828742026" lon="7.688936890489419"><ele>430.42857142857144</ele><time>2026-04-19T09:57:32.001Z</time></trkpt><trkpt lat="44.39848524408279" lon="7.689009156332142"><ele>431.1428571428571</ele><time>2026-04-19T09:57:33.001Z</time></trkpt><trkpt lat="44.39845598881387" lon="7.6890944780795625"><ele>431.8571428571429</ele><time>2026-04-19T09:57:34.001Z</time></trkpt><trkpt lat="44.39841425728882" lon="7.689167488309077"><ele>432.57142857142856</ele><time>2026-04-19T09:57:35.001Z</time></trkpt><trkpt lat="44.39837341067138" lon="7.689237633547651"><ele>433.2857142857143</ele><time>2026-04-19T09:57:36.001Z</time></trkpt><trkpt lat="44.39832909747763" lon="7.689302878179109"><ele>434.0</ele><time>2026-04-19T09:57:37.001Z</time></trkpt><trkpt lat="44.39821795517228" lon="7.689438426750982"><ele>434.0</ele><time>2026-04-19T09:57:40.001Z</time></trkpt><trkpt lat="44.39830000827052" lon="7.689603468600488"><ele>434.0</ele><time>2026-04-19T09:57:41.001Z</time></trkpt><trkpt lat="44.39835099186068" lon="7.6896960592828965"><ele>434.0</ele><time>2026-04-19T09:57:42.001Z</time></trkpt><trkpt lat="44.398438691370416" lon="7.6897991573844156"><ele>434.0</ele><time>2026-04-19T09:57:43.001Z</time></trkpt><trkpt lat="44.39852050572349" lon="7.689936044310307"><ele>434.0</ele><time>2026-04-19T09:57:44.001Z</time></trkpt><trkpt lat="44.39861270658016" lon="7.690078831179397"><ele>434.0</ele><time>2026-04-19T09:57:45.001Z</time></trkpt><trkpt lat="44.39872181593327" lon="7.690216388968426"><ele>434.0</ele><time>2026-04-19T09:57:46.001Z</time></trkpt><trkpt lat="44.39881431906517" lon="7.690378917035692"><ele>434.0</ele><time>2026-04-19T09:57:47.001Z</time></trkpt><trkpt lat="44.39891240091624" lon="7.690547588728797"><ele>433.3333333333333</ele><time>2026-04-19T09:57:48.001Z</time></trkpt><trkpt lat="44.39901762251996" lon="7.690709787978184"><ele>432.66666666666663</ele><time>2026-04-19T09:57:49.001Z</time></trkpt><trkpt lat="44.39913429583285" lon="7.690868599787571"><ele>432.0</ele><time>2026-04-19T09:57:50.001Z</time></trkpt><trkpt lat="44.3992536702194" lon="7.691022343511404"><ele>432.5</ele><time>2026-04-19T09:57:51.001Z</time></trkpt><trkpt lat="44.3993610039183" lon="7.691173336990097"><ele>433.0</ele><time>2026-04-19T09:57:52.001Z</time></trkpt><trkpt lat="44.399459809051336" lon="7.691323227156119"><ele>433.5</ele><time>2026-04-19T09:57:53.001Z</time></trkpt><trkpt lat="44.39955043056984" lon="7.691468282323988"><ele>434.0</ele><time>2026-04-19T09:57:54.001Z</time></trkpt><trkpt lat="44.39964339315426" lon="7.691603177129931"><ele>433.75</ele><time>2026-04-19T09:57:55.001Z</time></trkpt><trkpt lat="44.399745260183174" lon="7.691742050964752"><ele>433.5</ele><time>2026-04-19T09:57:56.001Z</time></trkpt><trkpt lat="44.399884414452316" lon="7.691827043905158"><ele>433.25</ele><time>2026-04-19T09:57:57.001Z</time></trkpt><trkpt lat="44.40002024945981" lon="7.691901076210197"><ele>433.0</ele><time>2026-04-19T09:57:58.001Z</time></trkpt><trkpt lat="44.40014212153442" lon="7.691993828464423"><ele>433.0</ele><time>2026-04-19T09:57:59.001Z</time></trkpt><trkpt lat="44.40024164175704" lon="7.6921175721577955"><ele>433.0</ele><time>2026-04-19T09:58:00.001Z</time></trkpt><trkpt lat="44.40032450189257" lon="7.6922641784881955"><ele>433.0</ele><time>2026-04-19T09:58:01.001Z</time></trkpt><trkpt lat="44.40039950713453" lon="7.692439150307107"><ele>433.0</ele><time>2026-04-19T09:58:02.001Z</time></trkpt><trkpt lat="44.40046537881879" lon="7.692626438592231"><ele>432.25</ele><time>2026-04-19T09:58:03.001Z</time></trkpt><trkpt lat="44.40053155801462" lon="7.692797332156465"><ele>431.5</ele><time>2026-04-19T09:58:04.001Z</time></trkpt><trkpt lat="44.40057373558155" lon="7.692972120544577"><ele>430.75</ele><time>2026-04-19T09:58:05.001Z</time></trkpt><trkpt lat="44.40059439201924" lon="7.693147865188276"><ele>430.0</ele><time>2026-04-19T09:58:06.001Z</time></trkpt><trkpt lat="44.40059817018479" lon="7.693322801684634"><ele>430.0</ele><time>2026-04-19T09:58:07Z</time></trkpt><trkpt lat="44.400608621661185" lon="7.693491034632394"><ele>430.0</ele><time>2026-04-19T09:58:08Z</time></trkpt><trkpt lat="44.40064240864259" lon="7.693663223778427"><ele>430.0</ele><time>2026-04-19T09:58:09Z</time></trkpt><trkpt lat="44.40071541272049" lon="7.693829100590631"><ele>430.0</ele><time>2026-04-19T09:58:10Z</time></trkpt><trkpt lat="44.40081045577369" lon="7.693993058381585"><ele>431.0</ele><time>2026-04-19T09:58:11Z</time></trkpt><trkpt lat="44.400915833977415" lon="7.694169920953171"><ele>432.0</ele><time>2026-04-19T09:58:12Z</time></trkpt><trkpt lat="44.40102850055346" lon="7.694362998252042"><ele>433.0</ele><time>2026-04-19T09:58:13Z</time></trkpt><trkpt lat="44.40115075894747" lon="7.694566333141345"><ele>434.0</ele><time>2026-04-19T09:58:14Z</time></trkpt><trkpt lat="44.40127209848515" lon="7.694784922116564"><ele>435.0</ele><time>2026-04-19T09:58:15Z</time></trkpt><trkpt lat="44.40139762662879" lon="7.695013315949348"><ele>436.0</ele><time>2026-04-19T09:58:16Z</time></trkpt><trkpt lat="44.401535255857624" lon="7.695240881648976"><ele>434.33333333333337</ele><time>2026-04-19T09:58:17Z</time></trkpt><trkpt lat="44.401674031108165" lon="7.695466963466365"><ele>432.66666666666663</ele><time>2026-04-19T09:58:18Z</time></trkpt><trkpt lat="44.401803425056684" lon="7.6956857668608665"><ele>431.0</ele><time>2026-04-19T09:58:19Z</time></trkpt><trkpt lat="44.401926987845854" lon="7.695896296416968"><ele>430.3333333333333</ele><time>2026-04-19T09:58:20Z</time></trkpt><trkpt lat="44.40203052535596" lon="7.696114155120821"><ele>429.66666666666663</ele><time>2026-04-19T09:58:21Z</time></trkpt><trkpt lat="44.40214759068058" lon="7.696299026468052"><ele>429.0</ele><time>2026-04-19T09:58:22Z</time></trkpt><trkpt lat="44.402229037090386" lon="7.696507318932135"><ele>429.0</ele><time>2026-04-19T09:58:23Z</time></trkpt><trkpt lat="44.40227615812715" lon="7.696731520375745"><ele>429.0</ele><time>2026-04-19T09:58:24Z</time></trkpt><trkpt lat="44.40229580961328" lon="7.696972721393195"><ele>429.0</ele><time>2026-04-19T09:58:25Z</time></trkpt><trkpt lat="44.402293428513445" lon="7.697228903384364"><ele>428.66666666666663</ele><time>2026-04-19T09:58:26Z</time></trkpt><trkpt lat="44.40228346129607" lon="7.697496717029753"><ele>428.3333333333333</ele><time>2026-04-19T09:58:27Z</time></trkpt><trkpt lat="44.40227659001881" lon="7.697779065942428"><ele>428.0</ele><time>2026-04-19T09:58:28Z</time></trkpt><trkpt lat="44.4022735234344" lon="7.698065229442269"><ele>428.0</ele><time>2026-04-19T09:58:29Z</time></trkpt><trkpt lat="44.40227411660227" lon="7.69833662585838"><ele>428.0</ele><time>2026-04-19T09:58:30Z</time></trkpt><trkpt lat="44.40228590308998" lon="7.698590383489201"><ele>428.0</ele><time>2026-04-19T09:58:31Z</time></trkpt><trkpt lat="44.40230943691707" lon="7.698828432682156"><ele>428.66666666666663</ele><time>2026-04-19T09:58:32Z</time></trkpt><trkpt lat="44.40233402304134" lon="7.6990523406812885"><ele>429.33333333333337</ele><time>2026-04-19T09:58:33Z</time></trkpt><trkpt lat="44.40235188155678" lon="7.699264697307815"><ele>430.0</ele><time>2026-04-19T09:58:34Z</time></trkpt><trkpt lat="44.402370733258046" lon="7.69946522276488"><ele>430.25</ele><time>2026-04-19T09:58:35Z</time></trkpt><trkpt lat="44.402392806668374" lon="7.69965889218144"><ele>430.5</ele><time>2026-04-19T09:58:36Z</time></trkpt><trkpt lat="44.402473484093136" lon="7.6998352473406655"><ele>430.75</ele><time>2026-04-19T09:58:37Z</time></trkpt><trkpt lat="44.40255776606926" lon="7.70001979269537"><ele>431.0</ele><time>2026-04-19T09:58:38Z</time></trkpt><trkpt lat="44.40265155224151" lon="7.700208923427086"><ele>431.0</ele><time>2026-04-19T09:58:39Z</time></trkpt><trkpt lat="44.402748989565275" lon="7.700406771005169"><ele>431.0</ele><time>2026-04-19T09:58:40Z</time></trkpt><trkpt lat="44.40284790721576" lon="7.700622653472796"><ele>431.0</ele><time>2026-04-19T09:58:41Z</time></trkpt><trkpt lat="44.402947972487546" lon="7.7008494566038745"><ele>431.0</ele><time>2026-04-19T09:58:42Z</time></trkpt><trkpt lat="44.40305284477339" lon="7.701087657609402"><ele>431.0</ele><time>2026-04-19T09:58:43Z</time></trkpt><trkpt lat="44.40315548388362" lon="7.701318264874293"><ele>431.0</ele><time>2026-04-19T09:58:44Z</time></trkpt><trkpt lat="44.403259850323835" lon="7.70155013813966"><ele>431.0</ele><time>2026-04-19T09:58:45Z</time></trkpt><trkpt lat="44.40336786559997" lon="7.701787777177951"><ele>431.0</ele><time>2026-04-19T09:58:46Z</time></trkpt><trkpt lat="44.40347545455535" lon="7.702023102391757"><ele>431.0</ele><time>2026-04-19T09:58:47Z</time></trkpt><trkpt lat="44.40357508595295" lon="7.702245068197593"><ele>430.66666666666663</ele><time>2026-04-19T09:58:48Z</time></trkpt><trkpt lat="44.40367243769388" lon="7.702458790631813"><ele>430.33333333333337</ele><time>2026-04-19T09:58:49Z</time></trkpt><trkpt lat="44.403769555506145" lon="7.702657537669946"><ele>430.0</ele><time>2026-04-19T09:58:50Z</time></trkpt><trkpt lat="44.40387896563914" lon="7.702827260191073"><ele>430.0</ele><time>2026-04-19T09:58:51Z</time></trkpt><trkpt lat="44.40400701485899" lon="7.702986859408209"><ele>430.0</ele><time>2026-04-19T09:58:52Z</time></trkpt><trkpt lat="44.40413713858035" lon="7.703174711313889"><ele>430.0</ele><time>2026-04-19T09:58:53Z</time></trkpt><trkpt lat="44.40429192389131" lon="7.703341649521413"><ele>430.0</ele><time>2026-04-19T09:58:54Z</time></trkpt><trkpt lat="44.40443612660139" lon="7.703537431118249"><ele>430.0</ele><time>2026-04-19T09:58:55Z</time></trkpt><trkpt lat="44.40456923191758" lon="7.703727037423089"><ele>430.0</ele><time>2026-04-19T09:58:56Z</time></trkpt><trkpt lat="44.4046973450573" lon="7.703909360715906"><ele>430.33333333333337</ele><time>2026-04-19T09:58:57Z</time></trkpt><trkpt lat="44.40481942201941" lon="7.704088091211236"><ele>430.66666666666663</ele><time>2026-04-19T09:58:58Z</time></trkpt><trkpt lat="44.404933704388085" lon="7.704265860822139"><ele>431.0</ele><time>2026-04-19T09:58:59Z</time></trkpt><trkpt lat="44.40503016496009" lon="7.704452537710379"><ele>431.0</ele><time>2026-04-19T09:59:00Z</time></trkpt><trkpt lat="44.405092999210815" lon="7.704660117882926"><ele>431.0</ele><time>2026-04-19T09:59:01Z</time></trkpt><trkpt lat="44.40513388177971" lon="7.704890315775601"><ele>431.0</ele><time>2026-04-19T09:59:02Z</time></trkpt><trkpt lat="44.40515950432137" lon="7.7051396119599085"><ele>430.0</ele><time>2026-04-19T09:59:03Z</time></trkpt><trkpt lat="44.40517347634305" lon="7.705399755005529"><ele>429.0</ele><time>2026-04-19T09:59:04Z</time></trkpt><trkpt lat="44.4051845611058" lon="7.705666189650058"><ele>428.0</ele><time>2026-04-19T09:59:05Z</time></trkpt><trkpt lat="44.40521280662635" lon="7.705934330400368"><ele>429.0</ele><time>2026-04-19T09:59:06Z</time></trkpt><trkpt lat="44.40525455819296" lon="7.706205503128941"><ele>430.0</ele><time>2026-04-19T09:59:07Z</time></trkpt><trkpt lat="44.405296764330096" lon="7.706477248066007"><ele>431.0</ele><time>2026-04-19T09:59:08Z</time></trkpt><trkpt lat="44.40534352724777" lon="7.70674818303798"><ele>432.3333333333333</ele><time>2026-04-19T09:59:09Z</time></trkpt><trkpt lat="44.40539218460308" lon="7.707011051707153"><ele>433.66666666666663</ele><time>2026-04-19T09:59:10Z</time></trkpt><trkpt lat="44.40543573235132" lon="7.707259839124201"><ele>435.0</ele><time>2026-04-19T09:59:11Z</time></trkpt><trkpt lat="44.405472795550345" lon="7.707494455513289"><ele>434.0</ele><time>2026-04-19T09:59:12Z</time></trkpt><trkpt lat="44.40550452959983" lon="7.707715590756292"><ele>433.0</ele><time>2026-04-19T09:59:13Z</time></trkpt><trkpt lat="44.40553376771294" lon="7.7079205261840915"><ele>432.0</ele><time>2026-04-19T09:59:14Z</time></trkpt><trkpt lat="44.40557660114815" lon="7.708100269957713"><ele>431.0</ele><time>2026-04-19T09:59:15Z</time></trkpt><trkpt lat="44.40565559025736" lon="7.708241628374787"><ele>431.0</ele><time>2026-04-19T09:59:16Z</time></trkpt><trkpt lat="44.40575088672717" lon="7.708381459604009"><ele>431.0</ele><time>2026-04-19T09:59:17Z</time></trkpt><trkpt lat="44.405856642515964" lon="7.708529682450826"><ele>431.0</ele><time>2026-04-19T09:59:18Z</time></trkpt><trkpt lat="44.405978965716514" lon="7.708676349451368"><ele>431.0</ele><time>2026-04-19T09:59:19Z</time></trkpt><trkpt lat="44.406112731251994" lon="7.708819900029819"><ele>431.66666666666663</ele><time>2026-04-19T09:59:20Z</time></trkpt><trkpt lat="44.40625148568718" lon="7.708968567459673"><ele>432.33333333333337</ele><time>2026-04-19T09:59:21Z</time></trkpt><trkpt lat="44.406379989110505" lon="7.709121487934307"><ele>433.0</ele><time>2026-04-19T09:59:22Z</time></trkpt><trkpt lat="44.40649892153839" lon="7.709275182342224"><ele>432.75</ele><time>2026-04-19T09:59:23Z</time></trkpt><trkpt lat="44.40661300995839" lon="7.709420301590348"><ele>432.5</ele><time>2026-04-19T09:59:24Z</time></trkpt><trkpt lat="44.406731907641515" lon="7.709542508948993"><ele>432.25</ele><time>2026-04-19T09:59:25Z</time></trkpt><trkpt lat="44.40685612595959" lon="7.709637766643047"><ele>432.0</ele><time>2026-04-19T09:59:26Z</time></trkpt><trkpt lat="44.406966360133765" lon="7.7097508099361765"><ele>432.0</ele><time>2026-04-19T09:59:27Z</time></trkpt><trkpt lat="44.40706837621992" lon="7.7098371581805685"><ele>432.00000000000006</ele><time>2026-04-19T09:59:28Z</time></trkpt><trkpt lat="44.40715994213439" lon="7.709916015516915"><ele>432.00000000000006</ele><time>2026-04-19T09:59:29Z</time></trkpt><trkpt lat="44.407209165218774" lon="7.710035725097458"><ele>432.0</ele><time>2026-04-19T09:59:30Z</time></trkpt><trkpt lat="44.40721778138993" lon="7.710170862898387"><ele>432.0</ele><time>2026-04-19T09:59:31Z</time></trkpt><trkpt lat="44.40719071558445" lon="7.710321401256607"><ele>432.25</ele><time>2026-04-19T09:59:32Z</time></trkpt><trkpt lat="44.407136396806415" lon="7.710478255416819"><ele>432.5</ele><time>2026-04-19T09:59:33Z</time></trkpt><trkpt lat="44.40707737861117" lon="7.710644307753046"><ele>432.75</ele><time>2026-04-19T09:59:34Z</time></trkpt><trkpt lat="44.40701707913361" lon="7.710811766488404"><ele>433.0</ele><time>2026-04-19T09:59:35Z</time></trkpt><trkpt lat="44.40696304788788" lon="7.710968880356265"><ele>432.6666666666667</ele><time>2026-04-19T09:59:36Z</time></trkpt><trkpt lat="44.406915479907084" lon="7.7111099737539135"><ele>432.33333333333337</ele><time>2026-04-19T09:59:37.001Z</time></trkpt><trkpt lat="44.4068754251017" lon="7.711237034416679"><ele>432.0</ele><time>2026-04-19T09:59:38.001Z</time></trkpt><trkpt lat="44.40684732769318" lon="7.7113523686097505"><ele>431.66666666666663</ele><time>2026-04-19T09:59:39.001Z</time></trkpt><trkpt lat="44.406839388744295" lon="7.71145531663322"><ele>431.3333333333333</ele><time>2026-04-19T09:59:40.001Z</time></trkpt><trkpt lat="44.406861794053434" lon="7.711552916096342"><ele>431.0</ele><time>2026-04-19T09:59:41.001Z</time></trkpt><trkpt lat="44.40690163301328" lon="7.711659273561805"><ele>431.0</ele><time>2026-04-19T09:59:42.001Z</time></trkpt><trkpt lat="44.4070071915311" lon="7.711731758577261"><ele>431.0</ele><time>2026-04-19T09:59:43.001Z</time></trkpt><trkpt lat="44.4071158549054" lon="7.711815274314001"><ele>431.0</ele><time>2026-04-19T09:59:44.001Z</time></trkpt><trkpt lat="44.40724251156986" lon="7.711905652973094"><ele>431.0</ele><time>2026-04-19T09:59:45.001Z</time></trkpt><trkpt lat="44.40737760963732" lon="7.712002335347465"><ele>430.66666666666663</ele><time>2026-04-19T09:59:46.001Z</time></trkpt><trkpt lat="44.40752408066174" lon="7.7120985679258345"><ele>430.33333333333337</ele><time>2026-04-19T09:59:47.001Z</time></trkpt><trkpt lat="44.407681684677726" lon="7.712189703773475"><ele>430.0</ele><time>2026-04-19T09:59:48.001Z</time></trkpt><trkpt lat="44.407847635231754" lon="7.712284137901188"><ele>431.0</ele><time>2026-04-19T09:59:49.001Z</time></trkpt><trkpt lat="44.40801693776958" lon="7.712382600517053"><ele>432.0</ele><time>2026-04-19T09:59:50.001Z</time></trkpt><trkpt lat="44.40818539337856" lon="7.712479707734433"><ele>433.0</ele><time>2026-04-19T09:59:51.001Z</time></trkpt><trkpt lat="44.40834708805266" lon="7.712574159917512"><ele>433.0</ele><time>2026-04-19T09:59:52.001Z</time></trkpt><trkpt lat="44.40850235016921" lon="7.712664964255134"><ele>433.0</ele><time>2026-04-19T09:59:53.001Z</time></trkpt><trkpt lat="44.408647900883544" lon="7.7127470382551655"><ele>433.0</ele><time>2026-04-19T09:59:54.001Z</time></trkpt><trkpt lat="44.40878371036267" lon="7.712824203022128"><ele>433.0</ele><time>2026-04-19T09:59:55.001Z</time></trkpt><trkpt lat="44.40891161680417" lon="7.712897175813698"><ele>432.99999999999994</ele><time>2026-04-19T09:59:56.001Z</time></trkpt><trkpt lat="44.409019069597385" lon="7.712957378529564"><ele>432.99999999999994</ele><time>2026-04-19T09:59:57.001Z</time></trkpt><trkpt lat="44.40909372326593" lon="7.71299695753848"><ele>433.0</ele><time>2026-04-19T09:59:58.001Z</time></trkpt><trkpt lat="44.40916378150506" lon="7.713050707517598"><ele>433.0</ele><time>2026-04-19T10:00:00.001Z</time></trkpt><trkpt lat="44.40918002614126" lon="7.713153120407353"><ele>433.0</ele><time>2026-04-19T10:00:02.001Z</time></trkpt><trkpt lat="44.40916426276369" lon="7.713253914989223"><ele>432.99999999999994</ele><time>2026-04-19T10:00:03.001Z</time></trkpt><trkpt lat="44.40912602231956" lon="7.713365635545797"><ele>432.99999999999994</ele><time>2026-04-19T10:00:04Z</time></trkpt><trkpt lat="44.409133029993775" lon="7.713507773286813"><ele>433.0</ele><time>2026-04-19T10:00:05Z</time></trkpt><trkpt lat="44.40911352600924" lon="7.713670107413453"><ele>433.0</ele><time>2026-04-19T10:00:06Z</time></trkpt><trkpt lat="44.40909163796042" lon="7.713837198331682"><ele>432.4</ele><time>2026-04-19T10:00:07Z</time></trkpt><trkpt lat="44.40907351730996" lon="7.713989719911542"><ele>431.79999999999995</ele><time>2026-04-19T10:00:08Z</time></trkpt><trkpt lat="44.409058032248154" lon="7.71413651122014"><ele>431.2</ele><time>2026-04-19T10:00:09Z</time></trkpt><trkpt lat="44.40904775840534" lon="7.7142722768624115"><ele>430.6</ele><time>2026-04-19T10:00:10Z</time></trkpt><trkpt lat="44.409053408858526" lon="7.714402623212927"><ele>430.0</ele><time>2026-04-19T10:00:11Z</time></trkpt><trkpt lat="44.40907497261802" lon="7.714524031383632"><ele>429.6</ele><time>2026-04-19T10:00:12Z</time></trkpt><trkpt lat="44.40911781137255" lon="7.714640300561966"><ele>429.2</ele><time>2026-04-19T10:00:13Z</time></trkpt><trkpt lat="44.40916765360425" lon="7.714768727819041"><ele>428.79999999999995</ele><time>2026-04-19T10:00:14Z</time></trkpt><trkpt lat="44.40927008960541" lon="7.714870918728535"><ele>428.4</ele><time>2026-04-19T10:00:15Z</time></trkpt><trkpt lat="44.40936917660007" lon="7.7149626410365295"><ele>428.0</ele><time>2026-04-19T10:00:16Z</time></trkpt><trkpt lat="44.4094594245501" lon="7.715047983115435"><ele>428.0</ele><time>2026-04-19T10:00:17Z</time></trkpt><trkpt lat="44.40954435403043" lon="7.715125246089177"><ele>427.99999999999994</ele><time>2026-04-19T10:00:18Z</time></trkpt><trkpt lat="44.40959769504963" lon="7.7152489760372225"><ele>427.99999999999994</ele><time>2026-04-19T10:00:19Z</time></trkpt><trkpt lat="44.40961822024749" lon="7.715394558714793"><ele>428.0</ele><time>2026-04-19T10:00:20Z</time></trkpt><trkpt lat="44.40960539245375" lon="7.715543229151843"><ele>428.0</ele><time>2026-04-19T10:00:21Z</time></trkpt><trkpt lat="44.40955546542801" lon="7.715678344816334"><ele>426.25</ele><time>2026-04-19T10:00:22Z</time></trkpt><trkpt lat="44.409480300678545" lon="7.715784435981194"><ele>424.5</ele><time>2026-04-19T10:00:23Z</time></trkpt><trkpt lat="44.40936988285233" lon="7.715852344618677"><ele>422.75</ele><time>2026-04-19T10:00:24Z</time></trkpt><trkpt lat="44.40924096947971" lon="7.71589645050147"><ele>421.0</ele><time>2026-04-19T10:00:25Z</time></trkpt><trkpt lat="44.40909275426036" lon="7.715926227839256"><ele>421.0</ele><time>2026-04-19T10:00:26Z</time></trkpt><trkpt lat="44.40894615041052" lon="7.7159660845756575"><ele>421.0</ele><time>2026-04-19T10:00:27Z</time></trkpt><trkpt lat="44.408810458022195" lon="7.716002921938054"><ele>421.0</ele><time>2026-04-19T10:00:28Z</time></trkpt><trkpt lat="44.40868822331138" lon="7.716030915111952"><ele>421.0</ele><time>2026-04-19T10:00:29Z</time></trkpt><trkpt lat="44.40858241742805" lon="7.71605337703443"><ele>418.8</ele><time>2026-04-19T10:00:30Z</time></trkpt><trkpt lat="44.40849079330177" lon="7.7160934010627305"><ele>416.6</ele><time>2026-04-19T10:00:31Z</time></trkpt><trkpt lat="44.408421993694226" lon="7.716173516230364"><ele>414.4</ele><time>2026-04-19T10:00:32Z</time></trkpt><trkpt lat="44.40838395990863" lon="7.716293405057355"><ele>412.2</ele><time>2026-04-19T10:00:33Z</time></trkpt><trkpt lat="44.40839510893461" lon="7.716421804882352"><ele>410.0</ele><time>2026-04-19T10:00:34Z</time></trkpt><trkpt lat="44.40845105236076" lon="7.71652222731867"><ele>410.0</ele><time>2026-04-19T10:00:35Z</time></trkpt><trkpt lat="44.408533613919204" lon="7.716586279067865"><ele>410.0</ele><time>2026-04-19T10:00:36Z</time></trkpt><trkpt lat="44.40864553920085" lon="7.716636740703114"><ele>410.0</ele><time>2026-04-19T10:00:37Z</time></trkpt><trkpt lat="44.40876364944999" lon="7.716722711786734"><ele>410.0</ele><time>2026-04-19T10:00:38Z</time></trkpt><trkpt lat="44.40889455927136" lon="7.7168101394035435"><ele>408.66666666666663</ele><time>2026-04-19T10:00:39Z</time></trkpt><trkpt lat="44.40901497442785" lon="7.7169300879788105"><ele>407.33333333333337</ele><time>2026-04-19T10:00:40Z</time></trkpt><trkpt lat="44.409125935951224" lon="7.717084753468696"><ele>406.0</ele><time>2026-04-19T10:00:41Z</time></trkpt><trkpt lat="44.40922015450498" lon="7.717286352092149"><ele>406.0</ele><time>2026-04-19T10:00:42Z</time></trkpt><trkpt lat="44.4093182891106" lon="7.717500847964115"><ele>406.0</ele><time>2026-04-19T10:00:43Z</time></trkpt><trkpt lat="44.409420643405454" lon="7.717724326149267"><ele>406.0</ele><time>2026-04-19T10:00:44Z</time></trkpt><trkpt lat="44.40952246272095" lon="7.717941530379345"><ele>406.33333333333337</ele><time>2026-04-19T10:00:45Z</time></trkpt><trkpt lat="44.40961595558043" lon="7.718142053263141"><ele>406.66666666666663</ele><time>2026-04-19T10:00:46Z</time></trkpt><trkpt lat="44.40970077019803" lon="7.718329976158493"><ele>407.0</ele><time>2026-04-19T10:00:47Z</time></trkpt><trkpt lat="44.409772658714374" lon="7.718487443477859"><ele>408.40000000000003</ele><time>2026-04-19T10:00:48Z</time></trkpt><trkpt lat="44.40984300613023" lon="7.718613320962392"><ele>409.8</ele><time>2026-04-19T10:00:49Z</time></trkpt><trkpt lat="44.40992616432683" lon="7.718700603504123"><ele>411.2</ele><time>2026-04-19T10:00:50Z</time></trkpt><trkpt lat="44.410025940806186" lon="7.7187374478179915"><ele>412.6</ele><time>2026-04-19T10:00:51Z</time></trkpt><trkpt lat="44.41012192214175" lon="7.7187374872173145"><ele>414.0</ele><time>2026-04-19T10:00:52Z</time></trkpt><trkpt lat="44.41020888902172" lon="7.718731651741484"><ele>414.0</ele><time>2026-04-19T10:00:53Z</time></trkpt><trkpt lat="44.41027334732808" lon="7.718755330063509"><ele>414.0</ele><time>2026-04-19T10:00:54Z</time></trkpt><trkpt lat="44.410311961351525" lon="7.718886791252375"><ele>414.0</ele><time>2026-04-19T10:00:56Z</time></trkpt><trkpt lat="44.41022429868145" lon="7.719002605632956"><ele>414.0</ele><time>2026-04-19T10:00:58Z</time></trkpt><trkpt lat="44.41015832241726" lon="7.718951231209358"><ele>414.0</ele><time>2026-04-19T10:00:59Z</time></trkpt><trkpt lat="44.41007513998267" lon="7.718930978759345"><ele>414.0</ele><time>2026-04-19T10:01:00Z</time></trkpt><trkpt lat="44.4099694801637" lon="7.718925713001654"><ele>414.0</ele><time>2026-04-19T10:01:01Z</time></trkpt><trkpt lat="44.40984854466999" lon="7.718878841903031"><ele>414.0</ele><time>2026-04-19T10:01:02Z</time></trkpt><trkpt lat="44.4097223651655" lon="7.718846655323369"><ele>414.0</ele><time>2026-04-19T10:01:03Z</time></trkpt><trkpt lat="44.409617564960804" lon="7.718823954190999"><ele>414.0</ele><time>2026-04-19T10:01:04Z</time></trkpt><trkpt lat="44.40953298733845" lon="7.718819011067252"><ele>414.0</ele><time>2026-04-19T10:01:05Z</time></trkpt><trkpt lat="44.4094611077284" lon="7.718855751780097"><ele>414.0</ele><time>2026-04-19T10:01:06Z</time></trkpt><trkpt lat="44.40941971353829" lon="7.718936457886301"><ele>414.0</ele><time>2026-04-19T10:01:07Z</time></trkpt><trkpt lat="44.40941878352395" lon="7.719034219519203"><ele>414.0</ele><time>2026-04-19T10:01:08Z</time></trkpt><trkpt lat="44.40945448389802" lon="7.719142514811385"><ele>414.0</ele><time>2026-04-19T10:01:09Z</time></trkpt><trkpt lat="44.40952274865808" lon="7.719243755315006"><ele>414.0</ele><time>2026-04-19T10:01:10Z</time></trkpt><trkpt lat="44.40959513205493" lon="7.719358938503416"><ele>414.0</ele><time>2026-04-19T10:01:11Z</time></trkpt><trkpt lat="44.40964926583625" lon="7.719515088584813"><ele>415.0</ele><time>2026-04-19T10:01:12Z</time></trkpt><trkpt lat="44.40968643694836" lon="7.719705138386172"><ele>416.0</ele><time>2026-04-19T10:01:13Z</time></trkpt><trkpt lat="44.40972654886542" lon="7.719903254578883"><ele>417.0</ele><time>2026-04-19T10:01:14Z</time></trkpt><trkpt lat="44.40977578641274" lon="7.720118421718664"><ele>418.0</ele><time>2026-04-19T10:01:15Z</time></trkpt><trkpt lat="44.409824989297405" lon="7.720337875969629"><ele>418.33333333333337</ele><time>2026-04-19T10:01:16Z</time></trkpt><trkpt lat="44.40988013920373" lon="7.720557822635338"><ele>418.66666666666663</ele><time>2026-04-19T10:01:17Z</time></trkpt><trkpt lat="44.409928252383324" lon="7.7207576345278826"><ele>419.0</ele><time>2026-04-19T10:01:18Z</time></trkpt><trkpt lat="44.40995213866851" lon="7.720947624135181"><ele>419.6</ele><time>2026-04-19T10:01:19Z</time></trkpt><trkpt lat="44.40993814290617" lon="7.7211119384821245"><ele>420.2</ele><time>2026-04-19T10:01:20Z</time></trkpt><trkpt lat="44.409895790066" lon="7.721248291600712"><ele>420.8</ele><time>2026-04-19T10:01:21Z</time></trkpt><trkpt lat="44.40984281943549" lon="7.72136173975986"><ele>421.40000000000003</ele><time>2026-04-19T10:01:22Z</time></trkpt><trkpt lat="44.40977176367025" lon="7.721458771691051"><ele>422.0</ele><time>2026-04-19T10:01:23Z</time></trkpt><trkpt lat="44.40968634800739" lon="7.72156471434538"><ele>423.0</ele><time>2026-04-19T10:01:24Z</time></trkpt><trkpt lat="44.40959951213687" lon="7.721674736511218"><ele>424.0</ele><time>2026-04-19T10:01:25Z</time></trkpt><trkpt lat="44.40951424912747" lon="7.721781681521642"><ele>425.00000000000006</ele><time>2026-04-19T10:01:26Z</time></trkpt><trkpt lat="44.40943269777856" lon="7.72188072930821"><ele>426.0</ele><time>2026-04-19T10:01:27Z</time></trkpt><trkpt lat="44.40936414020734" lon="7.72196618890525"><ele>427.0</ele><time>2026-04-19T10:01:28Z</time></trkpt><trkpt lat="44.409314999366856" lon="7.722030726543681"><ele>427.00000000000006</ele><time>2026-04-19T10:01:29Z</time></trkpt><trkpt lat="44.409264087773124" lon="7.722102912212332"><ele>427.0</ele><time>2026-04-19T10:01:31Z</time></trkpt><trkpt lat="44.409214963863356" lon="7.722167116465222"><ele>427.0</ele><time>2026-04-19T10:01:35Z</time></trkpt><trkpt lat="44.40927312676698" lon="7.722115857828236"><ele>427.0</ele><time>2026-04-19T10:01:45Z</time></trkpt><trkpt lat="44.409355708691976" lon="7.721964450894037"><ele>427.00000000000006</ele><time>2026-04-19T10:01:47Z</time></trkpt><trkpt lat="44.4094451034775" lon="7.7219024282286055"><ele>427.0</ele><time>2026-04-19T10:01:48Z</time></trkpt><trkpt lat="44.409520204788166" lon="7.721817494429583"><ele>427.20000000000005</ele><time>2026-04-19T10:01:49Z</time></trkpt><trkpt lat="44.40960481543234" lon="7.7217160287646704"><ele>427.40000000000003</ele><time>2026-04-19T10:01:50Z</time></trkpt><trkpt lat="44.409682774949204" lon="7.721619279261456"><ele>427.59999999999997</ele><time>2026-04-19T10:01:51Z</time></trkpt><trkpt lat="44.409748394801845" lon="7.721519326497625"><ele>427.79999999999995</ele><time>2026-04-19T10:01:52Z</time></trkpt><trkpt lat="44.40980212973223" lon="7.721422127614311"><ele>428.0</ele><time>2026-04-19T10:01:53Z</time></trkpt><trkpt lat="44.40985036280577" lon="7.721332872509766"><ele>426.99999999999994</ele><time>2026-04-19T10:01:54Z</time></trkpt><trkpt lat="44.409883573306594" lon="7.7212527828073245"><ele>426.0</ele><time>2026-04-19T10:01:55Z</time></trkpt><trkpt lat="44.409931590758404" lon="7.721153270602612"><ele>425.0</ele><time>2026-04-19T10:01:57Z</time></trkpt><trkpt lat="44.4100276923856" lon="7.7211465705883375"><ele>424.0</ele><time>2026-04-19T10:02:22Z</time></trkpt><trkpt lat="44.410107123157744" lon="7.721241548462468"><ele>422.99999999999994</ele><time>2026-04-19T10:02:24Z</time></trkpt><trkpt lat="44.41017724097408" lon="7.721282542259111"><ele>422.0</ele><time>2026-04-19T10:02:25Z</time></trkpt><trkpt lat="44.41025638284739" lon="7.721367620161794"><ele>422.0</ele><time>2026-04-19T10:02:26Z</time></trkpt><trkpt lat="44.410352239447406" lon="7.721463137041795"><ele>422.0</ele><time>2026-04-19T10:02:27Z</time></trkpt><trkpt lat="44.41046010251961" lon="7.721568681021383"><ele>422.0</ele><time>2026-04-19T10:02:28Z</time></trkpt><trkpt lat="44.4105804262667" lon="7.721685812637228"><ele>422.0</ele><time>2026-04-19T10:02:29Z</time></trkpt><trkpt lat="44.41070690825337" lon="7.721801611878818"><ele>422.75</ele><time>2026-04-19T10:02:30Z</time></trkpt><trkpt lat="44.41082262815356" lon="7.721909523797667"><ele>423.5</ele><time>2026-04-19T10:02:31Z</time></trkpt><trkpt lat="44.41093471339169" lon="7.722002133456546"><ele>424.25</ele><time>2026-04-19T10:02:32Z</time></trkpt><trkpt lat="44.41105952511199" lon="7.722070643463062"><ele>425.0</ele><time>2026-04-19T10:02:33Z</time></trkpt><trkpt lat="44.41120189368783" lon="7.7221192735390884"><ele>424.3333333333333</ele><time>2026-04-19T10:02:34Z</time></trkpt><trkpt lat="44.41135301981793" lon="7.722164895868976"><ele>423.66666666666663</ele><time>2026-04-19T10:02:35Z</time></trkpt><trkpt lat="44.41151314031503" lon="7.722211307676281"><ele>423.0</ele><time>2026-04-19T10:02:36Z</time></trkpt><trkpt lat="44.41167564200069" lon="7.722255003786315"><ele>423.0</ele><time>2026-04-19T10:02:37Z</time></trkpt><trkpt lat="44.4118318181101" lon="7.7222916969484725"><ele>423.0</ele><time>2026-04-19T10:02:38Z</time></trkpt><trkpt lat="44.411976866504844" lon="7.722316731887013"><ele>423.0</ele><time>2026-04-19T10:02:39Z</time></trkpt><trkpt lat="44.41211729312244" lon="7.722332513757401"><ele>423.0</ele><time>2026-04-19T10:02:40Z</time></trkpt><trkpt lat="44.41225101448095" lon="7.722343651878666"><ele>423.0</ele><time>2026-04-19T10:02:41Z</time></trkpt><trkpt lat="44.412379887881244" lon="7.72235131896359"><ele>423.0</ele><time>2026-04-19T10:02:42Z</time></trkpt><trkpt lat="44.412506732612584" lon="7.722354508928838"><ele>423.0</ele><time>2026-04-19T10:02:43Z</time></trkpt><trkpt lat="44.41262992379318" lon="7.722354267585544"><ele>423.0</ele><time>2026-04-19T10:02:44Z</time></trkpt><trkpt lat="44.41275032431008" lon="7.722357821682723"><ele>423.0</ele><time>2026-04-19T10:02:45Z</time></trkpt><trkpt lat="44.41286733777895" lon="7.722365163171038"><ele>423.0</ele><time>2026-04-19T10:02:46Z</time></trkpt><trkpt lat="44.41298271313688" lon="7.722372720243691"><ele>423.0</ele><time>2026-04-19T10:02:47Z</time></trkpt><trkpt lat="44.41309602049376" lon="7.722391114597988"><ele>423.0</ele><time>2026-04-19T10:02:48Z</time></trkpt><trkpt lat="44.41319921534512" lon="7.722434129376886"><ele>422.79999999999995</ele><time>2026-04-19T10:02:49Z</time></trkpt><trkpt lat="44.41329520462495" lon="7.722489254139648"><ele>422.6</ele><time>2026-04-19T10:02:50Z</time></trkpt><trkpt lat="44.413379083191664" lon="7.7225576324619745"><ele>422.4</ele><time>2026-04-19T10:02:51Z</time></trkpt><trkpt lat="44.41342216676504" lon="7.722712124048042"><ele>422.20000000000005</ele><time>2026-04-19T10:02:52Z</time></trkpt><trkpt lat="44.413499284508426" lon="7.722768524898825"><ele>422.0</ele><time>2026-04-19T10:02:53Z</time></trkpt><trkpt lat="44.41360497443771" lon="7.722823584689083"><ele>421.8333333333333</ele><time>2026-04-19T10:02:55Z</time></trkpt><trkpt lat="44.41367648035915" lon="7.72283745676242"><ele>421.66666666666663</ele><time>2026-04-19T10:02:56Z</time></trkpt><trkpt lat="44.41374299916289" lon="7.722879204709973"><ele>421.5</ele><time>2026-04-19T10:02:57Z</time></trkpt><trkpt lat="44.41379363118015" lon="7.722986311834557"><ele>421.33333333333337</ele><time>2026-04-19T10:02:58Z</time></trkpt><trkpt lat="44.413877788111535" lon="7.723068845699704"><ele>421.1666666666667</ele><time>2026-04-19T10:02:59Z</time></trkpt><trkpt lat="44.4139509734221" lon="7.723174469139816"><ele>421.0</ele><time>2026-04-19T10:03:00Z</time></trkpt><trkpt lat="44.41402654917427" lon="7.723276984542789"><ele>421.00000000000006</ele><time>2026-04-19T10:03:01Z</time></trkpt><trkpt lat="44.414099531980305" lon="7.723366686126165"><ele>421.0</ele><time>2026-04-19T10:03:02Z</time></trkpt><trkpt lat="44.414172126047006" lon="7.723447019308806"><ele>421.0</ele><time>2026-04-19T10:03:03Z</time></trkpt><trkpt lat="44.41423354618964" lon="7.723530348473183"><ele>421.0</ele><time>2026-04-19T10:03:04Z</time></trkpt><trkpt lat="44.41429695462539" lon="7.723610590488512"><ele>421.00000000000006</ele><time>2026-04-19T10:03:05Z</time></trkpt><trkpt lat="44.41436683410061" lon="7.723685769558144"><ele>421.0</ele><time>2026-04-19T10:03:06Z</time></trkpt><trkpt lat="44.414433583769444" lon="7.723754949233989"><ele>421.00000000000006</ele><time>2026-04-19T10:03:07Z</time></trkpt><trkpt lat="44.41449995361135" lon="7.723823019707458"><ele>421.0</ele><time>2026-04-19T10:03:08Z</time></trkpt><trkpt lat="44.41456107894178" lon="7.723888530961851"><ele>421.0</ele><time>2026-04-19T10:03:09Z</time></trkpt><trkpt lat="44.4146202481591" lon="7.723963962243303"><ele>421.0</ele><time>2026-04-19T10:03:10Z</time></trkpt><trkpt lat="44.41467662319472" lon="7.724049032515358"><ele>421.00000000000006</ele><time>2026-04-19T10:03:11Z</time></trkpt><trkpt lat="44.414733280862656" lon="7.724127047596492"><ele>421.0</ele><time>2026-04-19T10:03:12Z</time></trkpt><trkpt lat="44.41479726233207" lon="7.724199568845856"><ele>420.6</ele><time>2026-04-19T10:03:13Z</time></trkpt><trkpt lat="44.41488003617236" lon="7.724239223005866"><ele>420.20000000000005</ele><time>2026-04-19T10:03:14Z</time></trkpt><trkpt lat="44.41497504531331" lon="7.724244550034623"><ele>419.79999999999995</ele><time>2026-04-19T10:03:15Z</time></trkpt><trkpt lat="44.41507074897785" lon="7.724273692968999"><ele>419.4</ele><time>2026-04-19T10:03:16Z</time></trkpt><trkpt lat="44.41513288524868" lon="7.724383764948669"><ele>419.0</ele><time>2026-04-19T10:03:17Z</time></trkpt><trkpt lat="44.41518818308066" lon="7.7245043161408145"><ele>419.0</ele><time>2026-04-19T10:03:18Z</time></trkpt><trkpt lat="44.41525969754003" lon="7.724653926956514"><ele>419.0</ele><time>2026-04-19T10:03:19Z</time></trkpt><trkpt lat="44.41534602272172" lon="7.7248146504030375"><ele>419.0</ele><time>2026-04-19T10:03:20Z</time></trkpt><trkpt lat="44.415429940579095" lon="7.724996816943124"><ele>419.0</ele><time>2026-04-19T10:03:21Z</time></trkpt><trkpt lat="44.41552157904384" lon="7.725179556301115"><ele>419.0</ele><time>2026-04-19T10:03:22Z</time></trkpt><trkpt lat="44.41561394806204" lon="7.7253604914331175"><ele>419.0</ele><time>2026-04-19T10:03:23Z</time></trkpt><trkpt lat="44.41568746344496" lon="7.7255367812752915"><ele>419.0</ele><time>2026-04-19T10:03:24Z</time></trkpt><trkpt lat="44.415750572462215" lon="7.725707102592677"><ele>419.0</ele><time>2026-04-19T10:03:25Z</time></trkpt><trkpt lat="44.415776744846056" lon="7.725887605297859"><ele>419.0</ele><time>2026-04-19T10:03:26Z</time></trkpt><trkpt lat="44.41578650231458" lon="7.726062340444147"><ele>419.0</ele><time>2026-04-19T10:03:27Z</time></trkpt><trkpt lat="44.415785756677195" lon="7.7262351807116465"><ele>419.0</ele><time>2026-04-19T10:03:28Z</time></trkpt><trkpt lat="44.415811118299864" lon="7.726407751516206"><ele>419.0</ele><time>2026-04-19T10:03:29Z</time></trkpt><trkpt lat="44.41584978813486" lon="7.726583629242904"><ele>419.0</ele><time>2026-04-19T10:03:30Z</time></trkpt><trkpt lat="44.415920046336936" lon="7.726773586261063"><ele>419.0</ele><time>2026-04-19T10:03:31Z</time></trkpt><trkpt lat="44.41598509207681" lon="7.726986519008204"><ele>419.0</ele><time>2026-04-19T10:03:32Z</time></trkpt><trkpt lat="44.41600905929652" lon="7.727217359147117"><ele>419.5</ele><time>2026-04-19T10:03:33Z</time></trkpt><trkpt lat="44.41606163678731" lon="7.727416360372304"><ele>420.0</ele><time>2026-04-19T10:03:34Z</time></trkpt><trkpt lat="44.41611196431609" lon="7.727597821042696"><ele>420.5</ele><time>2026-04-19T10:03:35Z</time></trkpt><trkpt lat="44.41615024326854" lon="7.727761255693806"><ele>421.0</ele><time>2026-04-19T10:03:36Z</time></trkpt><trkpt lat="44.416127625038094" lon="7.727916174619572"><ele>421.00000000000006</ele><time>2026-04-19T10:03:37Z</time></trkpt><trkpt lat="44.416135808933085" lon="7.728024517956624"><ele>421.0</ele><time>2026-04-19T10:03:38Z</time></trkpt><trkpt lat="44.41617387227253" lon="7.728116281668506"><ele>421.0</ele><time>2026-04-19T10:03:39Z</time></trkpt><trkpt lat="44.416226811870835" lon="7.728190410419113"><ele>421.0</ele><time>2026-04-19T10:03:40Z</time></trkpt><trkpt lat="44.416311287152645" lon="7.728257619339905"><ele>421.00000000000006</ele><time>2026-04-19T10:03:41Z</time></trkpt><trkpt lat="44.416401764101636" lon="7.728342934721801"><ele>421.0</ele><time>2026-04-19T10:03:42Z</time></trkpt><trkpt lat="44.41647899766119" lon="7.728457980359901"><ele>420.25</ele><time>2026-04-19T10:03:43Z</time></trkpt><trkpt lat="44.41653061791623" lon="7.7286118846001335"><ele>419.5</ele><time>2026-04-19T10:03:44Z</time></trkpt><trkpt lat="44.416613861982555" lon="7.728771863642471"><ele>418.75</ele><time>2026-04-19T10:03:45Z</time></trkpt><trkpt lat="44.416660866265765" lon="7.728964616595172"><ele>418.0</ele><time>2026-04-19T10:03:46Z</time></trkpt><trkpt lat="44.41672267538618" lon="7.72915109977167"><ele>418.0</ele><time>2026-04-19T10:03:47Z</time></trkpt><trkpt lat="44.416766064545264" lon="7.729336696157394"><ele>418.0</ele><time>2026-04-19T10:03:48Z</time></trkpt><trkpt lat="44.41681511047616" lon="7.729507002165824"><ele>418.0</ele><time>2026-04-19T10:03:49Z</time></trkpt><trkpt lat="44.416877997628454" lon="7.7296514316778975"><ele>418.0</ele><time>2026-04-19T10:03:50Z</time></trkpt><trkpt lat="44.41695686198469" lon="7.729773038791267"><ele>418.0</ele><time>2026-04-19T10:03:51Z</time></trkpt><trkpt lat="44.41705138074404" lon="7.729863354505277"><ele>418.0</ele><time>2026-04-19T10:03:52Z</time></trkpt><trkpt lat="44.41714562514653" lon="7.729949144184893"><ele>418.0</ele><time>2026-04-19T10:03:53Z</time></trkpt><trkpt lat="44.41722770815283" lon="7.7300369254839785"><ele>418.0</ele><time>2026-04-19T10:03:54Z</time></trkpt><trkpt lat="44.417294244947776" lon="7.730142755925765"><ele>418.0</ele><time>2026-04-19T10:03:55Z</time></trkpt><trkpt lat="44.417321347513045" lon="7.730281685038962"><ele>417.5</ele><time>2026-04-19T10:03:56Z</time></trkpt><trkpt lat="44.41735585303453" lon="7.730436433320273"><ele>417.0</ele><time>2026-04-19T10:03:57Z</time></trkpt><trkpt lat="44.41738973410626" lon="7.730621920139867"><ele>416.5</ele><time>2026-04-19T10:03:58Z</time></trkpt><trkpt lat="44.41744149513535" lon="7.730825432682942"><ele>416.0</ele><time>2026-04-19T10:03:59Z</time></trkpt><trkpt lat="44.417478437238266" lon="7.731040981365289"><ele>415.3333333333333</ele><time>2026-04-19T10:04:00Z</time></trkpt><trkpt lat="44.41751876655396" lon="7.731263961660831"><ele>414.66666666666663</ele><time>2026-04-19T10:04:01Z</time></trkpt><trkpt lat="44.41756063897827" lon="7.731488059557939"><ele>414.0</ele><time>2026-04-19T10:04:02Z</time></trkpt><trkpt lat="44.417603357700486" lon="7.731715072485353"><ele>415.0</ele><time>2026-04-19T10:04:03Z</time></trkpt><trkpt lat="44.41764535279608" lon="7.731946172620084"><ele>416.0</ele><time>2026-04-19T10:04:04Z</time></trkpt><trkpt lat="44.41768951443459" lon="7.7321804874428635"><ele>417.0</ele><time>2026-04-19T10:04:05Z</time></trkpt><trkpt lat="44.417733070791094" lon="7.732410968623792"><ele>417.0</ele><time>2026-04-19T10:04:06Z</time></trkpt><trkpt lat="44.41777793718559" lon="7.732638556564039"><ele>417.0</ele><time>2026-04-19T10:04:07Z</time></trkpt><trkpt lat="44.417828081238525" lon="7.732853445251467"><ele>417.0</ele><time>2026-04-19T10:04:08Z</time></trkpt><trkpt lat="44.41787439609983" lon="7.733063829256941"><ele>417.0</ele><time>2026-04-19T10:04:09Z</time></trkpt><trkpt lat="44.41791400911627" lon="7.733269599234007"><ele>417.0</ele><time>2026-04-19T10:04:10Z</time></trkpt><trkpt lat="44.41794985917191" lon="7.733470753659411"><ele>417.0</ele><time>2026-04-19T10:04:11Z</time></trkpt><trkpt lat="44.417988062439726" lon="7.733648800858196"><ele>417.0</ele><time>2026-04-19T10:04:12Z</time></trkpt><trkpt lat="44.41803169984025" lon="7.733806527751632"><ele>416.75</ele><time>2026-04-19T10:04:13Z</time></trkpt><trkpt lat="44.41808479748962" lon="7.733955507278424"><ele>416.5</ele><time>2026-04-19T10:04:14Z</time></trkpt><trkpt lat="44.41814591916791" lon="7.734104715274612"><ele>416.25</ele><time>2026-04-19T10:04:15Z</time></trkpt><trkpt lat="44.41822060794817" lon="7.734255298530647"><ele>416.0</ele><time>2026-04-19T10:04:16Z</time></trkpt><trkpt lat="44.418303221267706" lon="7.734412368959417"><ele>416.0</ele><time>2026-04-19T10:04:17Z</time></trkpt><trkpt lat="44.418374260066344" lon="7.734580341328417"><ele>416.0</ele><time>2026-04-19T10:04:18Z</time></trkpt><trkpt lat="44.41843627772995" lon="7.734760509391275"><ele>416.0</ele><time>2026-04-19T10:04:19Z</time></trkpt><trkpt lat="44.41850417222629" lon="7.734944830515993"><ele>416.0</ele><time>2026-04-19T10:04:20Z</time></trkpt><trkpt lat="44.41856799846791" lon="7.735139246596"><ele>415.3333333333333</ele><time>2026-04-19T10:04:21Z</time></trkpt><trkpt lat="44.41863380037767" lon="7.735343894492155"><ele>414.66666666666663</ele><time>2026-04-19T10:04:22Z</time></trkpt><trkpt lat="44.418701888899385" lon="7.735550946405822"><ele>414.0</ele><time>2026-04-19T10:04:23Z</time></trkpt><trkpt lat="44.41877411071568" lon="7.735750128729271"><ele>414.0</ele><time>2026-04-19T10:04:24Z</time></trkpt><trkpt lat="44.418843664311744" lon="7.735949435007987"><ele>414.0</ele><time>2026-04-19T10:04:25Z</time></trkpt><trkpt lat="44.418909754962826" lon="7.736139325798288"><ele>414.0</ele><time>2026-04-19T10:04:26Z</time></trkpt><trkpt lat="44.41897548841504" lon="7.736314669317606"><ele>414.0</ele><time>2026-04-19T10:04:27Z</time></trkpt><trkpt lat="44.41903637991563" lon="7.736486171054158"><ele>414.0</ele><time>2026-04-19T10:04:28Z</time></trkpt><trkpt lat="44.41908078801787" lon="7.736657151948695"><ele>414.0</ele><time>2026-04-19T10:04:29Z</time></trkpt><trkpt lat="44.41910122844042" lon="7.736838291776676"><ele>414.0</ele><time>2026-04-19T10:04:30Z</time></trkpt><trkpt lat="44.41910610233303" lon="7.737029085744895"><ele>414.0</ele><time>2026-04-19T10:04:31Z</time></trkpt><trkpt lat="44.41910906135612" lon="7.737230910353973"><ele>414.0</ele><time>2026-04-19T10:04:32Z</time></trkpt><trkpt lat="44.41911248012108" lon="7.737442886939773"><ele>414.0</ele><time>2026-04-19T10:04:33Z</time></trkpt><trkpt lat="44.419113903451844" lon="7.7376609906023"><ele>413.5</ele><time>2026-04-19T10:04:34Z</time></trkpt><trkpt lat="44.41911026545799" lon="7.737878244278595"><ele>413.0</ele><time>2026-04-19T10:04:35Z</time></trkpt><trkpt lat="44.41910585656143" lon="7.738087100567822"><ele>412.5</ele><time>2026-04-19T10:04:36Z</time></trkpt><trkpt lat="44.4191081277896" lon="7.738286661348648"><ele>412.0</ele><time>2026-04-19T10:04:37Z</time></trkpt><trkpt lat="44.41911248951334" lon="7.738482440104079"><ele>412.0</ele><time>2026-04-19T10:04:38Z</time></trkpt><trkpt lat="44.41912006640549" lon="7.738670574718188"><ele>412.0</ele><time>2026-04-19T10:04:39Z</time></trkpt><trkpt lat="44.41913055097996" lon="7.738852917219413"><ele>412.0</ele><time>2026-04-19T10:04:40Z</time></trkpt><trkpt lat="44.419142093581975" lon="7.739030302740971"><ele>412.0</ele><time>2026-04-19T10:04:41Z</time></trkpt><trkpt lat="44.41915272198272" lon="7.73920301031201"><ele>412.0</ele><time>2026-04-19T10:04:42Z</time></trkpt><trkpt lat="44.41915923973503" lon="7.739370026578245"><ele>412.0</ele><time>2026-04-19T10:04:43Z</time></trkpt><trkpt lat="44.419162822813675" lon="7.739532169624807"><ele>412.0</ele><time>2026-04-19T10:04:44Z</time></trkpt><trkpt lat="44.41914273855723" lon="7.739686192979022"><ele>412.0</ele><time>2026-04-19T10:04:45Z</time></trkpt><trkpt lat="44.41912296234551" lon="7.739831012094474"><ele>412.0</ele><time>2026-04-19T10:04:46Z</time></trkpt><trkpt lat="44.41908676855412" lon="7.739963865914228"><ele>412.0</ele><time>2026-04-19T10:04:46.999Z</time></trkpt><trkpt lat="44.41903565549735" lon="7.7400836658260275"><ele>412.0</ele><time>2026-04-19T10:04:47.999Z</time></trkpt><trkpt lat="44.41898445244625" lon="7.740197803995243"><ele>412.0</ele><time>2026-04-19T10:04:48.999Z</time></trkpt><trkpt lat="44.41889115588648" lon="7.740262120848235"><ele>412.0</ele><time>2026-04-19T10:04:49.999Z</time></trkpt><trkpt lat="44.418783411460964" lon="7.740330883088113"><ele>411.75</ele><time>2026-04-19T10:04:50.999Z</time></trkpt><trkpt lat="44.41866461131373" lon="7.740426932199615"><ele>411.5</ele><time>2026-04-19T10:04:51.999Z</time></trkpt><trkpt lat="44.41853411284179" lon="7.740532439244478"><ele>411.25</ele><time>2026-04-19T10:04:52.999Z</time></trkpt><trkpt lat="44.41839749444289" lon="7.740643893168519"><ele>411.0</ele><time>2026-04-19T10:04:53.999Z</time></trkpt><trkpt lat="44.41826082088544" lon="7.7407736845799056"><ele>411.0</ele><time>2026-04-19T10:04:54.999Z</time></trkpt><trkpt lat="44.41811348233458" lon="7.740887724833098"><ele>411.0</ele><time>2026-04-19T10:04:55.999Z</time></trkpt><trkpt lat="44.41797632567387" lon="7.741000366615633"><ele>411.0</ele><time>2026-04-19T10:04:56.999Z</time></trkpt><trkpt lat="44.4178358418256" lon="7.741070999897316"><ele>413.0</ele><time>2026-04-19T10:04:57.999Z</time></trkpt><trkpt lat="44.41771419827528" lon="7.741152731329405"><ele>415.0</ele><time>2026-04-19T10:04:58.999Z</time></trkpt><trkpt lat="44.417611027044515" lon="7.7412533629799025"><ele>417.0</ele><time>2026-04-19T10:04:59.999Z</time></trkpt><trkpt lat="44.41751779090997" lon="7.741327947841631"><ele>419.0</ele><time>2026-04-19T10:05:00.999Z</time></trkpt><trkpt lat="44.41743864840809" lon="7.7414121728140834"><ele>419.0</ele><time>2026-04-19T10:05:01.999Z</time></trkpt><trkpt lat="44.41737191289993" lon="7.741490852261615"><ele>419.0</ele><time>2026-04-19T10:05:02.999Z</time></trkpt><trkpt lat="44.41729802467478" lon="7.741548300954229"><ele>419.0</ele><time>2026-04-19T10:05:03.999Z</time></trkpt><trkpt lat="44.417244850814896" lon="7.741694161565701"><ele>419.0</ele><time>2026-04-19T10:05:04.999Z</time></trkpt><trkpt lat="44.4172160960482" lon="7.741875989601271"><ele>419.0</ele><time>2026-04-19T10:05:05.999Z</time></trkpt><trkpt lat="44.41718190700385" lon="7.742065431506375"><ele>418.66666666666663</ele><time>2026-04-19T10:05:06.999Z</time></trkpt><trkpt lat="44.41714945779653" lon="7.7422715811980884"><ele>418.33333333333337</ele><time>2026-04-19T10:05:07.999Z</time></trkpt><trkpt lat="44.41712546053649" lon="7.7424924667823865"><ele>418.0</ele><time>2026-04-19T10:05:08.999Z</time></trkpt><trkpt lat="44.41708954241848" lon="7.742724625565885"><ele>418.0</ele><time>2026-04-19T10:05:09.999Z</time></trkpt><trkpt lat="44.417055513204446" lon="7.742960789393821"><ele>418.0</ele><time>2026-04-19T10:05:10.999Z</time></trkpt><trkpt lat="44.41701648707005" lon="7.743186028482083"><ele>418.0</ele><time>2026-04-19T10:05:11.999Z</time></trkpt><trkpt lat="44.417010993027446" lon="7.743409236795928"><ele>418.0</ele><time>2026-04-19T10:05:12.999Z</time></trkpt><trkpt lat="44.41696542536499" lon="7.743618557041441"><ele>418.0</ele><time>2026-04-19T10:05:13.999Z</time></trkpt><trkpt lat="44.41691620576019" lon="7.743814838379684"><ele>418.0</ele><time>2026-04-19T10:05:14.999Z</time></trkpt><trkpt lat="44.416854386307385" lon="7.744005493278654"><ele>418.0</ele><time>2026-04-19T10:05:15.999Z</time></trkpt><trkpt lat="44.41678504026427" lon="7.744190379018408"><ele>418.0</ele><time>2026-04-19T10:05:16.999Z</time></trkpt><trkpt lat="44.41673049459103" lon="7.744380252294885"><ele>418.0</ele><time>2026-04-19T10:05:17.999Z</time></trkpt><trkpt lat="44.416663027188086" lon="7.744545409468309"><ele>418.0</ele><time>2026-04-19T10:05:18.999Z</time></trkpt><trkpt lat="44.416608874134354" lon="7.744692283362507"><ele>417.79999999999995</ele><time>2026-04-19T10:05:19.999Z</time></trkpt><trkpt lat="44.41657159215464" lon="7.744833220242394"><ele>417.6</ele><time>2026-04-19T10:05:20.999Z</time></trkpt><trkpt lat="44.416558141689634" lon="7.744980304608249"><ele>417.4</ele><time>2026-04-19T10:05:21.999Z</time></trkpt><trkpt lat="44.416578262030235" lon="7.745132392301054"><ele>417.20000000000005</ele><time>2026-04-19T10:05:22.999Z</time></trkpt><trkpt lat="44.416625237727956" lon="7.745292469950745"><ele>417.0</ele><time>2026-04-19T10:05:23.999Z</time></trkpt><trkpt lat="44.41670163217745" lon="7.745456223558687"><ele>416.66666666666663</ele><time>2026-04-19T10:05:24.999Z</time></trkpt><trkpt lat="44.41678237108119" lon="7.745630102623724"><ele>416.3333333333333</ele><time>2026-04-19T10:05:25.999Z</time></trkpt><trkpt lat="44.41686073438098" lon="7.745816929283207"><ele>416.0</ele><time>2026-04-19T10:05:26.999Z</time></trkpt><trkpt lat="44.416943418098874" lon="7.746012377599676"><ele>415.66666666666663</ele><time>2026-04-19T10:05:27.999Z</time></trkpt><trkpt lat="44.417030813128875" lon="7.7462061186443005"><ele>415.33333333333337</ele><time>2026-04-19T10:05:28.999Z</time></trkpt><trkpt lat="44.417103473606716" lon="7.746415209272339"><ele>415.0</ele><time>2026-04-19T10:05:29.999Z</time></trkpt><trkpt lat="44.41719854662018" lon="7.746599019432483"><ele>414.75</ele><time>2026-04-19T10:05:30.999Z</time></trkpt><trkpt lat="44.417270732978885" lon="7.746787851801177"><ele>414.5</ele><time>2026-04-19T10:05:31.999Z</time></trkpt><trkpt lat="44.41733851058368" lon="7.746967567586097"><ele>414.25</ele><time>2026-04-19T10:05:32.999Z</time></trkpt><trkpt lat="44.41740319880541" lon="7.747141125523972"><ele>414.0</ele><time>2026-04-19T10:05:33.999Z</time></trkpt><trkpt lat="44.41746825683517" lon="7.747300112596802"><ele>414.75</ele><time>2026-04-19T10:05:34.999Z</time></trkpt><trkpt lat="44.41753745974311" lon="7.747449343983911"><ele>415.5</ele><time>2026-04-19T10:05:35.999Z</time></trkpt><trkpt lat="44.417606972430335" lon="7.74758617941632"><ele>416.25</ele><time>2026-04-19T10:05:36.999Z</time></trkpt><trkpt lat="44.41765647220867" lon="7.747731201027268"><ele>417.0</ele><time>2026-04-19T10:05:37.999Z</time></trkpt><trkpt lat="44.41770454374173" lon="7.747856907501486"><ele>417.0</ele><time>2026-04-19T10:05:38.999Z</time></trkpt><trkpt lat="44.41773301873524" lon="7.747969562369708"><ele>417.0</ele><time>2026-04-19T10:05:39.999Z</time></trkpt><trkpt lat="44.41775355864762" lon="7.748080721442506"><ele>417.0</ele><time>2026-04-19T10:05:40.999Z</time></trkpt><trkpt lat="44.41769737782994" lon="7.748181957923525"><ele>417.0</ele><time>2026-04-19T10:05:41.999Z</time></trkpt><trkpt lat="44.41763200516463" lon="7.748278966952309"><ele>417.0</ele><time>2026-04-19T10:05:42.999Z</time></trkpt><trkpt lat="44.41754882544937" lon="7.748395067660538"><ele>417.0</ele><time>2026-04-19T10:05:43.999Z</time></trkpt><trkpt lat="44.41745445521605" lon="7.748520998064131"><ele>417.0</ele><time>2026-04-19T10:05:44.999Z</time></trkpt><trkpt lat="44.41736738002266" lon="7.748674238708639"><ele>417.0</ele><time>2026-04-19T10:05:45.999Z</time></trkpt><trkpt lat="44.417260913177834" lon="7.748800829128175"><ele>417.0</ele><time>2026-04-19T10:05:46.999Z</time></trkpt><trkpt lat="44.417186695503496" lon="7.748958281901687"><ele>416.0</ele><time>2026-04-19T10:05:47.999Z</time></trkpt><trkpt lat="44.41710912615943" lon="7.749082089432839"><ele>415.0</ele><time>2026-04-19T10:05:48.999Z</time></trkpt><trkpt lat="44.41704608756122" lon="7.749191176844295"><ele>414.0</ele><time>2026-04-19T10:05:49.999Z</time></trkpt><trkpt lat="44.416994966587296" lon="7.749304601745333"><ele>413.0</ele><time>2026-04-19T10:05:50.999Z</time></trkpt><trkpt lat="44.416963879342475" lon="7.749433272453657"><ele>412.0</ele><time>2026-04-19T10:05:51.999Z</time></trkpt><trkpt lat="44.416952501942895" lon="7.749570380360979"><ele>411.20000000000005</ele><time>2026-04-19T10:05:52.999Z</time></trkpt><trkpt lat="44.41697177973552" lon="7.749715993711261"><ele>410.4</ele><time>2026-04-19T10:05:53.999Z</time></trkpt><trkpt lat="44.41700728019668" lon="7.749857415886428"><ele>409.6</ele><time>2026-04-19T10:05:54.999Z</time></trkpt><trkpt lat="44.417028765514964" lon="7.749988831017706"><ele>408.79999999999995</ele><time>2026-04-19T10:05:55.999Z</time></trkpt><trkpt lat="44.41702871689684" lon="7.750128161870894"><ele>408.0</ele><time>2026-04-19T10:05:56.999Z</time></trkpt><trkpt lat="44.41700540895749" lon="7.750267450150635"><ele>407.2</ele><time>2026-04-19T10:05:57.999Z</time></trkpt><trkpt lat="44.416956405795055" lon="7.750397626046809"><ele>406.4</ele><time>2026-04-19T10:05:58.999Z</time></trkpt><trkpt lat="44.41687563645919" lon="7.750496589281429"><ele>405.59999999999997</ele><time>2026-04-19T10:05:59.999Z</time></trkpt><trkpt lat="44.41679549229811" lon="7.750607911920895"><ele>404.79999999999995</ele><time>2026-04-19T10:06:00.999Z</time></trkpt><trkpt lat="44.41673397458777" lon="7.750737476233427"><ele>404.0</ele><time>2026-04-19T10:06:02Z</time></trkpt><trkpt lat="44.416662936781634" lon="7.750850190626903"><ele>404.0</ele><time>2026-04-19T10:06:03Z</time></trkpt><trkpt lat="44.41661371866546" lon="7.750978497905545"><ele>404.0</ele><time>2026-04-19T10:06:04Z</time></trkpt><trkpt lat="44.41658611476588" lon="7.75112703835846"><ele>404.0</ele><time>2026-04-19T10:06:05Z</time></trkpt><trkpt lat="44.416578904224075" lon="7.751302450635828"><ele>404.0</ele><time>2026-04-19T10:06:06Z</time></trkpt><trkpt lat="44.41655444266279" lon="7.751494139963532"><ele>403.5</ele><time>2026-04-19T10:06:07Z</time></trkpt><trkpt lat="44.41656144655527" lon="7.751687975232866"><ele>403.0</ele><time>2026-04-19T10:06:08Z</time></trkpt><trkpt lat="44.416596591211174" lon="7.751866756937288"><ele>402.5</ele><time>2026-04-19T10:06:09Z</time></trkpt><trkpt lat="44.41662634101076" lon="7.752044686605657"><ele>402.0</ele><time>2026-04-19T10:06:10Z</time></trkpt><trkpt lat="44.41668121521092" lon="7.752227959757403"><ele>403.75</ele><time>2026-04-19T10:06:11Z</time></trkpt><trkpt lat="44.41673426259002" lon="7.752422688537752"><ele>405.5</ele><time>2026-04-19T10:06:12Z</time></trkpt><trkpt lat="44.416832791146305" lon="7.7525677772715635"><ele>407.25</ele><time>2026-04-19T10:06:13Z</time></trkpt><trkpt lat="44.4169235940063" lon="7.752710199724468"><ele>409.0</ele><time>2026-04-19T10:06:14Z</time></trkpt><trkpt lat="44.417032309330835" lon="7.75284775111817"><ele>409.5</ele><time>2026-04-19T10:06:15Z</time></trkpt><trkpt lat="44.41715898637653" lon="7.7529761776209325"><ele>410.0</ele><time>2026-04-19T10:06:16Z</time></trkpt><trkpt lat="44.4172932714527" lon="7.753090773215354"><ele>410.5</ele><time>2026-04-19T10:06:17Z</time></trkpt><trkpt lat="44.41741333817349" lon="7.7531746692953805"><ele>411.0</ele><time>2026-04-19T10:06:18Z</time></trkpt><trkpt lat="44.417524897768416" lon="7.753242246084895"><ele>411.0</ele><time>2026-04-19T10:06:19Z</time></trkpt><trkpt lat="44.41761539663365" lon="7.753316696437276"><ele>411.0</ele><time>2026-04-19T10:06:20Z</time></trkpt><trkpt lat="44.41768797373037" lon="7.753374874154521"><ele>411.0</ele><time>2026-04-19T10:06:21Z</time></trkpt><trkpt lat="44.41776582935097" lon="7.753443288104597"><ele>411.0</ele><time>2026-04-19T10:06:22Z</time></trkpt><trkpt lat="44.41784656979899" lon="7.753497228048399"><ele>411.0</ele><time>2026-04-19T10:06:23Z</time></trkpt><trkpt lat="44.41789155545931" lon="7.753583959149563"><ele>411.0</ele><time>2026-04-19T10:06:24Z</time></trkpt><trkpt lat="44.417922139749486" lon="7.753667467977238"><ele>411.4</ele><time>2026-04-19T10:06:25Z</time></trkpt><trkpt lat="44.41794781622454" lon="7.753765454809059"><ele>411.8</ele><time>2026-04-19T10:06:26Z</time></trkpt><trkpt lat="44.417976281328286" lon="7.753880282358478"><ele>412.2</ele><time>2026-04-19T10:06:27Z</time></trkpt><trkpt lat="44.418005205576534" lon="7.754012576152444"><ele>412.59999999999997</ele><time>2026-04-19T10:06:28Z</time></trkpt><trkpt lat="44.41803898492723" lon="7.754157170584007"><ele>413.0</ele><time>2026-04-19T10:06:29Z</time></trkpt><trkpt lat="44.41808603508351" lon="7.7543115371506275"><ele>413.25</ele><time>2026-04-19T10:06:30Z</time></trkpt><trkpt lat="44.418165281991804" lon="7.754458074165405"><ele>413.5</ele><time>2026-04-19T10:06:31Z</time></trkpt><trkpt lat="44.41826961504986" lon="7.754588542405877"><ele>413.75</ele><time>2026-04-19T10:06:32Z</time></trkpt><trkpt lat="44.41839538818544" lon="7.754701947924464"><ele>414.0</ele><time>2026-04-19T10:06:33Z</time></trkpt><trkpt lat="44.41852890929709" lon="7.754787605662198"><ele>414.0</ele><time>2026-04-19T10:06:34Z</time></trkpt><trkpt lat="44.41866733322017" lon="7.754850489205192"><ele>414.0</ele><time>2026-04-19T10:06:35Z</time></trkpt><trkpt lat="44.41882077076898" lon="7.754900312929071"><ele>414.0</ele><time>2026-04-19T10:06:36Z</time></trkpt><trkpt lat="44.41897619189726" lon="7.754940524214954"><ele>413.0</ele><time>2026-04-19T10:06:37Z</time></trkpt><trkpt lat="44.41913356892067" lon="7.754984580791523"><ele>412.0</ele><time>2026-04-19T10:06:38Z</time></trkpt><trkpt lat="44.41929334445481" lon="7.755051664092963"><ele>411.0</ele><time>2026-04-19T10:06:39Z</time></trkpt><trkpt lat="44.41945427939374" lon="7.755139491553318"><ele>411.0</ele><time>2026-04-19T10:06:40Z</time></trkpt><trkpt lat="44.41959662368263" lon="7.755238217119211"><ele>411.0</ele><time>2026-04-19T10:06:41Z</time></trkpt><trkpt lat="44.41972118651591" lon="7.755338330767818"><ele>411.0</ele><time>2026-04-19T10:06:42Z</time></trkpt><trkpt lat="44.419841417910874" lon="7.755462981855962"><ele>411.0</ele><time>2026-04-19T10:06:43Z</time></trkpt><trkpt lat="44.41995730861423" lon="7.755617342534246"><ele>411.0</ele><time>2026-04-19T10:06:44Z</time></trkpt><trkpt lat="44.420069620811155" lon="7.755789971181148"><ele>411.0</ele><time>2026-04-19T10:06:45Z</time></trkpt><trkpt lat="44.420179350853736" lon="7.755977667132315"><ele>411.0</ele><time>2026-04-19T10:06:46Z</time></trkpt><trkpt lat="44.420284385587856" lon="7.756169330549401"><ele>411.0</ele><time>2026-04-19T10:06:47Z</time></trkpt><trkpt lat="44.42038341090183" lon="7.756348638556243"><ele>411.0</ele><time>2026-04-19T10:06:48Z</time></trkpt><trkpt lat="44.420481018154675" lon="7.756517187489043"><ele>410.75</ele><time>2026-04-19T10:06:49Z</time></trkpt><trkpt lat="44.42057219135458" lon="7.7566737837606246"><ele>410.5</ele><time>2026-04-19T10:06:50Z</time></trkpt><trkpt lat="44.420651327830576" lon="7.756805678936642"><ele>410.25</ele><time>2026-04-19T10:06:51Z</time></trkpt><trkpt lat="44.42071725435699" lon="7.7569100701694635"><ele>410.0</ele><time>2026-04-19T10:06:52Z</time></trkpt><trkpt lat="44.42075888949612" lon="7.757018140386386"><ele>409.99999999999994</ele><time>2026-04-19T10:06:53Z</time></trkpt><trkpt lat="44.42080113788081" lon="7.757102005966654"><ele>410.0</ele><time>2026-04-19T10:06:54Z</time></trkpt><trkpt lat="44.42084690230442" lon="7.7572232238004695"><ele>410.0</ele><time>2026-04-19T10:06:56Z</time></trkpt><trkpt lat="44.42080119701564" lon="7.757327518196808"><ele>410.0</ele><time>2026-04-19T10:06:57Z</time></trkpt><trkpt lat="44.42075660581806" lon="7.757407584441362"><ele>409.99999999999994</ele><time>2026-04-19T10:06:58Z</time></trkpt><trkpt lat="44.42070512811094" lon="7.757498576224672"><ele>410.0</ele><time>2026-04-19T10:06:59Z</time></trkpt><trkpt lat="44.42064269914447" lon="7.757607325799035"><ele>410.0</ele><time>2026-04-19T10:07:00Z</time></trkpt><trkpt lat="44.42057149661897" lon="7.7577332655194855"><ele>410.0</ele><time>2026-04-19T10:07:01Z</time></trkpt><trkpt lat="44.420492472300154" lon="7.757878048716512"><ele>410.0</ele><time>2026-04-19T10:07:02Z</time></trkpt><trkpt lat="44.4204112630266" lon="7.758036238610803"><ele>410.0</ele><time>2026-04-19T10:07:03Z</time></trkpt><trkpt lat="44.42032833822007" lon="7.758198045521035"><ele>410.0</ele><time>2026-04-19T10:07:04Z</time></trkpt><trkpt lat="44.420241226857705" lon="7.758360679995439"><ele>410.0</ele><time>2026-04-19T10:07:05Z</time></trkpt><trkpt lat="44.42014626696786" lon="7.758531325930749"><ele>410.0</ele><time>2026-04-19T10:07:06Z</time></trkpt><trkpt lat="44.42004321109276" lon="7.758712037341426"><ele>410.3333333333333</ele><time>2026-04-19T10:07:07Z</time></trkpt><trkpt lat="44.41993703646157" lon="7.758899413403061"><ele>410.66666666666663</ele><time>2026-04-19T10:07:08Z</time></trkpt><trkpt lat="44.41983201512963" lon="7.759088889005994"><ele>411.0</ele><time>2026-04-19T10:07:09Z</time></trkpt><trkpt lat="44.41973182185078" lon="7.759267341761935"><ele>410.5</ele><time>2026-04-19T10:07:10Z</time></trkpt><trkpt lat="44.41963878740934" lon="7.759439850418248"><ele>410.0</ele><time>2026-04-19T10:07:11Z</time></trkpt><trkpt lat="44.41955063208869" lon="7.759606773050424"><ele>409.5</ele><time>2026-04-19T10:07:12Z</time></trkpt><trkpt lat="44.41946504333897" lon="7.759764952485277"><ele>409.0</ele><time>2026-04-19T10:07:13Z</time></trkpt><trkpt lat="44.41938612358404" lon="7.759911242128908"><ele>409.0</ele><time>2026-04-19T10:07:14Z</time></trkpt><trkpt lat="44.41931671052673" lon="7.760058732263908"><ele>409.0</ele><time>2026-04-19T10:07:15Z</time></trkpt><trkpt lat="44.41926985561447" lon="7.760217308999328"><ele>409.0</ele><time>2026-04-19T10:07:16Z</time></trkpt><trkpt lat="44.41925233055958" lon="7.760380064479332"><ele>409.0</ele><time>2026-04-19T10:07:17Z</time></trkpt><trkpt lat="44.419266538112154" lon="7.760535618319301"><ele>408.75</ele><time>2026-04-19T10:07:18Z</time></trkpt><trkpt lat="44.41930896238696" lon="7.760677675586667"><ele>408.5</ele><time>2026-04-19T10:07:19Z</time></trkpt><trkpt lat="44.41938223711551" lon="7.760796296019394"><ele>408.25</ele><time>2026-04-19T10:07:20Z</time></trkpt><trkpt lat="44.41947383196374" lon="7.760898828690759"><ele>408.0</ele><time>2026-04-19T10:07:21Z</time></trkpt><trkpt lat="44.419586871017174" lon="7.760976584225919"><ele>401.66666666666663</ele><time>2026-04-19T10:07:22Z</time></trkpt><trkpt lat="44.41972085162947" lon="7.761041245758063"><ele>395.3333333333333</ele><time>2026-04-19T10:07:23Z</time></trkpt><trkpt lat="44.41986387206486" lon="7.761109991848127"><ele>389.0</ele><time>2026-04-19T10:07:24Z</time></trkpt><trkpt lat="44.42001124064115" lon="7.761191067146976"><ele>389.0</ele><time>2026-04-19T10:07:25Z</time></trkpt><trkpt lat="44.42016395129241" lon="7.76127058599247"><ele>389.0</ele><time>2026-04-19T10:07:26Z</time></trkpt><trkpt lat="44.420311248841905" lon="7.761371259450906"><ele>389.0</ele><time>2026-04-19T10:07:27Z</time></trkpt><trkpt lat="44.42046088918894" lon="7.761451464662972"><ele>389.25</ele><time>2026-04-19T10:07:28Z</time></trkpt><trkpt lat="44.42060720849936" lon="7.761532486908342"><ele>389.5</ele><time>2026-04-19T10:07:29Z</time></trkpt><trkpt lat="44.42074804336426" lon="7.761587175154734"><ele>389.75</ele><time>2026-04-19T10:07:30Z</time></trkpt><trkpt lat="44.42086720483778" lon="7.761674208561844"><ele>390.0</ele><time>2026-04-19T10:07:31Z</time></trkpt><trkpt lat="44.420970697639056" lon="7.761771747718542"><ele>387.0</ele><time>2026-04-19T10:07:32Z</time></trkpt><trkpt lat="44.421047206191645" lon="7.761895484416632"><ele>384.0</ele><time>2026-04-19T10:07:33Z</time></trkpt><trkpt lat="44.42112139536119" lon="7.761993248995768"><ele>381.0</ele><time>2026-04-19T10:07:34Z</time></trkpt><trkpt lat="44.42117616464198" lon="7.7620636108416745"><ele>378.0</ele><time>2026-04-19T10:07:35Z</time></trkpt><trkpt lat="44.421234014509054" lon="7.762164510381988"><ele>375.0</ele><time>2026-04-19T10:07:37Z</time></trkpt><trkpt lat="44.421170786112214" lon="7.7622814746724185"><ele>375.0</ele><time>2026-04-19T10:07:39Z</time></trkpt><trkpt lat="44.42107032212887" lon="7.762265431063205"><ele>375.0</ele><time>2026-04-19T10:07:40Z</time></trkpt><trkpt lat="44.42097632815218" lon="7.7622424604768705"><ele>375.0</ele><time>2026-04-19T10:07:41Z</time></trkpt><trkpt lat="44.420860359886284" lon="7.762210675005353"><ele>375.0</ele><time>2026-04-19T10:07:42Z</time></trkpt><trkpt lat="44.42070982445817" lon="7.762174260353201"><ele>375.0</ele><time>2026-04-19T10:07:43Z</time></trkpt><trkpt lat="44.42057295952632" lon="7.762163285330359"><ele>375.0</ele><time>2026-04-19T10:07:44Z</time></trkpt><trkpt lat="44.42044632680185" lon="7.762191622574622"><ele>375.0</ele><time>2026-04-19T10:07:45Z</time></trkpt><trkpt lat="44.42033382551971" lon="7.762268525628176"><ele>375.0</ele><time>2026-04-19T10:07:46Z</time></trkpt><trkpt lat="44.42024327587175" lon="7.762390649532384"><ele>374.0</ele><time>2026-04-19T10:07:47Z</time></trkpt><trkpt lat="44.42017452851592" lon="7.762556335363983"><ele>373.0</ele><time>2026-04-19T10:07:48Z</time></trkpt><trkpt lat="44.420111281264404" lon="7.762768306690259"><ele>372.0</ele><time>2026-04-19T10:07:49Z</time></trkpt><trkpt lat="44.420020949973356" lon="7.763006687074548"><ele>371.6666666666667</ele><time>2026-04-19T10:07:50Z</time></trkpt><trkpt lat="44.41994045234716" lon="7.763247952179995"><ele>371.33333333333337</ele><time>2026-04-19T10:07:51Z</time></trkpt><trkpt lat="44.41988550639213" lon="7.763465405487394"><ele>371.0</ele><time>2026-04-19T10:07:52Z</time></trkpt><trkpt lat="44.41982126468456" lon="7.76363541481566"><ele>376.5</ele><time>2026-04-19T10:07:53Z</time></trkpt><trkpt lat="44.419751218081515" lon="7.763789628337303"><ele>382.0</ele><time>2026-04-19T10:07:54Z</time></trkpt><trkpt lat="44.41965732340813" lon="7.763915477622679"><ele>387.5</ele><time>2026-04-19T10:07:55Z</time></trkpt><trkpt lat="44.419532872643614" lon="7.764013636705913"><ele>393.0</ele><time>2026-04-19T10:07:56Z</time></trkpt><trkpt lat="44.419387467973465" lon="7.764067598947339"><ele>393.0</ele><time>2026-04-19T10:07:57Z</time></trkpt><trkpt lat="44.41923317024375" lon="7.764081153487248"><ele>393.0</ele><time>2026-04-19T10:07:58Z</time></trkpt><trkpt lat="44.41908134940179" lon="7.764054199995556"><ele>393.0</ele><time>2026-04-19T10:07:59Z</time></trkpt><trkpt lat="44.418950207563114" lon="7.763996408150747"><ele>393.0</ele><time>2026-04-19T10:08:00Z</time></trkpt><trkpt lat="44.41884693513669" lon="7.763932184152715"><ele>393.0</ele><time>2026-04-19T10:08:01Z</time></trkpt><trkpt lat="44.41876310483426" lon="7.763893447324595"><ele>393.0</ele><time>2026-04-19T10:08:02Z</time></trkpt><trkpt lat="44.418664584062576" lon="7.76396437026632"><ele>393.0</ele><time>2026-04-19T10:08:04Z</time></trkpt><trkpt lat="44.41866397923473" lon="7.764133774507526"><ele>393.0</ele><time>2026-04-19T10:08:06Z</time></trkpt><trkpt lat="44.41874793103082" lon="7.764191672881271"><ele>393.0</ele><time>2026-04-19T10:08:07Z</time></trkpt><trkpt lat="44.418837709325715" lon="7.764241233040961"><ele>393.0</ele><time>2026-04-19T10:08:08Z</time></trkpt><trkpt lat="44.41894883098097" lon="7.764294176666976"><ele>393.0</ele><time>2026-04-19T10:08:09Z</time></trkpt><trkpt lat="44.41908319001763" lon="7.76436021210742"><ele>393.0</ele><time>2026-04-19T10:08:10Z</time></trkpt><trkpt lat="44.41924112304496" lon="7.764435639715296"><ele>393.0</ele><time>2026-04-19T10:08:11Z</time></trkpt><trkpt lat="44.41942089995319" lon="7.764502905635348"><ele>398.0</ele><time>2026-04-19T10:08:12Z</time></trkpt><trkpt lat="44.4196237613768" lon="7.764522495641049"><ele>403.0</ele><time>2026-04-19T10:08:13Z</time></trkpt><trkpt lat="44.419799117951" lon="7.764551893336371"><ele>408.0</ele><time>2026-04-19T10:08:14Z</time></trkpt><trkpt lat="44.41993951700783" lon="7.764561830891267"><ele>408.0</ele><time>2026-04-19T10:08:15Z</time></trkpt><trkpt lat="44.420044693004336" lon="7.764569275380865"><ele>408.0</ele><time>2026-04-19T10:08:16Z</time></trkpt><trkpt lat="44.42011606309672" lon="7.76457721063519"><ele>408.0</ele><time>2026-04-19T10:08:17Z</time></trkpt><trkpt lat="44.42017381000474" lon="7.764631241062227"><ele>408.0</ele><time>2026-04-19T10:08:19Z</time></trkpt><trkpt lat="44.420128021849564" lon="7.7647509258281975"><ele>408.0</ele><time>2026-04-19T10:08:21Z</time></trkpt><trkpt lat="44.42000933302214" lon="7.764731081897655"><ele>408.0</ele><time>2026-04-19T10:08:23Z</time></trkpt><trkpt lat="44.419921562925346" lon="7.764725458377126"><ele>408.0</ele><time>2026-04-19T10:08:24Z</time></trkpt><trkpt lat="44.419816248054325" lon="7.764749356402557"><ele>408.0</ele><time>2026-04-19T10:08:25Z</time></trkpt><trkpt lat="44.419692164386674" lon="7.764770948966754"><ele>408.0</ele><time>2026-04-19T10:08:26Z</time></trkpt><trkpt lat="44.41955337328693" lon="7.764835353480135"><ele>408.0</ele><time>2026-04-19T10:08:27Z</time></trkpt><trkpt lat="44.41942060301876" lon="7.764944153287732"><ele>408.0</ele><time>2026-04-19T10:08:28Z</time></trkpt><trkpt lat="44.41931278219637" lon="7.765085261723665"><ele>408.0</ele><time>2026-04-19T10:08:29Z</time></trkpt><trkpt lat="44.419227599196525" lon="7.765239514238387"><ele>408.0</ele><time>2026-04-19T10:08:30Z</time></trkpt><trkpt lat="44.41915239268534" lon="7.7654151849668915"><ele>408.33333333333337</ele><time>2026-04-19T10:08:31Z</time></trkpt><trkpt lat="44.41906772743527" lon="7.765615354169509"><ele>408.6666666666667</ele><time>2026-04-19T10:08:32Z</time></trkpt><trkpt lat="44.418976205698236" lon="7.765835103084812"><ele>409.0</ele><time>2026-04-19T10:08:33Z</time></trkpt><trkpt lat="44.41887305783138" lon="7.76609183614307"><ele>409.0</ele><time>2026-04-19T10:08:34Z</time></trkpt><trkpt lat="44.41875567040947" lon="7.766379791883487"><ele>409.0</ele><time>2026-04-19T10:08:35Z</time></trkpt><trkpt lat="44.418628756126395" lon="7.766686891323816"><ele>408.5</ele><time>2026-04-19T10:08:35.999Z</time></trkpt><trkpt lat="44.418491735882746" lon="7.767021098655379"><ele>408.0</ele><time>2026-04-19T10:08:36.999Z</time></trkpt><trkpt lat="44.41835115995854" lon="7.767362447579513"><ele>408.0</ele><time>2026-04-19T10:08:37.999Z</time></trkpt><trkpt lat="44.418219206338954" lon="7.7676821066158865"><ele>408.0</ele><time>2026-04-19T10:08:38.999Z</time></trkpt><trkpt lat="44.41809203900287" lon="7.767986594185006"><ele>409.0</ele><time>2026-04-19T10:08:39.999Z</time></trkpt><trkpt lat="44.41797034080535" lon="7.768278461673961"><ele>410.0</ele><time>2026-04-19T10:08:40.999Z</time></trkpt><trkpt lat="44.41784613292445" lon="7.76855268912973"><ele>410.0</ele><time>2026-04-19T10:08:41.999Z</time></trkpt><trkpt lat="44.41770997628521" lon="7.768821925360368"><ele>410.0</ele><time>2026-04-19T10:08:42.999Z</time></trkpt><trkpt lat="44.417556824925285" lon="7.769090029929578"><ele>410.0</ele><time>2026-04-19T10:08:43.999Z</time></trkpt><trkpt lat="44.417380097042646" lon="7.769357807629604"><ele>410.0</ele><time>2026-04-19T10:08:44.999Z</time></trkpt><trkpt lat="44.417199823742635" lon="7.769620873887088"><ele>411.0</ele><time>2026-04-19T10:08:45.999Z</time></trkpt><trkpt lat="44.41703342437805" lon="7.769866843887339"><ele>412.0</ele><time>2026-04-19T10:08:46.999Z</time></trkpt><trkpt lat="44.41687425804524" lon="7.7701019079208375"><ele>412.33333333333337</ele><time>2026-04-19T10:08:47.999Z</time></trkpt><trkpt lat="44.41672237077293" lon="7.770326332892229"><ele>412.66666666666663</ele><time>2026-04-19T10:08:48.999Z</time></trkpt><trkpt lat="44.4165728968546" lon="7.770546989785224"><ele>413.0</ele><time>2026-04-19T10:08:49.999Z</time></trkpt><trkpt lat="44.416421823458606" lon="7.770774627426371"><ele>413.3333333333333</ele><time>2026-04-19T10:08:50.999Z</time></trkpt><trkpt lat="44.41627049226706" lon="7.771001850214909"><ele>413.66666666666663</ele><time>2026-04-19T10:08:51.999Z</time></trkpt><trkpt lat="44.416125180344885" lon="7.771217573812372"><ele>414.0</ele><time>2026-04-19T10:08:52.999Z</time></trkpt><trkpt lat="44.41598886240124" lon="7.7714250391720405"><ele>414.0</ele><time>2026-04-19T10:08:53.999Z</time></trkpt><trkpt lat="44.415866919363104" lon="7.771613427598459"><ele>414.0</ele><time>2026-04-19T10:08:54.999Z</time></trkpt><trkpt lat="44.41575761558863" lon="7.771773856100522"><ele>414.0</ele><time>2026-04-19T10:08:55.999Z</time></trkpt><trkpt lat="44.41566565854414" lon="7.77190316926294"><ele>414.0</ele><time>2026-04-19T10:08:56.999Z</time></trkpt><trkpt lat="44.415587758161756" lon="7.772013370460331"><ele>414.0</ele><time>2026-04-19T10:08:57.999Z</time></trkpt><trkpt lat="44.41552397206478" lon="7.772101819844483"><ele>414.0</ele><time>2026-04-19T10:08:58.999Z</time></trkpt><trkpt lat="44.41547419771928" lon="7.77218466140947"><ele>414.0</ele><time>2026-04-19T10:08:59.999Z</time></trkpt><trkpt lat="44.415416517945566" lon="7.772278190340246"><ele>414.0</ele><time>2026-04-19T10:09:01.999Z</time></trkpt><trkpt lat="44.415552771006155" lon="7.772467764397215"><ele>414.0</ele><time>2026-04-19T10:09:03.999Z</time></trkpt><trkpt lat="44.415607316249336" lon="7.7725660963757175"><ele>414.0</ele><time>2026-04-19T10:09:04.999Z</time></trkpt><trkpt lat="44.41567230164545" lon="7.772697179680394"><ele>414.0</ele><time>2026-04-19T10:09:05.999Z</time></trkpt><trkpt lat="44.415756004944846" lon="7.772857989443693"><ele>414.0</ele><time>2026-04-19T10:09:06.999Z</time></trkpt><trkpt lat="44.41585499249406" lon="7.773038390652204"><ele>414.0</ele><time>2026-04-19T10:09:07.999Z</time></trkpt><trkpt lat="44.41596700419654" lon="7.773240577057177"><ele>414.0</ele><time>2026-04-19T10:09:08.999Z</time></trkpt><trkpt lat="44.41608328657734" lon="7.7734591206147625"><ele>414.0</ele><time>2026-04-19T10:09:09.999Z</time></trkpt><trkpt lat="44.41619745436377" lon="7.773690799498684"><ele>413.66666666666663</ele><time>2026-04-19T10:09:10.999Z</time></trkpt><trkpt lat="44.41630971852273" lon="7.773916020231654"><ele>413.3333333333333</ele><time>2026-04-19T10:09:11.999Z</time></trkpt><trkpt lat="44.41642254901324" lon="7.774127205627708"><ele>413.0</ele><time>2026-04-19T10:09:12.999Z</time></trkpt><trkpt lat="44.41653356483911" lon="7.774321760257264"><ele>413.0</ele><time>2026-04-19T10:09:13.999Z</time></trkpt><trkpt lat="44.41664727252607" lon="7.774498056323589"><ele>413.0</ele><time>2026-04-19T10:09:14.999Z</time></trkpt><trkpt lat="44.4167701157699" lon="7.774659470566003"><ele>413.0</ele><time>2026-04-19T10:09:15.999Z</time></trkpt><trkpt lat="44.4169042510243" lon="7.774802370165844"><ele>413.0</ele><time>2026-04-19T10:09:16.999Z</time></trkpt><trkpt lat="44.417048511916384" lon="7.774923041334384"><ele>413.0</ele><time>2026-04-19T10:09:17.999Z</time></trkpt><trkpt lat="44.417182377679914" lon="7.775060856185204"><ele>413.0</ele><time>2026-04-19T10:09:18.999Z</time></trkpt><trkpt lat="44.417316161744466" lon="7.775169728729838"><ele>413.25</ele><time>2026-04-19T10:09:19.999Z</time></trkpt><trkpt lat="44.417448981938946" lon="7.775254833062807"><ele>413.5</ele><time>2026-04-19T10:09:20.999Z</time></trkpt><trkpt lat="44.41756905163522" lon="7.7753735053683"><ele>413.75</ele><time>2026-04-19T10:09:21.999Z</time></trkpt><trkpt lat="44.41768650515745" lon="7.775515438720907"><ele>414.0</ele><time>2026-04-19T10:09:22.999Z</time></trkpt><trkpt lat="44.417790598518124" lon="7.775695522416297"><ele>414.0</ele><time>2026-04-19T10:09:23.999Z</time></trkpt><trkpt lat="44.417913960109274" lon="7.775876230512991"><ele>414.0</ele><time>2026-04-19T10:09:24.999Z</time></trkpt><trkpt lat="44.41805105228965" lon="7.776054161346914"><ele>414.0</ele><time>2026-04-19T10:09:25.999Z</time></trkpt><trkpt lat="44.4181855740322" lon="7.776252422998933"><ele>413.0</ele><time>2026-04-19T10:09:26.999Z</time></trkpt><trkpt lat="44.41833009623931" lon="7.776459555152362"><ele>412.0</ele><time>2026-04-19T10:09:27.999Z</time></trkpt><trkpt lat="44.4184794897958" lon="7.776677708466369"><ele>411.0</ele><time>2026-04-19T10:09:28.999Z</time></trkpt><trkpt lat="44.41863174234184" lon="7.776905272341657"><ele>411.0</ele><time>2026-04-19T10:09:29.999Z</time></trkpt><trkpt lat="44.41879062286681" lon="7.777137836430195"><ele>411.0</ele><time>2026-04-19T10:09:30.999Z</time></trkpt><trkpt lat="44.418954391716355" lon="7.777376563103089"><ele>411.0</ele><time>2026-04-19T10:09:31.999Z</time></trkpt><trkpt lat="44.41911859574583" lon="7.777619402775173"><ele>411.0</ele><time>2026-04-19T10:09:32.999Z</time></trkpt><trkpt lat="44.41928402160074" lon="7.777864242908749"><ele>411.0</ele><time>2026-04-19T10:09:33.999Z</time></trkpt><trkpt lat="44.41944829144295" lon="7.778108997681737"><ele>411.0</ele><time>2026-04-19T10:09:34.999Z</time></trkpt><trkpt lat="44.4195971327307" lon="7.778368530148299"><ele>411.5</ele><time>2026-04-19T10:09:35.999Z</time></trkpt><trkpt lat="44.41975071687441" lon="7.778614539207106"><ele>412.0</ele><time>2026-04-19T10:09:36.999Z</time></trkpt><trkpt lat="44.419900402812324" lon="7.7788580932279165"><ele>412.0</ele><time>2026-04-19T10:09:37.999Z</time></trkpt><trkpt lat="44.420038900131004" lon="7.779100754319414"><ele>412.0</ele><time>2026-04-19T10:09:38.999Z</time></trkpt><trkpt lat="44.42012629956776" lon="7.779260917142341"><ele>412.0</ele><time>2026-04-19T10:09:39.999Z</time></trkpt><trkpt lat="44.420251631258814" lon="7.7794646590907"><ele>411.6666666666667</ele><time>2026-04-19T10:09:40.999Z</time></trkpt><trkpt lat="44.420360170138125" lon="7.779680138537768"><ele>411.33333333333337</ele><time>2026-04-19T10:09:41.999Z</time></trkpt><trkpt lat="44.420460165897985" lon="7.779885305565202"><ele>411.0</ele><time>2026-04-19T10:09:42.999Z</time></trkpt><trkpt lat="44.420561296535446" lon="7.780076443033898"><ele>410.66666666666663</ele><time>2026-04-19T10:09:43.999Z</time></trkpt><trkpt lat="44.4206612349638" lon="7.780269540411507"><ele>410.3333333333333</ele><time>2026-04-19T10:09:44.999Z</time></trkpt><trkpt lat="44.420766479364254" lon="7.7804641285827065"><ele>410.0</ele><time>2026-04-19T10:09:45.999Z</time></trkpt><trkpt lat="44.42087385827782" lon="7.7806671314603175"><ele>410.0</ele><time>2026-04-19T10:09:46.999Z</time></trkpt><trkpt lat="44.42098720700228" lon="7.780876852276185"><ele>410.0</ele><time>2026-04-19T10:09:47.999Z</time></trkpt><trkpt lat="44.42110411309706" lon="7.781089316372394"><ele>410.0</ele><time>2026-04-19T10:09:48.999Z</time></trkpt><trkpt lat="44.42122588494784" lon="7.781303563319397"><ele>410.0</ele><time>2026-04-19T10:09:49.999Z</time></trkpt><trkpt lat="44.421353328418654" lon="7.7815229350707655"><ele>410.0</ele><time>2026-04-19T10:09:50.999Z</time></trkpt><trkpt lat="44.42148509704446" lon="7.781747227798795"><ele>410.0</ele><time>2026-04-19T10:09:51.999Z</time></trkpt><trkpt lat="44.42161723197642" lon="7.781967496160447"><ele>410.0</ele><time>2026-04-19T10:09:52.999Z</time></trkpt><trkpt lat="44.42175077816677" lon="7.782192705794082"><ele>410.0</ele><time>2026-04-19T10:09:53.999Z</time></trkpt><trkpt lat="44.42188439945394" lon="7.78241628521385"><ele>410.0</ele><time>2026-04-19T10:09:54.999Z</time></trkpt><trkpt lat="44.42201228562987" lon="7.782634557547627"><ele>410.0</ele><time>2026-04-19T10:09:55.999Z</time></trkpt><trkpt lat="44.42213844487453" lon="7.7828451501397256"><ele>410.0</ele><time>2026-04-19T10:09:56.999Z</time></trkpt><trkpt lat="44.422267421631595" lon="7.783064936710881"><ele>410.0</ele><time>2026-04-19T10:09:57.999Z</time></trkpt><trkpt lat="44.42238634253119" lon="7.783277345168928"><ele>409.3333333333333</ele><time>2026-04-19T10:09:58.999Z</time></trkpt><trkpt lat="44.42250403910015" lon="7.783477800238346"><ele>408.66666666666663</ele><time>2026-04-19T10:09:59.999Z</time></trkpt><trkpt lat="44.42261884206393" lon="7.783667098661972"><ele>408.0</ele><time>2026-04-19T10:10:00.999Z</time></trkpt><trkpt lat="44.422729548431654" lon="7.783859043516692"><ele>407.66666666666663</ele><time>2026-04-19T10:10:01.999Z</time></trkpt><trkpt lat="44.42284243409382" lon="7.784052183796109"><ele>407.3333333333333</ele><time>2026-04-19T10:10:02.999Z</time></trkpt><trkpt lat="44.42295933766303" lon="7.784251189205066"><ele>407.0</ele><time>2026-04-19T10:10:03.999Z</time></trkpt><trkpt lat="44.42308113419969" lon="7.784453144182994"><ele>407.0</ele><time>2026-04-19T10:10:04.999Z</time></trkpt><trkpt lat="44.42320029906454" lon="7.784652691875769"><ele>407.0</ele><time>2026-04-19T10:10:05.999Z</time></trkpt><trkpt lat="44.42332022782483" lon="7.784857453299173"><ele>407.0</ele><time>2026-04-19T10:10:06.999Z</time></trkpt><trkpt lat="44.42343255800055" lon="7.785055614758052"><ele>407.0</ele><time>2026-04-19T10:10:07.999Z</time></trkpt><trkpt lat="44.42354999790425" lon="7.785258568688397"><ele>407.0</ele><time>2026-04-19T10:10:08.999Z</time></trkpt><trkpt lat="44.423672024675454" lon="7.785470956061891"><ele>407.0</ele><time>2026-04-19T10:10:09.999Z</time></trkpt><trkpt lat="44.42379949699154" lon="7.7856882865231665"><ele>407.66666666666663</ele><time>2026-04-19T10:10:10.999Z</time></trkpt><trkpt lat="44.42392972299443" lon="7.785905413798748"><ele>408.33333333333337</ele><time>2026-04-19T10:10:11.999Z</time></trkpt><trkpt lat="44.42405948832591" lon="7.7861240318116645"><ele>409.0</ele><time>2026-04-19T10:10:12.999Z</time></trkpt><trkpt lat="44.42419059863729" lon="7.78634391983901"><ele>409.0</ele><time>2026-04-19T10:10:13.999Z</time></trkpt><trkpt lat="44.42432732150499" lon="7.786563327682259"><ele>409.0</ele><time>2026-04-19T10:10:14.999Z</time></trkpt><trkpt lat="44.42446461967154" lon="7.7867865184761955"><ele>409.0</ele><time>2026-04-19T10:10:15.999Z</time></trkpt><trkpt lat="44.424601057713126" lon="7.787016746441414"><ele>408.6666666666667</ele><time>2026-04-19T10:10:16.999Z</time></trkpt><trkpt lat="44.424742398383685" lon="7.787263121872277"><ele>408.33333333333337</ele><time>2026-04-19T10:10:17.999Z</time></trkpt><trkpt lat="44.42488448818891" lon="7.787505046611871"><ele>408.0</ele><time>2026-04-19T10:10:18.999Z</time></trkpt><trkpt lat="44.42502225797474" lon="7.787729060002019"><ele>407.66666666666663</ele><time>2026-04-19T10:10:19.999Z</time></trkpt><trkpt lat="44.42515067386981" lon="7.787947744380494"><ele>407.3333333333333</ele><time>2026-04-19T10:10:20.999Z</time></trkpt><trkpt lat="44.42527114627562" lon="7.788165158777928"><ele>407.0</ele><time>2026-04-19T10:10:21.999Z</time></trkpt><trkpt lat="44.42539340616988" lon="7.78837295706501"><ele>406.66666666666663</ele><time>2026-04-19T10:10:22.999Z</time></trkpt><trkpt lat="44.42551371206228" lon="7.788569313019808"><ele>406.33333333333337</ele><time>2026-04-19T10:10:23.999Z</time></trkpt><trkpt lat="44.425627585555745" lon="7.7887576244449255"><ele>406.0</ele><time>2026-04-19T10:10:24.999Z</time></trkpt><trkpt lat="44.425730227379155" lon="7.7889342951481195"><ele>406.0</ele><time>2026-04-19T10:10:25.999Z</time></trkpt><trkpt lat="44.42581991862983" lon="7.789089565600983"><ele>406.0</ele><time>2026-04-19T10:10:26.999Z</time></trkpt><trkpt lat="44.42590414606827" lon="7.789244045952962"><ele>406.0</ele><time>2026-04-19T10:10:27.999Z</time></trkpt><trkpt lat="44.42596209919676" lon="7.789413403532038"><ele>406.0</ele><time>2026-04-19T10:10:28.999Z</time></trkpt><trkpt lat="44.426014398186794" lon="7.789570882188366"><ele>406.25</ele><time>2026-04-19T10:10:29.999Z</time></trkpt><trkpt lat="44.4260679861324" lon="7.789733171277148"><ele>406.5</ele><time>2026-04-19T10:10:30.999Z</time></trkpt><trkpt lat="44.426139457520776" lon="7.789896255266147"><ele>406.75</ele><time>2026-04-19T10:10:31.999Z</time></trkpt><trkpt lat="44.426199243514425" lon="7.790083062586574"><ele>407.0</ele><time>2026-04-19T10:10:32.999Z</time></trkpt><trkpt lat="44.42626411179458" lon="7.790280879427454"><ele>407.0</ele><time>2026-04-19T10:10:33.999Z</time></trkpt><trkpt lat="44.42633187235766" lon="7.790488447748275"><ele>407.0</ele><time>2026-04-19T10:10:34.999Z</time></trkpt><trkpt lat="44.42639920989229" lon="7.790703283995188"><ele>407.0</ele><time>2026-04-19T10:10:35.999Z</time></trkpt><trkpt lat="44.42646949278345" lon="7.790922458752833"><ele>406.3333333333333</ele><time>2026-04-19T10:10:36.999Z</time></trkpt><trkpt lat="44.42653951548461" lon="7.791148039445535"><ele>405.66666666666663</ele><time>2026-04-19T10:10:37.999Z</time></trkpt><trkpt lat="44.42661376938558" lon="7.791375944095827"><ele>405.0</ele><time>2026-04-19T10:10:38.999Z</time></trkpt><trkpt lat="44.42668995153154" lon="7.791606683299012"><ele>405.0</ele><time>2026-04-19T10:10:39.999Z</time></trkpt><trkpt lat="44.42676533635655" lon="7.791836489446602"><ele>405.0</ele><time>2026-04-19T10:10:40.999Z</time></trkpt><trkpt lat="44.42683554268491" lon="7.792053390354827"><ele>405.0</ele><time>2026-04-19T10:10:41.999Z</time></trkpt><trkpt lat="44.426902676821854" lon="7.792256585458056"><ele>405.25</ele><time>2026-04-19T10:10:42.999Z</time></trkpt><trkpt lat="44.4269635786464" lon="7.792440729488859"><ele>405.5</ele><time>2026-04-19T10:10:43.999Z</time></trkpt><trkpt lat="44.427016668868205" lon="7.792602984558471"><ele>405.75</ele><time>2026-04-19T10:10:44.999Z</time></trkpt><trkpt lat="44.42706269488735" lon="7.792745801604092"><ele>406.0</ele><time>2026-04-19T10:10:45.999Z</time></trkpt><trkpt lat="44.42709672935441" lon="7.792861137263467"><ele>406.00000000000006</ele><time>2026-04-19T10:10:46.999Z</time></trkpt><trkpt lat="44.42712308559998" lon="7.792944546057449"><ele>406.0</ele><time>2026-04-19T10:10:47.999Z</time></trkpt><trkpt lat="44.427138928872814" lon="7.793045710570638"><ele>406.0</ele><time>2026-04-19T10:10:49.999Z</time></trkpt><trkpt lat="44.42706943404457" lon="7.793168415276151"><ele>406.0</ele><time>2026-04-19T10:10:52.999Z</time></trkpt><trkpt lat="44.427013018016424" lon="7.7932174578888755"><ele>406.00000000000006</ele><time>2026-04-19T10:10:53.999Z</time></trkpt><trkpt lat="44.426941320846204" lon="7.793277497426965"><ele>406.0</ele><time>2026-04-19T10:10:54.999Z</time></trkpt><trkpt lat="44.42684918315721" lon="7.793356824200056"><ele>406.0</ele><time>2026-04-19T10:10:55.999Z</time></trkpt><trkpt lat="44.426745897411514" lon="7.793440689150904"><ele>406.0</ele><time>2026-04-19T10:10:56.999Z</time></trkpt><trkpt lat="44.426630305743565" lon="7.7935396307479"><ele>406.0</ele><time>2026-04-19T10:10:57.999Z</time></trkpt><trkpt lat="44.426522261263585" lon="7.7936414918638715"><ele>406.0</ele><time>2026-04-19T10:10:58.999Z</time></trkpt><trkpt lat="44.42642488083117" lon="7.793722195958843"><ele>406.0</ele><time>2026-04-19T10:10:59.999Z</time></trkpt><trkpt lat="44.426338517660504" lon="7.793791350368283"><ele>406.0</ele><time>2026-04-19T10:11:00.999Z</time></trkpt><trkpt lat="44.42626700137542" lon="7.79385343127812"><ele>406.0</ele><time>2026-04-19T10:11:01.999Z</time></trkpt><trkpt lat="44.42617286637056" lon="7.793945895833808"><ele>406.0</ele><time>2026-04-19T10:11:03.999Z</time></trkpt><trkpt lat="44.42622225909174" lon="7.7941323467245525"><ele>406.0</ele><time>2026-04-19T10:11:05.999Z</time></trkpt><trkpt lat="44.426274624571334" lon="7.7942303650454186"><ele>405.75</ele><time>2026-04-19T10:11:06.999Z</time></trkpt><trkpt lat="44.42633187985094" lon="7.794346195549926"><ele>405.5</ele><time>2026-04-19T10:11:07.999Z</time></trkpt><trkpt lat="44.42638884551583" lon="7.794481382684196"><ele>405.25</ele><time>2026-04-19T10:11:08.999Z</time></trkpt><trkpt lat="44.4264390078157" lon="7.794643740619716"><ele>405.0</ele><time>2026-04-19T10:11:09.999Z</time></trkpt><trkpt lat="44.426491958173386" lon="7.7948332091646195"><ele>405.0</ele><time>2026-04-19T10:11:10.999Z</time></trkpt><trkpt lat="44.426553630204914" lon="7.795040380288113"><ele>405.0</ele><time>2026-04-19T10:11:11.999Z</time></trkpt><trkpt lat="44.42662478091218" lon="7.795257796580797"><ele>405.0</ele><time>2026-04-19T10:11:12.999Z</time></trkpt><trkpt lat="44.42671015977478" lon="7.795485862098783"><ele>404.66666666666663</ele><time>2026-04-19T10:11:13.999Z</time></trkpt><trkpt lat="44.42681137887489" lon="7.7957206234332155"><ele>404.3333333333333</ele><time>2026-04-19T10:11:14.999Z</time></trkpt><trkpt lat="44.42692474397117" lon="7.795961758205983"><ele>404.0</ele><time>2026-04-19T10:11:15.999Z</time></trkpt><trkpt lat="44.42704229342738" lon="7.796206939948278"><ele>404.0</ele><time>2026-04-19T10:11:16.999Z</time></trkpt><trkpt lat="44.427156876171544" lon="7.7964483665301"><ele>404.0</ele><time>2026-04-19T10:11:17.999Z</time></trkpt><trkpt lat="44.42726604731715" lon="7.796682652321688"><ele>404.0</ele><time>2026-04-19T10:11:18.999Z</time></trkpt><trkpt lat="44.42736612050021" lon="7.796907440270873"><ele>403.66666666666663</ele><time>2026-04-19T10:11:19.999Z</time></trkpt><trkpt lat="44.427458800020936" lon="7.797127760190224"><ele>403.33333333333337</ele><time>2026-04-19T10:11:20.999Z</time></trkpt><trkpt lat="44.42754021281938" lon="7.797345641309503"><ele>403.0</ele><time>2026-04-19T10:11:21.999Z</time></trkpt><trkpt lat="44.42761453793868" lon="7.797568744118749"><ele>403.33333333333337</ele><time>2026-04-19T10:11:22.999Z</time></trkpt><trkpt lat="44.427678498846774" lon="7.797805505798375"><ele>403.66666666666663</ele><time>2026-04-19T10:11:23.999Z</time></trkpt><trkpt lat="44.427712617693025" lon="7.798069547126776"><ele>404.0</ele><time>2026-04-19T10:11:24.999Z</time></trkpt><trkpt lat="44.42775610805472" lon="7.798347567099267"><ele>403.0</ele><time>2026-04-19T10:11:25.999Z</time></trkpt><trkpt lat="44.42781248436967" lon="7.798634273986603"><ele>402.0</ele><time>2026-04-19T10:11:26.999Z</time></trkpt><trkpt lat="44.42785355389045" lon="7.798924469685157"><ele>401.0</ele><time>2026-04-19T10:11:27.999Z</time></trkpt><trkpt lat="44.4278972604305" lon="7.799210973879666"><ele>401.0</ele><time>2026-04-19T10:11:28.999Z</time></trkpt><trkpt lat="44.427936632440655" lon="7.799501902013574"><ele>401.0</ele><time>2026-04-19T10:11:29.999Z</time></trkpt><trkpt lat="44.42796778149502" lon="7.799805365905926"><ele>401.0</ele><time>2026-04-19T10:11:30.999Z</time></trkpt><trkpt lat="44.427971946586574" lon="7.800126078490917"><ele>401.5</ele><time>2026-04-19T10:11:31.999Z</time></trkpt><trkpt lat="44.42800586160803" lon="7.800446396083472"><ele>402.0</ele><time>2026-04-19T10:11:32.999Z</time></trkpt><trkpt lat="44.42801064525044" lon="7.800778758560464"><ele>401.5</ele><time>2026-04-19T10:11:33.999Z</time></trkpt><trkpt lat="44.42800756245441" lon="7.801111424569335"><ele>401.0</ele><time>2026-04-19T10:11:34.999Z</time></trkpt><trkpt lat="44.42799551213859" lon="7.801427088252198"><ele>401.0</ele><time>2026-04-19T10:11:35.999Z</time></trkpt><trkpt lat="44.42799018071435" lon="7.8017262837602095"><ele>401.0</ele><time>2026-04-19T10:11:36.999Z</time></trkpt><trkpt lat="44.42798888547561" lon="7.802017016556465"><ele>401.0</ele><time>2026-04-19T10:11:37.999Z</time></trkpt><trkpt lat="44.427984614275815" lon="7.802297073697026"><ele>401.0</ele><time>2026-04-19T10:11:38.999Z</time></trkpt><trkpt lat="44.42797500701662" lon="7.802565301086764"><ele>401.0</ele><time>2026-04-19T10:11:39.999Z</time></trkpt><trkpt lat="44.42796864714234" lon="7.802826581204265"><ele>401.0</ele><time>2026-04-19T10:11:40.999Z</time></trkpt><trkpt lat="44.427971679716016" lon="7.803076332279077"><ele>401.0</ele><time>2026-04-19T10:11:41.999Z</time></trkpt><trkpt lat="44.42797986227542" lon="7.803329363529326"><ele>401.0</ele><time>2026-04-19T10:11:42.999Z</time></trkpt><trkpt lat="44.42799867156415" lon="7.803585184722282"><ele>401.0</ele><time>2026-04-19T10:11:43.999Z</time></trkpt><trkpt lat="44.42803097332119" lon="7.803846724103826"><ele>401.0</ele><time>2026-04-19T10:11:44.999Z</time></trkpt><trkpt lat="44.428073099568806" lon="7.8041097529071495"><ele>401.0</ele><time>2026-04-19T10:11:45.999Z</time></trkpt><trkpt lat="44.42812775103669" lon="7.804374395507476"><ele>401.0</ele><time>2026-04-19T10:11:46.999Z</time></trkpt><trkpt lat="44.42820332490042" lon="7.8046369068741495"><ele>401.0</ele><time>2026-04-19T10:11:47.999Z</time></trkpt><trkpt lat="44.42830282285297" lon="7.804898240228205"><ele>401.0</ele><time>2026-04-19T10:11:48.999Z</time></trkpt><trkpt lat="44.42839253034238" lon="7.805177449619118"><ele>401.0</ele><time>2026-04-19T10:11:49.999Z</time></trkpt><trkpt lat="44.42848472153996" lon="7.805446460893462"><ele>401.0</ele><time>2026-04-19T10:11:50.999Z</time></trkpt><trkpt lat="44.42854827811244" lon="7.805707415532172"><ele>401.0</ele><time>2026-04-19T10:11:51.999Z</time></trkpt><trkpt lat="44.42861553078067" lon="7.80595306869117"><ele>401.0</ele><time>2026-04-19T10:11:52.999Z</time></trkpt><trkpt lat="44.42868081762999" lon="7.806186419028128"><ele>401.0</ele><time>2026-04-19T10:11:53.999Z</time></trkpt><trkpt lat="44.42877631827259" lon="7.806394960803561"><ele>401.0</ele><time>2026-04-19T10:11:54.999Z</time></trkpt><trkpt lat="44.428883831329124" lon="7.806594998185216"><ele>401.0</ele><time>2026-04-19T10:11:55.999Z</time></trkpt><trkpt lat="44.42898445068903" lon="7.806787090199766"><ele>401.0</ele><time>2026-04-19T10:11:56.999Z</time></trkpt><trkpt lat="44.42907744659904" lon="7.806971264785355"><ele>401.0</ele><time>2026-04-19T10:11:57.999Z</time></trkpt><trkpt lat="44.42916376065033" lon="7.807147586885754"><ele>401.0</ele><time>2026-04-19T10:11:58.999Z</time></trkpt><trkpt lat="44.429254982200945" lon="7.807312926441208"><ele>401.0</ele><time>2026-04-19T10:11:59.999Z</time></trkpt><trkpt lat="44.42936639438502" lon="7.80747155872689"><ele>401.0</ele><time>2026-04-19T10:12:00.999Z</time></trkpt><trkpt lat="44.429500092547286" lon="7.807635605281793"><ele>401.0</ele><time>2026-04-19T10:12:01.999Z</time></trkpt><trkpt lat="44.42964909412871" lon="7.807804903508057"><ele>400.66666666666663</ele><time>2026-04-19T10:12:02.999Z</time></trkpt><trkpt lat="44.42980208285622" lon="7.807964008288804"><ele>400.33333333333337</ele><time>2026-04-19T10:12:03.999Z</time></trkpt><trkpt lat="44.429951983007356" lon="7.808108843048311"><ele>400.0</ele><time>2026-04-19T10:12:04.999Z</time></trkpt><trkpt lat="44.43009208459334" lon="7.808249555678738"><ele>400.0</ele><time>2026-04-19T10:12:05.999Z</time></trkpt><trkpt lat="44.430223907640574" lon="7.808384782904804"><ele>400.0</ele><time>2026-04-19T10:12:06.999Z</time></trkpt><trkpt lat="44.43034493357751" lon="7.808513438390669"><ele>400.0</ele><time>2026-04-19T10:12:07.999Z</time></trkpt><trkpt lat="44.430457472232824" lon="7.8086250642051604"><ele>400.25</ele><time>2026-04-19T10:12:08.999Z</time></trkpt><trkpt lat="44.43056178252498" lon="7.808730591750215"><ele>400.5</ele><time>2026-04-19T10:12:09.999Z</time></trkpt><trkpt lat="44.43065442850527" lon="7.808839250255192"><ele>400.75</ele><time>2026-04-19T10:12:10.999Z</time></trkpt><trkpt lat="44.43075312563417" lon="7.80892497811556"><ele>401.0</ele><time>2026-04-19T10:12:11.999Z</time></trkpt><trkpt lat="44.43085825457401" lon="7.808989186780282"><ele>401.0</ele><time>2026-04-19T10:12:13Z</time></trkpt><trkpt lat="44.430963751647816" lon="7.809084792827618"><ele>401.0</ele><time>2026-04-19T10:12:14Z</time></trkpt><trkpt lat="44.43108152633569" lon="7.809181294053891"><ele>401.0</ele><time>2026-04-19T10:12:15Z</time></trkpt><trkpt lat="44.43121888016892" lon="7.809278741806952"><ele>401.0</ele><time>2026-04-19T10:12:16Z</time></trkpt><trkpt lat="44.4313648645555" lon="7.809408564957749"><ele>400.3333333333333</ele><time>2026-04-19T10:12:17Z</time></trkpt><trkpt lat="44.43151439476579" lon="7.8095465486407845"><ele>399.66666666666663</ele><time>2026-04-19T10:12:18Z</time></trkpt><trkpt lat="44.431671178281114" lon="7.809699595686767"><ele>399.0</ele><time>2026-04-19T10:12:19Z</time></trkpt><trkpt lat="44.43183962003296" lon="7.809861104855133"><ele>399.0</ele><time>2026-04-19T10:12:20Z</time></trkpt><trkpt lat="44.43201856403514" lon="7.810021461610287"><ele>399.0</ele><time>2026-04-19T10:12:21Z</time></trkpt><trkpt lat="44.432203756821494" lon="7.8101856803672485"><ele>399.0</ele><time>2026-04-19T10:12:22Z</time></trkpt><trkpt lat="44.43238733362755" lon="7.810348527111105"><ele>399.33333333333337</ele><time>2026-04-19T10:12:23Z</time></trkpt><trkpt lat="44.43256541870366" lon="7.810508757738025"><ele>399.6666666666667</ele><time>2026-04-19T10:12:24Z</time></trkpt><trkpt lat="44.43273610158795" lon="7.810661602320012"><ele>400.0</ele><time>2026-04-19T10:12:25Z</time></trkpt><trkpt lat="44.432897777823115" lon="7.810817539968115"><ele>399.6666666666667</ele><time>2026-04-19T10:12:26Z</time></trkpt><trkpt lat="44.43304068815594" lon="7.810987515661348"><ele>399.33333333333337</ele><time>2026-04-19T10:12:27Z</time></trkpt><trkpt lat="44.43317197748324" lon="7.811161294388137"><ele>399.0</ele><time>2026-04-19T10:12:28Z</time></trkpt><trkpt lat="44.433297878775825" lon="7.811331735028677"><ele>399.0</ele><time>2026-04-19T10:12:29Z</time></trkpt><trkpt lat="44.43342010696885" lon="7.811492707088319"><ele>399.0</ele><time>2026-04-19T10:12:30Z</time></trkpt><trkpt lat="44.433536083322394" lon="7.811648663585849"><ele>399.0</ele><time>2026-04-19T10:12:31Z</time></trkpt><trkpt lat="44.43364190688996" lon="7.8118023284199305"><ele>399.0</ele><time>2026-04-19T10:12:32Z</time></trkpt><trkpt lat="44.433747501438056" lon="7.811955843833488"><ele>399.0</ele><time>2026-04-19T10:12:33Z</time></trkpt><trkpt lat="44.433843728490984" lon="7.812101673212762"><ele>399.0</ele><time>2026-04-19T10:12:34Z</time></trkpt><trkpt lat="44.43391135625221" lon="7.812229931178662"><ele>399.0</ele><time>2026-04-19T10:12:35Z</time></trkpt><trkpt lat="44.433978909135504" lon="7.812344837194675"><ele>399.0</ele><time>2026-04-19T10:12:36Z</time></trkpt><trkpt lat="44.434052957795295" lon="7.812461943946943"><ele>399.0</ele><time>2026-04-19T10:12:37Z</time></trkpt><trkpt lat="44.43413335448799" lon="7.81259679950326"><ele>399.0</ele><time>2026-04-19T10:12:38Z</time></trkpt><trkpt lat="44.434227829120125" lon="7.8127488310522395"><ele>399.0</ele><time>2026-04-19T10:12:39Z</time></trkpt><trkpt lat="44.434334921862046" lon="7.812917797553765"><ele>398.66666666666663</ele><time>2026-04-19T10:12:40Z</time></trkpt><trkpt lat="44.43446018558644" lon="7.813100949853037"><ele>398.3333333333333</ele><time>2026-04-19T10:12:41Z</time></trkpt><trkpt lat="44.43460631023166" lon="7.813291607261564"><ele>398.0</ele><time>2026-04-19T10:12:42Z</time></trkpt><trkpt lat="44.434771870734764" lon="7.813495491074995"><ele>397.0</ele><time>2026-04-19T10:12:43Z</time></trkpt><trkpt lat="44.4349520247927" lon="7.813714610174977"><ele>396.0</ele><time>2026-04-19T10:12:44Z</time></trkpt><trkpt lat="44.43513099432357" lon="7.813943633614082"><ele>396.0</ele><time>2026-04-19T10:12:45Z</time></trkpt><trkpt lat="44.43530611646873" lon="7.814175940694413"><ele>396.0</ele><time>2026-04-19T10:12:46Z</time></trkpt><trkpt lat="44.43547085100146" lon="7.814388765354919"><ele>396.66666666666663</ele><time>2026-04-19T10:12:47Z</time></trkpt><trkpt lat="44.435630645905974" lon="7.81459450033336"><ele>397.3333333333333</ele><time>2026-04-19T10:12:48Z</time></trkpt><trkpt lat="44.43579751389746" lon="7.814795165713108"><ele>398.0</ele><time>2026-04-19T10:12:49Z</time></trkpt><trkpt lat="44.43597267317372" lon="7.814988699214651"><ele>397.5</ele><time>2026-04-19T10:12:50Z</time></trkpt><trkpt lat="44.436162951838284" lon="7.815178603898334"><ele>397.0</ele><time>2026-04-19T10:12:51Z</time></trkpt><trkpt lat="44.43636843770629" lon="7.815368480936677"><ele>396.0</ele><time>2026-04-19T10:12:52Z</time></trkpt><trkpt lat="44.43656192716985" lon="7.815557783691728"><ele>395.0</ele><time>2026-04-19T10:12:53Z</time></trkpt><trkpt lat="44.436741507694336" lon="7.815736598885889"><ele>395.0</ele><time>2026-04-19T10:12:54Z</time></trkpt><trkpt lat="44.43691277228138" lon="7.815903863802643"><ele>395.0</ele><time>2026-04-19T10:12:55Z</time></trkpt><trkpt lat="44.43707475781031" lon="7.816064482000224"><ele>395.0</ele><time>2026-04-19T10:12:56Z</time></trkpt><trkpt lat="44.43723253788681" lon="7.8162201329674055"><ele>396.0</ele><time>2026-04-19T10:12:57Z</time></trkpt><trkpt lat="44.43738799064317" lon="7.816368143945163"><ele>397.0</ele><time>2026-04-19T10:12:58Z</time></trkpt><trkpt lat="44.43753751862781" lon="7.816510781666513"><ele>398.0</ele><time>2026-04-19T10:12:59Z</time></trkpt><trkpt lat="44.43768908733753" lon="7.816632896938735"><ele>398.0</ele><time>2026-04-19T10:13:00Z</time></trkpt><trkpt lat="44.437826558485064" lon="7.8167681108243166"><ele>398.0</ele><time>2026-04-19T10:13:01Z</time></trkpt><trkpt lat="44.43796296326189" lon="7.81688803939355"><ele>398.0</ele><time>2026-04-19T10:13:02Z</time></trkpt><trkpt lat="44.43809746389505" lon="7.816993845821214"><ele>397.3333333333333</ele><time>2026-04-19T10:13:03Z</time></trkpt><trkpt lat="44.438216971336196" lon="7.817132335128788"><ele>396.66666666666663</ele><time>2026-04-19T10:13:04Z</time></trkpt><trkpt lat="44.43834219949426" lon="7.817292449526369"><ele>396.0</ele><time>2026-04-19T10:13:05Z</time></trkpt><trkpt lat="44.438463082672556" lon="7.817458160762311"><ele>396.0</ele><time>2026-04-19T10:13:06Z</time></trkpt><trkpt lat="44.438585945433594" lon="7.817600140395373"><ele>396.0</ele><time>2026-04-19T10:13:07Z</time></trkpt><trkpt lat="44.43870505925257" lon="7.817728713218815"><ele>396.0</ele><time>2026-04-19T10:13:08Z</time></trkpt><trkpt lat="44.43881192259398" lon="7.81786391068646"><ele>395.33333333333337</ele><time>2026-04-19T10:13:09Z</time></trkpt><trkpt lat="44.43890745246631" lon="7.818025750439676"><ele>394.6666666666667</ele><time>2026-04-19T10:13:10Z</time></trkpt><trkpt lat="44.43900245740859" lon="7.8182165257285225"><ele>394.0</ele><time>2026-04-19T10:13:11Z</time></trkpt><trkpt lat="44.43910167522423" lon="7.818423979380109"><ele>394.0</ele><time>2026-04-19T10:13:12Z</time></trkpt><trkpt lat="44.439204328506584" lon="7.818631174894665"><ele>394.0</ele><time>2026-04-19T10:13:13Z</time></trkpt><trkpt lat="44.439302768148124" lon="7.8188345303571145"><ele>394.0</ele><time>2026-04-19T10:13:14Z</time></trkpt><trkpt lat="44.43939257029308" lon="7.819043068103291"><ele>394.0</ele><time>2026-04-19T10:13:15Z</time></trkpt><trkpt lat="44.43947197518772" lon="7.819271935319221"><ele>394.0</ele><time>2026-04-19T10:13:16Z</time></trkpt><trkpt lat="44.43955223811059" lon="7.819519019875064"><ele>394.0</ele><time>2026-04-19T10:13:17Z</time></trkpt><trkpt lat="44.4396462805541" lon="7.8197702746340205"><ele>393.6666666666667</ele><time>2026-04-19T10:13:18Z</time></trkpt><trkpt lat="44.43975617453836" lon="7.8200260874289835"><ele>393.33333333333337</ele><time>2026-04-19T10:13:19Z</time></trkpt><trkpt lat="44.43987920419843" lon="7.820287930545504"><ele>393.0</ele><time>2026-04-19T10:13:20Z</time></trkpt><trkpt lat="44.440009099351734" lon="7.820554592235003"><ele>393.0</ele><time>2026-04-19T10:13:21Z</time></trkpt><trkpt lat="44.44013701075894" lon="7.8208204614401895"><ele>393.0</ele><time>2026-04-19T10:13:22Z</time></trkpt><trkpt lat="44.44025914216671" lon="7.821078602472927"><ele>393.0</ele><time>2026-04-19T10:13:23Z</time></trkpt><trkpt lat="44.44037143981459" lon="7.821317657592338"><ele>393.0</ele><time>2026-04-19T10:13:24Z</time></trkpt><trkpt lat="44.44046985893701" lon="7.8215225432688555"><ele>393.0</ele><time>2026-04-19T10:13:25Z</time></trkpt><trkpt lat="44.44055924894073" lon="7.821693983543423"><ele>393.0</ele><time>2026-04-19T10:13:26Z</time></trkpt><trkpt lat="44.44065041313429" lon="7.821833316328455"><ele>393.0</ele><time>2026-04-19T10:13:27Z</time></trkpt><trkpt lat="44.44076438136247" lon="7.821934945096148"><ele>393.0</ele><time>2026-04-19T10:13:28Z</time></trkpt><trkpt lat="44.44090823708343" lon="7.822008662880284"><ele>393.0</ele><time>2026-04-19T10:13:29Z</time></trkpt><trkpt lat="44.4410687813619" lon="7.8220683190272355"><ele>393.0</ele><time>2026-04-19T10:13:30Z</time></trkpt><trkpt lat="44.44122995903262" lon="7.822171978398753"><ele>393.0</ele><time>2026-04-19T10:13:31Z</time></trkpt><trkpt lat="44.4413981644817" lon="7.822268738192606"><ele>393.0</ele><time>2026-04-19T10:13:32Z</time></trkpt><trkpt lat="44.441557196747766" lon="7.8224099230298245"><ele>392.33333333333337</ele><time>2026-04-19T10:13:33Z</time></trkpt><trkpt lat="44.44170425838884" lon="7.82259034547367"><ele>391.6666666666667</ele><time>2026-04-19T10:13:34Z</time></trkpt><trkpt lat="44.44183683150189" lon="7.822804924865071"><ele>391.0</ele><time>2026-04-19T10:13:35Z</time></trkpt><trkpt lat="44.44196887826197" lon="7.823035375165267"><ele>391.0</ele><time>2026-04-19T10:13:36Z</time></trkpt><trkpt lat="44.44210915898592" lon="7.823249229393922"><ele>391.0</ele><time>2026-04-19T10:13:37Z</time></trkpt><trkpt lat="44.44223858806059" lon="7.823459304000334"><ele>391.0</ele><time>2026-04-19T10:13:38Z</time></trkpt><trkpt lat="44.44236901710597" lon="7.823645796816701"><ele>392.0</ele><time>2026-04-19T10:13:39Z</time></trkpt><trkpt lat="44.442494751365274" lon="7.823822566673024"><ele>393.0</ele><time>2026-04-19T10:13:40Z</time></trkpt><trkpt lat="44.44261287799322" lon="7.823990003259792"><ele>394.0</ele><time>2026-04-19T10:13:41Z</time></trkpt><trkpt lat="44.442718913201624" lon="7.824159976070854"><ele>393.33333333333337</ele><time>2026-04-19T10:13:42Z</time></trkpt><trkpt lat="44.44278029709335" lon="7.824365924000183"><ele>392.66666666666663</ele><time>2026-04-19T10:13:43Z</time></trkpt><trkpt lat="44.442835103410104" lon="7.824592537945256"><ele>392.0</ele><time>2026-04-19T10:13:44Z</time></trkpt><trkpt lat="44.442877867073776" lon="7.824834079615867"><ele>392.0</ele><time>2026-04-19T10:13:45Z</time></trkpt><trkpt lat="44.44292672210947" lon="7.825067526849997"><ele>392.0</ele><time>2026-04-19T10:13:46Z</time></trkpt><trkpt lat="44.44295471704066" lon="7.825282419301476"><ele>392.0</ele><time>2026-04-19T10:13:47Z</time></trkpt><trkpt lat="44.442978733316444" lon="7.825469834241709"><ele>392.0</ele><time>2026-04-19T10:13:48Z</time></trkpt><trkpt lat="44.442997355266634" lon="7.82561942309496"><ele>392.0</ele><time>2026-04-19T10:13:49Z</time></trkpt><trkpt lat="44.44301129059524" lon="7.825757042227824"><ele>392.0</ele><time>2026-04-19T10:13:50Z</time></trkpt><trkpt lat="44.44301148412817" lon="7.825893273335553"><ele>392.0</ele><time>2026-04-19T10:13:51Z</time></trkpt><trkpt lat="44.44299525839113" lon="7.8260264361002845"><ele>392.0</ele><time>2026-04-19T10:13:52Z</time></trkpt><trkpt lat="44.4429522374874" lon="7.82612586631864"><ele>392.0</ele><time>2026-04-19T10:13:53Z</time></trkpt><trkpt lat="44.44295663267373" lon="7.826236059248301"><ele>392.0</ele><time>2026-04-19T10:13:55Z</time></trkpt><trkpt lat="44.443033757543404" lon="7.8263627054643505"><ele>392.0</ele><time>2026-04-19T10:13:57Z</time></trkpt><trkpt lat="44.443095774616076" lon="7.826454466269291"><ele>392.0</ele><time>2026-04-19T10:13:58Z</time></trkpt><trkpt lat="44.44317995220932" lon="7.826568811773513"><ele>392.0</ele><time>2026-04-19T10:13:59Z</time></trkpt><trkpt lat="44.44328250532079" lon="7.826704172303835"><ele>392.0</ele><time>2026-04-19T10:14:00Z</time></trkpt><trkpt lat="44.44340619884676" lon="7.826867058911719"><ele>392.0</ele><time>2026-04-19T10:14:01Z</time></trkpt><trkpt lat="44.44354577473012" lon="7.827055521555776"><ele>392.0</ele><time>2026-04-19T10:14:02Z</time></trkpt><trkpt lat="44.44368630433055" lon="7.827248541278386"><ele>392.0</ele><time>2026-04-19T10:14:03Z</time></trkpt><trkpt lat="44.443821127253045" lon="7.827434555943376"><ele>392.0</ele><time>2026-04-19T10:14:04Z</time></trkpt><trkpt lat="44.44395062876251" lon="7.827618651205359"><ele>392.0</ele><time>2026-04-19T10:14:05Z</time></trkpt><trkpt lat="44.44407466903351" lon="7.827787898050516"><ele>392.0</ele><time>2026-04-19T10:14:06Z</time></trkpt><trkpt lat="44.44419482608811" lon="7.827933892147485"><ele>392.0</ele><time>2026-04-19T10:14:07Z</time></trkpt><trkpt lat="44.44431461029806" lon="7.828056151394578"><ele>392.0</ele><time>2026-04-19T10:14:08Z</time></trkpt><trkpt lat="44.4444356933909" lon="7.828152805435015"><ele>392.0</ele><time>2026-04-19T10:14:09Z</time></trkpt><trkpt lat="44.444556350966565" lon="7.828225759793092"><ele>392.0</ele><time>2026-04-19T10:14:10Z</time></trkpt><trkpt lat="44.44467332730806" lon="7.828275537973293"><ele>392.0</ele><time>2026-04-19T10:14:11Z</time></trkpt><trkpt lat="44.44477869413738" lon="7.82832174051793"><ele>392.0</ele><time>2026-04-19T10:14:12Z</time></trkpt><trkpt lat="44.44487032520336" lon="7.828372823600634"><ele>392.0</ele><time>2026-04-19T10:14:13Z</time></trkpt><trkpt lat="44.444946752910354" lon="7.828431631840182"><ele>392.0</ele><time>2026-04-19T10:14:14Z</time></trkpt><trkpt lat="44.445026124631596" lon="7.828434194718349"><ele>392.25</ele><time>2026-04-19T10:14:15Z</time></trkpt><trkpt lat="44.44506921202033" lon="7.828637899101887"><ele>392.5</ele><time>2026-04-19T10:14:16Z</time></trkpt><trkpt lat="44.445122245395574" lon="7.828783682984573"><ele>392.75</ele><time>2026-04-19T10:14:17Z</time></trkpt><trkpt lat="44.445189880974304" lon="7.828933911482368"><ele>393.0</ele><time>2026-04-19T10:14:18Z</time></trkpt><trkpt lat="44.445265210501155" lon="7.829102349873616"><ele>393.0</ele><time>2026-04-19T10:14:19Z</time></trkpt><trkpt lat="44.445329883455734" lon="7.829296644792542"><ele>393.0</ele><time>2026-04-19T10:14:20Z</time></trkpt><trkpt lat="44.44539220296066" lon="7.829501489682088"><ele>393.0</ele><time>2026-04-19T10:14:21Z</time></trkpt><trkpt lat="44.445450477161884" lon="7.829696243960883"><ele>392.75</ele><time>2026-04-19T10:14:22Z</time></trkpt><trkpt lat="44.44550283393007" lon="7.829870325461305"><ele>392.5</ele><time>2026-04-19T10:14:23Z</time></trkpt><trkpt lat="44.44555466832638" lon="7.830028804984027"><ele>392.25</ele><time>2026-04-19T10:14:24Z</time></trkpt><trkpt lat="44.445607907793196" lon="7.830175541419607"><ele>392.0</ele><time>2026-04-19T10:14:25Z</time></trkpt><trkpt lat="44.445662520758844" lon="7.830305877065744"><ele>391.75</ele><time>2026-04-19T10:14:26Z</time></trkpt><trkpt lat="44.44573323150048" lon="7.830425008951892"><ele>391.5</ele><time>2026-04-19T10:14:27Z</time></trkpt><trkpt lat="44.4458368577647" lon="7.830534756575225"><ele>391.25</ele><time>2026-04-19T10:14:28Z</time></trkpt><trkpt lat="44.44595739432938" lon="7.830655335773225"><ele>391.0</ele><time>2026-04-19T10:14:29Z</time></trkpt><trkpt lat="44.446085620114836" lon="7.830794474813969"><ele>391.0</ele><time>2026-04-19T10:14:30Z</time></trkpt><trkpt lat="44.44621316085468" lon="7.8309516011945295"><ele>391.0</ele><time>2026-04-19T10:14:31Z</time></trkpt><trkpt lat="44.44634056114852" lon="7.831119428910146"><ele>391.0</ele><time>2026-04-19T10:14:32Z</time></trkpt><trkpt lat="44.446468053693025" lon="7.831294048893602"><ele>390.6666666666667</ele><time>2026-04-19T10:14:33Z</time></trkpt><trkpt lat="44.446596348571305" lon="7.831474734091054"><ele>390.33333333333337</ele><time>2026-04-19T10:14:34Z</time></trkpt><trkpt lat="44.44671801404993" lon="7.8316699141262385"><ele>390.0</ele><time>2026-04-19T10:14:35Z</time></trkpt><trkpt lat="44.44683152435384" lon="7.831879773003431"><ele>390.0</ele><time>2026-04-19T10:14:36Z</time></trkpt><trkpt lat="44.44694797069406" lon="7.832095703596315"><ele>390.0</ele><time>2026-04-19T10:14:37Z</time></trkpt><trkpt lat="44.447057312750076" lon="7.832315084659257"><ele>390.0</ele><time>2026-04-19T10:14:38Z</time></trkpt><trkpt lat="44.447155018327095" lon="7.832526147804874"><ele>390.66666666666663</ele><time>2026-04-19T10:14:39Z</time></trkpt><trkpt lat="44.44724628332975" lon="7.8327280364238625"><ele>391.3333333333333</ele><time>2026-04-19T10:14:40Z</time></trkpt><trkpt lat="44.44733861112997" lon="7.832915274502494"><ele>392.0</ele><time>2026-04-19T10:14:41Z</time></trkpt><trkpt lat="44.447434044720495" lon="7.83308511633593"><ele>392.0</ele><time>2026-04-19T10:14:42Z</time></trkpt><trkpt lat="44.4475270566817" lon="7.833244365346178"><ele>392.0</ele><time>2026-04-19T10:14:43Z</time></trkpt><trkpt lat="44.447609338529226" lon="7.833400283608276"><ele>392.0</ele><time>2026-04-19T10:14:44Z</time></trkpt><trkpt lat="44.44767912483186" lon="7.833576540325114"><ele>392.0</ele><time>2026-04-19T10:14:45Z</time></trkpt><trkpt lat="44.447727802204724" lon="7.833772630498748"><ele>391.3333333333333</ele><time>2026-04-19T10:14:46Z</time></trkpt><trkpt lat="44.4477590795923" lon="7.833971451244577"><ele>390.66666666666663</ele><time>2026-04-19T10:14:47Z</time></trkpt><trkpt lat="44.4477678526696" lon="7.834179053373552"><ele>390.0</ele><time>2026-04-19T10:14:48Z</time></trkpt><trkpt lat="44.44774838581653" lon="7.834399962688798"><ele>389.66666666666663</ele><time>2026-04-19T10:14:49Z</time></trkpt><trkpt lat="44.447714665880596" lon="7.83463021871692"><ele>389.3333333333333</ele><time>2026-04-19T10:14:50Z</time></trkpt><trkpt lat="44.44767739025113" lon="7.834863360866511"><ele>389.0</ele><time>2026-04-19T10:14:51Z</time></trkpt><trkpt lat="44.44764884930616" lon="7.8350830090800505"><ele>389.0</ele><time>2026-04-19T10:14:52Z</time></trkpt><trkpt lat="44.44763347045648" lon="7.835282789273006"><ele>389.0</ele><time>2026-04-19T10:14:53Z</time></trkpt><trkpt lat="44.44764082448021" lon="7.835465520349108"><ele>389.0</ele><time>2026-04-19T10:14:54Z</time></trkpt><trkpt lat="44.44767578439411" lon="7.83564974789268"><ele>389.0</ele><time>2026-04-19T10:14:55Z</time></trkpt><trkpt lat="44.44774643585304" lon="7.835840975414835"><ele>389.0</ele><time>2026-04-19T10:14:56Z</time></trkpt><trkpt lat="44.447827811334214" lon="7.836034691603684"><ele>389.0</ele><time>2026-04-19T10:14:57Z</time></trkpt><trkpt lat="44.44790268016132" lon="7.83621272128992"><ele>389.0</ele><time>2026-04-19T10:14:58Z</time></trkpt><trkpt lat="44.44797213437261" lon="7.836374066519461"><ele>389.0</ele><time>2026-04-19T10:14:59Z</time></trkpt><trkpt lat="44.44803620302076" lon="7.836531667627568"><ele>389.0</ele><time>2026-04-19T10:15:00Z</time></trkpt><trkpt lat="44.448092399254875" lon="7.836679428298822"><ele>389.0</ele><time>2026-04-19T10:15:01Z</time></trkpt><trkpt lat="44.448129322117644" lon="7.836818420650423"><ele>389.0</ele><time>2026-04-19T10:15:02Z</time></trkpt><trkpt lat="44.44814486891906" lon="7.836958023024828"><ele>389.0</ele><time>2026-04-19T10:15:03Z</time></trkpt><trkpt lat="44.448138807914894" lon="7.837108530389504"><ele>389.0</ele><time>2026-04-19T10:15:04Z</time></trkpt><trkpt lat="44.44812215588807" lon="7.837265018461646"><ele>389.0</ele><time>2026-04-19T10:15:05Z</time></trkpt><trkpt lat="44.448121348329394" lon="7.837423504319395"><ele>389.0</ele><time>2026-04-19T10:15:06Z</time></trkpt><trkpt lat="44.44817400071689" lon="7.837592142569491"><ele>389.0</ele><time>2026-04-19T10:15:07Z</time></trkpt><trkpt lat="44.44824184570393" lon="7.837760218530869"><ele>389.0</ele><time>2026-04-19T10:15:08Z</time></trkpt><trkpt lat="44.44831638456533" lon="7.837941474611628"><ele>389.0</ele><time>2026-04-19T10:15:09Z</time></trkpt><trkpt lat="44.44839159657009" lon="7.8381343229778375"><ele>389.0</ele><time>2026-04-19T10:15:10Z</time></trkpt><trkpt lat="44.448466334097944" lon="7.838329238646659"><ele>389.0</ele><time>2026-04-19T10:15:11Z</time></trkpt><trkpt lat="44.44853638018746" lon="7.838506883152584"><ele>388.75</ele><time>2026-04-19T10:15:12Z</time></trkpt><trkpt lat="44.44860070256728" lon="7.8386737723212265"><ele>388.5</ele><time>2026-04-19T10:15:13Z</time></trkpt><trkpt lat="44.44864769551286" lon="7.838840024907934"><ele>388.25</ele><time>2026-04-19T10:15:14Z</time></trkpt><trkpt lat="44.44869008238491" lon="7.839012637876547"><ele>388.0</ele><time>2026-04-19T10:15:15Z</time></trkpt><trkpt lat="44.44873605564313" lon="7.8391904935914445"><ele>387.75</ele><time>2026-04-19T10:15:16Z</time></trkpt><trkpt lat="44.44878219155476" lon="7.839375177453747"><ele>387.5</ele><time>2026-04-19T10:15:17Z</time></trkpt><trkpt lat="44.4488210255932" lon="7.8395681783235664"><ele>387.25</ele><time>2026-04-19T10:15:18Z</time></trkpt><trkpt lat="44.448849572847074" lon="7.839768821616278"><ele>387.0</ele><time>2026-04-19T10:15:19Z</time></trkpt><trkpt lat="44.44887158372819" lon="7.839979845373415"><ele>387.0</ele><time>2026-04-19T10:15:20Z</time></trkpt><trkpt lat="44.44889131389188" lon="7.840190297272628"><ele>387.0</ele><time>2026-04-19T10:15:21Z</time></trkpt><trkpt lat="44.44890929740856" lon="7.840399628296678"><ele>387.0</ele><time>2026-04-19T10:15:22Z</time></trkpt><trkpt lat="44.44892428259567" lon="7.840597368794561"><ele>387.0</ele><time>2026-04-19T10:15:23Z</time></trkpt><trkpt lat="44.448939876739686" lon="7.840783813516305"><ele>386.75</ele><time>2026-04-19T10:15:24Z</time></trkpt><trkpt lat="44.448955780642294" lon="7.840977885898467"><ele>386.5</ele><time>2026-04-19T10:15:25Z</time></trkpt><trkpt lat="44.44897352185581" lon="7.841179326695241"><ele>386.25</ele><time>2026-04-19T10:15:26Z</time></trkpt><trkpt lat="44.44899268215786" lon="7.841372158906589"><ele>386.0</ele><time>2026-04-19T10:15:27Z</time></trkpt><trkpt lat="44.449007397974576" lon="7.841561922352469"><ele>386.0</ele><time>2026-04-19T10:15:28Z</time></trkpt><trkpt lat="44.44901234262284" lon="7.841762819608817"><ele>386.0</ele><time>2026-04-19T10:15:29Z</time></trkpt><trkpt lat="44.44900342781809" lon="7.841980537810251"><ele>386.0</ele><time>2026-04-19T10:15:30Z</time></trkpt><trkpt lat="44.44899134544703" lon="7.842214101924151"><ele>386.0</ele><time>2026-04-19T10:15:31Z</time></trkpt><trkpt lat="44.448978336163265" lon="7.842460858066003"><ele>386.0</ele><time>2026-04-19T10:15:32Z</time></trkpt><trkpt lat="44.44896473683345" lon="7.84271532753155"><ele>386.0</ele><time>2026-04-19T10:15:33Z</time></trkpt><trkpt lat="44.44895160151255" lon="7.842982540873464"><ele>386.0</ele><time>2026-04-19T10:15:34Z</time></trkpt><trkpt lat="44.44892557949083" lon="7.843262935071694"><ele>386.0</ele><time>2026-04-19T10:15:35Z</time></trkpt><trkpt lat="44.44891307493923" lon="7.843535643286905"><ele>386.0</ele><time>2026-04-19T10:15:36Z</time></trkpt><trkpt lat="44.448903242417956" lon="7.843750543271301"><ele>386.0</ele><time>2026-04-19T10:15:37Z</time></trkpt><trkpt lat="44.44888330815365" lon="7.843979138575291"><ele>386.0</ele><time>2026-04-19T10:15:38Z</time></trkpt><trkpt lat="44.448834883200284" lon="7.844190785900972"><ele>386.0</ele><time>2026-04-19T10:15:39Z</time></trkpt><trkpt lat="44.44878414390806" lon="7.8444000632673685"><ele>386.3333333333333</ele><time>2026-04-19T10:15:40Z</time></trkpt><trkpt lat="44.44871582376335" lon="7.8446248348415475"><ele>386.66666666666663</ele><time>2026-04-19T10:15:41Z</time></trkpt><trkpt lat="44.44862529221077" lon="7.844846820485876"><ele>387.0</ele><time>2026-04-19T10:15:42Z</time></trkpt><trkpt lat="44.44851479785403" lon="7.845065652205897"><ele>387.0</ele><time>2026-04-19T10:15:43Z</time></trkpt><trkpt lat="44.44839287099151" lon="7.845280772527238"><ele>387.0</ele><time>2026-04-19T10:15:44Z</time></trkpt><trkpt lat="44.44827556567226" lon="7.845520277166449"><ele>387.0</ele><time>2026-04-19T10:15:45Z</time></trkpt><trkpt lat="44.448142585634585" lon="7.845750670058221"><ele>386.66666666666663</ele><time>2026-04-19T10:15:46Z</time></trkpt><trkpt lat="44.44800888734921" lon="7.845991828953274"><ele>386.3333333333333</ele><time>2026-04-19T10:15:47Z</time></trkpt><trkpt lat="44.44787699135585" lon="7.8462343809514055"><ele>386.0</ele><time>2026-04-19T10:15:48Z</time></trkpt><trkpt lat="44.447752606704384" lon="7.846459179560139"><ele>385.66666666666663</ele><time>2026-04-19T10:15:49Z</time></trkpt><trkpt lat="44.447630938852924" lon="7.846670208680263"><ele>385.33333333333337</ele><time>2026-04-19T10:15:50Z</time></trkpt><trkpt lat="44.44751744500572" lon="7.8468780554535265"><ele>385.0</ele><time>2026-04-19T10:15:51Z</time></trkpt><trkpt lat="44.44740813272253" lon="7.847078936424642"><ele>384.6666666666667</ele><time>2026-04-19T10:15:52Z</time></trkpt><trkpt lat="44.44730007064927" lon="7.847268164059981"><ele>384.33333333333337</ele><time>2026-04-19T10:15:53Z</time></trkpt><trkpt lat="44.4471991937554" lon="7.847454438216303"><ele>384.0</ele><time>2026-04-19T10:15:54Z</time></trkpt><trkpt lat="44.44710232778646" lon="7.847628420504011"><ele>383.6666666666667</ele><time>2026-04-19T10:15:55Z</time></trkpt><trkpt lat="44.44700791135884" lon="7.847798306127081"><ele>383.33333333333337</ele><time>2026-04-19T10:15:56Z</time></trkpt><trkpt lat="44.44692507455587" lon="7.84797318357825"><ele>383.0</ele><time>2026-04-19T10:15:57Z</time></trkpt><trkpt lat="44.446850311615435" lon="7.848160929307423"><ele>383.0</ele><time>2026-04-19T10:15:58Z</time></trkpt><trkpt lat="44.44676812318877" lon="7.848357420951987"><ele>383.0</ele><time>2026-04-19T10:15:59Z</time></trkpt><trkpt lat="44.446679020986025" lon="7.84855619373849"><ele>383.0</ele><time>2026-04-19T10:16:00Z</time></trkpt><trkpt lat="44.446587027082366" lon="7.848754782644521"><ele>383.0</ele><time>2026-04-19T10:16:01Z</time></trkpt><trkpt lat="44.446500933556976" lon="7.848961393463698"><ele>383.0</ele><time>2026-04-19T10:16:02Z</time></trkpt><trkpt lat="44.44642174259462" lon="7.849180466124496"><ele>383.0</ele><time>2026-04-19T10:16:03Z</time></trkpt><trkpt lat="44.44634937517475" lon="7.849414811939783"><ele>383.33333333333337</ele><time>2026-04-19T10:16:04Z</time></trkpt><trkpt lat="44.44628418800764" lon="7.849663877154066"><ele>383.6666666666667</ele><time>2026-04-19T10:16:05Z</time></trkpt><trkpt lat="44.44621585198916" lon="7.84991894179963"><ele>384.0</ele><time>2026-04-19T10:16:06Z</time></trkpt><trkpt lat="44.44613859294546" lon="7.8501688497523245"><ele>383.0</ele><time>2026-04-19T10:16:07Z</time></trkpt><trkpt lat="44.446058928986204" lon="7.850414161443315"><ele>382.0</ele><time>2026-04-19T10:16:08Z</time></trkpt><trkpt lat="44.44597727857034" lon="7.850642894118529"><ele>381.0</ele><time>2026-04-19T10:16:09Z</time></trkpt><trkpt lat="44.4458874675224" lon="7.85087729782092"><ele>380.3333333333333</ele><time>2026-04-19T10:16:10Z</time></trkpt><trkpt lat="44.44579425100103" lon="7.851107498767809"><ele>379.66666666666663</ele><time>2026-04-19T10:16:11Z</time></trkpt><trkpt lat="44.44569847717963" lon="7.851325338020299"><ele>379.0</ele><time>2026-04-19T10:16:12Z</time></trkpt><trkpt lat="44.445599370016964" lon="7.851528057676104"><ele>379.0</ele><time>2026-04-19T10:16:13Z</time></trkpt><trkpt lat="44.4454997585014" lon="7.851721905880694"><ele>379.0</ele><time>2026-04-19T10:16:14Z</time></trkpt><trkpt lat="44.44540150239043" lon="7.851906631359"><ele>379.0</ele><time>2026-04-19T10:16:15Z</time></trkpt><trkpt lat="44.44530983728326" lon="7.852085264981586"><ele>377.3333333333333</ele><time>2026-04-19T10:16:16Z</time></trkpt><trkpt lat="44.44522094277297" lon="7.85226131097115"><ele>375.6666666666667</ele><time>2026-04-19T10:16:17Z</time></trkpt><trkpt lat="44.445135091851746" lon="7.852431795654355"><ele>374.0</ele><time>2026-04-19T10:16:18Z</time></trkpt><trkpt lat="44.445045840326536" lon="7.852595746787722"><ele>373.75</ele><time>2026-04-19T10:16:19Z</time></trkpt><trkpt lat="44.44494946302987" lon="7.852746569364512"><ele>373.5</ele><time>2026-04-19T10:16:20Z</time></trkpt><trkpt lat="44.44483592150358" lon="7.852870641150323"><ele>373.25</ele><time>2026-04-19T10:16:21Z</time></trkpt><trkpt lat="44.44471206528402" lon="7.852969020553024"><ele>373.0</ele><time>2026-04-19T10:16:22Z</time></trkpt><trkpt lat="44.444580009362525" lon="7.85305167351712"><ele>373.5</ele><time>2026-04-19T10:16:23Z</time></trkpt><trkpt lat="44.444440910941" lon="7.853117315372413"><ele>374.0</ele><time>2026-04-19T10:16:24Z</time></trkpt><trkpt lat="44.44429920209187" lon="7.853167678862184"><ele>374.5</ele><time>2026-04-19T10:16:25Z</time></trkpt><trkpt lat="44.44416861149262" lon="7.85322798639553"><ele>375.0</ele><time>2026-04-19T10:16:26Z</time></trkpt><trkpt lat="44.44405625717858" lon="7.853307276657653"><ele>375.0</ele><time>2026-04-19T10:16:27Z</time></trkpt><trkpt lat="44.44396082618044" lon="7.853396984720215"><ele>375.0</ele><time>2026-04-19T10:16:28Z</time></trkpt><trkpt lat="44.44388479099905" lon="7.853489829400572"><ele>375.0</ele><time>2026-04-19T10:16:29Z</time></trkpt><trkpt lat="44.443826562732404" lon="7.853585955226356"><ele>375.0</ele><time>2026-04-19T10:16:30Z</time></trkpt><trkpt lat="44.44376480972767" lon="7.853702192384772"><ele>375.0</ele><time>2026-04-19T10:16:31Z</time></trkpt><trkpt lat="44.44367672974459" lon="7.853851340305665"><ele>376.0</ele><time>2026-04-19T10:16:32Z</time></trkpt><trkpt lat="44.44359492212905" lon="7.854047327236158"><ele>377.0</ele><time>2026-04-19T10:16:33Z</time></trkpt><trkpt lat="44.4435368510972" lon="7.854288093506113"><ele>378.0</ele><time>2026-04-19T10:16:34Z</time></trkpt><trkpt lat="44.44347790618916" lon="7.854543321117494"><ele>379.0</ele><time>2026-04-19T10:16:35Z</time></trkpt><trkpt lat="44.44342967884265" lon="7.854784817243947"><ele>380.0</ele><time>2026-04-19T10:16:36Z</time></trkpt><trkpt lat="44.44338612083305" lon="7.854992211953336"><ele>381.0</ele><time>2026-04-19T10:16:37Z</time></trkpt><trkpt lat="44.44333129104426" lon="7.855173912654582"><ele>381.0</ele><time>2026-04-19T10:16:38Z</time></trkpt><trkpt lat="44.44326143867277" lon="7.855325432221152"><ele>381.0</ele><time>2026-04-19T10:16:39Z</time></trkpt><trkpt lat="44.44318504906855" lon="7.855474282084485"><ele>381.0</ele><time>2026-04-19T10:16:40Z</time></trkpt><trkpt lat="44.443097084214024" lon="7.855628098859512"><ele>381.0</ele><time>2026-04-19T10:16:41Z</time></trkpt><trkpt lat="44.44299194027283" lon="7.8557747654411925"><ele>381.0</ele><time>2026-04-19T10:16:42Z</time></trkpt><trkpt lat="44.44287122305532" lon="7.855918511440605"><ele>381.0</ele><time>2026-04-19T10:16:43Z</time></trkpt><trkpt lat="44.44274183195315" lon="7.85605865021634"><ele>381.0</ele><time>2026-04-19T10:16:44Z</time></trkpt><trkpt lat="44.44261925911054" lon="7.856187579916327"><ele>381.4</ele><time>2026-04-19T10:16:45Z</time></trkpt><trkpt lat="44.442509643693704" lon="7.856308799434679"><ele>381.8</ele><time>2026-04-19T10:16:46Z</time></trkpt><trkpt lat="44.442414824470276" lon="7.856410808151624"><ele>382.2</ele><time>2026-04-19T10:16:47Z</time></trkpt><trkpt lat="44.44233128365178" lon="7.856495231647827"><ele>382.59999999999997</ele><time>2026-04-19T10:16:48Z</time></trkpt><trkpt lat="44.44225946476573" lon="7.85655745994558"><ele>383.0</ele><time>2026-04-19T10:16:49Z</time></trkpt><trkpt lat="44.4421660745769" lon="7.856621238917167"><ele>383.0</ele><time>2026-04-19T10:16:51Z</time></trkpt><trkpt lat="44.44217668375385" lon="7.856800586939014"><ele>383.0</ele><time>2026-04-19T10:16:53Z</time></trkpt><trkpt lat="44.44223343281332" lon="7.856870353960709"><ele>383.0</ele><time>2026-04-19T10:16:54Z</time></trkpt><trkpt lat="44.442282889198054" lon="7.856955598008749"><ele>383.0</ele><time>2026-04-19T10:16:55Z</time></trkpt><trkpt lat="44.44234383139048" lon="7.857042097725891"><ele>383.0</ele><time>2026-04-19T10:16:56Z</time></trkpt><trkpt lat="44.442411547576114" lon="7.85713633967927"><ele>383.0</ele><time>2026-04-19T10:16:57Z</time></trkpt><trkpt lat="44.44248862604434" lon="7.857245715646819"><ele>383.0</ele><time>2026-04-19T10:16:58Z</time></trkpt><trkpt lat="44.4425760092461" lon="7.857364917396164"><ele>383.0</ele><time>2026-04-19T10:16:59Z</time></trkpt><trkpt lat="44.442678506138265" lon="7.857486202360126"><ele>383.0</ele><time>2026-04-19T10:17:00Z</time></trkpt><trkpt lat="44.44279325250649" lon="7.857598131583412"><ele>383.0</ele><time>2026-04-19T10:17:01Z</time></trkpt><trkpt lat="44.44291981527611" lon="7.8577011113377635"><ele>383.0</ele><time>2026-04-19T10:17:02Z</time></trkpt><trkpt lat="44.443057175217156" lon="7.857791776692444"><ele>383.0</ele><time>2026-04-19T10:17:03Z</time></trkpt><trkpt lat="44.44319655258743" lon="7.857866581537048"><ele>383.0</ele><time>2026-04-19T10:17:04Z</time></trkpt><trkpt lat="44.44332959690521" lon="7.857925807019207"><ele>382.75</ele><time>2026-04-19T10:17:05Z</time></trkpt><trkpt lat="44.443454317269016" lon="7.8579924578436104"><ele>382.5</ele><time>2026-04-19T10:17:06Z</time></trkpt><trkpt lat="44.44356796964452" lon="7.858091492617782"><ele>382.25</ele><time>2026-04-19T10:17:07Z</time></trkpt><trkpt lat="44.443678921215394" lon="7.8582192739039565"><ele>382.0</ele><time>2026-04-19T10:17:08Z</time></trkpt><trkpt lat="44.44379945017778" lon="7.8583602730675715"><ele>382.0</ele><time>2026-04-19T10:17:09Z</time></trkpt><trkpt lat="44.44392946280479" lon="7.858506891100057"><ele>382.0</ele><time>2026-04-19T10:17:10Z</time></trkpt><trkpt lat="44.44406440062104" lon="7.858647807370024"><ele>382.0</ele><time>2026-04-19T10:17:11Z</time></trkpt><trkpt lat="44.444192243026016" lon="7.8587850584512315"><ele>382.0</ele><time>2026-04-19T10:17:12Z</time></trkpt><trkpt lat="44.444316131321756" lon="7.858924616364565"><ele>382.0</ele><time>2026-04-19T10:17:13Z</time></trkpt><trkpt lat="44.444442286682786" lon="7.859069505322898"><ele>382.0</ele><time>2026-04-19T10:17:14Z</time></trkpt><trkpt lat="44.444579229748705" lon="7.859213869901024"><ele>381.66666666666663</ele><time>2026-04-19T10:17:15Z</time></trkpt><trkpt lat="44.44472790355059" lon="7.85935854853715"><ele>381.3333333333333</ele><time>2026-04-19T10:17:16Z</time></trkpt><trkpt lat="44.444878492808925" lon="7.85950044178517"><ele>381.0</ele><time>2026-04-19T10:17:17Z</time></trkpt><trkpt lat="44.44502424931484" lon="7.859636970845636"><ele>381.0</ele><time>2026-04-19T10:17:18Z</time></trkpt><trkpt lat="44.44516222491078" lon="7.859766666668745"><ele>381.0</ele><time>2026-04-19T10:17:19Z</time></trkpt><trkpt lat="44.445290312508696" lon="7.85989491635292"><ele>381.0</ele><time>2026-04-19T10:17:20Z</time></trkpt><trkpt lat="44.44541015265696" lon="7.8600264746293504"><ele>380.5</ele><time>2026-04-19T10:17:21Z</time></trkpt><trkpt lat="44.44552401960203" lon="7.8601600831925325"><ele>380.0</ele><time>2026-04-19T10:17:22Z</time></trkpt><trkpt lat="44.44563193549812" lon="7.860293983225603"><ele>379.5</ele><time>2026-04-19T10:17:23Z</time></trkpt><trkpt lat="44.44574080679718" lon="7.860421439269523"><ele>379.0</ele><time>2026-04-19T10:17:24Z</time></trkpt><trkpt lat="44.445845780484156" lon="7.860546498770512"><ele>379.0</ele><time>2026-04-19T10:17:25Z</time></trkpt><trkpt lat="44.445945573758394" lon="7.860675662404602"><ele>379.0</ele><time>2026-04-19T10:17:26Z</time></trkpt><trkpt lat="44.446033948171646" lon="7.860813161141289"><ele>379.0</ele><time>2026-04-19T10:17:27Z</time></trkpt><trkpt lat="44.446109446012734" lon="7.860959471907488"><ele>379.0</ele><time>2026-04-19T10:17:28Z</time></trkpt><trkpt lat="44.44618572988043" lon="7.861114981834287"><ele>379.0</ele><time>2026-04-19T10:17:29Z</time></trkpt><trkpt lat="44.446267318703484" lon="7.861277589783224"><ele>379.0</ele><time>2026-04-19T10:17:30Z</time></trkpt><trkpt lat="44.44635664360696" lon="7.861452053847781"><ele>379.0</ele><time>2026-04-19T10:17:31Z</time></trkpt><trkpt lat="44.44644467326648" lon="7.861635208477498"><ele>379.0</ele><time>2026-04-19T10:17:32Z</time></trkpt><trkpt lat="44.44654910082553" lon="7.861803911949717"><ele>379.0</ele><time>2026-04-19T10:17:33Z</time></trkpt><trkpt lat="44.446640347075196" lon="7.861980123084822"><ele>379.0</ele><time>2026-04-19T10:17:34Z</time></trkpt><trkpt lat="44.44672365338238" lon="7.862160251911081"><ele>379.0</ele><time>2026-04-19T10:17:35Z</time></trkpt><trkpt lat="44.44679400347966" lon="7.862346622750101"><ele>379.0</ele><time>2026-04-19T10:17:36Z</time></trkpt><trkpt lat="44.446863288870674" lon="7.862526757671343"><ele>379.0</ele><time>2026-04-19T10:17:37Z</time></trkpt><trkpt lat="44.44695417753639" lon="7.862690515951466"><ele>379.0</ele><time>2026-04-19T10:17:38Z</time></trkpt><trkpt lat="44.44706446538728" lon="7.862850317541681"><ele>378.66666666666663</ele><time>2026-04-19T10:17:39Z</time></trkpt><trkpt lat="44.44718249368737" lon="7.863013423034245"><ele>378.3333333333333</ele><time>2026-04-19T10:17:40Z</time></trkpt><trkpt lat="44.447300480767645" lon="7.863180093030659"><ele>378.0</ele><time>2026-04-19T10:17:41Z</time></trkpt><trkpt lat="44.447412822779725" lon="7.863351173697444"><ele>378.3333333333333</ele><time>2026-04-19T10:17:42Z</time></trkpt><trkpt lat="44.447519676232005" lon="7.863529417806205"><ele>378.66666666666663</ele><time>2026-04-19T10:17:43Z</time></trkpt><trkpt lat="44.44762133357168" lon="7.863705569684308"><ele>379.0</ele><time>2026-04-19T10:17:44Z</time></trkpt><trkpt lat="44.44771958243004" lon="7.863873578031354"><ele>379.0</ele><time>2026-04-19T10:17:45Z</time></trkpt><trkpt lat="44.44781704768625" lon="7.8640256526573795"><ele>379.0</ele><time>2026-04-19T10:17:46Z</time></trkpt><trkpt lat="44.4479193222435" lon="7.864160143074636"><ele>379.0</ele><time>2026-04-19T10:17:47Z</time></trkpt><trkpt lat="44.44801974564642" lon="7.864283450863892"><ele>379.0</ele><time>2026-04-19T10:17:48Z</time></trkpt><trkpt lat="44.44810907238983" lon="7.86441420088861"><ele>378.75</ele><time>2026-04-19T10:17:49Z</time></trkpt><trkpt lat="44.44818713805794" lon="7.864551922557063"><ele>378.5</ele><time>2026-04-19T10:17:50Z</time></trkpt><trkpt lat="44.448264938670775" lon="7.864683056148954"><ele>378.25</ele><time>2026-04-19T10:17:51Z</time></trkpt><trkpt lat="44.44833946151146" lon="7.864806356428673"><ele>378.0</ele><time>2026-04-19T10:17:52Z</time></trkpt><trkpt lat="44.44841090029438" lon="7.8649163005450315"><ele>378.0</ele><time>2026-04-19T10:17:53Z</time></trkpt><trkpt lat="44.44847391159648" lon="7.865025166131362"><ele>378.0</ele><time>2026-04-19T10:17:54Z</time></trkpt><trkpt lat="44.44852769822142" lon="7.865137117629569"><ele>378.0</ele><time>2026-04-19T10:17:55Z</time></trkpt><trkpt lat="44.44856473898841" lon="7.865258380061474"><ele>378.0</ele><time>2026-04-19T10:17:56Z</time></trkpt><trkpt lat="44.4485524507416" lon="7.8654057717686765"><ele>378.0</ele><time>2026-04-19T10:17:57Z</time></trkpt><trkpt lat="44.44859227711453" lon="7.8655554661835225"><ele>377.75</ele><time>2026-04-19T10:17:58Z</time></trkpt><trkpt lat="44.448621001873434" lon="7.865716651557895"><ele>377.5</ele><time>2026-04-19T10:17:59Z</time></trkpt><trkpt lat="44.448678502332534" lon="7.865876993183302"><ele>377.25</ele><time>2026-04-19T10:18:00Z</time></trkpt><trkpt lat="44.44875787186306" lon="7.866035713698129"><ele>377.0</ele><time>2026-04-19T10:18:01Z</time></trkpt><trkpt lat="44.44884797408474" lon="7.866185520221124"><ele>376.25</ele><time>2026-04-19T10:18:02Z</time></trkpt><trkpt lat="44.44893721883145" lon="7.866323134785021"><ele>375.5</ele><time>2026-04-19T10:18:03Z</time></trkpt><trkpt lat="44.448997267424026" lon="7.866483534668923"><ele>374.75</ele><time>2026-04-19T10:18:04Z</time></trkpt><trkpt lat="44.44908608326252" lon="7.8666200440610945"><ele>374.0</ele><time>2026-04-19T10:18:05Z</time></trkpt><trkpt lat="44.449169498894136" lon="7.866763093815448"><ele>372.75</ele><time>2026-04-19T10:18:06Z</time></trkpt><trkpt lat="44.44926711486063" lon="7.866886408718704"><ele>371.5</ele><time>2026-04-19T10:18:07Z</time></trkpt><trkpt lat="44.44936980934928" lon="7.866995822801907"><ele>370.25</ele><time>2026-04-19T10:18:08Z</time></trkpt><trkpt lat="44.449444135628376" lon="7.867133516209953"><ele>369.0</ele><time>2026-04-19T10:18:09Z</time></trkpt><trkpt lat="44.44951448722628" lon="7.867277822063491"><ele>369.0</ele><time>2026-04-19T10:18:10Z</time></trkpt><trkpt lat="44.44959111778182" lon="7.867426944775611"><ele>369.0</ele><time>2026-04-19T10:18:11Z</time></trkpt><trkpt lat="44.44965702331706" lon="7.867602786704041"><ele>369.0</ele><time>2026-04-19T10:18:12Z</time></trkpt><trkpt lat="44.44971896371015" lon="7.867790039193545"><ele>369.0</ele><time>2026-04-19T10:18:13Z</time></trkpt><trkpt lat="44.449783035220285" lon="7.867984870595731"><ele>368.0</ele><time>2026-04-19T10:18:14Z</time></trkpt><trkpt lat="44.44985164784785" lon="7.868176691535637"><ele>367.0</ele><time>2026-04-19T10:18:15Z</time></trkpt><trkpt lat="44.44991342915763" lon="7.86836335055235"><ele>366.0</ele><time>2026-04-19T10:18:16Z</time></trkpt><trkpt lat="44.44994534631652" lon="7.868559214018578"><ele>365.0</ele><time>2026-04-19T10:18:17Z</time></trkpt><trkpt lat="44.45000267442866" lon="7.8687303682990555"><ele>364.75</ele><time>2026-04-19T10:18:18Z</time></trkpt><trkpt lat="44.45005298243537" lon="7.86889038652721"><ele>364.5</ele><time>2026-04-19T10:18:19Z</time></trkpt><trkpt lat="44.450119929877665" lon="7.8690284646455915"><ele>364.25</ele><time>2026-04-19T10:18:20Z</time></trkpt><trkpt lat="44.45020479257049" lon="7.869154710794402"><ele>364.0</ele><time>2026-04-19T10:18:21Z</time></trkpt><trkpt lat="44.45030906744893" lon="7.869287066994568"><ele>364.0</ele><time>2026-04-19T10:18:22Z</time></trkpt><trkpt lat="44.450420446891364" lon="7.869427963593139"><ele>364.0</ele><time>2026-04-19T10:18:23Z</time></trkpt><trkpt lat="44.45052976083324" lon="7.869579986906947"><ele>364.0</ele><time>2026-04-19T10:18:24Z</time></trkpt><trkpt lat="44.45065090579676" lon="7.869735351402587"><ele>364.3333333333333</ele><time>2026-04-19T10:18:25Z</time></trkpt><trkpt lat="44.45077882480959" lon="7.869889631282399"><ele>364.6666666666667</ele><time>2026-04-19T10:18:26Z</time></trkpt><trkpt lat="44.45090944709186" lon="7.870017747885601"><ele>365.0</ele><time>2026-04-19T10:18:27Z</time></trkpt><trkpt lat="44.45102625545107" lon="7.870158710208356"><ele>365.0</ele><time>2026-04-19T10:18:28Z</time></trkpt><trkpt lat="44.45114494619769" lon="7.8702808587727535"><ele>365.0</ele><time>2026-04-19T10:18:29Z</time></trkpt><trkpt lat="44.45126888788409" lon="7.870374958286482"><ele>365.0</ele><time>2026-04-19T10:18:30Z</time></trkpt><trkpt lat="44.45138418853092" lon="7.870491913422779"><ele>365.0</ele><time>2026-04-19T10:18:31Z</time></trkpt><trkpt lat="44.45149619341535" lon="7.870603599106976"><ele>365.0</ele><time>2026-04-19T10:18:32Z</time></trkpt><trkpt lat="44.45160612269456" lon="7.870711853414937"><ele>365.0</ele><time>2026-04-19T10:18:33Z</time></trkpt><trkpt lat="44.45171005013062" lon="7.870819232105098"><ele>365.0</ele><time>2026-04-19T10:18:34Z</time></trkpt><trkpt lat="44.45179968507589" lon="7.8709238273490065"><ele>365.0</ele><time>2026-04-19T10:18:35Z</time></trkpt><trkpt lat="44.451885389622" lon="7.8710199342178555"><ele>364.8</ele><time>2026-04-19T10:18:36Z</time></trkpt><trkpt lat="44.45196686335363" lon="7.871113380816414"><ele>364.6</ele><time>2026-04-19T10:18:37Z</time></trkpt><trkpt lat="44.452044027671754" lon="7.871225174015347"><ele>364.4</ele><time>2026-04-19T10:18:38Z</time></trkpt><trkpt lat="44.45211892039303" lon="7.871348852464386"><ele>364.2</ele><time>2026-04-19T10:18:39Z</time></trkpt><trkpt lat="44.452178600493085" lon="7.871473158087405"><ele>364.0</ele><time>2026-04-19T10:18:40Z</time></trkpt><trkpt lat="44.45223360639112" lon="7.871584599722619"><ele>364.3333333333333</ele><time>2026-04-19T10:18:41Z</time></trkpt><trkpt lat="44.452289873342266" lon="7.871673929935951"><ele>364.66666666666663</ele><time>2026-04-19T10:18:42Z</time></trkpt><trkpt lat="44.452352330472735" lon="7.871748737505252"><ele>365.0</ele><time>2026-04-19T10:18:43Z</time></trkpt><trkpt lat="44.45241316250331" lon="7.871821576613837"><ele>365.3333333333333</ele><time>2026-04-19T10:18:44Z</time></trkpt><trkpt lat="44.45245781250797" lon="7.871905166968087"><ele>365.6666666666667</ele><time>2026-04-19T10:18:45Z</time></trkpt><trkpt lat="44.45247575631574" lon="7.872003336653221"><ele>366.0</ele><time>2026-04-19T10:18:46Z</time></trkpt><trkpt lat="44.45249559410991" lon="7.872093081663102"><ele>363.8</ele><time>2026-04-19T10:18:47Z</time></trkpt><trkpt lat="44.452550849376294" lon="7.872168650318577"><ele>361.6</ele><time>2026-04-19T10:18:48Z</time></trkpt><trkpt lat="44.45264100202247" lon="7.872217394477566"><ele>359.4</ele><time>2026-04-19T10:18:49Z</time></trkpt><trkpt lat="44.45275750119954" lon="7.872254608031143"><ele>357.2</ele><time>2026-04-19T10:18:50Z</time></trkpt><trkpt lat="44.4529072748741" lon="7.872296776876158"><ele>355.0</ele><time>2026-04-19T10:18:51Z</time></trkpt><trkpt lat="44.45306204512132" lon="7.872345814673745"><ele>355.0</ele><time>2026-04-19T10:18:52Z</time></trkpt><trkpt lat="44.45321000509748" lon="7.872390275473864"><ele>355.0</ele><time>2026-04-19T10:18:53Z</time></trkpt><trkpt lat="44.453344004935104" lon="7.8724308818095645"><ele>355.0</ele><time>2026-04-19T10:18:54Z</time></trkpt><trkpt lat="44.45346727308201" lon="7.872466559054061"><ele>355.0</ele><time>2026-04-19T10:18:55Z</time></trkpt><trkpt lat="44.45357538175882" lon="7.872499254311569"><ele>355.0</ele><time>2026-04-19T10:18:56Z</time></trkpt><trkpt lat="44.45367200638155" lon="7.872530825014814"><ele>355.0</ele><time>2026-04-19T10:18:57Z</time></trkpt><trkpt lat="44.45375218970213" lon="7.872581296226047"><ele>355.0</ele><time>2026-04-19T10:18:58Z</time></trkpt><trkpt lat="44.45382031992733" lon="7.872667628655669"><ele>355.0</ele><time>2026-04-19T10:18:59Z</time></trkpt><trkpt lat="44.453877651938996" lon="7.872788727693487"><ele>355.0</ele><time>2026-04-19T10:19:00Z</time></trkpt><trkpt lat="44.45393314621973" lon="7.872910462930654"><ele>353.0</ele><time>2026-04-19T10:19:01Z</time></trkpt><trkpt lat="44.45401668454184" lon="7.8729972030728534"><ele>351.0</ele><time>2026-04-19T10:19:02Z</time></trkpt><trkpt lat="44.454127638156784" lon="7.873061463283092"><ele>349.0</ele><time>2026-04-19T10:19:03Z</time></trkpt><trkpt lat="44.454258119960386" lon="7.8731101622182305"><ele>347.0</ele><time>2026-04-19T10:19:04Z</time></trkpt><trkpt lat="44.45437027594822" lon="7.873160247079119"><ele>347.0</ele><time>2026-04-19T10:19:05Z</time></trkpt><trkpt lat="44.45445810195986" lon="7.873219130674594"><ele>347.0</ele><time>2026-04-19T10:19:06Z</time></trkpt><trkpt lat="44.45452113584298" lon="7.873299353787953"><ele>347.0</ele><time>2026-04-19T10:19:07Z</time></trkpt><trkpt lat="44.454557588081556" lon="7.873397820226558"><ele>347.0</ele><time>2026-04-19T10:19:08Z</time></trkpt><trkpt lat="44.45456774056148" lon="7.873502379590719"><ele>347.0</ele><time>2026-04-19T10:19:09Z</time></trkpt><trkpt lat="44.4545952519578" lon="7.873589444659885"><ele>347.0</ele><time>2026-04-19T10:19:10Z</time></trkpt><trkpt lat="44.454656688623764" lon="7.873666811189367"><ele>345.20000000000005</ele><time>2026-04-19T10:19:11Z</time></trkpt><trkpt lat="44.45474317158" lon="7.8737098193030715"><ele>343.4</ele><time>2026-04-19T10:19:12Z</time></trkpt><trkpt lat="44.454846656997546" lon="7.873733667802967"><ele>341.6</ele><time>2026-04-19T10:19:13Z</time></trkpt><trkpt lat="44.45495805770391" lon="7.873762771547111"><ele>339.79999999999995</ele><time>2026-04-19T10:19:14Z</time></trkpt><trkpt lat="44.45506893423532" lon="7.873804881729472"><ele>338.0</ele><time>2026-04-19T10:19:15Z</time></trkpt><trkpt lat="44.45516595142278" lon="7.8738999114585955"><ele>338.0</ele><time>2026-04-19T10:19:16Z</time></trkpt><trkpt lat="44.45528319793027" lon="7.873997097314672"><ele>338.0</ele><time>2026-04-19T10:19:17Z</time></trkpt><trkpt lat="44.45541246658857" lon="7.874104136494882"><ele>338.0</ele><time>2026-04-19T10:19:18Z</time></trkpt><trkpt lat="44.45554940935725" lon="7.874216881611913"><ele>338.0</ele><time>2026-04-19T10:19:19Z</time></trkpt><trkpt lat="44.455693584378494" lon="7.8743298394513"><ele>336.0</ele><time>2026-04-19T10:19:20Z</time></trkpt><trkpt lat="44.45584629423108" lon="7.874417309049177"><ele>334.0</ele><time>2026-04-19T10:19:21Z</time></trkpt><trkpt lat="44.45600164944419" lon="7.874465110945194"><ele>332.0</ele><time>2026-04-19T10:19:22Z</time></trkpt><trkpt lat="44.45614563488028" lon="7.87453669557943"><ele>332.0</ele><time>2026-04-19T10:19:23Z</time></trkpt><trkpt lat="44.4562810767688" lon="7.874606393675117"><ele>332.0</ele><time>2026-04-19T10:19:24Z</time></trkpt><trkpt lat="44.45640656335611" lon="7.874685698444072"><ele>332.0</ele><time>2026-04-19T10:19:25Z</time></trkpt><trkpt lat="44.45651644093484" lon="7.874779516762846"><ele>332.0</ele><time>2026-04-19T10:19:26Z</time></trkpt><trkpt lat="44.45661167400276" lon="7.874885173266137"><ele>330.0</ele><time>2026-04-19T10:19:27Z</time></trkpt><trkpt lat="44.4566953516007" lon="7.874991923677434"><ele>328.0</ele><time>2026-04-19T10:19:28Z</time></trkpt><trkpt lat="44.45677992936522" lon="7.875086803217063"><ele>326.0</ele><time>2026-04-19T10:19:29Z</time></trkpt><trkpt lat="44.456880512198666" lon="7.875170105702832"><ele>324.0</ele><time>2026-04-19T10:19:30Z</time></trkpt><trkpt lat="44.45699453164067" lon="7.875240766912187"><ele>324.0</ele><time>2026-04-19T10:19:31Z</time></trkpt><trkpt lat="44.457118685387194" lon="7.87530336855912"><ele>324.0</ele><time>2026-04-19T10:19:32Z</time></trkpt><trkpt lat="44.45724700377392" lon="7.8753626326179065"><ele>324.0</ele><time>2026-04-19T10:19:33Z</time></trkpt><trkpt lat="44.45736585085031" lon="7.8754184968836265"><ele>324.0</ele><time>2026-04-19T10:19:34Z</time></trkpt><trkpt lat="44.45747721500431" lon="7.875466331632619"><ele>326.79999999999995</ele><time>2026-04-19T10:19:35Z</time></trkpt><trkpt lat="44.45757836863174" lon="7.87551324887951"><ele>329.59999999999997</ele><time>2026-04-19T10:19:36Z</time></trkpt><trkpt lat="44.457673148183005" lon="7.875574000471149"><ele>332.4</ele><time>2026-04-19T10:19:37Z</time></trkpt><trkpt lat="44.4577646736599" lon="7.875650548573872"><ele>335.2</ele><time>2026-04-19T10:19:38Z</time></trkpt><trkpt lat="44.457853132590536" lon="7.875728257376318"><ele>338.0</ele><time>2026-04-19T10:19:39Z</time></trkpt><trkpt lat="44.4579375201336" lon="7.875799779710915"><ele>337.79999999999995</ele><time>2026-04-19T10:19:40Z</time></trkpt><trkpt lat="44.45801641554393" lon="7.875879120650967"><ele>337.6</ele><time>2026-04-19T10:19:41Z</time></trkpt><trkpt lat="44.45808079778774" lon="7.875979048587887"><ele>337.4</ele><time>2026-04-19T10:19:42Z</time></trkpt><trkpt lat="44.45812477921121" lon="7.876105695075412"><ele>337.20000000000005</ele><time>2026-04-19T10:19:43Z</time></trkpt><trkpt lat="44.458153223885745" lon="7.87624841967226"><ele>337.0</ele><time>2026-04-19T10:19:44Z</time></trkpt><trkpt lat="44.45818112156637" lon="7.8763993213056605"><ele>336.0</ele><time>2026-04-19T10:19:45Z</time></trkpt><trkpt lat="44.45820988610376" lon="7.876551239604415"><ele>335.0</ele><time>2026-04-19T10:19:46Z</time></trkpt><trkpt lat="44.45823890932081" lon="7.876691832419532"><ele>334.0</ele><time>2026-04-19T10:19:47Z</time></trkpt><trkpt lat="44.45826764031174" lon="7.876825232374543"><ele>333.0</ele><time>2026-04-19T10:19:48Z</time></trkpt><trkpt lat="44.458295655429346" lon="7.876953619965446"><ele>332.0</ele><time>2026-04-19T10:19:49Z</time></trkpt><trkpt lat="44.458331174531565" lon="7.877071328748368"><ele>329.5</ele><time>2026-04-19T10:19:50Z</time></trkpt><trkpt lat="44.45836219398426" lon="7.877177208283808"><ele>327.0</ele><time>2026-04-19T10:19:51Z</time></trkpt><trkpt lat="44.45838008979701" lon="7.877271444725455"><ele>324.5</ele><time>2026-04-19T10:19:52Z</time></trkpt><trkpt lat="44.458425962688885" lon="7.877335562087683"><ele>322.0</ele><time>2026-04-19T10:19:53Z</time></trkpt><trkpt lat="44.45849219853735" lon="7.877364750871864"><ele>319.5</ele><time>2026-04-19T10:19:54Z</time></trkpt><trkpt lat="44.45856858900239" lon="7.877318626983457"><ele>317.0</ele><time>2026-04-19T10:19:55Z</time></trkpt><trkpt lat="44.45860449193196" lon="7.877202219558497"><ele>317.0</ele><time>2026-04-19T10:19:56Z</time></trkpt><trkpt lat="44.45862812273754" lon="7.877093744782029"><ele>317.0</ele><time>2026-04-19T10:19:57Z</time></trkpt><trkpt lat="44.45864778022623" lon="7.876955705826405"><ele>317.0</ele><time>2026-04-19T10:19:58Z</time></trkpt><trkpt lat="44.45867640362815" lon="7.876802772946601"><ele>317.0</ele><time>2026-04-19T10:19:59Z</time></trkpt><trkpt lat="44.458700361581904" lon="7.876625683591674"><ele>317.0</ele><time>2026-04-19T10:20:00Z</time></trkpt><trkpt lat="44.45874326836314" lon="7.876459478243095"><ele>316.0</ele><time>2026-04-19T10:20:01Z</time></trkpt><trkpt lat="44.4587682947757" lon="7.876294015892872"><ele>315.0</ele><time>2026-04-19T10:20:02Z</time></trkpt><trkpt lat="44.458788878516174" lon="7.876135476529556"><ele>314.0</ele><time>2026-04-19T10:20:03Z</time></trkpt><trkpt lat="44.45880662877658" lon="7.875994599751019"><ele>313.0</ele><time>2026-04-19T10:20:04Z</time></trkpt><trkpt lat="44.458818806229715" lon="7.8758655584889485"><ele>312.0</ele><time>2026-04-19T10:20:05Z</time></trkpt><trkpt lat="44.458829817192395" lon="7.875759411370398"><ele>312.0</ele><time>2026-04-19T10:20:06Z</time></trkpt><trkpt lat="44.45885410019152" lon="7.875600073337331"><ele>312.0</ele><time>2026-04-19T10:20:08Z</time></trkpt><trkpt lat="44.458966256188084" lon="7.875575130502963"><ele>312.0</ele><time>2026-04-19T10:20:10Z</time></trkpt><trkpt lat="44.459032854774705" lon="7.875717871378706"><ele>312.0</ele><time>2026-04-19T10:20:12Z</time></trkpt><trkpt lat="44.459066689827154" lon="7.87580868617329"><ele>312.0</ele><time>2026-04-19T10:20:13Z</time></trkpt><trkpt lat="44.45910759379737" lon="7.875925308443802"><ele>311.8</ele><time>2026-04-19T10:20:14Z</time></trkpt><trkpt lat="44.4591500837065" lon="7.876058155798992"><ele>311.6</ele><time>2026-04-19T10:20:15Z</time></trkpt><trkpt lat="44.459190028877146" lon="7.876203257603364"><ele>311.40000000000003</ele><time>2026-04-19T10:20:16Z</time></trkpt><trkpt lat="44.459225682560614" lon="7.876343756986002"><ele>311.2</ele><time>2026-04-19T10:20:17Z</time></trkpt><trkpt lat="44.45926331866255" lon="7.87647461024866"><ele>311.0</ele><time>2026-04-19T10:20:18Z</time></trkpt><trkpt lat="44.45931123937212" lon="7.876581857793796"><ele>311.0</ele><time>2026-04-19T10:20:19Z</time></trkpt><trkpt lat="44.459366409886876" lon="7.87666973658853"><ele>311.0</ele><time>2026-04-19T10:20:20Z</time></trkpt><trkpt lat="44.45941718490084" lon="7.87673572419713"><ele>311.0</ele><time>2026-04-19T10:20:21Z</time></trkpt><trkpt lat="44.4594802088868" lon="7.876853838324396"><ele>311.0</ele><time>2026-04-19T10:20:23Z</time></trkpt><trkpt lat="44.45948847303728" lon="7.877006093927595"><ele>311.0</ele><time>2026-04-19T10:20:25Z</time></trkpt><trkpt lat="44.4594723189056" lon="7.87711474011771"><ele>311.0</ele><time>2026-04-19T10:20:26Z</time></trkpt><trkpt lat="44.459445090262115" lon="7.877240982518293"><ele>310.25</ele><time>2026-04-19T10:20:27Z</time></trkpt><trkpt lat="44.45941042497879" lon="7.877392722604189"><ele>309.5</ele><time>2026-04-19T10:20:28Z</time></trkpt><trkpt lat="44.459363939869924" lon="7.8775742387253365"><ele>308.75</ele><time>2026-04-19T10:20:29Z</time></trkpt><trkpt lat="44.45930816647545" lon="7.877785039067729"><ele>308.0</ele><time>2026-04-19T10:20:30Z</time></trkpt><trkpt lat="44.45925555323939" lon="7.877999445935608"><ele>305.33333333333337</ele><time>2026-04-19T10:20:31Z</time></trkpt><trkpt lat="44.45920656101462" lon="7.87820388388601"><ele>302.6666666666667</ele><time>2026-04-19T10:20:32Z</time></trkpt><trkpt lat="44.45915921818902" lon="7.878414720980958"><ele>300.0</ele><time>2026-04-19T10:20:33Z</time></trkpt><trkpt lat="44.45911009861491" lon="7.8786141710104545"><ele>299.0</ele><time>2026-04-19T10:20:34Z</time></trkpt><trkpt lat="44.45906242705835" lon="7.878801097944266"><ele>298.0</ele><time>2026-04-19T10:20:35Z</time></trkpt><trkpt lat="44.459022640565614" lon="7.878986754169958"><ele>297.0</ele><time>2026-04-19T10:20:36Z</time></trkpt><trkpt lat="44.4589948970599" lon="7.879165906027691"><ele>296.0</ele><time>2026-04-19T10:20:37Z</time></trkpt><trkpt lat="44.45899059396767" lon="7.87934678702444"><ele>295.0</ele><time>2026-04-19T10:20:38Z</time></trkpt><trkpt lat="44.45901094824404" lon="7.879537920891703"><ele>294.0</ele><time>2026-04-19T10:20:39Z</time></trkpt><trkpt lat="44.4590608653119" lon="7.8797346629504466"><ele>293.0</ele><time>2026-04-19T10:20:40Z</time></trkpt><trkpt lat="44.459139564678715" lon="7.879936811601863"><ele>292.0</ele><time>2026-04-19T10:20:41Z</time></trkpt><trkpt lat="44.4592424868293" lon="7.880158809330591"><ele>291.0</ele><time>2026-04-19T10:20:42Z</time></trkpt><trkpt lat="44.45936087660466" lon="7.880414934752178"><ele>290.0</ele><time>2026-04-19T10:20:43Z</time></trkpt><trkpt lat="44.459477637684714" lon="7.880690592503458"><ele>289.0</ele><time>2026-04-19T10:20:44Z</time></trkpt><trkpt lat="44.45958133744614" lon="7.8809439277786675"><ele>288.0</ele><time>2026-04-19T10:20:45Z</time></trkpt><trkpt lat="44.45968074383242" lon="7.881173644291914"><ele>287.0</ele><time>2026-04-19T10:20:46Z</time></trkpt><trkpt lat="44.45977379210952" lon="7.881361026472243"><ele>287.75</ele><time>2026-04-19T10:20:47Z</time></trkpt><trkpt lat="44.459870113781115" lon="7.881512738328316"><ele>288.5</ele><time>2026-04-19T10:20:48Z</time></trkpt><trkpt lat="44.459983864641984" lon="7.881633750820932"><ele>289.25</ele><time>2026-04-19T10:20:49Z</time></trkpt><trkpt lat="44.46012752076045" lon="7.881724286123284"><ele>290.0</ele><time>2026-04-19T10:20:50Z</time></trkpt><trkpt lat="44.46030634892057" lon="7.881792087307871"><ele>288.0</ele><time>2026-04-19T10:20:51Z</time></trkpt><trkpt lat="44.46051103031819" lon="7.881852261998102"><ele>286.0</ele><time>2026-04-19T10:20:52Z</time></trkpt><trkpt lat="44.46072760249135" lon="7.881913612648389"><ele>284.0</ele><time>2026-04-19T10:20:53Z</time></trkpt><trkpt lat="44.4609260996517" lon="7.881975497144165"><ele>284.0</ele><time>2026-04-19T10:20:54Z</time></trkpt><trkpt lat="44.46111839338862" lon="7.882033996995406"><ele>284.0</ele><time>2026-04-19T10:20:55Z</time></trkpt><trkpt lat="44.46129902890326" lon="7.88211490768606"><ele>284.0</ele><time>2026-04-19T10:20:56Z</time></trkpt><trkpt lat="44.461459251911144" lon="7.882181332350147"><ele>283.75</ele><time>2026-04-19T10:20:57Z</time></trkpt><trkpt lat="44.46159413385543" lon="7.882244989393491"><ele>283.5</ele><time>2026-04-19T10:20:58Z</time></trkpt><trkpt lat="44.461693675178346" lon="7.882357036095956"><ele>283.25</ele><time>2026-04-19T10:20:59Z</time></trkpt><trkpt lat="44.461762876621655" lon="7.882505119441385"><ele>283.0</ele><time>2026-04-19T10:21:00Z</time></trkpt><trkpt lat="44.46180357109876" lon="7.8826785122743255"><ele>281.66666666666663</ele><time>2026-04-19T10:21:01Z</time></trkpt><trkpt lat="44.46181719323412" lon="7.882879732598287"><ele>280.3333333333333</ele><time>2026-04-19T10:21:02Z</time></trkpt><trkpt lat="44.46177575487493" lon="7.883087032106024"><ele>279.0</ele><time>2026-04-19T10:21:03Z</time></trkpt><trkpt lat="44.46176322664212" lon="7.883299020544144"><ele>280.25</ele><time>2026-04-19T10:21:04Z</time></trkpt><trkpt lat="44.46172761180373" lon="7.883500712936771"><ele>281.5</ele><time>2026-04-19T10:21:05Z</time></trkpt><trkpt lat="44.4616958474591" lon="7.8836833549207705"><ele>282.75</ele><time>2026-04-19T10:21:06Z</time></trkpt><trkpt lat="44.46166546389928" lon="7.8838568900337975"><ele>284.0</ele><time>2026-04-19T10:21:07Z</time></trkpt><trkpt lat="44.46164423439633" lon="7.88402691683511"><ele>284.0</ele><time>2026-04-19T10:21:08Z</time></trkpt><trkpt lat="44.46164268138954" lon="7.884200645390581"><ele>284.0</ele><time>2026-04-19T10:21:09Z</time></trkpt><trkpt lat="44.461666859449394" lon="7.88437067627742"><ele>284.0</ele><time>2026-04-19T10:21:10Z</time></trkpt><trkpt lat="44.46171451798851" lon="7.884537018097698"><ele>284.0</ele><time>2026-04-19T10:21:11Z</time></trkpt><trkpt lat="44.461776572589386" lon="7.8846964139103966"><ele>284.75</ele><time>2026-04-19T10:21:12Z</time></trkpt><trkpt lat="44.46185036568623" lon="7.884847954626363"><ele>285.5</ele><time>2026-04-19T10:21:13Z</time></trkpt><trkpt lat="44.46193566079226" lon="7.884993605930022"><ele>286.25</ele><time>2026-04-19T10:21:14Z</time></trkpt><trkpt lat="44.462024046788365" lon="7.8851395808113365"><ele>287.0</ele><time>2026-04-19T10:21:15Z</time></trkpt><trkpt lat="44.46211222742874" lon="7.885288687946806"><ele>287.0</ele><time>2026-04-19T10:21:16Z</time></trkpt><trkpt lat="44.46219793777565" lon="7.885433300596062"><ele>287.0</ele><time>2026-04-19T10:21:17Z</time></trkpt><trkpt lat="44.46227285428216" lon="7.885562433897738"><ele>287.0</ele><time>2026-04-19T10:21:18Z</time></trkpt><trkpt lat="44.4623350241359" lon="7.885673187048667"><ele>287.0</ele><time>2026-04-19T10:21:19Z</time></trkpt><trkpt lat="44.46239213065435" lon="7.885774523835089"><ele>287.0</ele><time>2026-04-19T10:21:20Z</time></trkpt><trkpt lat="44.46243841994061" lon="7.885855269584219"><ele>287.0</ele><time>2026-04-19T10:21:21Z</time></trkpt><trkpt lat="44.4624774242415" lon="7.885925663271177"><ele>287.0</ele><time>2026-04-19T10:21:22Z</time></trkpt><trkpt lat="44.462511455188114" lon="7.8860142634690265"><ele>287.0</ele><time>2026-04-19T10:21:24Z</time></trkpt><trkpt lat="44.462572925097646" lon="7.886092311591837"><ele>287.0</ele><time>2026-04-19T10:22:48Z</time></trkpt><trkpt lat="44.46248291122713" lon="7.886249608937812"><ele>287.0</ele><time>2026-04-19T10:22:50Z</time></trkpt><trkpt lat="44.46237404592496" lon="7.886369850132922"><ele>286.75</ele><time>2026-04-19T10:22:52Z</time></trkpt><trkpt lat="44.4623015706968" lon="7.886454748358793"><ele>286.5</ele><time>2026-04-19T10:22:53Z</time></trkpt><trkpt lat="44.46222026293024" lon="7.886556702215786"><ele>286.25</ele><time>2026-04-19T10:22:54Z</time></trkpt><trkpt lat="44.46212784271588" lon="7.886675847072518"><ele>286.0</ele><time>2026-04-19T10:22:55Z</time></trkpt><trkpt lat="44.46202086237419" lon="7.886807166412464"><ele>284.66666666666663</ele><time>2026-04-19T10:22:56Z</time></trkpt><trkpt lat="44.461903887393646" lon="7.886958597679639"><ele>283.3333333333333</ele><time>2026-04-19T10:22:57Z</time></trkpt><trkpt lat="44.46177047924155" lon="7.887126967413476"><ele>282.0</ele><time>2026-04-19T10:22:58Z</time></trkpt><trkpt lat="44.46162391392625" lon="7.887309153283739"><ele>282.0</ele><time>2026-04-19T10:22:59Z</time></trkpt><trkpt lat="44.46146926573606" lon="7.887501646041275"><ele>282.0</ele><time>2026-04-19T10:23:00Z</time></trkpt><trkpt lat="44.4613072752874" lon="7.887700264608627"><ele>282.0</ele><time>2026-04-19T10:23:01Z</time></trkpt><trkpt lat="44.461148151269924" lon="7.887894774518259"><ele>281.6666666666667</ele><time>2026-04-19T10:23:02Z</time></trkpt><trkpt lat="44.460994720833156" lon="7.88808266758074"><ele>281.33333333333337</ele><time>2026-04-19T10:23:03Z</time></trkpt><trkpt lat="44.460844808293814" lon="7.888269827192742"><ele>281.0</ele><time>2026-04-19T10:23:04Z</time></trkpt><trkpt lat="44.46069226720334" lon="7.888456808246213"><ele>281.0</ele><time>2026-04-19T10:23:05Z</time></trkpt><trkpt lat="44.460543547408214" lon="7.888638328578922"><ele>281.0</ele><time>2026-04-19T10:23:06Z</time></trkpt><trkpt lat="44.460398705667934" lon="7.8888118193017265"><ele>281.0</ele><time>2026-04-19T10:23:07Z</time></trkpt><trkpt lat="44.46025657186803" lon="7.8889869092713285"><ele>281.0</ele><time>2026-04-19T10:23:08Z</time></trkpt><trkpt lat="44.46011313659301" lon="7.889161626586486"><ele>281.0</ele><time>2026-04-19T10:23:09Z</time></trkpt><trkpt lat="44.45996394027251" lon="7.88932921929829"><ele>281.0</ele><time>2026-04-19T10:23:10Z</time></trkpt><trkpt lat="44.45980551898618" lon="7.889488903178359"><ele>279.6666666666667</ele><time>2026-04-19T10:23:11Z</time></trkpt><trkpt lat="44.459633482945804" lon="7.889641340163444"><ele>278.3333333333333</ele><time>2026-04-19T10:23:12Z</time></trkpt><trkpt lat="44.45945161375432" lon="7.889784407926277"><ele>277.0</ele><time>2026-04-19T10:23:13Z</time></trkpt><trkpt lat="44.459259674507415" lon="7.889911575553258"><ele>277.0</ele><time>2026-04-19T10:23:14Z</time></trkpt><trkpt lat="44.459059533536546" lon="7.890029377755194"><ele>277.0</ele><time>2026-04-19T10:23:15Z</time></trkpt><trkpt lat="44.45885498727617" lon="7.890130110128141"><ele>277.0</ele><time>2026-04-19T10:23:16Z</time></trkpt><trkpt lat="44.45864461908233" lon="7.890211972283901"><ele>275.66666666666663</ele><time>2026-04-19T10:23:17Z</time></trkpt><trkpt lat="44.45843019798135" lon="7.890286000556598"><ele>274.3333333333333</ele><time>2026-04-19T10:23:18Z</time></trkpt><trkpt lat="44.458211936677074" lon="7.89035761661637"><ele>273.0</ele><time>2026-04-19T10:23:19Z</time></trkpt><trkpt lat="44.4579832779961" lon="7.890436167345219"><ele>272.5</ele><time>2026-04-19T10:23:20Z</time></trkpt><trkpt lat="44.45774696744971" lon="7.890515695437587"><ele>272.0</ele><time>2026-04-19T10:23:21Z</time></trkpt><trkpt lat="44.457508217748895" lon="7.890604389203031"><ele>272.0</ele><time>2026-04-19T10:23:22Z</time></trkpt><trkpt lat="44.4572507829806" lon="7.890701413824815"><ele>272.0</ele><time>2026-04-19T10:23:23Z</time></trkpt><trkpt lat="44.45698544699829" lon="7.890798162540422"><ele>273.5</ele><time>2026-04-19T10:23:24Z</time></trkpt><trkpt lat="44.45671675766926" lon="7.890895820004763"><ele>275.0</ele><time>2026-04-19T10:23:25Z</time></trkpt><trkpt lat="44.45643958935679" lon="7.890988128941385"><ele>278.5</ele><time>2026-04-19T10:23:26Z</time></trkpt><trkpt lat="44.45616987095549" lon="7.891078924769156"><ele>282.0</ele><time>2026-04-19T10:23:27Z</time></trkpt><trkpt lat="44.45591388434978" lon="7.891164802688281"><ele>282.0</ele><time>2026-04-19T10:23:28Z</time></trkpt><trkpt lat="44.45567698163394" lon="7.891248729559153"><ele>282.0</ele><time>2026-04-19T10:23:29Z</time></trkpt><trkpt lat="44.45544412802775" lon="7.891321894576456"><ele>283.0</ele><time>2026-04-19T10:23:30Z</time></trkpt><trkpt lat="44.45522528413058" lon="7.891393350586934"><ele>284.0</ele><time>2026-04-19T10:23:31Z</time></trkpt><trkpt lat="44.45501877043464" lon="7.8914668469133"><ele>285.0</ele><time>2026-04-19T10:23:32Z</time></trkpt><trkpt lat="44.45482697862777" lon="7.891538002112589"><ele>285.0</ele><time>2026-04-19T10:23:33Z</time></trkpt><trkpt lat="44.45464819765245" lon="7.891602815421873"><ele>285.0</ele><time>2026-04-19T10:23:34Z</time></trkpt><trkpt lat="44.45448837862857" lon="7.891655169010888"><ele>285.0</ele><time>2026-04-19T10:23:35Z</time></trkpt><trkpt lat="44.4543360026151" lon="7.891707670755536"><ele>284.6</ele><time>2026-04-19T10:23:36Z</time></trkpt><trkpt lat="44.45419708630734" lon="7.891753210615681"><ele>284.2</ele><time>2026-04-19T10:23:37Z</time></trkpt><trkpt lat="44.454079407327086" lon="7.8917909518326725"><ele>283.8</ele><time>2026-04-19T10:23:38Z</time></trkpt><trkpt lat="44.453988871775785" lon="7.891825222725776"><ele>283.4</ele><time>2026-04-19T10:23:39Z</time></trkpt><trkpt lat="44.45391850885049" lon="7.89186674746027"><ele>283.0</ele><time>2026-04-19T10:23:40Z</time></trkpt><trkpt lat="44.45382452746328" lon="7.891887855054591"><ele>283.0</ele><time>2026-04-19T10:23:42Z</time></trkpt><trkpt lat="44.45383935047739" lon="7.892082160154928"><ele>283.0</ele><time>2026-04-19T10:23:43Z</time></trkpt><trkpt lat="44.453864211788165" lon="7.892286905828143"><ele>283.0</ele><time>2026-04-19T10:23:45Z</time></trkpt><trkpt lat="44.45387903903481" lon="7.892412536644717"><ele>283.0</ele><time>2026-04-19T10:23:46Z</time></trkpt><trkpt lat="44.45390698653273" lon="7.892545802034292"><ele>282.75</ele><time>2026-04-19T10:23:47Z</time></trkpt><trkpt lat="44.45395445237216" lon="7.892675199824972"><ele>282.5</ele><time>2026-04-19T10:23:48Z</time></trkpt><trkpt lat="44.45401872418187" lon="7.8928120306390674"><ele>282.25</ele><time>2026-04-19T10:23:49Z</time></trkpt><trkpt lat="44.454092470735674" lon="7.8929705228001925"><ele>282.0</ele><time>2026-04-19T10:23:50Z</time></trkpt><trkpt lat="44.45417245447721" lon="7.893144127454712"><ele>282.0</ele><time>2026-04-19T10:23:51Z</time></trkpt><trkpt lat="44.45426037132918" lon="7.893323739093415"><ele>282.0</ele><time>2026-04-19T10:23:52Z</time></trkpt><trkpt lat="44.45435133043291" lon="7.893500775990582"><ele>282.0</ele><time>2026-04-19T10:23:53Z</time></trkpt><trkpt lat="44.45444019408649" lon="7.893668038378373"><ele>281.25</ele><time>2026-04-19T10:23:54Z</time></trkpt><trkpt lat="44.454525473715165" lon="7.893824060749804"><ele>280.5</ele><time>2026-04-19T10:23:55Z</time></trkpt><trkpt lat="44.454606861267564" lon="7.893956012182642"><ele>279.75</ele><time>2026-04-19T10:23:56Z</time></trkpt><trkpt lat="44.45468470037049" lon="7.894057243321021"><ele>279.0</ele><time>2026-04-19T10:23:57Z</time></trkpt><trkpt lat="44.454759922017246" lon="7.89413181713026"><ele>281.0</ele><time>2026-04-19T10:23:58Z</time></trkpt><trkpt lat="44.454831190083866" lon="7.894191368783917"><ele>283.0</ele><time>2026-04-19T10:23:59Z</time></trkpt><trkpt lat="44.454897055459156" lon="7.894253968414865"><ele>285.0</ele><time>2026-04-19T10:24:00Z</time></trkpt><trkpt lat="44.45495391103869" lon="7.894350619778917"><ele>287.0</ele><time>2026-04-19T10:24:01Z</time></trkpt><trkpt lat="44.45497697134648" lon="7.894482200444153"><ele>289.0</ele><time>2026-04-19T10:24:02Z</time></trkpt><trkpt lat="44.45502335023174" lon="7.894617263288365"><ele>289.0</ele><time>2026-04-19T10:24:03Z</time></trkpt><trkpt lat="44.45505538689768" lon="7.8947998095705"><ele>289.0</ele><time>2026-04-19T10:24:04Z</time></trkpt><trkpt lat="44.45510328303718" lon="7.895025307152963"><ele>289.0</ele><time>2026-04-19T10:24:05Z</time></trkpt><trkpt lat="44.4551496237577" lon="7.895250884260159"><ele>290.5</ele><time>2026-04-19T10:24:06Z</time></trkpt><trkpt lat="44.45518726971877" lon="7.895432944053571"><ele>292.0</ele><time>2026-04-19T10:24:07Z</time></trkpt><trkpt lat="44.45523259579355" lon="7.895579562918019"><ele>293.5</ele><time>2026-04-19T10:24:08Z</time></trkpt><trkpt lat="44.45530229338581" lon="7.895713810506063"><ele>295.0</ele><time>2026-04-19T10:24:09Z</time></trkpt><trkpt lat="44.45539499847159" lon="7.895831348541906"><ele>301.75</ele><time>2026-04-19T10:24:10Z</time></trkpt><trkpt lat="44.4555036034731" lon="7.895934395637809"><ele>308.5</ele><time>2026-04-19T10:24:11Z</time></trkpt><trkpt lat="44.45562216435877" lon="7.8960386666088445"><ele>315.25</ele><time>2026-04-19T10:24:12Z</time></trkpt><trkpt lat="44.455741211945316" lon="7.896148538819764"><ele>322.0</ele><time>2026-04-19T10:24:13Z</time></trkpt><trkpt lat="44.455864844784294" lon="7.896246197630273"><ele>322.0</ele><time>2026-04-19T10:24:14Z</time></trkpt><trkpt lat="44.455997351976784" lon="7.896320411727404"><ele>322.0</ele><time>2026-04-19T10:24:15Z</time></trkpt><trkpt lat="44.45614157511647" lon="7.8963686785428155"><ele>322.0</ele><time>2026-04-19T10:24:16Z</time></trkpt><trkpt lat="44.456291191592975" lon="7.896410776199088"><ele>322.0</ele><time>2026-04-19T10:24:17Z</time></trkpt><trkpt lat="44.45643472567564" lon="7.8964652672334"><ele>321.25</ele><time>2026-04-19T10:24:18Z</time></trkpt><trkpt lat="44.456563056805116" lon="7.89656527644672"><ele>320.5</ele><time>2026-04-19T10:24:19Z</time></trkpt><trkpt lat="44.45669967381147" lon="7.896642713645344"><ele>319.75</ele><time>2026-04-19T10:24:20Z</time></trkpt><trkpt lat="44.456829887108114" lon="7.896743818148291"><ele>319.0</ele><time>2026-04-19T10:24:21Z</time></trkpt><trkpt lat="44.4569511173903" lon="7.896832629680868"><ele>323.0</ele><time>2026-04-19T10:24:22Z</time></trkpt><trkpt lat="44.45705789135737" lon="7.896899127200082"><ele>327.0</ele><time>2026-04-19T10:24:23Z</time></trkpt><trkpt lat="44.4571474762868" lon="7.896913233695974"><ele>331.0</ele><time>2026-04-19T10:24:24Z</time></trkpt><trkpt lat="44.457212817080524" lon="7.896895215436474"><ele>335.0</ele><time>2026-04-19T10:24:25Z</time></trkpt><trkpt lat="44.45729192357228" lon="7.896923989758884"><ele>339.0</ele><time>2026-04-19T10:24:27Z</time></trkpt><trkpt lat="44.457299931678556" lon="7.897040959424665"><ele>343.0</ele><time>2026-04-19T10:24:29Z</time></trkpt><trkpt lat="44.45721387693995" lon="7.897146099789989"><ele>343.0</ele><time>2026-04-19T10:24:31Z</time></trkpt><trkpt lat="44.45715477501469" lon="7.8972203300023756"><ele>343.0</ele><time>2026-04-19T10:24:32Z</time></trkpt><trkpt lat="44.45706561003816" lon="7.89727775440795"><ele>343.0</ele><time>2026-04-19T10:24:33Z</time></trkpt><trkpt lat="44.4569565755093" lon="7.897336010310219"><ele>343.0</ele><time>2026-04-19T10:24:34Z</time></trkpt><trkpt lat="44.456830524018834" lon="7.897396290594384"><ele>343.0</ele><time>2026-04-19T10:24:35Z</time></trkpt><trkpt lat="44.45669024636584" lon="7.897452675188239"><ele>343.0</ele><time>2026-04-19T10:24:36Z</time></trkpt><trkpt lat="44.456540464048935" lon="7.897504968439381"><ele>343.0</ele><time>2026-04-19T10:24:37Z</time></trkpt><trkpt lat="44.45638443639101" lon="7.897555935927187"><ele>343.0</ele><time>2026-04-19T10:24:38Z</time></trkpt><trkpt lat="44.45624578468142" lon="7.897566652477413"><ele>348.0</ele><time>2026-04-19T10:24:39Z</time></trkpt><trkpt lat="44.45613738073401" lon="7.8976075382399555"><ele>353.0</ele><time>2026-04-19T10:24:40Z</time></trkpt><trkpt lat="44.45604687102078" lon="7.897615574786339"><ele>358.0</ele><time>2026-04-19T10:24:41Z</time></trkpt><trkpt lat="44.455982670909854" lon="7.89762918617057"><ele>363.0</ele><time>2026-04-19T10:24:42Z</time></trkpt><trkpt lat="44.45590681806657" lon="7.8976848055499165"><ele>368.0</ele><time>2026-04-19T10:24:44Z</time></trkpt><trkpt lat="44.455963499111746" lon="7.897862342748258"><ele>368.0</ele><time>2026-04-19T10:24:47Z</time></trkpt><trkpt lat="44.45603744587321" lon="7.897902695993454"><ele>368.0</ele><time>2026-04-19T10:24:48Z</time></trkpt><trkpt lat="44.456126212482886" lon="7.897936633579769"><ele>368.0</ele><time>2026-04-19T10:24:49Z</time></trkpt><trkpt lat="44.456242025409644" lon="7.89797023394715"><ele>368.0</ele><time>2026-04-19T10:24:50Z</time></trkpt><trkpt lat="44.456361156265245" lon="7.898045377119425"><ele>368.0</ele><time>2026-04-19T10:24:51Z</time></trkpt><trkpt lat="44.45649967657017" lon="7.898105580370986"><ele>367.75</ele><time>2026-04-19T10:24:52Z</time></trkpt><trkpt lat="44.456643475046924" lon="7.898162563137019"><ele>367.5</ele><time>2026-04-19T10:24:53Z</time></trkpt><trkpt lat="44.45678354106044" lon="7.898213420852739"><ele>367.25</ele><time>2026-04-19T10:24:54Z</time></trkpt><trkpt lat="44.456921686820735" lon="7.898231459352339"><ele>367.0</ele><time>2026-04-19T10:24:55Z</time></trkpt><trkpt lat="44.45705538683665" lon="7.898256167231607"><ele>367.5</ele><time>2026-04-19T10:24:56Z</time></trkpt><trkpt lat="44.45719217631542" lon="7.898285764080003"><ele>368.0</ele><time>2026-04-19T10:24:57Z</time></trkpt><trkpt lat="44.45733690984443" lon="7.898262037936189"><ele>368.5</ele><time>2026-04-19T10:24:58Z</time></trkpt><trkpt lat="44.45747474779305" lon="7.898258289750116"><ele>369.0</ele><time>2026-04-19T10:24:59Z</time></trkpt><trkpt lat="44.45759811031414" lon="7.898224196908654"><ele>369.0</ele><time>2026-04-19T10:25:00Z</time></trkpt><trkpt lat="44.4577174541327" lon="7.898188908973807"><ele>369.0</ele><time>2026-04-19T10:25:01Z</time></trkpt><trkpt lat="44.457809730890844" lon="7.898183019894318"><ele>369.0</ele><time>2026-04-19T10:25:02Z</time></trkpt><trkpt lat="44.45789187244522" lon="7.898170421111224"><ele>369.0</ele><time>2026-04-19T10:25:03Z</time></trkpt><trkpt lat="44.457949687049215" lon="7.898217467165404"><ele>369.0</ele><time>2026-04-19T10:25:04Z</time></trkpt><trkpt lat="44.45798215840604" lon="7.898301943619066"><ele>369.0</ele><time>2026-04-19T10:25:06Z</time></trkpt><trkpt lat="44.45794337854045" lon="7.898390967045627"><ele>369.0</ele><time>2026-04-19T10:25:09Z</time></trkpt><trkpt lat="44.45786720649897" lon="7.898401517367576"><ele>369.0</ele><time>2026-04-19T10:25:11Z</time></trkpt><trkpt lat="44.457752206248" lon="7.898437253783025"><ele>369.0</ele><time>2026-04-19T10:25:13Z</time></trkpt><trkpt lat="44.45767977608184" lon="7.89846328878091"><ele>369.0</ele><time>2026-04-19T10:25:14Z</time></trkpt><trkpt lat="44.457592474379865" lon="7.898515879503025"><ele>369.0</ele><time>2026-04-19T10:25:15Z</time></trkpt><trkpt lat="44.45749023958298" lon="7.898547799658836"><ele>367.75</ele><time>2026-04-19T10:25:16Z</time></trkpt><trkpt lat="44.45738164289554" lon="7.8985860324611625"><ele>366.5</ele><time>2026-04-19T10:25:17Z</time></trkpt><trkpt lat="44.45726955856971" lon="7.898614206649266"><ele>365.25</ele><time>2026-04-19T10:25:18Z</time></trkpt><trkpt lat="44.45715484383768" lon="7.89862428482369"><ele>364.0</ele><time>2026-04-19T10:25:19Z</time></trkpt><trkpt lat="44.457036579926296" lon="7.898575301829183"><ele>367.0</ele><time>2026-04-19T10:25:20Z</time></trkpt><trkpt lat="44.45691886782391" lon="7.8985222049856265"><ele>370.0</ele><time>2026-04-19T10:25:21Z</time></trkpt><trkpt lat="44.4567884648932" lon="7.898501018638349"><ele>373.0</ele><time>2026-04-19T10:25:22Z</time></trkpt><trkpt lat="44.45665498192407" lon="7.898479448541926"><ele>376.0</ele><time>2026-04-19T10:25:23Z</time></trkpt><trkpt lat="44.45650939017038" lon="7.898491867450133"><ele>376.0</ele><time>2026-04-19T10:25:24Z</time></trkpt><trkpt lat="44.45634783272266" lon="7.898512624319654"><ele>376.0</ele><time>2026-04-19T10:25:25Z</time></trkpt><trkpt lat="44.4561830294637" lon="7.898527321525765"><ele>376.0</ele><time>2026-04-19T10:25:26Z</time></trkpt><trkpt lat="44.45603291574424" lon="7.898537618166846"><ele>376.25</ele><time>2026-04-19T10:25:27Z</time></trkpt><trkpt lat="44.45589407851413" lon="7.898548581511452"><ele>376.5</ele><time>2026-04-19T10:25:28Z</time></trkpt><trkpt lat="44.455765300377124" lon="7.898524524686917"><ele>376.75</ele><time>2026-04-19T10:25:29Z</time></trkpt><trkpt lat="44.45563838593682" lon="7.898519036314647"><ele>377.0</ele><time>2026-04-19T10:25:30Z</time></trkpt><trkpt lat="44.45551962881477" lon="7.898535795454142"><ele>375.75</ele><time>2026-04-19T10:25:31Z</time></trkpt><trkpt lat="44.455407549492186" lon="7.898546917997718"><ele>374.5</ele><time>2026-04-19T10:25:32Z</time></trkpt><trkpt lat="44.455300022772704" lon="7.898596823900153"><ele>373.25</ele><time>2026-04-19T10:25:33Z</time></trkpt><trkpt lat="44.45519141090487" lon="7.898682135017588"><ele>372.0</ele><time>2026-04-19T10:25:34Z</time></trkpt><trkpt lat="44.45507731483994" lon="7.898780528656782"><ele>372.0</ele><time>2026-04-19T10:25:35Z</time></trkpt><trkpt lat="44.4549595985178" lon="7.898869659201967"><ele>372.0</ele><time>2026-04-19T10:25:36Z</time></trkpt><trkpt lat="44.45485911298861" lon="7.898963581042319"><ele>372.0</ele><time>2026-04-19T10:25:37Z</time></trkpt><trkpt lat="44.45477278538936" lon="7.899051325091069"><ele>372.0</ele><time>2026-04-19T10:25:38Z</time></trkpt><trkpt lat="44.454698275956716" lon="7.899124255117855"><ele>372.0</ele><time>2026-04-19T10:25:39Z</time></trkpt><trkpt lat="44.45463694550546" lon="7.899180489142645"><ele>372.0</ele><time>2026-04-19T10:25:40Z</time></trkpt><trkpt lat="44.45458957331638" lon="7.899313144401226"><ele>372.0</ele><time>2026-04-19T10:25:42Z</time></trkpt><trkpt lat="44.45461952966856" lon="7.899503640446489"><ele>372.0</ele><time>2026-04-19T10:25:44Z</time></trkpt><trkpt lat="44.45465510463536" lon="7.899618983384679"><ele>372.0</ele><time>2026-04-19T10:25:45Z</time></trkpt><trkpt lat="44.454688898500365" lon="7.899736734373435"><ele>372.8333333333333</ele><time>2026-04-19T10:25:46Z</time></trkpt><trkpt lat="44.4546821626026" lon="7.899849364215953"><ele>373.6666666666667</ele><time>2026-04-19T10:25:47Z</time></trkpt><trkpt lat="44.454684654240964" lon="7.899946260607144"><ele>374.5</ele><time>2026-04-19T10:25:48Z</time></trkpt><trkpt lat="44.45465071108483" lon="7.900028158004339"><ele>375.33333333333337</ele><time>2026-04-19T10:25:49Z</time></trkpt><trkpt lat="44.454598185948804" lon="7.900090896977072"><ele>376.1666666666667</ele><time>2026-04-19T10:25:50Z</time></trkpt><trkpt lat="44.45452490376883" lon="7.900149837514826"><ele>377.0</ele><time>2026-04-19T10:25:51Z</time></trkpt><trkpt lat="44.45443890585756" lon="7.900220944937763"><ele>377.0</ele><time>2026-04-19T10:25:52Z</time></trkpt><trkpt lat="44.454343988563814" lon="7.900309961037335"><ele>377.0</ele><time>2026-04-19T10:25:53Z</time></trkpt><trkpt lat="44.454244792127575" lon="7.900419925429614"><ele>377.0</ele><time>2026-04-19T10:25:54Z</time></trkpt><trkpt lat="44.454137944862666" lon="7.900552721097869"><ele>377.0</ele><time>2026-04-19T10:25:55Z</time></trkpt><trkpt lat="44.45402197362308" lon="7.900688846206681"><ele>377.0</ele><time>2026-04-19T10:25:56Z</time></trkpt><trkpt lat="44.45390008473787" lon="7.900833281328489"><ele>377.0</ele><time>2026-04-19T10:25:57Z</time></trkpt><trkpt lat="44.45378290004394" lon="7.900962962223931"><ele>377.0</ele><time>2026-04-19T10:25:58Z</time></trkpt><trkpt lat="44.45367195689895" lon="7.901080322456405"><ele>377.0</ele><time>2026-04-19T10:25:59Z</time></trkpt><trkpt lat="44.45355970145882" lon="7.901178497384021"><ele>379.5</ele><time>2026-04-19T10:26:00Z</time></trkpt><trkpt lat="44.4534471044847" lon="7.901258413083931"><ele>382.0</ele><time>2026-04-19T10:26:01Z</time></trkpt><trkpt lat="44.45334331058655" lon="7.901341991159226"><ele>384.5</ele><time>2026-04-19T10:26:02Z</time></trkpt><trkpt lat="44.4532540868937" lon="7.901439111971748"><ele>387.0</ele><time>2026-04-19T10:26:03Z</time></trkpt><trkpt lat="44.45318014851984" lon="7.901545295431851"><ele>387.0</ele><time>2026-04-19T10:26:04Z</time></trkpt><trkpt lat="44.45311405300548" lon="7.90167546565538"><ele>387.0</ele><time>2026-04-19T10:26:05Z</time></trkpt><trkpt lat="44.453055423211495" lon="7.90183641579974"><ele>387.0</ele><time>2026-04-19T10:26:06Z</time></trkpt><trkpt lat="44.452996659926605" lon="7.902018101826868"><ele>387.0</ele><time>2026-04-19T10:26:07Z</time></trkpt><trkpt lat="44.452933398017734" lon="7.902208510399455"><ele>387.33333333333337</ele><time>2026-04-19T10:26:08Z</time></trkpt><trkpt lat="44.4528638536844" lon="7.902395107968558"><ele>387.6666666666667</ele><time>2026-04-19T10:26:09Z</time></trkpt><trkpt lat="44.45278010946557" lon="7.902588431203343"><ele>388.0</ele><time>2026-04-19T10:26:10Z</time></trkpt><trkpt lat="44.45268213890996" lon="7.902773047145552"><ele>388.0</ele><time>2026-04-19T10:26:11Z</time></trkpt><trkpt lat="44.45257238744981" lon="7.902952574429792"><ele>388.0</ele><time>2026-04-19T10:26:12Z</time></trkpt><trkpt lat="44.45245005856969" lon="7.903135292219264"><ele>388.0</ele><time>2026-04-19T10:26:13Z</time></trkpt><trkpt lat="44.45232600959455" lon="7.903318245686667"><ele>388.33333333333337</ele><time>2026-04-19T10:26:14Z</time></trkpt><trkpt lat="44.45218350683779" lon="7.9034745426467925"><ele>388.66666666666663</ele><time>2026-04-19T10:26:15Z</time></trkpt><trkpt lat="44.452065426371064" lon="7.903663731721652"><ele>389.0</ele><time>2026-04-19T10:26:16Z</time></trkpt><trkpt lat="44.451947246587" lon="7.90384595077385"><ele>390.3333333333333</ele><time>2026-04-19T10:26:17Z</time></trkpt><trkpt lat="44.45183823133613" lon="7.904032529200113"><ele>391.66666666666663</ele><time>2026-04-19T10:26:18Z</time></trkpt><trkpt lat="44.45173602620664" lon="7.904213471290437"><ele>393.0</ele><time>2026-04-19T10:26:19Z</time></trkpt><trkpt lat="44.45164698674604" lon="7.904378159635509"><ele>393.0</ele><time>2026-04-19T10:26:20Z</time></trkpt><trkpt lat="44.451570136900465" lon="7.904530209722309"><ele>393.0</ele><time>2026-04-19T10:26:21Z</time></trkpt><trkpt lat="44.45149006499645" lon="7.904670168517239"><ele>393.0</ele><time>2026-04-19T10:26:22Z</time></trkpt><trkpt lat="44.45139398168392" lon="7.904805685259804"><ele>393.0</ele><time>2026-04-19T10:26:23Z</time></trkpt><trkpt lat="44.451269997094116" lon="7.904909456812923"><ele>393.5</ele><time>2026-04-19T10:26:24Z</time></trkpt><trkpt lat="44.45114450865775" lon="7.905013950310578"><ele>394.0</ele><time>2026-04-19T10:26:25Z</time></trkpt><trkpt lat="44.45101755290868" lon="7.905124068840396"><ele>394.5</ele><time>2026-04-19T10:26:26Z</time></trkpt><trkpt lat="44.450892260028915" lon="7.905199688012407"><ele>395.0</ele><time>2026-04-19T10:26:27Z</time></trkpt><trkpt lat="44.45078170212047" lon="7.905266165606132"><ele>395.0</ele><time>2026-04-19T10:26:28Z</time></trkpt><trkpt lat="44.45068635186649" lon="7.905333123876332"><ele>395.0</ele><time>2026-04-19T10:26:29Z</time></trkpt><trkpt lat="44.450614141751885" lon="7.905412427558243"><ele>395.0</ele><time>2026-04-19T10:26:30Z</time></trkpt><trkpt lat="44.45056503956794" lon="7.905500642843771"><ele>395.0</ele><time>2026-04-19T10:26:31Z</time></trkpt><trkpt lat="44.450542211908065" lon="7.905609215025413"><ele>395.0</ele><time>2026-04-19T10:26:32Z</time></trkpt><trkpt lat="44.45051809013269" lon="7.905741262346925"><ele>395.0</ele><time>2026-04-19T10:26:33Z</time></trkpt><trkpt lat="44.45048115750354" lon="7.90587945808872"><ele>395.0</ele><time>2026-04-19T10:26:34Z</time></trkpt><trkpt lat="44.450437608751926" lon="7.906012054396723"><ele>395.0</ele><time>2026-04-19T10:26:35Z</time></trkpt><trkpt lat="44.45038792654703" lon="7.906134313234328"><ele>395.0</ele><time>2026-04-19T10:26:36Z</time></trkpt><trkpt lat="44.450335960412936" lon="7.906234825464116"><ele>395.0</ele><time>2026-04-19T10:26:37Z</time></trkpt><trkpt lat="44.450290255765154" lon="7.906323637833735"><ele>393.7142857142857</ele><time>2026-04-19T10:26:38Z</time></trkpt><trkpt lat="44.45025779622099" lon="7.906409715875527"><ele>392.42857142857144</ele><time>2026-04-19T10:26:39Z</time></trkpt><trkpt lat="44.450248546722854" lon="7.906504961357141"><ele>391.14285714285717</ele><time>2026-04-19T10:26:40Z</time></trkpt><trkpt lat="44.450266147056375" lon="7.906601673596007"><ele>389.8571428571429</ele><time>2026-04-19T10:26:41Z</time></trkpt><trkpt lat="44.45030552202321" lon="7.906691189738501"><ele>388.57142857142856</ele><time>2026-04-19T10:26:42Z</time></trkpt><trkpt lat="44.450355548124705" lon="7.906753100378044"><ele>387.28571428571433</ele><time>2026-04-19T10:26:43Z</time></trkpt><trkpt lat="44.450406555236555" lon="7.906825100446596"><ele>386.0</ele><time>2026-04-19T10:26:44Z</time></trkpt><trkpt lat="44.45045024854944" lon="7.9069125675217045"><ele>390.99999999999994</ele><time>2026-04-19T10:26:45Z</time></trkpt><trkpt lat="44.45048998224835" lon="7.907005143461511"><ele>396.0</ele><time>2026-04-19T10:26:46Z</time></trkpt><trkpt lat="44.45052703791044" lon="7.907098497312216"><ele>401.0</ele><time>2026-04-19T10:26:47Z</time></trkpt><trkpt lat="44.45055405551823" lon="7.9072067172150176"><ele>406.0</ele><time>2026-04-19T10:26:48Z</time></trkpt><trkpt lat="44.45060966168673" lon="7.9072896872647345"><ele>410.99999999999994</ele><time>2026-04-19T10:26:49Z</time></trkpt><trkpt lat="44.45068424818055" lon="7.907353002384654"><ele>416.0</ele><time>2026-04-19T10:26:50Z</time></trkpt><trkpt lat="44.45077365835952" lon="7.907381303839438"><ele>416.0</ele><time>2026-04-19T10:26:51Z</time></trkpt><trkpt lat="44.450862480317994" lon="7.90744276560929"><ele>416.0</ele><time>2026-04-19T10:26:52Z</time></trkpt><trkpt lat="44.450947972762975" lon="7.907511834679873"><ele>416.0</ele><time>2026-04-19T10:26:53Z</time></trkpt><trkpt lat="44.45102665619803" lon="7.9075806953657555"><ele>416.0</ele><time>2026-04-19T10:26:54Z</time></trkpt><trkpt lat="44.45109417996504" lon="7.90766233475325"><ele>416.0</ele><time>2026-04-19T10:26:55Z</time></trkpt><trkpt lat="44.451175967625524" lon="7.907707586146023"><ele>417.20000000000005</ele><time>2026-04-19T10:26:56Z</time></trkpt><trkpt lat="44.45126038110054" lon="7.907721848737257"><ele>418.40000000000003</ele><time>2026-04-19T10:26:57Z</time></trkpt><trkpt lat="44.45134638527022" lon="7.90771297343959"><ele>419.6</ele><time>2026-04-19T10:26:58Z</time></trkpt><trkpt lat="44.451439259604385" lon="7.907693602331065"><ele>420.8</ele><time>2026-04-19T10:26:59Z</time></trkpt><trkpt lat="44.45153444538615" lon="7.907668722614107"><ele>422.0</ele><time>2026-04-19T10:27:00Z</time></trkpt><trkpt lat="44.451626229499695" lon="7.907650234106766"><ele>424.16666666666663</ele><time>2026-04-19T10:27:01Z</time></trkpt><trkpt lat="44.45170721748072" lon="7.907648952207229"><ele>426.3333333333333</ele><time>2026-04-19T10:27:02Z</time></trkpt><trkpt lat="44.45177970321837" lon="7.907662335157439"><ele>428.5</ele><time>2026-04-19T10:27:03Z</time></trkpt><trkpt lat="44.4518462401186" lon="7.907679619199698"><ele>430.66666666666663</ele><time>2026-04-19T10:27:04Z</time></trkpt><trkpt lat="44.451909450218835" lon="7.907738195691882"><ele>432.8333333333333</ele><time>2026-04-19T10:27:05Z</time></trkpt><trkpt lat="44.451958608308914" lon="7.907806971054028"><ele>435.0</ele><time>2026-04-19T10:27:06Z</time></trkpt><trkpt lat="44.45200247887524" lon="7.907946240470074"><ele>435.0</ele><time>2026-04-19T10:27:08Z</time></trkpt><trkpt lat="44.45201224627273" lon="7.908037310303273"><ele>435.0</ele><time>2026-04-19T10:27:09Z</time></trkpt><trkpt lat="44.45202517647257" lon="7.9081381856982595"><ele>435.0</ele><time>2026-04-19T10:27:10Z</time></trkpt><trkpt lat="44.452041685277685" lon="7.90824383860533"><ele>435.0</ele><time>2026-04-19T10:27:11Z</time></trkpt><trkpt lat="44.45205891070473" lon="7.908356436831533"><ele>435.0</ele><time>2026-04-19T10:27:12Z</time></trkpt><trkpt lat="44.45207794598384" lon="7.90848145501888"><ele>435.0</ele><time>2026-04-19T10:27:13Z</time></trkpt><trkpt lat="44.45209987590012" lon="7.9086149650279705"><ele>435.25</ele><time>2026-04-19T10:27:14Z</time></trkpt><trkpt lat="44.452123079904695" lon="7.908757380768821"><ele>435.5</ele><time>2026-04-19T10:27:15Z</time></trkpt><trkpt lat="44.45214548864934" lon="7.90891300902258"><ele>435.75</ele><time>2026-04-19T10:27:16Z</time></trkpt><trkpt lat="44.45216448945971" lon="7.909078566814958"><ele>436.0</ele><time>2026-04-19T10:27:17Z</time></trkpt><trkpt lat="44.452180367745996" lon="7.9092407903361055"><ele>435.8</ele><time>2026-04-19T10:27:18Z</time></trkpt><trkpt lat="44.452191428248504" lon="7.909392340497226"><ele>435.6</ele><time>2026-04-19T10:27:19Z</time></trkpt><trkpt lat="44.45219107096063" lon="7.9095288655280065"><ele>435.4</ele><time>2026-04-19T10:27:20Z</time></trkpt><trkpt lat="44.452179446815265" lon="7.909662774141847"><ele>435.2</ele><time>2026-04-19T10:27:21Z</time></trkpt><trkpt lat="44.45215738744068" lon="7.909812502297185"><ele>435.0</ele><time>2026-04-19T10:27:22Z</time></trkpt><trkpt lat="44.45212013790977" lon="7.909981906485356"><ele>440.5</ele><time>2026-04-19T10:27:23Z</time></trkpt><trkpt lat="44.45207688326858" lon="7.91015848587302"><ele>446.0</ele><time>2026-04-19T10:27:24Z</time></trkpt><trkpt lat="44.452038891772325" lon="7.910337972786611"><ele>451.5</ele><time>2026-04-19T10:27:25Z</time></trkpt><trkpt lat="44.452009584909156" lon="7.910512751807718"><ele>457.0</ele><time>2026-04-19T10:27:26Z</time></trkpt><trkpt lat="44.451990975732464" lon="7.910683600942174"><ele>457.00000000000006</ele><time>2026-04-19T10:27:27Z</time></trkpt><trkpt lat="44.45197354503616" lon="7.91084601242668"><ele>457.0</ele><time>2026-04-19T10:27:28Z</time></trkpt><trkpt lat="44.45195958725761" lon="7.910984756589637"><ele>457.0</ele><time>2026-04-19T10:27:29Z</time></trkpt><trkpt lat="44.4519486082124" lon="7.9111000942699405"><ele>457.0</ele><time>2026-04-19T10:27:30Z</time></trkpt><trkpt lat="44.45194560830644" lon="7.9112011004474345"><ele>457.00000000000006</ele><time>2026-04-19T10:27:31Z</time></trkpt><trkpt lat="44.451957730028504" lon="7.9112984648929965"><ele>457.0</ele><time>2026-04-19T10:27:32Z</time></trkpt><trkpt lat="44.4519885242763" lon="7.91139511355546"><ele>456.40000000000003</ele><time>2026-04-19T10:27:33Z</time></trkpt><trkpt lat="44.45203581752371" lon="7.911492845397724"><ele>455.80000000000007</ele><time>2026-04-19T10:27:34Z</time></trkpt><trkpt lat="44.45209904919486" lon="7.911579925984374"><ele>455.2</ele><time>2026-04-19T10:27:35Z</time></trkpt><trkpt lat="44.45216687882867" lon="7.911672446236121"><ele>454.6</ele><time>2026-04-19T10:27:36Z</time></trkpt><trkpt lat="44.45224009302896" lon="7.911771314005062"><ele>454.0</ele><time>2026-04-19T10:27:37Z</time></trkpt><trkpt lat="44.4523207066462" lon="7.91187020786105"><ele>454.0</ele><time>2026-04-19T10:27:38Z</time></trkpt><trkpt lat="44.4524014315633" lon="7.911965995029405"><ele>454.0</ele><time>2026-04-19T10:27:39Z</time></trkpt><trkpt lat="44.45249111385339" lon="7.912046368260055"><ele>454.0</ele><time>2026-04-19T10:27:40Z</time></trkpt><trkpt lat="44.45259035562674" lon="7.912116040398074"><ele>454.0</ele><time>2026-04-19T10:27:41Z</time></trkpt><trkpt lat="44.452688772398275" lon="7.912170224050267"><ele>454.0</ele><time>2026-04-19T10:27:42Z</time></trkpt><trkpt lat="44.45277849764424" lon="7.91221471356387"><ele>454.0</ele><time>2026-04-19T10:27:43Z</time></trkpt><trkpt lat="44.45285858415751" lon="7.912250147041437"><ele>454.0</ele><time>2026-04-19T10:27:44Z</time></trkpt><trkpt lat="44.45293607698973" lon="7.912280664986142"><ele>454.0</ele><time>2026-04-19T10:27:45Z</time></trkpt><trkpt lat="44.453022163726274" lon="7.912308426905401"><ele>454.0</ele><time>2026-04-19T10:27:46Z</time></trkpt><trkpt lat="44.453117388066055" lon="7.912345358678634"><ele>454.0</ele><time>2026-04-19T10:27:47Z</time></trkpt><trkpt lat="44.45321664889574" lon="7.912380033042376"><ele>454.79999999999995</ele><time>2026-04-19T10:27:48Z</time></trkpt><trkpt lat="44.45330900011571" lon="7.912413236915928"><ele>455.59999999999997</ele><time>2026-04-19T10:27:49Z</time></trkpt><trkpt lat="44.45339201435163" lon="7.912464011974282"><ele>456.4</ele><time>2026-04-19T10:27:50Z</time></trkpt><trkpt lat="44.4534829618523" lon="7.912565133809799"><ele>457.2</ele><time>2026-04-19T10:27:52Z</time></trkpt><trkpt lat="44.4535035329175" lon="7.912658155744957"><ele>458.0</ele><time>2026-04-19T10:27:53Z</time></trkpt><trkpt lat="44.45350985899619" lon="7.912773933336898"><ele>458.79999999999995</ele><time>2026-04-19T10:27:54Z</time></trkpt><trkpt lat="44.453510835196404" lon="7.912900525844221"><ele>459.59999999999997</ele><time>2026-04-19T10:27:55Z</time></trkpt><trkpt lat="44.453500370553456" lon="7.9130383318417845"><ele>460.40000000000003</ele><time>2026-04-19T10:27:56Z</time></trkpt><trkpt lat="44.45347454695833" lon="7.91317879816192"><ele>461.20000000000005</ele><time>2026-04-19T10:27:57Z</time></trkpt><trkpt lat="44.45343986231346" lon="7.913307121437615"><ele>462.0</ele><time>2026-04-19T10:27:58Z</time></trkpt><trkpt lat="44.45339391168169" lon="7.91341451403189"><ele>463.40000000000003</ele><time>2026-04-19T10:27:59Z</time></trkpt><trkpt lat="44.453339335921044" lon="7.913495437330923"><ele>464.80000000000007</ele><time>2026-04-19T10:28:00Z</time></trkpt><trkpt lat="44.45328512407182" lon="7.913558335678001"><ele>466.2</ele><time>2026-04-19T10:28:01Z</time></trkpt><trkpt lat="44.45321646414414" lon="7.913650707563364"><ele>467.6</ele><time>2026-04-19T10:28:03Z</time></trkpt><trkpt lat="44.453266607043936" lon="7.913832414633609"><ele>469.0</ele><time>2026-04-19T10:28:07Z</time></trkpt><trkpt lat="44.453329711174014" lon="7.9138740022077405"><ele>469.0</ele><time>2026-04-19T10:28:08Z</time></trkpt><trkpt lat="44.45339186853135" lon="7.913921956308171"><ele>469.0</ele><time>2026-04-19T10:28:09Z</time></trkpt><trkpt lat="44.45346524683651" lon="7.913972758856874"><ele>469.0</ele><time>2026-04-19T10:28:10Z</time></trkpt><trkpt lat="44.453544485466466" lon="7.914033042804958"><ele>469.0</ele><time>2026-04-19T10:28:11Z</time></trkpt><trkpt lat="44.45363027198684" lon="7.914103508996966"><ele>469.0</ele><time>2026-04-19T10:28:12Z</time></trkpt><trkpt lat="44.453727011753905" lon="7.914179428926548"><ele>470.75</ele><time>2026-04-19T10:28:13Z</time></trkpt><trkpt lat="44.45383296088323" lon="7.914255987081693"><ele>472.5</ele><time>2026-04-19T10:28:14Z</time></trkpt><trkpt lat="44.45394361357522" lon="7.914339438962217"><ele>474.25</ele><time>2026-04-19T10:28:15Z</time></trkpt><trkpt lat="44.45406116435303" lon="7.914431487687524"><ele>476.0</ele><time>2026-04-19T10:28:16Z</time></trkpt><trkpt lat="44.45418803059578" lon="7.914535358372468"><ele>476.0</ele><time>2026-04-19T10:28:17Z</time></trkpt><trkpt lat="44.45431710911651" lon="7.914678337522726"><ele>476.0</ele><time>2026-04-19T10:28:18Z</time></trkpt><trkpt lat="44.45447860228928" lon="7.914801771256144"><ele>476.0</ele><time>2026-04-19T10:28:19Z</time></trkpt><trkpt lat="44.45463987367037" lon="7.914954574905055"><ele>478.0</ele><time>2026-04-19T10:28:20Z</time></trkpt><trkpt lat="44.45478853395894" lon="7.915088246369059"><ele>480.0</ele><time>2026-04-19T10:28:21Z</time></trkpt><trkpt lat="44.45492002586637" lon="7.915208261918394"><ele>482.0</ele><time>2026-04-19T10:28:22Z</time></trkpt><trkpt lat="44.455032458793006" lon="7.915313573938635"><ele>482.0</ele><time>2026-04-19T10:28:23Z</time></trkpt><trkpt lat="44.45513208437622" lon="7.915397023867718"><ele>482.00000000000006</ele><time>2026-04-19T10:28:24Z</time></trkpt><trkpt lat="44.45520740438922" lon="7.915493184921257"><ele>482.00000000000006</ele><time>2026-04-19T10:28:25Z</time></trkpt><trkpt lat="44.45527862615363" lon="7.915545597171638"><ele>482.0</ele><time>2026-04-19T10:28:26Z</time></trkpt><trkpt lat="44.45530028580189" lon="7.915636712856765"><ele>482.0</ele><time>2026-04-19T10:28:27Z</time></trkpt><trkpt lat="44.45524173300307" lon="7.915794556809462"><ele>482.0</ele><time>2026-04-19T10:28:29Z</time></trkpt><trkpt lat="44.455162676726246" lon="7.9158231504802234"><ele>482.00000000000006</ele><time>2026-04-19T10:28:30Z</time></trkpt><trkpt lat="44.45506561040024" lon="7.915869722761488"><ele>482.00000000000006</ele><time>2026-04-19T10:28:31Z</time></trkpt><trkpt lat="44.45495723524803" lon="7.915942991528844"><ele>482.0</ele><time>2026-04-19T10:28:32Z</time></trkpt><trkpt lat="44.454841178530415" lon="7.916034936033167"><ele>482.0</ele><time>2026-04-19T10:28:33Z</time></trkpt><trkpt lat="44.45472822187762" lon="7.916169744350856"><ele>481.0</ele><time>2026-04-19T10:28:34Z</time></trkpt><trkpt lat="44.45462644939799" lon="7.916306603162816"><ele>480.0</ele><time>2026-04-19T10:28:35Z</time></trkpt><trkpt lat="44.4545358680109" lon="7.9164443400675095"><ele>479.0</ele><time>2026-04-19T10:28:36Z</time></trkpt><trkpt lat="44.454459309591975" lon="7.916591089447624"><ele>478.0</ele><time>2026-04-19T10:28:37Z</time></trkpt><trkpt lat="44.45441268595194" lon="7.916750847961058"><ele>482.25</ele><time>2026-04-19T10:28:38Z</time></trkpt><trkpt lat="44.45439128109626" lon="7.916933385568175"><ele>486.5</ele><time>2026-04-19T10:28:39Z</time></trkpt><trkpt lat="44.454381581532445" lon="7.917129666391836"><ele>490.75</ele><time>2026-04-19T10:28:40Z</time></trkpt><trkpt lat="44.4543683517447" lon="7.9173199774091305"><ele>495.0</ele><time>2026-04-19T10:28:41Z</time></trkpt><trkpt lat="44.454336346577755" lon="7.917480400894499"><ele>493.0</ele><time>2026-04-19T10:28:42Z</time></trkpt><trkpt lat="44.454281013615585" lon="7.917619646896394"><ele>491.0</ele><time>2026-04-19T10:28:43Z</time></trkpt><trkpt lat="44.45419875314267" lon="7.91774268393823"><ele>489.0</ele><time>2026-04-19T10:28:44Z</time></trkpt><trkpt lat="44.454091389205324" lon="7.917859721490891"><ele>487.0</ele><time>2026-04-19T10:28:45Z</time></trkpt><trkpt lat="44.45396260133669" lon="7.9179637626577275"><ele>487.0</ele><time>2026-04-19T10:28:46Z</time></trkpt><trkpt lat="44.45381129331584" lon="7.918024097057459"><ele>487.0</ele><time>2026-04-19T10:28:47Z</time></trkpt><trkpt lat="44.453654176603514" lon="7.918107415005355"><ele>487.0</ele><time>2026-04-19T10:28:48Z</time></trkpt><trkpt lat="44.4535273463396" lon="7.918197259807617"><ele>487.33333333333337</ele><time>2026-04-19T10:28:49Z</time></trkpt><trkpt lat="44.453381298434344" lon="7.918318238660098"><ele>487.66666666666663</ele><time>2026-04-19T10:28:50Z</time></trkpt><trkpt lat="44.453244748944996" lon="7.918478331755022"><ele>488.0</ele><time>2026-04-19T10:28:51Z</time></trkpt><trkpt lat="44.45311904498741" lon="7.918651585628766"><ele>488.0</ele><time>2026-04-19T10:28:52Z</time></trkpt><trkpt lat="44.453014214573045" lon="7.918807123155919"><ele>488.0</ele><time>2026-04-19T10:28:53Z</time></trkpt><trkpt lat="44.452926251491064" lon="7.9189364604146"><ele>488.0</ele><time>2026-04-19T10:28:54Z</time></trkpt><trkpt lat="44.45281757423955" lon="7.9190030075831706"><ele>488.0</ele><time>2026-04-19T10:28:55Z</time></trkpt><trkpt lat="44.45270300328195" lon="7.919043821984437"><ele>491.25</ele><time>2026-04-19T10:28:56Z</time></trkpt><trkpt lat="44.45257266409675" lon="7.919069365825193"><ele>494.5</ele><time>2026-04-19T10:28:57Z</time></trkpt><trkpt lat="44.45241926138201" lon="7.919100155671478"><ele>497.75</ele><time>2026-04-19T10:28:58Z</time></trkpt><trkpt lat="44.45226686447962" lon="7.91914367250771"><ele>501.0</ele><time>2026-04-19T10:28:59Z</time></trkpt><trkpt lat="44.45213446049307" lon="7.919168829927121"><ele>502.75</ele><time>2026-04-19T10:29:00Z</time></trkpt><trkpt lat="44.452016624086134" lon="7.919194807347914"><ele>504.5</ele><time>2026-04-19T10:29:01Z</time></trkpt><trkpt lat="44.45191230752479" lon="7.919233652184278"><ele>506.25</ele><time>2026-04-19T10:29:02Z</time></trkpt><trkpt lat="44.451819632250974" lon="7.9193219987952865"><ele>508.0</ele><time>2026-04-19T10:29:03Z</time></trkpt><trkpt lat="44.451746329441335" lon="7.919458758303734"><ele>508.0</ele><time>2026-04-19T10:29:04Z</time></trkpt><trkpt lat="44.45171661482641" lon="7.919640295940053"><ele>508.0</ele><time>2026-04-19T10:29:05Z</time></trkpt><trkpt lat="44.45170526913431" lon="7.9198252420950395"><ele>508.0</ele><time>2026-04-19T10:29:06Z</time></trkpt><trkpt lat="44.451676557634336" lon="7.920023255390763"><ele>508.0</ele><time>2026-04-19T10:29:07Z</time></trkpt><trkpt lat="44.45167867007217" lon="7.920217304144758"><ele>506.75</ele><time>2026-04-19T10:29:08Z</time></trkpt><trkpt lat="44.451653690352096" lon="7.920399322529814"><ele>505.5</ele><time>2026-04-19T10:29:09Z</time></trkpt><trkpt lat="44.45166937274258" lon="7.920576550849694"><ele>504.25</ele><time>2026-04-19T10:29:10Z</time></trkpt><trkpt lat="44.451718553130554" lon="7.92076562904839"><ele>503.0</ele><time>2026-04-19T10:29:11Z</time></trkpt><trkpt lat="44.451799651817986" lon="7.92095894417242"><ele>502.0</ele><time>2026-04-19T10:29:12Z</time></trkpt><trkpt lat="44.45190257140918" lon="7.921165145874482"><ele>501.0</ele><time>2026-04-19T10:29:13Z</time></trkpt><trkpt lat="44.452017934899224" lon="7.921389427650369"><ele>500.0</ele><time>2026-04-19T10:29:14Z</time></trkpt><trkpt lat="44.45213376849846" lon="7.921626034207925"><ele>503.0</ele><time>2026-04-19T10:29:15Z</time></trkpt><trkpt lat="44.45223581954945" lon="7.921853807399729"><ele>506.0</ele><time>2026-04-19T10:29:16Z</time></trkpt><trkpt lat="44.452321974448004" lon="7.922061020089773"><ele>509.0</ele><time>2026-04-19T10:29:17Z</time></trkpt><trkpt lat="44.452379228109514" lon="7.922293644362201"><ele>509.0</ele><time>2026-04-19T10:29:18Z</time></trkpt><trkpt lat="44.452384860672886" lon="7.922549970784546"><ele>509.0</ele><time>2026-04-19T10:29:19Z</time></trkpt><trkpt lat="44.45237707939312" lon="7.922816381084606"><ele>509.0</ele><time>2026-04-19T10:29:20Z</time></trkpt><trkpt lat="44.45235408609524" lon="7.923090858217508"><ele>510.0</ele><time>2026-04-19T10:29:21Z</time></trkpt><trkpt lat="44.45233481015908" lon="7.923380361906396"><ele>511.0</ele><time>2026-04-19T10:29:22Z</time></trkpt><trkpt lat="44.45232160876995" lon="7.923659532326452"><ele>512.0</ele><time>2026-04-19T10:29:23Z</time></trkpt><trkpt lat="44.45230569677897" lon="7.923915621728316"><ele>512.6666666666666</ele><time>2026-04-19T10:29:24Z</time></trkpt><trkpt lat="44.45228414425862" lon="7.92418902571844"><ele>513.3333333333334</ele><time>2026-04-19T10:29:25Z</time></trkpt><trkpt lat="44.45225642973407" lon="7.9244765131510295"><ele>514.0</ele><time>2026-04-19T10:29:26Z</time></trkpt><trkpt lat="44.452233158105244" lon="7.924761311678691"><ele>514.3333333333334</ele><time>2026-04-19T10:29:27Z</time></trkpt><trkpt lat="44.4522265516519" lon="7.92503403774535"><ele>514.6666666666666</ele><time>2026-04-19T10:29:28Z</time></trkpt><trkpt lat="44.45224144664441" lon="7.925296135431205"><ele>515.0</ele><time>2026-04-19T10:29:29Z</time></trkpt><trkpt lat="44.45227410671975" lon="7.925545893494654"><ele>516.3333333333333</ele><time>2026-04-19T10:29:30Z</time></trkpt><trkpt lat="44.45231891436197" lon="7.925782171993664"><ele>517.6666666666666</ele><time>2026-04-19T10:29:31Z</time></trkpt><trkpt lat="44.45237445335089" lon="7.926012311681462"><ele>519.0</ele><time>2026-04-19T10:29:32Z</time></trkpt><trkpt lat="44.45244412781329" lon="7.9262345302411585"><ele>519.6666666666666</ele><time>2026-04-19T10:29:33Z</time></trkpt><trkpt lat="44.45252310284244" lon="7.926435690447987"><ele>520.3333333333333</ele><time>2026-04-19T10:29:34Z</time></trkpt><trkpt lat="44.452610134412666" lon="7.926615033561146"><ele>521.0</ele><time>2026-04-19T10:29:35Z</time></trkpt><trkpt lat="44.45270661155763" lon="7.926776907019916"><ele>520.0</ele><time>2026-04-19T10:29:36Z</time></trkpt><trkpt lat="44.452801036795066" lon="7.92692762841069"><ele>519.0</ele><time>2026-04-19T10:29:37Z</time></trkpt><trkpt lat="44.452888092608305" lon="7.927080367465813"><ele>518.0</ele><time>2026-04-19T10:29:38Z</time></trkpt><trkpt lat="44.45297821709405" lon="7.927241834449266"><ele>517.0</ele><time>2026-04-19T10:29:39Z</time></trkpt><trkpt lat="44.45307591790725" lon="7.927406896588467"><ele>518.3333333333334</ele><time>2026-04-19T10:29:40Z</time></trkpt><trkpt lat="44.453181039312284" lon="7.927581686417642"><ele>519.6666666666666</ele><time>2026-04-19T10:29:41Z</time></trkpt><trkpt lat="44.4532903721513" lon="7.92776118287073"><ele>521.0</ele><time>2026-04-19T10:29:42Z</time></trkpt><trkpt lat="44.453394497111425" lon="7.927959553815779"><ele>521.0</ele><time>2026-04-19T10:29:43Z</time></trkpt><trkpt lat="44.45348869062196" lon="7.928173962694677"><ele>521.0</ele><time>2026-04-19T10:29:44Z</time></trkpt><trkpt lat="44.453577686976594" lon="7.9284016800931"><ele>521.0</ele><time>2026-04-19T10:29:45Z</time></trkpt><trkpt lat="44.453658604081795" lon="7.928626773266369"><ele>522.3333333333333</ele><time>2026-04-19T10:29:46Z</time></trkpt><trkpt lat="44.45374215080902" lon="7.928833934385453"><ele>523.6666666666666</ele><time>2026-04-19T10:29:47Z</time></trkpt><trkpt lat="44.45384509455006" lon="7.9290084440099236"><ele>525.0</ele><time>2026-04-19T10:29:48Z</time></trkpt><trkpt lat="44.4539761447421" lon="7.929154905293624"><ele>524.0</ele><time>2026-04-19T10:29:49Z</time></trkpt><trkpt lat="44.45412653150692" lon="7.929283056834293"><ele>523.0</ele><time>2026-04-19T10:29:50Z</time></trkpt><trkpt lat="44.45428147634784" lon="7.929425244526883"><ele>522.0</ele><time>2026-04-19T10:29:51Z</time></trkpt><trkpt lat="44.45441451608853" lon="7.929611278559955"><ele>522.0</ele><time>2026-04-19T10:29:52Z</time></trkpt><trkpt lat="44.45453341492315" lon="7.9298453326467895"><ele>522.0</ele><time>2026-04-19T10:29:53Z</time></trkpt><trkpt lat="44.45463644599636" lon="7.930117271804405"><ele>522.0</ele><time>2026-04-19T10:29:54Z</time></trkpt><trkpt lat="44.45472928753795" lon="7.930389587453324"><ele>523.6666666666666</ele><time>2026-04-19T10:29:55Z</time></trkpt><trkpt lat="44.454812113771524" lon="7.930649542422911"><ele>525.3333333333333</ele><time>2026-04-19T10:29:56Z</time></trkpt><trkpt lat="44.45489653575294" lon="7.930901183771288"><ele>527.0</ele><time>2026-04-19T10:29:57Z</time></trkpt><trkpt lat="44.454983459192704" lon="7.931139752920423"><ele>529.6666666666666</ele><time>2026-04-19T10:29:58Z</time></trkpt><trkpt lat="44.455070998279695" lon="7.9313559278368455"><ele>532.3333333333334</ele><time>2026-04-19T10:29:59Z</time></trkpt><trkpt lat="44.45516229283416" lon="7.931556972667964"><ele>535.0</ele><time>2026-04-19T10:30:00Z</time></trkpt><trkpt lat="44.45526019676925" lon="7.931734983643015"><ele>535.0</ele><time>2026-04-19T10:30:01Z</time></trkpt><trkpt lat="44.45537542469483" lon="7.931891216427087"><ele>535.0</ele><time>2026-04-19T10:30:02Z</time></trkpt><trkpt lat="44.455514066418495" lon="7.932021703740196"><ele>535.0</ele><time>2026-04-19T10:30:03Z</time></trkpt><trkpt lat="44.45566905307735" lon="7.93212873698876"><ele>535.0</ele><time>2026-04-19T10:30:04Z</time></trkpt><trkpt lat="44.455840742349736" lon="7.932222043585379"><ele>535.0</ele><time>2026-04-19T10:30:05Z</time></trkpt><trkpt lat="44.45602466033801" lon="7.93231601003825"><ele>535.0</ele><time>2026-04-19T10:30:06Z</time></trkpt><trkpt lat="44.45621338024373" lon="7.9324076400590835"><ele>533.3333333333334</ele><time>2026-04-19T10:30:07Z</time></trkpt><trkpt lat="44.45639955974766" lon="7.932479817053566"><ele>531.6666666666666</ele><time>2026-04-19T10:30:08Z</time></trkpt><trkpt lat="44.4565791361677" lon="7.932533999841852"><ele>530.0</ele><time>2026-04-19T10:30:09Z</time></trkpt><trkpt lat="44.45676766713725" lon="7.932570919731685"><ele>528.6666666666666</ele><time>2026-04-19T10:30:10Z</time></trkpt><trkpt lat="44.45696659954736" lon="7.932617041072978"><ele>527.3333333333334</ele><time>2026-04-19T10:30:11Z</time></trkpt><trkpt lat="44.45716320877108" lon="7.932684043724273"><ele>526.0</ele><time>2026-04-19T10:30:12Z</time></trkpt><trkpt lat="44.4573525488558" lon="7.932778754780745"><ele>526.0</ele><time>2026-04-19T10:30:13Z</time></trkpt><trkpt lat="44.45753617228043" lon="7.932896523864285"><ele>526.0</ele><time>2026-04-19T10:30:14Z</time></trkpt><trkpt lat="44.45770744252414" lon="7.933063392398447"><ele>526.0</ele><time>2026-04-19T10:30:15Z</time></trkpt><trkpt lat="44.45790029805313" lon="7.933196639746085"><ele>526.0</ele><time>2026-04-19T10:30:16Z</time></trkpt><trkpt lat="44.45809292034863" lon="7.933335302572577"><ele>526.0</ele><time>2026-04-19T10:30:17Z</time></trkpt><trkpt lat="44.45829265054809" lon="7.933446649719275"><ele>526.0</ele><time>2026-04-19T10:30:18Z</time></trkpt><trkpt lat="44.45848216295946" lon="7.933524112558176"><ele>526.0</ele><time>2026-04-19T10:30:19Z</time></trkpt><trkpt lat="44.45866101222841" lon="7.933584634576521"><ele>526.0</ele><time>2026-04-19T10:30:20Z</time></trkpt><trkpt lat="44.458833664562945" lon="7.933625236772281"><ele>526.0</ele><time>2026-04-19T10:30:21Z</time></trkpt><trkpt lat="44.459016746625984" lon="7.933624980277318"><ele>526.0</ele><time>2026-04-19T10:30:22Z</time></trkpt><trkpt lat="44.45921425630031" lon="7.933578547781998"><ele>526.0</ele><time>2026-04-19T10:30:23Z</time></trkpt><trkpt lat="44.45942238912676" lon="7.933536046521261"><ele>526.0</ele><time>2026-04-19T10:30:24Z</time></trkpt><trkpt lat="44.45963126489066" lon="7.93348747489699"><ele>528.0</ele><time>2026-04-19T10:30:25Z</time></trkpt><trkpt lat="44.459821837668656" lon="7.933444686637337"><ele>530.0</ele><time>2026-04-19T10:30:26Z</time></trkpt><trkpt lat="44.45997563068951" lon="7.933410293292623"><ele>532.0</ele><time>2026-04-19T10:30:27Z</time></trkpt><trkpt lat="44.46010066603763" lon="7.933395713018935"><ele>532.0</ele><time>2026-04-19T10:30:28Z</time></trkpt><trkpt lat="44.46020263735095" lon="7.933410719042285"><ele>532.0</ele><time>2026-04-19T10:30:29Z</time></trkpt><trkpt lat="44.460297208806516" lon="7.933473299434568"><ele>532.0</ele><time>2026-04-19T10:30:30Z</time></trkpt><trkpt lat="44.460390604533494" lon="7.933561997589396"><ele>532.0</ele><time>2026-04-19T10:30:31Z</time></trkpt><trkpt lat="44.460428244590084" lon="7.933730868751559"><ele>532.0</ele><time>2026-04-19T10:30:32Z</time></trkpt><trkpt lat="44.46046543847348" lon="7.933919783268664"><ele>536.6666666666667</ele><time>2026-04-19T10:30:33Z</time></trkpt><trkpt lat="44.46048457596559" lon="7.934145054580459"><ele>541.3333333333334</ele><time>2026-04-19T10:30:34Z</time></trkpt><trkpt lat="44.46048373632296" lon="7.934406463848638"><ele>546.0</ele><time>2026-04-19T10:30:35Z</time></trkpt><trkpt lat="44.46049071555514" lon="7.934699525872888"><ele>546.0</ele><time>2026-04-19T10:30:36Z</time></trkpt><trkpt lat="44.46047137638977" lon="7.934982735145062"><ele>546.0</ele><time>2026-04-19T10:30:37Z</time></trkpt><trkpt lat="44.46045800886616" lon="7.935229653277086"><ele>546.0</ele><time>2026-04-19T10:30:38Z</time></trkpt><trkpt lat="44.4604418813995" lon="7.935444188605535"><ele>545.3333333333334</ele><time>2026-04-19T10:30:39Z</time></trkpt><trkpt lat="44.460397081722775" lon="7.935632917614621"><ele>544.6666666666667</ele><time>2026-04-19T10:30:40Z</time></trkpt><trkpt lat="44.46030767833347" lon="7.935816009656683"><ele>544.0</ele><time>2026-04-19T10:30:41Z</time></trkpt><trkpt lat="44.4602030366182" lon="7.9360000696158295"><ele>544.0</ele><time>2026-04-19T10:30:42Z</time></trkpt><trkpt lat="44.4601179299075" lon="7.936203625281794"><ele>544.0</ele><time>2026-04-19T10:30:43Z</time></trkpt><trkpt lat="44.46005035069661" lon="7.9364242131713"><ele>544.0</ele><time>2026-04-19T10:30:44Z</time></trkpt><trkpt lat="44.459982824057604" lon="7.9366429173999515"><ele>544.6666666666667</ele><time>2026-04-19T10:30:45Z</time></trkpt><trkpt lat="44.45993132240308" lon="7.936862726520748"><ele>545.3333333333334</ele><time>2026-04-19T10:30:46Z</time></trkpt><trkpt lat="44.45991814465355" lon="7.937088446007432"><ele>546.0</ele><time>2026-04-19T10:30:47Z</time></trkpt><trkpt lat="44.45995175993375" lon="7.937340024012586"><ele>548.6666666666666</ele><time>2026-04-19T10:30:48Z</time></trkpt><trkpt lat="44.459991161352" lon="7.937609915442801"><ele>551.3333333333333</ele><time>2026-04-19T10:30:49Z</time></trkpt><trkpt lat="44.460033802006876" lon="7.9379048241256935"><ele>554.0</ele><time>2026-04-19T10:30:50Z</time></trkpt><trkpt lat="44.46007535112595" lon="7.9382237219653415"><ele>557.0</ele><time>2026-04-19T10:30:51Z</time></trkpt><trkpt lat="44.460122733087836" lon="7.93855941845266"><ele>560.0</ele><time>2026-04-19T10:30:52Z</time></trkpt><trkpt lat="44.460174968455476" lon="7.938901302426507"><ele>560.0</ele><time>2026-04-19T10:30:53Z</time></trkpt><trkpt lat="44.46023647370419" lon="7.939238893653203"><ele>560.0</ele><time>2026-04-19T10:30:54Z</time></trkpt><trkpt lat="44.460301304645824" lon="7.93957307046786"><ele>560.0</ele><time>2026-04-19T10:30:55Z</time></trkpt><trkpt lat="44.46035975042408" lon="7.939892116078495"><ele>560.0</ele><time>2026-04-19T10:30:56Z</time></trkpt><trkpt lat="44.460416435498544" lon="7.940186861113008"><ele>560.0</ele><time>2026-04-19T10:30:57Z</time></trkpt><trkpt lat="44.46046793284102" lon="7.940467336908366"><ele>560.0</ele><time>2026-04-19T10:30:58Z</time></trkpt><trkpt lat="44.46051433113966" lon="7.940733425111636"><ele>560.0</ele><time>2026-04-19T10:30:59Z</time></trkpt><trkpt lat="44.46054073142945" lon="7.940977343179342"><ele>560.0</ele><time>2026-04-19T10:31:00Z</time></trkpt><trkpt lat="44.46054403875743" lon="7.9412174241785785"><ele>560.0</ele><time>2026-04-19T10:31:01Z</time></trkpt><trkpt lat="44.460513966019874" lon="7.941442713733586"><ele>560.0</ele><time>2026-04-19T10:31:02Z</time></trkpt><trkpt lat="44.46048507670555" lon="7.941649613813071"><ele>560.6666666666666</ele><time>2026-04-19T10:31:03Z</time></trkpt><trkpt lat="44.46048510017767" lon="7.941861373059535"><ele>561.3333333333334</ele><time>2026-04-19T10:31:04Z</time></trkpt><trkpt lat="44.460523744671704" lon="7.942094361842042"><ele>562.0</ele><time>2026-04-19T10:31:05Z</time></trkpt><trkpt lat="44.460566701519184" lon="7.942309929685762"><ele>562.0</ele><time>2026-04-19T10:31:06Z</time></trkpt><trkpt lat="44.46058037112879" lon="7.942521763691374"><ele>562.0</ele><time>2026-04-19T10:31:07Z</time></trkpt><trkpt lat="44.46058023309592" lon="7.942740006841555"><ele>562.0</ele><time>2026-04-19T10:31:08Z</time></trkpt><trkpt lat="44.46058524599633" lon="7.942952236599011"><ele>561.75</ele><time>2026-04-19T10:31:09Z</time></trkpt><trkpt lat="44.46059177610279" lon="7.94315024150176"><ele>561.5</ele><time>2026-04-19T10:31:10Z</time></trkpt><trkpt lat="44.460567523146565" lon="7.943323276054079"><ele>561.25</ele><time>2026-04-19T10:31:11Z</time></trkpt><trkpt lat="44.46055125323058" lon="7.943465989060094"><ele>561.0</ele><time>2026-04-19T10:31:12Z</time></trkpt><trkpt lat="44.46048036942288" lon="7.943581391565965"><ele>560.25</ele><time>2026-04-19T10:31:13Z</time></trkpt><trkpt lat="44.460367237466556" lon="7.943648472252151"><ele>559.5</ele><time>2026-04-19T10:31:14Z</time></trkpt><trkpt lat="44.4602442935565" lon="7.943683902460983"><ele>558.75</ele><time>2026-04-19T10:31:15Z</time></trkpt><trkpt lat="44.46010418159964" lon="7.943701472254098"><ele>558.0</ele><time>2026-04-19T10:31:16Z</time></trkpt><trkpt lat="44.459953981337264" lon="7.943741190985233"><ele>558.0</ele><time>2026-04-19T10:31:17Z</time></trkpt><trkpt lat="44.45980871001052" lon="7.943741766736802"><ele>558.0</ele><time>2026-04-19T10:31:18Z</time></trkpt><trkpt lat="44.45968363046019" lon="7.943766054647932"><ele>558.0</ele><time>2026-04-19T10:31:19Z</time></trkpt><trkpt lat="44.45957087407741" lon="7.943801244219862"><ele>558.0</ele><time>2026-04-19T10:31:20Z</time></trkpt><trkpt lat="44.45947277564847" lon="7.9438681792459835"><ele>557.0</ele><time>2026-04-19T10:31:21Z</time></trkpt><trkpt lat="44.45939198260995" lon="7.9439934751883845"><ele>556.0</ele><time>2026-04-19T10:31:22Z</time></trkpt><trkpt lat="44.459326849447734" lon="7.944175966336706"><ele>555.0</ele><time>2026-04-19T10:31:23Z</time></trkpt><trkpt lat="44.45928241332726" lon="7.944396213877129"><ele>554.0</ele><time>2026-04-19T10:31:24Z</time></trkpt><trkpt lat="44.4592505368608" lon="7.944658523808868"><ele>554.0</ele><time>2026-04-19T10:31:25Z</time></trkpt><trkpt lat="44.45921242031115" lon="7.944937805466291"><ele>554.0</ele><time>2026-04-19T10:31:26Z</time></trkpt><trkpt lat="44.45917721595377" lon="7.945219837638532"><ele>554.0</ele><time>2026-04-19T10:31:27Z</time></trkpt><trkpt lat="44.45913587510301" lon="7.9454945373838335"><ele>555.3333333333333</ele><time>2026-04-19T10:31:28Z</time></trkpt><trkpt lat="44.45902787128107" lon="7.945748855552327"><ele>556.6666666666666</ele><time>2026-04-19T10:31:29Z</time></trkpt><trkpt lat="44.45892109544047" lon="7.946003413273274"><ele>558.0</ele><time>2026-04-19T10:31:30Z</time></trkpt><trkpt lat="44.45880023603616" lon="7.946203219975095"><ele>560.6666666666666</ele><time>2026-04-19T10:31:31Z</time></trkpt><trkpt lat="44.458659862432775" lon="7.946375621360974"><ele>563.3333333333333</ele><time>2026-04-19T10:31:32Z</time></trkpt><trkpt lat="44.45850144225479" lon="7.9465043280333365"><ele>566.0</ele><time>2026-04-19T10:31:33Z</time></trkpt><trkpt lat="44.4583375128363" lon="7.946621197600421"><ele>570.0</ele><time>2026-04-19T10:31:34Z</time></trkpt><trkpt lat="44.458175021456164" lon="7.946723826861307"><ele>574.0</ele><time>2026-04-19T10:31:35Z</time></trkpt><trkpt lat="44.45803242109908" lon="7.946802534592911"><ele>578.0</ele><time>2026-04-19T10:31:36Z</time></trkpt><trkpt lat="44.45790266954717" lon="7.9468406539318135"><ele>579.25</ele><time>2026-04-19T10:31:37Z</time></trkpt><trkpt lat="44.457766872342546" lon="7.946832703386802"><ele>580.5</ele><time>2026-04-19T10:31:38Z</time></trkpt><trkpt lat="44.457619108546105" lon="7.94681365368807"><ele>581.75</ele><time>2026-04-19T10:31:39Z</time></trkpt><trkpt lat="44.45745720662783" lon="7.946796289692875"><ele>583.0</ele><time>2026-04-19T10:31:40Z</time></trkpt><trkpt lat="44.45727766213633" lon="7.946781848386151"><ele>582.5</ele><time>2026-04-19T10:31:41Z</time></trkpt><trkpt lat="44.45710399081151" lon="7.9467548606285305"><ele>582.0</ele><time>2026-04-19T10:31:42Z</time></trkpt><trkpt lat="44.45696361832581" lon="7.94671886827369"><ele>581.5</ele><time>2026-04-19T10:31:43Z</time></trkpt><trkpt lat="44.4568486284815" lon="7.946677179820958"><ele>581.0</ele><time>2026-04-19T10:31:44Z</time></trkpt><trkpt lat="44.45675831953585" lon="7.946642518177721"><ele>581.0</ele><time>2026-04-19T10:31:45Z</time></trkpt><trkpt lat="44.45668243293842" lon="7.946639823612299"><ele>581.0</ele><time>2026-04-19T10:31:46Z</time></trkpt><trkpt lat="44.45660257189066" lon="7.9467382195169645"><ele>581.0</ele><time>2026-04-19T10:31:48Z</time></trkpt><trkpt lat="44.45663306128915" lon="7.9468676419975806"><ele>581.0</ele><time>2026-04-19T10:31:50Z</time></trkpt><trkpt lat="44.456756455255956" lon="7.946924311843554"><ele>581.0</ele><time>2026-04-19T10:31:52Z</time></trkpt><trkpt lat="44.45683965193607" lon="7.946944236530131"><ele>581.0</ele><time>2026-04-19T10:31:53Z</time></trkpt><trkpt lat="44.456941620651854" lon="7.946975563997456"><ele>581.0</ele><time>2026-04-19T10:31:54Z</time></trkpt><trkpt lat="44.45706925833394" lon="7.94701327604477"><ele>581.0</ele><time>2026-04-19T10:31:55Z</time></trkpt><trkpt lat="44.45722618532793" lon="7.947046371370561"><ele>581.0</ele><time>2026-04-19T10:31:56Z</time></trkpt><trkpt lat="44.45741544400704" lon="7.947077721278785"><ele>582.0</ele><time>2026-04-19T10:31:57Z</time></trkpt><trkpt lat="44.45763473592396" lon="7.947112181687679"><ele>583.0</ele><time>2026-04-19T10:31:58Z</time></trkpt><trkpt lat="44.457878667232684" lon="7.947155400695121"><ele>580.5</ele><time>2026-04-19T10:31:59Z</time></trkpt><trkpt lat="44.45814805964144" lon="7.947214298362531"><ele>578.0</ele><time>2026-04-19T10:32:00Z</time></trkpt><trkpt lat="44.458417560321855" lon="7.947270837166899"><ele>578.0</ele><time>2026-04-19T10:32:01Z</time></trkpt><trkpt lat="44.45866330745497" lon="7.947316266403838"><ele>578.0</ele><time>2026-04-19T10:32:02Z</time></trkpt><trkpt lat="44.4588806549643" lon="7.947352437424895"><ele>577.0</ele><time>2026-04-19T10:32:03Z</time></trkpt><trkpt lat="44.45908064422329" lon="7.9473916429643054"><ele>576.0</ele><time>2026-04-19T10:32:04Z</time></trkpt><trkpt lat="44.45928481378722" lon="7.9473415131069025"><ele>575.0</ele><time>2026-04-19T10:32:05Z</time></trkpt><trkpt lat="44.459476141451" lon="7.947215653005133"><ele>573.0</ele><time>2026-04-19T10:32:06Z</time></trkpt><trkpt lat="44.45965486189849" lon="7.94707162588899"><ele>571.0</ele><time>2026-04-19T10:32:07Z</time></trkpt><trkpt lat="44.45983347825895" lon="7.9469611081055085"><ele>569.0</ele><time>2026-04-19T10:32:08Z</time></trkpt><trkpt lat="44.4600353678914" lon="7.946892937417113"><ele>569.0</ele><time>2026-04-19T10:32:09Z</time></trkpt><trkpt lat="44.460260874001655" lon="7.946884437833364"><ele>569.0</ele><time>2026-04-19T10:32:10Z</time></trkpt><trkpt lat="44.4604677084529" lon="7.946887511760356"><ele>569.0</ele><time>2026-04-19T10:32:11Z</time></trkpt><trkpt lat="44.46065467607865" lon="7.946894335397986"><ele>571.0</ele><time>2026-04-19T10:32:12Z</time></trkpt><trkpt lat="44.46083234633067" lon="7.946903284778657"><ele>573.0</ele><time>2026-04-19T10:32:13Z</time></trkpt><trkpt lat="44.46100119103308" lon="7.9469200551378725"><ele>575.0</ele><time>2026-04-19T10:32:14Z</time></trkpt><trkpt lat="44.461168483789365" lon="7.9469450258793835"><ele>578.0</ele><time>2026-04-19T10:32:15Z</time></trkpt><trkpt lat="44.461348660360564" lon="7.947048370385346"><ele>581.0</ele><time>2026-04-19T10:32:16Z</time></trkpt><trkpt lat="44.461537866927024" lon="7.947187487614826"><ele>584.0</ele><time>2026-04-19T10:32:17Z</time></trkpt><trkpt lat="44.46173778480843" lon="7.947346127069816"><ele>584.0</ele><time>2026-04-19T10:32:18Z</time></trkpt><trkpt lat="44.461952866127646" lon="7.94751126613591"><ele>584.0</ele><time>2026-04-19T10:32:19Z</time></trkpt><trkpt lat="44.462160273168344" lon="7.947692523895391"><ele>581.5</ele><time>2026-04-19T10:32:20Z</time></trkpt><trkpt lat="44.462376964009216" lon="7.9478577484950055"><ele>579.0</ele><time>2026-04-19T10:32:21Z</time></trkpt><trkpt lat="44.462595932256285" lon="7.948023741044466"><ele>579.0</ele><time>2026-04-19T10:32:22Z</time></trkpt><trkpt lat="44.462815302255336" lon="7.948168397998409"><ele>579.0</ele><time>2026-04-19T10:32:23Z</time></trkpt><trkpt lat="44.46300901759247" lon="7.948332616093072"><ele>581.0</ele><time>2026-04-19T10:32:24Z</time></trkpt><trkpt lat="44.463179618340654" lon="7.948496178361967"><ele>583.0</ele><time>2026-04-19T10:32:25Z</time></trkpt><trkpt lat="44.46332335374513" lon="7.948669280767189"><ele>585.0</ele><time>2026-04-19T10:32:26Z</time></trkpt><trkpt lat="44.46344602685169" lon="7.948848615737174"><ele>585.0</ele><time>2026-04-19T10:32:27Z</time></trkpt><trkpt lat="44.4635602890206" lon="7.94901355147997"><ele>585.0</ele><time>2026-04-19T10:32:28Z</time></trkpt><trkpt lat="44.46369681019758" lon="7.949170025720481"><ele>585.0</ele><time>2026-04-19T10:32:29Z</time></trkpt><trkpt lat="44.46385840552371" lon="7.949321772286211"><ele>586.3333333333334</ele><time>2026-04-19T10:32:30Z</time></trkpt><trkpt lat="44.4640284200914" lon="7.9494752263244735"><ele>587.6666666666667</ele><time>2026-04-19T10:32:31Z</time></trkpt><trkpt lat="44.46421930192659" lon="7.949635450068761"><ele>589.0</ele><time>2026-04-19T10:32:32Z</time></trkpt><trkpt lat="44.464405622576706" lon="7.949790400287067"><ele>589.0</ele><time>2026-04-19T10:32:33Z</time></trkpt><trkpt lat="44.46458755294022" lon="7.949916235049553"><ele>589.0</ele><time>2026-04-19T10:32:34Z</time></trkpt><trkpt lat="44.46475254381035" lon="7.950062343828219"><ele>589.0</ele><time>2026-04-19T10:32:35Z</time></trkpt><trkpt lat="44.46492074510927" lon="7.950196666776337"><ele>590.3333333333334</ele><time>2026-04-19T10:32:36Z</time></trkpt><trkpt lat="44.46508959321071" lon="7.950362447950351"><ele>591.6666666666666</ele><time>2026-04-19T10:32:37Z</time></trkpt><trkpt lat="44.46524335155068" lon="7.950572606009137"><ele>593.0</ele><time>2026-04-19T10:32:38Z</time></trkpt><trkpt lat="44.465395552155435" lon="7.95082631478338"><ele>590.6666666666666</ele><time>2026-04-19T10:32:39Z</time></trkpt><trkpt lat="44.46553054398488" lon="7.951077310372446"><ele>588.3333333333334</ele><time>2026-04-19T10:32:40Z</time></trkpt><trkpt lat="44.465653571454716" lon="7.951290788220812"><ele>586.0</ele><time>2026-04-19T10:32:41Z</time></trkpt><trkpt lat="44.46575164478799" lon="7.951489260746095"><ele>586.0</ele><time>2026-04-19T10:32:42Z</time></trkpt><trkpt lat="44.46585473176945" lon="7.951654776100551"><ele>586.0</ele><time>2026-04-19T10:32:43Z</time></trkpt><trkpt lat="44.46597337898923" lon="7.951789474744717"><ele>586.0</ele><time>2026-04-19T10:32:44Z</time></trkpt><trkpt lat="44.46610214204316" lon="7.951895707027848"><ele>583.0</ele><time>2026-04-19T10:32:45Z</time></trkpt><trkpt lat="44.46622482381952" lon="7.951962797321954"><ele>580.0</ele><time>2026-04-19T10:32:46Z</time></trkpt><trkpt lat="44.46636063269611" lon="7.9519683080968795"><ele>577.0</ele><time>2026-04-19T10:32:47Z</time></trkpt><trkpt lat="44.4665116818444" lon="7.951912481146955"><ele>574.0</ele><time>2026-04-19T10:32:48Z</time></trkpt><trkpt lat="44.46667925337903" lon="7.951814777724854"><ele>575.0</ele><time>2026-04-19T10:32:49Z</time></trkpt><trkpt lat="44.466853840415695" lon="7.951686626926226"><ele>576.0</ele><time>2026-04-19T10:32:50Z</time></trkpt><trkpt lat="44.467036177066404" lon="7.951527538148624"><ele>577.0</ele><time>2026-04-19T10:32:51Z</time></trkpt><trkpt lat="44.46722183257193" lon="7.951328947025004"><ele>577.0</ele><time>2026-04-19T10:32:52Z</time></trkpt><trkpt lat="44.46740812331846" lon="7.951130966694388"><ele>577.0</ele><time>2026-04-19T10:32:53Z</time></trkpt><trkpt lat="44.46758143711467" lon="7.950969451809253"><ele>577.0</ele><time>2026-04-19T10:32:54Z</time></trkpt><trkpt lat="44.46775367865434" lon="7.950821742264762"><ele>577.6666666666667</ele><time>2026-04-19T10:32:55Z</time></trkpt><trkpt lat="44.467919768895605" lon="7.950690462032383"><ele>578.3333333333334</ele><time>2026-04-19T10:32:56Z</time></trkpt><trkpt lat="44.468091986317695" lon="7.950554442899516"><ele>579.0</ele><time>2026-04-19T10:32:57Z</time></trkpt><trkpt lat="44.46826920536657" lon="7.950428365557992"><ele>579.0</ele><time>2026-04-19T10:32:58Z</time></trkpt><trkpt lat="44.46844126743521" lon="7.9503626924801996"><ele>579.0</ele><time>2026-04-19T10:32:59Z</time></trkpt><trkpt lat="44.46859941534085" lon="7.950291716621611"><ele>579.0</ele><time>2026-04-19T10:33:00Z</time></trkpt><trkpt lat="44.468732929960915" lon="7.950233740618995"><ele>578.2</ele><time>2026-04-19T10:33:01Z</time></trkpt><trkpt lat="44.46884440057772" lon="7.950181275196565"><ele>577.4</ele><time>2026-04-19T10:33:02Z</time></trkpt><trkpt lat="44.46894092087722" lon="7.9501266268619375"><ele>576.6</ele><time>2026-04-19T10:33:03Z</time></trkpt><trkpt lat="44.46902880790765" lon="7.950077850501597"><ele>575.8</ele><time>2026-04-19T10:33:04Z</time></trkpt><trkpt lat="44.46912350247049" lon="7.950038021981266"><ele>575.0</ele><time>2026-04-19T10:33:05Z</time></trkpt><trkpt lat="44.46923533535529" lon="7.9500140495209815"><ele>579.0</ele><time>2026-04-19T10:33:06Z</time></trkpt><trkpt lat="44.46935823206709" lon="7.94999002391162"><ele>583.0</ele><time>2026-04-19T10:33:07Z</time></trkpt><trkpt lat="44.46949445357523" lon="7.949974161086966"><ele>587.0</ele><time>2026-04-19T10:33:08Z</time></trkpt><trkpt lat="44.469639332220744" lon="7.949978892969839"><ele>591.0</ele><time>2026-04-19T10:33:09Z</time></trkpt><trkpt lat="44.469789612102716" lon="7.9500101575293"><ele>587.3333333333334</ele><time>2026-04-19T10:33:10Z</time></trkpt><trkpt lat="44.46993729950386" lon="7.950071863085971"><ele>583.6666666666667</ele><time>2026-04-19T10:33:11Z</time></trkpt><trkpt lat="44.4700711933091" lon="7.950166319155643"><ele>580.0</ele><time>2026-04-19T10:33:12Z</time></trkpt><trkpt lat="44.47019288407597" lon="7.9502849201946555"><ele>580.0</ele><time>2026-04-19T10:33:13Z</time></trkpt><trkpt lat="44.470314343441075" lon="7.9504281328411714"><ele>580.0</ele><time>2026-04-19T10:33:14Z</time></trkpt><trkpt lat="44.47045088221588" lon="7.950568715316446"><ele>580.0</ele><time>2026-04-19T10:33:15Z</time></trkpt><trkpt lat="44.47061747650641" lon="7.950696759803863"><ele>580.3333333333334</ele><time>2026-04-19T10:33:16Z</time></trkpt><trkpt lat="44.47081864365155" lon="7.95078992516014"><ele>580.6666666666666</ele><time>2026-04-19T10:33:17Z</time></trkpt><trkpt lat="44.47104414445259" lon="7.950851403876846"><ele>581.0</ele><time>2026-04-19T10:33:18Z</time></trkpt><trkpt lat="44.47128496501758" lon="7.950898147517079"><ele>579.0</ele><time>2026-04-19T10:33:19Z</time></trkpt><trkpt lat="44.47154054113889" lon="7.950940494124495"><ele>577.0</ele><time>2026-04-19T10:33:20Z</time></trkpt><trkpt lat="44.471799799735294" lon="7.950991174893869"><ele>577.0</ele><time>2026-04-19T10:33:21Z</time></trkpt><trkpt lat="44.4720506325796" lon="7.951047133569845"><ele>577.0</ele><time>2026-04-19T10:33:22Z</time></trkpt><trkpt lat="44.47228537336917" lon="7.951097218438773"><ele>578.6666666666667</ele><time>2026-04-19T10:33:23Z</time></trkpt><trkpt lat="44.47251032869288" lon="7.951139563340757"><ele>580.3333333333334</ele><time>2026-04-19T10:33:24Z</time></trkpt><trkpt lat="44.472723525019475" lon="7.951180071388208"><ele>582.0</ele><time>2026-04-19T10:33:25Z</time></trkpt><trkpt lat="44.472927395225526" lon="7.951224309372874"><ele>585.6666666666666</ele><time>2026-04-19T10:33:26Z</time></trkpt><trkpt lat="44.47311929828196" lon="7.951273409595445"><ele>589.3333333333333</ele><time>2026-04-19T10:33:27Z</time></trkpt><trkpt lat="44.47329494825581" lon="7.95133230849116"><ele>593.0</ele><time>2026-04-19T10:33:28Z</time></trkpt><trkpt lat="44.47346321084977" lon="7.951407958324974"><ele>593.0</ele><time>2026-04-19T10:33:29Z</time></trkpt><trkpt lat="44.47362837980075" lon="7.951513198441212"><ele>593.0</ele><time>2026-04-19T10:33:30Z</time></trkpt><trkpt lat="44.473787390942235" lon="7.951659577784956"><ele>593.0</ele><time>2026-04-19T10:33:31Z</time></trkpt><trkpt lat="44.47394544282648" lon="7.9518185561268035"><ele>593.3333333333333</ele><time>2026-04-19T10:33:32Z</time></trkpt><trkpt lat="44.474111527660725" lon="7.951970830501127"><ele>593.6666666666666</ele><time>2026-04-19T10:33:33Z</time></trkpt><trkpt lat="44.47428517593457" lon="7.952118766227758"><ele>594.0</ele><time>2026-04-19T10:33:34Z</time></trkpt><trkpt lat="44.47446310777626" lon="7.952273824330575"><ele>597.6666666666666</ele><time>2026-04-19T10:33:35Z</time></trkpt><trkpt lat="44.47463844105052" lon="7.952451276772176"><ele>601.3333333333333</ele><time>2026-04-19T10:33:36Z</time></trkpt><trkpt lat="44.4748008888748" lon="7.95266361920519"><ele>605.0</ele><time>2026-04-19T10:33:37Z</time></trkpt><trkpt lat="44.474938917968664" lon="7.95289981943542"><ele>605.0</ele><time>2026-04-19T10:33:38Z</time></trkpt><trkpt lat="44.475057058088744" lon="7.953126942861838"><ele>605.0</ele><time>2026-04-19T10:33:39Z</time></trkpt><trkpt lat="44.47516813896117" lon="7.9533419179719145"><ele>605.0</ele><time>2026-04-19T10:33:40Z</time></trkpt><trkpt lat="44.47526613325314" lon="7.953535019467069"><ele>604.25</ele><time>2026-04-19T10:33:41Z</time></trkpt><trkpt lat="44.47535064141112" lon="7.953695807285266"><ele>603.5</ele><time>2026-04-19T10:33:42Z</time></trkpt><trkpt lat="44.475425822081625" lon="7.953827090011619"><ele>602.75</ele><time>2026-04-19T10:33:43Z</time></trkpt><trkpt lat="44.47550437915645" lon="7.95393269909182"><ele>602.0</ele><time>2026-04-19T10:33:44Z</time></trkpt><trkpt lat="44.475600078473036" lon="7.954007367314606"><ele>603.75</ele><time>2026-04-19T10:33:45Z</time></trkpt><trkpt lat="44.47572257213204" lon="7.9540482028931265"><ele>605.5</ele><time>2026-04-19T10:33:46Z</time></trkpt><trkpt lat="44.47584582694825" lon="7.954040090131799"><ele>607.25</ele><time>2026-04-19T10:33:47Z</time></trkpt><trkpt lat="44.475974610471084" lon="7.953985090467038"><ele>609.0</ele><time>2026-04-19T10:33:48Z</time></trkpt><trkpt lat="44.476111418439274" lon="7.953903076437925"><ele>609.0</ele><time>2026-04-19T10:33:49Z</time></trkpt><trkpt lat="44.47625696890072" lon="7.953794614567736"><ele>609.0</ele><time>2026-04-19T10:33:50Z</time></trkpt><trkpt lat="44.47640624756837" lon="7.9536525990333375"><ele>609.0</ele><time>2026-04-19T10:33:51Z</time></trkpt><trkpt lat="44.47657681393495" lon="7.953525497088447"><ele>608.3333333333334</ele><time>2026-04-19T10:33:52Z</time></trkpt><trkpt lat="44.476733182486946" lon="7.95335575898512"><ele>607.6666666666667</ele><time>2026-04-19T10:33:53Z</time></trkpt><trkpt lat="44.47691263242914" lon="7.953236560142512"><ele>607.0</ele><time>2026-04-19T10:33:54Z</time></trkpt><trkpt lat="44.47708433681638" lon="7.953109337636045"><ele>600.6666666666667</ele><time>2026-04-19T10:33:55Z</time></trkpt><trkpt lat="44.47725213116998" lon="7.952990533898409"><ele>594.3333333333334</ele><time>2026-04-19T10:33:56Z</time></trkpt><trkpt lat="44.47741778457968" lon="7.952885659266854"><ele>588.0</ele><time>2026-04-19T10:33:57Z</time></trkpt><trkpt lat="44.47758564513996" lon="7.952800615970238"><ele>588.0</ele><time>2026-04-19T10:33:58Z</time></trkpt><trkpt lat="44.47775389273671" lon="7.952725090188655"><ele>588.0</ele><time>2026-04-19T10:33:59Z</time></trkpt><trkpt lat="44.4779129519134" lon="7.952634606154569"><ele>588.0</ele><time>2026-04-19T10:34:00Z</time></trkpt><trkpt lat="44.478065184438876" lon="7.952575682613628"><ele>588.8</ele><time>2026-04-19T10:34:01Z</time></trkpt><trkpt lat="44.47819327771652" lon="7.952529312295494"><ele>589.5999999999999</ele><time>2026-04-19T10:34:02Z</time></trkpt><trkpt lat="44.47830309279941" lon="7.952534526895503"><ele>590.4000000000001</ele><time>2026-04-19T10:34:03Z</time></trkpt><trkpt lat="44.47840045702953" lon="7.952534050191427"><ele>591.2</ele><time>2026-04-19T10:34:04Z</time></trkpt><trkpt lat="44.478481074325636" lon="7.952545475156604"><ele>592.0</ele><time>2026-04-19T10:34:05Z</time></trkpt><trkpt lat="44.47854587458656" lon="7.9525597717927345"><ele>588.75</ele><time>2026-04-19T10:34:06Z</time></trkpt><trkpt lat="44.47862867801147" lon="7.952606388075324"><ele>585.5</ele><time>2026-04-19T10:34:09Z</time></trkpt><trkpt lat="44.478503381012224" lon="7.952685534302594"><ele>582.25</ele><time>2026-04-19T10:34:12Z</time></trkpt><trkpt lat="44.47833154171233" lon="7.952701409995603"><ele>579.0</ele><time>2026-04-19T10:34:14Z</time></trkpt><trkpt lat="44.478212898500914" lon="7.952712685427593"><ele>579.0</ele><time>2026-04-19T10:34:15Z</time></trkpt><trkpt lat="44.478075205407364" lon="7.952736289727733"><ele>579.0</ele><time>2026-04-19T10:34:16Z</time></trkpt><trkpt lat="44.477926808103575" lon="7.952782170234743"><ele>579.0</ele><time>2026-04-19T10:34:17Z</time></trkpt><trkpt lat="44.477780198354345" lon="7.952870263085937"><ele>582.0</ele><time>2026-04-19T10:34:18Z</time></trkpt><trkpt lat="44.477631932632505" lon="7.952987488468707"><ele>585.0</ele><time>2026-04-19T10:34:19Z</time></trkpt><trkpt lat="44.477473633187785" lon="7.953126233098356"><ele>588.0</ele><time>2026-04-19T10:34:20Z</time></trkpt><trkpt lat="44.477300003268304" lon="7.953304492691576"><ele>589.0</ele><time>2026-04-19T10:34:21Z</time></trkpt><trkpt lat="44.477106059429836" lon="7.953504364475468"><ele>590.0</ele><time>2026-04-19T10:34:22Z</time></trkpt><trkpt lat="44.47691053810736" lon="7.953687420662457"><ele>590.0</ele><time>2026-04-19T10:34:23Z</time></trkpt><trkpt lat="44.47673493179314" lon="7.953849081329608"><ele>590.0</ele><time>2026-04-19T10:34:24Z</time></trkpt><trkpt lat="44.47658102969852" lon="7.953996787965271"><ele>590.0</ele><time>2026-04-19T10:34:25Z</time></trkpt><trkpt lat="44.47644606964614" lon="7.954129021028034"><ele>587.0</ele><time>2026-04-19T10:34:26Z</time></trkpt><trkpt lat="44.4763286371415" lon="7.954262202462909"><ele>584.0</ele><time>2026-04-19T10:34:27Z</time></trkpt><trkpt lat="44.476228835086495" lon="7.954415138599471"><ele>581.0</ele><time>2026-04-19T10:34:28Z</time></trkpt><trkpt lat="44.47615078009332" lon="7.954603327424428"><ele>588.3333333333333</ele><time>2026-04-19T10:34:29Z</time></trkpt><trkpt lat="44.476093189492296" lon="7.954828302516347"><ele>595.6666666666666</ele><time>2026-04-19T10:34:30Z</time></trkpt><trkpt lat="44.476045838287924" lon="7.955028550322524"><ele>603.0</ele><time>2026-04-19T10:34:31Z</time></trkpt><trkpt lat="44.47601264158552" lon="7.955204187498465"><ele>603.5</ele><time>2026-04-19T10:34:32Z</time></trkpt><trkpt lat="44.47600720847352" lon="7.955365468097689"><ele>604.0</ele><time>2026-04-19T10:34:33Z</time></trkpt><trkpt lat="44.47603096571061" lon="7.9555089174213816"><ele>604.5</ele><time>2026-04-19T10:34:34Z</time></trkpt><trkpt lat="44.47610571003018" lon="7.955631458166528"><ele>605.0</ele><time>2026-04-19T10:34:35Z</time></trkpt><trkpt lat="44.476216552603525" lon="7.955740706710357"><ele>602.0</ele><time>2026-04-19T10:34:36Z</time></trkpt><trkpt lat="44.47636381868345" lon="7.955822033625043"><ele>599.0</ele><time>2026-04-19T10:34:37Z</time></trkpt><trkpt lat="44.476530635671025" lon="7.955884905285337"><ele>596.0</ele><time>2026-04-19T10:34:38Z</time></trkpt><trkpt lat="44.47669450940999" lon="7.955980122215528"><ele>596.0</ele><time>2026-04-19T10:34:39Z</time></trkpt><trkpt lat="44.47683989279414" lon="7.956057542632133"><ele>596.0</ele><time>2026-04-19T10:34:40Z</time></trkpt><trkpt lat="44.476958972303564" lon="7.956140232879019"><ele>596.0</ele><time>2026-04-19T10:34:41Z</time></trkpt><trkpt lat="44.47705756217813" lon="7.956239722879682"><ele>596.0</ele><time>2026-04-19T10:34:42Z</time></trkpt><trkpt lat="44.47711302311326" lon="7.95639879898753"><ele>593.25</ele><time>2026-04-19T10:34:43Z</time></trkpt><trkpt lat="44.477139142594375" lon="7.95657478384321"><ele>590.5</ele><time>2026-04-19T10:34:44Z</time></trkpt><trkpt lat="44.477140954996464" lon="7.956778675894744"><ele>587.75</ele><time>2026-04-19T10:34:45Z</time></trkpt><trkpt lat="44.477153372473026" lon="7.957001478146567"><ele>585.0</ele><time>2026-04-19T10:34:46Z</time></trkpt><trkpt lat="44.47717962303755" lon="7.957225029756966"><ele>585.0</ele><time>2026-04-19T10:34:47Z</time></trkpt><trkpt lat="44.47722702989104" lon="7.957430986221753"><ele>585.0</ele><time>2026-04-19T10:34:48Z</time></trkpt><trkpt lat="44.477316451362626" lon="7.957617772516269"><ele>585.0</ele><time>2026-04-19T10:34:49Z</time></trkpt><trkpt lat="44.47744402229741" lon="7.9577598246937775"><ele>588.0</ele><time>2026-04-19T10:34:50Z</time></trkpt><trkpt lat="44.477592215328706" lon="7.957854968057827"><ele>591.0</ele><time>2026-04-19T10:34:51Z</time></trkpt><trkpt lat="44.47775275151997" lon="7.957903980315781"><ele>594.0</ele><time>2026-04-19T10:34:52Z</time></trkpt><trkpt lat="44.47791521189829" lon="7.957955673307667"><ele>591.6666666666666</ele><time>2026-04-19T10:34:53Z</time></trkpt><trkpt lat="44.47807673480205" lon="7.958016528931935"><ele>589.3333333333333</ele><time>2026-04-19T10:34:54Z</time></trkpt><trkpt lat="44.47824283827865" lon="7.958123618780868"><ele>587.0</ele><time>2026-04-19T10:34:55Z</time></trkpt><trkpt lat="44.47842474240958" lon="7.958273393973714"><ele>588.5</ele><time>2026-04-19T10:34:56Z</time></trkpt><trkpt lat="44.478621929900385" lon="7.958440398440473"><ele>590.0</ele><time>2026-04-19T10:34:57Z</time></trkpt><trkpt lat="44.47881041946664" lon="7.9585974018781895"><ele>590.0</ele><time>2026-04-19T10:34:58Z</time></trkpt><trkpt lat="44.478985408463785" lon="7.958717249488664"><ele>590.0</ele><time>2026-04-19T10:34:59Z</time></trkpt><trkpt lat="44.479130223403565" lon="7.958863164460805"><ele>590.0</ele><time>2026-04-19T10:35:00Z</time></trkpt><trkpt lat="44.47926679961374" lon="7.958976987786951"><ele>590.0</ele><time>2026-04-19T10:35:01Z</time></trkpt><trkpt lat="44.47937778126265" lon="7.95908149773502"><ele>590.0</ele><time>2026-04-19T10:35:02Z</time></trkpt><trkpt lat="44.47946474985949" lon="7.9591902093173585"><ele>590.0</ele><time>2026-04-19T10:35:03Z</time></trkpt><trkpt lat="44.479507328868564" lon="7.959338376660075"><ele>590.0</ele><time>2026-04-19T10:35:04Z</time></trkpt><trkpt lat="44.47949934089541" lon="7.959495290386449"><ele>591.25</ele><time>2026-04-19T10:35:05Z</time></trkpt><trkpt lat="44.479452583290204" lon="7.959641442461035"><ele>592.5</ele><time>2026-04-19T10:35:06Z</time></trkpt><trkpt lat="44.479380510509856" lon="7.959793279374485"><ele>593.75</ele><time>2026-04-19T10:35:07Z</time></trkpt><trkpt lat="44.47930622752911" lon="7.9599667838902"><ele>595.0</ele><time>2026-04-19T10:35:08Z</time></trkpt><trkpt lat="44.47925608713717" lon="7.960171978234749"><ele>595.6666666666667</ele><time>2026-04-19T10:35:09Z</time></trkpt><trkpt lat="44.47924409595191" lon="7.960380413754307"><ele>596.3333333333334</ele><time>2026-04-19T10:35:10Z</time></trkpt><trkpt lat="44.479262682520535" lon="7.960588946898941"><ele>597.0</ele><time>2026-04-19T10:35:11Z</time></trkpt><trkpt lat="44.47931809343971" lon="7.960798893950761"><ele>596.6666666666666</ele><time>2026-04-19T10:35:12Z</time></trkpt><trkpt lat="44.47940743435971" lon="7.961002176611186"><ele>596.3333333333333</ele><time>2026-04-19T10:35:13Z</time></trkpt><trkpt lat="44.479512767781834" lon="7.9611986214783785"><ele>596.0</ele><time>2026-04-19T10:35:14Z</time></trkpt><trkpt lat="44.47959285550149" lon="7.961386919171874"><ele>598.0</ele><time>2026-04-19T10:35:15Z</time></trkpt><trkpt lat="44.47963457691609" lon="7.961568693316007"><ele>600.0</ele><time>2026-04-19T10:35:16Z</time></trkpt><trkpt lat="44.47964389296629" lon="7.961749356642241"><ele>602.0</ele><time>2026-04-19T10:35:17Z</time></trkpt><trkpt lat="44.479623153476226" lon="7.961936084423061"><ele>604.0</ele><time>2026-04-19T10:35:18Z</time></trkpt><trkpt lat="44.47958279582254" lon="7.962137120247692"><ele>604.0</ele><time>2026-04-19T10:35:19Z</time></trkpt><trkpt lat="44.479502621731925" lon="7.962339461130382"><ele>604.0</ele><time>2026-04-19T10:35:20Z</time></trkpt><trkpt lat="44.479434943017424" lon="7.962556620315364"><ele>604.0</ele><time>2026-04-19T10:35:21Z</time></trkpt><trkpt lat="44.47937538641233" lon="7.9627784907147605"><ele>607.0</ele><time>2026-04-19T10:35:22Z</time></trkpt><trkpt lat="44.47927963289823" lon="7.962976552905612"><ele>610.0</ele><time>2026-04-19T10:35:23Z</time></trkpt><trkpt lat="44.47915508859371" lon="7.963146712366575"><ele>613.0</ele><time>2026-04-19T10:35:24Z</time></trkpt><trkpt lat="44.479001985691895" lon="7.963297933248295"><ele>615.3333333333334</ele><time>2026-04-19T10:35:25Z</time></trkpt><trkpt lat="44.47883180580334" lon="7.963418929575226"><ele>617.6666666666666</ele><time>2026-04-19T10:35:26Z</time></trkpt><trkpt lat="44.47865990054252" lon="7.963502591494087"><ele>620.0</ele><time>2026-04-19T10:35:27Z</time></trkpt><trkpt lat="44.47847740435791" lon="7.963541690553065"><ele>620.0</ele><time>2026-04-19T10:35:28Z</time></trkpt><trkpt lat="44.47829768147665" lon="7.963531328465654"><ele>620.0</ele><time>2026-04-19T10:35:29Z</time></trkpt><trkpt lat="44.47813468925599" lon="7.9635194729601695"><ele>620.0</ele><time>2026-04-19T10:35:30Z</time></trkpt><trkpt lat="44.47796271897758" lon="7.963543461996414"><ele>619.3333333333333</ele><time>2026-04-19T10:35:31Z</time></trkpt><trkpt lat="44.47777811931227" lon="7.963615798217207"><ele>618.6666666666666</ele><time>2026-04-19T10:35:32Z</time></trkpt><trkpt lat="44.477591457211155" lon="7.963728993646761"><ele>618.0</ele><time>2026-04-19T10:35:33Z</time></trkpt><trkpt lat="44.47740554225261" lon="7.963878610417197"><ele>618.0</ele><time>2026-04-19T10:35:34Z</time></trkpt><trkpt lat="44.47723097927711" lon="7.964058450049819"><ele>618.0</ele><time>2026-04-19T10:35:35Z</time></trkpt><trkpt lat="44.477064843916956" lon="7.9642202238967625"><ele>618.0</ele><time>2026-04-19T10:35:36Z</time></trkpt><trkpt lat="44.47689698391152" lon="7.964341119447609"><ele>619.6666666666666</ele><time>2026-04-19T10:35:37Z</time></trkpt><trkpt lat="44.47673148341657" lon="7.964432390820604"><ele>621.3333333333333</ele><time>2026-04-19T10:35:38Z</time></trkpt><trkpt lat="44.47657517588303" lon="7.964509898471441"><ele>623.0</ele><time>2026-04-19T10:35:39Z</time></trkpt><trkpt lat="44.476437449095684" lon="7.9645736284249455"><ele>623.0</ele><time>2026-04-19T10:35:40Z</time></trkpt><trkpt lat="44.476321221812924" lon="7.964633872559004"><ele>623.0</ele><time>2026-04-19T10:35:41Z</time></trkpt><trkpt lat="44.47623159988231" lon="7.964708503196263"><ele>623.0</ele><time>2026-04-19T10:35:42Z</time></trkpt><trkpt lat="44.47617668606553" lon="7.9648038800112495"><ele>623.0</ele><time>2026-04-19T10:35:43Z</time></trkpt><trkpt lat="44.476161516737655" lon="7.964918425003422"><ele>623.0</ele><time>2026-04-19T10:35:44Z</time></trkpt><trkpt lat="44.47619648108493" lon="7.965032986211037"><ele>621.75</ele><time>2026-04-19T10:35:45Z</time></trkpt><trkpt lat="44.47626827336657" lon="7.9651343990850405"><ele>620.5</ele><time>2026-04-19T10:35:46Z</time></trkpt><trkpt lat="44.47637317853269" lon="7.965228809516871"><ele>619.25</ele><time>2026-04-19T10:35:47Z</time></trkpt><trkpt lat="44.47649679156377" lon="7.965331276658667"><ele>618.0</ele><time>2026-04-19T10:35:48Z</time></trkpt><trkpt lat="44.47663048934024" lon="7.9654558118667245"><ele>618.0</ele><time>2026-04-19T10:35:49Z</time></trkpt><trkpt lat="44.476764241809725" lon="7.9656048615655575"><ele>618.0</ele><time>2026-04-19T10:35:50Z</time></trkpt><trkpt lat="44.476880880010334" lon="7.965781356804523"><ele>618.0</ele><time>2026-04-19T10:35:51Z</time></trkpt><trkpt lat="44.47697245041922" lon="7.96595383006985"><ele>617.5</ele><time>2026-04-19T10:35:52Z</time></trkpt><trkpt lat="44.477079572739655" lon="7.966081770105676"><ele>617.0</ele><time>2026-04-19T10:35:53Z</time></trkpt><trkpt lat="44.47721531289009" lon="7.9661627412261815"><ele>616.5</ele><time>2026-04-19T10:35:54Z</time></trkpt><trkpt lat="44.4773684996359" lon="7.966201836038951"><ele>616.0</ele><time>2026-04-19T10:35:55Z</time></trkpt><trkpt lat="44.47753764653585" lon="7.966191232268515"><ele>616.0</ele><time>2026-04-19T10:35:56Z</time></trkpt><trkpt lat="44.47770495312373" lon="7.966198800481032"><ele>616.0</ele><time>2026-04-19T10:35:57Z</time></trkpt><trkpt lat="44.47785336067207" lon="7.966194851636458"><ele>616.0</ele><time>2026-04-19T10:35:58Z</time></trkpt><trkpt lat="44.47799070995287" lon="7.96620931066867"><ele>618.75</ele><time>2026-04-19T10:35:59Z</time></trkpt><trkpt lat="44.478111953799655" lon="7.9663128489804"><ele>621.5</ele><time>2026-04-19T10:36:00Z</time></trkpt><trkpt lat="44.47822056630224" lon="7.966438389246276"><ele>624.25</ele><time>2026-04-19T10:36:01Z</time></trkpt><trkpt lat="44.47833425108454" lon="7.966541406320674"><ele>627.0</ele><time>2026-04-19T10:36:02Z</time></trkpt><trkpt lat="44.478482058757805" lon="7.96660070296529"><ele>627.0</ele><time>2026-04-19T10:36:03Z</time></trkpt><trkpt lat="44.47864935741649" lon="7.966613436956051"><ele>627.0</ele><time>2026-04-19T10:36:04Z</time></trkpt><trkpt lat="44.478830148573415" lon="7.9666403087391116"><ele>627.0</ele><time>2026-04-19T10:36:05Z</time></trkpt><trkpt lat="44.479013545140184" lon="7.9666548917596085"><ele>626.3333333333334</ele><time>2026-04-19T10:36:06Z</time></trkpt><trkpt lat="44.47919312146469" lon="7.966744539285825"><ele>625.6666666666667</ele><time>2026-04-19T10:36:07Z</time></trkpt><trkpt lat="44.47935981314594" lon="7.96685731791721"><ele>625.0</ele><time>2026-04-19T10:36:08Z</time></trkpt><trkpt lat="44.479524864873916" lon="7.9669934120865715"><ele>625.3333333333334</ele><time>2026-04-19T10:36:09Z</time></trkpt><trkpt lat="44.47965179673942" lon="7.967170753163698"><ele>625.6666666666666</ele><time>2026-04-19T10:36:10Z</time></trkpt><trkpt lat="44.47978601351171" lon="7.96737269848189"><ele>626.0</ele><time>2026-04-19T10:36:11Z</time></trkpt><trkpt lat="44.47992593062472" lon="7.967586583996561"><ele>627.3333333333333</ele><time>2026-04-19T10:36:12Z</time></trkpt><trkpt lat="44.48006645034882" lon="7.967803963874099"><ele>628.6666666666666</ele><time>2026-04-19T10:36:13Z</time></trkpt><trkpt lat="44.48021264779511" lon="7.968022001731082"><ele>630.0</ele><time>2026-04-19T10:36:14Z</time></trkpt><trkpt lat="44.48035099902034" lon="7.968259902215063"><ele>627.6666666666666</ele><time>2026-04-19T10:36:15Z</time></trkpt><trkpt lat="44.48049365404245" lon="7.968491514081939"><ele>625.3333333333333</ele><time>2026-04-19T10:36:16Z</time></trkpt><trkpt lat="44.4806459401686" lon="7.9687144874602795"><ele>623.0</ele><time>2026-04-19T10:36:17Z</time></trkpt><trkpt lat="44.48079588876129" lon="7.968948217322496"><ele>623.0</ele><time>2026-04-19T10:36:18Z</time></trkpt><trkpt lat="44.48094655893308" lon="7.969174436261302"><ele>623.0</ele><time>2026-04-19T10:36:19Z</time></trkpt><trkpt lat="44.481101032868914" lon="7.9693770224846885"><ele>623.0</ele><time>2026-04-19T10:36:20Z</time></trkpt><trkpt lat="44.48125255439405" lon="7.969568233593814"><ele>620.6666666666666</ele><time>2026-04-19T10:36:21Z</time></trkpt><trkpt lat="44.48139490565503" lon="7.969744062613048"><ele>618.3333333333334</ele><time>2026-04-19T10:36:22Z</time></trkpt><trkpt lat="44.48152967423465" lon="7.969892358582304"><ele>616.0</ele><time>2026-04-19T10:36:23Z</time></trkpt><trkpt lat="44.481674153962004" lon="7.970004740948035"><ele>618.0</ele><time>2026-04-19T10:36:24Z</time></trkpt><trkpt lat="44.48183426122678" lon="7.970076763441511"><ele>620.0</ele><time>2026-04-19T10:36:25Z</time></trkpt><trkpt lat="44.48201485201347" lon="7.970107129826437"><ele>622.0</ele><time>2026-04-19T10:36:26Z</time></trkpt><trkpt lat="44.48221568821495" lon="7.970106936775222"><ele>622.0</ele><time>2026-04-19T10:36:27Z</time></trkpt><trkpt lat="44.48240066853094" lon="7.9701475505680115"><ele>622.0</ele><time>2026-04-19T10:36:28Z</time></trkpt><trkpt lat="44.48255540332426" lon="7.970174521989346"><ele>622.0</ele><time>2026-04-19T10:36:29Z</time></trkpt><trkpt lat="44.48268536580656" lon="7.9702299681348485"><ele>622.0</ele><time>2026-04-19T10:36:30Z</time></trkpt><trkpt lat="44.48279386146692" lon="7.9703143625175485"><ele>622.0</ele><time>2026-04-19T10:36:31Z</time></trkpt><trkpt lat="44.48289429909266" lon="7.970464480654521"><ele>622.0</ele><time>2026-04-19T10:36:32Z</time></trkpt><trkpt lat="44.48296081633788" lon="7.9706288658602755"><ele>622.0</ele><time>2026-04-19T10:36:33Z</time></trkpt><trkpt lat="44.482986432102976" lon="7.970801091262517"><ele>624.0</ele><time>2026-04-19T10:36:34Z</time></trkpt><trkpt lat="44.48297613850029" lon="7.9709801655415085"><ele>626.0</ele><time>2026-04-19T10:36:35Z</time></trkpt><trkpt lat="44.48292968145699" lon="7.971155731934203"><ele>628.0</ele><time>2026-04-19T10:36:36Z</time></trkpt><trkpt lat="44.48284603946689" lon="7.971319495952625"><ele>630.0</ele><time>2026-04-19T10:36:37Z</time></trkpt><trkpt lat="44.48272801500471" lon="7.971463170202722"><ele>630.0</ele><time>2026-04-19T10:36:38Z</time></trkpt><trkpt lat="44.48258835856337" lon="7.971592972526259"><ele>630.0</ele><time>2026-04-19T10:36:39Z</time></trkpt><trkpt lat="44.482450076027476" lon="7.9717197512406806"><ele>630.0</ele><time>2026-04-19T10:36:40Z</time></trkpt><trkpt lat="44.482338272046746" lon="7.971847060536431"><ele>633.0</ele><time>2026-04-19T10:36:41Z</time></trkpt><trkpt lat="44.48226237564064" lon="7.97198587547638"><ele>636.0</ele><time>2026-04-19T10:36:42Z</time></trkpt><trkpt lat="44.48223016414465" lon="7.972141621927126"><ele>639.0</ele><time>2026-04-19T10:36:43Z</time></trkpt><trkpt lat="44.48224180888855" lon="7.972320706332025"><ele>642.0</ele><time>2026-04-19T10:36:44Z</time></trkpt><trkpt lat="44.48226858532916" lon="7.972519121922078"><ele>640.25</ele><time>2026-04-19T10:36:45Z</time></trkpt><trkpt lat="44.482274486318545" lon="7.972733703916351"><ele>638.5</ele><time>2026-04-19T10:36:46Z</time></trkpt><trkpt lat="44.48225572984505" lon="7.972926733726562"><ele>636.75</ele><time>2026-04-19T10:36:47Z</time></trkpt><trkpt lat="44.482194048532314" lon="7.973089369830113"><ele>635.0</ele><time>2026-04-19T10:36:48Z</time></trkpt><trkpt lat="44.48207962844282" lon="7.973187201784876"><ele>635.0</ele><time>2026-04-19T10:36:49Z</time></trkpt><trkpt lat="44.481965958773564" lon="7.973292128567801"><ele>635.0</ele><time>2026-04-19T10:36:50Z</time></trkpt><trkpt lat="44.48184558470338" lon="7.973384509228828"><ele>635.0</ele><time>2026-04-19T10:36:51Z</time></trkpt><trkpt lat="44.48174998949313" lon="7.973548365374011"><ele>635.0</ele><time>2026-04-19T10:36:52Z</time></trkpt><trkpt lat="44.48166869682213" lon="7.973773159596206"><ele>638.6666666666666</ele><time>2026-04-19T10:36:53Z</time></trkpt><trkpt lat="44.481597320756485" lon="7.9740280157819985"><ele>642.3333333333334</ele><time>2026-04-19T10:36:54Z</time></trkpt><trkpt lat="44.481529523052295" lon="7.974294720217394"><ele>646.0</ele><time>2026-04-19T10:36:55Z</time></trkpt><trkpt lat="44.48145875658099" lon="7.974530019555752"><ele>645.25</ele><time>2026-04-19T10:36:56Z</time></trkpt><trkpt lat="44.48136955299472" lon="7.974716702815863"><ele>644.5</ele><time>2026-04-19T10:36:57Z</time></trkpt><trkpt lat="44.48128060222136" lon="7.974870111834842"><ele>643.75</ele><time>2026-04-19T10:36:58Z</time></trkpt><trkpt lat="44.48122705174169" lon="7.975003162447177"><ele>643.0</ele><time>2026-04-19T10:36:59Z</time></trkpt><trkpt lat="44.48122147585799" lon="7.9751403944331445"><ele>643.0</ele><time>2026-04-19T10:37:00Z</time></trkpt><trkpt lat="44.48125718179077" lon="7.975273667760534"><ele>643.0</ele><time>2026-04-19T10:37:01Z</time></trkpt><trkpt lat="44.48132332999589" lon="7.975372568836348"><ele>643.0</ele><time>2026-04-19T10:37:02Z</time></trkpt><trkpt lat="44.4813954232047" lon="7.975432239152514"><ele>643.0</ele><time>2026-04-19T10:37:03Z</time></trkpt><trkpt lat="44.481472351460255" lon="7.975469309449578"><ele>643.0</ele><time>2026-04-19T10:37:04Z</time></trkpt><trkpt lat="44.48158732076705" lon="7.975430338998087"><ele>642.25</ele><time>2026-04-19T10:37:05Z</time></trkpt><trkpt lat="44.48170994395395" lon="7.9754285406701015"><ele>641.5</ele><time>2026-04-19T10:37:06Z</time></trkpt><trkpt lat="44.481856925707056" lon="7.975455333062835"><ele>640.75</ele><time>2026-04-19T10:37:07Z</time></trkpt><trkpt lat="44.4820167469826" lon="7.975500820863324"><ele>640.0</ele><time>2026-04-19T10:37:08Z</time></trkpt><trkpt lat="44.482168129138415" lon="7.9755563749083676"><ele>639.75</ele><time>2026-04-19T10:37:09Z</time></trkpt><trkpt lat="44.48230231149057" lon="7.975606161911266"><ele>639.5</ele><time>2026-04-19T10:37:10Z</time></trkpt><trkpt lat="44.48243373432605" lon="7.975609257722387"><ele>639.25</ele><time>2026-04-19T10:37:11Z</time></trkpt><trkpt lat="44.48256562994947" lon="7.975551295192617"><ele>639.0</ele><time>2026-04-19T10:37:12Z</time></trkpt><trkpt lat="44.48270316667608" lon="7.975430413826172"><ele>639.0</ele><time>2026-04-19T10:37:13Z</time></trkpt><trkpt lat="44.48284701335145" lon="7.975293311359529"><ele>639.0</ele><time>2026-04-19T10:37:14Z</time></trkpt><trkpt lat="44.48298945917129" lon="7.975162578597214"><ele>639.0</ele><time>2026-04-19T10:37:15Z</time></trkpt><trkpt lat="44.48312992493092" lon="7.975074511228175"><ele>635.6666666666666</ele><time>2026-04-19T10:37:16Z</time></trkpt><trkpt lat="44.48329165536214" lon="7.975034050482045"><ele>632.3333333333333</ele><time>2026-04-19T10:37:17Z</time></trkpt><trkpt lat="44.483461665119904" lon="7.975042109615193"><ele>629.0</ele><time>2026-04-19T10:37:18Z</time></trkpt><trkpt lat="44.48363186085462" lon="7.975066295872276"><ele>631.3333333333333</ele><time>2026-04-19T10:37:19Z</time></trkpt><trkpt lat="44.483795181751056" lon="7.97512256181042"><ele>633.6666666666666</ele><time>2026-04-19T10:37:20Z</time></trkpt><trkpt lat="44.483958347731026" lon="7.9752063178627415"><ele>636.0</ele><time>2026-04-19T10:37:21Z</time></trkpt><trkpt lat="44.48423246842626" lon="7.975537690413935"><ele>636.0</ele><time>2026-04-19T10:37:23Z</time></trkpt><trkpt lat="44.484347019568325" lon="7.975712385175778"><ele>636.0</ele><time>2026-04-19T10:37:24.001Z</time></trkpt><trkpt lat="44.484480972197595" lon="7.975855752379925"><ele>636.0</ele><time>2026-04-19T10:37:25.001Z</time></trkpt><trkpt lat="44.48464543287588" lon="7.9759635071707855"><ele>632.6666666666666</ele><time>2026-04-19T10:37:26.001Z</time></trkpt><trkpt lat="44.484833024567784" lon="7.976049647241809"><ele>629.3333333333333</ele><time>2026-04-19T10:37:27.001Z</time></trkpt><trkpt lat="44.485032814109886" lon="7.976142131320465"><ele>626.0</ele><time>2026-04-19T10:37:28.001Z</time></trkpt><trkpt lat="44.48522304910198" lon="7.976256695856737"><ele>626.0</ele><time>2026-04-19T10:37:29.001Z</time></trkpt><trkpt lat="44.48540634406849" lon="7.976375371350235"><ele>626.0</ele><time>2026-04-19T10:37:30.001Z</time></trkpt><trkpt lat="44.48558147385611" lon="7.9764887284208585"><ele>626.0</ele><time>2026-04-19T10:37:31.001Z</time></trkpt><trkpt lat="44.48575156223959" lon="7.976601204102296"><ele>624.0</ele><time>2026-04-19T10:37:32.001Z</time></trkpt><trkpt lat="44.485914336686754" lon="7.9767174691261165"><ele>622.0</ele><time>2026-04-19T10:37:33.001Z</time></trkpt><trkpt lat="44.48606576488631" lon="7.976844198283474"><ele>620.0</ele><time>2026-04-19T10:37:34.001Z</time></trkpt><trkpt lat="44.486210907859274" lon="7.976972353199509"><ele>624.6666666666666</ele><time>2026-04-19T10:37:35.001Z</time></trkpt><trkpt lat="44.48635404693331" lon="7.9770775354708885"><ele>629.3333333333334</ele><time>2026-04-19T10:37:36.001Z</time></trkpt><trkpt lat="44.48650153504405" lon="7.977154524182749"><ele>634.0</ele><time>2026-04-19T10:37:37.001Z</time></trkpt><trkpt lat="44.486647502855746" lon="7.977209843165064"><ele>634.0</ele><time>2026-04-19T10:37:38.001Z</time></trkpt><trkpt lat="44.486763615518726" lon="7.977301201668806"><ele>634.0</ele><time>2026-04-19T10:37:39.001Z</time></trkpt><trkpt lat="44.48685752926035" lon="7.9773650864868015"><ele>634.0</ele><time>2026-04-19T10:37:40.001Z</time></trkpt><trkpt lat="44.486938808577065" lon="7.977400186851421"><ele>634.0</ele><time>2026-04-19T10:37:41Z</time></trkpt><trkpt lat="44.486984057749154" lon="7.977466708393971"><ele>634.0</ele><time>2026-04-19T10:37:42Z</time></trkpt><trkpt lat="44.48699855820632" lon="7.97761972500464"><ele>634.0</ele><time>2026-04-19T10:37:44Z</time></trkpt><trkpt lat="44.48698698930195" lon="7.977724206118109"><ele>634.0</ele><time>2026-04-19T10:37:45Z</time></trkpt><trkpt lat="44.48696217185187" lon="7.977847659299945"><ele>634.0</ele><time>2026-04-19T10:37:46Z</time></trkpt><trkpt lat="44.48692654647737" lon="7.97799213751544"><ele>634.0</ele><time>2026-04-19T10:37:47Z</time></trkpt><trkpt lat="44.486881636084966" lon="7.978159325042438"><ele>634.0</ele><time>2026-04-19T10:37:48Z</time></trkpt><trkpt lat="44.486828047327045" lon="7.978353390253148"><ele>635.0</ele><time>2026-04-19T10:37:49Z</time></trkpt><trkpt lat="44.486768125488034" lon="7.9785820651591335"><ele>636.0</ele><time>2026-04-19T10:37:50Z</time></trkpt><trkpt lat="44.48670221776399" lon="7.9788526043406724"><ele>637.0</ele><time>2026-04-19T10:37:51Z</time></trkpt><trkpt lat="44.486630980593105" lon="7.979147804494319"><ele>639.5</ele><time>2026-04-19T10:37:52Z</time></trkpt><trkpt lat="44.48655672925745" lon="7.979441997017989"><ele>642.0</ele><time>2026-04-19T10:37:53Z</time></trkpt><trkpt lat="44.48648012888529" lon="7.9797451510223985"><ele>642.0</ele><time>2026-04-19T10:37:54Z</time></trkpt><trkpt lat="44.486398247111126" lon="7.980066473533743"><ele>642.0</ele><time>2026-04-19T10:37:55Z</time></trkpt><trkpt lat="44.48630958345124" lon="7.980390116440316"><ele>642.0</ele><time>2026-04-19T10:37:56Z</time></trkpt><trkpt lat="44.48621199117323" lon="7.980706115537477"><ele>642.0</ele><time>2026-04-19T10:37:57Z</time></trkpt><trkpt lat="44.486109736542865" lon="7.981011912038436"><ele>644.0</ele><time>2026-04-19T10:37:58Z</time></trkpt><trkpt lat="44.486013343693564" lon="7.981303269879143"><ele>646.0</ele><time>2026-04-19T10:37:59Z</time></trkpt><trkpt lat="44.48592674290339" lon="7.98157498799361"><ele>648.0</ele><time>2026-04-19T10:38:00Z</time></trkpt><trkpt lat="44.48584617124971" lon="7.981831582638901"><ele>648.0</ele><time>2026-04-19T10:38:01Z</time></trkpt><trkpt lat="44.48576413738943" lon="7.9820662606787876"><ele>648.0</ele><time>2026-04-19T10:38:02Z</time></trkpt><trkpt lat="44.485667246570735" lon="7.982283374437098"><ele>648.0</ele><time>2026-04-19T10:38:03Z</time></trkpt><trkpt lat="44.48554422777513" lon="7.9824916466011935"><ele>650.3333333333334</ele><time>2026-04-19T10:38:04Z</time></trkpt><trkpt lat="44.48539225711053" lon="7.982683349129611"><ele>652.6666666666667</ele><time>2026-04-19T10:38:05Z</time></trkpt><trkpt lat="44.4852367035807" lon="7.982871829072582"><ele>655.0</ele><time>2026-04-19T10:38:06Z</time></trkpt><trkpt lat="44.48508894961638" lon="7.98306517260947"><ele>655.0</ele><time>2026-04-19T10:38:07Z</time></trkpt><trkpt lat="44.48494837408805" lon="7.983264926828262"><ele>655.0</ele><time>2026-04-19T10:38:08Z</time></trkpt><trkpt lat="44.4848152149664" lon="7.983478643974774"><ele>655.0</ele><time>2026-04-19T10:38:09Z</time></trkpt><trkpt lat="44.484690421630575" lon="7.983703000009237"><ele>654.6666666666667</ele><time>2026-04-19T10:38:10Z</time></trkpt><trkpt lat="44.48456815605357" lon="7.983932955850235"><ele>654.3333333333334</ele><time>2026-04-19T10:38:11Z</time></trkpt><trkpt lat="44.484442137135254" lon="7.9841598349292"><ele>654.0</ele><time>2026-04-19T10:38:12Z</time></trkpt><trkpt lat="44.4843174603081" lon="7.984373530619655"><ele>657.3333333333334</ele><time>2026-04-19T10:38:13Z</time></trkpt><trkpt lat="44.48420388655746" lon="7.984562353263903"><ele>660.6666666666667</ele><time>2026-04-19T10:38:14Z</time></trkpt><trkpt lat="44.48411466289601" lon="7.984736939317504"><ele>664.0</ele><time>2026-04-19T10:38:15Z</time></trkpt><trkpt lat="44.48405808350534" lon="7.984917417114426"><ele>663.3333333333334</ele><time>2026-04-19T10:38:16Z</time></trkpt><trkpt lat="44.484036455753966" lon="7.985127671059136"><ele>662.6666666666666</ele><time>2026-04-19T10:38:17Z</time></trkpt><trkpt lat="44.484034224770475" lon="7.985368857676538"><ele>662.0</ele><time>2026-04-19T10:38:18Z</time></trkpt><trkpt lat="44.4840392964554" lon="7.985642140056392"><ele>659.6666666666666</ele><time>2026-04-19T10:38:19Z</time></trkpt><trkpt lat="44.48402546748002" lon="7.985934191466153"><ele>657.3333333333334</ele><time>2026-04-19T10:38:20Z</time></trkpt><trkpt lat="44.48398731493304" lon="7.98625338212934"><ele>655.0</ele><time>2026-04-19T10:38:21Z</time></trkpt><trkpt lat="44.48393588311238" lon="7.986590013808668"><ele>653.0</ele><time>2026-04-19T10:38:22Z</time></trkpt><trkpt lat="44.48387555186833" lon="7.986938315584244"><ele>651.0</ele><time>2026-04-19T10:38:23Z</time></trkpt><trkpt lat="44.48381279364953" lon="7.987301667524807"><ele>659.5</ele><time>2026-04-19T10:38:24Z</time></trkpt><trkpt lat="44.48375202022999" lon="7.9876447082670206"><ele>668.0</ele><time>2026-04-19T10:38:25Z</time></trkpt><trkpt lat="44.483697508833984" lon="7.987959256815734"><ele>668.0</ele><time>2026-04-19T10:38:26Z</time></trkpt><trkpt lat="44.48364722340465" lon="7.988249983958499"><ele>668.0</ele><time>2026-04-19T10:38:27Z</time></trkpt><trkpt lat="44.48359763365579" lon="7.988531722725416"><ele>668.0</ele><time>2026-04-19T10:38:28Z</time></trkpt><trkpt lat="44.48354988247286" lon="7.988802041097627"><ele>670.3333333333333</ele><time>2026-04-19T10:38:29Z</time></trkpt><trkpt lat="44.483505926484455" lon="7.9890529571899345"><ele>672.6666666666666</ele><time>2026-04-19T10:38:30Z</time></trkpt><trkpt lat="44.483464406877246" lon="7.98929317099969"><ele>675.0</ele><time>2026-04-19T10:38:31Z</time></trkpt><trkpt lat="44.48342431813068" lon="7.989540323684759"><ele>677.0</ele><time>2026-04-19T10:38:32Z</time></trkpt><trkpt lat="44.48338409511489" lon="7.989796179092958"><ele>679.0</ele><time>2026-04-19T10:38:33Z</time></trkpt><trkpt lat="44.48334067123246" lon="7.990046579536665"><ele>681.0</ele><time>2026-04-19T10:38:34Z</time></trkpt><trkpt lat="44.48328541305385" lon="7.9902751732691435"><ele>682.0</ele><time>2026-04-19T10:38:35Z</time></trkpt><trkpt lat="44.483209219650625" lon="7.99049805007761"><ele>683.0</ele><time>2026-04-19T10:38:36Z</time></trkpt><trkpt lat="44.483121428286374" lon="7.990706804078291"><ele>684.0</ele><time>2026-04-19T10:38:37Z</time></trkpt><trkpt lat="44.483041435095" lon="7.990902133968068"><ele>684.6666666666666</ele><time>2026-04-19T10:38:38Z</time></trkpt><trkpt lat="44.482969756948265" lon="7.991097876142392"><ele>685.3333333333333</ele><time>2026-04-19T10:38:39Z</time></trkpt><trkpt lat="44.48291247222026" lon="7.991316927830633"><ele>686.0</ele><time>2026-04-19T10:38:40Z</time></trkpt><trkpt lat="44.48288579534645" lon="7.991581824052713"><ele>680.3333333333333</ele><time>2026-04-19T10:38:41Z</time></trkpt><trkpt lat="44.4828600369311" lon="7.99187250800437"><ele>674.6666666666666</ele><time>2026-04-19T10:38:42Z</time></trkpt><trkpt lat="44.482832853047974" lon="7.992174644169775"><ele>669.0</ele><time>2026-04-19T10:38:43Z</time></trkpt><trkpt lat="44.48281060667655" lon="7.992492304564653"><ele>669.5</ele><time>2026-04-19T10:38:44Z</time></trkpt><trkpt lat="44.482794211367946" lon="7.992826948853229"><ele>670.0</ele><time>2026-04-19T10:38:45Z</time></trkpt><trkpt lat="44.482779336067075" lon="7.993158072498909"><ele>672.0</ele><time>2026-04-19T10:38:46Z</time></trkpt><trkpt lat="44.482758728869875" lon="7.993466922358991"><ele>674.0</ele><time>2026-04-19T10:38:47Z</time></trkpt><trkpt lat="44.482733452707656" lon="7.993761858380248"><ele>676.0</ele><time>2026-04-19T10:38:48Z</time></trkpt><trkpt lat="44.48270620396293" lon="7.9940373880811135"><ele>678.0</ele><time>2026-04-19T10:38:49Z</time></trkpt><trkpt lat="44.48267219460054" lon="7.994278365654991"><ele>680.0</ele><time>2026-04-19T10:38:50Z</time></trkpt><trkpt lat="44.48260981337411" lon="7.994501361723519"><ele>682.0</ele><time>2026-04-19T10:38:51Z</time></trkpt><trkpt lat="44.48251451638861" lon="7.994705534112841"><ele>682.0</ele><time>2026-04-19T10:38:52Z</time></trkpt><trkpt lat="44.48239785548847" lon="7.994913296353308"><ele>682.0</ele><time>2026-04-19T10:38:53Z</time></trkpt><trkpt lat="44.48227188634618" lon="7.995135576180547"><ele>682.0</ele><time>2026-04-19T10:38:54Z</time></trkpt><trkpt lat="44.482124491602626" lon="7.995354456282997"><ele>678.0</ele><time>2026-04-19T10:38:55Z</time></trkpt><trkpt lat="44.48198326803918" lon="7.995617098001107"><ele>674.0</ele><time>2026-04-19T10:38:56Z</time></trkpt><trkpt lat="44.481803720257865" lon="7.9958718061812"><ele>672.5</ele><time>2026-04-19T10:38:57Z</time></trkpt><trkpt lat="44.48159783844936" lon="7.99611804608594"><ele>671.0</ele><time>2026-04-19T10:38:58Z</time></trkpt><trkpt lat="44.48138819156353" lon="7.996328256394891"><ele>673.0</ele><time>2026-04-19T10:38:59Z</time></trkpt><trkpt lat="44.48118434328413" lon="7.996516890002838"><ele>675.0</ele><time>2026-04-19T10:39:00Z</time></trkpt><trkpt lat="44.480991115243825" lon="7.996703264050578"><ele>676.3333333333334</ele><time>2026-04-19T10:39:01Z</time></trkpt><trkpt lat="44.480807749012804" lon="7.996885416407827"><ele>677.6666666666667</ele><time>2026-04-19T10:39:02Z</time></trkpt><trkpt lat="44.48063379428817" lon="7.997055039804896"><ele>679.0</ele><time>2026-04-19T10:39:03Z</time></trkpt><trkpt lat="44.48045431360795" lon="7.997227255407506"><ele>680.5</ele><time>2026-04-19T10:39:04Z</time></trkpt><trkpt lat="44.48026623415988" lon="7.997409706636962"><ele>682.0</ele><time>2026-04-19T10:39:05Z</time></trkpt><trkpt lat="44.480077363572484" lon="7.997598677590704"><ele>684.6666666666667</ele><time>2026-04-19T10:39:06Z</time></trkpt><trkpt lat="44.479907931776346" lon="7.9977702670034025"><ele>687.3333333333334</ele><time>2026-04-19T10:39:07Z</time></trkpt><trkpt lat="44.479750185767486" lon="7.997932390724136"><ele>690.0</ele><time>2026-04-19T10:39:08Z</time></trkpt><trkpt lat="44.4795994961065" lon="7.998076304421844"><ele>691.0</ele><time>2026-04-19T10:39:09Z</time></trkpt><trkpt lat="44.479443604459895" lon="7.998190834574803"><ele>692.0</ele><time>2026-04-19T10:39:10Z</time></trkpt><trkpt lat="44.479266920892435" lon="7.998264888561206"><ele>693.0</ele><time>2026-04-19T10:39:11Z</time></trkpt><trkpt lat="44.47908079100811" lon="7.998324144946335"><ele>696.6666666666666</ele><time>2026-04-19T10:39:12Z</time></trkpt><trkpt lat="44.478884864043955" lon="7.9984009555452795"><ele>700.3333333333333</ele><time>2026-04-19T10:39:13Z</time></trkpt><trkpt lat="44.47867249406477" lon="7.998460883369647"><ele>704.0</ele><time>2026-04-19T10:39:14Z</time></trkpt><trkpt lat="44.478457859932256" lon="7.998530096395757"><ele>704.0</ele><time>2026-04-19T10:39:15Z</time></trkpt><trkpt lat="44.47824756374748" lon="7.998598338778204"><ele>704.0</ele><time>2026-04-19T10:39:16Z</time></trkpt><trkpt lat="44.47805976070317" lon="7.998652177803467"><ele>704.0</ele><time>2026-04-19T10:39:17Z</time></trkpt><trkpt lat="44.477883020320995" lon="7.99868904110972"><ele>705.25</ele><time>2026-04-19T10:39:18Z</time></trkpt><trkpt lat="44.4777195919845" lon="7.998717009957226"><ele>706.5</ele><time>2026-04-19T10:39:19Z</time></trkpt><trkpt lat="44.47757187717062" lon="7.998742049073111"><ele>707.75</ele><time>2026-04-19T10:39:20Z</time></trkpt><trkpt lat="44.47744613389455" lon="7.998769679776414"><ele>709.0</ele><time>2026-04-19T10:39:21Z</time></trkpt><trkpt lat="44.4773465784234" lon="7.998790126596193"><ele>709.0</ele><time>2026-04-19T10:39:22Z</time></trkpt><trkpt lat="44.47727481175882" lon="7.9988259636864685"><ele>709.0</ele><time>2026-04-19T10:39:23Z</time></trkpt><trkpt lat="44.47724044498232" lon="7.998904814787751"><ele>709.0</ele><time>2026-04-19T10:39:24Z</time></trkpt><trkpt lat="44.47724732388709" lon="7.999003052764442"><ele>709.0</ele><time>2026-04-19T10:39:25Z</time></trkpt><trkpt lat="44.47729098345986" lon="7.999096977445543"><ele>709.0</ele><time>2026-04-19T10:39:26Z</time></trkpt><trkpt lat="44.47737203456247" lon="7.999185150684714"><ele>709.0</ele><time>2026-04-19T10:39:27Z</time></trkpt><trkpt lat="44.47748982000966" lon="7.999253706254318"><ele>711.5</ele><time>2026-04-19T10:39:28Z</time></trkpt><trkpt lat="44.47761493508985" lon="7.999338872746447"><ele>714.0</ele><time>2026-04-19T10:39:29.001Z</time></trkpt><trkpt lat="44.47773158022761" lon="7.99944043501789"><ele>716.5</ele><time>2026-04-19T10:39:30.001Z</time></trkpt><trkpt lat="44.47782043362762" lon="7.999542207273082"><ele>719.0</ele><time>2026-04-19T10:39:31.001Z</time></trkpt><trkpt lat="44.477868585394994" lon="7.999688932686614"><ele>719.0</ele><time>2026-04-19T10:39:32.001Z</time></trkpt><trkpt lat="44.47788279349256" lon="7.999846162076731"><ele>719.0</ele><time>2026-04-19T10:39:33.001Z</time></trkpt><trkpt lat="44.477860228671645" lon="7.9999989649526535"><ele>719.0</ele><time>2026-04-19T10:39:34.001Z</time></trkpt><trkpt lat="44.47778489764332" lon="8.00015153183009"><ele>719.0</ele><time>2026-04-19T10:39:35.001Z</time></trkpt><trkpt lat="44.477710647183756" lon="8.000325816777806"><ele>719.0</ele><time>2026-04-19T10:39:36.001Z</time></trkpt><trkpt lat="44.477604426109366" lon="8.00051516163349"><ele>719.0</ele><time>2026-04-19T10:39:37.001Z</time></trkpt><trkpt lat="44.47749758214755" lon="8.000752918195504"><ele>719.0</ele><time>2026-04-19T10:39:38.001Z</time></trkpt><trkpt lat="44.47737558505438" lon="8.001022249305814"><ele>715.5</ele><time>2026-04-19T10:39:39.001Z</time></trkpt><trkpt lat="44.47723585621382" lon="8.001303285655087"><ele>712.0</ele><time>2026-04-19T10:39:40.001Z</time></trkpt><trkpt lat="44.47710015318572" lon="8.001572255990249"><ele>711.6666666666667</ele><time>2026-04-19T10:39:41.001Z</time></trkpt><trkpt lat="44.476972314637" lon="8.001823860522387"><ele>711.3333333333334</ele><time>2026-04-19T10:39:42.001Z</time></trkpt><trkpt lat="44.47685108775621" lon="8.002059792402815"><ele>711.0</ele><time>2026-04-19T10:39:43.001Z</time></trkpt><trkpt lat="44.47673618449169" lon="8.002297341401757"><ele>710.3333333333334</ele><time>2026-04-19T10:39:44.001Z</time></trkpt><trkpt lat="44.47663942029207" lon="8.002547104919529"><ele>709.6666666666667</ele><time>2026-04-19T10:39:45.001Z</time></trkpt><trkpt lat="44.476565995333786" lon="8.002808171898456"><ele>709.0</ele><time>2026-04-19T10:39:46.001Z</time></trkpt><trkpt lat="44.47651668832785" lon="8.003088918953349"><ele>706.6666666666667</ele><time>2026-04-19T10:39:47.001Z</time></trkpt><trkpt lat="44.476488972067074" lon="8.003395899637976"><ele>704.3333333333334</ele><time>2026-04-19T10:39:48.001Z</time></trkpt><trkpt lat="44.476466182859454" lon="8.003707837057515"><ele>702.0</ele><time>2026-04-19T10:39:49.001Z</time></trkpt><trkpt lat="44.476436483004875" lon="8.004000198725972"><ele>700.3333333333334</ele><time>2026-04-19T10:39:50.001Z</time></trkpt><trkpt lat="44.476401122156965" lon="8.004282122587762"><ele>698.6666666666667</ele><time>2026-04-19T10:39:51.001Z</time></trkpt><trkpt lat="44.47636491600949" lon="8.004553874299217"><ele>697.0</ele><time>2026-04-19T10:39:52.001Z</time></trkpt><trkpt lat="44.476328699789" lon="8.004818055784398"><ele>696.3333333333334</ele><time>2026-04-19T10:39:53.001Z</time></trkpt><trkpt lat="44.476287864160895" lon="8.005072930192052"><ele>695.6666666666666</ele><time>2026-04-19T10:39:54.001Z</time></trkpt><trkpt lat="44.476243458724134" lon="8.005318245793086"><ele>695.0</ele><time>2026-04-19T10:39:55.001Z</time></trkpt><trkpt lat="44.47619371317697" lon="8.00555705963588"><ele>694.3333333333333</ele><time>2026-04-19T10:39:56.001Z</time></trkpt><trkpt lat="44.47613798688713" lon="8.005790771877455"><ele>693.6666666666666</ele><time>2026-04-19T10:39:57.001Z</time></trkpt><trkpt lat="44.47608442832892" lon="8.006011766178036"><ele>693.0</ele><time>2026-04-19T10:39:58.001Z</time></trkpt><trkpt lat="44.47603908938406" lon="8.006219630536197"><ele>693.0</ele><time>2026-04-19T10:39:59.001Z</time></trkpt><trkpt lat="44.4759999447832" lon="8.006416840750365"><ele>693.0</ele><time>2026-04-19T10:40:00.001Z</time></trkpt><trkpt lat="44.47596127727338" lon="8.00660488881683"><ele>693.0</ele><time>2026-04-19T10:40:01.001Z</time></trkpt><trkpt lat="44.47592559974435" lon="8.006781953598503"><ele>693.0</ele><time>2026-04-19T10:40:02.001Z</time></trkpt><trkpt lat="44.47589010197308" lon="8.00694391426927"><ele>694.2</ele><time>2026-04-19T10:40:03.001Z</time></trkpt><trkpt lat="44.47585562542016" lon="8.007095023747182"><ele>695.4</ele><time>2026-04-19T10:40:04.001Z</time></trkpt><trkpt lat="44.475823025872174" lon="8.007242531018075"><ele>696.6</ele><time>2026-04-19T10:40:05.001Z</time></trkpt><trkpt lat="44.47579293933951" lon="8.007391272161389"><ele>697.8000000000001</ele><time>2026-04-19T10:40:06.001Z</time></trkpt><trkpt lat="44.47576418583877" lon="8.007547506121924"><ele>699.0</ele><time>2026-04-19T10:40:07.001Z</time></trkpt><trkpt lat="44.475740451065455" lon="8.007717815193573"><ele>700.25</ele><time>2026-04-19T10:40:08.001Z</time></trkpt><trkpt lat="44.47572405092681" lon="8.007905012987045"><ele>701.5</ele><time>2026-04-19T10:40:09.001Z</time></trkpt><trkpt lat="44.47571198556024" lon="8.008097961039704"><ele>702.75</ele><time>2026-04-19T10:40:10.001Z</time></trkpt><trkpt lat="44.4756933928569" lon="8.008293567411181"><ele>704.0</ele><time>2026-04-19T10:40:11.001Z</time></trkpt><trkpt lat="44.47565521003574" lon="8.008484309793351"><ele>704.0</ele><time>2026-04-19T10:40:12.001Z</time></trkpt><trkpt lat="44.4756032788202" lon="8.008656892147936"><ele>704.0</ele><time>2026-04-19T10:40:13.001Z</time></trkpt><trkpt lat="44.475544563982275" lon="8.00881901717123"><ele>704.0</ele><time>2026-04-19T10:40:14.001Z</time></trkpt><trkpt lat="44.47548685701044" lon="8.008970412270696"><ele>704.0</ele><time>2026-04-19T10:40:15.001Z</time></trkpt><trkpt lat="44.47543743154665" lon="8.009115170762659"><ele>703.2</ele><time>2026-04-19T10:40:16.001Z</time></trkpt><trkpt lat="44.47539596998041" lon="8.00925726930207"><ele>702.4000000000001</ele><time>2026-04-19T10:40:17.001Z</time></trkpt><trkpt lat="44.475360614418726" lon="8.009396279932032"><ele>701.6</ele><time>2026-04-19T10:40:18.001Z</time></trkpt><trkpt lat="44.47533413958876" lon="8.009534463860629"><ele>700.8</ele><time>2026-04-19T10:40:19.001Z</time></trkpt><trkpt lat="44.475306904103775" lon="8.009672738782111"><ele>700.0</ele><time>2026-04-19T10:40:20.001Z</time></trkpt><trkpt lat="44.4752756921955" lon="8.00981519518023"><ele>700.0</ele><time>2026-04-19T10:40:21.001Z</time></trkpt><trkpt lat="44.47524434057559" lon="8.009959300803482"><ele>700.0</ele><time>2026-04-19T10:40:22.001Z</time></trkpt><trkpt lat="44.47521333644423" lon="8.010109063587965"><ele>700.0</ele><time>2026-04-19T10:40:23.001Z</time></trkpt><trkpt lat="44.47517908435694" lon="8.010262503975278"><ele>700.0</ele><time>2026-04-19T10:40:24.001Z</time></trkpt><trkpt lat="44.47514424145881" lon="8.01042144136504"><ele>701.75</ele><time>2026-04-19T10:40:25.001Z</time></trkpt><trkpt lat="44.47510937899372" lon="8.010584457222144"><ele>703.5</ele><time>2026-04-19T10:40:26.001Z</time></trkpt><trkpt lat="44.47507222960319" lon="8.010750049997046"><ele>705.25</ele><time>2026-04-19T10:40:27.001Z</time></trkpt><trkpt lat="44.47503635685421" lon="8.010921347005866"><ele>707.0</ele><time>2026-04-19T10:40:28.001Z</time></trkpt><trkpt lat="44.47499733157322" lon="8.011092616630759"><ele>707.0</ele><time>2026-04-19T10:40:29.001Z</time></trkpt><trkpt lat="44.47494701878528" lon="8.011259387970888"><ele>707.0</ele><time>2026-04-19T10:40:30.001Z</time></trkpt><trkpt lat="44.474888376440965" lon="8.011422321882867"><ele>707.0</ele><time>2026-04-19T10:40:31Z</time></trkpt><trkpt lat="44.47482728527094" lon="8.011580721488418"><ele>707.0</ele><time>2026-04-19T10:40:32Z</time></trkpt><trkpt lat="44.47476817103709" lon="8.011732150699446"><ele>707.0</ele><time>2026-04-19T10:40:33Z</time></trkpt><trkpt lat="44.474710118845785" lon="8.011880703831286"><ele>707.0</ele><time>2026-04-19T10:40:34Z</time></trkpt><trkpt lat="44.47464984859172" lon="8.012034171504785"><ele>707.0</ele><time>2026-04-19T10:40:35Z</time></trkpt><trkpt lat="44.47459165871117" lon="8.012198526709788"><ele>707.0</ele><time>2026-04-19T10:40:36Z</time></trkpt><trkpt lat="44.4745324077852" lon="8.012369350614097"><ele>707.75</ele><time>2026-04-19T10:40:37Z</time></trkpt><trkpt lat="44.474469767286074" lon="8.012539155257652"><ele>708.5</ele><time>2026-04-19T10:40:38Z</time></trkpt><trkpt lat="44.47440545346911" lon="8.012703717641896"><ele>709.25</ele><time>2026-04-19T10:40:39Z</time></trkpt><trkpt lat="44.47434134086936" lon="8.012864969366872"><ele>710.0</ele><time>2026-04-19T10:40:40Z</time></trkpt><trkpt lat="44.474280314481874" lon="8.013022131252864"><ele>710.0</ele><time>2026-04-19T10:40:41Z</time></trkpt><trkpt lat="44.47422390603648" lon="8.013174783017904"><ele>710.0</ele><time>2026-04-19T10:40:42Z</time></trkpt><trkpt lat="44.47416948906722" lon="8.01332834253808"><ele>710.0</ele><time>2026-04-19T10:40:43Z</time></trkpt><trkpt lat="44.474117055816876" lon="8.013481237148978"><ele>710.0</ele><time>2026-04-19T10:40:44Z</time></trkpt><trkpt lat="44.474068003461504" lon="8.013630572211756"><ele>710.4</ele><time>2026-04-19T10:40:45Z</time></trkpt><trkpt lat="44.474019943187756" lon="8.013770920705767"><ele>710.8</ele><time>2026-04-19T10:40:46Z</time></trkpt><trkpt lat="44.47397316232912" lon="8.013900252983099"><ele>711.2</ele><time>2026-04-19T10:40:47Z</time></trkpt><trkpt lat="44.473927107268715" lon="8.014025500378615"><ele>711.6</ele><time>2026-04-19T10:40:48Z</time></trkpt><trkpt lat="44.473884786222115" lon="8.014142953588957"><ele>712.0</ele><time>2026-04-19T10:40:49Z</time></trkpt><trkpt lat="44.473844904797396" lon="8.014237982338766"><ele>712.1428571428571</ele><time>2026-04-19T10:40:50Z</time></trkpt><trkpt lat="44.47381602423575" lon="8.014328048833212"><ele>712.2857142857142</ele><time>2026-04-19T10:40:51Z</time></trkpt><trkpt lat="44.473809978133524" lon="8.014425917129179"><ele>712.4285714285713</ele><time>2026-04-19T10:40:52Z</time></trkpt><trkpt lat="44.47382909410036" lon="8.014519498017515"><ele>712.5714285714286</ele><time>2026-04-19T10:40:53Z</time></trkpt><trkpt lat="44.473847729948034" lon="8.014619369905468"><ele>712.7142857142858</ele><time>2026-04-19T10:40:54Z</time></trkpt><trkpt lat="44.473841035759826" lon="8.014727436039628"><ele>712.8571428571428</ele><time>2026-04-19T10:40:55Z</time></trkpt><trkpt lat="44.47382446443583" lon="8.014838385238427"><ele>713.0</ele><time>2026-04-19T10:40:56Z</time></trkpt><trkpt lat="44.47380468428559" lon="8.014952785160613"><ele>712.8</ele><time>2026-04-19T10:40:57Z</time></trkpt><trkpt lat="44.473785446168044" lon="8.015074301388145"><ele>712.5999999999999</ele><time>2026-04-19T10:40:58Z</time></trkpt><trkpt lat="44.47377395622047" lon="8.015204111686069"><ele>712.4000000000001</ele><time>2026-04-19T10:40:59Z</time></trkpt><trkpt lat="44.47376076523486" lon="8.015339834502823"><ele>712.2</ele><time>2026-04-19T10:41:00Z</time></trkpt><trkpt lat="44.47374272920706" lon="8.015476412777334"><ele>712.0</ele><time>2026-04-19T10:41:01Z</time></trkpt><trkpt lat="44.47372325006198" lon="8.015605741331118"><ele>711.6666666666667</ele><time>2026-04-19T10:41:02Z</time></trkpt><trkpt lat="44.47370688249782" lon="8.015724220204058"><ele>711.3333333333334</ele><time>2026-04-19T10:41:03Z</time></trkpt><trkpt lat="44.473686888324146" lon="8.015835057702606"><ele>711.0</ele><time>2026-04-19T10:41:04Z</time></trkpt><trkpt lat="44.47366737106016" lon="8.015941057189695"><ele>710.6666666666666</ele><time>2026-04-19T10:41:05Z</time></trkpt><trkpt lat="44.4736550243123" lon="8.0160456517599"><ele>710.3333333333333</ele><time>2026-04-19T10:41:06Z</time></trkpt><trkpt lat="44.47364600027165" lon="8.016147214040164"><ele>710.0</ele><time>2026-04-19T10:41:07Z</time></trkpt><trkpt lat="44.473637470130726" lon="8.016246314849433"><ele>710.0</ele><time>2026-04-19T10:41:08Z</time></trkpt><trkpt lat="44.47362714622926" lon="8.016346954184485"><ele>710.0</ele><time>2026-04-19T10:41:09Z</time></trkpt><trkpt lat="44.47361626758806" lon="8.016448393035558"><ele>710.0</ele><time>2026-04-19T10:41:10Z</time></trkpt><trkpt lat="44.47360271637277" lon="8.016551084777083"><ele>710.0</ele><time>2026-04-19T10:41:11Z</time></trkpt><trkpt lat="44.47359267575558" lon="8.016646584869148"><ele>710.0</ele><time>2026-04-19T10:41:12Z</time></trkpt><trkpt lat="44.47358404558674" lon="8.016741763396341"><ele>710.0</ele><time>2026-04-19T10:41:13Z</time></trkpt><trkpt lat="44.47358452583332" lon="8.016837180538635"><ele>710.0</ele><time>2026-04-19T10:41:14Z</time></trkpt><trkpt lat="44.47359327341314" lon="8.016928352860457"><ele>710.0</ele><time>2026-04-19T10:41:15Z</time></trkpt><trkpt lat="44.47359985519378" lon="8.017064572576677"><ele>710.0</ele><time>2026-04-19T10:41:17Z</time></trkpt><trkpt lat="44.47360130127073" lon="8.017172495428559"><ele>710.0</ele><time>2026-04-19T10:41:19Z</time></trkpt><trkpt lat="44.473602484114274" lon="8.017318099019809"><ele>710.0</ele><time>2026-04-19T10:41:21Z</time></trkpt><trkpt lat="44.47360139563054" lon="8.01741447409583"><ele>710.0</ele><time>2026-04-19T10:41:22Z</time></trkpt><trkpt lat="44.473599198504985" lon="8.017528140089382"><ele>710.0</ele><time>2026-04-19T10:41:23Z</time></trkpt><trkpt lat="44.47358780486129" lon="8.017637115949855"><ele>710.4</ele><time>2026-04-19T10:41:24Z</time></trkpt><trkpt lat="44.473583942132336" lon="8.017857265237197"><ele>710.8</ele><time>2026-04-19T10:41:26Z</time></trkpt><trkpt lat="44.473570394780914" lon="8.017967571890772"><ele>711.2</ele><time>2026-04-19T10:41:27Z</time></trkpt><trkpt lat="44.47355321679703" lon="8.018073830861109"><ele>711.6</ele><time>2026-04-19T10:41:28Z</time></trkpt><trkpt lat="44.473542691486685" lon="8.018181365857425"><ele>712.0</ele><time>2026-04-19T10:41:29Z</time></trkpt><trkpt lat="44.4735398666888" lon="8.018289831700553"><ele>712.8571428571428</ele><time>2026-04-19T10:41:30Z</time></trkpt><trkpt lat="44.473552460860894" lon="8.01839592417654"><ele>713.7142857142857</ele><time>2026-04-19T10:41:31Z</time></trkpt><trkpt lat="44.473580011882355" lon="8.018498268918165"><ele>714.5714285714286</ele><time>2026-04-19T10:41:32Z</time></trkpt><trkpt lat="44.47359383799736" lon="8.018610206955794"><ele>715.4285714285713</ele><time>2026-04-19T10:41:33Z</time></trkpt><trkpt lat="44.47361282198178" lon="8.018718990812852"><ele>716.2857142857143</ele><time>2026-04-19T10:41:34.001Z</time></trkpt><trkpt lat="44.47362974720024" lon="8.018810858379213"><ele>717.1428571428571</ele><time>2026-04-19T10:41:35.001Z</time></trkpt><trkpt lat="44.47365366492751" lon="8.018895162094426"><ele>718.0</ele><time>2026-04-19T10:41:36.001Z</time></trkpt><trkpt lat="44.47367790517529" lon="8.019067074285989"><ele>718.0</ele><time>2026-04-19T10:41:38.001Z</time></trkpt><trkpt lat="44.473704971838444" lon="8.019147055492848"><ele>718.0</ele><time>2026-04-19T10:41:39.001Z</time></trkpt><trkpt lat="44.47372007256986" lon="8.0192374466035"><ele>718.0</ele><time>2026-04-19T10:41:40.001Z</time></trkpt><trkpt lat="44.4737249000554" lon="8.019329725727102"><ele>718.0</ele><time>2026-04-19T10:41:41.001Z</time></trkpt><trkpt lat="44.473732302661034" lon="8.019427606435027"><ele>718.0</ele><time>2026-04-19T10:41:42.001Z</time></trkpt><trkpt lat="44.47373955907667" lon="8.019521269318655"><ele>718.0</ele><time>2026-04-19T10:41:43.001Z</time></trkpt><trkpt lat="44.4737297096994" lon="8.019672790267736"><ele>718.0</ele><time>2026-04-19T10:41:45.001Z</time></trkpt><trkpt lat="44.47371637443258" lon="8.019790577799911"><ele>718.2</ele><time>2026-04-19T10:41:48.001Z</time></trkpt><trkpt lat="44.47375447769789" lon="8.019898609067097"><ele>718.4</ele><time>2026-04-19T10:41:50.001Z</time></trkpt><trkpt lat="44.47384424220158" lon="8.019972905542973"><ele>718.6</ele><time>2026-04-19T10:41:52.001Z</time></trkpt><trkpt lat="44.47392583742938" lon="8.020047202927405"><ele>718.8000000000001</ele><time>2026-04-19T10:41:54.001Z</time></trkpt><trkpt lat="44.47397036763583" lon="8.020156625685795"><ele>719.0</ele><time>2026-04-19T10:41:56.001Z</time></trkpt><trkpt lat="44.47402114781925" lon="8.020253169891069"><ele>730.0</ele><time>2026-04-19T10:41:58.001Z</time></trkpt><trkpt lat="44.47407202728658" lon="8.02032720848796"><ele>730.0</ele><time>2026-04-19T10:42:00.001Z</time></trkpt><trkpt lat="44.474142728167244" lon="8.020401875622186"><ele>730.0</ele><time>2026-04-19T10:42:03.001Z</time></trkpt><trkpt lat="44.47421016507606" lon="8.020436497968895"><ele>730.0</ele><time>2026-04-19T10:42:05.001Z</time></trkpt><trkpt lat="44.47426853417967" lon="8.020490223725586"><ele>730.0</ele><time>2026-04-19T10:42:07.001Z</time></trkpt><trkpt lat="44.47432646956642" lon="8.020531374003445"><ele>730.0</ele><time>2026-04-19T10:42:09.001Z</time></trkpt></trkseg><trkseg><trkpt lat="44.47444584339113" lon="8.020650135897615"><ele>730.0</ele><time>2026-04-19T12:01:03.001Z</time></trkpt><trkpt lat="44.47452843283919" lon="8.020709080198134"><ele>730.0</ele><time>2026-04-19T12:01:05.001Z</time></trkpt><trkpt lat="44.474628124968056" lon="8.020781671269443"><ele>730.0</ele><time>2026-04-19T12:01:07.001Z</time></trkpt><trkpt lat="44.47472128210464" lon="8.020853935211628"><ele>730.0</ele><time>2026-04-19T12:01:09.001Z</time></trkpt><trkpt lat="44.47478523695204" lon="8.020975899869837"><ele>730.0</ele><time>2026-04-19T12:01:11.001Z</time></trkpt><trkpt lat="44.47485101344893" lon="8.02104576474527"><ele>730.5</ele><time>2026-04-19T12:01:13.001Z</time></trkpt><trkpt lat="44.47490505050771" lon="8.021122413861873"><ele>731.0</ele><time>2026-04-19T12:01:15.001Z</time></trkpt><trkpt lat="44.47484563718884" lon="8.021183775341186"><ele>731.5</ele><time>2026-04-19T12:01:16.001Z</time></trkpt><trkpt lat="44.47485042194784" lon="8.02127567844877"><ele>732.0</ele><time>2026-04-19T12:01:18.001Z</time></trkpt><trkpt lat="44.47485308591953" lon="8.021367796275932"><ele>732.5</ele><time>2026-04-19T12:01:20.001Z</time></trkpt><trkpt lat="44.47484954203078" lon="8.021484275578182"><ele>733.0</ele><time>2026-04-19T12:01:23.001Z</time></trkpt><trkpt lat="44.47483690702477" lon="8.021601038596925"><ele>733.0</ele><time>2026-04-19T12:01:26.001Z</time></trkpt><trkpt lat="44.474932964175785" lon="8.021632894126567"><ele>733.0</ele><time>2026-04-19T12:01:32.001Z</time></trkpt><trkpt lat="44.47499136067772" lon="8.021564230433084"><ele>733.0</ele><time>2026-04-19T12:01:34.001Z</time></trkpt><trkpt lat="44.47503854629066" lon="8.021483074706184"><ele>733.0</ele><time>2026-04-19T12:01:36.001Z</time></trkpt><trkpt lat="44.475094530757225" lon="8.021392539520791"><ele>733.0</ele><time>2026-04-19T12:01:38.001Z</time></trkpt><trkpt lat="44.47515116273347" lon="8.021311427518693"><ele>733.0</ele><time>2026-04-19T12:01:40.001Z</time></trkpt><trkpt lat="44.47523220819219" lon="8.021279966197131"><ele>733.0</ele><time>2026-04-19T12:01:42.001Z</time></trkpt><trkpt lat="44.4753137863453" lon="8.021203226779535"><ele>733.0</ele><time>2026-04-19T12:01:44.001Z</time></trkpt><trkpt lat="44.475411754254495" lon="8.02114075527885"><ele>733.0</ele><time>2026-04-19T12:01:46.001Z</time></trkpt><trkpt lat="44.47546944446339" lon="8.021096226819264"><ele>733.0</ele><time>2026-04-19T12:01:47.001Z</time></trkpt><trkpt lat="44.475530457392985" lon="8.021049133721109"><ele>733.0</ele><time>2026-04-19T12:01:48.001Z</time></trkpt><trkpt lat="44.47559492506563" lon="8.021000670402309"><ele>733.0</ele><time>2026-04-19T12:01:49.001Z</time></trkpt><trkpt lat="44.475658317677414" lon="8.020954405128562"><ele>731.6666666666667</ele><time>2026-04-19T12:01:50.001Z</time></trkpt><trkpt lat="44.47572033552162" lon="8.020913160944563"><ele>730.3333333333334</ele><time>2026-04-19T12:01:51.001Z</time></trkpt><trkpt lat="44.475784139291044" lon="8.020877025369659"><ele>729.0</ele><time>2026-04-19T12:01:52.001Z</time></trkpt><trkpt lat="44.47584851331149" lon="8.020850103511291"><ele>727.6666666666666</ele><time>2026-04-19T12:01:53.001Z</time></trkpt><trkpt lat="44.475910985452536" lon="8.020832877631943"><ele>726.3333333333333</ele><time>2026-04-19T12:01:54.001Z</time></trkpt><trkpt lat="44.47601158149213" lon="8.020819070320444"><ele>725.0</ele><time>2026-04-19T12:01:56.001Z</time></trkpt><trkpt lat="44.476093640690316" lon="8.02081192688447"><ele>725.0</ele><time>2026-04-19T12:01:58.001Z</time></trkpt><trkpt lat="44.47624356342282" lon="8.020845942231098"><ele>725.0</ele><time>2026-04-19T12:02:02.001Z</time></trkpt><trkpt lat="44.47633112392751" lon="8.020852658092855"><ele>725.0</ele><time>2026-04-19T12:02:03.001Z</time></trkpt><trkpt lat="44.47643490301289" lon="8.02083148147854"><ele>725.0</ele><time>2026-04-19T12:02:04.001Z</time></trkpt><trkpt lat="44.47653376914677" lon="8.020820115293168"><ele>725.0</ele><time>2026-04-19T12:02:05.001Z</time></trkpt><trkpt lat="44.47663964935804" lon="8.020813654255498"><ele>722.5</ele><time>2026-04-19T12:02:06.001Z</time></trkpt><trkpt lat="44.4767548425203" lon="8.020821938965724"><ele>720.0</ele><time>2026-04-19T12:02:07.001Z</time></trkpt><trkpt lat="44.476880580472546" lon="8.020854030811355"><ele>717.5</ele><time>2026-04-19T12:02:08.001Z</time></trkpt><trkpt lat="44.476983747664605" lon="8.020884349724106"><ele>715.0</ele><time>2026-04-19T12:02:09.001Z</time></trkpt><trkpt lat="44.477110138137306" lon="8.020895444008069"><ele>714.0</ele><time>2026-04-19T12:02:10.001Z</time></trkpt><trkpt lat="44.47723434040033" lon="8.020927964745244"><ele>713.0</ele><time>2026-04-19T12:02:11.001Z</time></trkpt><trkpt lat="44.47736248293783" lon="8.02097352397177"><ele>712.0</ele><time>2026-04-19T12:02:12.001Z</time></trkpt><trkpt lat="44.477507442194685" lon="8.020992616098999"><ele>711.0</ele><time>2026-04-19T12:02:13.001Z</time></trkpt><trkpt lat="44.477655438474876" lon="8.021003352789107"><ele>711.0</ele><time>2026-04-19T12:02:14.001Z</time></trkpt><trkpt lat="44.4778111482355" lon="8.021008063935287"><ele>711.0</ele><time>2026-04-19T12:02:15.001Z</time></trkpt><trkpt lat="44.47796413184504" lon="8.021007392881288"><ele>711.0</ele><time>2026-04-19T12:02:16.001Z</time></trkpt><trkpt lat="44.4781152266786" lon="8.020996688983619"><ele>710.0</ele><time>2026-04-19T12:02:17.001Z</time></trkpt><trkpt lat="44.4782695831427" lon="8.020970297659666"><ele>709.0</ele><time>2026-04-19T12:02:18.001Z</time></trkpt><trkpt lat="44.47842046637827" lon="8.020943949773503"><ele>708.0</ele><time>2026-04-19T12:02:19.001Z</time></trkpt><trkpt lat="44.47858389232672" lon="8.020912570151923"><ele>708.0</ele><time>2026-04-19T12:02:20.001Z</time></trkpt><trkpt lat="44.47875043447999" lon="8.020880443055923"><ele>708.0</ele><time>2026-04-19T12:02:21.001Z</time></trkpt><trkpt lat="44.47890439552013" lon="8.020849946483574"><ele>708.0</ele><time>2026-04-19T12:02:22.001Z</time></trkpt><trkpt lat="44.47905098323146" lon="8.02081967096755"><ele>705.0</ele><time>2026-04-19T12:02:23.001Z</time></trkpt><trkpt lat="44.47918971120688" lon="8.020790534785565"><ele>702.0</ele><time>2026-04-19T12:02:24.001Z</time></trkpt><trkpt lat="44.479323182382025" lon="8.02075928641985"><ele>699.0</ele><time>2026-04-19T12:02:25.001Z</time></trkpt><trkpt lat="44.47945673390828" lon="8.020721235965373"><ele>696.0</ele><time>2026-04-19T12:02:26.001Z</time></trkpt><trkpt lat="44.47959196561883" lon="8.020667047736264"><ele>697.5</ele><time>2026-04-19T12:02:27.001Z</time></trkpt><trkpt lat="44.479728147249745" lon="8.02059786327294"><ele>699.0</ele><time>2026-04-19T12:02:28.001Z</time></trkpt><trkpt lat="44.47985961577897" lon="8.020497623874602"><ele>700.5</ele><time>2026-04-19T12:02:29.001Z</time></trkpt><trkpt lat="44.480003869692936" lon="8.020422834608437"><ele>702.0</ele><time>2026-04-19T12:02:30.001Z</time></trkpt><trkpt lat="44.480149577446014" lon="8.020342393107857"><ele>702.0</ele><time>2026-04-19T12:02:31.001Z</time></trkpt><trkpt lat="44.48029702915467" lon="8.020237489716683"><ele>702.0</ele><time>2026-04-19T12:02:32.001Z</time></trkpt><trkpt lat="44.48044218061639" lon="8.020106331865994"><ele>702.0</ele><time>2026-04-19T12:02:33.001Z</time></trkpt><trkpt lat="44.48058413671538" lon="8.01995316309958"><ele>698.0</ele><time>2026-04-19T12:02:34.001Z</time></trkpt><trkpt lat="44.48071795237223" lon="8.019781878175637"><ele>694.0</ele><time>2026-04-19T12:02:35.001Z</time></trkpt><trkpt lat="44.48084362954203" lon="8.019588614507406"><ele>690.0</ele><time>2026-04-19T12:02:36.001Z</time></trkpt><trkpt lat="44.48097627639604" lon="8.019408964808775"><ele>690.0</ele><time>2026-04-19T12:02:37.001Z</time></trkpt><trkpt lat="44.48109692168352" lon="8.019226845411017"><ele>690.0</ele><time>2026-04-19T12:02:38.001Z</time></trkpt><trkpt lat="44.481215112928815" lon="8.019061264142252"><ele>690.0</ele><time>2026-04-19T12:02:39.001Z</time></trkpt><trkpt lat="44.481336331958055" lon="8.01891119103561"><ele>690.0</ele><time>2026-04-19T12:02:40.001Z</time></trkpt><trkpt lat="44.481465044106756" lon="8.018775579150443"><ele>690.0</ele><time>2026-04-19T12:02:41.001Z</time></trkpt><trkpt lat="44.48160020258918" lon="8.018639917131642"><ele>690.0</ele><time>2026-04-19T12:02:42.001Z</time></trkpt><trkpt lat="44.481772434557215" lon="8.018570808792584"><ele>690.0</ele><time>2026-04-19T12:02:43.001Z</time></trkpt><trkpt lat="44.48195440474283" lon="8.018462690377012"><ele>690.0</ele><time>2026-04-19T12:02:44.001Z</time></trkpt><trkpt lat="44.48216496707817" lon="8.018402430286576"><ele>690.0</ele><time>2026-04-19T12:02:45.001Z</time></trkpt><trkpt lat="44.482377702727184" lon="8.018290451091039"><ele>686.0</ele><time>2026-04-19T12:02:46.001Z</time></trkpt><trkpt lat="44.48259366894129" lon="8.01820007128499"><ele>682.0</ele><time>2026-04-19T12:02:47.001Z</time></trkpt><trkpt lat="44.48279925781526" lon="8.01811570572114"><ele>678.0</ele><time>2026-04-19T12:02:48.001Z</time></trkpt><trkpt lat="44.48299614165015" lon="8.018028421956098"><ele>678.0</ele><time>2026-04-19T12:02:49.001Z</time></trkpt><trkpt lat="44.48319065623982" lon="8.017950642234744"><ele>678.0</ele><time>2026-04-19T12:02:50.001Z</time></trkpt><trkpt lat="44.48340182452935" lon="8.017884824796495"><ele>678.0</ele><time>2026-04-19T12:02:51.001Z</time></trkpt><trkpt lat="44.48362450529775" lon="8.017831391482737"><ele>677.0</ele><time>2026-04-19T12:02:52.001Z</time></trkpt><trkpt lat="44.483856765917196" lon="8.017793122076437"><ele>676.0</ele><time>2026-04-19T12:02:53.001Z</time></trkpt><trkpt lat="44.48409067990065" lon="8.017760197443797"><ele>676.0</ele><time>2026-04-19T12:02:54.001Z</time></trkpt><trkpt lat="44.48432159586983" lon="8.01772898259346"><ele>676.0</ele><time>2026-04-19T12:02:55.001Z</time></trkpt><trkpt lat="44.48454640045436" lon="8.017685221566591"><ele>678.0</ele><time>2026-04-19T12:02:56.001Z</time></trkpt><trkpt lat="44.484764714492044" lon="8.017629052139265"><ele>680.0</ele><time>2026-04-19T12:02:57.001Z</time></trkpt><trkpt lat="44.484986588884134" lon="8.01755046512982"><ele>674.0</ele><time>2026-04-19T12:02:58.001Z</time></trkpt><trkpt lat="44.48521107202619" lon="8.017443906914172"><ele>668.0</ele><time>2026-04-19T12:02:59.001Z</time></trkpt><trkpt lat="44.48543331222436" lon="8.017331699934545"><ele>668.0</ele><time>2026-04-19T12:03:00Z</time></trkpt><trkpt lat="44.48565014182366" lon="8.017225333839752"><ele>668.0</ele><time>2026-04-19T12:03:01Z</time></trkpt><trkpt lat="44.485862141101656" lon="8.01712401003863"><ele>668.0</ele><time>2026-04-19T12:03:02Z</time></trkpt><trkpt lat="44.486067927138016" lon="8.01703134400477"><ele>668.0</ele><time>2026-04-19T12:03:03Z</time></trkpt><trkpt lat="44.48626563540915" lon="8.016944064383132"><ele>668.0</ele><time>2026-04-19T12:03:04Z</time></trkpt><trkpt lat="44.48645427019231" lon="8.016860775888818"><ele>666.0</ele><time>2026-04-19T12:03:05Z</time></trkpt><trkpt lat="44.48663378680308" lon="8.016780873334655"><ele>664.0</ele><time>2026-04-19T12:03:06Z</time></trkpt><trkpt lat="44.486802495992606" lon="8.016705617732674"><ele>662.0</ele><time>2026-04-19T12:03:07Z</time></trkpt><trkpt lat="44.48695366076852" lon="8.016636768894196"><ele>667.3333333333333</ele><time>2026-04-19T12:03:08Z</time></trkpt><trkpt lat="44.48709636920338" lon="8.016560565519812"><ele>672.6666666666666</ele><time>2026-04-19T12:03:09Z</time></trkpt><trkpt lat="44.487233435586695" lon="8.016471919401907"><ele>678.0</ele><time>2026-04-19T12:03:10Z</time></trkpt><trkpt lat="44.48735345737084" lon="8.016312339567207"><ele>678.0</ele><time>2026-04-19T12:03:11Z</time></trkpt><trkpt lat="44.48746164773742" lon="8.01611086185673"><ele>678.0</ele><time>2026-04-19T12:03:12Z</time></trkpt><trkpt lat="44.48759677597224" lon="8.015932247914535"><ele>678.0</ele><time>2026-04-19T12:03:13Z</time></trkpt><trkpt lat="44.48774726888358" lon="8.015751856894914"><ele>676.6666666666666</ele><time>2026-04-19T12:03:14Z</time></trkpt><trkpt lat="44.48790972761912" lon="8.015574744095792"><ele>675.3333333333333</ele><time>2026-04-19T12:03:15Z</time></trkpt><trkpt lat="44.48806116427581" lon="8.015406065102917"><ele>674.0</ele><time>2026-04-19T12:03:16Z</time></trkpt><trkpt lat="44.48820431071108" lon="8.01527117723831"><ele>680.0</ele><time>2026-04-19T12:03:17Z</time></trkpt><trkpt lat="44.488333137541915" lon="8.01514998449592"><ele>686.0</ele><time>2026-04-19T12:03:18Z</time></trkpt><trkpt lat="44.488424296071294" lon="8.01497022706249"><ele>692.0</ele><time>2026-04-19T12:03:19Z</time></trkpt><trkpt lat="44.48845161943346" lon="8.014727805620188"><ele>692.0</ele><time>2026-04-19T12:03:20Z</time></trkpt><trkpt lat="44.48846474130448" lon="8.01449075757264"><ele>692.0</ele><time>2026-04-19T12:03:21Z</time></trkpt><trkpt lat="44.48845336545363" lon="8.014241536293838"><ele>692.0</ele><time>2026-04-19T12:03:22Z</time></trkpt><trkpt lat="44.488444491606046" lon="8.013981063096441"><ele>692.0</ele><time>2026-04-19T12:03:23Z</time></trkpt><trkpt lat="44.48843424658323" lon="8.013732595933341"><ele>692.0</ele><time>2026-04-19T12:03:23.999Z</time></trkpt><trkpt lat="44.48844728236635" lon="8.013501949465159"><ele>692.0</ele><time>2026-04-19T12:03:24.999Z</time></trkpt><trkpt lat="44.48849085826533" lon="8.013317531308573"><ele>691.0</ele><time>2026-04-19T12:03:25.999Z</time></trkpt><trkpt lat="44.48855166608894" lon="8.013178245297894"><ele>690.0</ele><time>2026-04-19T12:03:26.999Z</time></trkpt><trkpt lat="44.4886241277078" lon="8.013078040352969"><ele>689.0</ele><time>2026-04-19T12:03:27.999Z</time></trkpt><trkpt lat="44.48870863731313" lon="8.012988628257174"><ele>688.0</ele><time>2026-04-19T12:03:28.999Z</time></trkpt><trkpt lat="44.48885089183316" lon="8.012981582853204"><ele>688.0</ele><time>2026-04-19T12:03:29.999Z</time></trkpt><trkpt lat="44.48901354226723" lon="8.012936586794591"><ele>688.0</ele><time>2026-04-19T12:03:30.999Z</time></trkpt><trkpt lat="44.489193499324216" lon="8.01293055174118"><ele>688.0</ele><time>2026-04-19T12:03:31.999Z</time></trkpt><trkpt lat="44.48939429453895" lon="8.012925034427775"><ele>688.6666666666667</ele><time>2026-04-19T12:03:32.999Z</time></trkpt><trkpt lat="44.48960255533306" lon="8.012907528478365"><ele>689.3333333333334</ele><time>2026-04-19T12:03:33.999Z</time></trkpt><trkpt lat="44.489816349818234" lon="8.012874326147617"><ele>690.0</ele><time>2026-04-19T12:03:34.999Z</time></trkpt><trkpt lat="44.49003179698358" lon="8.012824199782726"><ele>690.0</ele><time>2026-04-19T12:03:35.999Z</time></trkpt><trkpt lat="44.490245674731064" lon="8.012761089749816"><ele>690.0</ele><time>2026-04-19T12:03:36.999Z</time></trkpt><trkpt lat="44.49045644109806" lon="8.012694451377916"><ele>690.0</ele><time>2026-04-19T12:03:37.999Z</time></trkpt><trkpt lat="44.49066411497853" lon="8.012624153183811"><ele>691.3333333333334</ele><time>2026-04-19T12:03:38.999Z</time></trkpt><trkpt lat="44.49085917331701" lon="8.01256325474662"><ele>692.6666666666667</ele><time>2026-04-19T12:03:39.999Z</time></trkpt><trkpt lat="44.49103295983393" lon="8.012509492455893"><ele>694.0</ele><time>2026-04-19T12:03:40.999Z</time></trkpt><trkpt lat="44.49119796744296" lon="8.012423122800344"><ele>692.0</ele><time>2026-04-19T12:03:41.999Z</time></trkpt><trkpt lat="44.4913570545303" lon="8.012280630092004"><ele>690.0</ele><time>2026-04-19T12:03:42.999Z</time></trkpt><trkpt lat="44.49150431326023" lon="8.01209146869959"><ele>688.0</ele><time>2026-04-19T12:03:43.999Z</time></trkpt><trkpt lat="44.49163810241714" lon="8.011878465257894"><ele>688.0</ele><time>2026-04-19T12:03:44.999Z</time></trkpt><trkpt lat="44.49178783114093" lon="8.011696308979833"><ele>688.0</ele><time>2026-04-19T12:03:45.999Z</time></trkpt><trkpt lat="44.49193120068105" lon="8.011523396553565"><ele>688.0</ele><time>2026-04-19T12:03:46.999Z</time></trkpt><trkpt lat="44.49207852773094" lon="8.011368303276221"><ele>687.3333333333334</ele><time>2026-04-19T12:03:47.999Z</time></trkpt><trkpt lat="44.492229411309374" lon="8.011212865858472"><ele>686.6666666666666</ele><time>2026-04-19T12:03:48.999Z</time></trkpt><trkpt lat="44.49238208558696" lon="8.011045242276788"><ele>686.0</ele><time>2026-04-19T12:03:49.999Z</time></trkpt><trkpt lat="44.49253253567946" lon="8.010885880268965"><ele>683.0</ele><time>2026-04-19T12:03:50.999Z</time></trkpt><trkpt lat="44.492681752895784" lon="8.010737333979804"><ele>680.0</ele><time>2026-04-19T12:03:51.999Z</time></trkpt><trkpt lat="44.49283069900477" lon="8.010585750666495"><ele>677.0</ele><time>2026-04-19T12:03:52.999Z</time></trkpt><trkpt lat="44.492984498696586" lon="8.010429097263154"><ele>677.0</ele><time>2026-04-19T12:03:53.999Z</time></trkpt><trkpt lat="44.49314545728251" lon="8.010270731465138"><ele>677.0</ele><time>2026-04-19T12:03:54.999Z</time></trkpt><trkpt lat="44.493306502791754" lon="8.010115644386113"><ele>677.0</ele><time>2026-04-19T12:03:55.999Z</time></trkpt><trkpt lat="44.493463206578745" lon="8.009961031457635"><ele>674.6666666666666</ele><time>2026-04-19T12:03:56.999Z</time></trkpt><trkpt lat="44.49362412727604" lon="8.009805017947338"><ele>672.3333333333334</ele><time>2026-04-19T12:03:57.999Z</time></trkpt><trkpt lat="44.49379469097086" lon="8.009656839746805"><ele>670.0</ele><time>2026-04-19T12:03:58.999Z</time></trkpt><trkpt lat="44.49396014695583" lon="8.009500874343681"><ele>670.0</ele><time>2026-04-19T12:03:59.999Z</time></trkpt><trkpt lat="44.49412048040634" lon="8.009340394110382"><ele>670.0</ele><time>2026-04-19T12:04:00.999Z</time></trkpt><trkpt lat="44.49427836497085" lon="8.0091806396588"><ele>670.0</ele><time>2026-04-19T12:04:01.999Z</time></trkpt><trkpt lat="44.494431545799124" lon="8.009024810552479"><ele>667.0</ele><time>2026-04-19T12:04:02.999Z</time></trkpt><trkpt lat="44.49457765541864" lon="8.008874086980317"><ele>664.0</ele><time>2026-04-19T12:04:03.999Z</time></trkpt><trkpt lat="44.49472403365408" lon="8.008735543323708"><ele>661.0</ele><time>2026-04-19T12:04:04.999Z</time></trkpt><trkpt lat="44.49487088987003" lon="8.008607628541629"><ele>661.0</ele><time>2026-04-19T12:04:05.999Z</time></trkpt><trkpt lat="44.49502450312362" lon="8.008502965787542"><ele>661.0</ele><time>2026-04-19T12:04:06.999Z</time></trkpt><trkpt lat="44.495183909695484" lon="8.008407929704507"><ele>661.0</ele><time>2026-04-19T12:04:07.999Z</time></trkpt><trkpt lat="44.495360409135564" lon="8.008363375574385"><ele>659.6666666666667</ele><time>2026-04-19T12:04:08.999Z</time></trkpt><trkpt lat="44.49555389352428" lon="8.008361957599638"><ele>658.3333333333334</ele><time>2026-04-19T12:04:09.999Z</time></trkpt><trkpt lat="44.495758771492994" lon="8.008350784257667"><ele>657.0</ele><time>2026-04-19T12:04:10.999Z</time></trkpt><trkpt lat="44.49597416585328" lon="8.00831877660217"><ele>655.0</ele><time>2026-04-19T12:04:11.999Z</time></trkpt><trkpt lat="44.49619563819146" lon="8.008311536093402"><ele>653.0</ele><time>2026-04-19T12:04:12.999Z</time></trkpt><trkpt lat="44.49641465370537" lon="8.008305296784457"><ele>651.0</ele><time>2026-04-19T12:04:13.999Z</time></trkpt><trkpt lat="44.496626218466005" lon="8.00829822347403"><ele>649.6666666666666</ele><time>2026-04-19T12:04:14.999Z</time></trkpt><trkpt lat="44.49683499707687" lon="8.008287365634574"><ele>648.3333333333333</ele><time>2026-04-19T12:04:15.999Z</time></trkpt><trkpt lat="44.49704238304361" lon="8.008273749201065"><ele>647.0</ele><time>2026-04-19T12:04:16.999Z</time></trkpt><trkpt lat="44.497246428003415" lon="8.008261126824628"><ele>646.0</ele><time>2026-04-19T12:04:17.999Z</time></trkpt><trkpt lat="44.49744567645731" lon="8.008250743640176"><ele>645.0</ele><time>2026-04-19T12:04:18.999Z</time></trkpt><trkpt lat="44.49763569016008" lon="8.008244917885003"><ele>644.0</ele><time>2026-04-19T12:04:19.999Z</time></trkpt><trkpt lat="44.49780464079597" lon="8.008240699513475"><ele>642.0</ele><time>2026-04-19T12:04:20.999Z</time></trkpt><trkpt lat="44.49796223557306" lon="8.00823510748045"><ele>640.0</ele><time>2026-04-19T12:04:21.999Z</time></trkpt><trkpt lat="44.498111832712624" lon="8.00823874886217"><ele>638.0</ele><time>2026-04-19T12:04:22.999Z</time></trkpt><trkpt lat="44.498255995793144" lon="8.008280652445483"><ele>640.0</ele><time>2026-04-19T12:04:23.999Z</time></trkpt><trkpt lat="44.49838511679068" lon="8.008363000704662"><ele>642.0</ele><time>2026-04-19T12:04:24.999Z</time></trkpt><trkpt lat="44.498507547632975" lon="8.008492738914367"><ele>644.0</ele><time>2026-04-19T12:04:25.999Z</time></trkpt><trkpt lat="44.49863400160096" lon="8.008658344952682"><ele>642.3333333333333</ele><time>2026-04-19T12:04:26.999Z</time></trkpt><trkpt lat="44.498759633708616" lon="8.008849635268328"><ele>640.6666666666666</ele><time>2026-04-19T12:04:27.999Z</time></trkpt><trkpt lat="44.49889145618769" lon="8.00905685565499"><ele>639.0</ele><time>2026-04-19T12:04:28.999Z</time></trkpt><trkpt lat="44.4990310966482" lon="8.009264930484846"><ele>639.0</ele><time>2026-04-19T12:04:29.999Z</time></trkpt><trkpt lat="44.49915831483279" lon="8.009465541120171"><ele>639.0</ele><time>2026-04-19T12:04:30.999Z</time></trkpt><trkpt lat="44.49927881845728" lon="8.009653144549095"><ele>639.0</ele><time>2026-04-19T12:04:31.999Z</time></trkpt><trkpt lat="44.49938683840466" lon="8.009817846876002"><ele>639.0</ele><time>2026-04-19T12:04:32.999Z</time></trkpt><trkpt lat="44.49948370107961" lon="8.00995636904278"><ele>639.0</ele><time>2026-04-19T12:04:33.999Z</time></trkpt><trkpt lat="44.499573735380686" lon="8.010068177823436"><ele>639.0</ele><time>2026-04-19T12:04:34.999Z</time></trkpt><trkpt lat="44.49967590504722" lon="8.01014206849544"><ele>639.0</ele><time>2026-04-19T12:04:35.999Z</time></trkpt><trkpt lat="44.4998076661212" lon="8.01017341063013"><ele>637.25</ele><time>2026-04-19T12:04:36.999Z</time></trkpt><trkpt lat="44.49995828248015" lon="8.010172352193097"><ele>635.5</ele><time>2026-04-19T12:04:37.999Z</time></trkpt><trkpt lat="44.50009150550382" lon="8.01016110784626"><ele>633.75</ele><time>2026-04-19T12:04:38.999Z</time></trkpt><trkpt lat="44.50020885304195" lon="8.010141377162894"><ele>632.0</ele><time>2026-04-19T12:04:39.999Z</time></trkpt><trkpt lat="44.500327966034746" lon="8.010111880149287"><ele>631.75</ele><time>2026-04-19T12:04:40.999Z</time></trkpt><trkpt lat="44.50045150610456" lon="8.010060638475867"><ele>631.5</ele><time>2026-04-19T12:04:41.999Z</time></trkpt><trkpt lat="44.500581547133734" lon="8.009978729809191"><ele>631.25</ele><time>2026-04-19T12:04:42.999Z</time></trkpt><trkpt lat="44.50071445993047" lon="8.009887708059685"><ele>631.0</ele><time>2026-04-19T12:04:43.999Z</time></trkpt><trkpt lat="44.500842169643875" lon="8.00979513680621"><ele>627.25</ele><time>2026-04-19T12:04:44.999Z</time></trkpt><trkpt lat="44.50096711140318" lon="8.009711887889178"><ele>623.5</ele><time>2026-04-19T12:04:45.999Z</time></trkpt><trkpt lat="44.50107437241268" lon="8.009612326500916"><ele>619.75</ele><time>2026-04-19T12:04:46.999Z</time></trkpt><trkpt lat="44.5011813168898" lon="8.009516365683067"><ele>616.0</ele><time>2026-04-19T12:04:47.999Z</time></trkpt><trkpt lat="44.501298584489405" lon="8.009441850505041"><ele>616.0</ele><time>2026-04-19T12:04:48.999Z</time></trkpt><trkpt lat="44.50144484272379" lon="8.009384219094766"><ele>616.0</ele><time>2026-04-19T12:04:49.999Z</time></trkpt><trkpt lat="44.50159890766177" lon="8.009314134274893"><ele>616.0</ele><time>2026-04-19T12:04:50.999Z</time></trkpt><trkpt lat="44.50176936736432" lon="8.009279125717356"><ele>616.0</ele><time>2026-04-19T12:04:52Z</time></trkpt><trkpt lat="44.50193427749618" lon="8.009177953644915"><ele>616.0</ele><time>2026-04-19T12:04:53Z</time></trkpt><trkpt lat="44.50208952331973" lon="8.009042143185173"><ele>616.0</ele><time>2026-04-19T12:04:54Z</time></trkpt><trkpt lat="44.502234803940624" lon="8.008914953854049"><ele>613.6666666666667</ele><time>2026-04-19T12:04:55Z</time></trkpt><trkpt lat="44.50237463204128" lon="8.00879673208375"><ele>611.3333333333334</ele><time>2026-04-19T12:04:56Z</time></trkpt><trkpt lat="44.50250650248309" lon="8.008685238594959"><ele>609.0</ele><time>2026-04-19T12:04:57Z</time></trkpt><trkpt lat="44.50262202683334" lon="8.008561308962355"><ele>609.0</ele><time>2026-04-19T12:04:58Z</time></trkpt><trkpt lat="44.50273745851251" lon="8.008467379526454"><ele>609.0</ele><time>2026-04-19T12:04:59Z</time></trkpt><trkpt lat="44.50285457490029" lon="8.00838929927709"><ele>609.0</ele><time>2026-04-19T12:05:00Z</time></trkpt><trkpt lat="44.50295957467286" lon="8.008272331519503"><ele>609.0</ele><time>2026-04-19T12:05:01Z</time></trkpt><trkpt lat="44.50303972026839" lon="8.00809658992089"><ele>610.3333333333334</ele><time>2026-04-19T12:05:02Z</time></trkpt><trkpt lat="44.50307302828146" lon="8.007873775183379"><ele>611.6666666666667</ele><time>2026-04-19T12:05:03Z</time></trkpt><trkpt lat="44.50310910826592" lon="8.007651997610873"><ele>613.0</ele><time>2026-04-19T12:05:04Z</time></trkpt><trkpt lat="44.50315239449034" lon="8.007438225401131"><ele>610.25</ele><time>2026-04-19T12:05:05Z</time></trkpt><trkpt lat="44.50318044460833" lon="8.007228961565358"><ele>607.5</ele><time>2026-04-19T12:05:05.999Z</time></trkpt><trkpt lat="44.50320994243288" lon="8.007035131471904"><ele>604.75</ele><time>2026-04-19T12:05:06.999Z</time></trkpt><trkpt lat="44.50325838723539" lon="8.006862201388778"><ele>602.0</ele><time>2026-04-19T12:05:07.999Z</time></trkpt><trkpt lat="44.50334826876574" lon="8.006698818275126"><ele>597.3333333333333</ele><time>2026-04-19T12:05:08.999Z</time></trkpt><trkpt lat="44.50345113986332" lon="8.006524351848194"><ele>592.6666666666666</ele><time>2026-04-19T12:05:09.999Z</time></trkpt><trkpt lat="44.50355604352585" lon="8.006355995940183"><ele>588.0</ele><time>2026-04-19T12:05:10.999Z</time></trkpt><trkpt lat="44.503651490195914" lon="8.006194823354573"><ele>588.0</ele><time>2026-04-19T12:05:11.999Z</time></trkpt><trkpt lat="44.50372838743105" lon="8.00601850340443"><ele>588.0</ele><time>2026-04-19T12:05:12.999Z</time></trkpt><trkpt lat="44.5037698031645" lon="8.005823626646103"><ele>588.0</ele><time>2026-04-19T12:05:13.999Z</time></trkpt><trkpt lat="44.503786846547364" lon="8.005623556649843"><ele>588.0</ele><time>2026-04-19T12:05:14.999Z</time></trkpt><trkpt lat="44.503788250952944" lon="8.005419305757295"><ele>589.25</ele><time>2026-04-19T12:05:15.999Z</time></trkpt><trkpt lat="44.503765225650426" lon="8.00522156911482"><ele>590.5</ele><time>2026-04-19T12:05:16.999Z</time></trkpt><trkpt lat="44.50374396223623" lon="8.005046671174808"><ele>591.75</ele><time>2026-04-19T12:05:17.999Z</time></trkpt><trkpt lat="44.503732033365594" lon="8.00489867811415"><ele>593.0</ele><time>2026-04-19T12:05:18.999Z</time></trkpt><trkpt lat="44.503752512647694" lon="8.00475685515162"><ele>593.0</ele><time>2026-04-19T12:05:19.999Z</time></trkpt><trkpt lat="44.50381501351784" lon="8.004611732633014"><ele>593.0</ele><time>2026-04-19T12:05:20.999Z</time></trkpt><trkpt lat="44.50388510651654" lon="8.004426413158711"><ele>593.0</ele><time>2026-04-19T12:05:21.999Z</time></trkpt><trkpt lat="44.50395682104644" lon="8.004210394091665"><ele>593.0</ele><time>2026-04-19T12:05:22.999Z</time></trkpt><trkpt lat="44.504035852804755" lon="8.003988152097712"><ele>586.6666666666666</ele><time>2026-04-19T12:05:23.999Z</time></trkpt><trkpt lat="44.50412421028448" lon="8.003790244107657"><ele>580.3333333333334</ele><time>2026-04-19T12:05:24.999Z</time></trkpt><trkpt lat="44.50421695272454" lon="8.003602989402514"><ele>574.0</ele><time>2026-04-19T12:05:25.999Z</time></trkpt><trkpt lat="44.5043088029895" lon="8.003419501264911"><ele>568.0</ele><time>2026-04-19T12:05:26.999Z</time></trkpt><trkpt lat="44.5043978332215" lon="8.003236588427615"><ele>562.0</ele><time>2026-04-19T12:05:27.999Z</time></trkpt><trkpt lat="44.504481544258816" lon="8.003051121718869"><ele>556.0</ele><time>2026-04-19T12:05:28.999Z</time></trkpt><trkpt lat="44.504535161038774" lon="8.002846814774577"><ele>560.0</ele><time>2026-04-19T12:05:29.999Z</time></trkpt><trkpt lat="44.504586625448574" lon="8.002648314980481"><ele>564.0</ele><time>2026-04-19T12:05:30.999Z</time></trkpt><trkpt lat="44.50463013958999" lon="8.002447876814463"><ele>568.0</ele><time>2026-04-19T12:05:31.999Z</time></trkpt><trkpt lat="44.50466873210702" lon="8.002254857996128"><ele>572.0</ele><time>2026-04-19T12:05:32.999Z</time></trkpt><trkpt lat="44.50474218357673" lon="8.002102435074967"><ele>572.0</ele><time>2026-04-19T12:05:33.999Z</time></trkpt><trkpt lat="44.50481237355574" lon="8.00196107278269"><ele>572.0</ele><time>2026-04-19T12:05:34.999Z</time></trkpt><trkpt lat="44.50490159822323" lon="8.001842904330513"><ele>572.0</ele><time>2026-04-19T12:05:35.999Z</time></trkpt><trkpt lat="44.504991411238386" lon="8.00172631731622"><ele>572.0</ele><time>2026-04-19T12:05:36.999Z</time></trkpt><trkpt lat="44.50507329526743" lon="8.001601021995196"><ele>569.5</ele><time>2026-04-19T12:05:37.999Z</time></trkpt><trkpt lat="44.50513772792438" lon="8.001457337447873"><ele>567.0</ele><time>2026-04-19T12:05:38.999Z</time></trkpt><trkpt lat="44.5051668490831" lon="8.001290335896476"><ele>564.5</ele><time>2026-04-19T12:05:39.999Z</time></trkpt><trkpt lat="44.50517439980206" lon="8.001124424037485"><ele>562.0</ele><time>2026-04-19T12:05:40.999Z</time></trkpt><trkpt lat="44.50516549912066" lon="8.000958182040968"><ele>559.25</ele><time>2026-04-19T12:05:41.999Z</time></trkpt><trkpt lat="44.50515474136485" lon="8.000794253919564"><ele>556.5</ele><time>2026-04-19T12:05:42.999Z</time></trkpt><trkpt lat="44.505144246888904" lon="8.000643182251613"><ele>553.75</ele><time>2026-04-19T12:05:43.999Z</time></trkpt><trkpt lat="44.50516184563541" lon="8.000479190045136"><ele>551.0</ele><time>2026-04-19T12:05:44.999Z</time></trkpt><trkpt lat="44.50520094140152" lon="8.000287257413344"><ele>551.0</ele><time>2026-04-19T12:05:45.999Z</time></trkpt><trkpt lat="44.50524300984642" lon="8.000083026840592"><ele>551.0</ele><time>2026-04-19T12:05:46.999Z</time></trkpt><trkpt lat="44.50528164515666" lon="7.999888174152764"><ele>551.0</ele><time>2026-04-19T12:05:47.999Z</time></trkpt><trkpt lat="44.50530972065027" lon="7.999702129384944"><ele>551.0</ele><time>2026-04-19T12:05:48.999Z</time></trkpt><trkpt lat="44.50533301386462" lon="7.999530374972352"><ele>551.0</ele><time>2026-04-19T12:05:50Z</time></trkpt><trkpt lat="44.505342805204464" lon="7.999378060619786"><ele>551.0</ele><time>2026-04-19T12:05:51Z</time></trkpt><trkpt lat="44.5053977626026" lon="7.999284454584872"><ele>551.0</ele><time>2026-04-19T12:05:52Z</time></trkpt><trkpt lat="44.50546988893183" lon="7.999233388881291"><ele>551.0</ele><time>2026-04-19T12:05:53Z</time></trkpt><trkpt lat="44.50554383827081" lon="7.999238499319286"><ele>551.0</ele><time>2026-04-19T12:05:54Z</time></trkpt><trkpt lat="44.50562889898535" lon="7.999274684511205"><ele>551.0</ele><time>2026-04-19T12:05:55Z</time></trkpt><trkpt lat="44.50571138845922" lon="7.999353697780056"><ele>553.8</ele><time>2026-04-19T12:05:56Z</time></trkpt><trkpt lat="44.50579840936103" lon="7.999426531686483"><ele>556.6</ele><time>2026-04-19T12:05:57Z</time></trkpt><trkpt lat="44.505890951966336" lon="7.999477156802368"><ele>559.4</ele><time>2026-04-19T12:05:58Z</time></trkpt><trkpt lat="44.50599087000621" lon="7.999457298489688"><ele>562.2</ele><time>2026-04-19T12:05:59Z</time></trkpt><trkpt lat="44.506080701114755" lon="7.999412913205968"><ele>565.0</ele><time>2026-04-19T12:06:00Z</time></trkpt><trkpt lat="44.506147948930824" lon="7.9993241973228315"><ele>565.0</ele><time>2026-04-19T12:06:01Z</time></trkpt><trkpt lat="44.506194901687614" lon="7.999193106965488"><ele>565.0</ele><time>2026-04-19T12:06:02Z</time></trkpt><trkpt lat="44.5062345038018" lon="7.999058995261533"><ele>565.0</ele><time>2026-04-19T12:06:03Z</time></trkpt><trkpt lat="44.50624886152271" lon="7.998926416868063"><ele>565.0</ele><time>2026-04-19T12:06:04Z</time></trkpt><trkpt lat="44.50631901741724" lon="7.9988298128106345"><ele>565.0</ele><time>2026-04-19T12:06:05Z</time></trkpt><trkpt lat="44.50641143514103" lon="7.998765283326372"><ele>562.0</ele><time>2026-04-19T12:06:06Z</time></trkpt><trkpt lat="44.506520979980316" lon="7.998718938083516"><ele>559.0</ele><time>2026-04-19T12:06:07Z</time></trkpt><trkpt lat="44.50664483576178" lon="7.998688156966999"><ele>556.0</ele><time>2026-04-19T12:06:08Z</time></trkpt><trkpt lat="44.506788110392336" lon="7.998665960818083"><ele>553.0</ele><time>2026-04-19T12:06:09Z</time></trkpt><trkpt lat="44.50694305404124" lon="7.998652355737148"><ele>552.25</ele><time>2026-04-19T12:06:10Z</time></trkpt><trkpt lat="44.50708888178397" lon="7.998644571384115"><ele>551.5</ele><time>2026-04-19T12:06:11Z</time></trkpt><trkpt lat="44.50722693641683" lon="7.99861020136191"><ele>550.75</ele><time>2026-04-19T12:06:12Z</time></trkpt><trkpt lat="44.507352008392765" lon="7.998538698225341"><ele>550.0</ele><time>2026-04-19T12:06:13Z</time></trkpt><trkpt lat="44.50745840796442" lon="7.998423177016424"><ele>546.25</ele><time>2026-04-19T12:06:14Z</time></trkpt><trkpt lat="44.50754580797284" lon="7.998270150780836"><ele>542.5</ele><time>2026-04-19T12:06:15Z</time></trkpt><trkpt lat="44.507642247179575" lon="7.998136666470287"><ele>538.75</ele><time>2026-04-19T12:06:16Z</time></trkpt><trkpt lat="44.50773055576729" lon="7.99800338688906"><ele>535.0</ele><time>2026-04-19T12:06:17Z</time></trkpt><trkpt lat="44.50781083975106" lon="7.997869940189972"><ele>534.75</ele><time>2026-04-19T12:06:18Z</time></trkpt><trkpt lat="44.50791550659022" lon="7.997772535651597"><ele>534.5</ele><time>2026-04-19T12:06:19Z</time></trkpt><trkpt lat="44.50803054118658" lon="7.997695271192406"><ele>534.25</ele><time>2026-04-19T12:06:20Z</time></trkpt><trkpt lat="44.508154203980794" lon="7.997634991596966"><ele>534.0</ele><time>2026-04-19T12:06:21Z</time></trkpt><trkpt lat="44.50827588750682" lon="7.997598719702591"><ele>534.0</ele><time>2026-04-19T12:06:22Z</time></trkpt><trkpt lat="44.50839526064295" lon="7.99758351060211"><ele>534.0</ele><time>2026-04-19T12:06:23Z</time></trkpt><trkpt lat="44.50851252897127" lon="7.99758137821966"><ele>534.0</ele><time>2026-04-19T12:06:24Z</time></trkpt><trkpt lat="44.508627186504874" lon="7.997575205892257"><ele>534.0</ele><time>2026-04-19T12:06:25Z</time></trkpt><trkpt lat="44.50874009303117" lon="7.997566545957925"><ele>532.0</ele><time>2026-04-19T12:06:26Z</time></trkpt><trkpt lat="44.50885024464123" lon="7.9975545622287685"><ele>530.0</ele><time>2026-04-19T12:06:27Z</time></trkpt><trkpt lat="44.50895533405435" lon="7.997542237059557"><ele>528.0</ele><time>2026-04-19T12:06:28Z</time></trkpt><trkpt lat="44.5090552803008" lon="7.997535000004758"><ele>526.0</ele><time>2026-04-19T12:06:29Z</time></trkpt><trkpt lat="44.50915298313212" lon="7.997538403608693"><ele>524.0</ele><time>2026-04-19T12:06:30Z</time></trkpt><trkpt lat="44.509251469894785" lon="7.997552733108493"><ele>524.0</ele><time>2026-04-19T12:06:31Z</time></trkpt><trkpt lat="44.50934665979784" lon="7.997582534161847"><ele>524.0</ele><time>2026-04-19T12:06:32Z</time></trkpt><trkpt lat="44.50943137766883" lon="7.997641959535883"><ele>524.0</ele><time>2026-04-19T12:06:33Z</time></trkpt><trkpt lat="44.509509129977985" lon="7.997713543339583"><ele>524.0</ele><time>2026-04-19T12:06:34Z</time></trkpt><trkpt lat="44.50958397126767" lon="7.997769678894188"><ele>524.0</ele><time>2026-04-19T12:06:35Z</time></trkpt><trkpt lat="44.50965077322507" lon="7.9977798258819135"><ele>524.0</ele><time>2026-04-19T12:06:36Z</time></trkpt><trkpt lat="44.50971595345853" lon="7.997764780192577"><ele>519.4</ele><time>2026-04-19T12:06:37Z</time></trkpt><trkpt lat="44.50976002027362" lon="7.99767235221041"><ele>514.8</ele><time>2026-04-19T12:06:38Z</time></trkpt><trkpt lat="44.509748816084844" lon="7.997520184282847"><ele>510.20000000000005</ele><time>2026-04-19T12:06:39Z</time></trkpt><trkpt lat="44.50972214831527" lon="7.997371568040544"><ele>505.6</ele><time>2026-04-19T12:06:40Z</time></trkpt><trkpt lat="44.50969153486635" lon="7.997221487222688"><ele>501.0</ele><time>2026-04-19T12:06:41Z</time></trkpt><trkpt lat="44.50965196969142" lon="7.997078366321778"><ele>501.0</ele><time>2026-04-19T12:06:42Z</time></trkpt><trkpt lat="44.50959226416414" lon="7.996950168028607"><ele>501.0</ele><time>2026-04-19T12:06:43Z</time></trkpt><trkpt lat="44.50951031967941" lon="7.996849100460863"><ele>501.0</ele><time>2026-04-19T12:06:44Z</time></trkpt><trkpt lat="44.50939375132894" lon="7.996781844008942"><ele>501.0</ele><time>2026-04-19T12:06:45Z</time></trkpt><trkpt lat="44.50926691349239" lon="7.99673210291937"><ele>501.75</ele><time>2026-04-19T12:06:46Z</time></trkpt><trkpt lat="44.509130307652356" lon="7.996681539903379"><ele>502.5</ele><time>2026-04-19T12:06:47Z</time></trkpt><trkpt lat="44.50900370614724" lon="7.996634789704408"><ele>503.25</ele><time>2026-04-19T12:06:48Z</time></trkpt><trkpt lat="44.508886329205595" lon="7.996591466309733"><ele>504.0</ele><time>2026-04-19T12:06:49Z</time></trkpt><trkpt lat="44.50878322709602" lon="7.996556446637009"><ele>504.0</ele><time>2026-04-19T12:06:50Z</time></trkpt><trkpt lat="44.50870217616991" lon="7.996522832826548"><ele>504.0</ele><time>2026-04-19T12:06:51Z</time></trkpt><trkpt lat="44.508633579896006" lon="7.996409724173585"><ele>504.0</ele><time>2026-04-19T12:06:53Z</time></trkpt><trkpt lat="44.508676171398726" lon="7.996243440031211"><ele>504.0</ele><time>2026-04-19T12:06:55Z</time></trkpt><trkpt lat="44.50876899709644" lon="7.996225445261795"><ele>504.0</ele><time>2026-04-19T12:06:56Z</time></trkpt><trkpt lat="44.508878563644345" lon="7.99618056823493"><ele>504.0</ele><time>2026-04-19T12:06:57Z</time></trkpt><trkpt lat="44.50900876452298" lon="7.996108378462719"><ele>504.0</ele><time>2026-04-19T12:06:58Z</time></trkpt><trkpt lat="44.509143883257515" lon="7.996052111963727"><ele>504.0</ele><time>2026-04-19T12:06:59Z</time></trkpt><trkpt lat="44.509275293609015" lon="7.99600578147392"><ele>504.0</ele><time>2026-04-19T12:07:00Z</time></trkpt><trkpt lat="44.50942437472107" lon="7.995992171686773"><ele>501.0</ele><time>2026-04-19T12:07:01Z</time></trkpt><trkpt lat="44.509578524500206" lon="7.996002033784925"><ele>498.0</ele><time>2026-04-19T12:07:02Z</time></trkpt><trkpt lat="44.509724240654435" lon="7.996025290301911"><ele>495.0</ele><time>2026-04-19T12:07:03Z</time></trkpt><trkpt lat="44.50985960066574" lon="7.99606409455665"><ele>492.0</ele><time>2026-04-19T12:07:04Z</time></trkpt><trkpt lat="44.50997509209939" lon="7.996116819452685"><ele>492.0</ele><time>2026-04-19T12:07:05Z</time></trkpt><trkpt lat="44.51006243717666" lon="7.996188161499216"><ele>492.00000000000006</ele><time>2026-04-19T12:07:06Z</time></trkpt><trkpt lat="44.51012679471547" lon="7.996289733433814"><ele>492.00000000000006</ele><time>2026-04-19T12:07:07Z</time></trkpt><trkpt lat="44.510169715835474" lon="7.996428682986924"><ele>492.0</ele><time>2026-04-19T12:07:08Z</time></trkpt><trkpt lat="44.51020783052631" lon="7.996588649413602"><ele>492.0</ele><time>2026-04-19T12:07:09Z</time></trkpt><trkpt lat="44.51024085868941" lon="7.996751513479212"><ele>493.8</ele><time>2026-04-19T12:07:10Z</time></trkpt><trkpt lat="44.51026972283258" lon="7.996907811727336"><ele>495.6</ele><time>2026-04-19T12:07:11Z</time></trkpt><trkpt lat="44.51029209496629" lon="7.997062365838992"><ele>497.40000000000003</ele><time>2026-04-19T12:07:11.999Z</time></trkpt><trkpt lat="44.51030159483174" lon="7.997208663031083"><ele>499.20000000000005</ele><time>2026-04-19T12:07:12.999Z</time></trkpt><trkpt lat="44.51029817278619" lon="7.997330415741871"><ele>501.0</ele><time>2026-04-19T12:07:13.999Z</time></trkpt><trkpt lat="44.510315264651744" lon="7.997420838778944"><ele>493.8</ele><time>2026-04-19T12:07:14.999Z</time></trkpt><trkpt lat="44.51041131503908" lon="7.997468656347367"><ele>486.6</ele><time>2026-04-19T12:07:16.999Z</time></trkpt><trkpt lat="44.51047205519249" lon="7.997434855032858"><ele>479.4</ele><time>2026-04-19T12:07:17.999Z</time></trkpt><trkpt lat="44.5104997869252" lon="7.997299691288744"><ele>472.2</ele><time>2026-04-19T12:07:18.999Z</time></trkpt><trkpt lat="44.51048139850311" lon="7.9971508667741755"><ele>465.0</ele><time>2026-04-19T12:07:19.999Z</time></trkpt><trkpt lat="44.51045613320391" lon="7.99698364893983"><ele>465.0</ele><time>2026-04-19T12:07:20.999Z</time></trkpt><trkpt lat="44.51044343453517" lon="7.996791932798641"><ele>465.0</ele><time>2026-04-19T12:07:21.999Z</time></trkpt><trkpt lat="44.51043245898787" lon="7.996573915131757"><ele>465.0</ele><time>2026-04-19T12:07:22.999Z</time></trkpt><trkpt lat="44.51042472844652" lon="7.9963587983807"><ele>465.0</ele><time>2026-04-19T12:07:23.999Z</time></trkpt><trkpt lat="44.510424913703524" lon="7.996162800048297"><ele>464.0</ele><time>2026-04-19T12:07:24.999Z</time></trkpt><trkpt lat="44.510439822881885" lon="7.995976072009909"><ele>463.0</ele><time>2026-04-19T12:07:25.999Z</time></trkpt><trkpt lat="44.51046254057772" lon="7.995786757951654"><ele>462.0</ele><time>2026-04-19T12:07:26.999Z</time></trkpt><trkpt lat="44.51048265317623" lon="7.995599046947998"><ele>461.0</ele><time>2026-04-19T12:07:28Z</time></trkpt><trkpt lat="44.51050113670247" lon="7.995413245182698"><ele>460.0</ele><time>2026-04-19T12:07:29Z</time></trkpt><trkpt lat="44.51051999093092" lon="7.995229554496861"><ele>459.0</ele><time>2026-04-19T12:07:30Z</time></trkpt><trkpt lat="44.51054281325358" lon="7.995049190400452"><ele>458.0</ele><time>2026-04-19T12:07:31Z</time></trkpt><trkpt lat="44.510566531206884" lon="7.9948726133823635"><ele>457.0</ele><time>2026-04-19T12:07:32Z</time></trkpt><trkpt lat="44.510589042623394" lon="7.994700611450387"><ele>456.8</ele><time>2026-04-19T12:07:33Z</time></trkpt><trkpt lat="44.51060645899079" lon="7.994530545731441"><ele>456.6</ele><time>2026-04-19T12:07:34Z</time></trkpt><trkpt lat="44.51061596614895" lon="7.9943644945418635"><ele>456.40000000000003</ele><time>2026-04-19T12:07:35Z</time></trkpt><trkpt lat="44.510613575245145" lon="7.994220816054125"><ele>456.20000000000005</ele><time>2026-04-19T12:07:36Z</time></trkpt><trkpt lat="44.51057839769767" lon="7.9940872013462485"><ele>456.0</ele><time>2026-04-19T12:07:37Z</time></trkpt><trkpt lat="44.51049598640919" lon="7.993995548103872"><ele>457.0</ele><time>2026-04-19T12:07:38Z</time></trkpt><trkpt lat="44.510389366724574" lon="7.99392335933101"><ele>458.0</ele><time>2026-04-19T12:07:39Z</time></trkpt><trkpt lat="44.51026603143952" lon="7.993880555206828"><ele>459.0</ele><time>2026-04-19T12:07:40Z</time></trkpt><trkpt lat="44.51013275458487" lon="7.993885750397785"><ele>460.0</ele><time>2026-04-19T12:07:41Z</time></trkpt><trkpt lat="44.50998156568569" lon="7.9938636617652445"><ele>460.0</ele><time>2026-04-19T12:07:42Z</time></trkpt><trkpt lat="44.50982833040104" lon="7.993866137067336"><ele>460.0</ele><time>2026-04-19T12:07:43Z</time></trkpt><trkpt lat="44.50968946724693" lon="7.993868187623018"><ele>460.0</ele><time>2026-04-19T12:07:44Z</time></trkpt><trkpt lat="44.5095584122493" lon="7.993855033126421"><ele>460.0</ele><time>2026-04-19T12:07:45Z</time></trkpt><trkpt lat="44.509437104923336" lon="7.993852484040775"><ele>459.33333333333337</ele><time>2026-04-19T12:07:46Z</time></trkpt><trkpt lat="44.50933607997523" lon="7.993863906952733"><ele>458.6666666666667</ele><time>2026-04-19T12:07:47Z</time></trkpt><trkpt lat="44.50924571968883" lon="7.993882710049879"><ele>458.0</ele><time>2026-04-19T12:07:48Z</time></trkpt><trkpt lat="44.50918179939745" lon="7.993895856009275"><ele>457.33333333333337</ele><time>2026-04-19T12:07:49Z</time></trkpt><trkpt lat="44.509124341581504" lon="7.993825220629066"><ele>456.6666666666667</ele><time>2026-04-19T12:07:51Z</time></trkpt><trkpt lat="44.50917153714842" lon="7.993686949313928"><ele>456.0</ele><time>2026-04-19T12:07:53Z</time></trkpt><trkpt lat="44.509253333141736" lon="7.9937028418811895"><ele>456.0</ele><time>2026-04-19T12:07:54Z</time></trkpt><trkpt lat="44.50935666841967" lon="7.993692084710639"><ele>456.0</ele><time>2026-04-19T12:07:55Z</time></trkpt><trkpt lat="44.509479459648915" lon="7.99367554816311"><ele>456.0</ele><time>2026-04-19T12:07:56Z</time></trkpt><trkpt lat="44.50962413269573" lon="7.993643951682707"><ele>456.0</ele><time>2026-04-19T12:07:57Z</time></trkpt><trkpt lat="44.50978120533753" lon="7.993571414847931"><ele>457.33333333333337</ele><time>2026-04-19T12:07:58Z</time></trkpt><trkpt lat="44.509951709172896" lon="7.993503907877665"><ele>458.6666666666667</ele><time>2026-04-19T12:07:59Z</time></trkpt><trkpt lat="44.51012096982889" lon="7.9934280529356485"><ele>460.0</ele><time>2026-04-19T12:08:00Z</time></trkpt><trkpt lat="44.510286498352365" lon="7.993357926597866"><ele>451.33333333333337</ele><time>2026-04-19T12:08:01Z</time></trkpt><trkpt lat="44.51044961602895" lon="7.993297149489884"><ele>442.66666666666663</ele><time>2026-04-19T12:08:02Z</time></trkpt><trkpt lat="44.51060715534295" lon="7.993241394923793"><ele>434.0</ele><time>2026-04-19T12:08:03Z</time></trkpt><trkpt lat="44.510763597811824" lon="7.993205618218202"><ele>434.0</ele><time>2026-04-19T12:08:04Z</time></trkpt><trkpt lat="44.510908022421965" lon="7.993198903444077"><ele>434.0</ele><time>2026-04-19T12:08:05Z</time></trkpt><trkpt lat="44.5110218949177" lon="7.993205160534182"><ele>434.0</ele><time>2026-04-19T12:08:06Z</time></trkpt><trkpt lat="44.51111727325666" lon="7.993217793902501"><ele>434.0</ele><time>2026-04-19T12:08:07Z</time></trkpt><trkpt lat="44.51119925618461" lon="7.993259493190753"><ele>434.0</ele><time>2026-04-19T12:08:08Z</time></trkpt><trkpt lat="44.51125746747343" lon="7.993341011186403"><ele>429.2</ele><time>2026-04-19T12:08:09Z</time></trkpt><trkpt lat="44.51130576041305" lon="7.993465572501672"><ele>424.4</ele><time>2026-04-19T12:08:10Z</time></trkpt><trkpt lat="44.51134712645153" lon="7.99362522744198"><ele>419.6</ele><time>2026-04-19T12:08:11Z</time></trkpt><trkpt lat="44.511356516866115" lon="7.993780890756846"><ele>414.8</ele><time>2026-04-19T12:08:12Z</time></trkpt><trkpt lat="44.51134155859867" lon="7.99391950586923"><ele>410.0</ele><time>2026-04-19T12:08:13Z</time></trkpt><trkpt lat="44.511320538286135" lon="7.994033762644881"><ele>409.99999999999994</ele><time>2026-04-19T12:08:14Z</time></trkpt><trkpt lat="44.5113256812957" lon="7.994122206855147"><ele>410.0</ele><time>2026-04-19T12:08:15Z</time></trkpt><trkpt lat="44.51141180490292" lon="7.994213457828286"><ele>410.0</ele><time>2026-04-19T12:08:17Z</time></trkpt><trkpt lat="44.51147726532934" lon="7.994214642378951"><ele>410.0</ele><time>2026-04-19T12:08:18Z</time></trkpt><trkpt lat="44.51150661663518" lon="7.994102416701423"><ele>409.99999999999994</ele><time>2026-04-19T12:08:19Z</time></trkpt><trkpt lat="44.51150217417638" lon="7.993980853054822"><ele>410.0</ele><time>2026-04-19T12:08:20Z</time></trkpt><trkpt lat="44.511516564652254" lon="7.993832184195953"><ele>410.0</ele><time>2026-04-19T12:08:21Z</time></trkpt><trkpt lat="44.5115297021922" lon="7.993657333995187"><ele>410.0</ele><time>2026-04-19T12:08:22Z</time></trkpt><trkpt lat="44.51153872456758" lon="7.993462614542274"><ele>410.0</ele><time>2026-04-19T12:08:23Z</time></trkpt><trkpt lat="44.51155566588172" lon="7.993291372466148"><ele>410.0</ele><time>2026-04-19T12:08:24Z</time></trkpt><trkpt lat="44.51158304632349" lon="7.993141252512031"><ele>410.2</ele><time>2026-04-19T12:08:25Z</time></trkpt><trkpt lat="44.5115764195611" lon="7.992999927128448"><ele>410.4</ele><time>2026-04-19T12:08:26Z</time></trkpt><trkpt lat="44.511550060096226" lon="7.992885351799459"><ele>410.6</ele><time>2026-04-19T12:08:27Z</time></trkpt><trkpt lat="44.51153050001655" lon="7.99274099493224"><ele>410.8</ele><time>2026-04-19T12:08:29Z</time></trkpt><trkpt lat="44.51164362856718" lon="7.992725510842225"><ele>411.0</ele><time>2026-04-19T12:08:31Z</time></trkpt><trkpt lat="44.51166362637204" lon="7.992915173511495"><ele>411.0</ele><time>2026-04-19T12:08:33Z</time></trkpt><trkpt lat="44.51167165035077" lon="7.9930601805948225"><ele>411.0</ele><time>2026-04-19T12:08:34Z</time></trkpt><trkpt lat="44.511679719998746" lon="7.993242428304885"><ele>411.0</ele><time>2026-04-19T12:08:35Z</time></trkpt><trkpt lat="44.51168353910287" lon="7.993431256217504"><ele>411.0</ele><time>2026-04-19T12:08:36Z</time></trkpt><trkpt lat="44.511683318815784" lon="7.993572049112219"><ele>410.8333333333333</ele><time>2026-04-19T12:08:37Z</time></trkpt><trkpt lat="44.51167918972467" lon="7.993719964482221"><ele>410.66666666666663</ele><time>2026-04-19T12:08:38Z</time></trkpt><trkpt lat="44.5116785237573" lon="7.993840022210518"><ele>410.5</ele><time>2026-04-19T12:08:39Z</time></trkpt><trkpt lat="44.511676103276606" lon="7.993929939892828"><ele>410.3333333333333</ele><time>2026-04-19T12:08:40Z</time></trkpt><trkpt lat="44.51175478720102" lon="7.99400206375509"><ele>410.16666666666663</ele><time>2026-04-19T12:08:42Z</time></trkpt><trkpt lat="44.51182322662058" lon="7.9939498744459705"><ele>410.0</ele><time>2026-04-19T12:08:43Z</time></trkpt><trkpt lat="44.51185784291956" lon="7.993859998411613"><ele>410.0</ele><time>2026-04-19T12:08:44Z</time></trkpt><trkpt lat="44.51186270112201" lon="7.993718021074145"><ele>410.0</ele><time>2026-04-19T12:08:45Z</time></trkpt><trkpt lat="44.51186843621438" lon="7.993548745274154"><ele>410.0</ele><time>2026-04-19T12:08:46Z</time></trkpt><trkpt lat="44.51188992948462" lon="7.9933606174388725"><ele>410.0</ele><time>2026-04-19T12:08:47Z</time></trkpt><trkpt lat="44.511928161445326" lon="7.993147357124592"><ele>410.3333333333333</ele><time>2026-04-19T12:08:48Z</time></trkpt><trkpt lat="44.51196856045209" lon="7.992910988378249"><ele>410.66666666666663</ele><time>2026-04-19T12:08:49Z</time></trkpt><trkpt lat="44.512012817262956" lon="7.9927025783662895"><ele>411.0</ele><time>2026-04-19T12:08:50Z</time></trkpt><trkpt lat="44.51204289891499" lon="7.992516136715727"><ele>409.0</ele><time>2026-04-19T12:08:51Z</time></trkpt><trkpt lat="44.51205325016046" lon="7.9923516630711475"><ele>407.0</ele><time>2026-04-19T12:08:52Z</time></trkpt><trkpt lat="44.51203650140836" lon="7.992210618734466"><ele>405.0</ele><time>2026-04-19T12:08:53Z</time></trkpt><trkpt lat="44.51205099142464" lon="7.992095963052792"><ele>403.0</ele><time>2026-04-19T12:08:54Z</time></trkpt><trkpt lat="44.512083749818" lon="7.991959569719788"><ele>401.0</ele><time>2026-04-19T12:08:56Z</time></trkpt><trkpt lat="44.51215831561638" lon="7.991972628120008"><ele>397.4</ele><time>2026-04-19T12:08:57Z</time></trkpt><trkpt lat="44.51221991839478" lon="7.992052141321973"><ele>393.8</ele><time>2026-04-19T12:08:58Z</time></trkpt><trkpt lat="44.51222730940845" lon="7.992195303730933"><ele>390.2</ele><time>2026-04-19T12:08:59Z</time></trkpt><trkpt lat="44.51220894692441" lon="7.992366130338644"><ele>386.59999999999997</ele><time>2026-04-19T12:09:00Z</time></trkpt><trkpt lat="44.512230812591454" lon="7.992537628717139"><ele>383.0</ele><time>2026-04-19T12:09:01Z</time></trkpt><trkpt lat="44.51223897797765" lon="7.992701531875023"><ele>383.0</ele><time>2026-04-19T12:09:02Z</time></trkpt><trkpt lat="44.51228714187684" lon="7.9928440750425835"><ele>383.0</ele><time>2026-04-19T12:09:03Z</time></trkpt><trkpt lat="44.51236513086119" lon="7.992971952967485"><ele>383.0</ele><time>2026-04-19T12:09:04Z</time></trkpt><trkpt lat="44.512466505341465" lon="7.99309720347348"><ele>383.0</ele><time>2026-04-19T12:09:05Z</time></trkpt><trkpt lat="44.51258232900664" lon="7.993228526365362"><ele>383.59999999999997</ele><time>2026-04-19T12:09:06Z</time></trkpt><trkpt lat="44.51266631705443" lon="7.993376463537964"><ele>384.2</ele><time>2026-04-19T12:09:07Z</time></trkpt><trkpt lat="44.51274769748799" lon="7.993490680396746"><ele>384.8</ele><time>2026-04-19T12:09:08Z</time></trkpt><trkpt lat="44.512808109651864" lon="7.99359706767599"><ele>385.4</ele><time>2026-04-19T12:09:09Z</time></trkpt><trkpt lat="44.512844761103764" lon="7.993704761343"><ele>386.0</ele><time>2026-04-19T12:09:10Z</time></trkpt><trkpt lat="44.512850876076534" lon="7.9938278158575855"><ele>386.0</ele><time>2026-04-19T12:09:11Z</time></trkpt><trkpt lat="44.51284022830099" lon="7.9939721456124"><ele>386.0</ele><time>2026-04-19T12:09:12Z</time></trkpt><trkpt lat="44.512819313062366" lon="7.994120542029828"><ele>386.0</ele><time>2026-04-19T12:09:13Z</time></trkpt><trkpt lat="44.5127874597523" lon="7.994239200078768"><ele>386.0</ele><time>2026-04-19T12:09:14Z</time></trkpt><trkpt lat="44.51277990141178" lon="7.9943445511556845"><ele>386.0</ele><time>2026-04-19T12:09:15Z</time></trkpt><trkpt lat="44.51275910411026" lon="7.9944892600738395"><ele>386.4</ele><time>2026-04-19T12:09:17Z</time></trkpt><trkpt lat="44.51286910538019" lon="7.994466348969215"><ele>386.8</ele><time>2026-04-19T12:09:20Z</time></trkpt><trkpt lat="44.512902122785924" lon="7.994375566046759"><ele>387.2</ele><time>2026-04-19T12:09:21Z</time></trkpt><trkpt lat="44.512922972511745" lon="7.994259699080468"><ele>387.59999999999997</ele><time>2026-04-19T12:09:22Z</time></trkpt><trkpt lat="44.51293652958546" lon="7.994100077399001"><ele>388.0</ele><time>2026-04-19T12:09:23Z</time></trkpt><trkpt lat="44.51295976938604" lon="7.993906451270034"><ele>392.33333333333337</ele><time>2026-04-19T12:09:24Z</time></trkpt><trkpt lat="44.51300514920862" lon="7.993694169606512"><ele>396.66666666666663</ele><time>2026-04-19T12:09:25Z</time></trkpt><trkpt lat="44.51306995528939" lon="7.99346320163231"><ele>401.0</ele><time>2026-04-19T12:09:26Z</time></trkpt><trkpt lat="44.513168803174416" lon="7.993239896352346"><ele>401.0</ele><time>2026-04-19T12:09:27Z</time></trkpt><trkpt lat="44.51327401433204" lon="7.993004567347407"><ele>401.0</ele><time>2026-04-19T12:09:28Z</time></trkpt><trkpt lat="44.51338688315838" lon="7.992792092858961"><ele>401.0</ele><time>2026-04-19T12:09:29Z</time></trkpt><trkpt lat="44.5134559639267" lon="7.992571421322386"><ele>398.66666666666663</ele><time>2026-04-19T12:09:30Z</time></trkpt><trkpt lat="44.51346350281003" lon="7.992337883681612"><ele>396.33333333333337</ele><time>2026-04-19T12:09:31Z</time></trkpt><trkpt lat="44.51343155702158" lon="7.992095839901768"><ele>394.0</ele><time>2026-04-19T12:09:32Z</time></trkpt><trkpt lat="44.51341492806043" lon="7.9918669167235"><ele>392.5</ele><time>2026-04-19T12:09:33Z</time></trkpt><trkpt lat="44.51340878065431" lon="7.991662003659378"><ele>391.0</ele><time>2026-04-19T12:09:34Z</time></trkpt><trkpt lat="44.51343213689382" lon="7.99145600652513"><ele>389.5</ele><time>2026-04-19T12:09:35Z</time></trkpt><trkpt lat="44.51352801583017" lon="7.99129354693093"><ele>388.0</ele><time>2026-04-19T12:09:36Z</time></trkpt><trkpt lat="44.51361802504146" lon="7.991157663888904"><ele>388.0</ele><time>2026-04-19T12:09:37Z</time></trkpt><trkpt lat="44.513714899660464" lon="7.991033836345565"><ele>388.0</ele><time>2026-04-19T12:09:38Z</time></trkpt><trkpt lat="44.51381891724107" lon="7.9909071076298215"><ele>388.0</ele><time>2026-04-19T12:09:39Z</time></trkpt><trkpt lat="44.513928873370105" lon="7.990769069577048"><ele>388.0</ele><time>2026-04-19T12:09:40Z</time></trkpt><trkpt lat="44.51407440088769" lon="7.990690923163994"><ele>392.6666666666667</ele><time>2026-04-19T12:09:41Z</time></trkpt><trkpt lat="44.5142299221101" lon="7.990643303108119"><ele>397.33333333333337</ele><time>2026-04-19T12:09:42Z</time></trkpt><trkpt lat="44.514372391527814" lon="7.9905975226561266"><ele>402.0</ele><time>2026-04-19T12:09:43Z</time></trkpt><trkpt lat="44.514500980401614" lon="7.9904990325990815"><ele>402.0</ele><time>2026-04-19T12:09:44Z</time></trkpt><trkpt lat="44.51462160682108" lon="7.990329061056348"><ele>402.0</ele><time>2026-04-19T12:09:45Z</time></trkpt><trkpt lat="44.51473538839391" lon="7.9901087108607145"><ele>402.0</ele><time>2026-04-19T12:09:46Z</time></trkpt><trkpt lat="44.51485176563556" lon="7.989864963795785"><ele>402.0</ele><time>2026-04-19T12:09:47Z</time></trkpt><trkpt lat="44.514997090721394" lon="7.989629239265313"><ele>402.0</ele><time>2026-04-19T12:09:48Z</time></trkpt><trkpt lat="44.51513474384296" lon="7.989373750395223"><ele>406.66666666666663</ele><time>2026-04-19T12:09:49Z</time></trkpt><trkpt lat="44.515266423537284" lon="7.989130315710367"><ele>411.3333333333333</ele><time>2026-04-19T12:09:50Z</time></trkpt><trkpt lat="44.51538901581453" lon="7.988897502438945"><ele>416.0</ele><time>2026-04-19T12:09:51Z</time></trkpt><trkpt lat="44.515503494452965" lon="7.988670994926113"><ele>416.0</ele><time>2026-04-19T12:09:52Z</time></trkpt><trkpt lat="44.51561435017834" lon="7.988468804272969"><ele>416.0</ele><time>2026-04-19T12:09:53Z</time></trkpt><trkpt lat="44.5157348487147" lon="7.988292377119534"><ele>416.0</ele><time>2026-04-19T12:09:54Z</time></trkpt><trkpt lat="44.515891749801824" lon="7.988125365260717"><ele>415.5</ele><time>2026-04-19T12:09:55Z</time></trkpt><trkpt lat="44.51606977085695" lon="7.987947443228974"><ele>415.0</ele><time>2026-04-19T12:09:56Z</time></trkpt><trkpt lat="44.51625785607297" lon="7.987754654229384"><ele>415.0</ele><time>2026-04-19T12:09:57Z</time></trkpt><trkpt lat="44.51644879778001" lon="7.9875605502241305"><ele>415.0</ele><time>2026-04-19T12:09:58Z</time></trkpt><trkpt lat="44.51663172104008" lon="7.9873745975419785"><ele>417.0</ele><time>2026-04-19T12:09:59Z</time></trkpt><trkpt lat="44.516802339274385" lon="7.9872011535259375"><ele>419.0</ele><time>2026-04-19T12:10:00Z</time></trkpt><trkpt lat="44.51695842907643" lon="7.9870388815040805"><ele>421.0</ele><time>2026-04-19T12:10:01Z</time></trkpt><trkpt lat="44.517106685641295" lon="7.986896010320739"><ele>421.0</ele><time>2026-04-19T12:10:02Z</time></trkpt><trkpt lat="44.51725505353983" lon="7.9867556312149"><ele>421.0</ele><time>2026-04-19T12:10:03Z</time></trkpt><trkpt lat="44.517394810881044" lon="7.986631309733076"><ele>421.0</ele><time>2026-04-19T12:10:04Z</time></trkpt><trkpt lat="44.51753364803865" lon="7.986541167051679"><ele>415.5</ele><time>2026-04-19T12:10:05Z</time></trkpt><trkpt lat="44.51765856668073" lon="7.986466750281421"><ele>410.0</ele><time>2026-04-19T12:10:06Z</time></trkpt><trkpt lat="44.51775946478109" lon="7.986362956074865"><ele>404.5</ele><time>2026-04-19T12:10:07Z</time></trkpt><trkpt lat="44.51778266708371" lon="7.986116436145286"><ele>399.0</ele><time>2026-04-19T12:10:08Z</time></trkpt><trkpt lat="44.51783746188564" lon="7.985894606847783"><ele>401.66666666666663</ele><time>2026-04-19T12:10:09Z</time></trkpt><trkpt lat="44.51793115882776" lon="7.985715584744115"><ele>404.3333333333333</ele><time>2026-04-19T12:10:10Z</time></trkpt><trkpt lat="44.51804699878807" lon="7.985553677781005"><ele>407.0</ele><time>2026-04-19T12:10:11Z</time></trkpt><trkpt lat="44.518165789522456" lon="7.985423735454477"><ele>407.0</ele><time>2026-04-19T12:10:12Z</time></trkpt><trkpt lat="44.51830408681857" lon="7.985328365045814"><ele>407.0</ele><time>2026-04-19T12:10:13Z</time></trkpt><trkpt lat="44.51843386339877" lon="7.985230754093001"><ele>407.0</ele><time>2026-04-19T12:10:14Z</time></trkpt><trkpt lat="44.51856493730721" lon="7.985159416246157"><ele>407.0</ele><time>2026-04-19T12:10:15Z</time></trkpt><trkpt lat="44.51869260606723" lon="7.985025385206579"><ele>408.0</ele><time>2026-04-19T12:10:16Z</time></trkpt><trkpt lat="44.51881059836082" lon="7.984834333443779"><ele>409.0</ele><time>2026-04-19T12:10:17Z</time></trkpt><trkpt lat="44.51893259075709" lon="7.984595306797565"><ele>410.0</ele><time>2026-04-19T12:10:18Z</time></trkpt><trkpt lat="44.51908264492807" lon="7.984370217934647"><ele>395.5</ele><time>2026-04-19T12:10:19Z</time></trkpt><trkpt lat="44.51921072153593" lon="7.984101821970173"><ele>381.0</ele><time>2026-04-19T12:10:20Z</time></trkpt><trkpt lat="44.51934260993715" lon="7.98384897922301"><ele>381.0</ele><time>2026-04-19T12:10:21Z</time></trkpt><trkpt lat="44.519480994058505" lon="7.983608962643214"><ele>381.0</ele><time>2026-04-19T12:10:22Z</time></trkpt><trkpt lat="44.519596306218595" lon="7.983352948428738"><ele>381.0</ele><time>2026-04-19T12:10:23Z</time></trkpt><trkpt lat="44.519724299011266" lon="7.98311628905378"><ele>383.0</ele><time>2026-04-19T12:10:24Z</time></trkpt><trkpt lat="44.5198448190136" lon="7.9828718514775945"><ele>385.0</ele><time>2026-04-19T12:10:25Z</time></trkpt><trkpt lat="44.51998150498078" lon="7.982654739915857"><ele>387.0</ele><time>2026-04-19T12:10:26Z</time></trkpt><trkpt lat="44.52011482716676" lon="7.982436155825529"><ele>388.33333333333337</ele><time>2026-04-19T12:10:27Z</time></trkpt><trkpt lat="44.52021295154134" lon="7.982182886290108"><ele>389.6666666666667</ele><time>2026-04-19T12:10:28Z</time></trkpt><trkpt lat="44.52030859738798" lon="7.981937590994521"><ele>391.0</ele><time>2026-04-19T12:10:29Z</time></trkpt><trkpt lat="44.52041140076542" lon="7.981704910229384"><ele>385.33333333333337</ele><time>2026-04-19T12:10:30Z</time></trkpt><trkpt lat="44.520506223621176" lon="7.98147275912919"><ele>379.6666666666667</ele><time>2026-04-19T12:10:31Z</time></trkpt><trkpt lat="44.52060697611014" lon="7.981270052183517"><ele>374.0</ele><time>2026-04-19T12:10:32Z</time></trkpt><trkpt lat="44.520713823259634" lon="7.9810902643078165"><ele>374.0</ele><time>2026-04-19T12:10:33Z</time></trkpt><trkpt lat="44.5208312438489" lon="7.980939953566045"><ele>374.0</ele><time>2026-04-19T12:10:34Z</time></trkpt><trkpt lat="44.52098217512419" lon="7.98085646458082"><ele>374.0</ele><time>2026-04-19T12:10:35Z</time></trkpt><trkpt lat="44.52113415626546" lon="7.980798560950186"><ele>370.25</ele><time>2026-04-19T12:10:36Z</time></trkpt><trkpt lat="44.52127781300373" lon="7.980742739177936"><ele>366.5</ele><time>2026-04-19T12:10:37Z</time></trkpt><trkpt lat="44.52141501428838" lon="7.9807232326955235"><ele>362.75</ele><time>2026-04-19T12:10:38Z</time></trkpt><trkpt lat="44.52154193044581" lon="7.980723568593362"><ele>359.0</ele><time>2026-04-19T12:10:39Z</time></trkpt><trkpt lat="44.521665518514084" lon="7.98078348934364"><ele>367.0</ele><time>2026-04-19T12:10:40Z</time></trkpt><trkpt lat="44.52181300886149" lon="7.980851126177037"><ele>375.0</ele><time>2026-04-19T12:10:41Z</time></trkpt><trkpt lat="44.521965686003064" lon="7.98094207569026"><ele>383.0</ele><time>2026-04-19T12:10:42Z</time></trkpt><trkpt lat="44.522109970465436" lon="7.981007174034495"><ele>383.0</ele><time>2026-04-19T12:10:43Z</time></trkpt><trkpt lat="44.522242284289504" lon="7.981053769860617"><ele>383.0</ele><time>2026-04-19T12:10:44Z</time></trkpt><trkpt lat="44.52238622798478" lon="7.981053105598291"><ele>383.0</ele><time>2026-04-19T12:10:45Z</time></trkpt><trkpt lat="44.52253250891353" lon="7.981001990503493"><ele>383.0</ele><time>2026-04-19T12:10:46Z</time></trkpt><trkpt lat="44.52267178069075" lon="7.980898442352464"><ele>381.33333333333337</ele><time>2026-04-19T12:10:47Z</time></trkpt><trkpt lat="44.52279839305419" lon="7.98073669878563"><ele>379.6666666666667</ele><time>2026-04-19T12:10:48Z</time></trkpt><trkpt lat="44.5229314045639" lon="7.980549898184881"><ele>378.0</ele><time>2026-04-19T12:10:49Z</time></trkpt><trkpt lat="44.52304034744193" lon="7.98034347375195"><ele>378.0</ele><time>2026-04-19T12:10:50Z</time></trkpt><trkpt lat="44.523135299864116" lon="7.980164242558893"><ele>378.0</ele><time>2026-04-19T12:10:51Z</time></trkpt><trkpt lat="44.52323001090646" lon="7.980004317084777"><ele>378.0</ele><time>2026-04-19T12:10:52Z</time></trkpt><trkpt lat="44.52333254554302" lon="7.979867070253592"><ele>378.0</ele><time>2026-04-19T12:10:53Z</time></trkpt><trkpt lat="44.52347294213163" lon="7.979774218337153"><ele>376.0</ele><time>2026-04-19T12:10:54Z</time></trkpt><trkpt lat="44.52364140551421" lon="7.97967958451059"><ele>374.0</ele><time>2026-04-19T12:10:55Z</time></trkpt><trkpt lat="44.52381838074198" lon="7.979574943924241"><ele>372.0</ele><time>2026-04-19T12:10:56Z</time></trkpt><trkpt lat="44.52399687239526" lon="7.97948482234605"><ele>372.0</ele><time>2026-04-19T12:10:57Z</time></trkpt><trkpt lat="44.52414216611211" lon="7.979361977539066"><ele>372.0</ele><time>2026-04-19T12:10:58Z</time></trkpt><trkpt lat="44.524268398081674" lon="7.979289799670312"><ele>372.0</ele><time>2026-04-19T12:10:59Z</time></trkpt><trkpt lat="44.52438950448799" lon="7.979257279454166"><ele>372.0</ele><time>2026-04-19T12:11:00Z</time></trkpt><trkpt lat="44.524493180424514" lon="7.979315057905277"><ele>365.75</ele><time>2026-04-19T12:11:01Z</time></trkpt><trkpt lat="44.524599809484386" lon="7.979385475180644"><ele>359.5</ele><time>2026-04-19T12:11:02Z</time></trkpt><trkpt lat="44.52472616650952" lon="7.97949462052951"><ele>353.25</ele><time>2026-04-19T12:11:03Z</time></trkpt><trkpt lat="44.52486837399301" lon="7.979638555722112"><ele>347.0</ele><time>2026-04-19T12:11:04Z</time></trkpt><trkpt lat="44.52501779975855" lon="7.979767759379111"><ele>347.0</ele><time>2026-04-19T12:11:05Z</time></trkpt><trkpt lat="44.5251554523852" lon="7.979875187561284"><ele>347.0</ele><time>2026-04-19T12:11:06Z</time></trkpt><trkpt lat="44.525276442343056" lon="7.979965874351617"><ele>347.0</ele><time>2026-04-19T12:11:07Z</time></trkpt><trkpt lat="44.52538510811882" lon="7.980033773420803"><ele>347.0</ele><time>2026-04-19T12:11:08Z</time></trkpt><trkpt lat="44.52548535026744" lon="7.980055643248941"><ele>348.40000000000003</ele><time>2026-04-19T12:11:09Z</time></trkpt><trkpt lat="44.52556982749648" lon="7.980030638016229"><ele>349.8</ele><time>2026-04-19T12:11:10Z</time></trkpt><trkpt lat="44.525627648078206" lon="7.979984225616983"><ele>351.2</ele><time>2026-04-19T12:11:11Z</time></trkpt><trkpt lat="44.52570167070198" lon="7.979960938789718"><ele>352.6</ele><time>2026-04-19T12:11:13Z</time></trkpt><trkpt lat="44.52570584178456" lon="7.979745152161369"><ele>354.0</ele><time>2026-04-19T12:11:14Z</time></trkpt><trkpt lat="44.52568125143054" lon="7.979583563997694"><ele>355.3333333333333</ele><time>2026-04-19T12:11:15Z</time></trkpt><trkpt lat="44.52565619414296" lon="7.979384861411902"><ele>356.66666666666663</ele><time>2026-04-19T12:11:16Z</time></trkpt><trkpt lat="44.52563322869016" lon="7.979152179426748"><ele>358.0</ele><time>2026-04-19T12:11:17Z</time></trkpt><trkpt lat="44.525613599119524" lon="7.978898905679554"><ele>358.0</ele><time>2026-04-19T12:11:18Z</time></trkpt><trkpt lat="44.52559745739715" lon="7.978670446087842"><ele>358.0</ele><time>2026-04-19T12:11:19Z</time></trkpt><trkpt lat="44.5255815586072" lon="7.978455549973052"><ele>358.0</ele><time>2026-04-19T12:11:20Z</time></trkpt><trkpt lat="44.52556973048156" lon="7.978262534731216"><ele>356.75</ele><time>2026-04-19T12:11:21Z</time></trkpt><trkpt lat="44.52558587627204" lon="7.978081854373141"><ele>355.5</ele><time>2026-04-19T12:11:22Z</time></trkpt><trkpt lat="44.525639797990586" lon="7.977898353078897"><ele>354.25</ele><time>2026-04-19T12:11:23Z</time></trkpt><trkpt lat="44.52573053824486" lon="7.977719136702463"><ele>353.0</ele><time>2026-04-19T12:11:24Z</time></trkpt><trkpt lat="44.52586842535049" lon="7.9775594124735285"><ele>354.33333333333337</ele><time>2026-04-19T12:11:25Z</time></trkpt><trkpt lat="44.52603246889416" lon="7.977378690089981"><ele>355.6666666666667</ele><time>2026-04-19T12:11:26Z</time></trkpt><trkpt lat="44.52621630482019" lon="7.977186716999063"><ele>357.0</ele><time>2026-04-19T12:11:27Z</time></trkpt><trkpt lat="44.52640632963259" lon="7.976975386082826"><ele>357.0</ele><time>2026-04-19T12:11:28Z</time></trkpt><trkpt lat="44.52660774431838" lon="7.976751973460808"><ele>357.0</ele><time>2026-04-19T12:11:29Z</time></trkpt><trkpt lat="44.526815476925414" lon="7.976522518038519"><ele>358.5</ele><time>2026-04-19T12:11:30Z</time></trkpt><trkpt lat="44.52702514943971" lon="7.976289745143653"><ele>360.0</ele><time>2026-04-19T12:11:31Z</time></trkpt><trkpt lat="44.52722527001536" lon="7.976063475179443"><ele>352.5</ele><time>2026-04-19T12:11:32Z</time></trkpt><trkpt lat="44.527410277319795" lon="7.975851065592408"><ele>345.0</ele><time>2026-04-19T12:11:33Z</time></trkpt><trkpt lat="44.52758677420976" lon="7.975648964770954"><ele>345.0</ele><time>2026-04-19T12:11:34Z</time></trkpt><trkpt lat="44.52775427747694" lon="7.975458689350669"><ele>345.0</ele><time>2026-04-19T12:11:35Z</time></trkpt><trkpt lat="44.52790233961932" lon="7.975256416519295"><ele>345.0</ele><time>2026-04-19T12:11:36Z</time></trkpt><trkpt lat="44.528061100108374" lon="7.975070919261189"><ele>347.6666666666667</ele><time>2026-04-19T12:11:37Z</time></trkpt><trkpt lat="44.528169657992265" lon="7.974830855163152"><ele>350.33333333333337</ele><time>2026-04-19T12:11:38Z</time></trkpt><trkpt lat="44.52830171961867" lon="7.9745793494193755"><ele>353.0</ele><time>2026-04-19T12:11:39Z</time></trkpt><trkpt lat="44.52843191183352" lon="7.974293334797517"><ele>346.0</ele><time>2026-04-19T12:11:40Z</time></trkpt><trkpt lat="44.52856748931915" lon="7.973994775331745"><ele>339.0</ele><time>2026-04-19T12:11:41Z</time></trkpt><trkpt lat="44.52870774902915" lon="7.973684246434361"><ele>344.5</ele><time>2026-04-19T12:11:42Z</time></trkpt><trkpt lat="44.52884752802902" lon="7.973373673107715"><ele>350.0</ele><time>2026-04-19T12:11:43Z</time></trkpt><trkpt lat="44.528981949876616" lon="7.973074219583554"><ele>350.0</ele><time>2026-04-19T12:11:44Z</time></trkpt><trkpt lat="44.529114851860975" lon="7.972775114664938"><ele>350.0</ele><time>2026-04-19T12:11:45Z</time></trkpt><trkpt lat="44.529250337875396" lon="7.972470194852476"><ele>342.0</ele><time>2026-04-19T12:11:46Z</time></trkpt><trkpt lat="44.52938811892667" lon="7.972160109755884"><ele>334.0</ele><time>2026-04-19T12:11:47Z</time></trkpt><trkpt lat="44.529515093528666" lon="7.97183528253755"><ele>335.0</ele><time>2026-04-19T12:11:48Z</time></trkpt><trkpt lat="44.529655479058235" lon="7.9715245555711665"><ele>336.0</ele><time>2026-04-19T12:11:49Z</time></trkpt><trkpt lat="44.52979085332065" lon="7.971214474870234"><ele>336.0</ele><time>2026-04-19T12:11:50Z</time></trkpt><trkpt lat="44.529935897726595" lon="7.9709265855253735"><ele>336.0</ele><time>2026-04-19T12:11:51Z</time></trkpt><trkpt lat="44.530068129731646" lon="7.970633430695661"><ele>330.5</ele><time>2026-04-19T12:11:52Z</time></trkpt><trkpt lat="44.530202088300655" lon="7.97033876527189"><ele>325.0</ele><time>2026-04-19T12:11:53Z</time></trkpt><trkpt lat="44.53033439318751" lon="7.970047736416539"><ele>327.0</ele><time>2026-04-19T12:11:54Z</time></trkpt><trkpt lat="44.53046225481287" lon="7.969765323615902"><ele>329.0</ele><time>2026-04-19T12:11:55Z</time></trkpt><trkpt lat="44.53058581157328" lon="7.969487339770417"><ele>329.0</ele><time>2026-04-19T12:11:56Z</time></trkpt><trkpt lat="44.53070367258544" lon="7.969217150167306"><ele>329.0</ele><time>2026-04-19T12:11:57Z</time></trkpt><trkpt lat="44.53081652708123" lon="7.968952336408945"><ele>329.0</ele><time>2026-04-19T12:11:58Z</time></trkpt><trkpt lat="44.5309270129108" lon="7.9686948232312504"><ele>327.33333333333337</ele><time>2026-04-19T12:11:59Z</time></trkpt><trkpt lat="44.53103473363433" lon="7.968445405261111"><ele>325.6666666666667</ele><time>2026-04-19T12:12:00Z</time></trkpt><trkpt lat="44.53113884669847" lon="7.9682045817885125"><ele>324.0</ele><time>2026-04-19T12:12:01Z</time></trkpt><trkpt lat="44.53124116668835" lon="7.967968497194322"><ele>324.0</ele><time>2026-04-19T12:12:02Z</time></trkpt><trkpt lat="44.53134411385712" lon="7.967730965643359"><ele>324.0</ele><time>2026-04-19T12:12:03Z</time></trkpt><trkpt lat="44.531451426440015" lon="7.967488088583561"><ele>324.0</ele><time>2026-04-19T12:12:04Z</time></trkpt><trkpt lat="44.53156126517911" lon="7.967247423844714"><ele>320.6666666666667</ele><time>2026-04-19T12:12:05Z</time></trkpt><trkpt lat="44.53167892064492" lon="7.9670176856345325"><ele>317.33333333333337</ele><time>2026-04-19T12:12:06Z</time></trkpt><trkpt lat="44.53181092980682" lon="7.966818238729438"><ele>314.0</ele><time>2026-04-19T12:12:07Z</time></trkpt><trkpt lat="44.531953747440625" lon="7.966620316618938"><ele>311.33333333333337</ele><time>2026-04-19T12:12:08Z</time></trkpt><trkpt lat="44.532092537534375" lon="7.966419959280752"><ele>308.6666666666667</ele><time>2026-04-19T12:12:09Z</time></trkpt><trkpt lat="44.532224995995676" lon="7.966213062151909"><ele>306.0</ele><time>2026-04-19T12:12:10Z</time></trkpt><trkpt lat="44.53234624716967" lon="7.965986662437636"><ele>306.0</ele><time>2026-04-19T12:12:11Z</time></trkpt><trkpt lat="44.5324516910034" lon="7.965741492208761"><ele>306.0</ele><time>2026-04-19T12:12:12Z</time></trkpt><trkpt lat="44.53254429532573" lon="7.965513036343354"><ele>306.0</ele><time>2026-04-19T12:12:13Z</time></trkpt><trkpt lat="44.53263133557712" lon="7.96528607579721"><ele>306.0</ele><time>2026-04-19T12:12:14Z</time></trkpt><trkpt lat="44.53272113974194" lon="7.965055149775334"><ele>306.0</ele><time>2026-04-19T12:12:15Z</time></trkpt><trkpt lat="44.532812080617894" lon="7.9648192943669525"><ele>306.0</ele><time>2026-04-19T12:12:16Z</time></trkpt><trkpt lat="44.532902684598305" lon="7.96457279702946"><ele>307.3333333333333</ele><time>2026-04-19T12:12:17Z</time></trkpt><trkpt lat="44.532989858434135" lon="7.964318541786073"><ele>308.66666666666663</ele><time>2026-04-19T12:12:18Z</time></trkpt><trkpt lat="44.533072151295606" lon="7.964054761735599"><ele>310.0</ele><time>2026-04-19T12:12:19Z</time></trkpt><trkpt lat="44.53314952878295" lon="7.963800762377401"><ele>310.0</ele><time>2026-04-19T12:12:20Z</time></trkpt><trkpt lat="44.53321968129407" lon="7.963560783242474"><ele>310.0</ele><time>2026-04-19T12:12:21Z</time></trkpt><trkpt lat="44.53328711214627" lon="7.963330114496035"><ele>310.0</ele><time>2026-04-19T12:12:22Z</time></trkpt><trkpt lat="44.533351509043825" lon="7.96310982530567"><ele>309.3333333333333</ele><time>2026-04-19T12:12:23Z</time></trkpt><trkpt lat="44.53341358549203" lon="7.962898147452558"><ele>308.6666666666667</ele><time>2026-04-19T12:12:24Z</time></trkpt><trkpt lat="44.533465372726226" lon="7.962696975654806"><ele>308.0</ele><time>2026-04-19T12:12:25Z</time></trkpt><trkpt lat="44.533505599347194" lon="7.96249284373102"><ele>307.33333333333337</ele><time>2026-04-19T12:12:26Z</time></trkpt><trkpt lat="44.53353715824678" lon="7.9622762862862295"><ele>306.6666666666667</ele><time>2026-04-19T12:12:27Z</time></trkpt><trkpt lat="44.533557188203616" lon="7.962043445094516"><ele>306.0</ele><time>2026-04-19T12:12:28Z</time></trkpt><trkpt lat="44.53357263545092" lon="7.961801992009291"><ele>305.3333333333333</ele><time>2026-04-19T12:12:29Z</time></trkpt><trkpt lat="44.5335869527391" lon="7.961552412631117"><ele>304.66666666666663</ele><time>2026-04-19T12:12:30Z</time></trkpt><trkpt lat="44.53358568342779" lon="7.961297068869311"><ele>304.0</ele><time>2026-04-19T12:12:31Z</time></trkpt><trkpt lat="44.53360141082254" lon="7.961044199493123"><ele>303.3333333333333</ele><time>2026-04-19T12:12:32Z</time></trkpt><trkpt lat="44.533615687449085" lon="7.960788892360807"><ele>302.6666666666667</ele><time>2026-04-19T12:12:33Z</time></trkpt><trkpt lat="44.53364459251662" lon="7.960533255279379"><ele>302.0</ele><time>2026-04-19T12:12:34Z</time></trkpt><trkpt lat="44.533659033485115" lon="7.960276982917752"><ele>300.6666666666667</ele><time>2026-04-19T12:12:35Z</time></trkpt><trkpt lat="44.533670946347904" lon="7.96001907853792"><ele>299.3333333333333</ele><time>2026-04-19T12:12:36Z</time></trkpt><trkpt lat="44.533678963275" lon="7.959769250666861"><ele>298.0</ele><time>2026-04-19T12:12:37Z</time></trkpt><trkpt lat="44.53368267702919" lon="7.959532838332116"><ele>298.0</ele><time>2026-04-19T12:12:38Z</time></trkpt><trkpt lat="44.533678435167566" lon="7.959303753039181"><ele>298.0</ele><time>2026-04-19T12:12:39Z</time></trkpt><trkpt lat="44.5336702044471" lon="7.9590859663723705"><ele>298.0</ele><time>2026-04-19T12:12:40Z</time></trkpt><trkpt lat="44.53366009818225" lon="7.958876423416001"><ele>298.0</ele><time>2026-04-19T12:12:41Z</time></trkpt><trkpt lat="44.53362828563793" lon="7.958679650157357"><ele>298.0</ele><time>2026-04-19T12:12:42Z</time></trkpt><trkpt lat="44.53361883101493" lon="7.958492205236773"><ele>298.0</ele><time>2026-04-19T12:12:43Z</time></trkpt><trkpt lat="44.53360593618652" lon="7.958312173622044"><ele>298.0</ele><time>2026-04-19T12:12:44Z</time></trkpt><trkpt lat="44.53359704343849" lon="7.958136075347453"><ele>298.0</ele><time>2026-04-19T12:12:45Z</time></trkpt><trkpt lat="44.53358546876017" lon="7.957973529635692"><ele>298.0</ele><time>2026-04-19T12:12:46Z</time></trkpt><trkpt lat="44.53357217791275" lon="7.957820105382133"><ele>298.0</ele><time>2026-04-19T12:12:47Z</time></trkpt><trkpt lat="44.53355811476637" lon="7.957674237899812"><ele>298.0</ele><time>2026-04-19T12:12:48Z</time></trkpt><trkpt lat="44.53356172554096" lon="7.9575301855202"><ele>298.0</ele><time>2026-04-19T12:12:49Z</time></trkpt><trkpt lat="44.53353804676232" lon="7.9573970212750575"><ele>298.6</ele><time>2026-04-19T12:12:50Z</time></trkpt><trkpt lat="44.5335478065898" lon="7.957270451058453"><ele>299.20000000000005</ele><time>2026-04-19T12:12:51Z</time></trkpt><trkpt lat="44.53353891035778" lon="7.957151450254868"><ele>299.8</ele><time>2026-04-19T12:12:52Z</time></trkpt><trkpt lat="44.53350556386973" lon="7.9570450647620135"><ele>300.40000000000003</ele><time>2026-04-19T12:12:53Z</time></trkpt><trkpt lat="44.53345323925184" lon="7.956929026796774"><ele>301.0</ele><time>2026-04-19T12:12:54Z</time></trkpt><trkpt lat="44.53343872710652" lon="7.956783025637266"><ele>301.5</ele><time>2026-04-19T12:12:55Z</time></trkpt><trkpt lat="44.533405258267855" lon="7.9566281436483335"><ele>302.0</ele><time>2026-04-19T12:12:56Z</time></trkpt><trkpt lat="44.533368643972146" lon="7.956460824741268"><ele>302.5</ele><time>2026-04-19T12:12:57Z</time></trkpt><trkpt lat="44.53332925768511" lon="7.956282253218347"><ele>303.0</ele><time>2026-04-19T12:12:58Z</time></trkpt><trkpt lat="44.5332861754047" lon="7.95609277888791"><ele>303.0</ele><time>2026-04-19T12:12:59Z</time></trkpt><trkpt lat="44.53322353403253" lon="7.955913856720946"><ele>303.0</ele><time>2026-04-19T12:13:00Z</time></trkpt><trkpt lat="44.53317948222747" lon="7.955730957461723"><ele>303.0</ele><time>2026-04-19T12:13:01Z</time></trkpt><trkpt lat="44.53313734106927" lon="7.955547843799659"><ele>303.0</ele><time>2026-04-19T12:13:02Z</time></trkpt><trkpt lat="44.53309684861608" lon="7.9553696520916"><ele>302.75</ele><time>2026-04-19T12:13:03Z</time></trkpt><trkpt lat="44.53305672097754" lon="7.9552001339478835"><ele>302.5</ele><time>2026-04-19T12:13:04Z</time></trkpt><trkpt lat="44.533019680121775" lon="7.955034079884165"><ele>302.25</ele><time>2026-04-19T12:13:05Z</time></trkpt><trkpt lat="44.53300611305462" lon="7.954866479811678"><ele>302.0</ele><time>2026-04-19T12:13:06Z</time></trkpt><trkpt lat="44.532971945496" lon="7.954717053862118"><ele>301.6</ele><time>2026-04-19T12:13:07Z</time></trkpt><trkpt lat="44.53294099345328" lon="7.9545818498889025"><ele>301.2</ele><time>2026-04-19T12:13:08Z</time></trkpt><trkpt lat="44.53291461292521" lon="7.954466615883991"><ele>300.8</ele><time>2026-04-19T12:13:09Z</time></trkpt><trkpt lat="44.53289149799783" lon="7.9543696303664735"><ele>300.4</ele><time>2026-04-19T12:13:10Z</time></trkpt><trkpt lat="44.5328726240108" lon="7.954235603582201"><ele>300.0</ele><time>2026-04-19T12:13:12Z</time></trkpt><trkpt lat="44.53303331486621" lon="7.954154618992448"><ele>299.6</ele><time>2026-04-19T12:13:15Z</time></trkpt><trkpt lat="44.53311674749104" lon="7.9541187178243495"><ele>299.2</ele><time>2026-04-19T12:13:16Z</time></trkpt><trkpt lat="44.53321797021467" lon="7.954072149478007"><ele>298.8</ele><time>2026-04-19T12:13:17Z</time></trkpt><trkpt lat="44.53332869962497" lon="7.954021207399038"><ele>298.4</ele><time>2026-04-19T12:13:18Z</time></trkpt><trkpt lat="44.53343835628446" lon="7.9539606889842895"><ele>298.0</ele><time>2026-04-19T12:13:19Z</time></trkpt><trkpt lat="44.533539978031506" lon="7.953946872876251"><ele>298.0</ele><time>2026-04-19T12:13:20Z</time></trkpt><trkpt lat="44.533636425243955" lon="7.953964222117757"><ele>298.0</ele><time>2026-04-19T12:13:21Z</time></trkpt><trkpt lat="44.53372504061969" lon="7.954028229627419"><ele>298.0</ele><time>2026-04-19T12:13:22Z</time></trkpt><trkpt lat="44.533805337056585" lon="7.954139217831831"><ele>298.0</ele><time>2026-04-19T12:13:23Z</time></trkpt><trkpt lat="44.533881071588276" lon="7.954279005992984"><ele>298.0</ele><time>2026-04-19T12:13:24Z</time></trkpt><trkpt lat="44.533957203960014" lon="7.954445398326329"><ele>298.3333333333333</ele><time>2026-04-19T12:13:25Z</time></trkpt><trkpt lat="44.53404179795034" lon="7.954632131002414"><ele>298.6666666666667</ele><time>2026-04-19T12:13:26Z</time></trkpt><trkpt lat="44.53413510446172" lon="7.954832068950078"><ele>299.0</ele><time>2026-04-19T12:13:27Z</time></trkpt><trkpt lat="44.53423610950582" lon="7.955046173627441"><ele>299.0</ele><time>2026-04-19T12:13:28Z</time></trkpt><trkpt lat="44.53434166330884" lon="7.955265183181027"><ele>299.0</ele><time>2026-04-19T12:13:29Z</time></trkpt><trkpt lat="44.534440079535564" lon="7.955469154241048"><ele>299.0</ele><time>2026-04-19T12:13:30Z</time></trkpt><trkpt lat="44.53453475724452" lon="7.955662529404931"><ele>299.75</ele><time>2026-04-19T12:13:31Z</time></trkpt><trkpt lat="44.53462479649813" lon="7.955845883309654"><ele>300.5</ele><time>2026-04-19T12:13:32Z</time></trkpt><trkpt lat="44.53471347209843" lon="7.956013311590509"><ele>301.25</ele><time>2026-04-19T12:13:33Z</time></trkpt><trkpt lat="44.53480609661654" lon="7.95615619504972"><ele>302.0</ele><time>2026-04-19T12:13:34Z</time></trkpt><trkpt lat="44.53491191030464" lon="7.956275330478996"><ele>302.75</ele><time>2026-04-19T12:13:35Z</time></trkpt><trkpt lat="44.535038065613534" lon="7.956356735096964"><ele>303.5</ele><time>2026-04-19T12:13:36Z</time></trkpt><trkpt lat="44.53517635646866" lon="7.956412857060149"><ele>304.25</ele><time>2026-04-19T12:13:37Z</time></trkpt><trkpt lat="44.53530288746568" lon="7.956483705508163"><ele>305.0</ele><time>2026-04-19T12:13:38Z</time></trkpt><trkpt lat="44.53540462338438" lon="7.956589301950257"><ele>304.33333333333337</ele><time>2026-04-19T12:13:39Z</time></trkpt><trkpt lat="44.53549156056761" lon="7.956743471909598"><ele>303.6666666666667</ele><time>2026-04-19T12:13:40Z</time></trkpt><trkpt lat="44.53557814080747" lon="7.95692130345146"><ele>303.0</ele><time>2026-04-19T12:13:41Z</time></trkpt><trkpt lat="44.53566939757036" lon="7.957118336014128"><ele>303.0</ele><time>2026-04-19T12:13:42Z</time></trkpt><trkpt lat="44.53576937464484" lon="7.957331784897665"><ele>303.0</ele><time>2026-04-19T12:13:43Z</time></trkpt><trkpt lat="44.535880673916424" lon="7.9575627874463475"><ele>303.0</ele><time>2026-04-19T12:13:44Z</time></trkpt><trkpt lat="44.535995270801635" lon="7.957828137851198"><ele>306.5</ele><time>2026-04-19T12:13:45Z</time></trkpt><trkpt lat="44.53613014931873" lon="7.958102192098149"><ele>310.0</ele><time>2026-04-19T12:13:46Z</time></trkpt><trkpt lat="44.53626998933739" lon="7.95838632768643"><ele>311.0</ele><time>2026-04-19T12:13:47Z</time></trkpt><trkpt lat="44.53641131578158" lon="7.958677431524353"><ele>312.0</ele><time>2026-04-19T12:13:48Z</time></trkpt><trkpt lat="44.53656116817016" lon="7.958986710048617"><ele>312.0</ele><time>2026-04-19T12:13:49Z</time></trkpt><trkpt lat="44.536667668622904" lon="7.959185600585379"><ele>312.0</ele><time>2026-04-19T12:13:50Z</time></trkpt><trkpt lat="44.53679531123038" lon="7.9594497491346115"><ele>312.0</ele><time>2026-04-19T12:13:51Z</time></trkpt><trkpt lat="44.536911875134685" lon="7.959693544339177"><ele>312.3333333333333</ele><time>2026-04-19T12:13:52Z</time></trkpt><trkpt lat="44.537023031451355" lon="7.959925037154757"><ele>312.66666666666663</ele><time>2026-04-19T12:13:53Z</time></trkpt><trkpt lat="44.53712671180125" lon="7.960145449738781"><ele>313.0</ele><time>2026-04-19T12:13:54Z</time></trkpt><trkpt lat="44.537229588605584" lon="7.960356965638794"><ele>313.0</ele><time>2026-04-19T12:13:55Z</time></trkpt><trkpt lat="44.537328606421944" lon="7.96055656901806"><ele>313.0</ele><time>2026-04-19T12:13:56Z</time></trkpt><trkpt lat="44.53742547889268" lon="7.960742469192651"><ele>313.0</ele><time>2026-04-19T12:13:57Z</time></trkpt><trkpt lat="44.53752696864944" lon="7.960878025412438"><ele>313.0</ele><time>2026-04-19T12:13:58Z</time></trkpt><trkpt lat="44.53763829371795" lon="7.960954368384691"><ele>313.0</ele><time>2026-04-19T12:13:59Z</time></trkpt><trkpt lat="44.537764938504125" lon="7.9609787976619755"><ele>313.0</ele><time>2026-04-19T12:14:00Z</time></trkpt><trkpt lat="44.537907084666564" lon="7.9609616011932856"><ele>313.0</ele><time>2026-04-19T12:14:01Z</time></trkpt><trkpt lat="44.53805838323518" lon="7.96092325967617"><ele>313.0</ele><time>2026-04-19T12:14:02Z</time></trkpt><trkpt lat="44.53819704370536" lon="7.960958462356795"><ele>313.0</ele><time>2026-04-19T12:14:03Z</time></trkpt><trkpt lat="44.53832625888982" lon="7.961018930737286"><ele>313.0</ele><time>2026-04-19T12:14:04Z</time></trkpt><trkpt lat="44.53843984902849" lon="7.961126406494307"><ele>313.0</ele><time>2026-04-19T12:14:05Z</time></trkpt><trkpt lat="44.538516804484374" lon="7.961292873233037"><ele>313.0</ele><time>2026-04-19T12:14:06Z</time></trkpt><trkpt lat="44.538592343825265" lon="7.961481347779109"><ele>313.0</ele><time>2026-04-19T12:14:07Z</time></trkpt><trkpt lat="44.53867022879201" lon="7.96169941371654"><ele>313.0</ele><time>2026-04-19T12:14:08Z</time></trkpt><trkpt lat="44.53875023625339" lon="7.961928396057789"><ele>314.3333333333333</ele><time>2026-04-19T12:14:09Z</time></trkpt><trkpt lat="44.538828002630595" lon="7.962136224457391"><ele>315.6666666666667</ele><time>2026-04-19T12:14:10Z</time></trkpt><trkpt lat="44.5389158809883" lon="7.962312779634521"><ele>317.0</ele><time>2026-04-19T12:14:11Z</time></trkpt><trkpt lat="44.53901711683451" lon="7.962489042925958"><ele>323.0</ele><time>2026-04-19T12:14:12Z</time></trkpt><trkpt lat="44.53915343855956" lon="7.962624778514297"><ele>329.0</ele><time>2026-04-19T12:14:13Z</time></trkpt><trkpt lat="44.539312764556925" lon="7.962734266354793"><ele>335.0</ele><time>2026-04-19T12:14:14Z</time></trkpt><trkpt lat="44.53949201236616" lon="7.96281651563729"><ele>332.33333333333337</ele><time>2026-04-19T12:14:15Z</time></trkpt><trkpt lat="44.53968584134193" lon="7.962853238261527"><ele>329.6666666666667</ele><time>2026-04-19T12:14:16Z</time></trkpt><trkpt lat="44.539873376575756" lon="7.962866640646451"><ele>327.0</ele><time>2026-04-19T12:14:17Z</time></trkpt><trkpt lat="44.54002904550628" lon="7.9629223151675985"><ele>327.0</ele><time>2026-04-19T12:14:18Z</time></trkpt><trkpt lat="44.540174457711885" lon="7.962984044687013"><ele>327.0</ele><time>2026-04-19T12:14:19Z</time></trkpt><trkpt lat="44.540279056311576" lon="7.963099269548786"><ele>327.0</ele><time>2026-04-19T12:14:20Z</time></trkpt><trkpt lat="44.540358787301706" lon="7.9632392946723005"><ele>327.0</ele><time>2026-04-19T12:14:21Z</time></trkpt><trkpt lat="44.540450041552795" lon="7.963372142789664"><ele>327.75</ele><time>2026-04-19T12:14:22Z</time></trkpt><trkpt lat="44.540543476237794" lon="7.963467436472725"><ele>328.5</ele><time>2026-04-19T12:14:23Z</time></trkpt><trkpt lat="44.540660492049085" lon="7.963518438639106"><ele>329.25</ele><time>2026-04-19T12:14:24Z</time></trkpt><trkpt lat="44.54081401365211" lon="7.9635405322299455"><ele>330.0</ele><time>2026-04-19T12:14:25Z</time></trkpt><trkpt lat="44.540980626362725" lon="7.96354405549102"><ele>330.0</ele><time>2026-04-19T12:14:26Z</time></trkpt><trkpt lat="44.5411526356859" lon="7.9635719380490615"><ele>330.0</ele><time>2026-04-19T12:14:27Z</time></trkpt><trkpt lat="44.54132273506652" lon="7.963601585463533"><ele>330.0</ele><time>2026-04-19T12:14:28Z</time></trkpt><trkpt lat="44.541475299015204" lon="7.96365681497235"><ele>329.5</ele><time>2026-04-19T12:14:29Z</time></trkpt><trkpt lat="44.541598922977556" lon="7.963748508639192"><ele>329.0</ele><time>2026-04-19T12:14:30Z</time></trkpt><trkpt lat="44.5416814280138" lon="7.96385894509965"><ele>328.5</ele><time>2026-04-19T12:14:31Z</time></trkpt><trkpt lat="44.541748631169476" lon="7.963991445858831"><ele>328.0</ele><time>2026-04-19T12:14:32Z</time></trkpt><trkpt lat="44.541817989311284" lon="7.964161182424584"><ele>333.3333333333333</ele><time>2026-04-19T12:14:33Z</time></trkpt><trkpt lat="44.54188175604201" lon="7.964363868530955"><ele>338.6666666666667</ele><time>2026-04-19T12:14:34Z</time></trkpt><trkpt lat="44.5419415105406" lon="7.964566741719134"><ele>344.0</ele><time>2026-04-19T12:14:35Z</time></trkpt><trkpt lat="44.542005578528865" lon="7.9647490083462005"><ele>345.25</ele><time>2026-04-19T12:14:36Z</time></trkpt><trkpt lat="44.54208734421267" lon="7.964898318101521"><ele>346.5</ele><time>2026-04-19T12:14:37Z</time></trkpt><trkpt lat="44.54219822477138" lon="7.965006449903688"><ele>347.75</ele><time>2026-04-19T12:14:38Z</time></trkpt><trkpt lat="44.54233904001384" lon="7.965075555658346"><ele>349.0</ele><time>2026-04-19T12:14:39Z</time></trkpt><trkpt lat="44.542501178912595" lon="7.96512038503728"><ele>349.0</ele><time>2026-04-19T12:14:40Z</time></trkpt><trkpt lat="44.54268401601813" lon="7.965164361169044"><ele>349.0</ele><time>2026-04-19T12:14:41Z</time></trkpt><trkpt lat="44.54287553964137" lon="7.965226566590581"><ele>349.0</ele><time>2026-04-19T12:14:42Z</time></trkpt><trkpt lat="44.54307176158324" lon="7.965299895221516"><ele>345.66666666666663</ele><time>2026-04-19T12:14:43Z</time></trkpt><trkpt lat="44.54326751595685" lon="7.965366773217867"><ele>342.3333333333333</ele><time>2026-04-19T12:14:44Z</time></trkpt><trkpt lat="44.54344868644922" lon="7.965426075332529"><ele>339.0</ele><time>2026-04-19T12:14:45Z</time></trkpt><trkpt lat="44.54362044797512" lon="7.965443697648575"><ele>342.3333333333333</ele><time>2026-04-19T12:14:46Z</time></trkpt><trkpt lat="44.54378073281374" lon="7.965376813688593"><ele>345.66666666666663</ele><time>2026-04-19T12:14:47Z</time></trkpt><trkpt lat="44.54394945572207" lon="7.965264363137736"><ele>349.0</ele><time>2026-04-19T12:14:48Z</time></trkpt><trkpt lat="44.54412894381074" lon="7.965107533110817"><ele>340.5</ele><time>2026-04-19T12:14:49Z</time></trkpt><trkpt lat="44.544322655912254" lon="7.964950906857142"><ele>332.0</ele><time>2026-04-19T12:14:50Z</time></trkpt><trkpt lat="44.5445320375636" lon="7.964796192704413"><ele>335.0</ele><time>2026-04-19T12:14:51Z</time></trkpt><trkpt lat="44.544752484279904" lon="7.964637240177861"><ele>338.0</ele><time>2026-04-19T12:14:52Z</time></trkpt><trkpt lat="44.544974449641195" lon="7.964473232045161"><ele>338.0</ele><time>2026-04-19T12:14:53Z</time></trkpt><trkpt lat="44.545183145620584" lon="7.964318445498266"><ele>338.0</ele><time>2026-04-19T12:14:54Z</time></trkpt><trkpt lat="44.54537323154833" lon="7.964173121290216"><ele>338.0</ele><time>2026-04-19T12:14:55Z</time></trkpt><trkpt lat="44.54555044448179" lon="7.964070040982345"><ele>338.0</ele><time>2026-04-19T12:14:56Z</time></trkpt><trkpt lat="44.54570274035137" lon="7.963965533888185"><ele>338.0</ele><time>2026-04-19T12:14:57Z</time></trkpt><trkpt lat="44.54585274573892" lon="7.963881052598429"><ele>338.0</ele><time>2026-04-19T12:14:58Z</time></trkpt><trkpt lat="44.54602377674088" lon="7.963871834906951"><ele>338.0</ele><time>2026-04-19T12:14:59Z</time></trkpt><trkpt lat="44.54620747049968" lon="7.963926240925063"><ele>338.0</ele><time>2026-04-19T12:15:00Z</time></trkpt><trkpt lat="44.54641564572885" lon="7.963959941965086"><ele>337.5</ele><time>2026-04-19T12:15:01Z</time></trkpt><trkpt lat="44.546635744434084" lon="7.964015179199309"><ele>337.0</ele><time>2026-04-19T12:15:02Z</time></trkpt><trkpt lat="44.546872793588754" lon="7.964066443661977"><ele>340.0</ele><time>2026-04-19T12:15:03Z</time></trkpt><trkpt lat="44.54712620738688" lon="7.964113099413511"><ele>343.0</ele><time>2026-04-19T12:15:04Z</time></trkpt><trkpt lat="44.54738832785142" lon="7.964161839639111"><ele>342.5</ele><time>2026-04-19T12:15:05Z</time></trkpt><trkpt lat="44.54763208005282" lon="7.964207907319012"><ele>342.0</ele><time>2026-04-19T12:15:06Z</time></trkpt><trkpt lat="44.547857271170464" lon="7.9642509979968"><ele>341.5</ele><time>2026-04-19T12:15:07Z</time></trkpt><trkpt lat="44.548088784154054" lon="7.964290970799589"><ele>341.0</ele><time>2026-04-19T12:15:08Z</time></trkpt><trkpt lat="44.54832945779782" lon="7.964332825993088"><ele>341.0</ele><time>2026-04-19T12:15:09Z</time></trkpt><trkpt lat="44.5485892218748" lon="7.9643791277337135"><ele>341.0</ele><time>2026-04-19T12:15:10Z</time></trkpt><trkpt lat="44.54886076968599" lon="7.964434891588659"><ele>343.0</ele><time>2026-04-19T12:15:11Z</time></trkpt><trkpt lat="44.549128128392375" lon="7.964487357555391"><ele>345.0</ele><time>2026-04-19T12:15:12Z</time></trkpt><trkpt lat="44.54937642805053" lon="7.9645347442370715"><ele>344.0</ele><time>2026-04-19T12:15:13Z</time></trkpt><trkpt lat="44.54960988031958" lon="7.964580388405522"><ele>343.0</ele><time>2026-04-19T12:15:14Z</time></trkpt><trkpt lat="44.54981799331989" lon="7.964623725818043"><ele>342.0</ele><time>2026-04-19T12:15:15Z</time></trkpt><trkpt lat="44.55001137903398" lon="7.964662343658466"><ele>342.0</ele><time>2026-04-19T12:15:16Z</time></trkpt><trkpt lat="44.550186180838345" lon="7.964716590910238"><ele>342.0</ele><time>2026-04-19T12:15:17Z</time></trkpt><trkpt lat="44.55034699269648" lon="7.964749039510486"><ele>342.0</ele><time>2026-04-19T12:15:18Z</time></trkpt><trkpt lat="44.55048441206228" lon="7.9647948038751055"><ele>342.6666666666667</ele><time>2026-04-19T12:15:19Z</time></trkpt><trkpt lat="44.55060292103074" lon="7.964896984914654"><ele>343.33333333333337</ele><time>2026-04-19T12:15:20Z</time></trkpt><trkpt lat="44.55070842675498" lon="7.965053705517169"><ele>344.0</ele><time>2026-04-19T12:15:21Z</time></trkpt><trkpt lat="44.55082653630449" lon="7.9652223497344155"><ele>344.33333333333337</ele><time>2026-04-19T12:15:22Z</time></trkpt><trkpt lat="44.550939324617175" lon="7.965391161398664"><ele>344.6666666666667</ele><time>2026-04-19T12:15:23Z</time></trkpt><trkpt lat="44.55102822659759" lon="7.9655671851064564"><ele>345.0</ele><time>2026-04-19T12:15:24Z</time></trkpt><trkpt lat="44.551231008950566" lon="7.965561640019282"><ele>345.75</ele><time>2026-04-19T12:15:25Z</time></trkpt><trkpt lat="44.551368896917296" lon="7.965605865646826"><ele>346.5</ele><time>2026-04-19T12:15:26Z</time></trkpt><trkpt lat="44.55147646501317" lon="7.965698172611913"><ele>347.25</ele><time>2026-04-19T12:15:27Z</time></trkpt><trkpt lat="44.55155242927243" lon="7.96584297737048"><ele>348.0</ele><time>2026-04-19T12:15:28Z</time></trkpt><trkpt lat="44.55160075855543" lon="7.96603158815455"><ele>348.0</ele><time>2026-04-19T12:15:29Z</time></trkpt><trkpt lat="44.55162430328582" lon="7.966243600522357"><ele>348.0</ele><time>2026-04-19T12:15:30Z</time></trkpt><trkpt lat="44.55164312166526" lon="7.9664533077883215"><ele>348.0</ele><time>2026-04-19T12:15:31Z</time></trkpt><trkpt lat="44.551682633870314" lon="7.966642491479227"><ele>348.0</ele><time>2026-04-19T12:15:32Z</time></trkpt><trkpt lat="44.55176237424161" lon="7.966817581040451"><ele>350.0</ele><time>2026-04-19T12:15:33Z</time></trkpt><trkpt lat="44.55188536087045" lon="7.96697652315039"><ele>352.0</ele><time>2026-04-19T12:15:34Z</time></trkpt><trkpt lat="44.55204179108272" lon="7.967127759913486"><ele>354.0</ele><time>2026-04-19T12:15:35Z</time></trkpt><trkpt lat="44.552211991973365" lon="7.967290399117499"><ele>354.0</ele><time>2026-04-19T12:15:36Z</time></trkpt><trkpt lat="44.55238189683301" lon="7.967474597118146"><ele>354.0</ele><time>2026-04-19T12:15:37Z</time></trkpt><trkpt lat="44.552554526353596" lon="7.967665088918506"><ele>354.0</ele><time>2026-04-19T12:15:38Z</time></trkpt><trkpt lat="44.552715150754395" lon="7.967845110301711"><ele>355.6666666666667</ele><time>2026-04-19T12:15:39Z</time></trkpt><trkpt lat="44.55285917206128" lon="7.968023914822133"><ele>357.33333333333337</ele><time>2026-04-19T12:15:40Z</time></trkpt><trkpt lat="44.552993782844766" lon="7.968192245462478"><ele>359.0</ele><time>2026-04-19T12:15:41Z</time></trkpt><trkpt lat="44.553137187249426" lon="7.968315916619215"><ele>360.6666666666667</ele><time>2026-04-19T12:15:42Z</time></trkpt><trkpt lat="44.55330564257349" lon="7.968394453276711"><ele>362.3333333333333</ele><time>2026-04-19T12:15:43Z</time></trkpt><trkpt lat="44.55348045907623" lon="7.96843474820904"><ele>364.0</ele><time>2026-04-19T12:15:44Z</time></trkpt><trkpt lat="44.55364291797356" lon="7.968490694606235"><ele>362.5</ele><time>2026-04-19T12:15:45Z</time></trkpt><trkpt lat="44.5537636203572" lon="7.968615056624052"><ele>361.0</ele><time>2026-04-19T12:15:46Z</time></trkpt><trkpt lat="44.55386960960316" lon="7.96875425407697"><ele>359.5</ele><time>2026-04-19T12:15:47Z</time></trkpt><trkpt lat="44.55399555872004" lon="7.9688361626296444"><ele>358.0</ele><time>2026-04-19T12:15:48Z</time></trkpt><trkpt lat="44.55415935408971" lon="7.968865286973102"><ele>358.0</ele><time>2026-04-19T12:15:49Z</time></trkpt><trkpt lat="44.55433767509832" lon="7.968845114623346"><ele>358.0</ele><time>2026-04-19T12:15:50Z</time></trkpt><trkpt lat="44.5544919377375" lon="7.968809614408578"><ele>358.0</ele><time>2026-04-19T12:15:51Z</time></trkpt><trkpt lat="44.55462589932658" lon="7.968826325864582"><ele>358.5</ele><time>2026-04-19T12:15:52Z</time></trkpt><trkpt lat="44.55473727743588" lon="7.968913053636157"><ele>359.0</ele><time>2026-04-19T12:15:53Z</time></trkpt><trkpt lat="44.55483524819471" lon="7.969058437825148"><ele>359.5</ele><time>2026-04-19T12:15:54Z</time></trkpt><trkpt lat="44.5549152773096" lon="7.9692354330307085"><ele>360.0</ele><time>2026-04-19T12:15:55Z</time></trkpt><trkpt lat="44.555002109014495" lon="7.969399185180683"><ele>360.0</ele><time>2026-04-19T12:15:56Z</time></trkpt><trkpt lat="44.5551379078277" lon="7.969527561013391"><ele>360.0</ele><time>2026-04-19T12:15:57Z</time></trkpt><trkpt lat="44.555311940615354" lon="7.969632315058035"><ele>360.0</ele><time>2026-04-19T12:15:58Z</time></trkpt><trkpt lat="44.55549036294195" lon="7.969752185488788"><ele>360.0</ele><time>2026-04-19T12:15:59Z</time></trkpt><trkpt lat="44.55567362382318" lon="7.969888292621299"><ele>360.0</ele><time>2026-04-19T12:16:00Z</time></trkpt><trkpt lat="44.555849936522" lon="7.970023951431058"><ele>360.0</ele><time>2026-04-19T12:16:01Z</time></trkpt><trkpt lat="44.55601024217726" lon="7.970139106273174"><ele>361.6666666666667</ele><time>2026-04-19T12:16:02Z</time></trkpt><trkpt lat="44.55615931734152" lon="7.970207596591756"><ele>363.33333333333337</ele><time>2026-04-19T12:16:03Z</time></trkpt><trkpt lat="44.55631504078018" lon="7.970215742169506"><ele>365.0</ele><time>2026-04-19T12:16:04Z</time></trkpt><trkpt lat="44.5564859958353" lon="7.970178018061654"><ele>365.0</ele><time>2026-04-19T12:16:05Z</time></trkpt><trkpt lat="44.55667106451012" lon="7.97015467970284"><ele>365.0</ele><time>2026-04-19T12:16:06Z</time></trkpt><trkpt lat="44.556861303491324" lon="7.9701529748112625"><ele>365.0</ele><time>2026-04-19T12:16:07Z</time></trkpt><trkpt lat="44.55707058641907" lon="7.970146004086056"><ele>365.33333333333337</ele><time>2026-04-19T12:16:08Z</time></trkpt><trkpt lat="44.55727512314918" lon="7.97012736561061"><ele>365.6666666666667</ele><time>2026-04-19T12:16:09Z</time></trkpt><trkpt lat="44.55745697817623" lon="7.970095199072261"><ele>366.0</ele><time>2026-04-19T12:16:10Z</time></trkpt><trkpt lat="44.55762311929486" lon="7.970043313926178"><ele>366.0</ele><time>2026-04-19T12:16:11Z</time></trkpt><trkpt lat="44.5577722556185" lon="7.9699732152675775"><ele>366.0</ele><time>2026-04-19T12:16:12Z</time></trkpt><trkpt lat="44.557910155505745" lon="7.969922055075973"><ele>366.0</ele><time>2026-04-19T12:16:13Z</time></trkpt><trkpt lat="44.55804567700555" lon="7.969930848063684"><ele>366.0</ele><time>2026-04-19T12:16:14Z</time></trkpt><trkpt lat="44.55819020128756" lon="7.969993264452911"><ele>366.3333333333333</ele><time>2026-04-19T12:16:15Z</time></trkpt><trkpt lat="44.55833674461125" lon="7.970120935274464"><ele>366.66666666666663</ele><time>2026-04-19T12:16:16Z</time></trkpt><trkpt lat="44.55848521678894" lon="7.9702791601186345"><ele>367.0</ele><time>2026-04-19T12:16:17Z</time></trkpt><trkpt lat="44.55864437519677" lon="7.970419569865462"><ele>367.25</ele><time>2026-04-19T12:16:18Z</time></trkpt><trkpt lat="44.558792066916624" lon="7.970533174950094"><ele>367.5</ele><time>2026-04-19T12:16:19Z</time></trkpt><trkpt lat="44.55892373148817" lon="7.9706296490684245"><ele>367.75</ele><time>2026-04-19T12:16:20Z</time></trkpt><trkpt lat="44.55904726780215" lon="7.970697039714368"><ele>368.0</ele><time>2026-04-19T12:16:21Z</time></trkpt><trkpt lat="44.55917189990235" lon="7.970699976265539"><ele>368.0</ele><time>2026-04-19T12:16:22Z</time></trkpt><trkpt lat="44.55930102731258" lon="7.970648829222422"><ele>368.0</ele><time>2026-04-19T12:16:23Z</time></trkpt><trkpt lat="44.5594309988377" lon="7.970535818746441"><ele>368.0</ele><time>2026-04-19T12:16:24Z</time></trkpt><trkpt lat="44.559556243554084" lon="7.9703740794927755"><ele>370.6666666666667</ele><time>2026-04-19T12:16:25Z</time></trkpt><trkpt lat="44.559685650349046" lon="7.970201415746358"><ele>373.3333333333333</ele><time>2026-04-19T12:16:26Z</time></trkpt><trkpt lat="44.55983104535475" lon="7.970018764916265"><ele>376.0</ele><time>2026-04-19T12:16:27Z</time></trkpt><trkpt lat="44.559974056687516" lon="7.9698058599707124"><ele>377.0</ele><time>2026-04-19T12:16:28Z</time></trkpt><trkpt lat="44.56011118210474" lon="7.969560310225927"><ele>378.0</ele><time>2026-04-19T12:16:29Z</time></trkpt><trkpt lat="44.56026994722205" lon="7.969313423507582"><ele>385.0</ele><time>2026-04-19T12:16:30Z</time></trkpt><trkpt lat="44.56042974606291" lon="7.969046408692773"><ele>392.0</ele><time>2026-04-19T12:16:31Z</time></trkpt><trkpt lat="44.56059517294455" lon="7.968776879950414"><ele>392.0</ele><time>2026-04-19T12:16:32Z</time></trkpt><trkpt lat="44.56074766167831" lon="7.968528431231554"><ele>392.0</ele><time>2026-04-19T12:16:33Z</time></trkpt><trkpt lat="44.56088938421703" lon="7.968308822130263"><ele>392.0</ele><time>2026-04-19T12:16:34Z</time></trkpt><trkpt lat="44.56105115075215" lon="7.968077109710973"><ele>398.0</ele><time>2026-04-19T12:16:35Z</time></trkpt><trkpt lat="44.56121555708703" lon="7.96782840681881"><ele>404.0</ele><time>2026-04-19T12:16:36Z</time></trkpt><trkpt lat="44.561400889482805" lon="7.9675933674996156"><ele>399.5</ele><time>2026-04-19T12:16:37Z</time></trkpt><trkpt lat="44.56160162482352" lon="7.967363948322411"><ele>395.0</ele><time>2026-04-19T12:16:38Z</time></trkpt><trkpt lat="44.561796315896515" lon="7.967110753298979"><ele>395.0</ele><time>2026-04-19T12:16:39Z</time></trkpt><trkpt lat="44.561991936817" lon="7.966853343452731"><ele>395.0</ele><time>2026-04-19T12:16:40Z</time></trkpt><trkpt lat="44.56217708545023" lon="7.966578242823576"><ele>397.0</ele><time>2026-04-19T12:16:41Z</time></trkpt><trkpt lat="44.56238454409532" lon="7.966336787524314"><ele>399.0</ele><time>2026-04-19T12:16:42Z</time></trkpt><trkpt lat="44.56256697463936" lon="7.966065793647169"><ele>400.0</ele><time>2026-04-19T12:16:43Z</time></trkpt><trkpt lat="44.56275326096806" lon="7.965821969392344"><ele>401.0</ele><time>2026-04-19T12:16:44Z</time></trkpt><trkpt lat="44.56293673131666" lon="7.9656126683016595"><ele>403.3333333333333</ele><time>2026-04-19T12:16:45Z</time></trkpt><trkpt lat="44.563099668114596" lon="7.965400716535728"><ele>405.66666666666663</ele><time>2026-04-19T12:16:46Z</time></trkpt><trkpt lat="44.5632513007536" lon="7.965203469467499"><ele>408.0</ele><time>2026-04-19T12:16:47Z</time></trkpt><trkpt lat="44.56339101569445" lon="7.965021703054369"><ele>408.66666666666663</ele><time>2026-04-19T12:16:48Z</time></trkpt><trkpt lat="44.56351444366964" lon="7.964861102503484"><ele>409.3333333333333</ele><time>2026-04-19T12:16:49Z</time></trkpt><trkpt lat="44.56362604041821" lon="7.964723295068696"><ele>410.0</ele><time>2026-04-19T12:16:50Z</time></trkpt><trkpt lat="44.56375614813223" lon="7.9646566084365436"><ele>410.75</ele><time>2026-04-19T12:16:51Z</time></trkpt><trkpt lat="44.5638995090965" lon="7.964636006934557"><ele>411.5</ele><time>2026-04-19T12:16:52Z</time></trkpt><trkpt lat="44.5640313018587" lon="7.964667502197941"><ele>412.25</ele><time>2026-04-19T12:16:53Z</time></trkpt><trkpt lat="44.56415330380854" lon="7.964746207767733"><ele>413.0</ele><time>2026-04-19T12:16:54Z</time></trkpt><trkpt lat="44.56427255767185" lon="7.9648751991382625"><ele>414.3333333333333</ele><time>2026-04-19T12:16:55Z</time></trkpt><trkpt lat="44.56438004361994" lon="7.965051778191608"><ele>415.66666666666663</ele><time>2026-04-19T12:16:56Z</time></trkpt><trkpt lat="44.564489713411724" lon="7.965244183553314"><ele>417.0</ele><time>2026-04-19T12:16:57Z</time></trkpt><trkpt lat="44.56461449130839" lon="7.96541850446488"><ele>415.5</ele><time>2026-04-19T12:16:58Z</time></trkpt><trkpt lat="44.56474631074925" lon="7.965559470278598"><ele>414.0</ele><time>2026-04-19T12:16:59Z</time></trkpt><trkpt lat="44.56485992348217" lon="7.965683724198031"><ele>412.5</ele><time>2026-04-19T12:17:00Z</time></trkpt><trkpt lat="44.56494903930916" lon="7.965813418513898"><ele>411.0</ele><time>2026-04-19T12:17:01Z</time></trkpt><trkpt lat="44.565009597685425" lon="7.965959031064442"><ele>411.0</ele><time>2026-04-19T12:17:02Z</time></trkpt><trkpt lat="44.56503752830274" lon="7.966102112430029"><ele>411.0</ele><time>2026-04-19T12:17:03Z</time></trkpt><trkpt lat="44.56504411608053" lon="7.966243524179732"><ele>411.0</ele><time>2026-04-19T12:17:04Z</time></trkpt><trkpt lat="44.5650423095686" lon="7.966386108138421"><ele>411.0</ele><time>2026-04-19T12:17:05Z</time></trkpt><trkpt lat="44.56504156504818" lon="7.966541374448633"><ele>411.0</ele><time>2026-04-19T12:17:06Z</time></trkpt><trkpt lat="44.565040517535174" lon="7.966720084353291"><ele>411.75</ele><time>2026-04-19T12:17:07Z</time></trkpt><trkpt lat="44.56503476528212" lon="7.966907883668355"><ele>412.5</ele><time>2026-04-19T12:17:08Z</time></trkpt><trkpt lat="44.56503246741707" lon="7.967083239107817"><ele>413.25</ele><time>2026-04-19T12:17:09Z</time></trkpt><trkpt lat="44.565033548383525" lon="7.967242662269858"><ele>414.0</ele><time>2026-04-19T12:17:10Z</time></trkpt><trkpt lat="44.565041589369805" lon="7.967406261118073"><ele>416.75</ele><time>2026-04-19T12:17:11Z</time></trkpt><trkpt lat="44.56506690575961" lon="7.967576086388336"><ele>419.5</ele><time>2026-04-19T12:17:12Z</time></trkpt><trkpt lat="44.565126436605475" lon="7.967741663785726"><ele>422.25</ele><time>2026-04-19T12:17:13Z</time></trkpt><trkpt lat="44.56521765178398" lon="7.967899587945087"><ele>425.0</ele><time>2026-04-19T12:17:14Z</time></trkpt><trkpt lat="44.5653481040912" lon="7.968035575320207"><ele>425.0</ele><time>2026-04-19T12:17:15Z</time></trkpt><trkpt lat="44.56549292050281" lon="7.968153810293669"><ele>425.0</ele><time>2026-04-19T12:17:16Z</time></trkpt><trkpt lat="44.56565698673409" lon="7.96825789435617"><ele>425.0</ele><time>2026-04-19T12:17:17Z</time></trkpt><trkpt lat="44.56582607581245" lon="7.968361413009084"><ele>425.0</ele><time>2026-04-19T12:17:18Z</time></trkpt><trkpt lat="44.56599204012238" lon="7.968450114308145"><ele>425.0</ele><time>2026-04-19T12:17:19Z</time></trkpt><trkpt lat="44.566154246324935" lon="7.96852002796069"><ele>425.0</ele><time>2026-04-19T12:17:20Z</time></trkpt><trkpt lat="44.566313446703624" lon="7.968557888826631"><ele>423.66666666666663</ele><time>2026-04-19T12:17:21Z</time></trkpt><trkpt lat="44.56647631470231" lon="7.968548236617378"><ele>422.33333333333337</ele><time>2026-04-19T12:17:22Z</time></trkpt><trkpt lat="44.56664793374343" lon="7.968506025569512"><ele>421.0</ele><time>2026-04-19T12:17:23Z</time></trkpt><trkpt lat="44.56682399013606" lon="7.968441891282131"><ele>421.0</ele><time>2026-04-19T12:17:24Z</time></trkpt><trkpt lat="44.56700512124718" lon="7.968390589347624"><ele>421.0</ele><time>2026-04-19T12:17:25Z</time></trkpt><trkpt lat="44.5671767890584" lon="7.968303662578102"><ele>421.0</ele><time>2026-04-19T12:17:26Z</time></trkpt><trkpt lat="44.567337089437956" lon="7.968210789709115"><ele>418.0</ele><time>2026-04-19T12:17:27Z</time></trkpt><trkpt lat="44.56748692933902" lon="7.9681178886953665"><ele>415.0</ele><time>2026-04-19T12:17:28Z</time></trkpt><trkpt lat="44.567623349953664" lon="7.968014113635152"><ele>412.0</ele><time>2026-04-19T12:17:29Z</time></trkpt><trkpt lat="44.56775222283181" lon="7.967920250239742"><ele>413.25</ele><time>2026-04-19T12:17:30Z</time></trkpt><trkpt lat="44.56788237494274" lon="7.967836969596436"><ele>414.5</ele><time>2026-04-19T12:17:31Z</time></trkpt><trkpt lat="44.56801907498893" lon="7.967809399069912"><ele>415.75</ele><time>2026-04-19T12:17:32Z</time></trkpt><trkpt lat="44.568151049213135" lon="7.9678029425419865"><ele>417.0</ele><time>2026-04-19T12:17:33Z</time></trkpt><trkpt lat="44.56827985447985" lon="7.967834909270023"><ele>417.0</ele><time>2026-04-19T12:17:34Z</time></trkpt><trkpt lat="44.56841646846183" lon="7.967864063013775"><ele>417.0</ele><time>2026-04-19T12:17:35Z</time></trkpt><trkpt lat="44.568568283768506" lon="7.967909735105845"><ele>417.0</ele><time>2026-04-19T12:17:36Z</time></trkpt><trkpt lat="44.56873294201674" lon="7.967962615173681"><ele>414.33333333333337</ele><time>2026-04-19T12:17:37Z</time></trkpt><trkpt lat="44.56890578418014" lon="7.968021005043772"><ele>411.6666666666667</ele><time>2026-04-19T12:17:38Z</time></trkpt><trkpt lat="44.56908405978608" lon="7.968067007208629"><ele>409.0</ele><time>2026-04-19T12:17:39Z</time></trkpt><trkpt lat="44.56926297665502" lon="7.968129129808786"><ele>409.0</ele><time>2026-04-19T12:17:40Z</time></trkpt><trkpt lat="44.569437080409855" lon="7.968192747419108"><ele>409.0</ele><time>2026-04-19T12:17:41Z</time></trkpt><trkpt lat="44.56960410943626" lon="7.968245316646154"><ele>409.0</ele><time>2026-04-19T12:17:42Z</time></trkpt><trkpt lat="44.56978091099214" lon="7.968261775129294"><ele>409.0</ele><time>2026-04-19T12:17:43Z</time></trkpt><trkpt lat="44.569968507186864" lon="7.9682764272327296"><ele>409.0</ele><time>2026-04-19T12:17:44Z</time></trkpt><trkpt lat="44.570159976307025" lon="7.968204811539712"><ele>409.0</ele><time>2026-04-19T12:17:45Z</time></trkpt><trkpt lat="44.570358378928766" lon="7.968208506264909"><ele>412.0</ele><time>2026-04-19T12:17:46Z</time></trkpt><trkpt lat="44.57054695305568" lon="7.968235990180324"><ele>415.0</ele><time>2026-04-19T12:17:47Z</time></trkpt><trkpt lat="44.570723251130914" lon="7.968252036046201"><ele>418.0</ele><time>2026-04-19T12:17:48Z</time></trkpt><trkpt lat="44.57089575213603" lon="7.968236428115396"><ele>418.0</ele><time>2026-04-19T12:17:49Z</time></trkpt><trkpt lat="44.571071724876575" lon="7.968177480935642"><ele>418.0</ele><time>2026-04-19T12:17:50Z</time></trkpt><trkpt lat="44.57122685263954" lon="7.968088640085384"><ele>418.0</ele><time>2026-04-19T12:17:51Z</time></trkpt><trkpt lat="44.571364635648024" lon="7.968030195376043"><ele>418.0</ele><time>2026-04-19T12:17:52Z</time></trkpt><trkpt lat="44.571493284780246" lon="7.968019086170971"><ele>418.0</ele><time>2026-04-19T12:17:53Z</time></trkpt><trkpt lat="44.57163385725869" lon="7.968063584709816"><ele>418.0</ele><time>2026-04-19T12:17:54Z</time></trkpt><trkpt lat="44.571778525887716" lon="7.968156276874106"><ele>418.0</ele><time>2026-04-19T12:17:55Z</time></trkpt><trkpt lat="44.57193264311301" lon="7.968265543786756"><ele>417.0</ele><time>2026-04-19T12:17:56Z</time></trkpt><trkpt lat="44.572099354845825" lon="7.9683686607944635"><ele>416.0</ele><time>2026-04-19T12:17:57Z</time></trkpt><trkpt lat="44.57226877617332" lon="7.968468360183629"><ele>415.0</ele><time>2026-04-19T12:17:58Z</time></trkpt><trkpt lat="44.572449675155504" lon="7.968570091746711"><ele>415.0</ele><time>2026-04-19T12:17:59Z</time></trkpt><trkpt lat="44.57261497727914" lon="7.968665053387824"><ele>415.0</ele><time>2026-04-19T12:18:00Z</time></trkpt><trkpt lat="44.57276793521651" lon="7.9687611610836315"><ele>415.0</ele><time>2026-04-19T12:18:01Z</time></trkpt><trkpt lat="44.572905932983815" lon="7.968869750686992"><ele>413.33333333333337</ele><time>2026-04-19T12:18:02Z</time></trkpt><trkpt lat="44.57302557980109" lon="7.969012033108532"><ele>411.66666666666663</ele><time>2026-04-19T12:18:03Z</time></trkpt><trkpt lat="44.57312166483796" lon="7.969188794057235"><ele>410.0</ele><time>2026-04-19T12:18:04Z</time></trkpt><trkpt lat="44.57321140163922" lon="7.969370179366441"><ele>410.0</ele><time>2026-04-19T12:18:05Z</time></trkpt><trkpt lat="44.57330930714578" lon="7.969531564940717"><ele>410.0</ele><time>2026-04-19T12:18:06Z</time></trkpt><trkpt lat="44.573435263545214" lon="7.969653751441732"><ele>410.0</ele><time>2026-04-19T12:18:07Z</time></trkpt><trkpt lat="44.573593666074814" lon="7.969740796685312"><ele>414.66666666666663</ele><time>2026-04-19T12:18:08Z</time></trkpt><trkpt lat="44.573771770047955" lon="7.9698127512415065"><ele>419.33333333333337</ele><time>2026-04-19T12:18:09Z</time></trkpt><trkpt lat="44.573963600221624" lon="7.969888812867167"><ele>424.0</ele><time>2026-04-19T12:18:10Z</time></trkpt><trkpt lat="44.57416741807776" lon="7.9699608427939195"><ele>424.0</ele><time>2026-04-19T12:18:11Z</time></trkpt><trkpt lat="44.57438444797244" lon="7.970018840962829"><ele>424.0</ele><time>2026-04-19T12:18:12Z</time></trkpt><trkpt lat="44.57459270098526" lon="7.970060368377469"><ele>424.0</ele><time>2026-04-19T12:18:13Z</time></trkpt><trkpt lat="44.57479275519894" lon="7.970125537700435"><ele>424.0</ele><time>2026-04-19T12:18:14Z</time></trkpt><trkpt lat="44.57499579087727" lon="7.970213132834584"><ele>424.0</ele><time>2026-04-19T12:18:15Z</time></trkpt><trkpt lat="44.57517889836252" lon="7.970293110020552"><ele>424.0</ele><time>2026-04-19T12:18:16Z</time></trkpt><trkpt lat="44.57535447081647" lon="7.9703679218547565"><ele>424.0</ele><time>2026-04-19T12:18:17Z</time></trkpt><trkpt lat="44.57552629256368" lon="7.970443122392214"><ele>424.0</ele><time>2026-04-19T12:18:18Z</time></trkpt><trkpt lat="44.57568517011232" lon="7.970510195553775"><ele>424.0</ele><time>2026-04-19T12:18:19Z</time></trkpt><trkpt lat="44.57583457032579" lon="7.970548310322932"><ele>424.0</ele><time>2026-04-19T12:18:20Z</time></trkpt><trkpt lat="44.57598319940536" lon="7.970538583739344"><ele>424.0</ele><time>2026-04-19T12:18:21Z</time></trkpt><trkpt lat="44.57614619309688" lon="7.970499967314099"><ele>424.0</ele><time>2026-04-19T12:18:22Z</time></trkpt><trkpt lat="44.57630430413877" lon="7.970388629663585"><ele>424.33333333333337</ele><time>2026-04-19T12:18:23Z</time></trkpt><trkpt lat="44.57646982388931" lon="7.970273096609148"><ele>424.66666666666663</ele><time>2026-04-19T12:18:24Z</time></trkpt><trkpt lat="44.57665294325455" lon="7.970189221875445"><ele>425.0</ele><time>2026-04-19T12:18:25Z</time></trkpt><trkpt lat="44.57683335243567" lon="7.97011405971674"><ele>425.0</ele><time>2026-04-19T12:18:26Z</time></trkpt><trkpt lat="44.57699915548485" lon="7.970109093517017"><ele>425.0</ele><time>2026-04-19T12:18:27Z</time></trkpt><trkpt lat="44.57715423972137" lon="7.970097989664803"><ele>425.0</ele><time>2026-04-19T12:18:28Z</time></trkpt><trkpt lat="44.57730293831834" lon="7.970114568222902"><ele>426.5</ele><time>2026-04-19T12:18:29Z</time></trkpt><trkpt lat="44.5774539976703" lon="7.970205447926493"><ele>428.0</ele><time>2026-04-19T12:18:30Z</time></trkpt><trkpt lat="44.577577540484036" lon="7.970313426925924"><ele>429.5</ele><time>2026-04-19T12:18:31Z</time></trkpt><trkpt lat="44.577692967933324" lon="7.97039702079017"><ele>431.0</ele><time>2026-04-19T12:18:32Z</time></trkpt><trkpt lat="44.57780873940041" lon="7.970442106830215"><ele>430.5</ele><time>2026-04-19T12:18:33Z</time></trkpt><trkpt lat="44.57792536503976" lon="7.970410539005196"><ele>430.0</ele><time>2026-04-19T12:18:34Z</time></trkpt><trkpt lat="44.57804163965666" lon="7.970343795952422"><ele>429.5</ele><time>2026-04-19T12:18:35Z</time></trkpt><trkpt lat="44.5781215876346" lon="7.970182254602098"><ele>429.0</ele><time>2026-04-19T12:18:36Z</time></trkpt><trkpt lat="44.57820868251986" lon="7.9700240457679286"><ele>434.0</ele><time>2026-04-19T12:18:37Z</time></trkpt><trkpt lat="44.578292426089554" lon="7.969842559038751"><ele>439.0</ele><time>2026-04-19T12:18:38Z</time></trkpt><trkpt lat="44.57837971523193" lon="7.969651305546084"><ele>444.0</ele><time>2026-04-19T12:18:39Z</time></trkpt><trkpt lat="44.57846753668359" lon="7.969458885701128"><ele>444.0</ele><time>2026-04-19T12:18:40Z</time></trkpt><trkpt lat="44.57854481703725" lon="7.969289561730262"><ele>444.0</ele><time>2026-04-19T12:18:41Z</time></trkpt><trkpt lat="44.578616076870134" lon="7.969134982796816"><ele>444.0</ele><time>2026-04-19T12:18:42Z</time></trkpt><trkpt lat="44.578688956811135" lon="7.969004698463431"><ele>444.0</ele><time>2026-04-19T12:18:43Z</time></trkpt><trkpt lat="44.57876736302762" lon="7.968902347128805"><ele>444.79999999999995</ele><time>2026-04-19T12:18:44Z</time></trkpt><trkpt lat="44.57885023940564" lon="7.968814472613912"><ele>445.59999999999997</ele><time>2026-04-19T12:18:45Z</time></trkpt><trkpt lat="44.578936388336665" lon="7.968733044466973"><ele>446.4</ele><time>2026-04-19T12:18:46Z</time></trkpt><trkpt lat="44.57904057287998" lon="7.968685494970528"><ele>447.2</ele><time>2026-04-19T12:18:47Z</time></trkpt><trkpt lat="44.57915036023438" lon="7.96865466704475"><ele>448.0</ele><time>2026-04-19T12:18:48Z</time></trkpt><trkpt lat="44.57926082672502" lon="7.968642238344589"><ele>448.0</ele><time>2026-04-19T12:18:49Z</time></trkpt><trkpt lat="44.57937596027475" lon="7.968653851357526"><ele>448.0</ele><time>2026-04-19T12:18:50Z</time></trkpt><trkpt lat="44.579493308084274" lon="7.968675275706406"><ele>448.0</ele><time>2026-04-19T12:18:51Z</time></trkpt><trkpt lat="44.57961112881834" lon="7.9687059320037035"><ele>448.0</ele><time>2026-04-19T12:18:52Z</time></trkpt><trkpt lat="44.579730585256236" lon="7.968739922614903"><ele>449.75</ele><time>2026-04-19T12:18:53Z</time></trkpt><trkpt lat="44.579856696134094" lon="7.968770371071804"><ele>451.5</ele><time>2026-04-19T12:18:54Z</time></trkpt><trkpt lat="44.579984487854105" lon="7.968802601695009"><ele>453.25</ele><time>2026-04-19T12:18:55Z</time></trkpt><trkpt lat="44.58010551290974" lon="7.968834583667726"><ele>455.0</ele><time>2026-04-19T12:18:56Z</time></trkpt><trkpt lat="44.58022374353753" lon="7.968859337576506"><ele>455.0</ele><time>2026-04-19T12:18:57Z</time></trkpt><trkpt lat="44.5803379243213" lon="7.968868197189923"><ele>455.0</ele><time>2026-04-19T12:18:58Z</time></trkpt><trkpt lat="44.580448143234136" lon="7.96890245207971"><ele>455.0</ele><time>2026-04-19T12:18:59Z</time></trkpt><trkpt lat="44.58056429193616" lon="7.968839917970376"><ele>455.0</ele><time>2026-04-19T12:19:00Z</time></trkpt><trkpt lat="44.58067771457389" lon="7.968806199941713"><ele>456.25</ele><time>2026-04-19T12:19:01Z</time></trkpt><trkpt lat="44.58079182503965" lon="7.968767068285064"><ele>457.5</ele><time>2026-04-19T12:19:02Z</time></trkpt><trkpt lat="44.58090588853522" lon="7.968721764619476"><ele>458.75</ele><time>2026-04-19T12:19:03Z</time></trkpt><trkpt lat="44.58102104925808" lon="7.9686721717004625"><ele>460.0</ele><time>2026-04-19T12:19:04Z</time></trkpt><trkpt lat="44.581136234365914" lon="7.968622797293029"><ele>461.2</ele><time>2026-04-19T12:19:05Z</time></trkpt><trkpt lat="44.58125019866898" lon="7.968576370905035"><ele>462.4</ele><time>2026-04-19T12:19:06Z</time></trkpt><trkpt lat="44.58136173589188" lon="7.9685563901130765"><ele>463.6</ele><time>2026-04-19T12:19:07Z</time></trkpt><trkpt lat="44.581462714609785" lon="7.968517157631989"><ele>464.8</ele><time>2026-04-19T12:19:08Z</time></trkpt><trkpt lat="44.58155914270283" lon="7.968479693191176"><ele>466.0</ele><time>2026-04-19T12:19:09Z</time></trkpt><trkpt lat="44.58165178747208" lon="7.968443698628844"><ele>466.00000000000006</ele><time>2026-04-19T12:19:10Z</time></trkpt><trkpt lat="44.581737004548124" lon="7.9684105899201505"><ele>466.0</ele><time>2026-04-19T12:19:11Z</time></trkpt><trkpt lat="44.58181300467291" lon="7.968357536184031"><ele>466.0</ele><time>2026-04-19T12:19:12Z</time></trkpt><trkpt lat="44.58188543058531" lon="7.968329099727425"><ele>466.0</ele><time>2026-04-19T12:19:13Z</time></trkpt><trkpt lat="44.58195517734542" lon="7.968325824947249"><ele>466.00000000000006</ele><time>2026-04-19T12:19:14Z</time></trkpt><trkpt lat="44.58205969999983" lon="7.968284755109728"><ele>466.0</ele><time>2026-04-19T12:19:16Z</time></trkpt><trkpt lat="44.5821412049908" lon="7.968263734566368"><ele>466.8</ele><time>2026-04-19T12:19:18Z</time></trkpt><trkpt lat="44.58220075256772" lon="7.968327705756425"><ele>467.6</ele><time>2026-04-19T12:19:20Z</time></trkpt><trkpt lat="44.58223281717053" lon="7.968434219883705"><ele>468.4</ele><time>2026-04-19T12:19:22Z</time></trkpt><trkpt lat="44.58226160263469" lon="7.96857169997137"><ele>469.2</ele><time>2026-04-19T12:19:24Z</time></trkpt><trkpt lat="44.5822936542719" lon="7.968718325635065"><ele>470.0</ele><time>2026-04-19T12:19:26Z</time></trkpt><trkpt lat="44.58233062745792" lon="7.968835625017772"><ele>470.0</ele><time>2026-04-19T12:19:28Z</time></trkpt><trkpt lat="44.582358023746565" lon="7.968933162091547"><ele>470.0</ele><time>2026-04-19T12:19:30Z</time></trkpt><trkpt lat="44.58239143853388" lon="7.969020665519532"><ele>470.0</ele><time>2026-04-19T12:19:33Z</time></trkpt><trkpt lat="44.58251830220343" lon="7.96896684859269"><ele>470.0</ele><time>2026-04-19T12:19:37Z</time></trkpt><trkpt lat="44.58259055013884" lon="7.968886850001037"><ele>470.0</ele><time>2026-04-19T12:19:39Z</time></trkpt><trkpt lat="44.582672222613034" lon="7.968800143914684"><ele>470.0</ele><time>2026-04-19T12:19:41Z</time></trkpt><trkpt lat="44.582755055114546" lon="7.968717052140153"><ele>470.0</ele><time>2026-04-19T12:19:43Z</time></trkpt><trkpt lat="44.58282221730181" lon="7.968629452093895"><ele>470.0</ele><time>2026-04-19T12:19:45Z</time></trkpt><trkpt lat="44.58286216458577" lon="7.9685048829171095"><ele>470.0</ele><time>2026-04-19T12:19:47Z</time></trkpt><trkpt lat="44.582872345454284" lon="7.96836396208732"><ele>470.0</ele><time>2026-04-19T12:19:49Z</time></trkpt><trkpt lat="44.58288520046281" lon="7.968235096793242"><ele>471.66666666666663</ele><time>2026-04-19T12:19:51Z</time></trkpt><trkpt lat="44.58289989957678" lon="7.968108668836979"><ele>473.3333333333333</ele><time>2026-04-19T12:19:53Z</time></trkpt><trkpt lat="44.582911542141474" lon="7.967996579393131"><ele>475.0</ele><time>2026-04-19T12:19:55Z</time></trkpt><trkpt lat="44.58293789414444" lon="7.967906935786279"><ele>476.66666666666663</ele><time>2026-04-19T12:19:57Z</time></trkpt><trkpt lat="44.58304063795145" lon="7.967843951324722"><ele>478.3333333333333</ele><time>2026-04-19T12:20:00Z</time></trkpt><trkpt lat="44.583098870556256" lon="7.967762316382283"><ele>480.0</ele><time>2026-04-19T12:20:02Z</time></trkpt><trkpt lat="44.5831700978798" lon="7.96769063694733"><ele>480.0</ele><time>2026-04-19T12:20:04Z</time></trkpt><trkpt lat="44.583238696485374" lon="7.967615535839308"><ele>480.0</ele><time>2026-04-19T12:20:06Z</time></trkpt><trkpt lat="44.58329603869765" lon="7.9675464575666854"><ele>480.0</ele><time>2026-04-19T12:20:08Z</time></trkpt><trkpt lat="44.58335364620031" lon="7.9674753138799055"><ele>480.0</ele><time>2026-04-19T12:20:10Z</time></trkpt><trkpt lat="44.58341362183493" lon="7.967400707774054"><ele>480.0</ele><time>2026-04-19T12:20:13Z</time></trkpt><trkpt lat="44.583347032449055" lon="7.967505407962551"><ele>480.0</ele><time>2026-04-19T12:20:54Z</time></trkpt><trkpt lat="44.583280437354915" lon="7.967584631211438"><ele>480.0</ele><time>2026-04-19T12:20:56Z</time></trkpt><trkpt lat="44.58320958711346" lon="7.967666989282031"><ele>480.0</ele><time>2026-04-19T12:20:58Z</time></trkpt><trkpt lat="44.58313331156905" lon="7.967752633612623"><ele>480.0</ele><time>2026-04-19T12:21:00Z</time></trkpt><trkpt lat="44.58305907344667" lon="7.967828774925929"><ele>480.0</ele><time>2026-04-19T12:21:02Z</time></trkpt><trkpt lat="44.582979640033294" lon="7.967897253282607"><ele>480.0</ele><time>2026-04-19T12:21:04Z</time></trkpt><trkpt lat="44.58288874948649" lon="7.967968399679352"><ele>478.2</ele><time>2026-04-19T12:21:06Z</time></trkpt><trkpt lat="44.58278308515988" lon="7.968040310802494"><ele>476.4</ele><time>2026-04-19T12:21:08Z</time></trkpt><trkpt lat="44.58267913390557" lon="7.9681155564787245"><ele>474.6</ele><time>2026-04-19T12:21:10Z</time></trkpt><trkpt lat="44.582589669886055" lon="7.968180315492836"><ele>472.8</ele><time>2026-04-19T12:21:12Z</time></trkpt><trkpt lat="44.5825132039334" lon="7.968235665769833"><ele>471.0</ele><time>2026-04-19T12:21:14Z</time></trkpt><trkpt lat="44.58244300275527" lon="7.9682864812722425"><ele>471.0</ele><time>2026-04-19T12:21:16Z</time></trkpt><trkpt lat="44.582362957169366" lon="7.968333415482386"><ele>471.0</ele><time>2026-04-19T12:21:18Z</time></trkpt><trkpt lat="44.582824902225966" lon="7.968187954234032"><ele>471.0</ele><time>2026-04-19T12:21:20Z</time></trkpt><trkpt lat="44.58222915917395" lon="7.968250607468841"><ele>470.8333333333333</ele><time>2026-04-19T12:21:21Z</time></trkpt><trkpt lat="44.582235683773156" lon="7.9684230257941815"><ele>470.66666666666663</ele><time>2026-04-19T12:21:23Z</time></trkpt><trkpt lat="44.58225215890006" lon="7.9685144736390265"><ele>470.5</ele><time>2026-04-19T12:21:24Z</time></trkpt><trkpt lat="44.58227157423408" lon="7.968610526207143"><ele>470.3333333333333</ele><time>2026-04-19T12:21:25Z</time></trkpt><trkpt lat="44.58229213293085" lon="7.968695502916007"><ele>470.16666666666663</ele><time>2026-04-19T12:21:26Z</time></trkpt><trkpt lat="44.582331348624784" lon="7.968828814053707"><ele>470.0</ele><time>2026-04-19T12:21:28Z</time></trkpt><trkpt lat="44.58236333954485" lon="7.968917405675867"><ele>470.0</ele><time>2026-04-19T12:21:30Z</time></trkpt><trkpt lat="44.58238788286" lon="7.9690152051292245"><ele>470.0</ele><time>2026-04-19T12:21:33Z</time></trkpt><trkpt lat="44.582360566610454" lon="7.969137244500041"><ele>470.0</ele><time>2026-04-19T12:21:36Z</time></trkpt><trkpt lat="44.58227359633724" lon="7.969249415822189"><ele>470.0</ele><time>2026-04-19T12:21:38Z</time></trkpt><trkpt lat="44.582203383548915" lon="7.9693045495904125"><ele>470.0</ele><time>2026-04-19T12:21:39Z</time></trkpt><trkpt lat="44.58214239125068" lon="7.9694039605442955"><ele>468.75</ele><time>2026-04-19T12:21:40Z</time></trkpt><trkpt lat="44.58205888876034" lon="7.969497429940014"><ele>467.5</ele><time>2026-04-19T12:21:41Z</time></trkpt><trkpt lat="44.58196547630166" lon="7.96960255462029"><ele>466.25</ele><time>2026-04-19T12:21:42Z</time></trkpt><trkpt lat="44.58186325600467" lon="7.969722595953889"><ele>465.0</ele><time>2026-04-19T12:21:43Z</time></trkpt><trkpt lat="44.58174402352059" lon="7.969830060742058"><ele>465.0</ele><time>2026-04-19T12:21:44Z</time></trkpt><trkpt lat="44.5816253251872" lon="7.96996706731813"><ele>465.0</ele><time>2026-04-19T12:21:45Z</time></trkpt><trkpt lat="44.581513147848796" lon="7.97009654751836"><ele>465.0</ele><time>2026-04-19T12:21:46Z</time></trkpt><trkpt lat="44.581402311491836" lon="7.9702241282335535"><ele>465.0</ele><time>2026-04-19T12:21:47Z</time></trkpt><trkpt lat="44.58129573980686" lon="7.9703468127261985"><ele>465.25</ele><time>2026-04-19T12:21:48Z</time></trkpt><trkpt lat="44.58118603268471" lon="7.970473106894037"><ele>465.5</ele><time>2026-04-19T12:21:49Z</time></trkpt><trkpt lat="44.58107894520253" lon="7.970621263041721"><ele>465.75</ele><time>2026-04-19T12:21:50Z</time></trkpt><trkpt lat="44.58095852432276" lon="7.970755631280261"><ele>466.0</ele><time>2026-04-19T12:21:51Z</time></trkpt><trkpt lat="44.58084189005991" lon="7.97088983747419"><ele>466.0</ele><time>2026-04-19T12:21:52Z</time></trkpt><trkpt lat="44.58072979810177" lon="7.9710188920152945"><ele>466.0</ele><time>2026-04-19T12:21:53Z</time></trkpt><trkpt lat="44.58062157526664" lon="7.971140664597505"><ele>466.0</ele><time>2026-04-19T12:21:53.999Z</time></trkpt><trkpt lat="44.58051641878116" lon="7.971268451570508"><ele>466.0</ele><time>2026-04-19T12:21:54.999Z</time></trkpt><trkpt lat="44.58042084801273" lon="7.971394616439585"><ele>460.5</ele><time>2026-04-19T12:21:55.999Z</time></trkpt><trkpt lat="44.58033030180959" lon="7.971533063377937"><ele>455.0</ele><time>2026-04-19T12:21:56.999Z</time></trkpt><trkpt lat="44.58024533824272" lon="7.971667857851847"><ele>449.5</ele><time>2026-04-19T12:21:57.999Z</time></trkpt><trkpt lat="44.58017576023668" lon="7.971798863054789"><ele>444.0</ele><time>2026-04-19T12:21:58.999Z</time></trkpt><trkpt lat="44.580129548879256" lon="7.971951798213971"><ele>444.0</ele><time>2026-04-19T12:21:59.999Z</time></trkpt><trkpt lat="44.5801192020322" lon="7.972106146930444"><ele>444.0</ele><time>2026-04-19T12:22:00.999Z</time></trkpt><trkpt lat="44.580139773422594" lon="7.9722638081330555"><ele>444.0</ele><time>2026-04-19T12:22:01.999Z</time></trkpt><trkpt lat="44.58017510643086" lon="7.972431905582639"><ele>444.0</ele><time>2026-04-19T12:22:02.999Z</time></trkpt><trkpt lat="44.58021656202242" lon="7.972605589443773"><ele>441.75</ele><time>2026-04-19T12:22:03.999Z</time></trkpt><trkpt lat="44.580260247159764" lon="7.972782478157861"><ele>439.5</ele><time>2026-04-19T12:22:04.999Z</time></trkpt><trkpt lat="44.58030702123474" lon="7.9729639953707325"><ele>437.25</ele><time>2026-04-19T12:22:05.999Z</time></trkpt><trkpt lat="44.580360943952606" lon="7.973138531945159"><ele>435.0</ele><time>2026-04-19T12:22:06.999Z</time></trkpt><trkpt lat="44.580414038210975" lon="7.973310539382028"><ele>437.5</ele><time>2026-04-19T12:22:08Z</time></trkpt><trkpt lat="44.58046549952115" lon="7.973471514072051"><ele>440.0</ele><time>2026-04-19T12:22:09Z</time></trkpt><trkpt lat="44.580517859082825" lon="7.973623481171322"><ele>442.5</ele><time>2026-04-19T12:22:10Z</time></trkpt><trkpt lat="44.58057391751795" lon="7.973766562492663"><ele>445.0</ele><time>2026-04-19T12:22:11Z</time></trkpt><trkpt lat="44.580630820170306" lon="7.9739004678513545"><ele>445.0</ele><time>2026-04-19T12:22:12Z</time></trkpt><trkpt lat="44.580689574171146" lon="7.974027182638772"><ele>445.0</ele><time>2026-04-19T12:22:13Z</time></trkpt><trkpt lat="44.58075959400808" lon="7.9741531971679525"><ele>445.0</ele><time>2026-04-19T12:22:14Z</time></trkpt><trkpt lat="44.580829847438665" lon="7.974298253360902"><ele>445.0</ele><time>2026-04-19T12:22:15Z</time></trkpt><trkpt lat="44.580897445368024" lon="7.974457605375824"><ele>442.5</ele><time>2026-04-19T12:22:16Z</time></trkpt><trkpt lat="44.580971151598305" lon="7.974628779488674"><ele>440.0</ele><time>2026-04-19T12:22:17Z</time></trkpt><trkpt lat="44.5810368615091" lon="7.974792902081064"><ele>437.5</ele><time>2026-04-19T12:22:18Z</time></trkpt><trkpt lat="44.581097986023686" lon="7.974950974057927"><ele>435.0</ele><time>2026-04-19T12:22:19Z</time></trkpt><trkpt lat="44.58115725439867" lon="7.9751035944881705"><ele>435.25</ele><time>2026-04-19T12:22:20Z</time></trkpt><trkpt lat="44.58121367217528" lon="7.975250557361063"><ele>435.5</ele><time>2026-04-19T12:22:21Z</time></trkpt><trkpt lat="44.581268785642244" lon="7.975391250598599"><ele>435.75</ele><time>2026-04-19T12:22:22Z</time></trkpt><trkpt lat="44.58132820933699" lon="7.975522976449136"><ele>436.0</ele><time>2026-04-19T12:22:23Z</time></trkpt><trkpt lat="44.58139938110992" lon="7.975641472932532"><ele>436.0</ele><time>2026-04-19T12:22:24Z</time></trkpt><trkpt lat="44.58147736594535" lon="7.975758413033397"><ele>436.0</ele><time>2026-04-19T12:22:25Z</time></trkpt><trkpt lat="44.58156844723735" lon="7.975865979652405"><ele>436.0</ele><time>2026-04-19T12:22:26Z</time></trkpt><trkpt lat="44.58167291655362" lon="7.9759586094445885"><ele>436.0</ele><time>2026-04-19T12:22:27Z</time></trkpt><trkpt lat="44.58178864020729" lon="7.976042185075997"><ele>435.5</ele><time>2026-04-19T12:22:28Z</time></trkpt><trkpt lat="44.581896345657334" lon="7.976141611369793"><ele>435.0</ele><time>2026-04-19T12:22:29Z</time></trkpt><trkpt lat="44.58200653290604" lon="7.976208056535599"><ele>434.5</ele><time>2026-04-19T12:22:30Z</time></trkpt><trkpt lat="44.582094002237945" lon="7.976311114638653"><ele>434.0</ele><time>2026-04-19T12:22:31Z</time></trkpt><trkpt lat="44.582158117487445" lon="7.976437544951513"><ele>434.0</ele><time>2026-04-19T12:22:32Z</time></trkpt><trkpt lat="44.58219204726921" lon="7.976584946404537"><ele>434.0</ele><time>2026-04-19T12:22:33Z</time></trkpt><trkpt lat="44.58218762072493" lon="7.976737603340541"><ele>434.0</ele><time>2026-04-19T12:22:34Z</time></trkpt><trkpt lat="44.58215121528612" lon="7.976878264312636"><ele>434.0</ele><time>2026-04-19T12:22:35Z</time></trkpt><trkpt lat="44.58208781426616" lon="7.97699972942003"><ele>434.0</ele><time>2026-04-19T12:22:36Z</time></trkpt><trkpt lat="44.58199316664936" lon="7.9770906571490245"><ele>433.75</ele><time>2026-04-19T12:22:37Z</time></trkpt><trkpt lat="44.581898053502044" lon="7.977171125886136"><ele>433.5</ele><time>2026-04-19T12:22:38Z</time></trkpt><trkpt lat="44.581825388128294" lon="7.977289239235333"><ele>433.25</ele><time>2026-04-19T12:22:39Z</time></trkpt><trkpt lat="44.58177834274694" lon="7.977441368393157"><ele>433.0</ele><time>2026-04-19T12:22:40Z</time></trkpt><trkpt lat="44.581761660770994" lon="7.97761226172896"><ele>433.0</ele><time>2026-04-19T12:22:41Z</time></trkpt><trkpt lat="44.58174382377412" lon="7.977804242337042"><ele>433.0</ele><time>2026-04-19T12:22:42Z</time></trkpt><trkpt lat="44.58174816977564" lon="7.978025761790017"><ele>433.0</ele><time>2026-04-19T12:22:43Z</time></trkpt><trkpt lat="44.58176793985513" lon="7.978256559961069"><ele>433.6666666666667</ele><time>2026-04-19T12:22:44Z</time></trkpt><trkpt lat="44.581766542080224" lon="7.978503764764686"><ele>434.33333333333337</ele><time>2026-04-19T12:22:45Z</time></trkpt><trkpt lat="44.581760762815094" lon="7.978760115572924"><ele>435.0</ele><time>2026-04-19T12:22:46Z</time></trkpt><trkpt lat="44.58175841615181" lon="7.979013860257173"><ele>436.0</ele><time>2026-04-19T12:22:47Z</time></trkpt><trkpt lat="44.58175356102224" lon="7.979269794331812"><ele>437.0</ele><time>2026-04-19T12:22:48Z</time></trkpt><trkpt lat="44.581738514375914" lon="7.979521073681784"><ele>438.0</ele><time>2026-04-19T12:22:49Z</time></trkpt><trkpt lat="44.581718224382456" lon="7.979750035274962"><ele>438.0</ele><time>2026-04-19T12:22:50Z</time></trkpt><trkpt lat="44.58169771238297" lon="7.979963969129324"><ele>438.0</ele><time>2026-04-19T12:22:51Z</time></trkpt><trkpt lat="44.58166144175254" lon="7.980164717679758"><ele>438.0</ele><time>2026-04-19T12:22:52Z</time></trkpt><trkpt lat="44.58159257970816" lon="7.980353110074196"><ele>441.0</ele><time>2026-04-19T12:22:53Z</time></trkpt><trkpt lat="44.58149549277827" lon="7.980511396197836"><ele>444.0</ele><time>2026-04-19T12:22:54Z</time></trkpt><trkpt lat="44.581371172705886" lon="7.980631889901776"><ele>447.0</ele><time>2026-04-19T12:22:55Z</time></trkpt><trkpt lat="44.58123152735377" lon="7.980737062749624"><ele>449.0</ele><time>2026-04-19T12:22:56Z</time></trkpt><trkpt lat="44.58109878486448" lon="7.980867364770475"><ele>451.0</ele><time>2026-04-19T12:22:57Z</time></trkpt><trkpt lat="44.58098613461594" lon="7.981051498223745"><ele>453.0</ele><time>2026-04-19T12:22:58Z</time></trkpt><trkpt lat="44.58088639650341" lon="7.981264485131727"><ele>453.0</ele><time>2026-04-19T12:22:59Z</time></trkpt><trkpt lat="44.580778829685805" lon="7.9814826743804925"><ele>453.0</ele><time>2026-04-19T12:23:00Z</time></trkpt><trkpt lat="44.58067361917763" lon="7.981678059332253"><ele>453.0</ele><time>2026-04-19T12:23:01Z</time></trkpt><trkpt lat="44.58053774192576" lon="7.981815737325752"><ele>453.0</ele><time>2026-04-19T12:23:02Z</time></trkpt><trkpt lat="44.58040168532524" lon="7.981955647608483"><ele>453.0</ele><time>2026-04-19T12:23:03Z</time></trkpt><trkpt lat="44.580233472574854" lon="7.982047930754837"><ele>453.0</ele><time>2026-04-19T12:23:04Z</time></trkpt><trkpt lat="44.58006875974959" lon="7.982141760272171"><ele>453.0</ele><time>2026-04-19T12:23:05Z</time></trkpt><trkpt lat="44.57991725622918" lon="7.9822132138188175"><ele>453.0</ele><time>2026-04-19T12:23:06Z</time></trkpt><trkpt lat="44.57976896389678" lon="7.982258160717488"><ele>453.0</ele><time>2026-04-19T12:23:07Z</time></trkpt><trkpt lat="44.57960366457463" lon="7.982270884143861"><ele>454.33333333333337</ele><time>2026-04-19T12:23:08Z</time></trkpt><trkpt lat="44.57943231256774" lon="7.982259253855976"><ele>455.6666666666667</ele><time>2026-04-19T12:23:09Z</time></trkpt><trkpt lat="44.579255901537515" lon="7.982239176993078"><ele>457.0</ele><time>2026-04-19T12:23:10Z</time></trkpt><trkpt lat="44.579092350773976" lon="7.982140263695983"><ele>457.0</ele><time>2026-04-19T12:23:11Z</time></trkpt><trkpt lat="44.57894020787943" lon="7.982044898367873"><ele>457.0</ele><time>2026-04-19T12:23:12Z</time></trkpt><trkpt lat="44.57880397334061" lon="7.981944586130131"><ele>457.0</ele><time>2026-04-19T12:23:13Z</time></trkpt><trkpt lat="44.57866161105155" lon="7.98184042169893"><ele>457.0</ele><time>2026-04-19T12:23:14Z</time></trkpt><trkpt lat="44.57850666595055" lon="7.981732550803027"><ele>457.0</ele><time>2026-04-19T12:23:15Z</time></trkpt><trkpt lat="44.57834244463414" lon="7.981640433566426"><ele>457.0</ele><time>2026-04-19T12:23:16Z</time></trkpt><trkpt lat="44.5781931639208" lon="7.9815328060442345"><ele>457.0</ele><time>2026-04-19T12:23:17Z</time></trkpt><trkpt lat="44.57805021737416" lon="7.9814320479060035"><ele>457.0</ele><time>2026-04-19T12:23:18Z</time></trkpt><trkpt lat="44.57790815465151" lon="7.981340730066722"><ele>457.0</ele><time>2026-04-19T12:23:19Z</time></trkpt><trkpt lat="44.57775897645502" lon="7.981279558126407"><ele>454.6666666666667</ele><time>2026-04-19T12:23:20Z</time></trkpt><trkpt lat="44.5776010940363" lon="7.981270454130904"><ele>452.33333333333337</ele><time>2026-04-19T12:23:21Z</time></trkpt><trkpt lat="44.5774384039338" lon="7.981312756322897"><ele>450.0</ele><time>2026-04-19T12:23:22Z</time></trkpt><trkpt lat="44.57727169689313" lon="7.9813805608987405"><ele>450.0</ele><time>2026-04-19T12:23:23Z</time></trkpt><trkpt lat="44.57710238963877" lon="7.981456558600049"><ele>450.0</ele><time>2026-04-19T12:23:24Z</time></trkpt><trkpt lat="44.5769428425947" lon="7.981528104825984"><ele>450.0</ele><time>2026-04-19T12:23:25Z</time></trkpt><trkpt lat="44.576787068269894" lon="7.981590300835895"><ele>450.33333333333337</ele><time>2026-04-19T12:23:26Z</time></trkpt><trkpt lat="44.57663655701111" lon="7.98164886394245"><ele>450.6666666666667</ele><time>2026-04-19T12:23:27Z</time></trkpt><trkpt lat="44.57649302221" lon="7.981716038627238"><ele>451.0</ele><time>2026-04-19T12:23:28Z</time></trkpt><trkpt lat="44.576358547402236" lon="7.981800990349743"><ele>448.6666666666667</ele><time>2026-04-19T12:23:29Z</time></trkpt><trkpt lat="44.576229573462236" lon="7.981926007167158"><ele>446.33333333333337</ele><time>2026-04-19T12:23:30Z</time></trkpt><trkpt lat="44.57610511285125" lon="7.982081167514178"><ele>444.0</ele><time>2026-04-19T12:23:31Z</time></trkpt><trkpt lat="44.57597968265194" lon="7.982249167426316"><ele>443.33333333333337</ele><time>2026-04-19T12:23:32Z</time></trkpt><trkpt lat="44.57585523173202" lon="7.982404424563767"><ele>442.6666666666667</ele><time>2026-04-19T12:23:33Z</time></trkpt><trkpt lat="44.575740162683964" lon="7.982561668544836"><ele>442.0</ele><time>2026-04-19T12:23:34Z</time></trkpt><trkpt lat="44.57564010446788" lon="7.9827446545215555"><ele>442.0</ele><time>2026-04-19T12:23:35Z</time></trkpt><trkpt lat="44.57556540367256" lon="7.982960538437773"><ele>442.0</ele><time>2026-04-19T12:23:36Z</time></trkpt><trkpt lat="44.57550852591718" lon="7.983203350432217"><ele>442.0</ele><time>2026-04-19T12:23:37Z</time></trkpt><trkpt lat="44.57543734317943" lon="7.983448453029316"><ele>441.0</ele><time>2026-04-19T12:23:38Z</time></trkpt><trkpt lat="44.57539217679987" lon="7.983687498851504"><ele>440.0</ele><time>2026-04-19T12:23:39Z</time></trkpt><trkpt lat="44.57532076088485" lon="7.983894419235336"><ele>439.0</ele><time>2026-04-19T12:23:40Z</time></trkpt><trkpt lat="44.57522563380686" lon="7.984070743101035"><ele>442.33333333333337</ele><time>2026-04-19T12:23:41Z</time></trkpt><trkpt lat="44.5751037172284" lon="7.98421213981498"><ele>445.66666666666663</ele><time>2026-04-19T12:23:42Z</time></trkpt><trkpt lat="44.57496873218126" lon="7.984325179124826"><ele>449.0</ele><time>2026-04-19T12:23:43Z</time></trkpt><trkpt lat="44.57484113062504" lon="7.984429128069406"><ele>449.0</ele><time>2026-04-19T12:23:44Z</time></trkpt><trkpt lat="44.57472256454735" lon="7.984557342253146"><ele>449.0</ele><time>2026-04-19T12:23:45Z</time></trkpt><trkpt lat="44.57463368672167" lon="7.984721267772942"><ele>449.0</ele><time>2026-04-19T12:23:46Z</time></trkpt><trkpt lat="44.5745771374636" lon="7.9849281559965934"><ele>447.3333333333333</ele><time>2026-04-19T12:23:47Z</time></trkpt><trkpt lat="44.574551585792165" lon="7.985160432541982"><ele>445.66666666666663</ele><time>2026-04-19T12:23:48Z</time></trkpt><trkpt lat="44.57453145928727" lon="7.98540988352878"><ele>444.0</ele><time>2026-04-19T12:23:49Z</time></trkpt><trkpt lat="44.57449984706443" lon="7.985674515465491"><ele>452.66666666666663</ele><time>2026-04-19T12:23:50Z</time></trkpt><trkpt lat="44.57445085106621" lon="7.985953068370916"><ele>461.3333333333333</ele><time>2026-04-19T12:23:51Z</time></trkpt><trkpt lat="44.57439341479517" lon="7.986252462462783"><ele>470.0</ele><time>2026-04-19T12:23:52Z</time></trkpt><trkpt lat="44.57430563693867" lon="7.986539927902559"><ele>470.0</ele><time>2026-04-19T12:23:53Z</time></trkpt><trkpt lat="44.574258757701735" lon="7.986768336677192"><ele>470.0</ele><time>2026-04-19T12:23:54Z</time></trkpt><trkpt lat="44.574221319423856" lon="7.987017070226176"><ele>470.0</ele><time>2026-04-19T12:23:55Z</time></trkpt><trkpt lat="44.57421979655178" lon="7.987286404877793"><ele>470.66666666666663</ele><time>2026-04-19T12:23:56Z</time></trkpt><trkpt lat="44.574251674479044" lon="7.987570719858296"><ele>471.33333333333337</ele><time>2026-04-19T12:23:57Z</time></trkpt><trkpt lat="44.57430395676425" lon="7.987841113215921"><ele>472.0</ele><time>2026-04-19T12:23:58Z</time></trkpt><trkpt lat="44.57436422511113" lon="7.988092018702115"><ele>472.0</ele><time>2026-04-19T12:23:59Z</time></trkpt><trkpt lat="44.5744195319464" lon="7.988315986341748"><ele>472.0</ele><time>2026-04-19T12:24:00Z</time></trkpt><trkpt lat="44.574461939197626" lon="7.988527606794119"><ele>472.0</ele><time>2026-04-19T12:24:01Z</time></trkpt><trkpt lat="44.57448144138558" lon="7.988730793496562"><ele>472.25</ele><time>2026-04-19T12:24:02Z</time></trkpt><trkpt lat="44.57443668697662" lon="7.988913770719079"><ele>472.5</ele><time>2026-04-19T12:24:03Z</time></trkpt><trkpt lat="44.57438738300627" lon="7.989098157151299"><ele>472.75</ele><time>2026-04-19T12:24:04Z</time></trkpt><trkpt lat="44.57431856891792" lon="7.989309187225815"><ele>473.0</ele><time>2026-04-19T12:24:05Z</time></trkpt><trkpt lat="44.57421281079814" lon="7.989518506612293"><ele>474.66666666666663</ele><time>2026-04-19T12:24:06Z</time></trkpt><trkpt lat="44.574081753342" lon="7.989734695802191"><ele>476.33333333333337</ele><time>2026-04-19T12:24:07Z</time></trkpt><trkpt lat="44.57392082384771" lon="7.989945319996457"><ele>478.0</ele><time>2026-04-19T12:24:08Z</time></trkpt><trkpt lat="44.57373066112773" lon="7.9901431237172655"><ele>481.0</ele><time>2026-04-19T12:24:09Z</time></trkpt><trkpt lat="44.573553620789625" lon="7.990351244511216"><ele>484.0</ele><time>2026-04-19T12:24:10Z</time></trkpt><trkpt lat="44.5733651628548" lon="7.990527957900119"><ele>484.0</ele><time>2026-04-19T12:24:11Z</time></trkpt><trkpt lat="44.57318627601114" lon="7.990708454583836"><ele>484.0</ele><time>2026-04-19T12:24:12Z</time></trkpt><trkpt lat="44.5730261926198" lon="7.990875972090021"><ele>484.0</ele><time>2026-04-19T12:24:13Z</time></trkpt><trkpt lat="44.57288368119911" lon="7.991033206147626"><ele>484.6666666666667</ele><time>2026-04-19T12:24:14Z</time></trkpt><trkpt lat="44.57276317629607" lon="7.991194683678842"><ele>485.33333333333337</ele><time>2026-04-19T12:24:15Z</time></trkpt><trkpt lat="44.57268144902312" lon="7.99140153210825"><ele>486.0</ele><time>2026-04-19T12:24:16Z</time></trkpt><trkpt lat="44.57260456863465" lon="7.991639474740208"><ele>490.0</ele><time>2026-04-19T12:24:17Z</time></trkpt><trkpt lat="44.57253724855804" lon="7.991887217189622"><ele>494.0</ele><time>2026-04-19T12:24:18Z</time></trkpt><trkpt lat="44.57245210191108" lon="7.992114337663926"><ele>498.0</ele><time>2026-04-19T12:24:19Z</time></trkpt><trkpt lat="44.572336999526414" lon="7.992308222110003"><ele>498.0</ele><time>2026-04-19T12:24:20Z</time></trkpt><trkpt lat="44.572172688019506" lon="7.992436913931218"><ele>498.0</ele><time>2026-04-19T12:24:21Z</time></trkpt><trkpt lat="44.57201252331789" lon="7.992586699558653"><ele>498.0</ele><time>2026-04-19T12:24:22Z</time></trkpt><trkpt lat="44.571855795976866" lon="7.992691910947674"><ele>497.0</ele><time>2026-04-19T12:24:23Z</time></trkpt><trkpt lat="44.571720933095456" lon="7.992820036546402"><ele>496.0</ele><time>2026-04-19T12:24:24Z</time></trkpt><trkpt lat="44.57161761584711" lon="7.99299483528033"><ele>495.0</ele><time>2026-04-19T12:24:25Z</time></trkpt><trkpt lat="44.5715486471539" lon="7.993178093667474"><ele>493.5</ele><time>2026-04-19T12:24:26Z</time></trkpt><trkpt lat="44.571512497175796" lon="7.993353075983413"><ele>492.0</ele><time>2026-04-19T12:24:27Z</time></trkpt><trkpt lat="44.571522342003256" lon="7.993526536297406"><ele>490.5</ele><time>2026-04-19T12:24:28Z</time></trkpt><trkpt lat="44.57156987081753" lon="7.993688041188696"><ele>489.0</ele><time>2026-04-19T12:24:29Z</time></trkpt><trkpt lat="44.57165581063392" lon="7.993826411145388"><ele>489.0</ele><time>2026-04-19T12:24:30Z</time></trkpt><trkpt lat="44.571774014239125" lon="7.993926822744384"><ele>489.0</ele><time>2026-04-19T12:24:31Z</time></trkpt><trkpt lat="44.571917311585565" lon="7.994008943286345"><ele>489.0</ele><time>2026-04-19T12:24:32Z</time></trkpt><trkpt lat="44.57205900711616" lon="7.9941269676927025"><ele>491.0</ele><time>2026-04-19T12:24:33Z</time></trkpt><trkpt lat="44.57219156016874" lon="7.994259973659337"><ele>493.0</ele><time>2026-04-19T12:24:34Z</time></trkpt><trkpt lat="44.572311502496895" lon="7.994416935232671"><ele>495.0</ele><time>2026-04-19T12:24:35Z</time></trkpt><trkpt lat="44.572400437116485" lon="7.994635105057783"><ele>495.0</ele><time>2026-04-19T12:24:36Z</time></trkpt><trkpt lat="44.572471474760945" lon="7.9948708708565235"><ele>495.0</ele><time>2026-04-19T12:24:37Z</time></trkpt><trkpt lat="44.57253535554192" lon="7.9951022652480255"><ele>495.0</ele><time>2026-04-19T12:24:38Z</time></trkpt><trkpt lat="44.57259889453201" lon="7.995328668144565"><ele>496.0</ele><time>2026-04-19T12:24:39Z</time></trkpt><trkpt lat="44.57267249479951" lon="7.995545718164395"><ele>497.0</ele><time>2026-04-19T12:24:40Z</time></trkpt><trkpt lat="44.572779230426875" lon="7.995740666738064"><ele>498.0</ele><time>2026-04-19T12:24:41Z</time></trkpt><trkpt lat="44.57291465547822" lon="7.995910397422757"><ele>500.0</ele><time>2026-04-19T12:24:42Z</time></trkpt><trkpt lat="44.57306414865065" lon="7.996075858256519"><ele>502.0</ele><time>2026-04-19T12:24:43Z</time></trkpt><trkpt lat="44.57320227579811" lon="7.9962422993917865"><ele>504.0</ele><time>2026-04-19T12:24:44Z</time></trkpt><trkpt lat="44.57332862923081" lon="7.9963976848406"><ele>504.0</ele><time>2026-04-19T12:24:45Z</time></trkpt><trkpt lat="44.57344910122376" lon="7.9965417715057505"><ele>504.0</ele><time>2026-04-19T12:24:46Z</time></trkpt><trkpt lat="44.57356495421661" lon="7.996678836151466"><ele>504.0</ele><time>2026-04-19T12:24:47Z</time></trkpt><trkpt lat="44.57367803414358" lon="7.996818704849353"><ele>503.0</ele><time>2026-04-19T12:24:48Z</time></trkpt><trkpt lat="44.573785873491374" lon="7.996976233709402"><ele>502.0</ele><time>2026-04-19T12:24:49Z</time></trkpt><trkpt lat="44.573888468053696" lon="7.997155356760879"><ele>501.0</ele><time>2026-04-19T12:24:50Z</time></trkpt><trkpt lat="44.57398529418452" lon="7.9973519153920725"><ele>503.0</ele><time>2026-04-19T12:24:51Z</time></trkpt><trkpt lat="44.57406518569476" lon="7.99755716066685"><ele>505.0</ele><time>2026-04-19T12:24:52Z</time></trkpt><trkpt lat="44.5741207093775" lon="7.997766200506427"><ele>507.0</ele><time>2026-04-19T12:24:53Z</time></trkpt><trkpt lat="44.574154239320954" lon="7.997968417708001"><ele>507.0</ele><time>2026-04-19T12:24:54Z</time></trkpt><trkpt lat="44.57417367151368" lon="7.998158014354979"><ele>507.0</ele><time>2026-04-19T12:24:55Z</time></trkpt><trkpt lat="44.574197449066666" lon="7.998334265598241"><ele>507.0</ele><time>2026-04-19T12:24:56Z</time></trkpt><trkpt lat="44.57424914805667" lon="7.998491228619777"><ele>507.0</ele><time>2026-04-19T12:24:57Z</time></trkpt><trkpt lat="44.57433725651973" lon="7.998629094138729"><ele>506.33333333333337</ele><time>2026-04-19T12:24:58Z</time></trkpt><trkpt lat="44.5744546605154" lon="7.998756531677445"><ele>505.6666666666667</ele><time>2026-04-19T12:24:59Z</time></trkpt><trkpt lat="44.57458330074643" lon="7.998874237464561"><ele>505.0</ele><time>2026-04-19T12:25:00Z</time></trkpt><trkpt lat="44.5747109523556" lon="7.998995111112845"><ele>505.0</ele><time>2026-04-19T12:25:01Z</time></trkpt><trkpt lat="44.574831880663986" lon="7.999120426605862"><ele>505.0</ele><time>2026-04-19T12:25:02Z</time></trkpt><trkpt lat="44.57494429077284" lon="7.9992415771315395"><ele>505.0</ele><time>2026-04-19T12:25:03Z</time></trkpt><trkpt lat="44.5750488601079" lon="7.999351671116516"><ele>505.0</ele><time>2026-04-19T12:25:04Z</time></trkpt><trkpt lat="44.575150718516035" lon="7.999456693648368"><ele>506.0</ele><time>2026-04-19T12:25:05Z</time></trkpt><trkpt lat="44.57524571615227" lon="7.999558618795674"><ele>507.0</ele><time>2026-04-19T12:25:06Z</time></trkpt><trkpt lat="44.575332897879456" lon="7.99965740102651"><ele>508.0</ele><time>2026-04-19T12:25:07Z</time></trkpt><trkpt lat="44.57540755834386" lon="7.999758561199706"><ele>509.0</ele><time>2026-04-19T12:25:08Z</time></trkpt><trkpt lat="44.575468951001355" lon="7.999870895110862"><ele>510.0</ele><time>2026-04-19T12:25:09Z</time></trkpt><trkpt lat="44.57552169699792" lon="8.0000097758149"><ele>506.0</ele><time>2026-04-19T12:25:10Z</time></trkpt><trkpt lat="44.57556211856995" lon="8.000189944673298"><ele>502.0</ele><time>2026-04-19T12:25:11Z</time></trkpt><trkpt lat="44.57558321027209" lon="8.000383528901228"><ele>498.0</ele><time>2026-04-19T12:25:12Z</time></trkpt><trkpt lat="44.575583912188286" lon="8.000588152274174"><ele>494.0</ele><time>2026-04-19T12:25:13Z</time></trkpt><trkpt lat="44.5755839503362" lon="8.000792778601436"><ele>495.25</ele><time>2026-04-19T12:25:14Z</time></trkpt><trkpt lat="44.57559263262718" lon="8.000991546107452"><ele>496.5</ele><time>2026-04-19T12:25:15Z</time></trkpt><trkpt lat="44.57562763012551" lon="8.001181071506956"><ele>497.75</ele><time>2026-04-19T12:25:16Z</time></trkpt><trkpt lat="44.57569166077956" lon="8.00136763907872"><ele>499.0</ele><time>2026-04-19T12:25:17Z</time></trkpt><trkpt lat="44.57577994419522" lon="8.00154219430804"><ele>501.0</ele><time>2026-04-19T12:25:18Z</time></trkpt><trkpt lat="44.57589342709459" lon="8.00170869447814"><ele>503.0</ele><time>2026-04-19T12:25:19Z</time></trkpt><trkpt lat="44.57601516366435" lon="8.001885660505012"><ele>505.0</ele><time>2026-04-19T12:25:20Z</time></trkpt><trkpt lat="44.57613762928972" lon="8.002073802134944"><ele>503.6666666666667</ele><time>2026-04-19T12:25:21Z</time></trkpt><trkpt lat="44.57625464930159" lon="8.002266852061444"><ele>502.33333333333337</ele><time>2026-04-19T12:25:22Z</time></trkpt><trkpt lat="44.57637651265955" lon="8.002458243249345"><ele>501.0</ele><time>2026-04-19T12:25:23Z</time></trkpt><trkpt lat="44.57650028100983" lon="8.002652775345155"><ele>501.0</ele><time>2026-04-19T12:25:24Z</time></trkpt><trkpt lat="44.57662048143227" lon="8.002850433683268"><ele>501.0</ele><time>2026-04-19T12:25:25Z</time></trkpt><trkpt lat="44.57674023593364" lon="8.00304777512701"><ele>501.0</ele><time>2026-04-19T12:25:26Z</time></trkpt><trkpt lat="44.57686372061054" lon="8.003243938914093"><ele>500.0</ele><time>2026-04-19T12:25:27Z</time></trkpt><trkpt lat="44.57699105851959" lon="8.003438295533277"><ele>499.0</ele><time>2026-04-19T12:25:28Z</time></trkpt><trkpt lat="44.57712386107272" lon="8.003629417766719"><ele>498.0</ele><time>2026-04-19T12:25:29Z</time></trkpt><trkpt lat="44.57726335491068" lon="8.00381333733281"><ele>498.0</ele><time>2026-04-19T12:25:30Z</time></trkpt><trkpt lat="44.57740802582017" lon="8.003989317719665"><ele>498.0</ele><time>2026-04-19T12:25:31Z</time></trkpt><trkpt lat="44.57755009836796" lon="8.004162226490942"><ele>498.0</ele><time>2026-04-19T12:25:32Z</time></trkpt><trkpt lat="44.57768336318671" lon="8.004333530016751"><ele>496.66666666666663</ele><time>2026-04-19T12:25:33Z</time></trkpt><trkpt lat="44.57781003897637" lon="8.004510786112416"><ele>495.3333333333333</ele><time>2026-04-19T12:25:34Z</time></trkpt><trkpt lat="44.577929964791764" lon="8.00470019783436"><ele>494.0</ele><time>2026-04-19T12:25:35Z</time></trkpt><trkpt lat="44.57804663390371" lon="8.004911011658628"><ele>496.66666666666663</ele><time>2026-04-19T12:25:36Z</time></trkpt><trkpt lat="44.578158353694306" lon="8.005144600599557"><ele>499.33333333333337</ele><time>2026-04-19T12:25:37Z</time></trkpt><trkpt lat="44.57826701798378" lon="8.00539338270371"><ele>502.0</ele><time>2026-04-19T12:25:38Z</time></trkpt><trkpt lat="44.57837217154903" lon="8.005654412773142"><ele>503.0</ele><time>2026-04-19T12:25:39Z</time></trkpt><trkpt lat="44.57847473809554" lon="8.005902247572523"><ele>504.0</ele><time>2026-04-19T12:25:40Z</time></trkpt><trkpt lat="44.57857476686325" lon="8.00613137919738"><ele>505.0</ele><time>2026-04-19T12:25:41Z</time></trkpt><trkpt lat="44.57866598264256" lon="8.006348155198783"><ele>506.33333333333337</ele><time>2026-04-19T12:25:42Z</time></trkpt><trkpt lat="44.578741565869734" lon="8.00656425744975"><ele>507.66666666666663</ele><time>2026-04-19T12:25:43Z</time></trkpt><trkpt lat="44.578779482393834" lon="8.006781051779853"><ele>509.0</ele><time>2026-04-19T12:25:44Z</time></trkpt><trkpt lat="44.57877545719046" lon="8.00700015993383"><ele>509.0</ele><time>2026-04-19T12:25:45Z</time></trkpt><trkpt lat="44.57871655226541" lon="8.00721215780431"><ele>509.0</ele><time>2026-04-19T12:25:46Z</time></trkpt><trkpt lat="44.57863298248249" lon="8.007415471358577"><ele>509.0</ele><time>2026-04-19T12:25:47Z</time></trkpt><trkpt lat="44.57851387561368" lon="8.0075917815753"><ele>511.0</ele><time>2026-04-19T12:25:48Z</time></trkpt><trkpt lat="44.57838724271297" lon="8.007749276831632"><ele>513.0</ele><time>2026-04-19T12:25:49Z</time></trkpt><trkpt lat="44.5782710791836" lon="8.007882895696019"><ele>515.0</ele><time>2026-04-19T12:25:50Z</time></trkpt><trkpt lat="44.57816417490695" lon="8.007998348592071"><ele>515.0</ele><time>2026-04-19T12:25:51Z</time></trkpt><trkpt lat="44.5780890503443" lon="8.00812987573253"><ele>515.0</ele><time>2026-04-19T12:25:52Z</time></trkpt><trkpt lat="44.57805518566234" lon="8.008282811947916"><ele>515.0</ele><time>2026-04-19T12:25:53Z</time></trkpt><trkpt lat="44.57805977222682" lon="8.008451947294246"><ele>515.0</ele><time>2026-04-19T12:25:54Z</time></trkpt><trkpt lat="44.57810857394572" lon="8.008630380984778"><ele>518.3333333333333</ele><time>2026-04-19T12:25:55Z</time></trkpt><trkpt lat="44.57818733832417" lon="8.008809019621362"><ele>521.6666666666666</ele><time>2026-04-19T12:25:56Z</time></trkpt><trkpt lat="44.57826889733938" lon="8.009007171510888"><ele>525.0</ele><time>2026-04-19T12:25:57Z</time></trkpt><trkpt lat="44.578330589655245" lon="8.009235668601772"><ele>526.3333333333334</ele><time>2026-04-19T12:25:58Z</time></trkpt><trkpt lat="44.57837989281536" lon="8.009496117527856"><ele>527.6666666666667</ele><time>2026-04-19T12:25:59Z</time></trkpt><trkpt lat="44.57843922771316" lon="8.009774409811977"><ele>529.0</ele><time>2026-04-19T12:26:00Z</time></trkpt><trkpt lat="44.57850605141154" lon="8.010063125904306"><ele>530.3333333333334</ele><time>2026-04-19T12:26:01Z</time></trkpt><trkpt lat="44.57857293000133" lon="8.0103478364605"><ele>531.6666666666666</ele><time>2026-04-19T12:26:02Z</time></trkpt><trkpt lat="44.57863413286897" lon="8.010619485836934"><ele>533.0</ele><time>2026-04-19T12:26:03Z</time></trkpt><trkpt lat="44.578690434718496" lon="8.010864205624241"><ele>530.0</ele><time>2026-04-19T12:26:04Z</time></trkpt><trkpt lat="44.578739617074966" lon="8.0110919207427"><ele>527.0</ele><time>2026-04-19T12:26:05Z</time></trkpt><trkpt lat="44.578769354610195" lon="8.011309911122616"><ele>524.0</ele><time>2026-04-19T12:26:06Z</time></trkpt><trkpt lat="44.57876266779869" lon="8.011524853210915"><ele>524.5</ele><time>2026-04-19T12:26:07Z</time></trkpt><trkpt lat="44.57871542444676" lon="8.011744495871916"><ele>525.0</ele><time>2026-04-19T12:26:08Z</time></trkpt><trkpt lat="44.578665220197195" lon="8.011936944748191"><ele>525.5</ele><time>2026-04-19T12:26:09Z</time></trkpt><trkpt lat="44.578652085484606" lon="8.012107756232103"><ele>526.0</ele><time>2026-04-19T12:26:10Z</time></trkpt><trkpt lat="44.57869312650205" lon="8.012285293774562"><ele>526.0</ele><time>2026-04-19T12:26:11Z</time></trkpt><trkpt lat="44.57878896694557" lon="8.012470541042859"><ele>526.0</ele><time>2026-04-19T12:26:12Z</time></trkpt><trkpt lat="44.578889397301275" lon="8.012650206386748"><ele>526.0</ele><time>2026-04-19T12:26:13Z</time></trkpt><trkpt lat="44.57897499277923" lon="8.01280107698723"><ele>528.5</ele><time>2026-04-19T12:26:14Z</time></trkpt><trkpt lat="44.57903803295604" lon="8.01292856697903"><ele>531.0</ele><time>2026-04-19T12:26:15Z</time></trkpt><trkpt lat="44.579075227388856" lon="8.013046876831368"><ele>533.5</ele><time>2026-04-19T12:26:16Z</time></trkpt><trkpt lat="44.579092723821475" lon="8.013168688805298"><ele>536.0</ele><time>2026-04-19T12:26:17Z</time></trkpt><trkpt lat="44.57906386666597" lon="8.013447326530455"><ele>538.75</ele><time>2026-04-19T12:26:19Z</time></trkpt><trkpt lat="44.57900460524255" lon="8.013586156990083"><ele>541.5</ele><time>2026-04-19T12:26:20Z</time></trkpt><trkpt lat="44.57892252803748" lon="8.01370764101683"><ele>544.25</ele><time>2026-04-19T12:26:21Z</time></trkpt><trkpt lat="44.57879706270559" lon="8.01375315811421"><ele>547.0</ele><time>2026-04-19T12:26:22Z</time></trkpt><trkpt lat="44.578658359733645" lon="8.013792681818675"><ele>551.6666666666667</ele><time>2026-04-19T12:26:23Z</time></trkpt><trkpt lat="44.57849847061336" lon="8.013864651014647"><ele>556.3333333333334</ele><time>2026-04-19T12:26:24Z</time></trkpt><trkpt lat="44.578308875474185" lon="8.013910579868893"><ele>561.0</ele><time>2026-04-19T12:26:25Z</time></trkpt><trkpt lat="44.57809554635218" lon="8.014001265415095"><ele>561.0</ele><time>2026-04-19T12:26:26Z</time></trkpt><trkpt lat="44.57786574882387" lon="8.01412084135383"><ele>561.0</ele><time>2026-04-19T12:26:27Z</time></trkpt><trkpt lat="44.57762868671657" lon="8.014248175110536"><ele>562.5</ele><time>2026-04-19T12:26:28Z</time></trkpt><trkpt lat="44.57739713924978" lon="8.014367915727794"><ele>564.0</ele><time>2026-04-19T12:26:29Z</time></trkpt><trkpt lat="44.577193726438196" lon="8.014472847801892"><ele>567.6666666666666</ele><time>2026-04-19T12:26:30Z</time></trkpt><trkpt lat="44.57700569189128" lon="8.014576583208418"><ele>571.3333333333333</ele><time>2026-04-19T12:26:31Z</time></trkpt><trkpt lat="44.576833954485764" lon="8.014672973429322"><ele>575.0</ele><time>2026-04-19T12:26:32Z</time></trkpt><trkpt lat="44.57667621987543" lon="8.014760644393"><ele>575.0</ele><time>2026-04-19T12:26:33Z</time></trkpt><trkpt lat="44.57653810660785" lon="8.014838737356676"><ele>575.0</ele><time>2026-04-19T12:26:34Z</time></trkpt><trkpt lat="44.576418747280584" lon="8.014910825535294"><ele>575.0</ele><time>2026-04-19T12:26:35Z</time></trkpt><trkpt lat="44.57631957312682" lon="8.01499216639829"><ele>575.0</ele><time>2026-04-19T12:26:36Z</time></trkpt><trkpt lat="44.576233353319395" lon="8.015085374396886"><ele>573.25</ele><time>2026-04-19T12:26:37Z</time></trkpt><trkpt lat="44.57619074580254" lon="8.015244222598609"><ele>571.5</ele><time>2026-04-19T12:26:38Z</time></trkpt><trkpt lat="44.576141734778204" lon="8.015403926513805"><ele>569.75</ele><time>2026-04-19T12:26:39Z</time></trkpt><trkpt lat="44.5760875203178" lon="8.015586109520985"><ele>568.0</ele><time>2026-04-19T12:26:40Z</time></trkpt><trkpt lat="44.57603206250027" lon="8.015785618503534"><ele>570.0</ele><time>2026-04-19T12:26:41Z</time></trkpt><trkpt lat="44.57597739424672" lon="8.01599050075388"><ele>572.0</ele><time>2026-04-19T12:26:42Z</time></trkpt><trkpt lat="44.57592651045917" lon="8.016194977966824"><ele>574.0</ele><time>2026-04-19T12:26:43Z</time></trkpt><trkpt lat="44.57587203039691" lon="8.016400054982185"><ele>574.0</ele><time>2026-04-19T12:26:44Z</time></trkpt><trkpt lat="44.57581826261212" lon="8.016600123139588"><ele>574.0</ele><time>2026-04-19T12:26:45Z</time></trkpt><trkpt lat="44.57577386922572" lon="8.016790708574892"><ele>574.0</ele><time>2026-04-19T12:26:46Z</time></trkpt><trkpt lat="44.575745515061605" lon="8.016966003018045"><ele>574.0</ele><time>2026-04-19T12:26:47Z</time></trkpt><trkpt lat="44.57572182520522" lon="8.017126930296863"><ele>573.75</ele><time>2026-04-19T12:26:48Z</time></trkpt><trkpt lat="44.57568792540758" lon="8.0172754297224"><ele>573.5</ele><time>2026-04-19T12:26:49Z</time></trkpt><trkpt lat="44.575644958508434" lon="8.017427368832282"><ele>573.25</ele><time>2026-04-19T12:26:50Z</time></trkpt><trkpt lat="44.57557991896407" lon="8.017584022986675"><ele>573.0</ele><time>2026-04-19T12:26:51Z</time></trkpt><trkpt lat="44.57550045460881" lon="8.017744469555788"><ele>573.0</ele><time>2026-04-19T12:26:52Z</time></trkpt><trkpt lat="44.57541153639468" lon="8.017910346956747"><ele>573.0</ele><time>2026-04-19T12:26:53Z</time></trkpt><trkpt lat="44.57531851751382" lon="8.018086485188967"><ele>573.0</ele><time>2026-04-19T12:26:54Z</time></trkpt><trkpt lat="44.57521964301391" lon="8.018274392561702"><ele>575.3333333333334</ele><time>2026-04-19T12:26:55Z</time></trkpt><trkpt lat="44.57511939510371" lon="8.018475619501116"><ele>577.6666666666667</ele><time>2026-04-19T12:26:56Z</time></trkpt><trkpt lat="44.57502628872822" lon="8.01867602271259"><ele>580.0</ele><time>2026-04-19T12:26:57Z</time></trkpt><trkpt lat="44.5749387973757" lon="8.01888005539114"><ele>580.0</ele><time>2026-04-19T12:26:58Z</time></trkpt><trkpt lat="44.5748605847554" lon="8.019078165390956"><ele>580.0</ele><time>2026-04-19T12:26:59Z</time></trkpt><trkpt lat="44.57478767509213" lon="8.019268945566784"><ele>580.0</ele><time>2026-04-19T12:27:00Z</time></trkpt><trkpt lat="44.57472137779024" lon="8.01946660144482"><ele>577.3333333333334</ele><time>2026-04-19T12:27:01Z</time></trkpt><trkpt lat="44.574667555217154" lon="8.019675619015649"><ele>574.6666666666666</ele><time>2026-04-19T12:27:02Z</time></trkpt><trkpt lat="44.574622927085166" lon="8.019893529873235"><ele>572.0</ele><time>2026-04-19T12:27:03Z</time></trkpt><trkpt lat="44.574585677580984" lon="8.020116402233182"><ele>571.3333333333333</ele><time>2026-04-19T12:27:04Z</time></trkpt><trkpt lat="44.5745508737352" lon="8.020340644311693"><ele>570.6666666666666</ele><time>2026-04-19T12:27:05Z</time></trkpt><trkpt lat="44.57451680658033" lon="8.020557683339632"><ele>570.0</ele><time>2026-04-19T12:27:06Z</time></trkpt><trkpt lat="44.5744875833155" lon="8.020764528413794"><ele>570.25</ele><time>2026-04-19T12:27:07Z</time></trkpt><trkpt lat="44.574469126367305" lon="8.020959048511937"><ele>570.5</ele><time>2026-04-19T12:27:08Z</time></trkpt><trkpt lat="44.57446982465151" lon="8.021146551635331"><ele>570.75</ele><time>2026-04-19T12:27:09Z</time></trkpt><trkpt lat="44.57450124593819" lon="8.021329779127559"><ele>571.0</ele><time>2026-04-19T12:27:10Z</time></trkpt><trkpt lat="44.574567551375935" lon="8.021500778867662"><ele>570.6666666666667</ele><time>2026-04-19T12:27:11Z</time></trkpt><trkpt lat="44.57466713157741" lon="8.021665128710527"><ele>570.3333333333334</ele><time>2026-04-19T12:27:12Z</time></trkpt><trkpt lat="44.574784165408175" lon="8.0218297429228"><ele>570.0</ele><time>2026-04-19T12:27:13Z</time></trkpt><trkpt lat="44.57490507936653" lon="8.022010705767421"><ele>570.0</ele><time>2026-04-19T12:27:14Z</time></trkpt><trkpt lat="44.57502858844175" lon="8.022204669461892"><ele>570.0</ele><time>2026-04-19T12:27:15Z</time></trkpt><trkpt lat="44.57515543804052" lon="8.022407183804313"><ele>570.0</ele><time>2026-04-19T12:27:16Z</time></trkpt><trkpt lat="44.575274427241936" lon="8.022603849733155"><ele>566.3333333333334</ele><time>2026-04-19T12:27:17Z</time></trkpt><trkpt lat="44.575388478914164" lon="8.022787945033235"><ele>562.6666666666667</ele><time>2026-04-19T12:27:18Z</time></trkpt><trkpt lat="44.57549894088599" lon="8.022962749312969"><ele>559.0</ele><time>2026-04-19T12:27:19Z</time></trkpt><trkpt lat="44.57560043293959" lon="8.023124748574196"><ele>559.0</ele><time>2026-04-19T12:27:20Z</time></trkpt><trkpt lat="44.575688525964225" lon="8.023284264935171"><ele>559.0</ele><time>2026-04-19T12:27:21Z</time></trkpt><trkpt lat="44.575756280709065" lon="8.023470512337866"><ele>559.0</ele><time>2026-04-19T12:27:22Z</time></trkpt><trkpt lat="44.575791186783654" lon="8.023695812691042"><ele>562.0</ele><time>2026-04-19T12:27:23Z</time></trkpt><trkpt lat="44.575808238602086" lon="8.023937426954186"><ele>565.0</ele><time>2026-04-19T12:27:24Z</time></trkpt><trkpt lat="44.57581864368811" lon="8.024192332882844"><ele>568.0</ele><time>2026-04-19T12:27:25Z</time></trkpt><trkpt lat="44.575829278248996" lon="8.024451991233125"><ele>568.6666666666667</ele><time>2026-04-19T12:27:26Z</time></trkpt><trkpt lat="44.57584206067166" lon="8.024716782951186"><ele>569.3333333333334</ele><time>2026-04-19T12:27:27Z</time></trkpt><trkpt lat="44.57585640288168" lon="8.024986467522991"><ele>570.0</ele><time>2026-04-19T12:27:28Z</time></trkpt><trkpt lat="44.575874206179456" lon="8.025261023007744"><ele>570.0</ele><time>2026-04-19T12:27:29Z</time></trkpt><trkpt lat="44.57589408458367" lon="8.025542781911929"><ele>570.0</ele><time>2026-04-19T12:27:30Z</time></trkpt><trkpt lat="44.57591400152966" lon="8.02583089650598"><ele>570.0</ele><time>2026-04-19T12:27:31Z</time></trkpt><trkpt lat="44.575932609316" lon="8.026114029845928"><ele>570.3333333333334</ele><time>2026-04-19T12:27:32Z</time></trkpt><trkpt lat="44.57595092081077" lon="8.026383083823562"><ele>570.6666666666667</ele><time>2026-04-19T12:27:33Z</time></trkpt><trkpt lat="44.575963445471274" lon="8.026643692576199"><ele>571.0</ele><time>2026-04-19T12:27:34Z</time></trkpt><trkpt lat="44.575966028409574" lon="8.026897977180356"><ele>571.3333333333334</ele><time>2026-04-19T12:27:35Z</time></trkpt><trkpt lat="44.575964542449185" lon="8.027147030575215"><ele>571.6666666666666</ele><time>2026-04-19T12:27:36Z</time></trkpt><trkpt lat="44.575973068606366" lon="8.027387630294667"><ele>572.0</ele><time>2026-04-19T12:27:37Z</time></trkpt><trkpt lat="44.57600313440348" lon="8.027617070549896"><ele>570.0</ele><time>2026-04-19T12:27:38Z</time></trkpt><trkpt lat="44.576064357044395" lon="8.02782948365853"><ele>568.0</ele><time>2026-04-19T12:27:39Z</time></trkpt><trkpt lat="44.576161248707955" lon="8.02803630424966"><ele>566.0</ele><time>2026-04-19T12:27:40Z</time></trkpt><trkpt lat="44.5762923340589" lon="8.028232651927713"><ele>563.3333333333333</ele><time>2026-04-19T12:27:41Z</time></trkpt><trkpt lat="44.57645238237479" lon="8.028414727683495"><ele>560.6666666666666</ele><time>2026-04-19T12:27:42Z</time></trkpt><trkpt lat="44.576628948761226" lon="8.028593088781399"><ele>558.0</ele><time>2026-04-19T12:27:43.001Z</time></trkpt><trkpt lat="44.57680805466181" lon="8.02878362577418"><ele>558.0</ele><time>2026-04-19T12:27:44.001Z</time></trkpt><trkpt lat="44.57699202985207" lon="8.028980986597285"><ele>558.0</ele><time>2026-04-19T12:27:45.001Z</time></trkpt><trkpt lat="44.5771696313941" lon="8.02916755695581"><ele>556.6666666666666</ele><time>2026-04-19T12:27:46.001Z</time></trkpt><trkpt lat="44.57734131285558" lon="8.029349667812692"><ele>555.3333333333333</ele><time>2026-04-19T12:27:47.001Z</time></trkpt><trkpt lat="44.57750657496067" lon="8.029529056254177"><ele>554.0</ele><time>2026-04-19T12:27:48.001Z</time></trkpt><trkpt lat="44.57766856110888" lon="8.02970481041478"><ele>554.0</ele><time>2026-04-19T12:27:49.001Z</time></trkpt><trkpt lat="44.57782852132879" lon="8.029877438790963"><ele>554.0</ele><time>2026-04-19T12:27:50.001Z</time></trkpt><trkpt lat="44.57798581041164" lon="8.03004647740979"><ele>554.0</ele><time>2026-04-19T12:27:51.001Z</time></trkpt><trkpt lat="44.57813874335339" lon="8.030214399200753"><ele>553.3333333333333</ele><time>2026-04-19T12:27:52.001Z</time></trkpt><trkpt lat="44.578289739212345" lon="8.030377843427443"><ele>552.6666666666666</ele><time>2026-04-19T12:27:53.001Z</time></trkpt><trkpt lat="44.578439392384" lon="8.030534409416953"><ele>552.0</ele><time>2026-04-19T12:27:54.001Z</time></trkpt><trkpt lat="44.57858871743089" lon="8.030688869049609"><ele>549.3333333333334</ele><time>2026-04-19T12:27:55.001Z</time></trkpt><trkpt lat="44.57874067001216" lon="8.03084768623544"><ele>546.6666666666667</ele><time>2026-04-19T12:27:56.001Z</time></trkpt><trkpt lat="44.578894012525765" lon="8.03100941043061"><ele>544.0</ele><time>2026-04-19T12:27:57.001Z</time></trkpt><trkpt lat="44.5790446337724" lon="8.03116857255341"><ele>544.0</ele><time>2026-04-19T12:27:58.001Z</time></trkpt><trkpt lat="44.57919190661741" lon="8.03132451378915"><ele>544.0</ele><time>2026-04-19T12:27:59.001Z</time></trkpt><trkpt lat="44.579334708460806" lon="8.031479743993192"><ele>544.0</ele><time>2026-04-19T12:28:00.001Z</time></trkpt><trkpt lat="44.579467129993404" lon="8.031621654598574"><ele>541.75</ele><time>2026-04-19T12:28:01.001Z</time></trkpt><trkpt lat="44.57958703200552" lon="8.031755177465158"><ele>539.5</ele><time>2026-04-19T12:28:02.001Z</time></trkpt><trkpt lat="44.579685081164754" lon="8.031901036051481"><ele>537.25</ele><time>2026-04-19T12:28:03.001Z</time></trkpt><trkpt lat="44.57975560767535" lon="8.032074435722562"><ele>535.0</ele><time>2026-04-19T12:28:04.001Z</time></trkpt><trkpt lat="44.579798268861566" lon="8.032277422742576"><ele>536.3333333333334</ele><time>2026-04-19T12:28:05.001Z</time></trkpt><trkpt lat="44.57982196733943" lon="8.032497184818302"><ele>537.6666666666666</ele><time>2026-04-19T12:28:06.001Z</time></trkpt><trkpt lat="44.57983777323934" lon="8.03272357696787"><ele>539.0</ele><time>2026-04-19T12:28:07.001Z</time></trkpt><trkpt lat="44.57985534518507" lon="8.032938258967027"><ele>539.0</ele><time>2026-04-19T12:28:08.001Z</time></trkpt><trkpt lat="44.5798728286646" lon="8.033145764085427"><ele>539.0</ele><time>2026-04-19T12:28:09.001Z</time></trkpt><trkpt lat="44.57988179333269" lon="8.033347907690125"><ele>539.0</ele><time>2026-04-19T12:28:10.001Z</time></trkpt><trkpt lat="44.579875415178364" lon="8.033557281470332"><ele>539.0</ele><time>2026-04-19T12:28:11.001Z</time></trkpt><trkpt lat="44.57984625365317" lon="8.033780489471583"><ele>539.6666666666666</ele><time>2026-04-19T12:28:12Z</time></trkpt><trkpt lat="44.579799658653606" lon="8.034015816213092"><ele>540.3333333333334</ele><time>2026-04-19T12:28:13Z</time></trkpt><trkpt lat="44.57974282717358" lon="8.034260998014382"><ele>541.0</ele><time>2026-04-19T12:28:14Z</time></trkpt><trkpt lat="44.5796825652521" lon="8.034512587065574"><ele>541.0</ele><time>2026-04-19T12:28:15Z</time></trkpt><trkpt lat="44.57962279318663" lon="8.034752767263232"><ele>541.0</ele><time>2026-04-19T12:28:16Z</time></trkpt><trkpt lat="44.579570654428224" lon="8.034979328338647"><ele>541.0</ele><time>2026-04-19T12:28:17Z</time></trkpt><trkpt lat="44.579509892924946" lon="8.035178428391083"><ele>541.8</ele><time>2026-04-19T12:28:18Z</time></trkpt><trkpt lat="44.579465530243226" lon="8.035348012417694"><ele>542.6</ele><time>2026-04-19T12:28:19Z</time></trkpt><trkpt lat="44.57942694833977" lon="8.035488849005441"><ele>543.4</ele><time>2026-04-19T12:28:20Z</time></trkpt><trkpt lat="44.57934459595095" lon="8.035567453783237"><ele>544.2</ele><time>2026-04-19T12:28:21Z</time></trkpt><trkpt lat="44.57924748802361" lon="8.035595208115422"><ele>545.0</ele><time>2026-04-19T12:28:22Z</time></trkpt><trkpt lat="44.57913807033157" lon="8.035557468592897"><ele>545.0</ele><time>2026-04-19T12:28:23Z</time></trkpt><trkpt lat="44.57901268340586" lon="8.03551534703038"><ele>545.0</ele><time>2026-04-19T12:28:24Z</time></trkpt><trkpt lat="44.57887017783403" lon="8.035484937467537"><ele>545.0</ele><time>2026-04-19T12:28:25Z</time></trkpt><trkpt lat="44.578713183206794" lon="8.035425983049537"><ele>545.0</ele><time>2026-04-19T12:28:26Z</time></trkpt><trkpt lat="44.578540080974456" lon="8.035365901249"><ele>547.0</ele><time>2026-04-19T12:28:27Z</time></trkpt><trkpt lat="44.57835978811746" lon="8.035300122792357"><ele>549.0</ele><time>2026-04-19T12:28:28Z</time></trkpt><trkpt lat="44.578198911650105" lon="8.03524033841835"><ele>551.0</ele><time>2026-04-19T12:28:29Z</time></trkpt><trkpt lat="44.57805561656248" lon="8.035191609469013"><ele>551.0</ele><time>2026-04-19T12:28:30Z</time></trkpt><trkpt lat="44.57792224055156" lon="8.035154076900453"><ele>551.0</ele><time>2026-04-19T12:28:31Z</time></trkpt><trkpt lat="44.57780449706251" lon="8.035154571515864"><ele>551.0</ele><time>2026-04-19T12:28:32Z</time></trkpt><trkpt lat="44.57771476359927" lon="8.03520463157999"><ele>551.0</ele><time>2026-04-19T12:28:33Z</time></trkpt><trkpt lat="44.577653693920254" lon="8.035302485772355"><ele>551.0</ele><time>2026-04-19T12:28:34Z</time></trkpt><trkpt lat="44.57761150351191" lon="8.03543542022375"><ele>551.5</ele><time>2026-04-19T12:28:35Z</time></trkpt><trkpt lat="44.5775805565853" lon="8.03559695013203"><ele>552.0</ele><time>2026-04-19T12:28:36Z</time></trkpt><trkpt lat="44.57756071119522" lon="8.035774174158957"><ele>552.5</ele><time>2026-04-19T12:28:37Z</time></trkpt><trkpt lat="44.577562518685355" lon="8.035969865460277"><ele>553.0</ele><time>2026-04-19T12:28:38Z</time></trkpt><trkpt lat="44.57759642511364" lon="8.03618106268068"><ele>553.0</ele><time>2026-04-19T12:28:39Z</time></trkpt><trkpt lat="44.57763424768729" lon="8.036413596315416"><ele>553.0</ele><time>2026-04-19T12:28:40Z</time></trkpt><trkpt lat="44.577660748074436" lon="8.036667528168726"><ele>553.0</ele><time>2026-04-19T12:28:41Z</time></trkpt><trkpt lat="44.57767691756021" lon="8.036929646513688"><ele>553.0</ele><time>2026-04-19T12:28:42Z</time></trkpt><trkpt lat="44.57768263740979" lon="8.037165656098127"><ele>553.0</ele><time>2026-04-19T12:28:43Z</time></trkpt><trkpt lat="44.57768068486608" lon="8.03737710847915"><ele>553.0</ele><time>2026-04-19T12:28:44Z</time></trkpt><trkpt lat="44.57766868314442" lon="8.037585744011341"><ele>554.25</ele><time>2026-04-19T12:28:45Z</time></trkpt><trkpt lat="44.57764897903424" lon="8.037792035553878"><ele>555.5</ele><time>2026-04-19T12:28:46Z</time></trkpt><trkpt lat="44.57761978341661" lon="8.037993425653283"><ele>556.75</ele><time>2026-04-19T12:28:47Z</time></trkpt><trkpt lat="44.5775785586236" lon="8.038197673110872"><ele>558.0</ele><time>2026-04-19T12:28:48Z</time></trkpt><trkpt lat="44.57753202840996" lon="8.03840428650039"><ele>562.0</ele><time>2026-04-19T12:28:49Z</time></trkpt><trkpt lat="44.57748517193131" lon="8.038623787605385"><ele>566.0</ele><time>2026-04-19T12:28:50Z</time></trkpt><trkpt lat="44.57743232740496" lon="8.03884538360817"><ele>570.0</ele><time>2026-04-19T12:28:51.001Z</time></trkpt><trkpt lat="44.577367397265064" lon="8.039064474576307"><ele>574.6666666666666</ele><time>2026-04-19T12:28:52.001Z</time></trkpt><trkpt lat="44.57728863974566" lon="8.039280173501764"><ele>579.3333333333333</ele><time>2026-04-19T12:28:53.001Z</time></trkpt><trkpt lat="44.577195615930215" lon="8.039500899196339"><ele>584.0</ele><time>2026-04-19T12:28:54.001Z</time></trkpt><trkpt lat="44.57709693298865" lon="8.039737243968398"><ele>579.0</ele><time>2026-04-19T12:28:55.001Z</time></trkpt><trkpt lat="44.57699656330883" lon="8.039989692939203"><ele>574.0</ele><time>2026-04-19T12:28:56.001Z</time></trkpt><trkpt lat="44.57689209571723" lon="8.04025156610984"><ele>569.0</ele><time>2026-04-19T12:28:57.001Z</time></trkpt><trkpt lat="44.57678203876464" lon="8.040524603325887"><ele>569.0</ele><time>2026-04-19T12:28:58.001Z</time></trkpt><trkpt lat="44.57668510856184" lon="8.04078824733671"><ele>569.0</ele><time>2026-04-19T12:28:59.001Z</time></trkpt><trkpt lat="44.57660154485501" lon="8.041040555889175"><ele>569.0</ele><time>2026-04-19T12:29:00.001Z</time></trkpt><trkpt lat="44.57653119445663" lon="8.041280403587631"><ele>575.3333333333333</ele><time>2026-04-19T12:29:01.001Z</time></trkpt><trkpt lat="44.5764515486812" lon="8.041500682957446"><ele>581.6666666666666</ele><time>2026-04-19T12:29:02.001Z</time></trkpt><trkpt lat="44.57639287865715" lon="8.041716187991662"><ele>588.0</ele><time>2026-04-19T12:29:03.001Z</time></trkpt><trkpt lat="44.576343231071725" lon="8.041917058087003"><ele>591.25</ele><time>2026-04-19T12:29:04.001Z</time></trkpt><trkpt lat="44.576251039088596" lon="8.042084487847108"><ele>594.5</ele><time>2026-04-19T12:29:05.001Z</time></trkpt><trkpt lat="44.57612806471372" lon="8.042229992521818"><ele>597.75</ele><time>2026-04-19T12:29:06.001Z</time></trkpt><trkpt lat="44.57601949159857" lon="8.042342118352565"><ele>601.0</ele><time>2026-04-19T12:29:07.001Z</time></trkpt><trkpt lat="44.5759348883254" lon="8.042450493928326"><ele>598.6</ele><time>2026-04-19T12:29:08.001Z</time></trkpt><trkpt lat="44.575893259610815" lon="8.04256056446393"><ele>596.2</ele><time>2026-04-19T12:29:09.001Z</time></trkpt><trkpt lat="44.57589965140592" lon="8.042688305767937"><ele>593.8</ele><time>2026-04-19T12:29:10.001Z</time></trkpt><trkpt lat="44.57595019069153" lon="8.042802325853351"><ele>591.4</ele><time>2026-04-19T12:29:11.001Z</time></trkpt><trkpt lat="44.57603937404907" lon="8.042883213432985"><ele>589.0</ele><time>2026-04-19T12:29:12.001Z</time></trkpt><trkpt lat="44.576158958949485" lon="8.042921515786778"><ele>596.6666666666667</ele><time>2026-04-19T12:29:13.001Z</time></trkpt><trkpt lat="44.57630108809158" lon="8.042978664255175"><ele>604.3333333333334</ele><time>2026-04-19T12:29:14.001Z</time></trkpt><trkpt lat="44.576463814077464" lon="8.043045129330878"><ele>612.0</ele><time>2026-04-19T12:29:15.001Z</time></trkpt><trkpt lat="44.576645134320266" lon="8.04312534360576"><ele>612.0</ele><time>2026-04-19T12:29:16.001Z</time></trkpt><trkpt lat="44.57684512228771" lon="8.043221047012358"><ele>612.0</ele><time>2026-04-19T12:29:17.001Z</time></trkpt><trkpt lat="44.57705877723679" lon="8.0433216765408"><ele>612.0</ele><time>2026-04-19T12:29:18.001Z</time></trkpt><trkpt lat="44.577255687396644" lon="8.043497477578262"><ele>616.5</ele><time>2026-04-19T12:29:19.001Z</time></trkpt><trkpt lat="44.57744073270507" lon="8.043713291936458"><ele>621.0</ele><time>2026-04-19T12:29:20.001Z</time></trkpt><trkpt lat="44.577612786813475" lon="8.043940138925425"><ele>619.6666666666666</ele><time>2026-04-19T12:29:21.001Z</time></trkpt><trkpt lat="44.5777665141773" lon="8.044152170320338"><ele>618.3333333333333</ele><time>2026-04-19T12:29:22.001Z</time></trkpt><trkpt lat="44.57791119635197" lon="8.044348072383018"><ele>617.0</ele><time>2026-04-19T12:29:23.001Z</time></trkpt><trkpt lat="44.57805067893513" lon="8.044523001165766"><ele>617.0</ele><time>2026-04-19T12:29:24.001Z</time></trkpt><trkpt lat="44.57816174307444" lon="8.04471083014372"><ele>617.0</ele><time>2026-04-19T12:29:25.001Z</time></trkpt><trkpt lat="44.578279561452234" lon="8.044876562684195"><ele>617.0</ele><time>2026-04-19T12:29:26.001Z</time></trkpt><trkpt lat="44.578357958900575" lon="8.045084212096826"><ele>618.0</ele><time>2026-04-19T12:29:27.001Z</time></trkpt><trkpt lat="44.57840217657873" lon="8.045301210341027"><ele>619.0</ele><time>2026-04-19T12:29:28.001Z</time></trkpt><trkpt lat="44.57840908908725" lon="8.045527671269774"><ele>620.0</ele><time>2026-04-19T12:29:29.001Z</time></trkpt><trkpt lat="44.57837887331549" lon="8.04576150294635"><ele>622.3333333333333</ele><time>2026-04-19T12:29:30.001Z</time></trkpt><trkpt lat="44.57831735078246" lon="8.04599735289163"><ele>624.6666666666666</ele><time>2026-04-19T12:29:31.001Z</time></trkpt><trkpt lat="44.578224320512156" lon="8.046226675943823"><ele>627.0</ele><time>2026-04-19T12:29:32.001Z</time></trkpt><trkpt lat="44.57809837003876" lon="8.046437726897597"><ele>626.3333333333334</ele><time>2026-04-19T12:29:33.001Z</time></trkpt><trkpt lat="44.577950283919904" lon="8.046638574074153"><ele>625.6666666666667</ele><time>2026-04-19T12:29:34.001Z</time></trkpt><trkpt lat="44.57780317286914" lon="8.046844406336085"><ele>625.0</ele><time>2026-04-19T12:29:35.001Z</time></trkpt><trkpt lat="44.577671882565106" lon="8.047034268054125"><ele>625.0</ele><time>2026-04-19T12:29:36.001Z</time></trkpt><trkpt lat="44.57754743318895" lon="8.047203435018911"><ele>625.0</ele><time>2026-04-19T12:29:37.001Z</time></trkpt><trkpt lat="44.57743827909984" lon="8.047347797700345"><ele>625.0</ele><time>2026-04-19T12:29:38.001Z</time></trkpt><trkpt lat="44.57734895504308" lon="8.047470903233368"><ele>625.0</ele><time>2026-04-19T12:29:39.001Z</time></trkpt><trkpt lat="44.577281355525905" lon="8.047572093840165"><ele>627.1666666666667</ele><time>2026-04-19T12:29:40.001Z</time></trkpt><trkpt lat="44.57724348690397" lon="8.04767090978715"><ele>629.3333333333334</ele><time>2026-04-19T12:29:41.001Z</time></trkpt><trkpt lat="44.57725348195567" lon="8.047767812383578"><ele>631.5</ele><time>2026-04-19T12:29:42.001Z</time></trkpt><trkpt lat="44.57729812163818" lon="8.047845962205885"><ele>633.6666666666666</ele><time>2026-04-19T12:29:43.001Z</time></trkpt><trkpt lat="44.57738244120335" lon="8.047879512567736"><ele>635.8333333333333</ele><time>2026-04-19T12:29:44.001Z</time></trkpt><trkpt lat="44.57748182693256" lon="8.047870652211095"><ele>638.0</ele><time>2026-04-19T12:29:45.001Z</time></trkpt><trkpt lat="44.57759348892328" lon="8.047813870644033"><ele>638.0</ele><time>2026-04-19T12:29:46.001Z</time></trkpt><trkpt lat="44.577730706028724" lon="8.0477648231835"><ele>638.0</ele><time>2026-04-19T12:29:47.001Z</time></trkpt><trkpt lat="44.57788538429259" lon="8.0477054768905"><ele>638.0</ele><time>2026-04-19T12:29:48.001Z</time></trkpt><trkpt lat="44.57806136218368" lon="8.047638998204032"><ele>636.6666666666666</ele><time>2026-04-19T12:29:49.001Z</time></trkpt><trkpt lat="44.57825944091346" lon="8.047564999468644"><ele>635.3333333333334</ele><time>2026-04-19T12:29:50.001Z</time></trkpt><trkpt lat="44.57844839956554" lon="8.047494407877153"><ele>634.0</ele><time>2026-04-19T12:29:51.001Z</time></trkpt><trkpt lat="44.57860170739138" lon="8.047437134830139"><ele>635.6</ele><time>2026-04-19T12:29:52.001Z</time></trkpt><trkpt lat="44.578729049354514" lon="8.047394169790895"><ele>637.2</ele><time>2026-04-19T12:29:53.001Z</time></trkpt><trkpt lat="44.578842501811785" lon="8.047360692069368"><ele>638.8000000000001</ele><time>2026-04-19T12:29:54.001Z</time></trkpt><trkpt lat="44.57894240789925" lon="8.047345584868342"><ele>640.4</ele><time>2026-04-19T12:29:55.001Z</time></trkpt><trkpt lat="44.579026039294824" lon="8.047419938683351"><ele>642.0</ele><time>2026-04-19T12:29:56.001Z</time></trkpt><trkpt lat="44.57907082861891" lon="8.047530170472129"><ele>643.4000000000001</ele><time>2026-04-19T12:29:57.001Z</time></trkpt><trkpt lat="44.57909050903574" lon="8.047657785694113"><ele>644.8000000000001</ele><time>2026-04-19T12:29:58.001Z</time></trkpt><trkpt lat="44.57907810959792" lon="8.047789297814496"><ele>646.2</ele><time>2026-04-19T12:29:59.001Z</time></trkpt><trkpt lat="44.579032927034596" lon="8.047890128536068"><ele>647.6</ele><time>2026-04-19T12:30:00.001Z</time></trkpt><trkpt lat="44.578951461084" lon="8.04793220310085"><ele>649.0</ele><time>2026-04-19T12:30:01.001Z</time></trkpt><trkpt lat="44.57885749777011" lon="8.048005707342428"><ele>649.0</ele><time>2026-04-19T12:30:02.001Z</time></trkpt><trkpt lat="44.57873322859134" lon="8.048038839776643"><ele>649.0</ele><time>2026-04-19T12:30:03.001Z</time></trkpt><trkpt lat="44.57860391863321" lon="8.04810830788993"><ele>649.0</ele><time>2026-04-19T12:30:04.001Z</time></trkpt><trkpt lat="44.57845719881744" lon="8.048196960659048"><ele>649.0</ele><time>2026-04-19T12:30:05.001Z</time></trkpt><trkpt lat="44.578295617725324" lon="8.048280324354682"><ele>651.3333333333334</ele><time>2026-04-19T12:30:06.001Z</time></trkpt><trkpt lat="44.578125453808845" lon="8.048367480252965"><ele>653.6666666666666</ele><time>2026-04-19T12:30:07.001Z</time></trkpt><trkpt lat="44.57795561896176" lon="8.048462218830617"><ele>656.0</ele><time>2026-04-19T12:30:08.001Z</time></trkpt><trkpt lat="44.57780954890328" lon="8.048554289877925"><ele>656.0</ele><time>2026-04-19T12:30:09.001Z</time></trkpt><trkpt lat="44.57768035936437" lon="8.048651757370296"><ele>656.0</ele><time>2026-04-19T12:30:10.001Z</time></trkpt><trkpt lat="44.577581122533324" lon="8.048771464480755"><ele>656.0</ele><time>2026-04-19T12:30:11.001Z</time></trkpt><trkpt lat="44.577509845474566" lon="8.048911566156395"><ele>656.0</ele><time>2026-04-19T12:30:12.001Z</time></trkpt><trkpt lat="44.577481121178465" lon="8.049080594602678"><ele>658.25</ele><time>2026-04-19T12:30:13.001Z</time></trkpt><trkpt lat="44.577487771979285" lon="8.049247905734523"><ele>660.5</ele><time>2026-04-19T12:30:14.001Z</time></trkpt><trkpt lat="44.57753295016976" lon="8.049410414514114"><ele>662.75</ele><time>2026-04-19T12:30:15.001Z</time></trkpt><trkpt lat="44.57762485289579" lon="8.049572325703616"><ele>665.0</ele><time>2026-04-19T12:30:16.001Z</time></trkpt><trkpt lat="44.577728713360045" lon="8.049750388938168"><ele>665.0</ele><time>2026-04-19T12:30:17.001Z</time></trkpt><trkpt lat="44.57780345306035" lon="8.049952162952698"><ele>665.0</ele><time>2026-04-19T12:30:18.001Z</time></trkpt><trkpt lat="44.577842777922946" lon="8.0501839175511"><ele>665.0</ele><time>2026-04-19T12:30:19.001Z</time></trkpt><trkpt lat="44.57784618294161" lon="8.050435556718975"><ele>664.6666666666666</ele><time>2026-04-19T12:30:20.001Z</time></trkpt><trkpt lat="44.57783578299636" lon="8.05069930350181"><ele>664.3333333333334</ele><time>2026-04-19T12:30:21.001Z</time></trkpt><trkpt lat="44.57783236252246" lon="8.050935322032645"><ele>664.0</ele><time>2026-04-19T12:30:22.001Z</time></trkpt><trkpt lat="44.57784118397375" lon="8.051145720392476"><ele>669.25</ele><time>2026-04-19T12:30:23.001Z</time></trkpt><trkpt lat="44.57786952542607" lon="8.051335734184324"><ele>674.5</ele><time>2026-04-19T12:30:24.001Z</time></trkpt><trkpt lat="44.57792561061697" lon="8.051510730710088"><ele>679.75</ele><time>2026-04-19T12:30:25.001Z</time></trkpt><trkpt lat="44.57802290990209" lon="8.051661849545617"><ele>685.0</ele><time>2026-04-19T12:30:26.001Z</time></trkpt><trkpt lat="44.578160606403536" lon="8.051788308003747"><ele>685.0</ele><time>2026-04-19T12:30:27.001Z</time></trkpt><trkpt lat="44.578317000149745" lon="8.051915117545619"><ele>685.0</ele><time>2026-04-19T12:30:28.001Z</time></trkpt><trkpt lat="44.57847242581166" lon="8.052075036997248"><ele>685.0</ele><time>2026-04-19T12:30:29.001Z</time></trkpt><trkpt lat="44.578614145859255" lon="8.052288391412795"><ele>684.3333333333334</ele><time>2026-04-19T12:30:30.001Z</time></trkpt><trkpt lat="44.57877065409484" lon="8.052500823443221"><ele>683.6666666666666</ele><time>2026-04-19T12:30:31.001Z</time></trkpt><trkpt lat="44.578895918830426" lon="8.052758375156996"><ele>683.0</ele><time>2026-04-19T12:30:32.001Z</time></trkpt><trkpt lat="44.57899232627298" lon="8.053013366668118"><ele>683.0</ele><time>2026-04-19T12:30:33.001Z</time></trkpt><trkpt lat="44.57907002448617" lon="8.05326259745884"><ele>683.0</ele><time>2026-04-19T12:30:34.001Z</time></trkpt><trkpt lat="44.57913804936552" lon="8.053501819487028"><ele>683.0</ele><time>2026-04-19T12:30:35.001Z</time></trkpt><trkpt lat="44.57918781404728" lon="8.053738795935635"><ele>685.3333333333333</ele><time>2026-04-19T12:30:36.001Z</time></trkpt><trkpt lat="44.5792028187927" lon="8.053979803923564"><ele>687.6666666666666</ele><time>2026-04-19T12:30:37.001Z</time></trkpt><trkpt lat="44.57918631998427" lon="8.054229510972997"><ele>690.0</ele><time>2026-04-19T12:30:38.001Z</time></trkpt><trkpt lat="44.5791412667748" lon="8.054453437611462"><ele>691.3333333333334</ele><time>2026-04-19T12:30:39.001Z</time></trkpt><trkpt lat="44.57906263341301" lon="8.054653912054894"><ele>692.6666666666667</ele><time>2026-04-19T12:30:40.001Z</time></trkpt><trkpt lat="44.578952563189425" lon="8.054807462190926"><ele>694.0</ele><time>2026-04-19T12:30:41.001Z</time></trkpt><trkpt lat="44.57882988176209" lon="8.054921060586821"><ele>695.5</ele><time>2026-04-19T12:30:42.001Z</time></trkpt><trkpt lat="44.5787252083414" lon="8.055038779192476"><ele>697.0</ele><time>2026-04-19T12:30:43.001Z</time></trkpt><trkpt lat="44.5786475093398" lon="8.05520123882909"><ele>698.5</ele><time>2026-04-19T12:30:44.001Z</time></trkpt><trkpt lat="44.57860385205136" lon="8.0554004800135"><ele>700.0</ele><time>2026-04-19T12:30:45.001Z</time></trkpt><trkpt lat="44.578595321398105" lon="8.055626676663687"><ele>694.0</ele><time>2026-04-19T12:30:46.001Z</time></trkpt><trkpt lat="44.57860247309558" lon="8.055873223176642"><ele>688.0</ele><time>2026-04-19T12:30:47.001Z</time></trkpt><trkpt lat="44.57860329391809" lon="8.05613540203199"><ele>682.0</ele><time>2026-04-19T12:30:48.001Z</time></trkpt><trkpt lat="44.57860155088302" lon="8.056413423102157"><ele>682.3333333333334</ele><time>2026-04-19T12:30:49.001Z</time></trkpt><trkpt lat="44.57859848946775" lon="8.056677736012103"><ele>682.6666666666666</ele><time>2026-04-19T12:30:50.001Z</time></trkpt><trkpt lat="44.57859773960936" lon="8.056913607080403"><ele>683.0</ele><time>2026-04-19T12:30:51.001Z</time></trkpt><trkpt lat="44.578609787956836" lon="8.05712674340035"><ele>683.0</ele><time>2026-04-19T12:30:52.001Z</time></trkpt><trkpt lat="44.57864801344967" lon="8.057316382370548"><ele>683.0</ele><time>2026-04-19T12:30:53.001Z</time></trkpt><trkpt lat="44.57872684410126" lon="8.057485633938663"><ele>683.0</ele><time>2026-04-19T12:30:54.001Z</time></trkpt><trkpt lat="44.57883856289394" lon="8.057638907907677"><ele>683.0</ele><time>2026-04-19T12:30:55.001Z</time></trkpt><trkpt lat="44.57893683872456" lon="8.057789391124974"><ele>685.75</ele><time>2026-04-19T12:30:56.001Z</time></trkpt><trkpt lat="44.5790229001595" lon="8.057924731432998"><ele>688.5</ele><time>2026-04-19T12:30:57.001Z</time></trkpt><trkpt lat="44.579091238617075" lon="8.058072648057228"><ele>691.25</ele><time>2026-04-19T12:30:58.001Z</time></trkpt><trkpt lat="44.57910649126488" lon="8.058274949333853"><ele>694.0</ele><time>2026-04-19T12:30:59.001Z</time></trkpt><trkpt lat="44.579081803016244" lon="8.058494105678001"><ele>694.0</ele><time>2026-04-19T12:31:00.001Z</time></trkpt><trkpt lat="44.57901956633481" lon="8.05871035048645"><ele>694.0</ele><time>2026-04-19T12:31:01.001Z</time></trkpt><trkpt lat="44.578933408079756" lon="8.05890541000051"><ele>694.0</ele><time>2026-04-19T12:31:02.001Z</time></trkpt><trkpt lat="44.57885773774445" lon="8.059082892716374"><ele>695.3333333333334</ele><time>2026-04-19T12:31:03.001Z</time></trkpt><trkpt lat="44.578807231619365" lon="8.05928125880424"><ele>696.6666666666666</ele><time>2026-04-19T12:31:04.001Z</time></trkpt><trkpt lat="44.578776972920885" lon="8.05949545730483"><ele>698.0</ele><time>2026-04-19T12:31:05.001Z</time></trkpt><trkpt lat="44.5787637418002" lon="8.059721918216209"><ele>698.0</ele><time>2026-04-19T12:31:06.001Z</time></trkpt><trkpt lat="44.57876048511653" lon="8.059949799187217"><ele>698.0</ele><time>2026-04-19T12:31:07.001Z</time></trkpt><trkpt lat="44.57875680621265" lon="8.060168308352884"><ele>698.0</ele><time>2026-04-19T12:31:08.001Z</time></trkpt><trkpt lat="44.57873826401693" lon="8.060373248394479"><ele>693.6666666666666</ele><time>2026-04-19T12:31:09.001Z</time></trkpt><trkpt lat="44.57868345771175" lon="8.0605645703065"><ele>689.3333333333334</ele><time>2026-04-19T12:31:10.001Z</time></trkpt><trkpt lat="44.57858592453332" lon="8.060755016330738"><ele>685.0</ele><time>2026-04-19T12:31:11.001Z</time></trkpt><trkpt lat="44.57846203390077" lon="8.060921516735895"><ele>685.0</ele><time>2026-04-19T12:31:12.001Z</time></trkpt><trkpt lat="44.57836032688825" lon="8.061112168764447"><ele>685.0</ele><time>2026-04-19T12:31:13.001Z</time></trkpt><trkpt lat="44.57829376824006" lon="8.061352670220309"><ele>685.0</ele><time>2026-04-19T12:31:14.001Z</time></trkpt><trkpt lat="44.578263016720875" lon="8.061644832128273"><ele>684.0</ele><time>2026-04-19T12:31:15.001Z</time></trkpt><trkpt lat="44.5782269763451" lon="8.061963466444206"><ele>683.0</ele><time>2026-04-19T12:31:16.001Z</time></trkpt><trkpt lat="44.5781753860171" lon="8.062304536903609"><ele>681.5</ele><time>2026-04-19T12:31:17.001Z</time></trkpt><trkpt lat="44.578121054918036" lon="8.062669897785796"><ele>680.0</ele><time>2026-04-19T12:31:18.001Z</time></trkpt><trkpt lat="44.578073815412154" lon="8.063015348564607"><ele>681.5</ele><time>2026-04-19T12:31:19.001Z</time></trkpt><trkpt lat="44.578027275837655" lon="8.063339178236115"><ele>683.0</ele><time>2026-04-19T12:31:20.001Z</time></trkpt><trkpt lat="44.577967855137686" lon="8.063666633850257"><ele>683.0</ele><time>2026-04-19T12:31:21.001Z</time></trkpt><trkpt lat="44.57788943929354" lon="8.063999483911683"><ele>683.0</ele><time>2026-04-19T12:31:22.001Z</time></trkpt><trkpt lat="44.57779970895172" lon="8.06433746017495"><ele>691.5</ele><time>2026-04-19T12:31:23.001Z</time></trkpt><trkpt lat="44.57769356986308" lon="8.064676170225734"><ele>700.0</ele><time>2026-04-19T12:31:24.001Z</time></trkpt><trkpt lat="44.577564314720185" lon="8.065004894163861"><ele>701.5</ele><time>2026-04-19T12:31:25.001Z</time></trkpt><trkpt lat="44.57741672909976" lon="8.065325048931197"><ele>703.0</ele><time>2026-04-19T12:31:26.001Z</time></trkpt><trkpt lat="44.57727638337826" lon="8.06563562675171"><ele>699.5</ele><time>2026-04-19T12:31:27.001Z</time></trkpt><trkpt lat="44.57714659329793" lon="8.06593111299967"><ele>696.0</ele><time>2026-04-19T12:31:28.001Z</time></trkpt><trkpt lat="44.57702455076438" lon="8.066210419451702"><ele>701.0</ele><time>2026-04-19T12:31:29.001Z</time></trkpt><trkpt lat="44.5769062530852" lon="8.066472717653498"><ele>706.0</ele><time>2026-04-19T12:31:30.001Z</time></trkpt><trkpt lat="44.57679773150716" lon="8.066723817839502"><ele>711.0</ele><time>2026-04-19T12:31:31.001Z</time></trkpt><trkpt lat="44.57669723050615" lon="8.066957002407191"><ele>711.0</ele><time>2026-04-19T12:31:32.001Z</time></trkpt><trkpt lat="44.576598387862816" lon="8.067175525800364"><ele>711.0</ele><time>2026-04-19T12:31:33.001Z</time></trkpt><trkpt lat="44.5764993308367" lon="8.067396810482673"><ele>711.0</ele><time>2026-04-19T12:31:34.001Z</time></trkpt><trkpt lat="44.57640124395433" lon="8.067619119217376"><ele>709.6666666666666</ele><time>2026-04-19T12:31:35.001Z</time></trkpt><trkpt lat="44.57630974910791" lon="8.067826301234891"><ele>708.3333333333333</ele><time>2026-04-19T12:31:36.001Z</time></trkpt><trkpt lat="44.57622236492049" lon="8.068019047030944"><ele>707.0</ele><time>2026-04-19T12:31:37.001Z</time></trkpt><trkpt lat="44.57614057596114" lon="8.068197716256705"><ele>713.25</ele><time>2026-04-19T12:31:38.001Z</time></trkpt><trkpt lat="44.576066766813135" lon="8.06836314832194"><ele>719.5</ele><time>2026-04-19T12:31:39.001Z</time></trkpt><trkpt lat="44.576006922425826" lon="8.068522327776538"><ele>725.75</ele><time>2026-04-19T12:31:40.001Z</time></trkpt><trkpt lat="44.57596509198657" lon="8.068675047192702"><ele>732.0</ele><time>2026-04-19T12:31:41.001Z</time></trkpt><trkpt lat="44.575941085465544" lon="8.068822634890084"><ele>732.0</ele><time>2026-04-19T12:31:42.001Z</time></trkpt><trkpt lat="44.57594067932909" lon="8.068983038772824"><ele>732.0</ele><time>2026-04-19T12:31:43.001Z</time></trkpt><trkpt lat="44.5759644374066" lon="8.069154829527491"><ele>732.0</ele><time>2026-04-19T12:31:44.001Z</time></trkpt><trkpt lat="44.57600469909641" lon="8.069345219230634"><ele>732.0</ele><time>2026-04-19T12:31:45.001Z</time></trkpt><trkpt lat="44.57606430760042" lon="8.069554210748864"><ele>729.3333333333334</ele><time>2026-04-19T12:31:46.001Z</time></trkpt><trkpt lat="44.57613506658036" lon="8.069790976507672"><ele>726.6666666666667</ele><time>2026-04-19T12:31:47.001Z</time></trkpt><trkpt lat="44.57620696841991" lon="8.070026157030883"><ele>724.0</ele><time>2026-04-19T12:31:48.001Z</time></trkpt><trkpt lat="44.57626615899097" lon="8.07022854063308"><ele>723.4000000000001</ele><time>2026-04-19T12:31:49.001Z</time></trkpt><trkpt lat="44.57631679170531" lon="8.070403483919176"><ele>722.8</ele><time>2026-04-19T12:31:50.001Z</time></trkpt><trkpt lat="44.576358001848874" lon="8.070545198870626"><ele>722.2</ele><time>2026-04-19T12:31:51.001Z</time></trkpt><trkpt lat="44.57638799497056" lon="8.070651573720678"><ele>721.5999999999999</ele><time>2026-04-19T12:31:52.001Z</time></trkpt><trkpt lat="44.576413424681185" lon="8.070742987323632"><ele>721.0</ele><time>2026-04-19T12:31:53.001Z</time></trkpt><trkpt lat="44.57643537965887" lon="8.070895244980916"><ele>721.0</ele><time>2026-04-19T12:31:55.001Z</time></trkpt><trkpt lat="44.57639573414359" lon="8.071091690661756"><ele>721.0</ele><time>2026-04-19T12:31:58.001Z</time></trkpt><trkpt lat="44.576372685900395" lon="8.071214500379867"><ele>721.0</ele><time>2026-04-19T12:32:01.001Z</time></trkpt><trkpt lat="44.57643933200859" lon="8.071336458761225"><ele>721.0</ele><time>2026-04-19T12:32:03.001Z</time></trkpt><trkpt lat="44.57650268753297" lon="8.0714093890583"><ele>721.0</ele><time>2026-04-19T12:32:04.001Z</time></trkpt><trkpt lat="44.57657611157709" lon="8.071487526565823"><ele>721.0</ele><time>2026-04-19T12:32:05.001Z</time></trkpt><trkpt lat="44.57665865676539" lon="8.071573753912247"><ele>721.0</ele><time>2026-04-19T12:32:06.001Z</time></trkpt><trkpt lat="44.57673714046098" lon="8.071649504374978"><ele>721.0</ele><time>2026-04-19T12:32:07.001Z</time></trkpt><trkpt lat="44.57680556941267" lon="8.071736368279506"><ele>721.0</ele><time>2026-04-19T12:32:08.001Z</time></trkpt><trkpt lat="44.57685819141967" lon="8.07183310155777"><ele>721.0</ele><time>2026-04-19T12:32:09.001Z</time></trkpt><trkpt lat="44.57687966273905" lon="8.072062345033375"><ele>721.1999999999999</ele><time>2026-04-19T12:32:11.001Z</time></trkpt><trkpt lat="44.57687129187993" lon="8.072181450924582"><ele>721.4</ele><time>2026-04-19T12:32:12.001Z</time></trkpt><trkpt lat="44.576872580655845" lon="8.072308373096964"><ele>721.6</ele><time>2026-04-19T12:32:13.001Z</time></trkpt><trkpt lat="44.576858583465324" lon="8.072434606762412"><ele>721.8</ele><time>2026-04-19T12:32:14.001Z</time></trkpt><trkpt lat="44.57685389660585" lon="8.072553749608861"><ele>722.0</ele><time>2026-04-19T12:32:15.001Z</time></trkpt><trkpt lat="44.577031952933716" lon="8.072294464311383"><ele>722.5</ele><time>2026-04-19T12:32:17.001Z</time></trkpt><trkpt lat="44.5774211222032" lon="8.072417669712484"><ele>723.0</ele><time>2026-04-19T12:32:18.001Z</time></trkpt><trkpt lat="44.57752389189065" lon="8.072540144542277"><ele>723.0</ele><time>2026-04-19T12:32:19.001Z</time></trkpt><trkpt lat="44.57762596434386" lon="8.072644802527856"><ele>723.0</ele><time>2026-04-19T12:32:20.001Z</time></trkpt><trkpt lat="44.577718602632935" lon="8.07277099544239"><ele>723.0</ele><time>2026-04-19T12:32:21.001Z</time></trkpt><trkpt lat="44.57781754374933" lon="8.072905456422909"><ele>723.0</ele><time>2026-04-19T12:32:22.001Z</time></trkpt><trkpt lat="44.57791935546415" lon="8.073043818622526"><ele>722.75</ele><time>2026-04-19T12:32:23.001Z</time></trkpt><trkpt lat="44.57800920472198" lon="8.07319472664318"><ele>722.5</ele><time>2026-04-19T12:32:24.001Z</time></trkpt><trkpt lat="44.57809144822621" lon="8.073345765865817"><ele>722.25</ele><time>2026-04-19T12:32:25.001Z</time></trkpt><trkpt lat="44.57816546912002" lon="8.07349823578892"><ele>722.0</ele><time>2026-04-19T12:32:26.001Z</time></trkpt><trkpt lat="44.57762562567085" lon="8.07450972410469"><ele>722.0</ele><time>2026-04-19T12:32:27.001Z</time></trkpt><trkpt lat="44.577606382661195" lon="8.074734701464148"><ele>722.0</ele><time>2026-04-19T12:32:28.001Z</time></trkpt><trkpt lat="44.57756794499464" lon="8.074944688205905"><ele>722.0</ele><time>2026-04-19T12:32:29.001Z</time></trkpt><trkpt lat="44.57750881136768" lon="8.075141938478078"><ele>722.3333333333333</ele><time>2026-04-19T12:32:30.001Z</time></trkpt><trkpt lat="44.577432650719814" lon="8.075347969701738"><ele>722.6666666666666</ele><time>2026-04-19T12:32:31.001Z</time></trkpt><trkpt lat="44.577357798860284" lon="8.07556733419934"><ele>723.0</ele><time>2026-04-19T12:32:32.001Z</time></trkpt><trkpt lat="44.577284173889474" lon="8.075802347485208"><ele>723.0</ele><time>2026-04-19T12:32:33.001Z</time></trkpt><trkpt lat="44.57720712162713" lon="8.076048446034788"><ele>723.0</ele><time>2026-04-19T12:32:34.001Z</time></trkpt><trkpt lat="44.577127993461474" lon="8.076292226346984"><ele>723.0</ele><time>2026-04-19T12:32:35.001Z</time></trkpt><trkpt lat="44.577048749242536" lon="8.076532729986248"><ele>722.6666666666666</ele><time>2026-04-19T12:32:36.001Z</time></trkpt><trkpt lat="44.576974911922875" lon="8.07676116350869"><ele>722.3333333333333</ele><time>2026-04-19T12:32:37.001Z</time></trkpt><trkpt lat="44.576905779213675" lon="8.076980286854662"><ele>722.0</ele><time>2026-04-19T12:32:38.001Z</time></trkpt><trkpt lat="44.576841029263356" lon="8.07718904367196"><ele>722.0</ele><time>2026-04-19T12:32:39.001Z</time></trkpt><trkpt lat="44.57677708790772" lon="8.077385046742982"><ele>722.0</ele><time>2026-04-19T12:32:40.001Z</time></trkpt><trkpt lat="44.576715846419326" lon="8.077569497183681"><ele>722.0</ele><time>2026-04-19T12:32:41.001Z</time></trkpt><trkpt lat="44.576654695325495" lon="8.077749468919974"><ele>722.0</ele><time>2026-04-19T12:32:42.001Z</time></trkpt><trkpt lat="44.5765833735895" lon="8.07792651069943"><ele>722.6666666666666</ele><time>2026-04-19T12:32:43.001Z</time></trkpt><trkpt lat="44.57648846156774" lon="8.0780954295068"><ele>723.3333333333334</ele><time>2026-04-19T12:32:44.001Z</time></trkpt><trkpt lat="44.576367701439885" lon="8.07825077099524"><ele>724.0</ele><time>2026-04-19T12:32:45.001Z</time></trkpt><trkpt lat="44.57622725691332" lon="8.078396198886805"><ele>728.6666666666667</ele><time>2026-04-19T12:32:46.001Z</time></trkpt><trkpt lat="44.57607396944791" lon="8.078540749391255"><ele>733.3333333333334</ele><time>2026-04-19T12:32:47.001Z</time></trkpt><trkpt lat="44.575915986792765" lon="8.078684977482176"><ele>738.0</ele><time>2026-04-19T12:32:48.001Z</time></trkpt><trkpt lat="44.575758792225535" lon="8.078839336613198"><ele>738.0</ele><time>2026-04-19T12:32:49.001Z</time></trkpt><trkpt lat="44.57560784680072" lon="8.079020829969245"><ele>738.0</ele><time>2026-04-19T12:32:50.001Z</time></trkpt><trkpt lat="44.57546942309343" lon="8.079231538807038"><ele>738.0</ele><time>2026-04-19T12:32:51.001Z</time></trkpt><trkpt lat="44.57533880260934" lon="8.079447579586132"><ele>739.3333333333334</ele><time>2026-04-19T12:32:52.001Z</time></trkpt><trkpt lat="44.57521166175026" lon="8.079656120086861"><ele>740.6666666666667</ele><time>2026-04-19T12:32:53.001Z</time></trkpt><trkpt lat="44.57508702421114" lon="8.079852440048466"><ele>742.0</ele><time>2026-04-19T12:32:54.001Z</time></trkpt><trkpt lat="44.5749657021916" lon="8.080042545170075"><ele>737.3333333333334</ele><time>2026-04-19T12:32:55.001Z</time></trkpt><trkpt lat="44.57484729561752" lon="8.080227428490874"><ele>732.6666666666666</ele><time>2026-04-19T12:32:56.001Z</time></trkpt><trkpt lat="44.574727062512764" lon="8.08040227427559"><ele>728.0</ele><time>2026-04-19T12:32:57.001Z</time></trkpt><trkpt lat="44.57458505601" lon="8.080564999697037"><ele>728.0</ele><time>2026-04-19T12:32:58.001Z</time></trkpt><trkpt lat="44.5744201290459" lon="8.080714632160031"><ele>728.0</ele><time>2026-04-19T12:32:59.001Z</time></trkpt><trkpt lat="44.57424223045244" lon="8.080854127321167"><ele>728.0</ele><time>2026-04-19T12:33:00.001Z</time></trkpt><trkpt lat="44.57406047904455" lon="8.080994521901477"><ele>726.0</ele><time>2026-04-19T12:33:01.001Z</time></trkpt><trkpt lat="44.573882556109815" lon="8.081130741316924"><ele>724.0</ele><time>2026-04-19T12:33:02.001Z</time></trkpt><trkpt lat="44.573710669439976" lon="8.081263669434307"><ele>722.0</ele><time>2026-04-19T12:33:03.001Z</time></trkpt><trkpt lat="44.57354169713177" lon="8.081392821260087"><ele>718.6666666666666</ele><time>2026-04-19T12:33:04.001Z</time></trkpt><trkpt lat="44.573379485014485" lon="8.081513282907185"><ele>715.3333333333334</ele><time>2026-04-19T12:33:05.001Z</time></trkpt><trkpt lat="44.573229936136634" lon="8.081634193522488"><ele>712.0</ele><time>2026-04-19T12:33:06.001Z</time></trkpt><trkpt lat="44.57310615872727" lon="8.081772893075044"><ele>712.0</ele><time>2026-04-19T12:33:07.001Z</time></trkpt><trkpt lat="44.57301554325177" lon="8.081938137451557"><ele>712.0</ele><time>2026-04-19T12:33:08.001Z</time></trkpt><trkpt lat="44.57294984500289" lon="8.082131156136816"><ele>712.0</ele><time>2026-04-19T12:33:09.001Z</time></trkpt><trkpt lat="44.57290377316771" lon="8.08235550228892"><ele>712.6666666666667</ele><time>2026-04-19T12:33:10.001Z</time></trkpt><trkpt lat="44.57286859713263" lon="8.082604178169325"><ele>713.3333333333334</ele><time>2026-04-19T12:33:11.001Z</time></trkpt><trkpt lat="44.57283238966319" lon="8.08286635963497"><ele>714.0</ele><time>2026-04-19T12:33:12.001Z</time></trkpt><trkpt lat="44.57279614058887" lon="8.083144680990987"><ele>715.6666666666666</ele><time>2026-04-19T12:33:13.001Z</time></trkpt><trkpt lat="44.57276802788395" lon="8.083425510345457"><ele>717.3333333333333</ele><time>2026-04-19T12:33:14.001Z</time></trkpt><trkpt lat="44.57271317162929" lon="8.08368790503561"><ele>719.0</ele><time>2026-04-19T12:33:15.001Z</time></trkpt><trkpt lat="44.572677115413036" lon="8.083961139917612"><ele>719.3333333333333</ele><time>2026-04-19T12:33:16.001Z</time></trkpt><trkpt lat="44.57265062245646" lon="8.084145574109654"><ele>719.6666666666666</ele><time>2026-04-19T12:33:17.001Z</time></trkpt><trkpt lat="44.57264860185948" lon="8.084378197645119"><ele>720.0</ele><time>2026-04-19T12:33:18.001Z</time></trkpt><trkpt lat="44.57268340963512" lon="8.084621529314575"><ele>720.0</ele><time>2026-04-19T12:33:19.001Z</time></trkpt><trkpt lat="44.572770823777475" lon="8.084864811019303"><ele>720.0</ele><time>2026-04-19T12:33:20.001Z</time></trkpt><trkpt lat="44.57286861937776" lon="8.08510674744011"><ele>720.0</ele><time>2026-04-19T12:33:21.001Z</time></trkpt><trkpt lat="44.57297553563668" lon="8.085368483063672"><ele>717.0</ele><time>2026-04-19T12:33:22.001Z</time></trkpt><trkpt lat="44.57311698683848" lon="8.08562438959465"><ele>714.0</ele><time>2026-04-19T12:33:23.001Z</time></trkpt><trkpt lat="44.57325179429529" lon="8.085876340672392"><ele>714.0</ele><time>2026-04-19T12:33:24.001Z</time></trkpt><trkpt lat="44.57337403177929" lon="8.086107125011837"><ele>714.0</ele><time>2026-04-19T12:33:25.001Z</time></trkpt><trkpt lat="44.573470926597196" lon="8.086304564362875"><ele>714.0</ele><time>2026-04-19T12:33:26.001Z</time></trkpt><trkpt lat="44.5735379479046" lon="8.086466422084623"><ele>716.0</ele><time>2026-04-19T12:33:27.001Z</time></trkpt><trkpt lat="44.57357444532894" lon="8.086629218207133"><ele>718.0</ele><time>2026-04-19T12:33:28.001Z</time></trkpt><trkpt lat="44.573544410490086" lon="8.086804778516683"><ele>720.0</ele><time>2026-04-19T12:33:29.001Z</time></trkpt><trkpt lat="44.5734971580998" lon="8.08697378227238"><ele>722.0</ele><time>2026-04-19T12:33:30.001Z</time></trkpt><trkpt lat="44.57343207522349" lon="8.087167374555161"><ele>722.0</ele><time>2026-04-19T12:33:31.001Z</time></trkpt><trkpt lat="44.57338677185196" lon="8.087395086054858"><ele>722.0</ele><time>2026-04-19T12:33:32.001Z</time></trkpt><trkpt lat="44.5733500424358" lon="8.087655005844482"><ele>722.0</ele><time>2026-04-19T12:33:33.001Z</time></trkpt><trkpt lat="44.57335798175543" lon="8.08795110519861"><ele>722.6666666666666</ele><time>2026-04-19T12:33:34.001Z</time></trkpt><trkpt lat="44.57340140397829" lon="8.088233712920152"><ele>723.3333333333334</ele><time>2026-04-19T12:33:35.001Z</time></trkpt><trkpt lat="44.57348231988254" lon="8.088501445385711"><ele>724.0</ele><time>2026-04-19T12:33:36.001Z</time></trkpt><trkpt lat="44.57360420916554" lon="8.088757112028254"><ele>714.5</ele><time>2026-04-19T12:33:37.001Z</time></trkpt><trkpt lat="44.573733735476544" lon="8.089022383950645"><ele>705.0</ele><time>2026-04-19T12:33:38.001Z</time></trkpt><trkpt lat="44.57386223663852" lon="8.08931600835833"><ele>705.0</ele><time>2026-04-19T12:33:39.001Z</time></trkpt><trkpt lat="44.57394401339956" lon="8.089629851180034"><ele>705.0</ele><time>2026-04-19T12:33:40.001Z</time></trkpt><trkpt lat="44.574011540924644" lon="8.089937040055231"><ele>707.3333333333334</ele><time>2026-04-19T12:33:41.001Z</time></trkpt><trkpt lat="44.57407736881255" lon="8.090218381665066"><ele>709.6666666666667</ele><time>2026-04-19T12:33:42.001Z</time></trkpt><trkpt lat="44.57414048642045" lon="8.090480476417524"><ele>712.0</ele><time>2026-04-19T12:33:43.001Z</time></trkpt><trkpt lat="44.57420360773545" lon="8.090732573486974"><ele>712.3333333333334</ele><time>2026-04-19T12:33:44.001Z</time></trkpt><trkpt lat="44.5742631889133" lon="8.090972973758262"><ele>712.6666666666666</ele><time>2026-04-19T12:33:45.001Z</time></trkpt><trkpt lat="44.57432281982233" lon="8.091206781429355"><ele>713.0</ele><time>2026-04-19T12:33:46.001Z</time></trkpt><trkpt lat="44.574383626857724" lon="8.09143597853474"><ele>711.6666666666666</ele><time>2026-04-19T12:33:47.001Z</time></trkpt><trkpt lat="44.57444247833593" lon="8.091657213603327"><ele>710.3333333333334</ele><time>2026-04-19T12:33:48.001Z</time></trkpt><trkpt lat="44.574497512805216" lon="8.091871988158214"><ele>709.0</ele><time>2026-04-19T12:33:49.001Z</time></trkpt><trkpt lat="44.57454468391864" lon="8.092083632312935"><ele>708.6666666666667</ele><time>2026-04-19T12:33:50.001Z</time></trkpt><trkpt lat="44.574591543470476" lon="8.092289215096258"><ele>708.3333333333334</ele><time>2026-04-19T12:33:51.001Z</time></trkpt><trkpt lat="44.57465125316487" lon="8.092480499834643"><ele>708.0</ele><time>2026-04-19T12:33:52.001Z</time></trkpt><trkpt lat="44.57474008683734" lon="8.092649466295937"><ele>707.3333333333334</ele><time>2026-04-19T12:33:53.001Z</time></trkpt><trkpt lat="44.57486218196361" lon="8.09280348121622"><ele>706.6666666666667</ele><time>2026-04-19T12:33:54.001Z</time></trkpt><trkpt lat="44.57500814883514" lon="8.092948574800078"><ele>706.0</ele><time>2026-04-19T12:33:55.001Z</time></trkpt><trkpt lat="44.57516084342114" lon="8.093095895835187"><ele>706.0</ele><time>2026-04-19T12:33:56.001Z</time></trkpt><trkpt lat="44.57530533849973" lon="8.093246875267218"><ele>706.0</ele><time>2026-04-19T12:33:57.001Z</time></trkpt><trkpt lat="44.575441981986295" lon="8.093392088086823"><ele>706.0</ele><time>2026-04-19T12:33:58.001Z</time></trkpt><trkpt lat="44.57556749864686" lon="8.093523794668636"><ele>704.75</ele><time>2026-04-19T12:33:59.001Z</time></trkpt><trkpt lat="44.5756749771361" lon="8.093650106918172"><ele>703.5</ele><time>2026-04-19T12:34:00.001Z</time></trkpt><trkpt lat="44.57575739428099" lon="8.093792546077937"><ele>702.25</ele><time>2026-04-19T12:34:01.001Z</time></trkpt><trkpt lat="44.57581396777834" lon="8.093962024724787"><ele>701.0</ele><time>2026-04-19T12:34:02.001Z</time></trkpt><trkpt lat="44.575839254566176" lon="8.094123493836916"><ele>699.1666666666666</ele><time>2026-04-19T12:34:03.001Z</time></trkpt><trkpt lat="44.57583615168529" lon="8.09425198494289"><ele>697.3333333333333</ele><time>2026-04-19T12:34:04.001Z</time></trkpt><trkpt lat="44.575817149666925" lon="8.094340741010765"><ele>695.5</ele><time>2026-04-19T12:34:05.001Z</time></trkpt><trkpt lat="44.575807183233515" lon="8.094447480813264"><ele>693.6666666666666</ele><time>2026-04-19T12:34:07.001Z</time></trkpt><trkpt lat="44.57588295680787" lon="8.09453056011116"><ele>691.8333333333334</ele><time>2026-04-19T12:34:19.001Z</time></trkpt><trkpt lat="44.57596461310789" lon="8.094416846298499"><ele>690.0</ele><time>2026-04-19T12:34:21.001Z</time></trkpt><trkpt lat="44.576027817978975" lon="8.094380884383456"><ele>690.0</ele><time>2026-04-19T12:34:22.001Z</time></trkpt><trkpt lat="44.57608859187196" lon="8.09430985364029"><ele>690.0</ele><time>2026-04-19T12:34:23.001Z</time></trkpt><trkpt lat="44.576155491091484" lon="8.094212097262133"><ele>690.0</ele><time>2026-04-19T12:34:24.001Z</time></trkpt><trkpt lat="44.576219162080584" lon="8.094084731193853"><ele>690.0</ele><time>2026-04-19T12:34:25.001Z</time></trkpt><trkpt lat="44.57627085682545" lon="8.093956480933407"><ele>690.0</ele><time>2026-04-19T12:34:26.001Z</time></trkpt><trkpt lat="44.576311622284976" lon="8.093850450669452"><ele>690.6</ele><time>2026-04-19T12:34:27.001Z</time></trkpt><trkpt lat="44.57635814131639" lon="8.093754180223792"><ele>691.2</ele><time>2026-04-19T12:34:29.001Z</time></trkpt><trkpt lat="44.576438699049504" lon="8.093858792134927"><ele>691.8</ele><time>2026-04-19T12:34:32.001Z</time></trkpt><trkpt lat="44.576386642781394" lon="8.093943465887723"><ele>692.4</ele><time>2026-04-19T12:34:33.001Z</time></trkpt><trkpt lat="44.57630523298767" lon="8.094097253161232"><ele>693.0</ele><time>2026-04-19T12:34:35.001Z</time></trkpt><trkpt lat="44.57625224107856" lon="8.094201865350115"><ele>692.25</ele><time>2026-04-19T12:34:36.001Z</time></trkpt><trkpt lat="44.576194341189264" lon="8.094328628222707"><ele>691.5</ele><time>2026-04-19T12:34:37.001Z</time></trkpt><trkpt lat="44.576133968761106" lon="8.094479200803177"><ele>690.75</ele><time>2026-04-19T12:34:38.001Z</time></trkpt><trkpt lat="44.57607530865505" lon="8.09464888898651"><ele>690.0</ele><time>2026-04-19T12:34:39.001Z</time></trkpt><trkpt lat="44.57602194302186" lon="8.09482661563934"><ele>688.5</ele><time>2026-04-19T12:34:40.001Z</time></trkpt><trkpt lat="44.575971873937014" lon="8.09499759463615"><ele>687.0</ele><time>2026-04-19T12:34:41.001Z</time></trkpt><trkpt lat="44.57591753473525" lon="8.095158496047269"><ele>685.5</ele><time>2026-04-19T12:34:42.001Z</time></trkpt><trkpt lat="44.57585430214684" lon="8.095313029987144"><ele>684.0</ele><time>2026-04-19T12:34:43.001Z</time></trkpt><trkpt lat="44.57578472654393" lon="8.095465494392219"><ele>684.0</ele><time>2026-04-19T12:34:44.001Z</time></trkpt><trkpt lat="44.57572536221296" lon="8.095622503346142"><ele>684.0</ele><time>2026-04-19T12:34:45.001Z</time></trkpt><trkpt lat="44.57567901219198" lon="8.095785472065234"><ele>684.0</ele><time>2026-04-19T12:34:46.001Z</time></trkpt><trkpt lat="44.575639752698685" lon="8.095948508760724"><ele>684.0</ele><time>2026-04-19T12:34:47.001Z</time></trkpt><trkpt lat="44.575604619492125" lon="8.096110048846036"><ele>681.0</ele><time>2026-04-19T12:34:48.001Z</time></trkpt><trkpt lat="44.575573069518605" lon="8.096270682792792"><ele>678.0</ele><time>2026-04-19T12:34:49.001Z</time></trkpt><trkpt lat="44.57554604428295" lon="8.096429199588515"><ele>675.0</ele><time>2026-04-19T12:34:50.001Z</time></trkpt><trkpt lat="44.57552449968949" lon="8.09658765515503"><ele>672.0</ele><time>2026-04-19T12:34:51.001Z</time></trkpt><trkpt lat="44.57550576114266" lon="8.096742199649531"><ele>669.75</ele><time>2026-04-19T12:34:52.001Z</time></trkpt><trkpt lat="44.575485829215445" lon="8.096900806997983"><ele>667.5</ele><time>2026-04-19T12:34:53.001Z</time></trkpt><trkpt lat="44.57545513314505" lon="8.09706610663139"><ele>665.25</ele><time>2026-04-19T12:34:54.001Z</time></trkpt><trkpt lat="44.575413921314464" lon="8.097236712705165"><ele>663.0</ele><time>2026-04-19T12:34:55.001Z</time></trkpt><trkpt lat="44.57536835560206" lon="8.097411097934524"><ele>666.5</ele><time>2026-04-19T12:34:56.001Z</time></trkpt><trkpt lat="44.57531985224036" lon="8.097587142216199"><ele>670.0</ele><time>2026-04-19T12:34:57.001Z</time></trkpt><trkpt lat="44.57527200927579" lon="8.097761444519737"><ele>673.5</ele><time>2026-04-19T12:34:58.001Z</time></trkpt><trkpt lat="44.57523231363638" lon="8.097935297569284"><ele>677.0</ele><time>2026-04-19T12:34:59.001Z</time></trkpt><trkpt lat="44.57520223849774" lon="8.098114663819787"><ele>673.3333333333333</ele><time>2026-04-19T12:35:00.001Z</time></trkpt><trkpt lat="44.57518761097103" lon="8.098298068364299"><ele>669.6666666666666</ele><time>2026-04-19T12:35:01.001Z</time></trkpt><trkpt lat="44.57517738957636" lon="8.098667907646004"><ele>666.0</ele><time>2026-04-19T12:35:03.001Z</time></trkpt><trkpt lat="44.57515772368731" lon="8.098849296830403"><ele>666.0</ele><time>2026-04-19T12:35:04.001Z</time></trkpt><trkpt lat="44.575119984352504" lon="8.099031987233538"><ele>666.0</ele><time>2026-04-19T12:35:05.001Z</time></trkpt><trkpt lat="44.57506124953795" lon="8.09921729559859"><ele>666.0</ele><time>2026-04-19T12:35:06.001Z</time></trkpt><trkpt lat="44.57499231761425" lon="8.099405583933642"><ele>666.0</ele><time>2026-04-19T12:35:07.001Z</time></trkpt><trkpt lat="44.57493013347574" lon="8.099596755599471"><ele>662.0</ele><time>2026-04-19T12:35:08.001Z</time></trkpt><trkpt lat="44.57488094289152" lon="8.099792523961987"><ele>658.0</ele><time>2026-04-19T12:35:09.001Z</time></trkpt><trkpt lat="44.57484441739504" lon="8.099988171394378"><ele>654.0</ele><time>2026-04-19T12:35:10.001Z</time></trkpt><trkpt lat="44.574818155067234" lon="8.100157304577321"><ele>650.0</ele><time>2026-04-19T12:35:11.001Z</time></trkpt><trkpt lat="44.574803582942856" lon="8.100319874177401"><ele>647.25</ele><time>2026-04-19T12:35:12.001Z</time></trkpt><trkpt lat="44.574791815458305" lon="8.100484294202671"><ele>644.5</ele><time>2026-04-19T12:35:13.001Z</time></trkpt><trkpt lat="44.57485030299239" lon="8.100653198028713"><ele>641.75</ele><time>2026-04-19T12:35:14.001Z</time></trkpt><trkpt lat="44.57491886531262" lon="8.100823333621895"><ele>639.0</ele><time>2026-04-19T12:35:15.001Z</time></trkpt><trkpt lat="44.574999310147575" lon="8.100998289782146"><ele>636.6666666666666</ele><time>2026-04-19T12:35:16.001Z</time></trkpt><trkpt lat="44.575082316186915" lon="8.101183952469654"><ele>634.3333333333333</ele><time>2026-04-19T12:35:17.001Z</time></trkpt><trkpt lat="44.575161138614554" lon="8.101370261429382"><ele>632.0</ele><time>2026-04-19T12:35:18.001Z</time></trkpt><trkpt lat="44.57523572742156" lon="8.101553880160353"><ele>630.25</ele><time>2026-04-19T12:35:19.001Z</time></trkpt><trkpt lat="44.57530829162012" lon="8.101729584401667"><ele>628.5</ele><time>2026-04-19T12:35:20.001Z</time></trkpt><trkpt lat="44.57537596051435" lon="8.101902187313886"><ele>626.75</ele><time>2026-04-19T12:35:21.001Z</time></trkpt><trkpt lat="44.57544115128627" lon="8.102070014521871"><ele>625.0</ele><time>2026-04-19T12:35:22.001Z</time></trkpt><trkpt lat="44.5754972797758" lon="8.102230930814002"><ele>624.6666666666667</ele><time>2026-04-19T12:35:23.001Z</time></trkpt><trkpt lat="44.575540682589974" lon="8.102375784660158"><ele>624.3333333333334</ele><time>2026-04-19T12:35:24.001Z</time></trkpt><trkpt lat="44.57558198246436" lon="8.102484780068195"><ele>624.0</ele><time>2026-04-19T12:35:25.001Z</time></trkpt><trkpt lat="44.57563636147523" lon="8.102554954135996"><ele>623.6666666666666</ele><time>2026-04-19T12:35:26.001Z</time></trkpt><trkpt lat="44.57570807110262" lon="8.102582515031225"><ele>623.3333333333333</ele><time>2026-04-19T12:35:27.001Z</time></trkpt><trkpt lat="44.57578150683988" lon="8.102554003619312"><ele>623.0</ele><time>2026-04-19T12:35:28.001Z</time></trkpt><trkpt lat="44.57585762637256" lon="8.102499160665406"><ele>623.0</ele><time>2026-04-19T12:35:29.001Z</time></trkpt><trkpt lat="44.57592412083654" lon="8.10236576868152"><ele>623.0</ele><time>2026-04-19T12:35:30.001Z</time></trkpt><trkpt lat="44.57599010190965" lon="8.102219950216735"><ele>623.0</ele><time>2026-04-19T12:35:31.001Z</time></trkpt><trkpt lat="44.57606499533139" lon="8.102053068634241"><ele>623.0</ele><time>2026-04-19T12:35:32.001Z</time></trkpt><trkpt lat="44.57613430411971" lon="8.101875075819699"><ele>623.0</ele><time>2026-04-19T12:35:33.001Z</time></trkpt><trkpt lat="44.576184322644195" lon="8.101684702437925"><ele>623.0</ele><time>2026-04-19T12:35:34.001Z</time></trkpt><trkpt lat="44.576211605328744" lon="8.101487890800652"><ele>623.0</ele><time>2026-04-19T12:35:35.001Z</time></trkpt><trkpt lat="44.57622501316808" lon="8.101271940432245"><ele>623.0</ele><time>2026-04-19T12:35:36.001Z</time></trkpt><trkpt lat="44.57623744655032" lon="8.101049597938964"><ele>617.5</ele><time>2026-04-19T12:35:37.001Z</time></trkpt><trkpt lat="44.57625151906097" lon="8.1008382979159"><ele>612.0</ele><time>2026-04-19T12:35:38.001Z</time></trkpt><trkpt lat="44.576269800983155" lon="8.100655380065112"><ele>606.5</ele><time>2026-04-19T12:35:39.001Z</time></trkpt><trkpt lat="44.57629250687821" lon="8.10049061204229"><ele>601.0</ele><time>2026-04-19T12:35:40.001Z</time></trkpt><trkpt lat="44.57632137870349" lon="8.100353989370493"><ele>601.0</ele><time>2026-04-19T12:35:41.001Z</time></trkpt><trkpt lat="44.576359288342665" lon="8.100259285149017"><ele>601.0</ele><time>2026-04-19T12:35:42.001Z</time></trkpt><trkpt lat="44.57639873305798" lon="8.100184553552108"><ele>601.0</ele><time>2026-04-19T12:35:43.001Z</time></trkpt><trkpt lat="44.57649689439548" lon="8.100157714027885"><ele>601.0</ele><time>2026-04-19T12:35:45.001Z</time></trkpt><trkpt lat="44.576546968809566" lon="8.100239333557813"><ele>601.0</ele><time>2026-04-19T12:35:46.001Z</time></trkpt><trkpt lat="44.57657620754681" lon="8.100363481113485"><ele>601.0</ele><time>2026-04-19T12:35:47.001Z</time></trkpt><trkpt lat="44.576574691397994" lon="8.100514127292978"><ele>601.0</ele><time>2026-04-19T12:35:48.001Z</time></trkpt><trkpt lat="44.57658899350304" lon="8.100707940937394"><ele>601.0</ele><time>2026-04-19T12:35:49.001Z</time></trkpt><trkpt lat="44.57659529243234" lon="8.100921355313641"><ele>601.0</ele><time>2026-04-19T12:35:50.001Z</time></trkpt><trkpt lat="44.57661332830929" lon="8.101117537993172"><ele>601.0</ele><time>2026-04-19T12:35:51.001Z</time></trkpt><trkpt lat="44.57662774804846" lon="8.101310906532914"><ele>601.0</ele><time>2026-04-19T12:35:52.001Z</time></trkpt><trkpt lat="44.57662699870673" lon="8.101505551272426"><ele>601.0</ele><time>2026-04-19T12:35:53.001Z</time></trkpt><trkpt lat="44.57660546347253" lon="8.101698475591657"><ele>601.0</ele><time>2026-04-19T12:35:54.001Z</time></trkpt><trkpt lat="44.57657383170462" lon="8.101884739968936"><ele>601.0</ele><time>2026-04-19T12:35:55.001Z</time></trkpt><trkpt lat="44.57654311124778" lon="8.10207629388118"><ele>600.25</ele><time>2026-04-19T12:35:56.001Z</time></trkpt><trkpt lat="44.57651565540306" lon="8.102268814712355"><ele>599.5</ele><time>2026-04-19T12:35:57.001Z</time></trkpt><trkpt lat="44.57649220523915" lon="8.102455453977463"><ele>598.75</ele><time>2026-04-19T12:35:58.001Z</time></trkpt><trkpt lat="44.57646846242496" lon="8.102640051338376"><ele>598.0</ele><time>2026-04-19T12:35:59.001Z</time></trkpt><trkpt lat="44.576432383166846" lon="8.102820029901924"><ele>595.0</ele><time>2026-04-19T12:36:00.001Z</time></trkpt><trkpt lat="44.57637734428466" lon="8.102997417408396"><ele>592.0</ele><time>2026-04-19T12:36:01.001Z</time></trkpt><trkpt lat="44.57631762167152" lon="8.103169908274415"><ele>589.0</ele><time>2026-04-19T12:36:02.001Z</time></trkpt><trkpt lat="44.57625846607499" lon="8.103341278993064"><ele>586.0</ele><time>2026-04-19T12:36:03.001Z</time></trkpt><trkpt lat="44.57620555791172" lon="8.103515421535693"><ele>583.5</ele><time>2026-04-19T12:36:04.001Z</time></trkpt><trkpt lat="44.576155092763514" lon="8.103689381525871"><ele>581.0</ele><time>2026-04-19T12:36:05.001Z</time></trkpt><trkpt lat="44.57611083126263" lon="8.10386385507986"><ele>578.5</ele><time>2026-04-19T12:36:06.001Z</time></trkpt><trkpt lat="44.576072894579" lon="8.104030632520226"><ele>576.0</ele><time>2026-04-19T12:36:07.001Z</time></trkpt><trkpt lat="44.576039451161506" lon="8.104166749415002"><ele>576.0</ele><time>2026-04-19T12:36:08.001Z</time></trkpt><trkpt lat="44.5760099657424" lon="8.104281285110384"><ele>576.0</ele><time>2026-04-19T12:36:09.001Z</time></trkpt><trkpt lat="44.57596797247887" lon="8.104383336846496"><ele>576.0</ele><time>2026-04-19T12:36:10.001Z</time></trkpt><trkpt lat="44.57590666238285" lon="8.104455519411568"><ele>576.0</ele><time>2026-04-19T12:36:11.001Z</time></trkpt><trkpt lat="44.575839476533616" lon="8.10449775709772"><ele>576.0</ele><time>2026-04-19T12:36:12.001Z</time></trkpt><trkpt lat="44.575770666632536" lon="8.104528713483916"><ele>576.0</ele><time>2026-04-19T12:36:13.001Z</time></trkpt><trkpt lat="44.57569470322946" lon="8.104542082145695"><ele>576.0</ele><time>2026-04-19T12:36:14.001Z</time></trkpt><trkpt lat="44.57561729419756" lon="8.104494730885328"><ele>576.0</ele><time>2026-04-19T12:36:15.001Z</time></trkpt><trkpt lat="44.57553226275164" lon="8.1044429954859"><ele>576.0</ele><time>2026-04-19T12:36:16.001Z</time></trkpt><trkpt lat="44.57543684348128" lon="8.104379536553363"><ele>576.0</ele><time>2026-04-19T12:36:17.001Z</time></trkpt><trkpt lat="44.57534039331815" lon="8.104312236128214"><ele>576.0</ele><time>2026-04-19T12:36:18.001Z</time></trkpt><trkpt lat="44.57525489971868" lon="8.104235126062665"><ele>577.25</ele><time>2026-04-19T12:36:19.001Z</time></trkpt><trkpt lat="44.57518428515873" lon="8.10412043755864"><ele>578.5</ele><time>2026-04-19T12:36:20.001Z</time></trkpt><trkpt lat="44.57512138213679" lon="8.103979629901303"><ele>579.75</ele><time>2026-04-19T12:36:21.001Z</time></trkpt><trkpt lat="44.57504943774703" lon="8.103841063232144"><ele>581.0</ele><time>2026-04-19T12:36:22.001Z</time></trkpt><trkpt lat="44.57496510700403" lon="8.1037264999142"><ele>581.0</ele><time>2026-04-19T12:36:23.001Z</time></trkpt><trkpt lat="44.57485358555621" lon="8.103647026789217"><ele>581.0</ele><time>2026-04-19T12:36:24.001Z</time></trkpt><trkpt lat="44.57472414775388" lon="8.103614262904939"><ele>581.0</ele><time>2026-04-19T12:36:25.001Z</time></trkpt><trkpt lat="44.574596348082416" lon="8.103560791820183"><ele>581.0</ele><time>2026-04-19T12:36:26.001Z</time></trkpt><trkpt lat="44.57447922174387" lon="8.103487963657685"><ele>577.8</ele><time>2026-04-19T12:36:27.001Z</time></trkpt><trkpt lat="44.57436808789342" lon="8.103439104323499"><ele>574.6</ele><time>2026-04-19T12:36:28.001Z</time></trkpt><trkpt lat="44.574275057937015" lon="8.103417516123594"><ele>571.4</ele><time>2026-04-19T12:36:29.001Z</time></trkpt><trkpt lat="44.57421471346279" lon="8.103331367566401"><ele>568.2</ele><time>2026-04-19T12:36:30.001Z</time></trkpt><trkpt lat="44.57417991117151" lon="8.103238557511961"><ele>565.0</ele><time>2026-04-19T12:36:31.001Z</time></trkpt><trkpt lat="44.574162873997125" lon="8.103125961120007"><ele>565.0</ele><time>2026-04-19T12:36:32.001Z</time></trkpt><trkpt lat="44.57413536375162" lon="8.102994051339952"><ele>565.0</ele><time>2026-04-19T12:36:33.001Z</time></trkpt><trkpt lat="44.57409799744608" lon="8.102848043030884"><ele>565.0</ele><time>2026-04-19T12:36:34.001Z</time></trkpt><trkpt lat="44.574033443015864" lon="8.102694295724426"><ele>565.0</ele><time>2026-04-19T12:36:35.001Z</time></trkpt><trkpt lat="44.57395334367183" lon="8.102565736518573"><ele>565.0</ele><time>2026-04-19T12:36:36.001Z</time></trkpt><trkpt lat="44.57388580222602" lon="8.102447307608577"><ele>565.0</ele><time>2026-04-19T12:36:37.001Z</time></trkpt><trkpt lat="44.573844814101086" lon="8.102314049329431"><ele>565.0</ele><time>2026-04-19T12:36:38.001Z</time></trkpt><trkpt lat="44.57380659887631" lon="8.102154951283996"><ele>565.0</ele><time>2026-04-19T12:36:39.001Z</time></trkpt><trkpt lat="44.57375421525656" lon="8.101994157909417"><ele>566.0</ele><time>2026-04-19T12:36:40.001Z</time></trkpt><trkpt lat="44.57368438191425" lon="8.101840900511244"><ele>567.0</ele><time>2026-04-19T12:36:41.001Z</time></trkpt><trkpt lat="44.573600630262675" lon="8.101711991098659"><ele>568.0</ele><time>2026-04-19T12:36:42.001Z</time></trkpt><trkpt lat="44.57351421736682" lon="8.101590634928591"><ele>569.0</ele><time>2026-04-19T12:36:43.001Z</time></trkpt><trkpt lat="44.57341174245877" lon="8.10147787936008"><ele>569.0</ele><time>2026-04-19T12:36:44.001Z</time></trkpt><trkpt lat="44.573306932209306" lon="8.101379869090662"><ele>569.0</ele><time>2026-04-19T12:36:45.001Z</time></trkpt><trkpt lat="44.573193566088655" lon="8.101297973954859"><ele>569.0</ele><time>2026-04-19T12:36:46.001Z</time></trkpt><trkpt lat="44.573084967621554" lon="8.101231028648137"><ele>569.0</ele><time>2026-04-19T12:36:47.001Z</time></trkpt><trkpt lat="44.572974810062" lon="8.101179015575129"><ele>569.0</ele><time>2026-04-19T12:36:48.001Z</time></trkpt><trkpt lat="44.5728592181225" lon="8.101177567212162"><ele>569.0</ele><time>2026-04-19T12:36:49.001Z</time></trkpt><trkpt lat="44.57274652087897" lon="8.10117939867394"><ele>569.0</ele><time>2026-04-19T12:36:50.001Z</time></trkpt><trkpt lat="44.57262905387833" lon="8.101184317719943"><ele>569.0</ele><time>2026-04-19T12:36:51.001Z</time></trkpt><trkpt lat="44.57251676281186" lon="8.101233881470208"><ele>566.0</ele><time>2026-04-19T12:36:52.001Z</time></trkpt><trkpt lat="44.57241407025233" lon="8.101302043846573"><ele>563.0</ele><time>2026-04-19T12:36:53.001Z</time></trkpt><trkpt lat="44.572337782146136" lon="8.101411337390957"><ele>560.0</ele><time>2026-04-19T12:36:54.001Z</time></trkpt><trkpt lat="44.572263196182284" lon="8.101502656725419"><ele>557.0</ele><time>2026-04-19T12:36:55.001Z</time></trkpt><trkpt lat="44.57218584040064" lon="8.101564735039718"><ele>554.0</ele><time>2026-04-19T12:36:56.001Z</time></trkpt><trkpt lat="44.572106559232395" lon="8.10158165189133"><ele>554.0</ele><time>2026-04-19T12:36:57.001Z</time></trkpt><trkpt lat="44.5720272971426" lon="8.101560133410155"><ele>554.0</ele><time>2026-04-19T12:36:58.001Z</time></trkpt><trkpt lat="44.57196885592993" lon="8.101473249319394"><ele>554.0</ele><time>2026-04-19T12:36:59.001Z</time></trkpt><trkpt lat="44.57190240490167" lon="8.101393377452467"><ele>554.0</ele><time>2026-04-19T12:37:00.001Z</time></trkpt><trkpt lat="44.57183491339014" lon="8.101299124815599"><ele>554.0</ele><time>2026-04-19T12:37:01.001Z</time></trkpt><trkpt lat="44.57175310394187" lon="8.10120399909882"><ele>551.8</ele><time>2026-04-19T12:37:02.001Z</time></trkpt><trkpt lat="44.571655137944795" lon="8.10113769594278"><ele>549.5999999999999</ele><time>2026-04-19T12:37:03.001Z</time></trkpt><trkpt lat="44.57154118052847" lon="8.101111025075562"><ele>547.4</ele><time>2026-04-19T12:37:04.001Z</time></trkpt><trkpt lat="44.57143407772127" lon="8.101126770068877"><ele>545.1999999999999</ele><time>2026-04-19T12:37:05.001Z</time></trkpt><trkpt lat="44.57134428300262" lon="8.101202630230471"><ele>543.0</ele><time>2026-04-19T12:37:06.001Z</time></trkpt><trkpt lat="44.57126089722155" lon="8.101252997332137"><ele>538.4</ele><time>2026-04-19T12:37:07.001Z</time></trkpt><trkpt lat="44.57117504773277" lon="8.10127691407958"><ele>533.8</ele><time>2026-04-19T12:37:08.001Z</time></trkpt><trkpt lat="44.57109100890408" lon="8.101212207175026"><ele>529.2</ele><time>2026-04-19T12:37:09.001Z</time></trkpt><trkpt lat="44.57099156812877" lon="8.101162044785754"><ele>524.6</ele><time>2026-04-19T12:37:10.001Z</time></trkpt><trkpt lat="44.57089498266538" lon="8.101126145923708"><ele>520.0</ele><time>2026-04-19T12:37:11.001Z</time></trkpt><trkpt lat="44.57080888824667" lon="8.101132542274149"><ele>520.0</ele><time>2026-04-19T12:37:12.001Z</time></trkpt><trkpt lat="44.570741824218295" lon="8.101121768865475"><ele>520.0</ele><time>2026-04-19T12:37:13.001Z</time></trkpt><trkpt lat="44.570680142694876" lon="8.101201527447571"><ele>520.0</ele><time>2026-04-19T12:37:15.001Z</time></trkpt><trkpt lat="44.57072309253054" lon="8.10131787389341"><ele>520.0</ele><time>2026-04-19T12:37:17.001Z</time></trkpt><trkpt lat="44.57078897489182" lon="8.10133371776014"><ele>520.0</ele><time>2026-04-19T12:37:18.001Z</time></trkpt><trkpt lat="44.570863241740405" lon="8.101332054820606"><ele>520.0</ele><time>2026-04-19T12:37:19.001Z</time></trkpt><trkpt lat="44.57094169125906" lon="8.101354696032077"><ele>520.0</ele><time>2026-04-19T12:37:20.001Z</time></trkpt><trkpt lat="44.57102464924133" lon="8.101405399996798"><ele>520.0</ele><time>2026-04-19T12:37:21.001Z</time></trkpt><trkpt lat="44.57110431788519" lon="8.101492641137401"><ele>520.0</ele><time>2026-04-19T12:37:22.001Z</time></trkpt><trkpt lat="44.57121167766587" lon="8.101527839424588"><ele>520.0</ele><time>2026-04-19T12:37:23.001Z</time></trkpt><trkpt lat="44.57131845594083" lon="8.10150783318485"><ele>520.0</ele><time>2026-04-19T12:37:24.001Z</time></trkpt><trkpt lat="44.5714139891562" lon="8.101471900975108"><ele>519.3333333333334</ele><time>2026-04-19T12:37:25.001Z</time></trkpt><trkpt lat="44.571499859469654" lon="8.101509463911214"><ele>518.6666666666667</ele><time>2026-04-19T12:37:26.001Z</time></trkpt><trkpt lat="44.57157588625279" lon="8.101573996433487"><ele>518.0</ele><time>2026-04-19T12:37:27.001Z</time></trkpt><trkpt lat="44.57163580120455" lon="8.10166339005848"><ele>517.3333333333334</ele><time>2026-04-19T12:37:28.001Z</time></trkpt><trkpt lat="44.571682937658316" lon="8.101761746385279"><ele>516.6666666666666</ele><time>2026-04-19T12:37:29.001Z</time></trkpt><trkpt lat="44.57172047086099" lon="8.101864676152678"><ele>516.0</ele><time>2026-04-19T12:37:30.001Z</time></trkpt><trkpt lat="44.57175705723685" lon="8.101966174630416"><ele>516.0</ele><time>2026-04-19T12:37:31.001Z</time></trkpt><trkpt lat="44.571801103351724" lon="8.10206347238922"><ele>516.0</ele><time>2026-04-19T12:37:32.001Z</time></trkpt><trkpt lat="44.5718546409045" lon="8.102139849148388"><ele>516.0</ele><time>2026-04-19T12:37:33.001Z</time></trkpt><trkpt lat="44.571915109170625" lon="8.102207597263149"><ele>516.0</ele><time>2026-04-19T12:37:34.001Z</time></trkpt><trkpt lat="44.57201364159376" lon="8.102209301764939"><ele>516.0</ele><time>2026-04-19T12:37:35.001Z</time></trkpt><trkpt lat="44.57210860579021" lon="8.102197011191533"><ele>516.0</ele><time>2026-04-19T12:37:36.001Z</time></trkpt><trkpt lat="44.57220969940448" lon="8.102186979760178"><ele>517.2</ele><time>2026-04-19T12:37:37.001Z</time></trkpt><trkpt lat="44.57231594291278" lon="8.102180537333744"><ele>518.4000000000001</ele><time>2026-04-19T12:37:38.001Z</time></trkpt><trkpt lat="44.572415168033764" lon="8.102226366495108"><ele>519.6</ele><time>2026-04-19T12:37:39.001Z</time></trkpt><trkpt lat="44.5725086201242" lon="8.102301614261982"><ele>520.8000000000001</ele><time>2026-04-19T12:37:40.001Z</time></trkpt><trkpt lat="44.572593122608374" lon="8.102404735305534"><ele>522.0</ele><time>2026-04-19T12:37:41.001Z</time></trkpt><trkpt lat="44.57266302013874" lon="8.102533976549848"><ele>516.25</ele><time>2026-04-19T12:37:42.001Z</time></trkpt><trkpt lat="44.57272487544035" lon="8.10267983706781"><ele>510.5</ele><time>2026-04-19T12:37:43.001Z</time></trkpt><trkpt lat="44.572771264825576" lon="8.102837400532408"><ele>504.75</ele><time>2026-04-19T12:37:44.001Z</time></trkpt><trkpt lat="44.57280139947267" lon="8.10299551483238"><ele>499.0</ele><time>2026-04-19T12:37:45.001Z</time></trkpt><trkpt lat="44.572829754004665" lon="8.10315486615035"><ele>501.25</ele><time>2026-04-19T12:37:46.001Z</time></trkpt><trkpt lat="44.57287295136932" lon="8.103306835358925"><ele>503.5</ele><time>2026-04-19T12:37:47.001Z</time></trkpt><trkpt lat="44.57294065261468" lon="8.10344457789354"><ele>505.75</ele><time>2026-04-19T12:37:48.001Z</time></trkpt><trkpt lat="44.573020120095" lon="8.103570605998609"><ele>508.0</ele><time>2026-04-19T12:37:49.001Z</time></trkpt><trkpt lat="44.57307794164312" lon="8.103707783346886"><ele>508.0</ele><time>2026-04-19T12:37:50.001Z</time></trkpt><trkpt lat="44.57310106494793" lon="8.103864501657226"><ele>507.99999999999994</ele><time>2026-04-19T12:37:51.001Z</time></trkpt><trkpt lat="44.573096987130775" lon="8.10402333987045"><ele>507.99999999999994</ele><time>2026-04-19T12:37:52.001Z</time></trkpt><trkpt lat="44.573078530807344" lon="8.104177614682342"><ele>508.0</ele><time>2026-04-19T12:37:53.001Z</time></trkpt><trkpt lat="44.57305617841463" lon="8.104324619987596"><ele>508.0</ele><time>2026-04-19T12:37:54.001Z</time></trkpt><trkpt lat="44.57304161091867" lon="8.104465665363893"><ele>505.79999999999995</ele><time>2026-04-19T12:37:55.001Z</time></trkpt><trkpt lat="44.57305476040173" lon="8.104599808711162"><ele>503.59999999999997</ele><time>2026-04-19T12:37:56.001Z</time></trkpt><trkpt lat="44.573100737487266" lon="8.104723207990183"><ele>501.40000000000003</ele><time>2026-04-19T12:37:57.001Z</time></trkpt><trkpt lat="44.57316999079898" lon="8.104824731479757"><ele>499.20000000000005</ele><time>2026-04-19T12:37:58.001Z</time></trkpt><trkpt lat="44.57325521850961" lon="8.104910052550311"><ele>497.0</ele><time>2026-04-19T12:37:59.001Z</time></trkpt><trkpt lat="44.57335660753459" lon="8.10497902596974"><ele>496.40000000000003</ele><time>2026-04-19T12:38:00.001Z</time></trkpt><trkpt lat="44.57346738040143" lon="8.10502642004088"><ele>495.80000000000007</ele><time>2026-04-19T12:38:01.001Z</time></trkpt><trkpt lat="44.57357677761424" lon="8.105065124414192"><ele>495.2</ele><time>2026-04-19T12:38:02.001Z</time></trkpt><trkpt lat="44.573670867281905" lon="8.105128134745653"><ele>494.6</ele><time>2026-04-19T12:38:03.001Z</time></trkpt><trkpt lat="44.57375520250334" lon="8.10521800909546"><ele>494.0</ele><time>2026-04-19T12:38:04.001Z</time></trkpt><trkpt lat="44.57381691196115" lon="8.105342694007682"><ele>494.0</ele><time>2026-04-19T12:38:05.001Z</time></trkpt><trkpt lat="44.57384029222952" lon="8.105492863770133"><ele>494.0</ele><time>2026-04-19T12:38:06.001Z</time></trkpt><trkpt lat="44.57388828169337" lon="8.105632621270045"><ele>494.0</ele><time>2026-04-19T12:38:07.001Z</time></trkpt><trkpt lat="44.57398591750805" lon="8.105738052547968"><ele>494.0</ele><time>2026-04-19T12:38:08.001Z</time></trkpt><trkpt lat="44.57408094357677" lon="8.105876591632946"><ele>487.25</ele><time>2026-04-19T12:38:09.001Z</time></trkpt><trkpt lat="44.5741896934793" lon="8.106002671808257"><ele>480.5</ele><time>2026-04-19T12:38:10.001Z</time></trkpt><trkpt lat="44.57426368337038" lon="8.106173433557451"><ele>473.75</ele><time>2026-04-19T12:38:11.001Z</time></trkpt><trkpt lat="44.57431819594058" lon="8.10634378308051"><ele>467.0</ele><time>2026-04-19T12:38:12.001Z</time></trkpt><trkpt lat="44.574374684761295" lon="8.106507637896634"><ele>468.75</ele><time>2026-04-19T12:38:13.001Z</time></trkpt><trkpt lat="44.574448241500704" lon="8.106660885307345"><ele>470.5</ele><time>2026-04-19T12:38:14.001Z</time></trkpt><trkpt lat="44.57453439280589" lon="8.106800251816841"><ele>472.25</ele><time>2026-04-19T12:38:15.001Z</time></trkpt><trkpt lat="44.57462642229371" lon="8.106942381014504"><ele>474.0</ele><time>2026-04-19T12:38:16.001Z</time></trkpt><trkpt lat="44.57471366385364" lon="8.10709421524322"><ele>474.0</ele><time>2026-04-19T12:38:17.001Z</time></trkpt><trkpt lat="44.57479021381287" lon="8.107256662399866"><ele>474.0</ele><time>2026-04-19T12:38:18.001Z</time></trkpt><trkpt lat="44.574873147464025" lon="8.107411531488275"><ele>474.0</ele><time>2026-04-19T12:38:19.001Z</time></trkpt><trkpt lat="44.574970205454335" lon="8.10755870347444"><ele>474.0</ele><time>2026-04-19T12:38:20.001Z</time></trkpt><trkpt lat="44.57507640146951" lon="8.10769511589622"><ele>474.75</ele><time>2026-04-19T12:38:21.001Z</time></trkpt><trkpt lat="44.57518766597489" lon="8.10782828206395"><ele>475.5</ele><time>2026-04-19T12:38:22.001Z</time></trkpt><trkpt lat="44.575299290969646" lon="8.107960557710815"><ele>476.25</ele><time>2026-04-19T12:38:23.001Z</time></trkpt><trkpt lat="44.57541250475135" lon="8.108095560737272"><ele>477.0</ele><time>2026-04-19T12:38:24.001Z</time></trkpt><trkpt lat="44.575519828476295" lon="8.108242072497216"><ele>466.33333333333337</ele><time>2026-04-19T12:38:25.001Z</time></trkpt><trkpt lat="44.57560827472261" lon="8.108419130689743"><ele>455.6666666666667</ele><time>2026-04-19T12:38:26.001Z</time></trkpt><trkpt lat="44.57572103513097" lon="8.108562207681446"><ele>445.0</ele><time>2026-04-19T12:38:27.001Z</time></trkpt><trkpt lat="44.57582746138478" lon="8.108717225288066"><ele>445.0</ele><time>2026-04-19T12:38:28.001Z</time></trkpt><trkpt lat="44.57593995586147" lon="8.10886408613849"><ele>445.0</ele><time>2026-04-19T12:38:29.001Z</time></trkpt><trkpt lat="44.57605544843572" lon="8.109008342394308"><ele>445.0</ele><time>2026-04-19T12:38:30.001Z</time></trkpt><trkpt lat="44.57617071577559" lon="8.109153168826284"><ele>441.6666666666667</ele><time>2026-04-19T12:38:31.001Z</time></trkpt><trkpt lat="44.57628295088894" lon="8.109302926246832"><ele>438.33333333333337</ele><time>2026-04-19T12:38:32.001Z</time></trkpt><trkpt lat="44.57638919112391" lon="8.109457445752932"><ele>435.0</ele><time>2026-04-19T12:38:33.001Z</time></trkpt><trkpt lat="44.57648978381779" lon="8.10961464414422"><ele>435.0</ele><time>2026-04-19T12:38:34.001Z</time></trkpt><trkpt lat="44.576586299101" lon="8.109779105540008"><ele>435.0</ele><time>2026-04-19T12:38:35.001Z</time></trkpt><trkpt lat="44.57665610741288" lon="8.109962062737477"><ele>435.0</ele><time>2026-04-19T12:38:36.001Z</time></trkpt><trkpt lat="44.57670272102721" lon="8.110161487885694"><ele>435.0</ele><time>2026-04-19T12:38:37.001Z</time></trkpt><trkpt lat="44.576772131393895" lon="8.110337610786583"><ele>427.33333333333337</ele><time>2026-04-19T12:38:38.001Z</time></trkpt><trkpt lat="44.576863178944485" lon="8.110538955951048"><ele>419.6666666666667</ele><time>2026-04-19T12:38:39.001Z</time></trkpt><trkpt lat="44.57692702283678" lon="8.11073156511655"><ele>412.0</ele><time>2026-04-19T12:38:40.001Z</time></trkpt><trkpt lat="44.576993605767875" lon="8.110935944375525"><ele>413.6666666666667</ele><time>2026-04-19T12:38:41.001Z</time></trkpt><trkpt lat="44.57706493242651" lon="8.111155256106953"><ele>415.33333333333337</ele><time>2026-04-19T12:38:42.001Z</time></trkpt><trkpt lat="44.57714405392505" lon="8.111395442806558"><ele>417.0</ele><time>2026-04-19T12:38:43.001Z</time></trkpt><trkpt lat="44.577229738679065" lon="8.111653483757546"><ele>417.0</ele><time>2026-04-19T12:38:44.001Z</time></trkpt><trkpt lat="44.57732325826766" lon="8.11192090930412"><ele>417.0</ele><time>2026-04-19T12:38:45.001Z</time></trkpt><trkpt lat="44.577421362429966" lon="8.112199155244824"><ele>417.0</ele><time>2026-04-19T12:38:46.001Z</time></trkpt><trkpt lat="44.57751799768075" lon="8.112484244495143"><ele>413.0</ele><time>2026-04-19T12:38:47.001Z</time></trkpt><trkpt lat="44.5776161995117" lon="8.112768611019197"><ele>409.0</ele><time>2026-04-19T12:38:48.001Z</time></trkpt><trkpt lat="44.57771101531425" lon="8.113040437785772"><ele>405.0</ele><time>2026-04-19T12:38:49.001Z</time></trkpt><trkpt lat="44.57779830212848" lon="8.113302282728087"><ele>406.0</ele><time>2026-04-19T12:38:50.001Z</time></trkpt><trkpt lat="44.577876287024694" lon="8.113553443078748"><ele>407.0</ele><time>2026-04-19T12:38:51.001Z</time></trkpt><trkpt lat="44.57793785000162" lon="8.113801245259554"><ele>408.0</ele><time>2026-04-19T12:38:52.001Z</time></trkpt><trkpt lat="44.57798108790183" lon="8.114061219605139"><ele>405.0</ele><time>2026-04-19T12:38:53.001Z</time></trkpt><trkpt lat="44.57800285825021" lon="8.114344239370094"><ele>402.0</ele><time>2026-04-19T12:38:54.001Z</time></trkpt><trkpt lat="44.57800554960369" lon="8.114637518357304"><ele>399.0</ele><time>2026-04-19T12:38:55.001Z</time></trkpt><trkpt lat="44.57799209806775" lon="8.11490725358254"><ele>398.0</ele><time>2026-04-19T12:38:56.001Z</time></trkpt><trkpt lat="44.577978702396365" lon="8.115154474412458"><ele>397.0</ele><time>2026-04-19T12:38:57.001Z</time></trkpt><trkpt lat="44.577978164914775" lon="8.115388743910142"><ele>396.0</ele><time>2026-04-19T12:38:58.001Z</time></trkpt><trkpt lat="44.57799691900776" lon="8.115595325774919"><ele>398.75</ele><time>2026-04-19T12:38:59.001Z</time></trkpt><trkpt lat="44.578040935085184" lon="8.115755521330074"><ele>401.5</ele><time>2026-04-19T12:39:00.001Z</time></trkpt><trkpt lat="44.57811021698732" lon="8.115873315373431"><ele>404.25</ele><time>2026-04-19T12:39:01.001Z</time></trkpt><trkpt lat="44.57821774215362" lon="8.115927457569367"><ele>407.0</ele><time>2026-04-19T12:39:02.001Z</time></trkpt><trkpt lat="44.57833196981441" lon="8.116013125907639"><ele>407.0</ele><time>2026-04-19T12:39:03.001Z</time></trkpt><trkpt lat="44.57844930336875" lon="8.116119906708573"><ele>407.0</ele><time>2026-04-19T12:39:04.001Z</time></trkpt><trkpt lat="44.57856033506882" lon="8.116246009086968"><ele>407.0</ele><time>2026-04-19T12:39:05.001Z</time></trkpt><trkpt lat="44.57866646869952" lon="8.116376040155266"><ele>407.0</ele><time>2026-04-19T12:39:06.001Z</time></trkpt><trkpt lat="44.57877132018893" lon="8.116504777773264"><ele>408.75</ele><time>2026-04-19T12:39:07.001Z</time></trkpt><trkpt lat="44.57886554776492" lon="8.116641059550313"><ele>410.5</ele><time>2026-04-19T12:39:08.001Z</time></trkpt><trkpt lat="44.57892562652385" lon="8.116806370169645"><ele>412.25</ele><time>2026-04-19T12:39:09.001Z</time></trkpt><trkpt lat="44.57901034940952" lon="8.116951741916473"><ele>414.0</ele><time>2026-04-19T12:39:10.001Z</time></trkpt><trkpt lat="44.579093980645574" lon="8.117097772694796"><ele>414.0</ele><time>2026-04-19T12:39:11.001Z</time></trkpt><trkpt lat="44.579195773865635" lon="8.1172318675728"><ele>414.0</ele><time>2026-04-19T12:39:12.001Z</time></trkpt><trkpt lat="44.57931429752571" lon="8.117369212601647"><ele>414.0</ele><time>2026-04-19T12:39:13.001Z</time></trkpt><trkpt lat="44.5794393293245" lon="8.11751897116064"><ele>415.66666666666663</ele><time>2026-04-19T12:39:14.001Z</time></trkpt><trkpt lat="44.57956611791914" lon="8.11767782012013"><ele>417.3333333333333</ele><time>2026-04-19T12:39:15.001Z</time></trkpt><trkpt lat="44.579688255150735" lon="8.11783322204254"><ele>419.0</ele><time>2026-04-19T12:39:16.001Z</time></trkpt><trkpt lat="44.57978905183395" lon="8.117975588242228"><ele>419.0</ele><time>2026-04-19T12:39:17.001Z</time></trkpt><trkpt lat="44.579874293759346" lon="8.118104161596099"><ele>419.0</ele><time>2026-04-19T12:39:18.001Z</time></trkpt><trkpt lat="44.57995034675847" lon="8.118216956236774"><ele>419.0</ele><time>2026-04-19T12:39:19.001Z</time></trkpt><trkpt lat="44.58001268440116" lon="8.11832317063478"><ele>419.0</ele><time>2026-04-19T12:39:20.001Z</time></trkpt><trkpt lat="44.580058143522564" lon="8.118438160712543"><ele>419.0</ele><time>2026-04-19T12:39:21.001Z</time></trkpt><trkpt lat="44.58008168903147" lon="8.11856631773543"><ele>421.5</ele><time>2026-04-19T12:39:22.001Z</time></trkpt><trkpt lat="44.580068402265155" lon="8.118701560141464"><ele>424.0</ele><time>2026-04-19T12:39:23.001Z</time></trkpt><trkpt lat="44.58001290233578" lon="8.118837366200797"><ele>426.5</ele><time>2026-04-19T12:39:24.001Z</time></trkpt><trkpt lat="44.5799528291441" lon="8.118998348248821"><ele>429.0</ele><time>2026-04-19T12:39:25.001Z</time></trkpt><trkpt lat="44.57988650056966" lon="8.119194252821256"><ele>430.75</ele><time>2026-04-19T12:39:26.001Z</time></trkpt><trkpt lat="44.579820855928" lon="8.11936986707584"><ele>432.5</ele><time>2026-04-19T12:39:27.001Z</time></trkpt><trkpt lat="44.579806066006526" lon="8.119507636396875"><ele>434.25</ele><time>2026-04-19T12:39:28.001Z</time></trkpt><trkpt lat="44.579807834182965" lon="8.119633694893826"><ele>436.0</ele><time>2026-04-19T12:39:29.001Z</time></trkpt><trkpt lat="44.57988680070753" lon="8.119763720982089"><ele>436.0</ele><time>2026-04-19T12:39:30.001Z</time></trkpt><trkpt lat="44.579982111873356" lon="8.119893851931826"><ele>436.0</ele><time>2026-04-19T12:39:31.001Z</time></trkpt><trkpt lat="44.58009990042638" lon="8.12004215759515"><ele>436.0</ele><time>2026-04-19T12:39:32.001Z</time></trkpt><trkpt lat="44.5801941831092" lon="8.12022230169216"><ele>434.33333333333337</ele><time>2026-04-19T12:39:33.001Z</time></trkpt><trkpt lat="44.580298236980234" lon="8.120385580532629"><ele>432.66666666666663</ele><time>2026-04-19T12:39:34.001Z</time></trkpt><trkpt lat="44.580356971118526" lon="8.120592975750439"><ele>431.0</ele><time>2026-04-19T12:39:35.001Z</time></trkpt><trkpt lat="44.58040206732614" lon="8.12078871506835"><ele>431.0</ele><time>2026-04-19T12:39:36.001Z</time></trkpt><trkpt lat="44.58045461396886" lon="8.120964601948543"><ele>431.0</ele><time>2026-04-19T12:39:37.001Z</time></trkpt><trkpt lat="44.58051928336656" lon="8.121119543009511"><ele>431.0</ele><time>2026-04-19T12:39:38.001Z</time></trkpt><trkpt lat="44.580587682731185" lon="8.121261215653295"><ele>431.0</ele><time>2026-04-19T12:39:39.001Z</time></trkpt><trkpt lat="44.580653254896006" lon="8.1214010422999"><ele>431.0</ele><time>2026-04-19T12:39:40.001Z</time></trkpt><trkpt lat="44.580705921202586" lon="8.121545908411552"><ele>431.0</ele><time>2026-04-19T12:39:41.001Z</time></trkpt><trkpt lat="44.580758216029075" lon="8.121686664726829"><ele>431.0</ele><time>2026-04-19T12:39:42.001Z</time></trkpt><trkpt lat="44.58083329126895" lon="8.12179246836595"><ele>431.0</ele><time>2026-04-19T12:39:43.001Z</time></trkpt><trkpt lat="44.580935325774355" lon="8.121849702901129"><ele>431.0</ele><time>2026-04-19T12:39:44.001Z</time></trkpt><trkpt lat="44.58105110690169" lon="8.121868207347703"><ele>430.25</ele><time>2026-04-19T12:39:45.001Z</time></trkpt><trkpt lat="44.58116702507933" lon="8.121879815566993"><ele>429.5</ele><time>2026-04-19T12:39:46.001Z</time></trkpt><trkpt lat="44.5812572185296" lon="8.121975556014634"><ele>428.75</ele><time>2026-04-19T12:39:47.001Z</time></trkpt><trkpt lat="44.58135096417827" lon="8.122107396424582"><ele>428.0</ele><time>2026-04-19T12:39:48.001Z</time></trkpt><trkpt lat="44.58144127837863" lon="8.122283141756137"><ele>433.0</ele><time>2026-04-19T12:39:49.001Z</time></trkpt><trkpt lat="44.58153791277863" lon="8.12247241326284"><ele>438.0</ele><time>2026-04-19T12:39:50.001Z</time></trkpt><trkpt lat="44.58165112650432" lon="8.122664795611355"><ele>443.0</ele><time>2026-04-19T12:39:51.001Z</time></trkpt><trkpt lat="44.58175933331201" lon="8.122879140507298"><ele>443.0</ele><time>2026-04-19T12:39:52.001Z</time></trkpt><trkpt lat="44.581879793352314" lon="8.123093147000294"><ele>443.0</ele><time>2026-04-19T12:39:53.001Z</time></trkpt><trkpt lat="44.58198298132769" lon="8.123299491567149"><ele>443.0</ele><time>2026-04-19T12:39:54.001Z</time></trkpt><trkpt lat="44.58207793311812" lon="8.123465637698562"><ele>443.0</ele><time>2026-04-19T12:39:55.001Z</time></trkpt><trkpt lat="44.58213955103868" lon="8.123596417841275"><ele>442.99999999999994</ele><time>2026-04-19T12:39:56.001Z</time></trkpt><trkpt lat="44.58218383627464" lon="8.123699635362978"><ele>442.99999999999994</ele><time>2026-04-19T12:39:57.001Z</time></trkpt><trkpt lat="44.582161440370925" lon="8.123818001300654"><ele>443.0</ele><time>2026-04-19T12:39:58.001Z</time></trkpt><trkpt lat="44.58211370482448" lon="8.12392156987837"><ele>443.0</ele><time>2026-04-19T12:39:59.001Z</time></trkpt><trkpt lat="44.58205269135657" lon="8.124030600790274"><ele>449.5</ele><time>2026-04-19T12:40:00.001Z</time></trkpt><trkpt lat="44.58199665548793" lon="8.124153275724717"><ele>456.0</ele><time>2026-04-19T12:40:01.001Z</time></trkpt><trkpt lat="44.581954659904156" lon="8.124306485221444"><ele>462.5</ele><time>2026-04-19T12:40:02.001Z</time></trkpt><trkpt lat="44.581923612814975" lon="8.124479397194762"><ele>469.0</ele><time>2026-04-19T12:40:03.001Z</time></trkpt><trkpt lat="44.58189886162622" lon="8.124653815073158"><ele>469.0</ele><time>2026-04-19T12:40:04.001Z</time></trkpt><trkpt lat="44.581889921621" lon="8.124834711542562"><ele>469.0</ele><time>2026-04-19T12:40:05.001Z</time></trkpt><trkpt lat="44.581908821098644" lon="8.125032173538349"><ele>469.0</ele><time>2026-04-19T12:40:06.001Z</time></trkpt><trkpt lat="44.58195722004168" lon="8.125242926976773"><ele>469.0</ele><time>2026-04-19T12:40:07.001Z</time></trkpt><trkpt lat="44.58201552971337" lon="8.125475658185668"><ele>464.0</ele><time>2026-04-19T12:40:08.001Z</time></trkpt><trkpt lat="44.58205670958203" lon="8.125734381157379"><ele>459.0</ele><time>2026-04-19T12:40:09.001Z</time></trkpt><trkpt lat="44.582066976143516" lon="8.126019634586113"><ele>454.0</ele><time>2026-04-19T12:40:10.001Z</time></trkpt><trkpt lat="44.58211277251825" lon="8.126295788970605"><ele>454.0</ele><time>2026-04-19T12:40:11.001Z</time></trkpt><trkpt lat="44.582153456243496" lon="8.12654679593349"><ele>454.0</ele><time>2026-04-19T12:40:12.001Z</time></trkpt><trkpt lat="44.58219859007257" lon="8.126773141783518"><ele>454.0</ele><time>2026-04-19T12:40:13.001Z</time></trkpt><trkpt lat="44.58223800730147" lon="8.126982702895683"><ele>455.75</ele><time>2026-04-19T12:40:14.001Z</time></trkpt><trkpt lat="44.582271848131136" lon="8.127177306298254"><ele>457.5</ele><time>2026-04-19T12:40:15.001Z</time></trkpt><trkpt lat="44.58230162202784" lon="8.12735848025768"><ele>459.25</ele><time>2026-04-19T12:40:16.001Z</time></trkpt><trkpt lat="44.58233434362875" lon="8.127525987453415"><ele>461.0</ele><time>2026-04-19T12:40:17.001Z</time></trkpt><trkpt lat="44.582390712392474" lon="8.127683605172999"><ele>463.3333333333333</ele><time>2026-04-19T12:40:18.001Z</time></trkpt><trkpt lat="44.58248890633264" lon="8.127832328918583"><ele>465.66666666666663</ele><time>2026-04-19T12:40:19.001Z</time></trkpt><trkpt lat="44.582618151991575" lon="8.127974503410131"><ele>468.0</ele><time>2026-04-19T12:40:20.001Z</time></trkpt><trkpt lat="44.58276522508822" lon="8.12811249588867"><ele>468.33333333333337</ele><time>2026-04-19T12:40:21.001Z</time></trkpt><trkpt lat="44.58292125116301" lon="8.128264883663011"><ele>468.6666666666667</ele><time>2026-04-19T12:40:22.001Z</time></trkpt><trkpt lat="44.583069669160984" lon="8.128457075392399"><ele>469.0</ele><time>2026-04-19T12:40:23.001Z</time></trkpt><trkpt lat="44.5832289421736" lon="8.128628471115642"><ele>469.0</ele><time>2026-04-19T12:40:24.001Z</time></trkpt><trkpt lat="44.58337762576" lon="8.128784690503167"><ele>469.0</ele><time>2026-04-19T12:40:25.001Z</time></trkpt><trkpt lat="44.58352814683944" lon="8.12891647645708"><ele>469.0</ele><time>2026-04-19T12:40:26.001Z</time></trkpt><trkpt lat="44.58365447647852" lon="8.129123060603897"><ele>467.33333333333337</ele><time>2026-04-19T12:40:27.001Z</time></trkpt><trkpt lat="44.58379511663112" lon="8.129334131068335"><ele>465.66666666666663</ele><time>2026-04-19T12:40:28.001Z</time></trkpt><trkpt lat="44.5839401692505" lon="8.129528386183381"><ele>464.0</ele><time>2026-04-19T12:40:29.001Z</time></trkpt><trkpt lat="44.58405815665757" lon="8.129731171419959"><ele>468.66666666666663</ele><time>2026-04-19T12:40:30.001Z</time></trkpt><trkpt lat="44.58416952864761" lon="8.129925964835587"><ele>473.33333333333337</ele><time>2026-04-19T12:40:31.001Z</time></trkpt><trkpt lat="44.58427824793339" lon="8.130104207706882"><ele>478.0</ele><time>2026-04-19T12:40:32.001Z</time></trkpt><trkpt lat="44.58440493722122" lon="8.130255728732138"><ele>474.0</ele><time>2026-04-19T12:40:33.001Z</time></trkpt><trkpt lat="44.58456189203398" lon="8.13037609175922"><ele>470.0</ele><time>2026-04-19T12:40:34.001Z</time></trkpt><trkpt lat="44.58473640084033" lon="8.130511737310371"><ele>466.0</ele><time>2026-04-19T12:40:35.001Z</time></trkpt><trkpt lat="44.58492288797669" lon="8.13064983597747"><ele>467.0</ele><time>2026-04-19T12:40:36.001Z</time></trkpt><trkpt lat="44.58511314093844" lon="8.130795247182363"><ele>468.0</ele><time>2026-04-19T12:40:37.001Z</time></trkpt><trkpt lat="44.58528873740005" lon="8.13092945643715"><ele>469.0</ele><time>2026-04-19T12:40:38.001Z</time></trkpt><trkpt lat="44.58545047467503" lon="8.131046205295299"><ele>469.0</ele><time>2026-04-19T12:40:39.001Z</time></trkpt><trkpt lat="44.58559612590067" lon="8.131148054396824"><ele>469.0</ele><time>2026-04-19T12:40:40.001Z</time></trkpt><trkpt lat="44.58572065750896" lon="8.131240558334476"><ele>469.0</ele><time>2026-04-19T12:40:41.001Z</time></trkpt><trkpt lat="44.58581050259038" lon="8.131335653978761"><ele>469.0</ele><time>2026-04-19T12:40:42.001Z</time></trkpt><trkpt lat="44.5858680152926" lon="8.131450067086465"><ele>471.2</ele><time>2026-04-19T12:40:43.001Z</time></trkpt><trkpt lat="44.58588123317925" lon="8.131602040116972"><ele>473.4</ele><time>2026-04-19T12:40:44.001Z</time></trkpt><trkpt lat="44.58584558418927" lon="8.131737220942652"><ele>475.6</ele><time>2026-04-19T12:40:45.001Z</time></trkpt><trkpt lat="44.58578246763848" lon="8.131829762811305"><ele>477.8</ele><time>2026-04-19T12:40:46.001Z</time></trkpt><trkpt lat="44.58567610479046" lon="8.131857275941545"><ele>480.0</ele><time>2026-04-19T12:40:47.001Z</time></trkpt><trkpt lat="44.58556690879833" lon="8.131880635778225"><ele>480.0</ele><time>2026-04-19T12:40:48Z</time></trkpt><trkpt lat="44.58543337600133" lon="8.131896529626697"><ele>480.0</ele><time>2026-04-19T12:40:49Z</time></trkpt><trkpt lat="44.58528648750776" lon="8.131928524234098"><ele>480.0</ele><time>2026-04-19T12:40:50.001Z</time></trkpt><trkpt lat="44.58513314643201" lon="8.13196192424742"><ele>480.0</ele><time>2026-04-19T12:40:51.001Z</time></trkpt><trkpt lat="44.584964970731114" lon="8.13199796135817"><ele>483.66666666666663</ele><time>2026-04-19T12:40:52.001Z</time></trkpt><trkpt lat="44.58479295314944" lon="8.13203480552906"><ele>487.3333333333333</ele><time>2026-04-19T12:40:53.001Z</time></trkpt><trkpt lat="44.584617142872744" lon="8.132073600794019"><ele>491.0</ele><time>2026-04-19T12:40:54.001Z</time></trkpt><trkpt lat="44.584449518338246" lon="8.132112113603533"><ele>495.3333333333333</ele><time>2026-04-19T12:40:55Z</time></trkpt><trkpt lat="44.584300365469645" lon="8.13213554110467"><ele>499.66666666666663</ele><time>2026-04-19T12:40:56.001Z</time></trkpt><trkpt lat="44.58414875686944" lon="8.13211366462337"><ele>504.0</ele><time>2026-04-19T12:40:57.001Z</time></trkpt><trkpt lat="44.58397941470787" lon="8.132065199338923"><ele>504.0</ele><time>2026-04-19T12:40:58.001Z</time></trkpt><trkpt lat="44.583798538003784" lon="8.132031110905695"><ele>504.0</ele><time>2026-04-19T12:40:59.001Z</time></trkpt><trkpt lat="44.58361772554603" lon="8.13197312852132"><ele>504.0</ele><time>2026-04-19T12:41:00.001Z</time></trkpt><trkpt lat="44.58342721113517" lon="8.131932986859278"><ele>508.66666666666663</ele><time>2026-04-19T12:41:01.001Z</time></trkpt><trkpt lat="44.58323403773369" lon="8.131909278785448"><ele>513.3333333333333</ele><time>2026-04-19T12:41:02.001Z</time></trkpt><trkpt lat="44.58303395280302" lon="8.13189922092761"><ele>518.0</ele><time>2026-04-19T12:41:03.001Z</time></trkpt><trkpt lat="44.58283179674877" lon="8.131894544752567"><ele>522.0</ele><time>2026-04-19T12:41:04.001Z</time></trkpt><trkpt lat="44.58263222435674" lon="8.131886034085383"><ele>526.0</ele><time>2026-04-19T12:41:05.001Z</time></trkpt><trkpt lat="44.58245533083898" lon="8.131875959507248"><ele>530.0</ele><time>2026-04-19T12:41:06.001Z</time></trkpt><trkpt lat="44.58229654375582" lon="8.131870904214939"><ele>530.0</ele><time>2026-04-19T12:41:07.001Z</time></trkpt><trkpt lat="44.58214085015022" lon="8.131882237067018"><ele>530.0</ele><time>2026-04-19T12:41:08.001Z</time></trkpt><trkpt lat="44.5819754871253" lon="8.131915656812135"><ele>530.0</ele><time>2026-04-19T12:41:09.001Z</time></trkpt><trkpt lat="44.581800819032345" lon="8.131942511690452"><ele>530.5</ele><time>2026-04-19T12:41:10.001Z</time></trkpt><trkpt lat="44.58164645716679" lon="8.131995567438961"><ele>531.0</ele><time>2026-04-19T12:41:11.001Z</time></trkpt><trkpt lat="44.58151452160697" lon="8.132052414383093"><ele>531.5</ele><time>2026-04-19T12:41:12.001Z</time></trkpt><trkpt lat="44.581383385695254" lon="8.132037679926658"><ele>532.0</ele><time>2026-04-19T12:41:13.001Z</time></trkpt><trkpt lat="44.581260524844396" lon="8.131943818092706"><ele>534.6666666666667</ele><time>2026-04-19T12:41:14.001Z</time></trkpt><trkpt lat="44.58113166298103" lon="8.131840280785218"><ele>537.3333333333334</ele><time>2026-04-19T12:41:15.001Z</time></trkpt><trkpt lat="44.5809929729934" lon="8.131727647257692"><ele>540.0</ele><time>2026-04-19T12:41:16.001Z</time></trkpt><trkpt lat="44.58084225664233" lon="8.131609532434593"><ele>538.0</ele><time>2026-04-19T12:41:17.001Z</time></trkpt><trkpt lat="44.58068540982478" lon="8.131491426239716"><ele>536.0</ele><time>2026-04-19T12:41:18.001Z</time></trkpt><trkpt lat="44.580528275748385" lon="8.13138829683025"><ele>534.0</ele><time>2026-04-19T12:41:19.001Z</time></trkpt><trkpt lat="44.58037922153566" lon="8.131297124879021"><ele>537.5</ele><time>2026-04-19T12:41:20.001Z</time></trkpt><trkpt lat="44.580240167405044" lon="8.13123625646908"><ele>541.0</ele><time>2026-04-19T12:41:21.001Z</time></trkpt><trkpt lat="44.58013213906724" lon="8.131143799006232"><ele>544.5</ele><time>2026-04-19T12:41:22.001Z</time></trkpt><trkpt lat="44.580034250774595" lon="8.131080069700106"><ele>548.0</ele><time>2026-04-19T12:41:23.001Z</time></trkpt><trkpt lat="44.57994607198667" lon="8.131045988670955"><ele>548.0</ele><time>2026-04-19T12:41:24.001Z</time></trkpt><trkpt lat="44.57988291583794" lon="8.13099960263251"><ele>548.0</ele><time>2026-04-19T12:41:25.001Z</time></trkpt><trkpt lat="44.57982074837439" lon="8.130977981461566"><ele>548.0</ele><time>2026-04-19T12:41:26.001Z</time></trkpt><trkpt lat="44.57975500225548" lon="8.130956330759583"><ele>548.0</ele><time>2026-04-19T12:41:27.001Z</time></trkpt><trkpt lat="44.579681370677" lon="8.131002299453202"><ele>548.0</ele><time>2026-04-19T12:41:28.001Z</time></trkpt><trkpt lat="44.57966127661633" lon="8.131200388628093"><ele>548.0</ele><time>2026-04-19T12:41:29Z</time></trkpt><trkpt lat="44.57961638063918" lon="8.131351881997036"><ele>548.0</ele><time>2026-04-19T12:41:30Z</time></trkpt><trkpt lat="44.57957697656294" lon="8.131526725331067"><ele>548.0</ele><time>2026-04-19T12:41:31Z</time></trkpt><trkpt lat="44.57953793509969" lon="8.131722873450805"><ele>548.0</ele><time>2026-04-19T12:41:32Z</time></trkpt><trkpt lat="44.57949874632674" lon="8.131934937152518"><ele>548.0</ele><time>2026-04-19T12:41:33Z</time></trkpt><trkpt lat="44.579481635044566" lon="8.132130774797727"><ele>550.6</ele><time>2026-04-19T12:41:34Z</time></trkpt><trkpt lat="44.57948382586386" lon="8.13231223653694"><ele>553.1999999999999</ele><time>2026-04-19T12:41:35Z</time></trkpt><trkpt lat="44.579494011032445" lon="8.132471537794695"><ele>555.8</ele><time>2026-04-19T12:41:36Z</time></trkpt><trkpt lat="44.57950235998759" lon="8.13259898640211"><ele>558.4</ele><time>2026-04-19T12:41:37Z</time></trkpt><trkpt lat="44.579503017383885" lon="8.132693339844723"><ele>561.0</ele><time>2026-04-19T12:41:38Z</time></trkpt><trkpt lat="44.579462196996026" lon="8.132831888070605"><ele>561.0</ele><time>2026-04-19T12:41:40Z</time></trkpt><trkpt lat="44.57935652564137" lon="8.132866824003523"><ele>561.0</ele><time>2026-04-19T12:41:43Z</time></trkpt><trkpt lat="44.57923452529248" lon="8.132813163287377"><ele>561.0</ele><time>2026-04-19T12:41:45Z</time></trkpt><trkpt lat="44.579156277038784" lon="8.132803478593857"><ele>561.0</ele><time>2026-04-19T12:41:46Z</time></trkpt><trkpt lat="44.57908067412265" lon="8.132792509168684"><ele>561.0</ele><time>2026-04-19T12:41:47Z</time></trkpt><trkpt lat="44.5790148607134" lon="8.132782786383702"><ele>561.0</ele><time>2026-04-19T12:41:48Z</time></trkpt><trkpt lat="44.578918484006245" lon="8.132758800321552"><ele>561.0</ele><time>2026-04-19T12:41:50Z</time></trkpt><trkpt lat="44.57888351736201" lon="8.132937605547097"><ele>561.0</ele><time>2026-04-19T12:41:52Z</time></trkpt><trkpt lat="44.57885043675405" lon="8.133046199603095"><ele>561.0</ele><time>2026-04-19T12:41:53Z</time></trkpt><trkpt lat="44.578830878719145" lon="8.133190917572929"><ele>561.0</ele><time>2026-04-19T12:41:54Z</time></trkpt><trkpt lat="44.57879470924377" lon="8.133363009230408"><ele>560.0</ele><time>2026-04-19T12:41:55Z</time></trkpt><trkpt lat="44.57875965959292" lon="8.133560266326574"><ele>559.0</ele><time>2026-04-19T12:41:56Z</time></trkpt><trkpt lat="44.57872827122308" lon="8.133781185402515"><ele>558.0</ele><time>2026-04-19T12:41:57Z</time></trkpt><trkpt lat="44.57869900302473" lon="8.134001115650127"><ele>554.5</ele><time>2026-04-19T12:41:58Z</time></trkpt><trkpt lat="44.578673422646794" lon="8.134209119894306"><ele>551.0</ele><time>2026-04-19T12:41:59Z</time></trkpt><trkpt lat="44.57864645731885" lon="8.134412346840982"><ele>547.5</ele><time>2026-04-19T12:42:00Z</time></trkpt><trkpt lat="44.578617498447976" lon="8.134610823854466"><ele>544.0</ele><time>2026-04-19T12:42:01Z</time></trkpt><trkpt lat="44.57858728224647" lon="8.134803316043847"><ele>543.5</ele><time>2026-04-19T12:42:02Z</time></trkpt><trkpt lat="44.57855791005356" lon="8.134990490203672"><ele>543.0</ele><time>2026-04-19T12:42:03Z</time></trkpt><trkpt lat="44.57853605732978" lon="8.135173314290467"><ele>542.5</ele><time>2026-04-19T12:42:04Z</time></trkpt><trkpt lat="44.57852525898662" lon="8.135358418075255"><ele>542.0</ele><time>2026-04-19T12:42:05Z</time></trkpt><trkpt lat="44.57852948196096" lon="8.135552158569359"><ele>541.6666666666666</ele><time>2026-04-19T12:42:06Z</time></trkpt><trkpt lat="44.57855642211306" lon="8.13576342019989"><ele>541.3333333333334</ele><time>2026-04-19T12:42:07Z</time></trkpt><trkpt lat="44.57859971403683" lon="8.135971850693444"><ele>541.0</ele><time>2026-04-19T12:42:08Z</time></trkpt><trkpt lat="44.57864404252887" lon="8.136170105885471"><ele>543.25</ele><time>2026-04-19T12:42:09Z</time></trkpt><trkpt lat="44.57869189354599" lon="8.13635802795113"><ele>545.5</ele><time>2026-04-19T12:42:10Z</time></trkpt><trkpt lat="44.578753937677604" lon="8.13652748938916"><ele>547.75</ele><time>2026-04-19T12:42:11Z</time></trkpt><trkpt lat="44.578821662246405" lon="8.136683996867328"><ele>550.0</ele><time>2026-04-19T12:42:12Z</time></trkpt><trkpt lat="44.578867804447164" lon="8.136845302934658"><ele>550.0</ele><time>2026-04-19T12:42:13Z</time></trkpt><trkpt lat="44.57888003887718" lon="8.137024145494832"><ele>550.0</ele><time>2026-04-19T12:42:14Z</time></trkpt><trkpt lat="44.578857034281945" lon="8.137231462463959"><ele>550.0</ele><time>2026-04-19T12:42:15Z</time></trkpt><trkpt lat="44.578788342709416" lon="8.137448136054486"><ele>550.0</ele><time>2026-04-19T12:42:16Z</time></trkpt><trkpt lat="44.57870780554952" lon="8.137681307626302"><ele>544.3333333333334</ele><time>2026-04-19T12:42:17Z</time></trkpt><trkpt lat="44.578635081245224" lon="8.13793933721676"><ele>538.6666666666666</ele><time>2026-04-19T12:42:18Z</time></trkpt><trkpt lat="44.5785522353328" lon="8.138182838841487"><ele>533.0</ele><time>2026-04-19T12:42:19Z</time></trkpt><trkpt lat="44.57847914689941" lon="8.138418446338006"><ele>533.0</ele><time>2026-04-19T12:42:20Z</time></trkpt><trkpt lat="44.57840351999032" lon="8.138646318643328"><ele>533.0</ele><time>2026-04-19T12:42:21Z</time></trkpt><trkpt lat="44.578319119774456" lon="8.138856927877129"><ele>533.0</ele><time>2026-04-19T12:42:22Z</time></trkpt><trkpt lat="44.57821891346747" lon="8.139047537541149"><ele>533.0</ele><time>2026-04-19T12:42:23Z</time></trkpt><trkpt lat="44.57810009644136" lon="8.139206824544578"><ele>533.0</ele><time>2026-04-19T12:42:24Z</time></trkpt><trkpt lat="44.57795912470352" lon="8.139346044797495"><ele>533.0</ele><time>2026-04-19T12:42:25Z</time></trkpt><trkpt lat="44.577800829662614" lon="8.139451891018156"><ele>530.3333333333333</ele><time>2026-04-19T12:42:26Z</time></trkpt><trkpt lat="44.57764687233131" lon="8.13953213067889"><ele>527.6666666666666</ele><time>2026-04-19T12:42:27Z</time></trkpt><trkpt lat="44.57749973369354" lon="8.139632574468381"><ele>525.0</ele><time>2026-04-19T12:42:28Z</time></trkpt><trkpt lat="44.577359015990815" lon="8.139773095556208"><ele>526.3333333333334</ele><time>2026-04-19T12:42:29Z</time></trkpt><trkpt lat="44.577229767442304" lon="8.13995663640926"><ele>527.6666666666667</ele><time>2026-04-19T12:42:30Z</time></trkpt><trkpt lat="44.57710955139198" lon="8.140167039344346"><ele>529.0</ele><time>2026-04-19T12:42:31Z</time></trkpt><trkpt lat="44.57699459470915" lon="8.140374310749037"><ele>526.0</ele><time>2026-04-19T12:42:32Z</time></trkpt><trkpt lat="44.576872706905945" lon="8.140565963397842"><ele>523.0</ele><time>2026-04-19T12:42:33Z</time></trkpt><trkpt lat="44.57673725325816" lon="8.140746897932491"><ele>520.0</ele><time>2026-04-19T12:42:34Z</time></trkpt><trkpt lat="44.57658951446286" lon="8.140917171212866"><ele>520.0</ele><time>2026-04-19T12:42:35Z</time></trkpt><trkpt lat="44.57643090884794" lon="8.141072913108218"><ele>520.0</ele><time>2026-04-19T12:42:36Z</time></trkpt><trkpt lat="44.57628141303092" lon="8.141250100399965"><ele>520.0</ele><time>2026-04-19T12:42:37Z</time></trkpt><trkpt lat="44.57615074144347" lon="8.141470193123022"><ele>515.6666666666667</ele><time>2026-04-19T12:42:38Z</time></trkpt><trkpt lat="44.57601413716025" lon="8.14169378437076"><ele>511.33333333333337</ele><time>2026-04-19T12:42:39Z</time></trkpt><trkpt lat="44.57587420127944" lon="8.14190259462543"><ele>507.0</ele><time>2026-04-19T12:42:40Z</time></trkpt><trkpt lat="44.57573385646185" lon="8.142094419697017"><ele>507.0</ele><time>2026-04-19T12:42:41Z</time></trkpt><trkpt lat="44.5755894518071" lon="8.142287120187559"><ele>507.0</ele><time>2026-04-19T12:42:42Z</time></trkpt><trkpt lat="44.57544032322515" lon="8.142484084884861"><ele>507.0</ele><time>2026-04-19T12:42:43Z</time></trkpt><trkpt lat="44.57528899716348" lon="8.142682816211062"><ele>509.33333333333337</ele><time>2026-04-19T12:42:44Z</time></trkpt><trkpt lat="44.57513453129105" lon="8.142883926579586"><ele>511.6666666666667</ele><time>2026-04-19T12:42:45Z</time></trkpt><trkpt lat="44.574986921091295" lon="8.143086774656874"><ele>514.0</ele><time>2026-04-19T12:42:46Z</time></trkpt><trkpt lat="44.57484416567055" lon="8.143285872490454"><ele>514.0</ele><time>2026-04-19T12:42:47Z</time></trkpt><trkpt lat="44.57469567086325" lon="8.143466459205477"><ele>514.0</ele><time>2026-04-19T12:42:48Z</time></trkpt><trkpt lat="44.57454493308286" lon="8.143636830048445"><ele>514.0</ele><time>2026-04-19T12:42:49Z</time></trkpt><trkpt lat="44.57438761288025" lon="8.143795640716975"><ele>513.6666666666667</ele><time>2026-04-19T12:42:50Z</time></trkpt><trkpt lat="44.57421766944417" lon="8.143953522645495"><ele>513.3333333333334</ele><time>2026-04-19T12:42:51Z</time></trkpt><trkpt lat="44.574041171325995" lon="8.144110442510822"><ele>513.0</ele><time>2026-04-19T12:42:52Z</time></trkpt><trkpt lat="44.57386592060207" lon="8.14425665295281"><ele>513.0</ele><time>2026-04-19T12:42:53Z</time></trkpt><trkpt lat="44.57369386280843" lon="8.144394301279508"><ele>513.0</ele><time>2026-04-19T12:42:54Z</time></trkpt><trkpt lat="44.573521350223565" lon="8.144523941530386"><ele>513.0</ele><time>2026-04-19T12:42:55Z</time></trkpt><trkpt lat="44.573350436945454" lon="8.144647894977908"><ele>512.3333333333334</ele><time>2026-04-19T12:42:56Z</time></trkpt><trkpt lat="44.57318364393021" lon="8.144770974631614"><ele>511.6666666666667</ele><time>2026-04-19T12:42:57Z</time></trkpt><trkpt lat="44.5730304036968" lon="8.14491468239508"><ele>511.0</ele><time>2026-04-19T12:42:58Z</time></trkpt><trkpt lat="44.57288846666719" lon="8.145072672125758"><ele>500.0</ele><time>2026-04-19T12:42:59Z</time></trkpt><trkpt lat="44.57275302202048" lon="8.145235169919614"><ele>489.0</ele><time>2026-04-19T12:43:00Z</time></trkpt><trkpt lat="44.57261939977608" lon="8.145397422189445"><ele>478.0</ele><time>2026-04-19T12:43:01Z</time></trkpt><trkpt lat="44.57248570079752" lon="8.14554729315272"><ele>484.6666666666667</ele><time>2026-04-19T12:43:02Z</time></trkpt><trkpt lat="44.57236172051677" lon="8.145725104105166"><ele>491.33333333333337</ele><time>2026-04-19T12:43:03Z</time></trkpt><trkpt lat="44.57225220109672" lon="8.145936519070187"><ele>498.0</ele><time>2026-04-19T12:43:04Z</time></trkpt><trkpt lat="44.57215469272227" lon="8.146147167482907"><ele>498.0</ele><time>2026-04-19T12:43:05Z</time></trkpt><trkpt lat="44.57204559696067" lon="8.146342078424553"><ele>498.0</ele><time>2026-04-19T12:43:06Z</time></trkpt><trkpt lat="44.571932792703954" lon="8.146513915491157"><ele>498.0</ele><time>2026-04-19T12:43:07Z</time></trkpt><trkpt lat="44.57183838612013" lon="8.14670203718077"><ele>492.66666666666663</ele><time>2026-04-19T12:43:08Z</time></trkpt><trkpt lat="44.57177594932671" lon="8.146936187434834"><ele>487.3333333333333</ele><time>2026-04-19T12:43:09Z</time></trkpt><trkpt lat="44.57173265406177" lon="8.147190477651096"><ele>482.0</ele><time>2026-04-19T12:43:10Z</time></trkpt><trkpt lat="44.57166333392246" lon="8.147440518825723"><ele>482.0</ele><time>2026-04-19T12:43:11Z</time></trkpt><trkpt lat="44.57157674169489" lon="8.147667463701378"><ele>482.0</ele><time>2026-04-19T12:43:12Z</time></trkpt><trkpt lat="44.571498497439045" lon="8.147881854138111"><ele>482.0</ele><time>2026-04-19T12:43:13Z</time></trkpt><trkpt lat="44.571433878766186" lon="8.14807621079742"><ele>483.0</ele><time>2026-04-19T12:43:14Z</time></trkpt><trkpt lat="44.571360034501886" lon="8.148239590035791"><ele>484.0</ele><time>2026-04-19T12:43:15Z</time></trkpt><trkpt lat="44.57130313163239" lon="8.148390414172258"><ele>485.0</ele><time>2026-04-19T12:43:16Z</time></trkpt><trkpt lat="44.571293149385255" lon="8.148548553316996"><ele>486.0</ele><time>2026-04-19T12:43:17Z</time></trkpt><trkpt lat="44.57132055363441" lon="8.148714445275168"><ele>486.0</ele><time>2026-04-19T12:43:18Z</time></trkpt><trkpt lat="44.57139270359653" lon="8.148893560467545"><ele>486.0</ele><time>2026-04-19T12:43:19Z</time></trkpt><trkpt lat="44.571482010390405" lon="8.14906544814298"><ele>486.0</ele><time>2026-04-19T12:43:20Z</time></trkpt><trkpt lat="44.57159048694269" lon="8.149198352597233"><ele>486.0</ele><time>2026-04-19T12:43:21Z</time></trkpt><trkpt lat="44.5716964445825" lon="8.149287944689245"><ele>483.6666666666667</ele><time>2026-04-19T12:43:22Z</time></trkpt><trkpt lat="44.57176223347339" lon="8.149381094576814"><ele>481.33333333333337</ele><time>2026-04-19T12:43:23Z</time></trkpt><trkpt lat="44.571817216046504" lon="8.14944494341327"><ele>479.0</ele><time>2026-04-19T12:43:24Z</time></trkpt><trkpt lat="44.57185489016994" lon="8.14953565219107"><ele>476.6666666666667</ele><time>2026-04-19T12:43:26Z</time></trkpt><trkpt lat="44.5717425341592" lon="8.149575776804998"><ele>474.33333333333337</ele><time>2026-04-19T12:43:28Z</time></trkpt><trkpt lat="44.57168148278172" lon="8.14948112704785"><ele>472.0</ele><time>2026-04-19T12:43:29Z</time></trkpt><trkpt lat="44.57159691909279" lon="8.149374044626322"><ele>472.0</ele><time>2026-04-19T12:43:30Z</time></trkpt><trkpt lat="44.5714881347329" lon="8.149235796884724"><ele>472.0</ele><time>2026-04-19T12:43:31Z</time></trkpt><trkpt lat="44.57136550928528" lon="8.149086222101765"><ele>472.0</ele><time>2026-04-19T12:43:32Z</time></trkpt><trkpt lat="44.571255462137344" lon="8.148949558295998"><ele>464.25</ele><time>2026-04-19T12:43:33Z</time></trkpt><trkpt lat="44.57116187050929" lon="8.14882351085135"><ele>456.5</ele><time>2026-04-19T12:43:34Z</time></trkpt><trkpt lat="44.57109285077264" lon="8.148688285071719"><ele>448.75</ele><time>2026-04-19T12:43:35Z</time></trkpt><trkpt lat="44.571059502759994" lon="8.148534943816886"><ele>441.0</ele><time>2026-04-19T12:43:36Z</time></trkpt><trkpt lat="44.57107459506859" lon="8.148353997254416"><ele>438.0</ele><time>2026-04-19T12:43:37Z</time></trkpt><trkpt lat="44.571105706136755" lon="8.14813840387722"><ele>435.0</ele><time>2026-04-19T12:43:38Z</time></trkpt><trkpt lat="44.57113046391681" lon="8.147890426569925"><ele>432.0</ele><time>2026-04-19T12:43:39Z</time></trkpt><trkpt lat="44.57116377932667" lon="8.147615909339777"><ele>444.66666666666663</ele><time>2026-04-19T12:43:40Z</time></trkpt><trkpt lat="44.571209576889636" lon="8.147345977301146"><ele>457.3333333333333</ele><time>2026-04-19T12:43:41Z</time></trkpt><trkpt lat="44.571243875658936" lon="8.147085855250104"><ele>470.0</ele><time>2026-04-19T12:43:42Z</time></trkpt><trkpt lat="44.5712692447108" lon="8.146826549462324"><ele>470.0</ele><time>2026-04-19T12:43:43Z</time></trkpt><trkpt lat="44.57130005253779" lon="8.146577177158964"><ele>470.0</ele><time>2026-04-19T12:43:44Z</time></trkpt><trkpt lat="44.57136193515535" lon="8.146339098104935"><ele>470.0</ele><time>2026-04-19T12:43:45Z</time></trkpt><trkpt lat="44.57142859125741" lon="8.146102435984934"><ele>465.0</ele><time>2026-04-19T12:43:46Z</time></trkpt><trkpt lat="44.571487533018775" lon="8.145873308274533"><ele>460.0</ele><time>2026-04-19T12:43:47Z</time></trkpt><trkpt lat="44.571538784487714" lon="8.14564791705564"><ele>455.0</ele><time>2026-04-19T12:43:48Z</time></trkpt><trkpt lat="44.57160660983154" lon="8.145446748230787"><ele>452.4</ele><time>2026-04-19T12:43:49Z</time></trkpt><trkpt lat="44.57166241012378" lon="8.145281188461771"><ele>449.8</ele><time>2026-04-19T12:43:50Z</time></trkpt><trkpt lat="44.57169552911094" lon="8.145160576483681"><ele>447.20000000000005</ele><time>2026-04-19T12:43:51Z</time></trkpt><trkpt lat="44.57169740423209" lon="8.145068221775453"><ele>444.6</ele><time>2026-04-19T12:43:52Z</time></trkpt><trkpt lat="44.57162807825845" lon="8.144949358973454"><ele>442.0</ele><time>2026-04-19T12:43:54Z</time></trkpt><trkpt lat="44.57154171280384" lon="8.144992590626485"><ele>442.0</ele><time>2026-04-19T12:43:55Z</time></trkpt><trkpt lat="44.5714914049835" lon="8.145124671988013"><ele>442.0</ele><time>2026-04-19T12:43:56Z</time></trkpt><trkpt lat="44.571443989628214" lon="8.145270031077551"><ele>442.0</ele><time>2026-04-19T12:43:57Z</time></trkpt><trkpt lat="44.571391003107706" lon="8.145451615969106"><ele>442.0</ele><time>2026-04-19T12:43:58Z</time></trkpt><trkpt lat="44.57132109326353" lon="8.145663976415392"><ele>446.33333333333337</ele><time>2026-04-19T12:43:59Z</time></trkpt><trkpt lat="44.571233507390644" lon="8.145892694563123"><ele>450.66666666666663</ele><time>2026-04-19T12:44:00Z</time></trkpt><trkpt lat="44.57114046650817" lon="8.146119658402839"><ele>455.0</ele><time>2026-04-19T12:44:01Z</time></trkpt><trkpt lat="44.57105084478871" lon="8.146333297746354"><ele>445.66666666666663</ele><time>2026-04-19T12:44:02Z</time></trkpt><trkpt lat="44.57096444301033" lon="8.146561989703727"><ele>436.33333333333337</ele><time>2026-04-19T12:44:03Z</time></trkpt><trkpt lat="44.570883952958575" lon="8.14680909313478"><ele>427.0</ele><time>2026-04-19T12:44:04Z</time></trkpt><trkpt lat="44.570811739695685" lon="8.147072937922239"><ele>427.0</ele><time>2026-04-19T12:44:05Z</time></trkpt><trkpt lat="44.57074252124962" lon="8.147331496987618"><ele>427.0</ele><time>2026-04-19T12:44:06Z</time></trkpt><trkpt lat="44.57067464524772" lon="8.147580371759469"><ele>427.0</ele><time>2026-04-19T12:44:07Z</time></trkpt><trkpt lat="44.570605579135794" lon="8.147818723401231"><ele>428.6666666666667</ele><time>2026-04-19T12:44:08Z</time></trkpt><trkpt lat="44.57053632426566" lon="8.148046193113364"><ele>430.33333333333337</ele><time>2026-04-19T12:44:09Z</time></trkpt><trkpt lat="44.570465948556475" lon="8.14826210023466"><ele>432.0</ele><time>2026-04-19T12:44:10Z</time></trkpt><trkpt lat="44.570399039907734" lon="8.148480090529167"><ele>425.0</ele><time>2026-04-19T12:44:11Z</time></trkpt><trkpt lat="44.570344708318274" lon="8.148697310571249"><ele>418.0</ele><time>2026-04-19T12:44:12Z</time></trkpt><trkpt lat="44.57030987750277" lon="8.148893794626286"><ele>411.0</ele><time>2026-04-19T12:44:13Z</time></trkpt><trkpt lat="44.57030203636465" lon="8.149073970261709"><ele>404.0</ele><time>2026-04-19T12:44:14Z</time></trkpt><trkpt lat="44.57033073494636" lon="8.1492711229865"><ele>410.3333333333333</ele><time>2026-04-19T12:44:15Z</time></trkpt><trkpt lat="44.57039513191196" lon="8.14947768628414"><ele>416.66666666666663</ele><time>2026-04-19T12:44:16Z</time></trkpt><trkpt lat="44.57048663743208" lon="8.149687412325596"><ele>423.0</ele><time>2026-04-19T12:44:17Z</time></trkpt><trkpt lat="44.57058920632169" lon="8.149896937188178"><ele>423.0</ele><time>2026-04-19T12:44:18Z</time></trkpt><trkpt lat="44.57068565866706" lon="8.150097900150772"><ele>423.0</ele><time>2026-04-19T12:44:19Z</time></trkpt><trkpt lat="44.57077233714865" lon="8.150298178856112"><ele>423.0</ele><time>2026-04-19T12:44:20Z</time></trkpt><trkpt lat="44.5708481566522" lon="8.150489895163366"><ele>423.0</ele><time>2026-04-19T12:44:21Z</time></trkpt><trkpt lat="44.57092729559361" lon="8.150668401402301"><ele>423.0</ele><time>2026-04-19T12:44:22Z</time></trkpt><trkpt lat="44.57098432792938" lon="8.150839208975682"><ele>423.0</ele><time>2026-04-19T12:44:23Z</time></trkpt><trkpt lat="44.57105454556745" lon="8.150966226350782"><ele>423.0</ele><time>2026-04-19T12:44:24Z</time></trkpt><trkpt lat="44.57111382066566" lon="8.151058164234133"><ele>419.4</ele><time>2026-04-19T12:44:25Z</time></trkpt><trkpt lat="44.57114744438704" lon="8.151174995883272"><ele>415.79999999999995</ele><time>2026-04-19T12:44:27Z</time></trkpt><trkpt lat="44.57104060462714" lon="8.151190055009108"><ele>412.2</ele><time>2026-04-19T12:44:29Z</time></trkpt><trkpt lat="44.570998560531656" lon="8.151085312545591"><ele>408.6</ele><time>2026-04-19T12:44:30Z</time></trkpt><trkpt lat="44.570931538127226" lon="8.150972351243794"><ele>405.0</ele><time>2026-04-19T12:44:31Z</time></trkpt><trkpt lat="44.57085294020001" lon="8.1508384048486"><ele>411.0</ele><time>2026-04-19T12:44:32Z</time></trkpt><trkpt lat="44.570761109074425" lon="8.150681906514452"><ele>417.0</ele><time>2026-04-19T12:44:33Z</time></trkpt><trkpt lat="44.57065364240986" lon="8.150519810947861"><ele>423.0</ele><time>2026-04-19T12:44:34Z</time></trkpt><trkpt lat="44.57054986308169" lon="8.150348701842717"><ele>423.0</ele><time>2026-04-19T12:44:35Z</time></trkpt><trkpt lat="44.57044506017471" lon="8.15019545654718"><ele>423.0</ele><time>2026-04-19T12:44:36Z</time></trkpt><trkpt lat="44.57033191614378" lon="8.15006065484364"><ele>423.0</ele><time>2026-04-19T12:44:37Z</time></trkpt><trkpt lat="44.570221287067184" lon="8.149940222944268"><ele>423.0</ele><time>2026-04-19T12:44:38Z</time></trkpt><trkpt lat="44.570085098920885" lon="8.149896856639934"><ele>417.0</ele><time>2026-04-19T12:44:39Z</time></trkpt><trkpt lat="44.5699520868307" lon="8.149937936666571"><ele>411.0</ele><time>2026-04-19T12:44:40Z</time></trkpt><trkpt lat="44.56983176506546" lon="8.149986455279846"><ele>405.0</ele><time>2026-04-19T12:44:41Z</time></trkpt><trkpt lat="44.56972057975047" lon="8.150006382516002"><ele>399.0</ele><time>2026-04-19T12:44:42Z</time></trkpt><trkpt lat="44.56963300066476" lon="8.149965976848923"><ele>399.0</ele><time>2026-04-19T12:44:43Z</time></trkpt><trkpt lat="44.5695687139566" lon="8.149879344445077"><ele>399.0</ele><time>2026-04-19T12:44:44Z</time></trkpt><trkpt lat="44.56953991145163" lon="8.149759628446207"><ele>399.0</ele><time>2026-04-19T12:44:45Z</time></trkpt><trkpt lat="44.569576161654034" lon="8.149614434780496"><ele>399.0</ele><time>2026-04-19T12:44:46Z</time></trkpt><trkpt lat="44.569608802460685" lon="8.149440691782855"><ele>399.0</ele><time>2026-04-19T12:44:47Z</time></trkpt><trkpt lat="44.56963740757501" lon="8.149236029384031"><ele>400.0</ele><time>2026-04-19T12:44:48Z</time></trkpt><trkpt lat="44.56968984320643" lon="8.14906479840598"><ele>401.0</ele><time>2026-04-19T12:44:49Z</time></trkpt><trkpt lat="44.569721579198294" lon="8.148900420620956"><ele>402.0</ele><time>2026-04-19T12:44:50Z</time></trkpt><trkpt lat="44.56972097176165" lon="8.148733290412979"><ele>403.0</ele><time>2026-04-19T12:44:51Z</time></trkpt><trkpt lat="44.5696868802464" lon="8.148576026088477"><ele>403.0</ele><time>2026-04-19T12:44:52Z</time></trkpt><trkpt lat="44.56961852281034" lon="8.148454555216537"><ele>403.0</ele><time>2026-04-19T12:44:53Z</time></trkpt><trkpt lat="44.5695418166193" lon="8.148354465161237"><ele>403.0</ele><time>2026-04-19T12:44:54Z</time></trkpt><trkpt lat="44.56941932560839" lon="8.148364793407731"><ele>403.0</ele><time>2026-04-19T12:44:55Z</time></trkpt><trkpt lat="44.56929593339807" lon="8.148403767940813"><ele>401.6666666666667</ele><time>2026-04-19T12:44:56Z</time></trkpt><trkpt lat="44.569161977107015" lon="8.148489393646345"><ele>400.33333333333337</ele><time>2026-04-19T12:44:57Z</time></trkpt><trkpt lat="44.56901756540921" lon="8.148586234952393"><ele>399.0</ele><time>2026-04-19T12:44:58Z</time></trkpt><trkpt lat="44.568859632794435" lon="8.148690096228066"><ele>401.66666666666663</ele><time>2026-04-19T12:44:59Z</time></trkpt><trkpt lat="44.568688895485174" lon="8.148800332543457"><ele>404.3333333333333</ele><time>2026-04-19T12:45:00Z</time></trkpt><trkpt lat="44.56851028333501" lon="8.148917395163526"><ele>407.0</ele><time>2026-04-19T12:45:01Z</time></trkpt><trkpt lat="44.568325521081746" lon="8.14904067888151"><ele>400.3333333333333</ele><time>2026-04-19T12:45:02Z</time></trkpt><trkpt lat="44.568138354612636" lon="8.14916027774194"><ele>393.66666666666663</ele><time>2026-04-19T12:45:03Z</time></trkpt><trkpt lat="44.56794801525172" lon="8.149274924335229"><ele>387.0</ele><time>2026-04-19T12:45:04Z</time></trkpt><trkpt lat="44.56776111968084" lon="8.149388684942174"><ele>387.0</ele><time>2026-04-19T12:45:05Z</time></trkpt><trkpt lat="44.56758042584886" lon="8.149501864141047"><ele>387.0</ele><time>2026-04-19T12:45:06Z</time></trkpt><trkpt lat="44.56740363891125" lon="8.149612873278455"><ele>387.0</ele><time>2026-04-19T12:45:07Z</time></trkpt><trkpt lat="44.56722913774987" lon="8.149721729939484"><ele>387.0</ele><time>2026-04-19T12:45:08Z</time></trkpt><trkpt lat="44.567058276070014" lon="8.14982720681501"><ele>387.0</ele><time>2026-04-19T12:45:09Z</time></trkpt><trkpt lat="44.56689090895044" lon="8.149931127864201"><ele>387.0</ele><time>2026-04-19T12:45:10Z</time></trkpt><trkpt lat="44.566725451247045" lon="8.150033534215888"><ele>384.3333333333333</ele><time>2026-04-19T12:45:11Z</time></trkpt><trkpt lat="44.56656622099285" lon="8.150134401893657"><ele>381.66666666666663</ele><time>2026-04-19T12:45:12Z</time></trkpt><trkpt lat="44.566414696229245" lon="8.150236790019346"><ele>379.0</ele><time>2026-04-19T12:45:13Z</time></trkpt><trkpt lat="44.566271470040405" lon="8.150333979653794"><ele>380.75</ele><time>2026-04-19T12:45:14Z</time></trkpt><trkpt lat="44.56613141128431" lon="8.150419907896891"><ele>382.5</ele><time>2026-04-19T12:45:15Z</time></trkpt><trkpt lat="44.565991837764095" lon="8.150464930624429"><ele>384.25</ele><time>2026-04-19T12:45:16Z</time></trkpt><trkpt lat="44.56585641404608" lon="8.150467062152604"><ele>386.0</ele><time>2026-04-19T12:45:17Z</time></trkpt><trkpt lat="44.56572099864419" lon="8.150426197546171"><ele>386.0</ele><time>2026-04-19T12:45:18Z</time></trkpt><trkpt lat="44.56559832288884" lon="8.15031025066747"><ele>386.0</ele><time>2026-04-19T12:45:19Z</time></trkpt><trkpt lat="44.56546762831673" lon="8.15021641506362"><ele>386.0</ele><time>2026-04-19T12:45:20Z</time></trkpt><trkpt lat="44.56535579165554" lon="8.150117035973409"><ele>386.0</ele><time>2026-04-19T12:45:21Z</time></trkpt><trkpt lat="44.56524595370346" lon="8.150044236111023"><ele>385.6</ele><time>2026-04-19T12:45:22Z</time></trkpt><trkpt lat="44.56513663165039" lon="8.150007107685461"><ele>385.20000000000005</ele><time>2026-04-19T12:45:23Z</time></trkpt><trkpt lat="44.565031673254616" lon="8.150015939841765"><ele>384.79999999999995</ele><time>2026-04-19T12:45:24Z</time></trkpt><trkpt lat="44.564937758635075" lon="8.150071229262462"><ele>384.4</ele><time>2026-04-19T12:45:25Z</time></trkpt><trkpt lat="44.56486837089766" lon="8.150184801224796"><ele>384.0</ele><time>2026-04-19T12:45:26Z</time></trkpt><trkpt lat="44.564819153934884" lon="8.150331043800414"><ele>384.0</ele><time>2026-04-19T12:45:27Z</time></trkpt><trkpt lat="44.564803164176745" lon="8.150512843653285"><ele>384.0</ele><time>2026-04-19T12:45:28Z</time></trkpt><trkpt lat="44.56480532654457" lon="8.15068922518008"><ele>384.0</ele><time>2026-04-19T12:45:29Z</time></trkpt><trkpt lat="44.564812177611344" lon="8.150844021095551"><ele>384.0</ele><time>2026-04-19T12:45:30Z</time></trkpt><trkpt lat="44.56481253029676" lon="8.150987774212414"><ele>383.2</ele><time>2026-04-19T12:45:31Z</time></trkpt><trkpt lat="44.56480013051017" lon="8.15112349992189"><ele>382.4</ele><time>2026-04-19T12:45:32Z</time></trkpt><trkpt lat="44.564771672947415" lon="8.151254972095728"><ele>381.6</ele><time>2026-04-19T12:45:33Z</time></trkpt><trkpt lat="44.56472297826678" lon="8.151377008151183"><ele>380.8</ele><time>2026-04-19T12:45:34Z</time></trkpt><trkpt lat="44.56465027535707" lon="8.151476136258962"><ele>380.0</ele><time>2026-04-19T12:45:35Z</time></trkpt><trkpt lat="44.56456058396029" lon="8.151549868857469"><ele>381.6</ele><time>2026-04-19T12:45:36Z</time></trkpt><trkpt lat="44.564467768864766" lon="8.15159845238356"><ele>383.2</ele><time>2026-04-19T12:45:37Z</time></trkpt><trkpt lat="44.56437458181693" lon="8.151596693470353"><ele>384.79999999999995</ele><time>2026-04-19T12:45:38Z</time></trkpt><trkpt lat="44.56429096194399" lon="8.151575589581192"><ele>386.4</ele><time>2026-04-19T12:45:39Z</time></trkpt><trkpt lat="44.56420238336567" lon="8.151545976808416"><ele>388.0</ele><time>2026-04-19T12:45:40Z</time></trkpt><trkpt lat="44.56411818918278" lon="8.151502020411952"><ele>388.0</ele><time>2026-04-19T12:45:41Z</time></trkpt><trkpt lat="44.5640353775625" lon="8.151469721032813"><ele>388.0</ele><time>2026-04-19T12:45:42Z</time></trkpt><trkpt lat="44.56395651209933" lon="8.151457988677855"><ele>388.0</ele><time>2026-04-19T12:45:43Z</time></trkpt><trkpt lat="44.56389064484289" lon="8.151416953118167"><ele>388.0</ele><time>2026-04-19T12:45:44Z</time></trkpt><trkpt lat="44.56382605245373" lon="8.151346415865943"><ele>388.0</ele><time>2026-04-19T12:45:46Z</time></trkpt><trkpt lat="44.56374103935514" lon="8.151502928082772"><ele>388.0</ele><time>2026-04-19T12:45:49Z</time></trkpt><trkpt lat="44.56373265148495" lon="8.15165918021214"><ele>388.0</ele><time>2026-04-19T12:45:51Z</time></trkpt><trkpt lat="44.56370797639847" lon="8.151814565832922"><ele>388.0</ele><time>2026-04-19T12:45:53Z</time></trkpt><trkpt lat="44.563674344962706" lon="8.151953719576685"><ele>388.0</ele><time>2026-04-19T12:45:55Z</time></trkpt><trkpt lat="44.5636394001946" lon="8.152092334376164"><ele>388.0</ele><time>2026-04-19T12:45:57Z</time></trkpt><trkpt lat="44.563596332903046" lon="8.152218960007056"><ele>386.2</ele><time>2026-04-19T12:45:59Z</time></trkpt><trkpt lat="44.56353726477773" lon="8.15230270189924"><ele>384.4</ele><time>2026-04-19T12:46:01Z</time></trkpt><trkpt lat="44.5634950699735" lon="8.152380579059567"><ele>382.59999999999997</ele><time>2026-04-19T12:46:03Z</time></trkpt><trkpt lat="44.56344158465629" lon="8.152471376575493"><ele>380.79999999999995</ele><time>2026-04-19T12:46:05Z</time></trkpt><trkpt lat="44.56337478452087" lon="8.152581981819695"><ele>379.0</ele><time>2026-04-19T12:46:07Z</time></trkpt><trkpt lat="44.56329855539555" lon="8.15272410405368"><ele>379.0</ele><time>2026-04-19T12:46:09Z</time></trkpt><trkpt lat="44.56326103607844" lon="8.152798904411679"><ele>379.0</ele><time>2026-04-19T12:46:10Z</time></trkpt><trkpt lat="44.56319746802517" lon="8.152940861626707"><ele>379.0</ele><time>2026-04-19T12:46:12Z</time></trkpt><trkpt lat="44.56313566455816" lon="8.153074093259205"><ele>379.0</ele><time>2026-04-19T12:46:14Z</time></trkpt><trkpt lat="44.5630798771117" lon="8.153220417574335"><ele>379.0</ele><time>2026-04-19T12:46:16Z</time></trkpt><trkpt lat="44.56300567304396" lon="8.153357819700595"><ele>379.66666666666663</ele><time>2026-04-19T12:46:18Z</time></trkpt><trkpt lat="44.56293400237672" lon="8.153511282317353"><ele>380.3333333333333</ele><time>2026-04-19T12:46:20Z</time></trkpt><trkpt lat="44.56289517056204" lon="8.153601706115028"><ele>381.0</ele><time>2026-04-19T12:46:21Z</time></trkpt><trkpt lat="44.56285648801402" lon="8.153691223269"><ele>381.6666666666667</ele><time>2026-04-19T12:46:22Z</time></trkpt><trkpt lat="44.56281939100201" lon="8.153777586944802"><ele>382.33333333333337</ele><time>2026-04-19T12:46:23Z</time></trkpt><trkpt lat="44.56278200630043" lon="8.15386117908102"><ele>383.0</ele><time>2026-04-19T12:46:24Z</time></trkpt><trkpt lat="44.562746442790754" lon="8.153942597649637"><ele>382.0</ele><time>2026-04-19T12:46:25Z</time></trkpt><trkpt lat="44.56271283216733" lon="8.154023015024723"><ele>381.0</ele><time>2026-04-19T12:46:26Z</time></trkpt><trkpt lat="44.56268556691779" lon="8.154105969322849"><ele>380.0</ele><time>2026-04-19T12:46:27Z</time></trkpt><trkpt lat="44.56266442084565" lon="8.154190345112285"><ele>379.0</ele><time>2026-04-19T12:46:28Z</time></trkpt><trkpt lat="44.56265863799999" lon="8.154282530017664"><ele>378.0</ele><time>2026-04-19T12:46:29Z</time></trkpt><trkpt lat="44.56265670918205" lon="8.154372257318544"><ele>377.0</ele><time>2026-04-19T12:46:30Z</time></trkpt><trkpt lat="44.56267299783223" lon="8.154548330017764"><ele>376.99999999999994</ele><time>2026-04-19T12:46:32Z</time></trkpt><trkpt lat="44.562692565861255" lon="8.15463854091035"><ele>377.0</ele><time>2026-04-19T12:46:33Z</time></trkpt><trkpt lat="44.56271690407568" lon="8.15473036050078"><ele>377.0</ele><time>2026-04-19T12:46:34Z</time></trkpt><trkpt lat="44.562738640675065" lon="8.154825121885883"><ele>377.0</ele><time>2026-04-19T12:46:35Z</time></trkpt><trkpt lat="44.56275983003466" lon="8.15492339558892"><ele>377.0</ele><time>2026-04-19T12:46:36Z</time></trkpt><trkpt lat="44.562782132447545" lon="8.155024609812846"><ele>376.99999999999994</ele><time>2026-04-19T12:46:37Z</time></trkpt><trkpt lat="44.562806566214746" lon="8.155128541746816"><ele>377.0</ele><time>2026-04-19T12:46:38Z</time></trkpt><trkpt lat="44.56283072808159" lon="8.155233820479491"><ele>377.83333333333337</ele><time>2026-04-19T12:46:39Z</time></trkpt><trkpt lat="44.56285433518574" lon="8.155342030676978"><ele>378.6666666666667</ele><time>2026-04-19T12:46:40Z</time></trkpt><trkpt lat="44.56287676836816" lon="8.155454744637199"><ele>379.5</ele><time>2026-04-19T12:46:41Z</time></trkpt><trkpt lat="44.56290186159309" lon="8.155573376427865"><ele>380.3333333333333</ele><time>2026-04-19T12:46:42Z</time></trkpt><trkpt lat="44.56292820053742" lon="8.1556963017967"><ele>381.16666666666663</ele><time>2026-04-19T12:46:43Z</time></trkpt><trkpt lat="44.56295795933166" lon="8.15582230468464"><ele>382.0</ele><time>2026-04-19T12:46:44Z</time></trkpt><trkpt lat="44.56299218199615" lon="8.155949308755346"><ele>383.0</ele><time>2026-04-19T12:46:45Z</time></trkpt><trkpt lat="44.563027578059476" lon="8.156076653668169"><ele>384.0</ele><time>2026-04-19T12:46:46Z</time></trkpt><trkpt lat="44.56306651390745" lon="8.15620486613939"><ele>385.0</ele><time>2026-04-19T12:46:47Z</time></trkpt><trkpt lat="44.56310481641763" lon="8.15632429264791"><ele>386.0</ele><time>2026-04-19T12:46:48Z</time></trkpt><trkpt lat="44.56313930796867" lon="8.15643418892486"><ele>387.0</ele><time>2026-04-19T12:46:49Z</time></trkpt><trkpt lat="44.563173565959694" lon="8.156534996286728"><ele>387.5</ele><time>2026-04-19T12:46:50Z</time></trkpt><trkpt lat="44.56320617956358" lon="8.15662812836941"><ele>388.0</ele><time>2026-04-19T12:46:51Z</time></trkpt><trkpt lat="44.56323732533497" lon="8.156711537225933"><ele>388.5</ele><time>2026-04-19T12:46:52Z</time></trkpt><trkpt lat="44.56328332684834" lon="8.156834959205419"><ele>389.0</ele><time>2026-04-19T12:46:54Z</time></trkpt><trkpt lat="44.56328224813916" lon="8.156933066900178"><ele>389.5</ele><time>2026-04-19T12:46:56Z</time></trkpt><trkpt lat="44.56326442134337" lon="8.15702480691275"><ele>390.0</ele><time>2026-04-19T12:46:58Z</time></trkpt><trkpt lat="44.56323374544424" lon="8.157122444892211"><ele>390.0</ele><time>2026-04-19T12:47:00Z</time></trkpt><trkpt lat="44.56316845916648" lon="8.157079882866526"><ele>390.0</ele><time>2026-04-19T12:47:02Z</time></trkpt><trkpt lat="44.563086357213315" lon="8.157043461258585"><ele>390.0</ele><time>2026-04-19T12:47:07Z</time></trkpt><trkpt lat="44.562962547709915" lon="8.156982751059182"><ele>390.0</ele><time>2026-04-19T12:47:09Z</time></trkpt><trkpt lat="44.562883894722496" lon="8.156956644786227"><ele>390.0</ele><time>2026-04-19T12:47:10Z</time></trkpt><trkpt lat="44.56281178359297" lon="8.15692804387542"><ele>390.0</ele><time>2026-04-19T12:47:11Z</time></trkpt><trkpt lat="44.562749126858094" lon="8.156890932670509"><ele>389.7142857142857</ele><time>2026-04-19T12:47:12Z</time></trkpt><trkpt lat="44.562683512788844" lon="8.156852122219176"><ele>389.42857142857144</ele><time>2026-04-19T12:47:13Z</time></trkpt><trkpt lat="44.562619469992114" lon="8.156817300038126"><ele>389.1428571428571</ele><time>2026-04-19T12:47:14Z</time></trkpt><trkpt lat="44.56255608633927" lon="8.1567835751083"><ele>388.8571428571429</ele><time>2026-04-19T12:47:15Z</time></trkpt><trkpt lat="44.56248977393528" lon="8.156748830691713"><ele>388.5714285714286</ele><time>2026-04-19T12:47:16Z</time></trkpt><trkpt lat="44.56242293991286" lon="8.156713836745634"><ele>388.2857142857143</ele><time>2026-04-19T12:47:17Z</time></trkpt><trkpt lat="44.56235625565987" lon="8.156680215615427"><ele>388.0</ele><time>2026-04-19T12:47:18Z</time></trkpt><trkpt lat="44.56228843068694" lon="8.156648708207632"><ele>388.00000000000006</ele><time>2026-04-19T12:47:19Z</time></trkpt><trkpt lat="44.562219081784036" lon="8.156622150710692"><ele>388.0</ele><time>2026-04-19T12:47:20Z</time></trkpt><trkpt lat="44.56214726062161" lon="8.156601756078349"><ele>388.0</ele><time>2026-04-19T12:47:21Z</time></trkpt><trkpt lat="44.562079765838604" lon="8.156583808382935"><ele>388.0</ele><time>2026-04-19T12:47:22Z</time></trkpt><trkpt lat="44.56197239032371" lon="8.156557740726651"><ele>388.00000000000006</ele><time>2026-04-19T12:47:24Z</time></trkpt><trkpt lat="44.56185550792433" lon="8.156557050635648"><ele>388.0</ele><time>2026-04-19T12:47:26Z</time></trkpt><trkpt lat="44.561788415697826" lon="8.156599638970583"><ele>386.1666666666667</ele><time>2026-04-19T12:47:27Z</time></trkpt><trkpt lat="44.561715236862355" lon="8.156634519071458"><ele>384.33333333333337</ele><time>2026-04-19T12:47:28Z</time></trkpt><trkpt lat="44.56163632700369" lon="8.156669327273665"><ele>382.5</ele><time>2026-04-19T12:47:29Z</time></trkpt><trkpt lat="44.5615644104382" lon="8.156697955679329"><ele>380.6666666666667</ele><time>2026-04-19T12:47:30Z</time></trkpt><trkpt lat="44.561499066259614" lon="8.156728243545206"><ele>378.83333333333337</ele><time>2026-04-19T12:47:31Z</time></trkpt><trkpt lat="44.561387201823216" lon="8.156785331593065"><ele>377.0</ele><time>2026-04-19T12:47:33Z</time></trkpt><trkpt lat="44.56128332429389" lon="8.15688177736234"><ele>377.0</ele><time>2026-04-19T12:47:35Z</time></trkpt><trkpt lat="44.56123079933653" lon="8.156943198375068"><ele>377.0</ele><time>2026-04-19T12:47:36Z</time></trkpt><trkpt lat="44.561185128203284" lon="8.157022590215421"><ele>377.0</ele><time>2026-04-19T12:47:37Z</time></trkpt><trkpt lat="44.56113910837433" lon="8.157110378222317"><ele>377.0</ele><time>2026-04-19T12:47:38Z</time></trkpt><trkpt lat="44.561095382414315" lon="8.157208930365874"><ele>377.0</ele><time>2026-04-19T12:47:39Z</time></trkpt><trkpt lat="44.56104575189196" lon="8.157302527504461"><ele>377.0</ele><time>2026-04-19T12:47:40Z</time></trkpt><trkpt lat="44.56098718580697" lon="8.157381125397512"><ele>373.5</ele><time>2026-04-19T12:47:41Z</time></trkpt><trkpt lat="44.56092795093249" lon="8.157456448632784"><ele>370.0</ele><time>2026-04-19T12:47:42Z</time></trkpt><trkpt lat="44.560874524787806" lon="8.157541119181941"><ele>366.5</ele><time>2026-04-19T12:47:43Z</time></trkpt><trkpt lat="44.56082584412344" lon="8.157639602701604"><ele>363.0</ele><time>2026-04-19T12:47:44Z</time></trkpt><trkpt lat="44.56078367884268" lon="8.157744038623758"><ele>359.5</ele><time>2026-04-19T12:47:45Z</time></trkpt><trkpt lat="44.56074484520014" lon="8.15784930126675"><ele>356.0</ele><time>2026-04-19T12:47:46Z</time></trkpt><trkpt lat="44.56070541856471" lon="8.157948806797148"><ele>356.0</ele><time>2026-04-19T12:47:47Z</time></trkpt><trkpt lat="44.5606697911146" lon="8.15803956290164"><ele>356.0</ele><time>2026-04-19T12:47:48Z</time></trkpt><trkpt lat="44.56063941265595" lon="8.158122145511165"><ele>356.0</ele><time>2026-04-19T12:47:49Z</time></trkpt><trkpt lat="44.56061038107894" lon="8.158276498215775"><ele>356.0</ele><time>2026-04-19T12:47:51Z</time></trkpt><trkpt lat="44.56062826882348" lon="8.158460494845533"><ele>356.0</ele><time>2026-04-19T12:47:53Z</time></trkpt><trkpt lat="44.56064080512789" lon="8.1585697238601"><ele>356.4</ele><time>2026-04-19T12:47:54Z</time></trkpt><trkpt lat="44.5606533120295" lon="8.158692071854475"><ele>356.8</ele><time>2026-04-19T12:47:55Z</time></trkpt><trkpt lat="44.560662258685824" lon="8.158829807188354"><ele>357.2</ele><time>2026-04-19T12:47:56Z</time></trkpt><trkpt lat="44.56067034024849" lon="8.158973621629398"><ele>357.59999999999997</ele><time>2026-04-19T12:47:57Z</time></trkpt><trkpt lat="44.56067574451326" lon="8.15911358727662"><ele>358.0</ele><time>2026-04-19T12:47:58Z</time></trkpt><trkpt lat="44.56067770893793" lon="8.159244254593286"><ele>357.0</ele><time>2026-04-19T12:47:59Z</time></trkpt><trkpt lat="44.5606710888329" lon="8.15936512502277"><ele>356.0</ele><time>2026-04-19T12:48:00Z</time></trkpt><trkpt lat="44.56066145246571" lon="8.15949070197161"><ele>355.0</ele><time>2026-04-19T12:48:01Z</time></trkpt><trkpt lat="44.560646884288595" lon="8.15962286695843"><ele>354.0</ele><time>2026-04-19T12:48:02Z</time></trkpt><trkpt lat="44.5606269213187" lon="8.159756604582808"><ele>353.0</ele><time>2026-04-19T12:48:03Z</time></trkpt><trkpt lat="44.56060307993634" lon="8.159885534174034"><ele>351.59999999999997</ele><time>2026-04-19T12:48:04Z</time></trkpt><trkpt lat="44.56057732931224" lon="8.160018136639572"><ele>350.2</ele><time>2026-04-19T12:48:05Z</time></trkpt><trkpt lat="44.56055155775724" lon="8.160164063836781"><ele>348.8</ele><time>2026-04-19T12:48:06Z</time></trkpt><trkpt lat="44.56052687354126" lon="8.160316438248662"><ele>347.4</ele><time>2026-04-19T12:48:07Z</time></trkpt><trkpt lat="44.560499186667734" lon="8.160467183609029"><ele>346.0</ele><time>2026-04-19T12:48:08Z</time></trkpt><trkpt lat="44.56046971511818" lon="8.160613491995571"><ele>345.6</ele><time>2026-04-19T12:48:09Z</time></trkpt><trkpt lat="44.56044287407124" lon="8.16075877481707"><ele>345.20000000000005</ele><time>2026-04-19T12:48:10Z</time></trkpt><trkpt lat="44.560417170818" lon="8.160902554077438"><ele>344.79999999999995</ele><time>2026-04-19T12:48:11Z</time></trkpt><trkpt lat="44.56039250449911" lon="8.161044474757734"><ele>344.4</ele><time>2026-04-19T12:48:12Z</time></trkpt><trkpt lat="44.56036596110149" lon="8.161168817465619"><ele>344.0</ele><time>2026-04-19T12:48:13Z</time></trkpt><trkpt lat="44.56034461974748" lon="8.161281516629366"><ele>337.33333333333337</ele><time>2026-04-19T12:48:14Z</time></trkpt><trkpt lat="44.56033232716132" lon="8.161387202664347"><ele>330.6666666666667</ele><time>2026-04-19T12:48:15Z</time></trkpt><trkpt lat="44.5603220853773" lon="8.161491437383406"><ele>324.0</ele><time>2026-04-19T12:48:16Z</time></trkpt><trkpt lat="44.56031622520249" lon="8.161585786707825"><ele>317.3333333333333</ele><time>2026-04-19T12:48:17Z</time></trkpt><trkpt lat="44.56030509714508" lon="8.161680651098969"><ele>310.66666666666663</ele><time>2026-04-19T12:48:18Z</time></trkpt><trkpt lat="44.560293692969424" lon="8.161769315957494"><ele>304.0</ele><time>2026-04-19T12:48:19Z</time></trkpt><trkpt lat="44.56026276226201" lon="8.161918910712945"><ele>303.0</ele><time>2026-04-19T12:48:21Z</time></trkpt><trkpt lat="44.560252952295286" lon="8.162103035368117"><ele>302.0</ele><time>2026-04-19T12:48:23Z</time></trkpt><trkpt lat="44.560266157686506" lon="8.162209668390641"><ele>301.0</ele><time>2026-04-19T12:48:24Z</time></trkpt><trkpt lat="44.56026914501002" lon="8.162333004813169"><ele>300.0</ele><time>2026-04-19T12:48:25Z</time></trkpt><trkpt lat="44.560270536579296" lon="8.16246413960164"><ele>299.0</ele><time>2026-04-19T12:48:26Z</time></trkpt><trkpt lat="44.56026402417447" lon="8.162604609783873"><ele>298.2</ele><time>2026-04-19T12:48:27Z</time></trkpt><trkpt lat="44.56025629949059" lon="8.162745750570284"><ele>297.4</ele><time>2026-04-19T12:48:28Z</time></trkpt><trkpt lat="44.56025721020107" lon="8.162893934890791"><ele>296.6</ele><time>2026-04-19T12:48:29Z</time></trkpt><trkpt lat="44.560262217915366" lon="8.163042584211189"><ele>295.8</ele><time>2026-04-19T12:48:30Z</time></trkpt><trkpt lat="44.56026809516832" lon="8.163187055297861"><ele>295.0</ele><time>2026-04-19T12:48:31Z</time></trkpt><trkpt lat="44.56027664574865" lon="8.163317202771733"><ele>294.5</ele><time>2026-04-19T12:48:32Z</time></trkpt><trkpt lat="44.560284599893116" lon="8.163437597683638"><ele>294.0</ele><time>2026-04-19T12:48:33Z</time></trkpt><trkpt lat="44.560293572180285" lon="8.163537231221207"><ele>293.5</ele><time>2026-04-19T12:48:34Z</time></trkpt><trkpt lat="44.56030229658564" lon="8.163627590496182"><ele>293.0</ele><time>2026-04-19T12:48:35Z</time></trkpt><trkpt lat="44.560334102682575" lon="8.16375649702311"><ele>292.5</ele><time>2026-04-19T12:48:37Z</time></trkpt><trkpt lat="44.56033941951609" lon="8.163846177410472"><ele>292.0</ele><time>2026-04-19T12:48:39Z</time></trkpt><trkpt lat="44.560267256596745" lon="8.163840200673674"><ele>292.0</ele><time>2026-04-19T12:48:42Z</time></trkpt><trkpt lat="44.56021196794345" lon="8.16375777120067"><ele>292.0</ele><time>2026-04-19T12:48:44Z</time></trkpt><trkpt lat="44.56014988359006" lon="8.16371667437183"><ele>292.0</ele><time>2026-04-19T12:48:46Z</time></trkpt><trkpt lat="44.56008116542022" lon="8.163746154011214"><ele>292.0</ele><time>2026-04-19T12:49:30.999Z</time></trkpt><trkpt lat="44.56031334384948" lon="8.16382761333399"><ele>288.66666666666663</ele><time>2026-04-19T12:49:37Z</time></trkpt><trkpt lat="44.56029072154858" lon="8.164290183515298"><ele>285.3333333333333</ele><time>2026-04-19T12:49:38Z</time></trkpt><trkpt lat="44.56034260521455" lon="8.164411412009091"><ele>282.0</ele><time>2026-04-19T12:49:39Z</time></trkpt><trkpt lat="44.560399337794735" lon="8.164542551279737"><ele>286.5</ele><time>2026-04-19T12:49:40Z</time></trkpt><trkpt lat="44.56046354108653" lon="8.164685220181584"><ele>291.0</ele><time>2026-04-19T12:49:41Z</time></trkpt><trkpt lat="44.560532591056926" lon="8.164839555290477"><ele>295.5</ele><time>2026-04-19T12:49:42Z</time></trkpt><trkpt lat="44.560609330366" lon="8.165002581655315"><ele>300.0</ele><time>2026-04-19T12:49:43Z</time></trkpt><trkpt lat="44.56069473731458" lon="8.16517166747594"><ele>300.0</ele><time>2026-04-19T12:49:44Z</time></trkpt><trkpt lat="44.560796939351604" lon="8.16534290596136"><ele>300.0</ele><time>2026-04-19T12:49:45Z</time></trkpt><trkpt lat="44.56091331790207" lon="8.165519071649147"><ele>300.0</ele><time>2026-04-19T12:49:46Z</time></trkpt><trkpt lat="44.56104194356362" lon="8.16570294930117"><ele>306.6666666666667</ele><time>2026-04-19T12:49:47Z</time></trkpt><trkpt lat="44.56117453713946" lon="8.165900467043416"><ele>313.33333333333337</ele><time>2026-04-19T12:49:48Z</time></trkpt><trkpt lat="44.56129977599928" lon="8.166120535927517"><ele>320.0</ele><time>2026-04-19T12:49:49Z</time></trkpt><trkpt lat="44.56140916386092" lon="8.166373674815944"><ele>314.0</ele><time>2026-04-19T12:49:50Z</time></trkpt><trkpt lat="44.56151631861319" lon="8.16663169318891"><ele>308.0</ele><time>2026-04-19T12:49:51Z</time></trkpt><trkpt lat="44.561626173759066" lon="8.166883969035037"><ele>302.0</ele><time>2026-04-19T12:49:52Z</time></trkpt><trkpt lat="44.56175211341408" lon="8.167108851226079"><ele>302.0</ele><time>2026-04-19T12:49:53Z</time></trkpt><trkpt lat="44.56186203890204" lon="8.167329509004313"><ele>302.0</ele><time>2026-04-19T12:49:54Z</time></trkpt><trkpt lat="44.5619784072589" lon="8.167544103675219"><ele>302.0</ele><time>2026-04-19T12:49:55Z</time></trkpt><trkpt lat="44.56208683783161" lon="8.167753530472696"><ele>303.0</ele><time>2026-04-19T12:49:56Z</time></trkpt><trkpt lat="44.56219146334052" lon="8.167968269001307"><ele>304.0</ele><time>2026-04-19T12:49:57Z</time></trkpt><trkpt lat="44.56227938176685" lon="8.168204253879436"><ele>305.0</ele><time>2026-04-19T12:49:58Z</time></trkpt><trkpt lat="44.56237389036204" lon="8.168421857284567"><ele>299.0</ele><time>2026-04-19T12:49:59Z</time></trkpt><trkpt lat="44.5624672815475" lon="8.168632409291702"><ele>293.0</ele><time>2026-04-19T12:50:00Z</time></trkpt><trkpt lat="44.5625598852905" lon="8.168840566215627"><ele>287.0</ele><time>2026-04-19T12:50:01Z</time></trkpt><trkpt lat="44.56264587496806" lon="8.169045137630178"><ele>284.0</ele><time>2026-04-19T12:50:02Z</time></trkpt><trkpt lat="44.56272003612567" lon="8.169273701071115"><ele>281.0</ele><time>2026-04-19T12:50:03Z</time></trkpt><trkpt lat="44.56276712029108" lon="8.169532377529102"><ele>278.0</ele><time>2026-04-19T12:50:04Z</time></trkpt><trkpt lat="44.56282014634469" lon="8.169812064077837"><ele>277.6666666666667</ele><time>2026-04-19T12:50:05Z</time></trkpt><trkpt lat="44.56285044398409" lon="8.170111118064177"><ele>277.3333333333333</ele><time>2026-04-19T12:50:06Z</time></trkpt><trkpt lat="44.56288066608571" lon="8.170411057804186"><ele>277.0</ele><time>2026-04-19T12:50:07Z</time></trkpt><trkpt lat="44.562911619979225" lon="8.170691335386882"><ele>282.66666666666663</ele><time>2026-04-19T12:50:08Z</time></trkpt><trkpt lat="44.56294963432144" lon="8.170962602149384"><ele>288.3333333333333</ele><time>2026-04-19T12:50:09Z</time></trkpt><trkpt lat="44.56298297122023" lon="8.171225488477226"><ele>294.0</ele><time>2026-04-19T12:50:10Z</time></trkpt><trkpt lat="44.56301600067725" lon="8.171477303524279"><ele>291.0</ele><time>2026-04-19T12:50:11Z</time></trkpt><trkpt lat="44.563045367491384" lon="8.171710722350824"><ele>288.0</ele><time>2026-04-19T12:50:12Z</time></trkpt><trkpt lat="44.56306766487495" lon="8.171911673884008"><ele>285.0</ele><time>2026-04-19T12:50:13Z</time></trkpt><trkpt lat="44.56309538427334" lon="8.17205152484082"><ele>282.0</ele><time>2026-04-19T12:50:14Z</time></trkpt><trkpt lat="44.5631379486283" lon="8.172180626495775"><ele>282.0</ele><time>2026-04-19T12:50:15Z</time></trkpt><trkpt lat="44.56320992011272" lon="8.172268365067495"><ele>282.0</ele><time>2026-04-19T12:50:16Z</time></trkpt><trkpt lat="44.56329956882742" lon="8.172311785986492"><ele>282.0</ele><time>2026-04-19T12:50:17Z</time></trkpt><trkpt lat="44.563396443580245" lon="8.172294969656205"><ele>282.0</ele><time>2026-04-19T12:50:18Z</time></trkpt><trkpt lat="44.56348721448268" lon="8.17224333952791"><ele>282.0</ele><time>2026-04-19T12:50:19Z</time></trkpt><trkpt lat="44.56358090254311" lon="8.172130210900903"><ele>282.0</ele><time>2026-04-19T12:50:20Z</time></trkpt><trkpt lat="44.563680595315205" lon="8.171995247886027"><ele>282.0</ele><time>2026-04-19T12:50:21Z</time></trkpt><trkpt lat="44.563807716546016" lon="8.171875517045402"><ele>282.0</ele><time>2026-04-19T12:50:22Z</time></trkpt><trkpt lat="44.56397463512316" lon="8.171802735421386"><ele>281.3333333333333</ele><time>2026-04-19T12:50:23Z</time></trkpt><trkpt lat="44.56413004702974" lon="8.17167641952878"><ele>280.66666666666663</ele><time>2026-04-19T12:50:24Z</time></trkpt><trkpt lat="44.564306325411685" lon="8.171560802350713"><ele>280.0</ele><time>2026-04-19T12:50:25Z</time></trkpt><trkpt lat="44.56445034676982" lon="8.171321660996634"><ele>283.0</ele><time>2026-04-19T12:50:26Z</time></trkpt><trkpt lat="44.56464195846979" lon="8.171178951442045"><ele>286.0</ele><time>2026-04-19T12:50:27Z</time></trkpt><trkpt lat="44.564831367992596" lon="8.17102598656045"><ele>289.0</ele><time>2026-04-19T12:50:28Z</time></trkpt><trkpt lat="44.56502353118057" lon="8.170884690524746"><ele>289.0</ele><time>2026-04-19T12:50:29Z</time></trkpt><trkpt lat="44.56522191951539" lon="8.170760838571189"><ele>289.0</ele><time>2026-04-19T12:50:30Z</time></trkpt><trkpt lat="44.56543675204318" lon="8.170658870839084"><ele>289.0</ele><time>2026-04-19T12:50:31Z</time></trkpt><trkpt lat="44.56566926469615" lon="8.170627582883219"><ele>297.66666666666663</ele><time>2026-04-19T12:50:32Z</time></trkpt><trkpt lat="44.56588972982024" lon="8.170570110279106"><ele>306.3333333333333</ele><time>2026-04-19T12:50:33Z</time></trkpt><trkpt lat="44.56608413452841" lon="8.170510867431826"><ele>315.0</ele><time>2026-04-19T12:50:34Z</time></trkpt><trkpt lat="44.566262286024745" lon="8.170482299024663"><ele>315.0</ele><time>2026-04-19T12:50:35Z</time></trkpt><trkpt lat="44.56642537835523" lon="8.170455074382492"><ele>315.0</ele><time>2026-04-19T12:50:36Z</time></trkpt><trkpt lat="44.56658591205452" lon="8.170435101303536"><ele>315.0</ele><time>2026-04-19T12:50:37Z</time></trkpt><trkpt lat="44.56674403598801" lon="8.170414184891095"><ele>315.0</ele><time>2026-04-19T12:50:38Z</time></trkpt><trkpt lat="44.56689843502825" lon="8.170393174183184"><ele>315.0</ele><time>2026-04-19T12:50:39Z</time></trkpt><trkpt lat="44.56704766370827" lon="8.170371882708935"><ele>315.0</ele><time>2026-04-19T12:50:40Z</time></trkpt><trkpt lat="44.5671886562672" lon="8.170356961360485"><ele>315.0</ele><time>2026-04-19T12:50:41Z</time></trkpt><trkpt lat="44.56732579641118" lon="8.170349547471288"><ele>314.25</ele><time>2026-04-19T12:50:42Z</time></trkpt><trkpt lat="44.56745916104873" lon="8.170366018586204"><ele>313.5</ele><time>2026-04-19T12:50:43Z</time></trkpt><trkpt lat="44.567588453725826" lon="8.170370803816063"><ele>312.75</ele><time>2026-04-19T12:50:44Z</time></trkpt><trkpt lat="44.56771496474177" lon="8.170372421144698"><ele>312.0</ele><time>2026-04-19T12:50:45Z</time></trkpt><trkpt lat="44.567834522342295" lon="8.17037348681786"><ele>310.2</ele><time>2026-04-19T12:50:46Z</time></trkpt><trkpt lat="44.56795215471089" lon="8.170373486819482"><ele>308.4</ele><time>2026-04-19T12:50:47Z</time></trkpt><trkpt lat="44.56806526283976" lon="8.170368276878317"><ele>306.6</ele><time>2026-04-19T12:50:48Z</time></trkpt><trkpt lat="44.568175627788094" lon="8.170356551939834"><ele>304.8</ele><time>2026-04-19T12:50:49Z</time></trkpt><trkpt lat="44.56827935379045" lon="8.170340779746606"><ele>303.0</ele><time>2026-04-19T12:50:50Z</time></trkpt><trkpt lat="44.568373528539226" lon="8.17030323015411"><ele>303.0</ele><time>2026-04-19T12:50:51Z</time></trkpt><trkpt lat="44.568456801733724" lon="8.170300070477564"><ele>303.0</ele><time>2026-04-19T12:50:53Z</time></trkpt><trkpt lat="44.56835779686856" lon="8.170324457776697"><ele>303.0</ele><time>2026-04-19T12:52:05Z</time></trkpt><trkpt lat="44.56828789644163" lon="8.170256614521358"><ele>303.0</ele><time>2026-04-19T12:52:06Z</time></trkpt><trkpt lat="44.56820245694294" lon="8.170272116970395"><ele>303.0</ele><time>2026-04-19T12:52:07Z</time></trkpt><trkpt lat="44.56809391174003" lon="8.170286370084634"><ele>303.0</ele><time>2026-04-19T12:52:08Z</time></trkpt><trkpt lat="44.567966404351864" lon="8.170291968437208"><ele>303.0</ele><time>2026-04-19T12:52:09Z</time></trkpt><trkpt lat="44.56781097250526" lon="8.170290668632784"><ele>303.0</ele><time>2026-04-19T12:52:10Z</time></trkpt><trkpt lat="44.56762579841053" lon="8.170289678570322"><ele>306.0</ele><time>2026-04-19T12:52:11Z</time></trkpt><trkpt lat="44.56741198403207" lon="8.17028538684462"><ele>309.0</ele><time>2026-04-19T12:52:12Z</time></trkpt><trkpt lat="44.5671775325292" lon="8.170289369300326"><ele>312.0</ele><time>2026-04-19T12:52:13Z</time></trkpt><trkpt lat="44.566942797248906" lon="8.170310894066287"><ele>313.5</ele><time>2026-04-19T12:52:14Z</time></trkpt><trkpt lat="44.56671405830423" lon="8.170345171154473"><ele>315.0</ele><time>2026-04-19T12:52:15Z</time></trkpt><trkpt lat="44.56649267964176" lon="8.17038108118028"><ele>315.0</ele><time>2026-04-19T12:52:16Z</time></trkpt><trkpt lat="44.56627770567912" lon="8.170415470857716"><ele>315.0</ele><time>2026-04-19T12:52:17Z</time></trkpt><trkpt lat="44.56606610709652" lon="8.17045062187505"><ele>315.0</ele><time>2026-04-19T12:52:18Z</time></trkpt><trkpt lat="44.56585228732546" lon="8.170493533287303"><ele>317.0</ele><time>2026-04-19T12:52:19Z</time></trkpt><trkpt lat="44.56565033516267" lon="8.170550241879642"><ele>319.0</ele><time>2026-04-19T12:52:20Z</time></trkpt><trkpt lat="44.56545751402428" lon="8.170617651727392"><ele>321.0</ele><time>2026-04-19T12:52:21Z</time></trkpt><trkpt lat="44.56527371832861" lon="8.170690949774093"><ele>310.3333333333333</ele><time>2026-04-19T12:52:22Z</time></trkpt><trkpt lat="44.56509944095162" lon="8.17078505549422"><ele>299.66666666666663</ele><time>2026-04-19T12:52:23Z</time></trkpt><trkpt lat="44.56494089915137" lon="8.170896470721475"><ele>289.0</ele><time>2026-04-19T12:52:24Z</time></trkpt><trkpt lat="44.564790593315955" lon="8.17101431625578"><ele>289.0</ele><time>2026-04-19T12:52:25Z</time></trkpt><trkpt lat="44.56464774851046" lon="8.171130948000902"><ele>289.0</ele><time>2026-04-19T12:52:26Z</time></trkpt><trkpt lat="44.56450697274615" lon="8.171233984250774"><ele>289.0</ele><time>2026-04-19T12:52:27Z</time></trkpt><trkpt lat="44.56437129467343" lon="8.171339340657012"><ele>286.75</ele><time>2026-04-19T12:52:28Z</time></trkpt><trkpt lat="44.56424079375208" lon="8.171435498817688"><ele>284.5</ele><time>2026-04-19T12:52:29Z</time></trkpt><trkpt lat="44.56411565950228" lon="8.171528537347992"><ele>282.25</ele><time>2026-04-19T12:52:30Z</time></trkpt><trkpt lat="44.5639981771259" lon="8.1716208361464"><ele>280.0</ele><time>2026-04-19T12:52:31Z</time></trkpt><trkpt lat="44.563887915822846" lon="8.171713379014859"><ele>280.0</ele><time>2026-04-19T12:52:32Z</time></trkpt><trkpt lat="44.56378276783883" lon="8.171810619813185"><ele>280.0</ele><time>2026-04-19T12:52:33Z</time></trkpt><trkpt lat="44.56369311428127" lon="8.171920384163373"><ele>280.0</ele><time>2026-04-19T12:52:34Z</time></trkpt><trkpt lat="44.56360671283959" lon="8.172029061071516"><ele>280.0</ele><time>2026-04-19T12:52:35Z</time></trkpt><trkpt lat="44.56352288697873" lon="8.172124386733175"><ele>280.3333333333333</ele><time>2026-04-19T12:52:36Z</time></trkpt><trkpt lat="44.56344359956235" lon="8.172197551202778"><ele>280.66666666666663</ele><time>2026-04-19T12:52:37Z</time></trkpt><trkpt lat="44.5633610422468" lon="8.172238355224305"><ele>281.0</ele><time>2026-04-19T12:52:38Z</time></trkpt><trkpt lat="44.563273253318265" lon="8.172245961042103"><ele>281.3333333333333</ele><time>2026-04-19T12:52:39Z</time></trkpt><trkpt lat="44.56319795228663" lon="8.172197258127172"><ele>281.6666666666667</ele><time>2026-04-19T12:52:40Z</time></trkpt><trkpt lat="44.56314247509768" lon="8.172110032898583"><ele>282.0</ele><time>2026-04-19T12:52:41Z</time></trkpt><trkpt lat="44.56312430484279" lon="8.171994223023951"><ele>282.0</ele><time>2026-04-19T12:52:42Z</time></trkpt><trkpt lat="44.56311042975274" lon="8.171877566030144"><ele>282.0</ele><time>2026-04-19T12:52:43Z</time></trkpt><trkpt lat="44.56309171230663" lon="8.171739406026823"><ele>282.0</ele><time>2026-04-19T12:52:44Z</time></trkpt><trkpt lat="44.56307274561891" lon="8.171590217728312"><ele>282.0</ele><time>2026-04-19T12:52:45Z</time></trkpt><trkpt lat="44.563050459089034" lon="8.171414916207564"><ele>282.0</ele><time>2026-04-19T12:52:46Z</time></trkpt><trkpt lat="44.56302299135032" lon="8.17120907118341"><ele>286.0</ele><time>2026-04-19T12:52:47Z</time></trkpt><trkpt lat="44.56299008821116" lon="8.170967182157655"><ele>290.0</ele><time>2026-04-19T12:52:48Z</time></trkpt><trkpt lat="44.56295357416176" lon="8.170698857244208"><ele>294.0</ele><time>2026-04-19T12:52:49Z</time></trkpt><trkpt lat="44.562914213511334" lon="8.170408142124504"><ele>297.6666666666667</ele><time>2026-04-19T12:52:50Z</time></trkpt><trkpt lat="44.56287561345539" lon="8.170109797252447"><ele>301.33333333333337</ele><time>2026-04-19T12:52:51Z</time></trkpt><trkpt lat="44.562840612398716" lon="8.169833071506469"><ele>305.0</ele><time>2026-04-19T12:52:52Z</time></trkpt><trkpt lat="44.5628063814972" lon="8.1695710147907"><ele>299.0</ele><time>2026-04-19T12:52:53Z</time></trkpt><trkpt lat="44.56276655277489" lon="8.169323172754837"><ele>293.0</ele><time>2026-04-19T12:52:54Z</time></trkpt><trkpt lat="44.562695717510806" lon="8.169079220631666"><ele>287.0</ele><time>2026-04-19T12:52:55Z</time></trkpt><trkpt lat="44.56259716730605" lon="8.168836652341462"><ele>287.0</ele><time>2026-04-19T12:52:56Z</time></trkpt><trkpt lat="44.562485135948855" lon="8.168584577349279"><ele>287.0</ele><time>2026-04-19T12:52:57Z</time></trkpt><trkpt lat="44.56236931194906" lon="8.168321608426815"><ele>287.0</ele><time>2026-04-19T12:52:58Z</time></trkpt><trkpt lat="44.56225242476266" lon="8.168055878613119"><ele>286.0</ele><time>2026-04-19T12:52:59Z</time></trkpt><trkpt lat="44.56214026348291" lon="8.167813480685579"><ele>285.0</ele><time>2026-04-19T12:53:00Z</time></trkpt><trkpt lat="44.562026459821546" lon="8.167588177661974"><ele>284.0</ele><time>2026-04-19T12:53:01Z</time></trkpt><trkpt lat="44.56191698760952" lon="8.167377096345566"><ele>290.0</ele><time>2026-04-19T12:53:02Z</time></trkpt><trkpt lat="44.56181367932559" lon="8.167177975861476"><ele>296.0</ele><time>2026-04-19T12:53:03Z</time></trkpt><trkpt lat="44.561716563679894" lon="8.166988690868102"><ele>302.0</ele><time>2026-04-19T12:53:04Z</time></trkpt><trkpt lat="44.56163023660265" lon="8.166805733829317"><ele>302.0</ele><time>2026-04-19T12:53:05Z</time></trkpt><trkpt lat="44.56155050670379" lon="8.16662100400349"><ele>302.0</ele><time>2026-04-19T12:53:06Z</time></trkpt><trkpt lat="44.561471263284545" lon="8.166417026581858"><ele>302.0</ele><time>2026-04-19T12:53:07Z</time></trkpt><trkpt lat="44.561393247912484" lon="8.166213053516975"><ele>301.33333333333337</ele><time>2026-04-19T12:53:08Z</time></trkpt><trkpt lat="44.561298110701856" lon="8.166003531392207"><ele>300.6666666666667</ele><time>2026-04-19T12:53:09Z</time></trkpt><trkpt lat="44.56116696995544" lon="8.165808127225166"><ele>300.0</ele><time>2026-04-19T12:53:10Z</time></trkpt><trkpt lat="44.56103511060882" lon="8.165618486761195"><ele>300.0</ele><time>2026-04-19T12:53:11Z</time></trkpt><trkpt lat="44.56090666959876" lon="8.1654318094345"><ele>300.0</ele><time>2026-04-19T12:53:12Z</time></trkpt><trkpt lat="44.560813059931554" lon="8.16528073858514"><ele>300.0</ele><time>2026-04-19T12:53:13Z</time></trkpt><trkpt lat="44.56066191282762" lon="8.165034769046674"><ele>300.0</ele><time>2026-04-19T12:53:15Z</time></trkpt><trkpt lat="44.56059891005712" lon="8.16490935535348"><ele>300.0</ele><time>2026-04-19T12:53:17Z</time></trkpt><trkpt lat="44.56053196693064" lon="8.165057783392815"><ele>300.0</ele><time>2026-04-19T12:53:23Z</time></trkpt><trkpt lat="44.56056215980816" lon="8.165137240365171"><ele>300.0</ele><time>2026-04-19T12:53:24Z</time></trkpt><trkpt lat="44.56060750032902" lon="8.165228413968753"><ele>300.0</ele><time>2026-04-19T12:53:25Z</time></trkpt><trkpt lat="44.56066420760426" lon="8.165330647564907"><ele>300.0</ele><time>2026-04-19T12:53:26Z</time></trkpt><trkpt lat="44.56070570915088" lon="8.165430371151905"><ele>300.0</ele><time>2026-04-19T12:53:27Z</time></trkpt><trkpt lat="44.56073725339954" lon="8.165540444140957"><ele>300.0</ele><time>2026-04-19T12:53:28Z</time></trkpt><trkpt lat="44.56074160323608" lon="8.165659160494009"><ele>300.0</ele><time>2026-04-19T12:53:29Z</time></trkpt><trkpt lat="44.56070642967923" lon="8.165766577024694"><ele>300.0</ele><time>2026-04-19T12:53:30Z</time></trkpt><trkpt lat="44.5606825300437" lon="8.165876834623813"><ele>300.0</ele><time>2026-04-19T12:53:31Z</time></trkpt><trkpt lat="44.56059031784565" lon="8.16591623722559"><ele>294.75</ele><time>2026-04-19T12:53:32Z</time></trkpt><trkpt lat="44.56050561939129" lon="8.165992089809352"><ele>289.5</ele><time>2026-04-19T12:53:33Z</time></trkpt><trkpt lat="44.560413509978545" lon="8.166091214590876"><ele>284.25</ele><time>2026-04-19T12:53:34Z</time></trkpt><trkpt lat="44.56030385378243" lon="8.16618545792674"><ele>279.0</ele><time>2026-04-19T12:53:35Z</time></trkpt><trkpt lat="44.560197025014716" lon="8.166282204090397"><ele>277.6666666666667</ele><time>2026-04-19T12:53:36Z</time></trkpt><trkpt lat="44.560108797682496" lon="8.166366950355947"><ele>276.3333333333333</ele><time>2026-04-19T12:53:37Z</time></trkpt><trkpt lat="44.56004408466795" lon="8.166421860932813"><ele>275.0</ele><time>2026-04-19T12:53:38Z</time></trkpt><trkpt lat="44.559987188573935" lon="8.166461969945054"><ele>273.66666666666663</ele><time>2026-04-19T12:53:39Z</time></trkpt><trkpt lat="44.559873990665324" lon="8.16650604904911"><ele>272.3333333333333</ele><time>2026-04-19T12:53:41Z</time></trkpt><trkpt lat="44.55981528608569" lon="8.166451409763761"><ele>271.0</ele><time>2026-04-19T12:53:42Z</time></trkpt><trkpt lat="44.559774449321544" lon="8.166368007244865"><ele>271.0</ele><time>2026-04-19T12:53:43Z</time></trkpt><trkpt lat="44.55978422813054" lon="8.166249215460553"><ele>271.0</ele><time>2026-04-19T12:53:44Z</time></trkpt><trkpt lat="44.55976780565989" lon="8.166104769977384"><ele>271.0</ele><time>2026-04-19T12:53:45Z</time></trkpt><trkpt lat="44.55973675985066" lon="8.165984074077132"><ele>271.0</ele><time>2026-04-19T12:53:46Z</time></trkpt><trkpt lat="44.55969158922582" lon="8.165907078738392"><ele>271.0</ele><time>2026-04-19T12:53:47Z</time></trkpt><trkpt lat="44.559594424793794" lon="8.165873521184245"><ele>272.40000000000003</ele><time>2026-04-19T12:53:49Z</time></trkpt><trkpt lat="44.55951707286135" lon="8.166004776771128"><ele>273.8</ele><time>2026-04-19T12:53:50Z</time></trkpt><trkpt lat="44.55945449230026" lon="8.16609750053772"><ele>275.20000000000005</ele><time>2026-04-19T12:53:51Z</time></trkpt><trkpt lat="44.559379643208146" lon="8.166210418989468"><ele>276.6</ele><time>2026-04-19T12:53:52Z</time></trkpt><trkpt lat="44.5592924498907" lon="8.16633431501279"><ele>278.0</ele><time>2026-04-19T12:53:53Z</time></trkpt><trkpt lat="44.55920589460791" lon="8.166458740768155"><ele>278.6666666666667</ele><time>2026-04-19T12:53:54Z</time></trkpt><trkpt lat="44.55913534704645" lon="8.16656856152805"><ele>279.33333333333337</ele><time>2026-04-19T12:53:55Z</time></trkpt><trkpt lat="44.5590841716289" lon="8.166663125492871"><ele>280.0</ele><time>2026-04-19T12:53:56Z</time></trkpt><trkpt lat="44.559051159944644" lon="8.166756451823126"><ele>280.6666666666667</ele><time>2026-04-19T12:53:57Z</time></trkpt><trkpt lat="44.559052200472564" lon="8.166865129949272"><ele>281.3333333333333</ele><time>2026-04-19T12:53:58Z</time></trkpt><trkpt lat="44.55907788042375" lon="8.167007316381113"><ele>282.0</ele><time>2026-04-19T12:53:59Z</time></trkpt><trkpt lat="44.55910930259766" lon="8.167171309366376"><ele>282.75</ele><time>2026-04-19T12:54:00Z</time></trkpt><trkpt lat="44.55913501372214" lon="8.167362163189642"><ele>283.5</ele><time>2026-04-19T12:54:01Z</time></trkpt><trkpt lat="44.55915833252263" lon="8.167572665676229"><ele>284.25</ele><time>2026-04-19T12:54:02Z</time></trkpt><trkpt lat="44.55918402968331" lon="8.167775845814107"><ele>285.0</ele><time>2026-04-19T12:54:03Z</time></trkpt><trkpt lat="44.55920635779772" lon="8.1679511596423"><ele>285.0</ele><time>2026-04-19T12:54:04Z</time></trkpt><trkpt lat="44.559223984273444" lon="8.168112537076496"><ele>285.0</ele><time>2026-04-19T12:54:05Z</time></trkpt><trkpt lat="44.559231101846315" lon="8.168244062274171"><ele>285.0</ele><time>2026-04-19T12:54:06Z</time></trkpt><trkpt lat="44.55922075676083" lon="8.168346760744477"><ele>285.0</ele><time>2026-04-19T12:54:07Z</time></trkpt><trkpt lat="44.559184479112986" lon="8.16842424352925"><ele>285.0</ele><time>2026-04-19T12:54:08Z</time></trkpt><trkpt lat="44.55912012868123" lon="8.168480571309534"><ele>285.0</ele><time>2026-04-19T12:54:09Z</time></trkpt><trkpt lat="44.55903074137847" lon="8.168463246453848"><ele>285.1666666666667</ele><time>2026-04-19T12:54:10Z</time></trkpt><trkpt lat="44.558945778174284" lon="8.168485785502204"><ele>285.3333333333333</ele><time>2026-04-19T12:54:11Z</time></trkpt><trkpt lat="44.55886304110958" lon="8.168525836726225"><ele>285.5</ele><time>2026-04-19T12:54:12Z</time></trkpt><trkpt lat="44.558781012969426" lon="8.16846360230806"><ele>285.66666666666663</ele><time>2026-04-19T12:54:13Z</time></trkpt><trkpt lat="44.55869962331897" lon="8.168419569825364"><ele>285.8333333333333</ele><time>2026-04-19T12:54:14Z</time></trkpt><trkpt lat="44.55863106281424" lon="8.168409708190554"><ele>286.0</ele><time>2026-04-19T12:54:15Z</time></trkpt><trkpt lat="44.558566470024964" lon="8.168454088482699"><ele>291.0</ele><time>2026-04-19T12:54:16Z</time></trkpt><trkpt lat="44.55851512646952" lon="8.168578525035212"><ele>296.0</ele><time>2026-04-19T12:54:17Z</time></trkpt><trkpt lat="44.55845890207129" lon="8.168707520305748"><ele>301.0</ele><time>2026-04-19T12:54:18Z</time></trkpt><trkpt lat="44.558391143758286" lon="8.168852073484938"><ele>306.0</ele><time>2026-04-19T12:54:19Z</time></trkpt><trkpt lat="44.55830699586189" lon="8.16899239823809"><ele>305.0</ele><time>2026-04-19T12:54:20Z</time></trkpt><trkpt lat="44.558199728085334" lon="8.169077305207512"><ele>304.0</ele><time>2026-04-19T12:54:21Z</time></trkpt><trkpt lat="44.55813043492887" lon="8.169178999857085"><ele>303.0</ele><time>2026-04-19T12:54:22Z</time></trkpt><trkpt lat="44.55807737357276" lon="8.169272771371931"><ele>302.0</ele><time>2026-04-19T12:54:23Z</time></trkpt><trkpt lat="44.558061359055124" lon="8.169401012535499"><ele>301.0</ele><time>2026-04-19T12:54:24Z</time></trkpt><trkpt lat="44.55807851787211" lon="8.169556736739704"><ele>301.0</ele><time>2026-04-19T12:54:25Z</time></trkpt><trkpt lat="44.55811403201807" lon="8.169722696806662"><ele>301.0</ele><time>2026-04-19T12:54:26Z</time></trkpt><trkpt lat="44.558133257535545" lon="8.169910484469947"><ele>301.0</ele><time>2026-04-19T12:54:27Z</time></trkpt><trkpt lat="44.55813213849751" lon="8.170105803229113"><ele>301.0</ele><time>2026-04-19T12:54:28Z</time></trkpt><trkpt lat="44.55812530452291" lon="8.170264786642106"><ele>301.16666666666663</ele><time>2026-04-19T12:54:29Z</time></trkpt><trkpt lat="44.55811586362441" lon="8.170387848706278"><ele>301.3333333333333</ele><time>2026-04-19T12:54:30Z</time></trkpt><trkpt lat="44.558092177984115" lon="8.170492156852973"><ele>301.5</ele><time>2026-04-19T12:54:31Z</time></trkpt><trkpt lat="44.55803920749309" lon="8.170578334119256"><ele>301.6666666666667</ele><time>2026-04-19T12:54:32Z</time></trkpt><trkpt lat="44.55796827123694" lon="8.170637696780775"><ele>301.83333333333337</ele><time>2026-04-19T12:54:33Z</time></trkpt><trkpt lat="44.557861334431685" lon="8.170662266430583"><ele>302.0</ele><time>2026-04-19T12:54:35Z</time></trkpt><trkpt lat="44.55779569795807" lon="8.170555323338304"><ele>307.8</ele><time>2026-04-19T12:54:37Z</time></trkpt><trkpt lat="44.55782890117515" lon="8.170455159515162"><ele>313.6</ele><time>2026-04-19T12:54:38Z</time></trkpt><trkpt lat="44.55784481487359" lon="8.170357065883465"><ele>319.40000000000003</ele><time>2026-04-19T12:54:39Z</time></trkpt><trkpt lat="44.557851152932436" lon="8.170229906958358"><ele>325.2</ele><time>2026-04-19T12:54:40Z</time></trkpt><trkpt lat="44.55785254736234" lon="8.170083371238048"><ele>331.0</ele><time>2026-04-19T12:54:41Z</time></trkpt><trkpt lat="44.55784844192439" lon="8.169913915318867"><ele>330.75</ele><time>2026-04-19T12:54:42Z</time></trkpt><trkpt lat="44.55783181034336" lon="8.16973086310356"><ele>330.5</ele><time>2026-04-19T12:54:43Z</time></trkpt><trkpt lat="44.55780779256047" lon="8.169549034767899"><ele>330.25</ele><time>2026-04-19T12:54:44Z</time></trkpt><trkpt lat="44.557778101718434" lon="8.169396368438022"><ele>330.0</ele><time>2026-04-19T12:54:45Z</time></trkpt><trkpt lat="44.55774414182809" lon="8.169256982144017"><ele>330.0</ele><time>2026-04-19T12:54:46Z</time></trkpt><trkpt lat="44.55770078356074" lon="8.16912283140201"><ele>330.0</ele><time>2026-04-19T12:54:47Z</time></trkpt><trkpt lat="44.55766420828463" lon="8.169002617875242"><ele>330.0</ele><time>2026-04-19T12:54:48Z</time></trkpt><trkpt lat="44.55764507843858" lon="8.168888918838178"><ele>330.0</ele><time>2026-04-19T12:54:49Z</time></trkpt><trkpt lat="44.55763858689111" lon="8.168782025952945"><ele>330.0</ele><time>2026-04-19T12:54:50Z</time></trkpt><trkpt lat="44.557614188067724" lon="8.168694977723677"><ele>330.0</ele><time>2026-04-19T12:54:51Z</time></trkpt><trkpt lat="44.55753052681337" lon="8.1686461189888"><ele>330.0</ele><time>2026-04-19T12:54:53Z</time></trkpt><trkpt lat="44.55748299117304" lon="8.168728077360587"><ele>330.0</ele><time>2026-04-19T12:54:54Z</time></trkpt><trkpt lat="44.55747810588793" lon="8.168906448452493"><ele>330.0</ele><time>2026-04-19T12:54:56Z</time></trkpt><trkpt lat="44.55750360776161" lon="8.169015369567866"><ele>330.0</ele><time>2026-04-19T12:54:57Z</time></trkpt><trkpt lat="44.55754264206287" lon="8.169144773360669"><ele>330.0</ele><time>2026-04-19T12:54:58Z</time></trkpt><trkpt lat="44.55756872313622" lon="8.1692801430093"><ele>330.0</ele><time>2026-04-19T12:54:59Z</time></trkpt><trkpt lat="44.557573830945216" lon="8.169410020381767"><ele>330.0</ele><time>2026-04-19T12:55:00Z</time></trkpt><trkpt lat="44.55755809599104" lon="8.169537230801716"><ele>330.0</ele><time>2026-04-19T12:55:01Z</time></trkpt><trkpt lat="44.55752415131738" lon="8.169664213083148"><ele>330.0</ele><time>2026-04-19T12:55:02Z</time></trkpt><trkpt lat="44.55747764142972" lon="8.169805989345779"><ele>330.0</ele><time>2026-04-19T12:55:03Z</time></trkpt><trkpt lat="44.557456701001385" lon="8.169949641022875"><ele>330.0</ele><time>2026-04-19T12:55:04Z</time></trkpt><trkpt lat="44.55745237914282" lon="8.170068396813601"><ele>330.0</ele><time>2026-04-19T12:55:05Z</time></trkpt><trkpt lat="44.55741106336393" lon="8.170192066490904"><ele>330.0</ele><time>2026-04-19T12:55:07Z</time></trkpt><trkpt lat="44.557329876237254" lon="8.170161872643863"><ele>330.0</ele><time>2026-04-19T12:55:09Z</time></trkpt><trkpt lat="44.557316936516436" lon="8.170010040941431"><ele>330.0</ele><time>2026-04-19T12:55:11Z</time></trkpt><trkpt lat="44.557341630798824" lon="8.169818516104439"><ele>330.0</ele><time>2026-04-19T12:55:13Z</time></trkpt><trkpt lat="44.557348329099646" lon="8.169680722434583"><ele>330.0</ele><time>2026-04-19T12:55:14Z</time></trkpt><trkpt lat="44.55735184730771" lon="8.169519585716486"><ele>330.0</ele><time>2026-04-19T12:55:15Z</time></trkpt><trkpt lat="44.55734601031839" lon="8.169358398622474"><ele>330.0</ele><time>2026-04-19T12:55:16Z</time></trkpt><trkpt lat="44.55728035461658" lon="8.169202864016304"><ele>330.0</ele><time>2026-04-19T12:55:17Z</time></trkpt><trkpt lat="44.55722674603822" lon="8.16902196268172"><ele>330.0</ele><time>2026-04-19T12:55:18Z</time></trkpt><trkpt lat="44.5571564600139" lon="8.168844329432545"><ele>330.0</ele><time>2026-04-19T12:55:19Z</time></trkpt><trkpt lat="44.55709712056262" lon="8.168684865850697"><ele>330.0</ele><time>2026-04-19T12:55:20Z</time></trkpt><trkpt lat="44.55705396220557" lon="8.16853619569523"><ele>329.2</ele><time>2026-04-19T12:55:21Z</time></trkpt><trkpt lat="44.557028478190226" lon="8.168394359340018"><ele>328.4</ele><time>2026-04-19T12:55:22Z</time></trkpt><trkpt lat="44.55700160817505" lon="8.168260945578758"><ele>327.6</ele><time>2026-04-19T12:55:23Z</time></trkpt><trkpt lat="44.55696153505027" lon="8.16814771844881"><ele>326.8</ele><time>2026-04-19T12:55:24Z</time></trkpt><trkpt lat="44.55689648015557" lon="8.168066211407671"><ele>326.0</ele><time>2026-04-19T12:55:25Z</time></trkpt><trkpt lat="44.556796814581745" lon="8.16804759070916"><ele>326.0</ele><time>2026-04-19T12:55:26Z</time></trkpt><trkpt lat="44.556699247189655" lon="8.16804829361572"><ele>326.0</ele><time>2026-04-19T12:55:27Z</time></trkpt><trkpt lat="44.556598848380936" lon="8.168097440905248"><ele>326.0</ele><time>2026-04-19T12:55:28Z</time></trkpt><trkpt lat="44.55649717253491" lon="8.16818357142029"><ele>326.0</ele><time>2026-04-19T12:55:29Z</time></trkpt><trkpt lat="44.55638331153061" lon="8.168272462579598"><ele>329.0</ele><time>2026-04-19T12:55:30Z</time></trkpt><trkpt lat="44.55626350419155" lon="8.168343960806865"><ele>332.0</ele><time>2026-04-19T12:55:31Z</time></trkpt><trkpt lat="44.5561650036108" lon="8.16841987089483"><ele>335.0</ele><time>2026-04-19T12:55:32Z</time></trkpt><trkpt lat="44.556075101861566" lon="8.168487425811298"><ele>338.0</ele><time>2026-04-19T12:55:33Z</time></trkpt><trkpt lat="44.55599637806971" lon="8.168573623857844"><ele>341.0</ele><time>2026-04-19T12:55:34Z</time></trkpt><trkpt lat="44.55592772172068" lon="8.168659742485776"><ele>342.83333333333337</ele><time>2026-04-19T12:55:35Z</time></trkpt><trkpt lat="44.55585553100758" lon="8.168706039394976"><ele>344.6666666666667</ele><time>2026-04-19T12:55:36Z</time></trkpt><trkpt lat="44.55579586693681" lon="8.168736868386882"><ele>346.5</ele><time>2026-04-19T12:55:37Z</time></trkpt><trkpt lat="44.55571495170018" lon="8.168745796783464"><ele>348.3333333333333</ele><time>2026-04-19T12:55:39Z</time></trkpt><trkpt lat="44.5556681099102" lon="8.168588392690534"><ele>350.16666666666663</ele><time>2026-04-19T12:55:41Z</time></trkpt><trkpt lat="44.555619238646095" lon="8.168499715658664"><ele>352.0</ele><time>2026-04-19T12:55:42Z</time></trkpt><trkpt lat="44.555557402699435" lon="8.16839022239964"><ele>352.0</ele><time>2026-04-19T12:55:43Z</time></trkpt><trkpt lat="44.55548967031745" lon="8.168276822381833"><ele>352.0</ele><time>2026-04-19T12:55:44Z</time></trkpt><trkpt lat="44.55542584048949" lon="8.168183869379135"><ele>352.0</ele><time>2026-04-19T12:55:45Z</time></trkpt><trkpt lat="44.555365146114404" lon="8.16812173019976"><ele>352.0</ele><time>2026-04-19T12:55:46Z</time></trkpt><trkpt lat="44.555266310072554" lon="8.168101297808668"><ele>352.0</ele><time>2026-04-19T12:55:48Z</time></trkpt><trkpt lat="44.555207282699335" lon="8.168169238061191"><ele>352.0</ele><time>2026-04-19T12:55:50Z</time></trkpt><trkpt lat="44.55523140776143" lon="8.168327548243505"><ele>352.0</ele><time>2026-04-19T12:55:52Z</time></trkpt><trkpt lat="44.55527695537403" lon="8.168406066173478"><ele>352.0</ele><time>2026-04-19T12:55:53Z</time></trkpt><trkpt lat="44.555328002860854" lon="8.168503348011743"><ele>352.0</ele><time>2026-04-19T12:55:54Z</time></trkpt><trkpt lat="44.555381936917" lon="8.168615742313994"><ele>352.0</ele><time>2026-04-19T12:55:55Z</time></trkpt><trkpt lat="44.555434960445496" lon="8.16871651144156"><ele>352.0</ele><time>2026-04-19T12:55:56Z</time></trkpt><trkpt lat="44.55549208335485" lon="8.168797948987603"><ele>352.0</ele><time>2026-04-19T12:55:57Z</time></trkpt><trkpt lat="44.55554880674512" lon="8.168922968762775"><ele>352.0</ele><time>2026-04-19T12:55:59Z</time></trkpt><trkpt lat="44.55549483258332" lon="8.169021097724094"><ele>352.0</ele><time>2026-04-19T12:56:01Z</time></trkpt><trkpt lat="44.55539530342342" lon="8.168990713093054"><ele>352.0</ele><time>2026-04-19T12:56:03Z</time></trkpt><trkpt lat="44.555334061511104" lon="8.168962129527415"><ele>352.0</ele><time>2026-04-19T12:56:04Z</time></trkpt><trkpt lat="44.55528108970057" lon="8.168892641580097"><ele>352.0</ele><time>2026-04-19T12:56:05Z</time></trkpt><trkpt lat="44.5552138735149" lon="8.168800551011005"><ele>352.0</ele><time>2026-04-19T12:56:06Z</time></trkpt><trkpt lat="44.55513967401159" lon="8.168698118253905"><ele>356.6</ele><time>2026-04-19T12:56:07Z</time></trkpt><trkpt lat="44.55506095772561" lon="8.16858761849386"><ele>361.20000000000005</ele><time>2026-04-19T12:56:08Z</time></trkpt><trkpt lat="44.554981213587624" lon="8.16847820208433"><ele>365.8</ele><time>2026-04-19T12:56:09Z</time></trkpt><trkpt lat="44.55490349086576" lon="8.168374819155083"><ele>370.4</ele><time>2026-04-19T12:56:10Z</time></trkpt><trkpt lat="44.55482771166084" lon="8.168283200696479"><ele>375.0</ele><time>2026-04-19T12:56:11Z</time></trkpt><trkpt lat="44.554738272639284" lon="8.168206212271505"><ele>374.0</ele><time>2026-04-19T12:56:12Z</time></trkpt><trkpt lat="44.554630047118614" lon="8.16816109902401"><ele>373.0</ele><time>2026-04-19T12:56:13Z</time></trkpt><trkpt lat="44.55451932650962" lon="8.168163484787584"><ele>372.0</ele><time>2026-04-19T12:56:14Z</time></trkpt><trkpt lat="44.554409243148854" lon="8.168159776574532"><ele>371.0</ele><time>2026-04-19T12:56:15Z</time></trkpt><trkpt lat="44.55429305800338" lon="8.16812798565494"><ele>375.0</ele><time>2026-04-19T12:56:16Z</time></trkpt><trkpt lat="44.55417167846476" lon="8.168113314738648"><ele>379.0</ele><time>2026-04-19T12:56:17Z</time></trkpt><trkpt lat="44.55406280238114" lon="8.168096286292135"><ele>383.0</ele><time>2026-04-19T12:56:18Z</time></trkpt><trkpt lat="44.55395573269099" lon="8.16809941800568"><ele>387.0</ele><time>2026-04-19T12:56:19Z</time></trkpt><trkpt lat="44.553858116396555" lon="8.16807571447623"><ele>391.0</ele><time>2026-04-19T12:56:20Z</time></trkpt><trkpt lat="44.553786361502326" lon="8.168015491139831"><ele>391.00000000000006</ele><time>2026-04-19T12:56:21Z</time></trkpt><trkpt lat="44.553722066950044" lon="8.168011287153162"><ele>391.0</ele><time>2026-04-19T12:56:22Z</time></trkpt><trkpt lat="44.55363486730785" lon="8.168001762920287"><ele>391.0</ele><time>2026-04-19T12:56:24Z</time></trkpt><trkpt lat="44.553587838562116" lon="8.168104050053152"><ele>391.0</ele><time>2026-04-19T12:56:26Z</time></trkpt><trkpt lat="44.55363088609372" lon="8.168271993081374"><ele>391.00000000000006</ele><time>2026-04-19T12:56:28Z</time></trkpt><trkpt lat="44.55368051785095" lon="8.168352656518355"><ele>391.0</ele><time>2026-04-19T12:56:29Z</time></trkpt><trkpt lat="44.55373221443786" lon="8.168443674862441"><ele>391.1666666666667</ele><time>2026-04-19T12:56:30Z</time></trkpt><trkpt lat="44.55376879066145" lon="8.168539999479181"><ele>391.33333333333337</ele><time>2026-04-19T12:56:31Z</time></trkpt><trkpt lat="44.55379104012935" lon="8.168637980058856"><ele>391.5</ele><time>2026-04-19T12:56:32Z</time></trkpt><trkpt lat="44.55375877767349" lon="8.168805832641537"><ele>391.66666666666663</ele><time>2026-04-19T12:56:34Z</time></trkpt><trkpt lat="44.553707156721146" lon="8.168886436570876"><ele>391.8333333333333</ele><time>2026-04-19T12:56:35Z</time></trkpt><trkpt lat="44.55365758083557" lon="8.168975034410657"><ele>392.0</ele><time>2026-04-19T12:56:36Z</time></trkpt><trkpt lat="44.553626952053236" lon="8.169092691300094"><ele>392.8</ele><time>2026-04-19T12:56:37Z</time></trkpt><trkpt lat="44.55362711730757" lon="8.169225774242875"><ele>393.6</ele><time>2026-04-19T12:56:38Z</time></trkpt><trkpt lat="44.55366156650474" lon="8.169357384157381"><ele>394.40000000000003</ele><time>2026-04-19T12:56:39Z</time></trkpt><trkpt lat="44.55372028364338" lon="8.169480326612486"><ele>395.20000000000005</ele><time>2026-04-19T12:56:40Z</time></trkpt><trkpt lat="44.5537753679712" lon="8.16960644116499"><ele>396.0</ele><time>2026-04-19T12:56:41Z</time></trkpt><trkpt lat="44.55380801607734" lon="8.169741712430978"><ele>397.4</ele><time>2026-04-19T12:56:42Z</time></trkpt><trkpt lat="44.553820876907324" lon="8.16988939006364"><ele>398.8</ele><time>2026-04-19T12:56:43Z</time></trkpt><trkpt lat="44.55382037888672" lon="8.170032617113147"><ele>400.2</ele><time>2026-04-19T12:56:44Z</time></trkpt><trkpt lat="44.55380798014315" lon="8.170162463510033"><ele>401.59999999999997</ele><time>2026-04-19T12:56:45Z</time></trkpt><trkpt lat="44.55378310807193" lon="8.170274346844211"><ele>403.0</ele><time>2026-04-19T12:56:46Z</time></trkpt><trkpt lat="44.55374284950014" lon="8.170369710143255"><ele>405.59999999999997</ele><time>2026-04-19T12:56:47Z</time></trkpt><trkpt lat="44.5536788977901" lon="8.17045191334761"><ele>408.2</ele><time>2026-04-19T12:56:48Z</time></trkpt><trkpt lat="44.553593118326184" lon="8.170534161973668"><ele>410.8</ele><time>2026-04-19T12:56:49Z</time></trkpt><trkpt lat="44.55349877704205" lon="8.170616227749436"><ele>413.4</ele><time>2026-04-19T12:56:50Z</time></trkpt><trkpt lat="44.55341713480827" lon="8.170686654848637"><ele>416.0</ele><time>2026-04-19T12:56:51Z</time></trkpt><trkpt lat="44.55336125751123" lon="8.170761886992606"><ele>416.8</ele><time>2026-04-19T12:56:52Z</time></trkpt><trkpt lat="44.553336376896766" lon="8.170918346327106"><ele>417.6</ele><time>2026-04-19T12:56:54Z</time></trkpt><trkpt lat="44.553425741710626" lon="8.17105386035349"><ele>418.4</ele><time>2026-04-19T12:56:56Z</time></trkpt><trkpt lat="44.55350469395557" lon="8.171082631266831"><ele>419.2</ele><time>2026-04-19T12:56:57Z</time></trkpt><trkpt lat="44.5536020519025" lon="8.17111118243356"><ele>420.0</ele><time>2026-04-19T12:56:58Z</time></trkpt><trkpt lat="44.553715304235" lon="8.171092527453935"><ele>418.2</ele><time>2026-04-19T12:56:59Z</time></trkpt><trkpt lat="44.55382150573196" lon="8.171065281975945"><ele>416.4</ele><time>2026-04-19T12:57:00Z</time></trkpt><trkpt lat="44.553905748635806" lon="8.171023121135628"><ele>414.6</ele><time>2026-04-19T12:57:01Z</time></trkpt><trkpt lat="44.55398157844608" lon="8.171023990728486"><ele>412.8</ele><time>2026-04-19T12:57:02Z</time></trkpt><trkpt lat="44.55404263513574" lon="8.171052544940432"><ele>411.0</ele><time>2026-04-19T12:57:03Z</time></trkpt><trkpt lat="44.55412100035035" lon="8.171193977074267"><ele>411.0</ele><time>2026-04-19T12:57:05Z</time></trkpt><trkpt lat="44.55413899165995" lon="8.17129803116717"><ele>411.0</ele><time>2026-04-19T12:57:06Z</time></trkpt><trkpt lat="44.554150297759186" lon="8.17141452559824"><ele>411.0</ele><time>2026-04-19T12:57:07Z</time></trkpt><trkpt lat="44.55416261890415" lon="8.171540150005704"><ele>411.0</ele><time>2026-04-19T12:57:08Z</time></trkpt><trkpt lat="44.55416295753299" lon="8.171641036746577"><ele>411.0</ele><time>2026-04-19T12:57:09Z</time></trkpt><trkpt lat="44.55412668689397" lon="8.171766802514632"><ele>411.0</ele><time>2026-04-19T12:57:11Z</time></trkpt><trkpt lat="44.554036591553455" lon="8.17177586536713"><ele>411.0</ele><time>2026-04-19T12:57:13Z</time></trkpt><trkpt lat="44.55401219663165" lon="8.171693699720592"><ele>411.0</ele><time>2026-04-19T12:57:14Z</time></trkpt><trkpt lat="44.5539563198779" lon="8.17151988602931"><ele>411.0</ele><time>2026-04-19T12:57:16Z</time></trkpt><trkpt lat="44.553910308906204" lon="8.171413346952363"><ele>411.0</ele><time>2026-04-19T12:57:17Z</time></trkpt><trkpt lat="44.55385290893736" lon="8.17131200463769"><ele>411.0</ele><time>2026-04-19T12:57:18Z</time></trkpt><trkpt lat="44.55378209516206" lon="8.171257183947784"><ele>412.8</ele><time>2026-04-19T12:57:19Z</time></trkpt><trkpt lat="44.553697560654584" lon="8.171257107964783"><ele>414.6</ele><time>2026-04-19T12:57:20Z</time></trkpt><trkpt lat="44.55360331911489" lon="8.171322840389694"><ele>416.4</ele><time>2026-04-19T12:57:21Z</time></trkpt><trkpt lat="44.55349821679801" lon="8.171363662570924"><ele>418.2</ele><time>2026-04-19T12:57:22Z</time></trkpt><trkpt lat="44.55337811707682" lon="8.17138778210851"><ele>420.0</ele><time>2026-04-19T12:57:23Z</time></trkpt><trkpt lat="44.55326349101045" lon="8.171408662964344"><ele>420.0</ele><time>2026-04-19T12:57:24Z</time></trkpt><trkpt lat="44.5531546857356" lon="8.17143103198975"><ele>420.0</ele><time>2026-04-19T12:57:25Z</time></trkpt><trkpt lat="44.55303649992928" lon="8.171439965034907"><ele>420.0</ele><time>2026-04-19T12:57:26Z</time></trkpt><trkpt lat="44.552924918143646" lon="8.171460061211738"><ele>420.0</ele><time>2026-04-19T12:57:27Z</time></trkpt><trkpt lat="44.55282275966092" lon="8.171477343057107"><ele>420.0</ele><time>2026-04-19T12:57:28Z</time></trkpt><trkpt lat="44.552741142154375" lon="8.171395712821655"><ele>422.2</ele><time>2026-04-19T12:57:29Z</time></trkpt><trkpt lat="44.55266231489023" lon="8.171322587652844"><ele>424.4</ele><time>2026-04-19T12:57:30Z</time></trkpt><trkpt lat="44.5525796197426" lon="8.171269654633951"><ele>426.6</ele><time>2026-04-19T12:57:31Z</time></trkpt><trkpt lat="44.55248726527376" lon="8.171234032537704"><ele>428.8</ele><time>2026-04-19T12:57:32Z</time></trkpt><trkpt lat="44.552381186316794" lon="8.171271296147696"><ele>431.0</ele><time>2026-04-19T12:57:33Z</time></trkpt><trkpt lat="44.552287909957904" lon="8.171320120146058"><ele>431.0</ele><time>2026-04-19T12:57:34Z</time></trkpt><trkpt lat="44.55220353395907" lon="8.171346117801315"><ele>431.0</ele><time>2026-04-19T12:57:35Z</time></trkpt><trkpt lat="44.55213201191015" lon="8.17128753447441"><ele>431.0</ele><time>2026-04-19T12:57:36Z</time></trkpt><trkpt lat="44.55209080956989" lon="8.171148149207884"><ele>431.0</ele><time>2026-04-19T12:57:38Z</time></trkpt><trkpt lat="44.552100609687024" lon="8.17099788396701"><ele>431.0</ele><time>2026-04-19T12:57:40Z</time></trkpt><trkpt lat="44.55209740301064" lon="8.170869840438856"><ele>431.0</ele><time>2026-04-19T12:57:41Z</time></trkpt><trkpt lat="44.55209372862647" lon="8.170723122110154"><ele>431.0</ele><time>2026-04-19T12:57:42Z</time></trkpt><trkpt lat="44.5520853960135" lon="8.170557367161477"><ele>431.0</ele><time>2026-04-19T12:57:43Z</time></trkpt><trkpt lat="44.552064621609496" lon="8.170391888037157"><ele>431.0</ele><time>2026-04-19T12:57:44Z</time></trkpt><trkpt lat="44.55205700808731" lon="8.170255006700247"><ele>431.0</ele><time>2026-04-19T12:57:45Z</time></trkpt><trkpt lat="44.55203711485295" lon="8.170148241350672"><ele>434.99999999999994</ele><time>2026-04-19T12:57:46Z</time></trkpt><trkpt lat="44.55198297366387" lon="8.17005120067129"><ele>439.0</ele><time>2026-04-19T12:57:47Z</time></trkpt><trkpt lat="44.55191348581975" lon="8.169960240988104"><ele>443.0</ele><time>2026-04-19T12:57:48Z</time></trkpt><trkpt lat="44.55185446811727" lon="8.169907721864393"><ele>447.0</ele><time>2026-04-19T12:57:49Z</time></trkpt><trkpt lat="44.5517915116818" lon="8.169898140968892"><ele>450.99999999999994</ele><time>2026-04-19T12:57:50Z</time></trkpt><trkpt lat="44.55169247071641" lon="8.170011359655945"><ele>455.0</ele><time>2026-04-19T12:57:52Z</time></trkpt><trkpt lat="44.55168396446965" lon="8.170128189847382"><ele>454.99999999999994</ele><time>2026-04-19T12:57:53Z</time></trkpt><trkpt lat="44.551704373600515" lon="8.170231023450727"><ele>455.0</ele><time>2026-04-19T12:57:54Z</time></trkpt><trkpt lat="44.551745001528055" lon="8.17032448610614"><ele>455.0</ele><time>2026-04-19T12:57:55Z</time></trkpt><trkpt lat="44.551781113777" lon="8.170399674257283"><ele>455.0</ele><time>2026-04-19T12:57:56Z</time></trkpt><trkpt lat="44.551770930964786" lon="8.17051669939995"><ele>454.99999999999994</ele><time>2026-04-19T12:57:58Z</time></trkpt><trkpt lat="44.551690949655104" lon="8.17054655786491"><ele>455.0</ele><time>2026-04-19T12:58:00Z</time></trkpt><trkpt lat="44.55160202074822" lon="8.170433921453643"><ele>455.0</ele><time>2026-04-19T12:58:02Z</time></trkpt><trkpt lat="44.55153843335329" lon="8.170388929269135"><ele>455.0</ele><time>2026-04-19T12:58:03Z</time></trkpt><trkpt lat="44.55146589361406" lon="8.17033302428554"><ele>455.0</ele><time>2026-04-19T12:58:04Z</time></trkpt><trkpt lat="44.5513952518835" lon="8.170245103185493"><ele>455.0</ele><time>2026-04-19T12:58:05Z</time></trkpt><trkpt lat="44.551325124764496" lon="8.170134064376638"><ele>455.0</ele><time>2026-04-19T12:58:06Z</time></trkpt><trkpt lat="44.551246553109785" lon="8.170001018962033"><ele>458.0</ele><time>2026-04-19T12:58:07Z</time></trkpt><trkpt lat="44.55116193070315" lon="8.169852215177736"><ele>461.0</ele><time>2026-04-19T12:58:08Z</time></trkpt><trkpt lat="44.55107914776036" lon="8.16970199040666"><ele>464.0</ele><time>2026-04-19T12:58:09Z</time></trkpt><trkpt lat="44.55101309027441" lon="8.169582176889442"><ele>467.0</ele><time>2026-04-19T12:58:10Z</time></trkpt><trkpt lat="44.55095567435268" lon="8.169486317383301"><ele>466.99999999999994</ele><time>2026-04-19T12:58:11Z</time></trkpt><trkpt lat="44.55089540372355" lon="8.169402348012442"><ele>467.0</ele><time>2026-04-19T12:58:12Z</time></trkpt><trkpt lat="44.55084138349467" lon="8.169316504205018"><ele>467.0</ele><time>2026-04-19T12:58:13Z</time></trkpt><trkpt lat="44.550803789209965" lon="8.169226898295426"><ele>467.0</ele><time>2026-04-19T12:58:14Z</time></trkpt><trkpt lat="44.55080975209762" lon="8.16913539667308"><ele>466.99999999999994</ele><time>2026-04-19T12:58:15Z</time></trkpt><trkpt lat="44.55082729470792" lon="8.16903049423092"><ele>467.0</ele><time>2026-04-19T12:58:16Z</time></trkpt><trkpt lat="44.55083963542351" lon="8.168906555204433"><ele>467.20000000000005</ele><time>2026-04-19T12:58:17Z</time></trkpt><trkpt lat="44.55083542833503" lon="8.168771641633224"><ele>467.40000000000003</ele><time>2026-04-19T12:58:18Z</time></trkpt><trkpt lat="44.55081390332794" lon="8.168641382574918"><ele>467.59999999999997</ele><time>2026-04-19T12:58:19Z</time></trkpt><trkpt lat="44.55073615278764" lon="8.168547777754657"><ele>467.79999999999995</ele><time>2026-04-19T12:58:20Z</time></trkpt><trkpt lat="44.550705054182174" lon="8.168455727522732"><ele>468.0</ele><time>2026-04-19T12:58:21Z</time></trkpt><trkpt lat="44.55060877844647" lon="8.1684222254856"><ele>468.0</ele><time>2026-04-19T12:58:23Z</time></trkpt><trkpt lat="44.55053683647786" lon="8.168537134871643"><ele>467.99999999999994</ele><time>2026-04-19T12:58:25Z</time></trkpt><trkpt lat="44.55053949595111" lon="8.16871134989668"><ele>467.99999999999994</ele><time>2026-04-19T12:58:27Z</time></trkpt><trkpt lat="44.55054734979572" lon="8.16881398162451"><ele>468.0</ele><time>2026-04-19T12:58:28Z</time></trkpt><trkpt lat="44.55053788805301" lon="8.16892092680596"><ele>468.0</ele><time>2026-04-19T12:58:29Z</time></trkpt><trkpt lat="44.55050416736147" lon="8.16903651574165"><ele>467.79999999999995</ele><time>2026-04-19T12:58:30Z</time></trkpt><trkpt lat="44.55044890707528" lon="8.169165084731238"><ele>467.59999999999997</ele><time>2026-04-19T12:58:31Z</time></trkpt><trkpt lat="44.55037116091558" lon="8.169282597228989"><ele>467.40000000000003</ele><time>2026-04-19T12:58:32Z</time></trkpt><trkpt lat="44.55030308913114" lon="8.169404680476271"><ele>467.20000000000005</ele><time>2026-04-19T12:58:33Z</time></trkpt><trkpt lat="44.55023562585002" lon="8.169503737484062"><ele>467.0</ele><time>2026-04-19T12:58:34Z</time></trkpt><trkpt lat="44.55018974035675" lon="8.169592020166684"><ele>467.40000000000003</ele><time>2026-04-19T12:58:35Z</time></trkpt><trkpt lat="44.55012494812133" lon="8.169697941174197"><ele>467.80000000000007</ele><time>2026-04-19T12:58:37Z</time></trkpt><trkpt lat="44.55017531010368" lon="8.169834705883348"><ele>468.2</ele><time>2026-04-19T12:58:39Z</time></trkpt><trkpt lat="44.550301986934095" lon="8.169893187096841"><ele>468.6</ele><time>2026-04-19T12:58:41Z</time></trkpt><trkpt lat="44.550353249867975" lon="8.169957961200792"><ele>469.0</ele><time>2026-04-19T12:58:42Z</time></trkpt><trkpt lat="44.55037994883927" lon="8.170052269182095"><ele>469.0</ele><time>2026-04-19T12:58:43Z</time></trkpt><trkpt lat="44.55037586980504" lon="8.17015384786865"><ele>469.0</ele><time>2026-04-19T12:58:44Z</time></trkpt><trkpt lat="44.55032954251413" lon="8.17025282748914"><ele>469.0</ele><time>2026-04-19T12:58:45Z</time></trkpt><trkpt lat="44.5502815295416" lon="8.170381949805085"><ele>469.0</ele><time>2026-04-19T12:58:46Z</time></trkpt><trkpt lat="44.55021866414323" lon="8.170554088569208"><ele>469.0</ele><time>2026-04-19T12:58:47Z</time></trkpt><trkpt lat="44.55013933783239" lon="8.17076177989059"><ele>473.75</ele><time>2026-04-19T12:58:48Z</time></trkpt><trkpt lat="44.55005769892251" lon="8.170988721961837"><ele>478.5</ele><time>2026-04-19T12:58:49Z</time></trkpt><trkpt lat="44.54997886130381" lon="8.17116496183928"><ele>483.25</ele><time>2026-04-19T12:58:50Z</time></trkpt><trkpt lat="44.549920010195166" lon="8.171307418156275"><ele>488.0</ele><time>2026-04-19T12:58:51Z</time></trkpt><trkpt lat="44.549881583434335" lon="8.171435750450696"><ele>488.4</ele><time>2026-04-19T12:58:52Z</time></trkpt><trkpt lat="44.549833243476336" lon="8.171530206148367"><ele>488.79999999999995</ele><time>2026-04-19T12:58:53Z</time></trkpt><trkpt lat="44.549777712094865" lon="8.171620428212448"><ele>489.2</ele><time>2026-04-19T12:58:54Z</time></trkpt><trkpt lat="44.549691220398536" lon="8.1717108432761"><ele>489.6</ele><time>2026-04-19T12:58:55Z</time></trkpt><trkpt lat="44.54960549441785" lon="8.171847510961413"><ele>490.0</ele><time>2026-04-19T12:58:56Z</time></trkpt><trkpt lat="44.54951487420674" lon="8.171931240972526"><ele>491.50000000000006</ele><time>2026-04-19T12:58:57Z</time></trkpt><trkpt lat="44.54943227085154" lon="8.171956201470879"><ele>493.0</ele><time>2026-04-19T12:58:58Z</time></trkpt><trkpt lat="44.54936835286035" lon="8.17198262133569"><ele>494.5</ele><time>2026-04-19T12:58:59Z</time></trkpt><trkpt lat="44.549267022083214" lon="8.17193455094524"><ele>496.0</ele><time>2026-04-19T12:59:01Z</time></trkpt><trkpt lat="44.5492101544938" lon="8.171886972999568"><ele>497.50000000000006</ele><time>2026-04-19T12:59:02Z</time></trkpt><trkpt lat="44.549152753872235" lon="8.17182536415308"><ele>499.0</ele><time>2026-04-19T12:59:03Z</time></trkpt><trkpt lat="44.54911072774475" lon="8.171751646219379"><ele>499.00000000000006</ele><time>2026-04-19T12:59:04Z</time></trkpt><trkpt lat="44.549085655466364" lon="8.171656650906131"><ele>499.0</ele><time>2026-04-19T12:59:05Z</time></trkpt><trkpt lat="44.54905283146681" lon="8.171541906984402"><ele>499.0</ele><time>2026-04-19T12:59:06Z</time></trkpt><trkpt lat="44.549011769166086" lon="8.17143354204558"><ele>499.0</ele><time>2026-04-19T12:59:07Z</time></trkpt><trkpt lat="44.54897354851938" lon="8.171361097043661"><ele>499.00000000000006</ele><time>2026-04-19T12:59:08Z</time></trkpt><trkpt lat="44.54886622946729" lon="8.17135495270603"><ele>499.0</ele><time>2026-04-19T12:59:10Z</time></trkpt><trkpt lat="44.54880932246979" lon="8.171522322067784"><ele>499.0</ele><time>2026-04-19T12:59:12Z</time></trkpt><trkpt lat="44.548809844666344" lon="8.171629047247691"><ele>499.0</ele><time>2026-04-19T12:59:13Z</time></trkpt><trkpt lat="44.54882399797492" lon="8.171754504412318"><ele>499.0</ele><time>2026-04-19T12:59:14Z</time></trkpt><trkpt lat="44.54885524527753" lon="8.171913821040873"><ele>499.0</ele><time>2026-04-19T12:59:15Z</time></trkpt><trkpt lat="44.54890417340309" lon="8.172100000385425"><ele>499.0</ele><time>2026-04-19T12:59:16Z</time></trkpt><trkpt lat="44.548959906467005" lon="8.17227310763633"><ele>499.79999999999995</ele><time>2026-04-19T12:59:17Z</time></trkpt><trkpt lat="44.54900267400434" lon="8.172421450432623"><ele>500.59999999999997</ele><time>2026-04-19T12:59:18Z</time></trkpt><trkpt lat="44.54900089216805" lon="8.172584859855503"><ele>501.4</ele><time>2026-04-19T12:59:19Z</time></trkpt><trkpt lat="44.54899964714399" lon="8.172742603634049"><ele>502.2</ele><time>2026-04-19T12:59:20Z</time></trkpt><trkpt lat="44.549024920574865" lon="8.172879088050603"><ele>503.0</ele><time>2026-04-19T12:59:21Z</time></trkpt><trkpt lat="44.54906222343289" lon="8.17301097817938"><ele>503.0</ele><time>2026-04-19T12:59:22Z</time></trkpt><trkpt lat="44.54913130977648" lon="8.173146212587335"><ele>503.0</ele><time>2026-04-19T12:59:23Z</time></trkpt><trkpt lat="44.5492155654786" lon="8.173287708770886"><ele>503.0</ele><time>2026-04-19T12:59:24Z</time></trkpt><trkpt lat="44.549305949820805" lon="8.173464167956483"><ele>503.0</ele><time>2026-04-19T12:59:25Z</time></trkpt><trkpt lat="44.54943570560251" lon="8.17361115998972"><ele>502.4</ele><time>2026-04-19T12:59:26Z</time></trkpt><trkpt lat="44.54954383835427" lon="8.173751708192968"><ele>501.79999999999995</ele><time>2026-04-19T12:59:27Z</time></trkpt><trkpt lat="44.54961911975986" lon="8.173882650955184"><ele>501.2</ele><time>2026-04-19T12:59:28Z</time></trkpt><trkpt lat="44.54967484450973" lon="8.173989590003552"><ele>500.6</ele><time>2026-04-19T12:59:29Z</time></trkpt><trkpt lat="44.549720727993474" lon="8.174075182582538"><ele>500.0</ele><time>2026-04-19T12:59:30Z</time></trkpt><trkpt lat="44.5497002275915" lon="8.17419518102643"><ele>501.66666666666663</ele><time>2026-04-19T12:59:31Z</time></trkpt><trkpt lat="44.5496624574409" lon="8.174300827185283"><ele>503.3333333333333</ele><time>2026-04-19T12:59:32Z</time></trkpt><trkpt lat="44.54962008527401" lon="8.17441336525338"><ele>505.0</ele><time>2026-04-19T12:59:33Z</time></trkpt><trkpt lat="44.54957554587539" lon="8.174526418084431"><ele>506.66666666666663</ele><time>2026-04-19T12:59:34Z</time></trkpt><trkpt lat="44.54952558166018" lon="8.174637547751175"><ele>508.3333333333333</ele><time>2026-04-19T12:59:35Z</time></trkpt><trkpt lat="44.54947939737614" lon="8.174740971509856"><ele>510.0</ele><time>2026-04-19T12:59:36Z</time></trkpt><trkpt lat="44.549443617878616" lon="8.174822037115849"><ele>511.0</ele><time>2026-04-19T12:59:37Z</time></trkpt><trkpt lat="44.549434460176755" lon="8.174917710843308"><ele>512.0</ele><time>2026-04-19T12:59:38Z</time></trkpt><trkpt lat="44.54948233888405" lon="8.175009534514784"><ele>513.0</ele><time>2026-04-19T12:59:39Z</time></trkpt><trkpt lat="44.54953423431748" lon="8.175103542103285"><ele>514.0</ele><time>2026-04-19T12:59:40Z</time></trkpt><trkpt lat="44.54959993369302" lon="8.175213753730379"><ele>515.0</ele><time>2026-04-19T12:59:41Z</time></trkpt><trkpt lat="44.54967534387464" lon="8.175353253627883"><ele>515.0</ele><time>2026-04-19T12:59:42Z</time></trkpt><trkpt lat="44.549767946489936" lon="8.175511862826005"><ele>515.0</ele><time>2026-04-19T12:59:43Z</time></trkpt><trkpt lat="44.54984899211274" lon="8.175659695221908"><ele>515.0</ele><time>2026-04-19T12:59:44Z</time></trkpt><trkpt lat="44.54990766443073" lon="8.175773204133778"><ele>515.0</ele><time>2026-04-19T12:59:45Z</time></trkpt><trkpt lat="44.54994454685432" lon="8.175852523379206"><ele>515.0</ele><time>2026-04-19T12:59:46Z</time></trkpt><trkpt lat="44.5499018913203" lon="8.17600846177111"><ele>517.2</ele><time>2026-04-19T12:59:48Z</time></trkpt><trkpt lat="44.54983343182606" lon="8.176057564445708"><ele>519.4</ele><time>2026-04-19T12:59:49Z</time></trkpt><trkpt lat="44.54976126275081" lon="8.176129812291817"><ele>521.6</ele><time>2026-04-19T12:59:50Z</time></trkpt><trkpt lat="44.54967801490442" lon="8.1762337380687"><ele>523.8</ele><time>2026-04-19T12:59:51Z</time></trkpt><trkpt lat="44.54957969561573" lon="8.176373081526878"><ele>526.0</ele><time>2026-04-19T12:59:52Z</time></trkpt><trkpt lat="44.549469367028045" lon="8.176529086486449"><ele>529.4</ele><time>2026-04-19T12:59:53Z</time></trkpt><trkpt lat="44.54939039043128" lon="8.17665342848654"><ele>532.8</ele><time>2026-04-19T12:59:54Z</time></trkpt><trkpt lat="44.5493358526242" lon="8.176751042168046"><ele>536.1999999999999</ele><time>2026-04-19T12:59:55Z</time></trkpt><trkpt lat="44.54930034889655" lon="8.176835530771417"><ele>539.6</ele><time>2026-04-19T12:59:56Z</time></trkpt><trkpt lat="44.54931616451158" lon="8.177017573154295"><ele>543.0</ele><time>2026-04-19T12:59:58Z</time></trkpt><trkpt lat="44.54935382306529" lon="8.177126637236238"><ele>543.0</ele><time>2026-04-19T12:59:59Z</time></trkpt><trkpt lat="44.5494119412813" lon="8.177248873705464"><ele>543.0</ele><time>2026-04-19T13:00:00Z</time></trkpt><trkpt lat="44.54949016681255" lon="8.177389382910532"><ele>543.0</ele><time>2026-04-19T13:00:01Z</time></trkpt><trkpt lat="44.5495843198935" lon="8.17756187479152"><ele>543.0</ele><time>2026-04-19T13:00:02Z</time></trkpt><trkpt lat="44.549683656607975" lon="8.17776594404597"><ele>543.0</ele><time>2026-04-19T13:00:03Z</time></trkpt><trkpt lat="44.549755695784285" lon="8.177937878305256"><ele>543.0</ele><time>2026-04-19T13:00:04Z</time></trkpt><trkpt lat="44.54980929308858" lon="8.178091045412074"><ele>543.0</ele><time>2026-04-19T13:00:05Z</time></trkpt><trkpt lat="44.54986164999773" lon="8.178210125629638"><ele>543.0</ele><time>2026-04-19T13:00:06Z</time></trkpt><trkpt lat="44.54991472426733" lon="8.178311809194065"><ele>543.0</ele><time>2026-04-19T13:00:07Z</time></trkpt><trkpt lat="44.550000503352216" lon="8.17833063996263"><ele>543.0</ele><time>2026-04-19T13:00:08Z</time></trkpt><trkpt lat="44.55008232344612" lon="8.17835076901235"><ele>543.0</ele><time>2026-04-19T13:00:09Z</time></trkpt><trkpt lat="44.55016929078658" lon="8.17838901741003"><ele>543.0</ele><time>2026-04-19T13:00:10Z</time></trkpt><trkpt lat="44.550250334903666" lon="8.178451547261673"><ele>543.0</ele><time>2026-04-19T13:00:11Z</time></trkpt><trkpt lat="44.55031208426881" lon="8.17853611240993"><ele>543.0</ele><time>2026-04-19T13:00:12Z</time></trkpt><trkpt lat="44.55034580913003" lon="8.178625300918124"><ele>543.0</ele><time>2026-04-19T13:00:13Z</time></trkpt><trkpt lat="44.550354335510825" lon="8.17871610880733"><ele>543.0</ele><time>2026-04-19T13:00:14Z</time></trkpt><trkpt lat="44.55034663750533" lon="8.178819516727847"><ele>543.0</ele><time>2026-04-19T13:00:15Z</time></trkpt><trkpt lat="44.55031732938731" lon="8.178934641945734"><ele>543.0</ele><time>2026-04-19T13:00:16Z</time></trkpt><trkpt lat="44.55025850029121" lon="8.179031944297812"><ele>543.0</ele><time>2026-04-19T13:00:17Z</time></trkpt><trkpt lat="44.55019395704261" lon="8.17913730844414"><ele>543.0</ele><time>2026-04-19T13:00:18Z</time></trkpt><trkpt lat="44.550122977348934" lon="8.179274415634975"><ele>545.0</ele><time>2026-04-19T13:00:19Z</time></trkpt><trkpt lat="44.550016993749985" lon="8.179371216723286"><ele>547.0</ele><time>2026-04-19T13:00:20Z</time></trkpt><trkpt lat="44.54993581431847" lon="8.179500242544878"><ele>549.0</ele><time>2026-04-19T13:00:21Z</time></trkpt><trkpt lat="44.54985367609681" lon="8.17963074338738"><ele>551.0</ele><time>2026-04-19T13:00:22Z</time></trkpt><trkpt lat="44.5497847145185" lon="8.179792653301552"><ele>552.2</ele><time>2026-04-19T13:00:23Z</time></trkpt><trkpt lat="44.549725883137455" lon="8.179942944828376"><ele>553.4000000000001</ele><time>2026-04-19T13:00:24Z</time></trkpt><trkpt lat="44.549662726608744" lon="8.180048393112008"><ele>554.6</ele><time>2026-04-19T13:00:25Z</time></trkpt><trkpt lat="44.54962215060956" lon="8.180137015556163"><ele>555.8000000000001</ele><time>2026-04-19T13:00:26Z</time></trkpt><trkpt lat="44.54958290627097" lon="8.180243844543854"><ele>557.0</ele><time>2026-04-19T13:00:28Z</time></trkpt><trkpt lat="44.549495424977955" lon="8.180203723814685"><ele>557.0</ele><time>2026-04-19T13:00:31Z</time></trkpt><trkpt lat="44.549434008041196" lon="8.18014303155905"><ele>557.0</ele><time>2026-04-19T13:00:32Z</time></trkpt><trkpt lat="44.5493521867977" lon="8.180079173983374"><ele>557.0</ele><time>2026-04-19T13:00:33Z</time></trkpt><trkpt lat="44.549257443270655" lon="8.179986719799595"><ele>557.0</ele><time>2026-04-19T13:00:34Z</time></trkpt><trkpt lat="44.549139603798245" lon="8.179874256479575"><ele>557.0</ele><time>2026-04-19T13:00:35Z</time></trkpt><trkpt lat="44.54903564883016" lon="8.179764893709343"><ele>557.0</ele><time>2026-04-19T13:00:36Z</time></trkpt><trkpt lat="44.54894910703619" lon="8.179686730896131"><ele>557.0</ele><time>2026-04-19T13:00:37Z</time></trkpt><trkpt lat="44.548864876984325" lon="8.179648624139375"><ele>557.0</ele><time>2026-04-19T13:00:38Z</time></trkpt><trkpt lat="44.54878487743701" lon="8.179653796041716"><ele>557.0</ele><time>2026-04-19T13:00:39Z</time></trkpt><trkpt lat="44.54871245518866" lon="8.179720491759904"><ele>557.0</ele><time>2026-04-19T13:00:40Z</time></trkpt><trkpt lat="44.548665754781744" lon="8.179831232514863"><ele>559.25</ele><time>2026-04-19T13:00:41Z</time></trkpt><trkpt lat="44.54862790780938" lon="8.179957649066822"><ele>561.5</ele><time>2026-04-19T13:00:42Z</time></trkpt><trkpt lat="44.5486899386903" lon="8.180129509762141"><ele>563.75</ele><time>2026-04-19T13:00:43Z</time></trkpt><trkpt lat="44.54875490146272" lon="8.180313032521772"><ele>566.0</ele><time>2026-04-19T13:00:44Z</time></trkpt><trkpt lat="44.54883858561421" lon="8.18053059769398"><ele>568.3333333333333</ele><time>2026-04-19T13:00:45Z</time></trkpt><trkpt lat="44.54890900484411" lon="8.180786891654273"><ele>570.6666666666666</ele><time>2026-04-19T13:00:46Z</time></trkpt><trkpt lat="44.54901334232576" lon="8.181053214679446"><ele>573.0</ele><time>2026-04-19T13:00:47Z</time></trkpt><trkpt lat="44.549108663436435" lon="8.181345553173644"><ele>578.5</ele><time>2026-04-19T13:00:48Z</time></trkpt><trkpt lat="44.549210704315996" lon="8.18165624448274"><ele>584.0</ele><time>2026-04-19T13:00:49Z</time></trkpt><trkpt lat="44.549318462886895" lon="8.181981259304198"><ele>584.0</ele><time>2026-04-19T13:00:50Z</time></trkpt><trkpt lat="44.5494290208171" lon="8.182319757395186"><ele>584.0</ele><time>2026-04-19T13:00:51Z</time></trkpt><trkpt lat="44.549543287748406" lon="8.182668643266648"><ele>584.0</ele><time>2026-04-19T13:00:52Z</time></trkpt><trkpt lat="44.549656921480974" lon="8.183016026756935"><ele>584.0</ele><time>2026-04-19T13:00:53Z</time></trkpt><trkpt lat="44.54975969044554" lon="8.183331092101229"><ele>584.0</ele><time>2026-04-19T13:00:54Z</time></trkpt><trkpt lat="44.54985224567807" lon="8.183612791602213"><ele>584.0</ele><time>2026-04-19T13:00:55Z</time></trkpt><trkpt lat="44.549937655558814" lon="8.183858208103072"><ele>584.0</ele><time>2026-04-19T13:00:56Z</time></trkpt><trkpt lat="44.550034635507934" lon="8.184125206921284"><ele>586.6666666666666</ele><time>2026-04-19T13:00:57Z</time></trkpt><trkpt lat="44.55013759506948" lon="8.184398464860923"><ele>589.3333333333334</ele><time>2026-04-19T13:00:58Z</time></trkpt><trkpt lat="44.55025080492002" lon="8.184674945087156"><ele>592.0</ele><time>2026-04-19T13:00:59Z</time></trkpt><trkpt lat="44.55036993374491" lon="8.18493681760373"><ele>590.0</ele><time>2026-04-19T13:01:00Z</time></trkpt><trkpt lat="44.55049081096498" lon="8.18516053569575"><ele>588.0</ele><time>2026-04-19T13:01:01Z</time></trkpt><trkpt lat="44.5506173018922" lon="8.185354172169212"><ele>586.0</ele><time>2026-04-19T13:01:02Z</time></trkpt><trkpt lat="44.55074006744623" lon="8.185522199668517"><ele>586.0</ele><time>2026-04-19T13:01:03Z</time></trkpt><trkpt lat="44.55084869153012" lon="8.185661868514108"><ele>586.0</ele><time>2026-04-19T13:01:04Z</time></trkpt><trkpt lat="44.550923001714615" lon="8.185792955469598"><ele>586.0</ele><time>2026-04-19T13:01:05Z</time></trkpt><trkpt lat="44.55098249344738" lon="8.185891991566884"><ele>586.0</ele><time>2026-04-19T13:01:06Z</time></trkpt><trkpt lat="44.55102783538963" lon="8.1859724735873"><ele>586.0</ele><time>2026-04-19T13:01:07Z</time></trkpt><trkpt lat="44.551017440342086" lon="8.186074564224466"><ele>587.6666666666667</ele><time>2026-04-19T13:01:08Z</time></trkpt><trkpt lat="44.55097092662365" lon="8.186149630736665"><ele>589.3333333333334</ele><time>2026-04-19T13:01:09Z</time></trkpt><trkpt lat="44.5509022007971" lon="8.186181443190655"><ele>591.0</ele><time>2026-04-19T13:01:10Z</time></trkpt><trkpt lat="44.55083651429424" lon="8.186126164927051"><ele>592.6666666666666</ele><time>2026-04-19T13:01:11Z</time></trkpt><trkpt lat="44.55076932812651" lon="8.186064166900064"><ele>594.3333333333333</ele><time>2026-04-19T13:01:12Z</time></trkpt><trkpt lat="44.55067406773339" lon="8.18600665122911"><ele>596.0</ele><time>2026-04-19T13:01:13Z</time></trkpt><trkpt lat="44.550575325024006" lon="8.185908403580417"><ele>596.0</ele><time>2026-04-19T13:01:14Z</time></trkpt><trkpt lat="44.55045591273365" lon="8.185804684199145"><ele>596.0</ele><time>2026-04-19T13:01:15Z</time></trkpt><trkpt lat="44.550319287869065" lon="8.185692422799262"><ele>596.0</ele><time>2026-04-19T13:01:16Z</time></trkpt><trkpt lat="44.55017189000902" lon="8.185565319454874"><ele>597.6666666666666</ele><time>2026-04-19T13:01:17Z</time></trkpt><trkpt lat="44.550015084134515" lon="8.185426535856335"><ele>599.3333333333334</ele><time>2026-04-19T13:01:18Z</time></trkpt><trkpt lat="44.54984613250134" lon="8.185276606257508"><ele>601.0</ele><time>2026-04-19T13:01:19Z</time></trkpt><trkpt lat="44.54966745265422" lon="8.185118867324038"><ele>603.0</ele><time>2026-04-19T13:01:20Z</time></trkpt><trkpt lat="44.54948571630372" lon="8.184961107358452"><ele>605.0</ele><time>2026-04-19T13:01:21Z</time></trkpt><trkpt lat="44.549320582847145" lon="8.184817780315104"><ele>607.0</ele><time>2026-04-19T13:01:22Z</time></trkpt><trkpt lat="44.54917054079637" lon="8.184673196650252"><ele>607.0</ele><time>2026-04-19T13:01:23Z</time></trkpt><trkpt lat="44.549051761758264" lon="8.18452881679614"><ele>607.0</ele><time>2026-04-19T13:01:24Z</time></trkpt><trkpt lat="44.54896001751894" lon="8.184402563176754"><ele>607.0</ele><time>2026-04-19T13:01:25Z</time></trkpt><trkpt lat="44.548832018821415" lon="8.184202039955611"><ele>607.0</ele><time>2026-04-19T13:01:27Z</time></trkpt><trkpt lat="44.548786923342696" lon="8.184115146456419"><ele>607.0</ele><time>2026-04-19T13:01:28Z</time></trkpt><trkpt lat="44.548742785494866" lon="8.183989077878655"><ele>607.0</ele><time>2026-04-19T13:01:30Z</time></trkpt><trkpt lat="44.54870254525482" lon="8.183918764605297"><ele>607.0</ele><time>2026-04-19T13:01:32Z</time></trkpt><trkpt lat="44.54863825918572" lon="8.183884719394461"><ele>607.0</ele><time>2026-04-19T13:01:41Z</time></trkpt><trkpt lat="44.54854988198935" lon="8.183883288464136"><ele>607.0</ele><time>2026-04-19T13:01:43Z</time></trkpt><trkpt lat="44.548443702669665" lon="8.183802030328376"><ele>608.5</ele><time>2026-04-19T13:01:45Z</time></trkpt><trkpt lat="44.54838752967285" lon="8.183723414789709"><ele>610.0</ele><time>2026-04-19T13:01:46Z</time></trkpt><trkpt lat="44.548310532333375" lon="8.183641397510433"><ele>611.5</ele><time>2026-04-19T13:01:47Z</time></trkpt><trkpt lat="44.548240842157604" lon="8.18356615579232"><ele>613.0</ele><time>2026-04-19T13:01:48Z</time></trkpt><trkpt lat="44.54817875600002" lon="8.183498708805287"><ele>614.5</ele><time>2026-04-19T13:01:49Z</time></trkpt><trkpt lat="44.54812274800314" lon="8.183448391800463"><ele>616.0</ele><time>2026-04-19T13:01:50Z</time></trkpt><trkpt lat="44.548044498252814" lon="8.183397577790384"><ele>616.0</ele><time>2026-04-19T13:01:52Z</time></trkpt><trkpt lat="44.54797990104097" lon="8.183398575069944"><ele>616.0</ele><time>2026-04-19T13:01:54Z</time></trkpt><trkpt lat="44.54791668591458" lon="8.183454182989038"><ele>616.0</ele><time>2026-04-19T13:01:57Z</time></trkpt><trkpt lat="44.54785321726795" lon="8.18351809348094"><ele>616.0</ele><time>2026-04-19T13:02:01Z</time></trkpt><trkpt lat="44.54781115154198" lon="8.18360284254867"><ele>616.0</ele><time>2026-04-19T13:02:21.999Z</time></trkpt><trkpt lat="44.547768109360014" lon="8.183727294745541"><ele>616.0</ele><time>2026-04-19T13:02:23.999Z</time></trkpt><trkpt lat="44.54776521164943" lon="8.183890307731795"><ele>616.3333333333334</ele><time>2026-04-19T13:02:25.999Z</time></trkpt><trkpt lat="44.54774424601374" lon="8.18397508889783"><ele>616.6666666666667</ele><time>2026-04-19T13:02:26.999Z</time></trkpt><trkpt lat="44.54773963947038" lon="8.184069808557528"><ele>617.0</ele><time>2026-04-19T13:02:27.999Z</time></trkpt><trkpt lat="44.54773580990089" lon="8.18416879588547"><ele>617.3333333333334</ele><time>2026-04-19T13:02:28.999Z</time></trkpt><trkpt lat="44.54773264946684" lon="8.184276466491893"><ele>617.6666666666666</ele><time>2026-04-19T13:02:29.998Z</time></trkpt><trkpt lat="44.547738367408634" lon="8.184397558874815"><ele>618.0</ele><time>2026-04-19T13:02:30.998Z</time></trkpt><trkpt lat="44.54770714846674" lon="8.184519090348592"><ele>616.1999999999999</ele><time>2026-04-19T13:02:31.998Z</time></trkpt><trkpt lat="44.54768148627652" lon="8.184651387864536"><ele>614.4</ele><time>2026-04-19T13:02:32.998Z</time></trkpt><trkpt lat="44.54764709325874" lon="8.184785514789926"><ele>612.5999999999999</ele><time>2026-04-19T13:02:33.998Z</time></trkpt><trkpt lat="44.547604018899264" lon="8.184918405700655"><ele>610.8</ele><time>2026-04-19T13:02:34.998Z</time></trkpt><trkpt lat="44.5475563258028" lon="8.185050339496104"><ele>609.0</ele><time>2026-04-19T13:02:35.998Z</time></trkpt><trkpt lat="44.54751175057549" lon="8.185183297683034"><ele>608.2</ele><time>2026-04-19T13:02:36.998Z</time></trkpt><trkpt lat="44.54745399345946" lon="8.185304531412742"><ele>607.4</ele><time>2026-04-19T13:02:37.998Z</time></trkpt><trkpt lat="44.54739357468474" lon="8.185420764891873"><ele>606.6</ele><time>2026-04-19T13:02:38.998Z</time></trkpt><trkpt lat="44.54732893538046" lon="8.18553596813902"><ele>605.8</ele><time>2026-04-19T13:02:39.998Z</time></trkpt><trkpt lat="44.547265479944635" lon="8.185640666014878"><ele>605.0</ele><time>2026-04-19T13:02:40.998Z</time></trkpt><trkpt lat="44.547205456691024" lon="8.185741755985218"><ele>605.0</ele><time>2026-04-19T13:02:41.998Z</time></trkpt><trkpt lat="44.54715051551896" lon="8.185827259394772"><ele>605.0</ele><time>2026-04-19T13:02:42.998Z</time></trkpt><trkpt lat="44.54709444551192" lon="8.18596323355367"><ele>605.0</ele><time>2026-04-19T13:02:44.998Z</time></trkpt><trkpt lat="44.54711669975342" lon="8.186154308181049"><ele>605.0</ele><time>2026-04-19T13:02:46.998Z</time></trkpt><trkpt lat="44.54713406879064" lon="8.186272926248046"><ele>605.0</ele><time>2026-04-19T13:02:47.998Z</time></trkpt><trkpt lat="44.547139393515835" lon="8.186395280481477"><ele>606.0</ele><time>2026-04-19T13:02:48.998Z</time></trkpt><trkpt lat="44.547129516677956" lon="8.186514678310905"><ele>607.0</ele><time>2026-04-19T13:02:49.998Z</time></trkpt><trkpt lat="44.54710535371867" lon="8.186627716158227"><ele>608.0</ele><time>2026-04-19T13:02:50.998Z</time></trkpt><trkpt lat="44.54706085641925" lon="8.186727556554166"><ele>609.0</ele><time>2026-04-19T13:02:51.998Z</time></trkpt><trkpt lat="44.547002075613484" lon="8.186818350464051"><ele>610.0</ele><time>2026-04-19T13:02:52.998Z</time></trkpt><trkpt lat="44.54693545937937" lon="8.186913606068316"><ele>611.0</ele><time>2026-04-19T13:02:53.998Z</time></trkpt><trkpt lat="44.5468712622307" lon="8.187011306459333"><ele>604.8333333333333</ele><time>2026-04-19T13:02:54.998Z</time></trkpt><trkpt lat="44.54681544928053" lon="8.187095973729765"><ele>598.6666666666666</ele><time>2026-04-19T13:02:55.998Z</time></trkpt><trkpt lat="44.546786172767085" lon="8.187176635931143"><ele>592.5</ele><time>2026-04-19T13:02:56.998Z</time></trkpt><trkpt lat="44.546728951622406" lon="8.18726677809825"><ele>586.3333333333334</ele><time>2026-04-19T13:02:58.998Z</time></trkpt><trkpt lat="44.54666268603098" lon="8.187284049466312"><ele>580.1666666666667</ele><time>2026-04-19T13:03:01.998Z</time></trkpt><trkpt lat="44.54668850879284" lon="8.187147674854941"><ele>574.0</ele><time>2026-04-19T13:03:03.998Z</time></trkpt><trkpt lat="44.54673333009005" lon="8.186967408922555"><ele>574.0</ele><time>2026-04-19T13:03:05.998Z</time></trkpt><trkpt lat="44.546777793935476" lon="8.186853958748893"><ele>574.0</ele><time>2026-04-19T13:03:06.998Z</time></trkpt><trkpt lat="44.546810230446894" lon="8.186728293247938"><ele>574.0</ele><time>2026-04-19T13:03:07.998Z</time></trkpt><trkpt lat="44.5468237215214" lon="8.186595139688551"><ele>574.0</ele><time>2026-04-19T13:03:08.998Z</time></trkpt><trkpt lat="44.546814100401015" lon="8.186460239721441"><ele>574.0</ele><time>2026-04-19T13:03:09.998Z</time></trkpt><trkpt lat="44.54680590939092" lon="8.186320194065095"><ele>573.6</ele><time>2026-04-19T13:03:10.998Z</time></trkpt><trkpt lat="44.54675624727566" lon="8.186189831189306"><ele>573.2</ele><time>2026-04-19T13:03:11.998Z</time></trkpt><trkpt lat="44.54666413193328" lon="8.186097704843618"><ele>572.8000000000001</ele><time>2026-04-19T13:03:12.998Z</time></trkpt><trkpt lat="44.5465879916382" lon="8.186021263635928"><ele>572.4</ele><time>2026-04-19T13:03:13.998Z</time></trkpt><trkpt lat="44.54652041621573" lon="8.185958471762703"><ele>572.0</ele><time>2026-04-19T13:03:14.998Z</time></trkpt><trkpt lat="44.54644455605718" lon="8.185851464898056"><ele>572.0</ele><time>2026-04-19T13:03:16.998Z</time></trkpt><trkpt lat="44.546463096857984" lon="8.185743145937026"><ele>572.0</ele><time>2026-04-19T13:03:18.999Z</time></trkpt><trkpt lat="44.54654694544416" lon="8.185606216418943"><ele>572.0</ele><time>2026-04-19T13:03:20.999Z</time></trkpt><trkpt lat="44.54659854455758" lon="8.185536358841466"><ele>572.0</ele><time>2026-04-19T13:03:21.999Z</time></trkpt><trkpt lat="44.54663634843565" lon="8.18545105755647"><ele>572.0</ele><time>2026-04-19T13:03:22.999Z</time></trkpt><trkpt lat="44.546676280184656" lon="8.185351296133605"><ele>572.0</ele><time>2026-04-19T13:03:23.999Z</time></trkpt><trkpt lat="44.54665919990549" lon="8.185216964471591"><ele>571.6</ele><time>2026-04-19T13:03:24.999Z</time></trkpt><trkpt lat="44.546659180383315" lon="8.185075186693037"><ele>571.2</ele><time>2026-04-19T13:03:25.999Z</time></trkpt><trkpt lat="44.546624629978666" lon="8.184937031548495"><ele>570.8</ele><time>2026-04-19T13:03:26.999Z</time></trkpt><trkpt lat="44.54658309770369" lon="8.1848166652416"><ele>570.4</ele><time>2026-04-19T13:03:27.999Z</time></trkpt><trkpt lat="44.546538659628354" lon="8.184704362353378"><ele>570.0</ele><time>2026-04-19T13:03:28.999Z</time></trkpt><trkpt lat="44.54649182721721" lon="8.184593757341267"><ele>568.8</ele><time>2026-04-19T13:03:29.999Z</time></trkpt><trkpt lat="44.54643735408755" lon="8.184490062397217"><ele>567.6</ele><time>2026-04-19T13:03:30.999Z</time></trkpt><trkpt lat="44.54636678949609" lon="8.184403229118345"><ele>566.4</ele><time>2026-04-19T13:03:31.999Z</time></trkpt><trkpt lat="44.54628827289992" lon="8.184330327587272"><ele>565.2</ele><time>2026-04-19T13:03:32.999Z</time></trkpt><trkpt lat="44.54620646452199" lon="8.184269808239627"><ele>564.0</ele><time>2026-04-19T13:03:33.999Z</time></trkpt><trkpt lat="44.546121588322634" lon="8.184222088498828"><ele>564.0</ele><time>2026-04-19T13:03:34.999Z</time></trkpt><trkpt lat="44.54603402664376" lon="8.184180983220218"><ele>564.0</ele><time>2026-04-19T13:03:35.999Z</time></trkpt><trkpt lat="44.54594463876656" lon="8.18415683864028"><ele>564.0</ele><time>2026-04-19T13:03:36.999Z</time></trkpt><trkpt lat="44.545845323150864" lon="8.184148102783613"><ele>564.0</ele><time>2026-04-19T13:03:37.999Z</time></trkpt><trkpt lat="44.54574405870425" lon="8.184161965296543"><ele>564.0</ele><time>2026-04-19T13:03:38.999Z</time></trkpt><trkpt lat="44.545652362113884" lon="8.184176688039642"><ele>564.0</ele><time>2026-04-19T13:03:39.999Z</time></trkpt><trkpt lat="44.545561217524536" lon="8.184196064983048"><ele>564.0</ele><time>2026-04-19T13:03:40.999Z</time></trkpt><trkpt lat="44.54547075008876" lon="8.184216725561992"><ele>564.0</ele><time>2026-04-19T13:03:41.999Z</time></trkpt><trkpt lat="44.54537944006787" lon="8.1842379739398"><ele>564.0</ele><time>2026-04-19T13:03:42.999Z</time></trkpt><trkpt lat="44.545285663043565" lon="8.18425480739294"><ele>564.0</ele><time>2026-04-19T13:03:43.999Z</time></trkpt><trkpt lat="44.54519019248665" lon="8.184279478036249"><ele>561.6666666666666</ele><time>2026-04-19T13:03:44.999Z</time></trkpt><trkpt lat="44.54510735188926" lon="8.184321551370413"><ele>559.3333333333334</ele><time>2026-04-19T13:03:45.999Z</time></trkpt><trkpt lat="44.54502773535712" lon="8.184350067859036"><ele>557.0</ele><time>2026-04-19T13:03:46.999Z</time></trkpt><trkpt lat="44.54495217057456" lon="8.18436356738777"><ele>554.6666666666667</ele><time>2026-04-19T13:03:47.999Z</time></trkpt><trkpt lat="44.5448869594894" lon="8.184349634042404"><ele>552.3333333333334</ele><time>2026-04-19T13:03:48.999Z</time></trkpt><trkpt lat="44.54481753869063" lon="8.184332494406418"><ele>550.0</ele><time>2026-04-19T13:03:49.999Z</time></trkpt><trkpt lat="44.54475219519329" lon="8.184274939191356"><ele>550.0</ele><time>2026-04-19T13:03:50.999Z</time></trkpt><trkpt lat="44.54469422573495" lon="8.184184489886755"><ele>550.0</ele><time>2026-04-19T13:03:51.999Z</time></trkpt><trkpt lat="44.544621641940424" lon="8.18410501909494"><ele>550.0</ele><time>2026-04-19T13:03:52.998Z</time></trkpt><trkpt lat="44.544549998011085" lon="8.184028890296672"><ele>550.0</ele><time>2026-04-19T13:03:53.998Z</time></trkpt><trkpt lat="44.54447664312686" lon="8.183953645287353"><ele>550.0</ele><time>2026-04-19T13:03:54.998Z</time></trkpt><trkpt lat="44.54440210796933" lon="8.183885602592165"><ele>550.0</ele><time>2026-04-19T13:03:55.998Z</time></trkpt><trkpt lat="44.544333353222044" lon="8.183826375545081"><ele>551.3333333333334</ele><time>2026-04-19T13:03:56.998Z</time></trkpt><trkpt lat="44.54427264004307" lon="8.183782400976853"><ele>552.6666666666667</ele><time>2026-04-19T13:03:57.999Z</time></trkpt><trkpt lat="44.54420942139656" lon="8.183755329401915"><ele>554.0</ele><time>2026-04-19T13:03:58.999Z</time></trkpt><trkpt lat="44.544135244356234" lon="8.18378274469406"><ele>555.3333333333334</ele><time>2026-04-19T13:03:59.999Z</time></trkpt><trkpt lat="44.54409126434263" lon="8.183891378371143"><ele>556.6666666666666</ele><time>2026-04-19T13:04:00.999Z</time></trkpt><trkpt lat="44.54406551935667" lon="8.18399359057519"><ele>558.0</ele><time>2026-04-19T13:04:01.999Z</time></trkpt><trkpt lat="44.544034932980374" lon="8.184113452346752"><ele>553.8</ele><time>2026-04-19T13:04:02.999Z</time></trkpt><trkpt lat="44.54400158345836" lon="8.184255553698607"><ele>549.5999999999999</ele><time>2026-04-19T13:04:03.999Z</time></trkpt><trkpt lat="44.54397193530313" lon="8.184406294227141"><ele>545.4000000000001</ele><time>2026-04-19T13:04:04.999Z</time></trkpt><trkpt lat="44.54395873181678" lon="8.184562856800461"><ele>541.2</ele><time>2026-04-19T13:04:05.999Z</time></trkpt><trkpt lat="44.543965553149214" lon="8.18470287510355"><ele>537.0</ele><time>2026-04-19T13:04:06.999Z</time></trkpt><trkpt lat="44.54395847384506" lon="8.184805825862835"><ele>537.8333333333334</ele><time>2026-04-19T13:04:07.999Z</time></trkpt><trkpt lat="44.54387868253023" lon="8.184923210870059"><ele>538.6666666666666</ele><time>2026-04-19T13:04:09.999Z</time></trkpt><trkpt lat="44.54383109768763" lon="8.184999254970982"><ele>539.5</ele><time>2026-04-19T13:04:10.999Z</time></trkpt><trkpt lat="44.543779479678214" lon="8.185084006992973"><ele>540.3333333333333</ele><time>2026-04-19T13:04:11.999Z</time></trkpt><trkpt lat="44.543733285758506" lon="8.185167078055514"><ele>541.1666666666666</ele><time>2026-04-19T13:04:13Z</time></trkpt><trkpt lat="44.54368986219392" lon="8.185247569564087"><ele>542.0</ele><time>2026-04-19T13:04:14Z</time></trkpt><trkpt lat="44.54364723294284" lon="8.18532663508008"><ele>542.0</ele><time>2026-04-19T13:04:15Z</time></trkpt><trkpt lat="44.54360707808124" lon="8.185396174428424"><ele>542.0</ele><time>2026-04-19T13:04:16Z</time></trkpt><trkpt lat="44.54350155173277" lon="8.185507361350698"><ele>542.0</ele><time>2026-04-19T13:04:18Z</time></trkpt><trkpt lat="44.54341656579739" lon="8.185563612309446"><ele>542.0</ele><time>2026-04-19T13:04:19Z</time></trkpt><trkpt lat="44.543317659058424" lon="8.185629077255747"><ele>542.0</ele><time>2026-04-19T13:04:20Z</time></trkpt><trkpt lat="44.54320575940255" lon="8.185703142032189"><ele>537.8000000000001</ele><time>2026-04-19T13:04:21Z</time></trkpt><trkpt lat="44.54309864179242" lon="8.185774041630745"><ele>533.6</ele><time>2026-04-19T13:04:22Z</time></trkpt><trkpt lat="44.543000175802945" lon="8.18584013689948"><ele>529.4000000000001</ele><time>2026-04-19T13:04:23Z</time></trkpt><trkpt lat="44.54292016441037" lon="8.18592829140308"><ele>525.2</ele><time>2026-04-19T13:04:24Z</time></trkpt><trkpt lat="44.54283815142767" lon="8.185982660090312"><ele>521.0</ele><time>2026-04-19T13:04:25Z</time></trkpt><trkpt lat="44.542763886357385" lon="8.185990796342194"><ele>521.0</ele><time>2026-04-19T13:04:26Z</time></trkpt><trkpt lat="44.54268579146229" lon="8.1859710866276"><ele>521.0</ele><time>2026-04-19T13:04:27Z</time></trkpt><trkpt lat="44.542614317341034" lon="8.185919796089639"><ele>521.0</ele><time>2026-04-19T13:04:28Z</time></trkpt><trkpt lat="44.54254715251856" lon="8.18588159568877"><ele>521.0</ele><time>2026-04-19T13:04:29Z</time></trkpt><trkpt lat="44.54242216288331" lon="8.185897614977689"><ele>521.0</ele><time>2026-04-19T13:04:31Z</time></trkpt><trkpt lat="44.54237992800697" lon="8.18596561516255"><ele>521.0</ele><time>2026-04-19T13:04:32Z</time></trkpt><trkpt lat="44.542357727027856" lon="8.186060191713334"><ele>521.0</ele><time>2026-04-19T13:04:33Z</time></trkpt><trkpt lat="44.54241870816818" lon="8.186174458886736"><ele>521.0</ele><time>2026-04-19T13:04:34Z</time></trkpt><trkpt lat="44.54252094265282" lon="8.186139406381749"><ele>521.0</ele><time>2026-04-19T13:04:35Z</time></trkpt><trkpt lat="44.54258765418974" lon="8.186146521023385"><ele>521.0</ele><time>2026-04-19T13:04:36Z</time></trkpt><trkpt lat="44.54266339215017" lon="8.186166705484903"><ele>521.0</ele><time>2026-04-19T13:04:37Z</time></trkpt><trkpt lat="44.54275621617912" lon="8.186192965587242"><ele>521.0</ele><time>2026-04-19T13:04:38Z</time></trkpt><trkpt lat="44.54285890893403" lon="8.186205441224125"><ele>517.75</ele><time>2026-04-19T13:04:39Z</time></trkpt><trkpt lat="44.54297800531695" lon="8.186192586589788"><ele>514.5</ele><time>2026-04-19T13:04:40Z</time></trkpt><trkpt lat="44.543110893634434" lon="8.186172349663545"><ele>511.25</ele><time>2026-04-19T13:04:41Z</time></trkpt><trkpt lat="44.5432532885938" lon="8.186159205712638"><ele>508.0</ele><time>2026-04-19T13:04:42Z</time></trkpt><trkpt lat="44.54338988462055" lon="8.186140947090426"><ele>508.0</ele><time>2026-04-19T13:04:43Z</time></trkpt><trkpt lat="44.54352350397299" lon="8.18612591699169"><ele>507.99999999999994</ele><time>2026-04-19T13:04:44Z</time></trkpt><trkpt lat="44.54363995436311" lon="8.186114516336513"><ele>507.99999999999994</ele><time>2026-04-19T13:04:45Z</time></trkpt><trkpt lat="44.543738076849166" lon="8.186105673664526"><ele>508.0</ele><time>2026-04-19T13:04:46Z</time></trkpt><trkpt lat="44.54382475313568" lon="8.186094159752596"><ele>508.0</ele><time>2026-04-19T13:04:47Z</time></trkpt><trkpt lat="44.54389613074267" lon="8.186076144390219"><ele>508.00000000000006</ele><time>2026-04-19T13:04:48Z</time></trkpt><trkpt lat="44.543963757867324" lon="8.186116655169439"><ele>508.0</ele><time>2026-04-19T13:04:50Z</time></trkpt><trkpt lat="44.543928390759405" lon="8.186200519630505"><ele>508.0</ele><time>2026-04-19T13:04:54Z</time></trkpt><trkpt lat="44.54380701785974" lon="8.18616856721377"><ele>508.0</ele><time>2026-04-19T13:04:56Z</time></trkpt><trkpt lat="44.54372579900284" lon="8.18617811462693"><ele>508.00000000000006</ele><time>2026-04-19T13:04:57Z</time></trkpt><trkpt lat="44.543629546061105" lon="8.186204824096295"><ele>508.0</ele><time>2026-04-19T13:04:58Z</time></trkpt><trkpt lat="44.54351714913171" lon="8.186252215736697"><ele>508.0</ele><time>2026-04-19T13:04:59Z</time></trkpt><trkpt lat="44.54340020124791" lon="8.186349572397537"><ele>508.0</ele><time>2026-04-19T13:05:00Z</time></trkpt><trkpt lat="44.54327136095712" lon="8.18639101949434"><ele>508.0</ele><time>2026-04-19T13:05:01Z</time></trkpt><trkpt lat="44.543151404885485" lon="8.186438267967345"><ele>508.0</ele><time>2026-04-19T13:05:02Z</time></trkpt><trkpt lat="44.543031436542385" lon="8.186487367162211"><ele>501.75</ele><time>2026-04-19T13:05:03Z</time></trkpt><trkpt lat="44.542913629742166" lon="8.186546875236669"><ele>495.5</ele><time>2026-04-19T13:05:04Z</time></trkpt><trkpt lat="44.54279704911025" lon="8.186610705343915"><ele>489.25</ele><time>2026-04-19T13:05:05Z</time></trkpt><trkpt lat="44.542683586395555" lon="8.186677191482902"><ele>483.0</ele><time>2026-04-19T13:05:06Z</time></trkpt><trkpt lat="44.54256698984521" lon="8.186745513970688"><ele>483.0</ele><time>2026-04-19T13:05:07Z</time></trkpt><trkpt lat="44.5424500346065" lon="8.186812030350533"><ele>483.0</ele><time>2026-04-19T13:05:08Z</time></trkpt><trkpt lat="44.542334078324515" lon="8.186870295076396"><ele>483.0</ele><time>2026-04-19T13:05:09Z</time></trkpt><trkpt lat="44.542216449051985" lon="8.186918716010826"><ele>483.0</ele><time>2026-04-19T13:05:10Z</time></trkpt><trkpt lat="44.5421010663509" lon="8.186958330244769"><ele>486.59999999999997</ele><time>2026-04-19T13:05:11Z</time></trkpt><trkpt lat="44.54199359045122" lon="8.187041467755078"><ele>490.19999999999993</ele><time>2026-04-19T13:05:12Z</time></trkpt><trkpt lat="44.541912177527195" lon="8.187130387424698"><ele>493.8</ele><time>2026-04-19T13:05:13Z</time></trkpt><trkpt lat="44.54182182591797" lon="8.187212363683214"><ele>497.4</ele><time>2026-04-19T13:05:14Z</time></trkpt><trkpt lat="44.54172563193628" lon="8.187277520157483"><ele>501.0</ele><time>2026-04-19T13:05:15Z</time></trkpt><trkpt lat="44.541630014695535" lon="8.187359003356466"><ele>495.25</ele><time>2026-04-19T13:05:16Z</time></trkpt><trkpt lat="44.5415275715373" lon="8.187446303498499"><ele>489.5</ele><time>2026-04-19T13:05:17Z</time></trkpt><trkpt lat="44.54141993917715" lon="8.18753371069729"><ele>483.75</ele><time>2026-04-19T13:05:18Z</time></trkpt><trkpt lat="44.54130773299075" lon="8.187622050018462"><ele>478.0</ele><time>2026-04-19T13:05:19Z</time></trkpt><trkpt lat="44.54119221750107" lon="8.1877110429265"><ele>478.0</ele><time>2026-04-19T13:05:20Z</time></trkpt><trkpt lat="44.54107853378163" lon="8.187797925326537"><ele>478.0</ele><time>2026-04-19T13:05:21Z</time></trkpt><trkpt lat="44.540968679862935" lon="8.18788270561476"><ele>478.0</ele><time>2026-04-19T13:05:22.001Z</time></trkpt><trkpt lat="44.54087158404882" lon="8.187959883081957"><ele>478.0</ele><time>2026-04-19T13:05:23.001Z</time></trkpt><trkpt lat="44.54078985963435" lon="8.188028995215808"><ele>478.0</ele><time>2026-04-19T13:05:24.001Z</time></trkpt><trkpt lat="44.54072554607094" lon="8.188092964100592"><ele>477.99999999999994</ele><time>2026-04-19T13:05:25.001Z</time></trkpt><trkpt lat="44.540671911396025" lon="8.188185201175232"><ele>477.99999999999994</ele><time>2026-04-19T13:05:27.001Z</time></trkpt><trkpt lat="44.54065574149265" lon="8.188285894607784"><ele>478.0</ele><time>2026-04-19T13:05:29.001Z</time></trkpt><trkpt lat="44.54074114250862" lon="8.188290701765514"><ele>478.0</ele><time>2026-04-19T13:05:30.001Z</time></trkpt><trkpt lat="44.54086804292506" lon="8.188249420021966"><ele>478.0</ele><time>2026-04-19T13:05:32.001Z</time></trkpt><trkpt lat="44.54095698734078" lon="8.188215797617046"><ele>478.0</ele><time>2026-04-19T13:05:33.001Z</time></trkpt><trkpt lat="44.541071229419906" lon="8.188171947493451"><ele>478.0</ele><time>2026-04-19T13:05:34.001Z</time></trkpt><trkpt lat="44.54119241091442" lon="8.188124391724505"><ele>478.0</ele><time>2026-04-19T13:05:35.001Z</time></trkpt><trkpt lat="44.54130924172235" lon="8.188078543325231"><ele>474.0</ele><time>2026-04-19T13:05:36.001Z</time></trkpt><trkpt lat="44.54141547349238" lon="8.18803254644785"><ele>469.99999999999994</ele><time>2026-04-19T13:05:37.001Z</time></trkpt><trkpt lat="44.541503885924655" lon="8.187970469732045"><ele>465.99999999999994</ele><time>2026-04-19T13:05:38.001Z</time></trkpt><trkpt lat="44.54158812926133" lon="8.18795665165719"><ele>462.0</ele><time>2026-04-19T13:05:39.001Z</time></trkpt><trkpt lat="44.541658681591485" lon="8.18795388290144"><ele>458.0</ele><time>2026-04-19T13:05:40.001Z</time></trkpt><trkpt lat="44.541752772530735" lon="8.187925564419894"><ele>457.99999999999994</ele><time>2026-04-19T13:05:42.001Z</time></trkpt><trkpt lat="44.54181405766688" lon="8.187888445470806"><ele>458.0</ele><time>2026-04-19T13:05:44.001Z</time></trkpt><trkpt lat="44.541762445217024" lon="8.188003644866303"><ele>458.0</ele><time>2026-04-19T13:05:46.001Z</time></trkpt><trkpt lat="44.54168967088013" lon="8.18810663526392"><ele>458.0</ele><time>2026-04-19T13:05:48.001Z</time></trkpt><trkpt lat="44.541627550681895" lon="8.188149244653768"><ele>457.99999999999994</ele><time>2026-04-19T13:05:49.001Z</time></trkpt><trkpt lat="44.5415462099551" lon="8.188210372664578"><ele>458.0</ele><time>2026-04-19T13:05:50.001Z</time></trkpt><trkpt lat="44.54144763307051" lon="8.188280516180097"><ele>453.25</ele><time>2026-04-19T13:05:51.001Z</time></trkpt><trkpt lat="44.54133394278509" lon="8.188364723135127"><ele>448.5</ele><time>2026-04-19T13:05:52.001Z</time></trkpt><trkpt lat="44.54122026067415" lon="8.188450472207757"><ele>443.75</ele><time>2026-04-19T13:05:53.001Z</time></trkpt><trkpt lat="44.54111169355536" lon="8.18853432371772"><ele>439.0</ele><time>2026-04-19T13:05:54.001Z</time></trkpt><trkpt lat="44.54100865486007" lon="8.188611332801061"><ele>439.0</ele><time>2026-04-19T13:05:55.001Z</time></trkpt><trkpt lat="44.5409015845037" lon="8.188679783280104"><ele>439.0</ele><time>2026-04-19T13:05:56.001Z</time></trkpt><trkpt lat="44.540806607293135" lon="8.18877534110541"><ele>439.0</ele><time>2026-04-19T13:05:57.001Z</time></trkpt><trkpt lat="44.54071532466624" lon="8.188879124618069"><ele>439.0</ele><time>2026-04-19T13:05:58.001Z</time></trkpt><trkpt lat="44.54062730073623" lon="8.188988419056193"><ele>437.0</ele><time>2026-04-19T13:05:59Z</time></trkpt><trkpt lat="44.54054071569081" lon="8.189096101918414"><ele>435.0</ele><time>2026-04-19T13:06:00Z</time></trkpt><trkpt lat="44.54046168775212" lon="8.189207217115117"><ele>433.0</ele><time>2026-04-19T13:06:01Z</time></trkpt><trkpt lat="44.540392265086425" lon="8.189331291455984"><ele>431.0</ele><time>2026-04-19T13:06:02Z</time></trkpt><trkpt lat="44.540332251545095" lon="8.189456625534998"><ele>429.0</ele><time>2026-04-19T13:06:03Z</time></trkpt><trkpt lat="44.540274308085024" lon="8.189583264477987"><ele>429.0</ele><time>2026-04-19T13:06:04Z</time></trkpt><trkpt lat="44.54021682671014" lon="8.18971942558416"><ele>429.0</ele><time>2026-04-19T13:06:05Z</time></trkpt><trkpt lat="44.54017265455364" lon="8.189862046714953"><ele>429.0</ele><time>2026-04-19T13:06:06Z</time></trkpt><trkpt lat="44.540140486350204" lon="8.190007569908957"><ele>429.0</ele><time>2026-04-19T13:06:07Z</time></trkpt><trkpt lat="44.540123728109506" lon="8.190156071243054"><ele>429.0</ele><time>2026-04-19T13:06:08Z</time></trkpt><trkpt lat="44.540118259622595" lon="8.19030421699296"><ele>424.0</ele><time>2026-04-19T13:06:09Z</time></trkpt><trkpt lat="44.54009996226606" lon="8.190450321171282"><ele>419.0</ele><time>2026-04-19T13:06:10Z</time></trkpt><trkpt lat="44.54008602048097" lon="8.190595075291007"><ele>414.0</ele><time>2026-04-19T13:06:11Z</time></trkpt><trkpt lat="44.54008117400504" lon="8.190728777140043"><ele>409.0</ele><time>2026-04-19T13:06:12Z</time></trkpt><trkpt lat="44.54008091686021" lon="8.190841273822624"><ele>404.0</ele><time>2026-04-19T13:06:13Z</time></trkpt><trkpt lat="44.54008540838279" lon="8.190937576234118"><ele>400.16666666666663</ele><time>2026-04-19T13:06:14Z</time></trkpt><trkpt lat="44.54007001959343" lon="8.191080461894213"><ele>396.3333333333333</ele><time>2026-04-19T13:06:16Z</time></trkpt><trkpt lat="44.53997929367232" lon="8.191112608338306"><ele>392.5</ele><time>2026-04-19T13:06:18Z</time></trkpt><trkpt lat="44.53996013901193" lon="8.191023454607073"><ele>388.66666666666663</ele><time>2026-04-19T13:06:19Z</time></trkpt><trkpt lat="44.53989008914283" lon="8.190922005763845"><ele>384.8333333333333</ele><time>2026-04-19T13:06:21Z</time></trkpt><trkpt lat="44.53981279837774" lon="8.190875122195612"><ele>381.0</ele><time>2026-04-19T13:06:23Z</time></trkpt><trkpt lat="44.5397546082103" lon="8.1909621622068"><ele>381.0</ele><time>2026-04-19T13:06:24Z</time></trkpt><trkpt lat="44.539806273890434" lon="8.191083761028501"><ele>381.0</ele><time>2026-04-19T13:06:25Z</time></trkpt><trkpt lat="44.53984884735553" lon="8.19116035666283"><ele>381.0</ele><time>2026-04-19T13:06:26Z</time></trkpt><trkpt lat="44.53989301896545" lon="8.191247790171662"><ele>381.0</ele><time>2026-04-19T13:06:27Z</time></trkpt><trkpt lat="44.53993747271134" lon="8.191353683631155"><ele>381.0</ele><time>2026-04-19T13:06:28Z</time></trkpt><trkpt lat="44.53998060877094" lon="8.191468012320398"><ele>381.0</ele><time>2026-04-19T13:06:29Z</time></trkpt><trkpt lat="44.540003767477856" lon="8.191594598864274"><ele>377.5</ele><time>2026-04-19T13:06:30Z</time></trkpt><trkpt lat="44.540033885258744" lon="8.191718192748123"><ele>374.0</ele><time>2026-04-19T13:06:31Z</time></trkpt><trkpt lat="44.540063269361944" lon="8.191828487328012"><ele>370.5</ele><time>2026-04-19T13:06:32Z</time></trkpt><trkpt lat="44.54009890096081" lon="8.191914871013669"><ele>367.0</ele><time>2026-04-19T13:06:33Z</time></trkpt><trkpt lat="44.540152024080456" lon="8.191971586417578"><ele>363.5</ele><time>2026-04-19T13:06:34Z</time></trkpt><trkpt lat="44.54022118233331" lon="8.191984392564443"><ele>360.0</ele><time>2026-04-19T13:06:35Z</time></trkpt><trkpt lat="44.540280608083705" lon="8.191912247996466"><ele>360.0</ele><time>2026-04-19T13:06:36Z</time></trkpt><trkpt lat="44.54035795064705" lon="8.19193989958429"><ele>360.0</ele><time>2026-04-19T13:06:38Z</time></trkpt><trkpt lat="44.540361938756796" lon="8.192095387947377"><ele>360.0</ele><time>2026-04-19T13:06:40Z</time></trkpt><trkpt lat="44.540385670048096" lon="8.192270088719736"><ele>360.0</ele><time>2026-04-19T13:06:42Z</time></trkpt><trkpt lat="44.54037205268851" lon="8.192363278986239"><ele>360.0</ele><time>2026-04-19T13:06:43Z</time></trkpt><trkpt lat="44.54035422583114" lon="8.192509315590971"><ele>357.3333333333333</ele><time>2026-04-19T13:06:45Z</time></trkpt><trkpt lat="44.54028154009225" lon="8.192549729853528"><ele>354.6666666666667</ele><time>2026-04-19T13:06:48Z</time></trkpt><trkpt lat="44.540217618180364" lon="8.192546404754292"><ele>352.0</ele><time>2026-04-19T13:06:50Z</time></trkpt><trkpt lat="44.54010365779014" lon="8.19255721508165"><ele>349.33333333333337</ele><time>2026-04-19T13:06:52Z</time></trkpt><trkpt lat="44.53998470735866" lon="8.192548700896602"><ele>346.6666666666667</ele><time>2026-04-19T13:06:54Z</time></trkpt><trkpt lat="44.53992164176047" lon="8.192532083442456"><ele>344.0</ele><time>2026-04-19T13:06:55Z</time></trkpt><trkpt lat="44.539807962142916" lon="8.192504372437984"><ele>344.0</ele><time>2026-04-19T13:06:57Z</time></trkpt><trkpt lat="44.53968694137666" lon="8.192527377971178"><ele>344.0</ele><time>2026-04-19T13:06:59Z</time></trkpt><trkpt lat="44.539631986848384" lon="8.192604309439128"><ele>344.0</ele><time>2026-04-19T13:07:00Z</time></trkpt><trkpt lat="44.53959166725752" lon="8.19271103468183"><ele>344.0</ele><time>2026-04-19T13:07:01Z</time></trkpt><trkpt lat="44.539550105268994" lon="8.19279677538038"><ele>344.0</ele><time>2026-04-19T13:07:02Z</time></trkpt><trkpt lat="44.53950971295433" lon="8.192872857327444"><ele>344.0</ele><time>2026-04-19T13:07:03Z</time></trkpt><trkpt lat="44.53944678712693" lon="8.192960328623284"><ele>340.5</ele><time>2026-04-19T13:07:05Z</time></trkpt><trkpt lat="44.53935083699187" lon="8.192908098510067"><ele>337.0</ele><time>2026-04-19T13:07:07.001Z</time></trkpt><trkpt lat="44.539254138873744" lon="8.192909566371723"><ele>333.5</ele><time>2026-04-19T13:07:09.001Z</time></trkpt><trkpt lat="44.53917519519116" lon="8.192914746238811"><ele>330.0</ele><time>2026-04-19T13:07:12.001Z</time></trkpt><trkpt lat="44.53942421828801" lon="8.1931257757195"><ele>330.0</ele><time>2026-04-19T13:08:05.001Z</time></trkpt><trkpt lat="44.539519951105184" lon="8.193157712186725"><ele>330.0</ele><time>2026-04-19T13:08:06.001Z</time></trkpt><trkpt lat="44.53962399970523" lon="8.193202888948523"><ele>330.0</ele><time>2026-04-19T13:08:07.001Z</time></trkpt><trkpt lat="44.539745756188736" lon="8.193257012449667"><ele>330.0</ele><time>2026-04-19T13:08:08.001Z</time></trkpt><trkpt lat="44.53988545890228" lon="8.193319170939777"><ele>329.0</ele><time>2026-04-19T13:08:09.001Z</time></trkpt><trkpt lat="44.54003236550768" lon="8.193382185113412"><ele>328.0</ele><time>2026-04-19T13:08:10.001Z</time></trkpt><trkpt lat="44.54017243455838" lon="8.193447831551902"><ele>327.0</ele><time>2026-04-19T13:08:11.001Z</time></trkpt><trkpt lat="44.54030440777725" lon="8.193523382737855"><ele>326.0</ele><time>2026-04-19T13:08:12.001Z</time></trkpt><trkpt lat="44.54042919333622" lon="8.193610259486315"><ele>326.0</ele><time>2026-04-19T13:08:13.001Z</time></trkpt><trkpt lat="44.54054359000536" lon="8.193713928228764"><ele>326.0</ele><time>2026-04-19T13:08:14.001Z</time></trkpt><trkpt lat="44.54064485918713" lon="8.193835088469879"><ele>326.0</ele><time>2026-04-19T13:08:15.001Z</time></trkpt><trkpt lat="44.54073338346901" lon="8.193963641098868"><ele>326.0</ele><time>2026-04-19T13:08:16.001Z</time></trkpt><trkpt lat="44.54081258216971" lon="8.194092309952966"><ele>323.8</ele><time>2026-04-19T13:08:17.001Z</time></trkpt><trkpt lat="44.54088435581782" lon="8.194215436097146"><ele>321.6</ele><time>2026-04-19T13:08:18.001Z</time></trkpt><trkpt lat="44.5409484733955" lon="8.194329696002207"><ele>319.4</ele><time>2026-04-19T13:08:19.001Z</time></trkpt><trkpt lat="44.54100209895028" lon="8.194436492523307"><ele>317.2</ele><time>2026-04-19T13:08:20.001Z</time></trkpt><trkpt lat="44.5410398393747" lon="8.194540495074119"><ele>315.0</ele><time>2026-04-19T13:08:21.001Z</time></trkpt><trkpt lat="44.541060755942375" lon="8.194646800776843"><ele>313.5</ele><time>2026-04-19T13:08:22.001Z</time></trkpt><trkpt lat="44.5410339183633" lon="8.194854293560269"><ele>312.0</ele><time>2026-04-19T13:08:24.001Z</time></trkpt><trkpt lat="44.5409915667884" lon="8.194966566272933"><ele>310.5</ele><time>2026-04-19T13:08:25.001Z</time></trkpt><trkpt lat="44.54091072521324" lon="8.195094820486597"><ele>309.0</ele><time>2026-04-19T13:08:26.001Z</time></trkpt><trkpt lat="44.54082299025898" lon="8.19525728836505"><ele>309.0</ele><time>2026-04-19T13:08:27.001Z</time></trkpt><trkpt lat="44.54071900132481" lon="8.195449506316956"><ele>309.0</ele><time>2026-04-19T13:08:28.001Z</time></trkpt><trkpt lat="44.540600448010366" lon="8.195668134366361"><ele>309.0</ele><time>2026-04-19T13:08:29.001Z</time></trkpt><trkpt lat="44.5404839151455" lon="8.19591505118925"><ele>308.3333333333333</ele><time>2026-04-19T13:08:30.001Z</time></trkpt><trkpt lat="44.54035116698744" lon="8.196150572106488"><ele>307.66666666666663</ele><time>2026-04-19T13:08:31.001Z</time></trkpt><trkpt lat="44.54023072417479" lon="8.19636649618819"><ele>307.0</ele><time>2026-04-19T13:08:32.001Z</time></trkpt><trkpt lat="44.540118449130276" lon="8.196566394389427"><ele>306.3333333333333</ele><time>2026-04-19T13:08:33.001Z</time></trkpt><trkpt lat="44.540012325128906" lon="8.19676097338471"><ele>305.6666666666667</ele><time>2026-04-19T13:08:34.001Z</time></trkpt><trkpt lat="44.53991124926875" lon="8.196943708758985"><ele>305.0</ele><time>2026-04-19T13:08:35.001Z</time></trkpt><trkpt lat="44.539734095531614" lon="8.197283674145403"><ele>305.2</ele><time>2026-04-19T13:08:37.001Z</time></trkpt><trkpt lat="44.5396511550452" lon="8.197437446575943"><ele>305.4</ele><time>2026-04-19T13:08:38.001Z</time></trkpt><trkpt lat="44.5395798257308" lon="8.197543528123472"><ele>305.6</ele><time>2026-04-19T13:08:39.001Z</time></trkpt><trkpt lat="44.53951758446097" lon="8.197614912211694"><ele>305.8</ele><time>2026-04-19T13:08:40.001Z</time></trkpt><trkpt lat="44.53945402672776" lon="8.197660386764793"><ele>306.0</ele><time>2026-04-19T13:08:41.001Z</time></trkpt><trkpt lat="44.53934544334715" lon="8.197683989027976"><ele>307.0</ele><time>2026-04-19T13:08:43.001Z</time></trkpt><trkpt lat="44.53924915251127" lon="8.197641526447459"><ele>308.0</ele><time>2026-04-19T13:08:45.001Z</time></trkpt><trkpt lat="44.53919126741907" lon="8.19760285307384"><ele>309.0</ele><time>2026-04-19T13:08:46.001Z</time></trkpt><trkpt lat="44.53913923117221" lon="8.197541107814475"><ele>310.0</ele><time>2026-04-19T13:08:47.001Z</time></trkpt><trkpt lat="44.5390841177723" lon="8.197498105688117"><ele>311.0</ele><time>2026-04-19T13:08:48.001Z</time></trkpt><trkpt lat="44.53902039391634" lon="8.197472242101739"><ele>312.0</ele><time>2026-04-19T13:08:49.001Z</time></trkpt><trkpt lat="44.538896387268395" lon="8.197405390643691"><ele>312.0</ele><time>2026-04-19T13:08:51.001Z</time></trkpt><trkpt lat="44.538827687070146" lon="8.197390373798214"><ele>312.0</ele><time>2026-04-19T13:08:52.001Z</time></trkpt><trkpt lat="44.53876200963328" lon="8.19736231710611"><ele>312.0</ele><time>2026-04-19T13:08:53.001Z</time></trkpt><trkpt lat="44.538694633895396" lon="8.197341852991963"><ele>312.0</ele><time>2026-04-19T13:08:54.001Z</time></trkpt><trkpt lat="44.538631131546836" lon="8.197286136089708"><ele>312.0</ele><time>2026-04-19T13:08:55.001Z</time></trkpt><trkpt lat="44.538557765873705" lon="8.197240677213651"><ele>312.0</ele><time>2026-04-19T13:08:56.001Z</time></trkpt><trkpt lat="44.53848212373566" lon="8.197188026945499"><ele>312.0</ele><time>2026-04-19T13:08:57.001Z</time></trkpt><trkpt lat="44.53839925474868" lon="8.19714293770479"><ele>313.0</ele><time>2026-04-19T13:08:58.001Z</time></trkpt><trkpt lat="44.53833104380975" lon="8.197060997380824"><ele>314.0</ele><time>2026-04-19T13:08:59.001Z</time></trkpt><trkpt lat="44.538262285235355" lon="8.196977393166165"><ele>315.0</ele><time>2026-04-19T13:09:00.001Z</time></trkpt><trkpt lat="44.53819964132371" lon="8.196905844772271"><ele>316.0</ele><time>2026-04-19T13:09:01.001Z</time></trkpt><trkpt lat="44.53814250825672" lon="8.196848065499386"><ele>317.0</ele><time>2026-04-19T13:09:02.001Z</time></trkpt><trkpt lat="44.53808696884111" lon="8.196801893184686"><ele>318.0</ele><time>2026-04-19T13:09:03.001Z</time></trkpt><trkpt lat="44.537971495619445" lon="8.19674096426542"><ele>322.6</ele><time>2026-04-19T13:09:05.001Z</time></trkpt><trkpt lat="44.537875944222066" lon="8.196697972543411"><ele>327.20000000000005</ele><time>2026-04-19T13:09:07.001Z</time></trkpt><trkpt lat="44.53777099890996" lon="8.196689053608265"><ele>331.8</ele><time>2026-04-19T13:09:53.001Z</time></trkpt><trkpt lat="44.53769782307746" lon="8.196669610130993"><ele>336.40000000000003</ele><time>2026-04-19T13:09:54.001Z</time></trkpt><trkpt lat="44.53760720187339" lon="8.196634502251863"><ele>341.0</ele><time>2026-04-19T13:09:55.001Z</time></trkpt><trkpt lat="44.53750176827262" lon="8.196584833165732"><ele>341.0</ele><time>2026-04-19T13:09:56.001Z</time></trkpt><trkpt lat="44.53741752202968" lon="8.196537309708578"><ele>341.0</ele><time>2026-04-19T13:09:57.001Z</time></trkpt><trkpt lat="44.53734404440494" lon="8.196502828800659"><ele>341.0</ele><time>2026-04-19T13:09:58.001Z</time></trkpt><trkpt lat="44.53727032582123" lon="8.196501045937332"><ele>341.0</ele><time>2026-04-19T13:09:59.001Z</time></trkpt><trkpt lat="44.53720785818989" lon="8.19652319111058"><ele>341.0</ele><time>2026-04-19T13:10:00.001Z</time></trkpt><trkpt lat="44.537164923505266" lon="8.196623537314059"><ele>341.0</ele><time>2026-04-19T13:10:01.001Z</time></trkpt><trkpt lat="44.53716935040564" lon="8.196757564369411"><ele>341.0</ele><time>2026-04-19T13:10:02.001Z</time></trkpt><trkpt lat="44.53724553620826" lon="8.196863216178079"><ele>341.0</ele><time>2026-04-19T13:10:03.001Z</time></trkpt><trkpt lat="44.537325808854646" lon="8.196970859670914"><ele>341.0</ele><time>2026-04-19T13:10:04.001Z</time></trkpt><trkpt lat="44.53742539953179" lon="8.197107377369695"><ele>341.0</ele><time>2026-04-19T13:10:05.001Z</time></trkpt><trkpt lat="44.537531947924236" lon="8.197274707965912"><ele>340.0</ele><time>2026-04-19T13:10:06.001Z</time></trkpt><trkpt lat="44.53765203925409" lon="8.197441149237982"><ele>339.0</ele><time>2026-04-19T13:10:07.001Z</time></trkpt><trkpt lat="44.53777293883005" lon="8.197595964852718"><ele>338.0</ele><time>2026-04-19T13:10:08.001Z</time></trkpt><trkpt lat="44.53791442231052" lon="8.197669292810016"><ele>338.0</ele><time>2026-04-19T13:10:09.001Z</time></trkpt><trkpt lat="44.53803121164414" lon="8.197706534796769"><ele>338.0</ele><time>2026-04-19T13:10:10.001Z</time></trkpt><trkpt lat="44.53813144125652" lon="8.197715219797264"><ele>338.0</ele><time>2026-04-19T13:10:11.001Z</time></trkpt><trkpt lat="44.538199243823016" lon="8.197777776378421"><ele>338.0</ele><time>2026-04-19T13:10:12.001Z</time></trkpt><trkpt lat="44.5382300947027" lon="8.197863947392447"><ele>338.0</ele><time>2026-04-19T13:10:13.001Z</time></trkpt><trkpt lat="44.538228582220796" lon="8.197969696257397"><ele>338.0</ele><time>2026-04-19T13:10:14.001Z</time></trkpt><trkpt lat="44.538164658013514" lon="8.1980732030215"><ele>341.0</ele><time>2026-04-19T13:10:15.001Z</time></trkpt><trkpt lat="44.53810641562098" lon="8.198203617303223"><ele>344.0</ele><time>2026-04-19T13:10:16.001Z</time></trkpt><trkpt lat="44.538036528375216" lon="8.198358488883688"><ele>347.0</ele><time>2026-04-19T13:10:17.001Z</time></trkpt><trkpt lat="44.53795765467583" lon="8.198537581087503"><ele>350.0</ele><time>2026-04-19T13:10:18.001Z</time></trkpt><trkpt lat="44.53788475011913" lon="8.198746134321917"><ele>360.0</ele><time>2026-04-19T13:10:19.001Z</time></trkpt><trkpt lat="44.53779143964623" lon="8.198958235837662"><ele>370.0</ele><time>2026-04-19T13:10:20.001Z</time></trkpt><trkpt lat="44.537694424100486" lon="8.199166687324437"><ele>380.0</ele><time>2026-04-19T13:10:21.001Z</time></trkpt><trkpt lat="44.537633535795685" lon="8.199354281192749"><ele>380.0</ele><time>2026-04-19T13:10:22.001Z</time></trkpt><trkpt lat="44.537587786338534" lon="8.199507612663023"><ele>380.0</ele><time>2026-04-19T13:10:23.001Z</time></trkpt><trkpt lat="44.53755598305243" lon="8.199625548160503"><ele>380.0</ele><time>2026-04-19T13:10:24.001Z</time></trkpt><trkpt lat="44.537527628026325" lon="8.19970757839582"><ele>380.0</ele><time>2026-04-19T13:10:25.001Z</time></trkpt><trkpt lat="44.537430239114315" lon="8.19972555489848"><ele>380.0</ele><time>2026-04-19T13:10:27.001Z</time></trkpt><trkpt lat="44.53738421034625" lon="8.199650250003467"><ele>380.0</ele><time>2026-04-19T13:10:28.001Z</time></trkpt><trkpt lat="44.537383953070346" lon="8.199548952164951"><ele>380.0</ele><time>2026-04-19T13:10:29.001Z</time></trkpt><trkpt lat="44.537419613627016" lon="8.199463364987377"><ele>380.0</ele><time>2026-04-19T13:10:30.001Z</time></trkpt><trkpt lat="44.53745976691304" lon="8.199347437800457"><ele>380.0</ele><time>2026-04-19T13:10:31.001Z</time></trkpt><trkpt lat="44.53749836781897" lon="8.199189790151836"><ele>380.0</ele><time>2026-04-19T13:10:32.001Z</time></trkpt><trkpt lat="44.537566163482644" lon="8.199019514969857"><ele>380.0</ele><time>2026-04-19T13:10:33.001Z</time></trkpt><trkpt lat="44.53762587168726" lon="8.198812255357439"><ele>380.2</ele><time>2026-04-19T13:10:34.001Z</time></trkpt><trkpt lat="44.53767432473788" lon="8.198642697073923"><ele>380.4</ele><time>2026-04-19T13:10:35.001Z</time></trkpt><trkpt lat="44.53770470372202" lon="8.19849183568311"><ele>380.6</ele><time>2026-04-19T13:10:36.001Z</time></trkpt><trkpt lat="44.5377074556773" lon="8.19835393609787"><ele>380.8</ele><time>2026-04-19T13:10:37.001Z</time></trkpt><trkpt lat="44.53768178325843" lon="8.198234201623723"><ele>381.0</ele><time>2026-04-19T13:10:38.001Z</time></trkpt><trkpt lat="44.53762350125426" lon="8.198124208154159"><ele>376.5</ele><time>2026-04-19T13:10:39.001Z</time></trkpt><trkpt lat="44.537530932598436" lon="8.198033355863354"><ele>372.0</ele><time>2026-04-19T13:10:40.001Z</time></trkpt><trkpt lat="44.53742320833357" lon="8.197926706098826"><ele>367.5</ele><time>2026-04-19T13:10:41.001Z</time></trkpt><trkpt lat="44.53728798286639" lon="8.19783281033646"><ele>363.0</ele><time>2026-04-19T13:10:42.001Z</time></trkpt><trkpt lat="44.537146918919795" lon="8.197753585637114"><ele>368.0</ele><time>2026-04-19T13:10:43.001Z</time></trkpt><trkpt lat="44.537033618922486" lon="8.19766150646921"><ele>373.0</ele><time>2026-04-19T13:10:44.001Z</time></trkpt><trkpt lat="44.53693855191146" lon="8.197593163871895"><ele>378.0</ele><time>2026-04-19T13:10:45.001Z</time></trkpt><trkpt lat="44.53686031650137" lon="8.197557041825258"><ele>383.0</ele><time>2026-04-19T13:10:46.001Z</time></trkpt><trkpt lat="44.536792473978316" lon="8.197557432862995"><ele>388.0</ele><time>2026-04-19T13:10:47.001Z</time></trkpt><trkpt lat="44.53672752309084" lon="8.197573465372495"><ele>388.0</ele><time>2026-04-19T13:10:48.001Z</time></trkpt><trkpt lat="44.53666542069166" lon="8.197646395170608"><ele>388.0</ele><time>2026-04-19T13:10:49.001Z</time></trkpt><trkpt lat="44.53665729388567" lon="8.19780918167154"><ele>388.0</ele><time>2026-04-19T13:10:50.001Z</time></trkpt><trkpt lat="44.53670275599519" lon="8.197949072189035"><ele>388.0</ele><time>2026-04-19T13:10:51.001Z</time></trkpt><trkpt lat="44.53676264668652" lon="8.198093227667874"><ele>388.0</ele><time>2026-04-19T13:10:52.001Z</time></trkpt><trkpt lat="44.53681892284587" lon="8.198268682315298"><ele>386.25</ele><time>2026-04-19T13:10:53.001Z</time></trkpt><trkpt lat="44.536887707525935" lon="8.198438814210945"><ele>384.5</ele><time>2026-04-19T13:10:54.001Z</time></trkpt><trkpt lat="44.5369583024571" lon="8.19857133987969"><ele>382.75</ele><time>2026-04-19T13:10:55.001Z</time></trkpt><trkpt lat="44.537010656673246" lon="8.198696920092239"><ele>381.0</ele><time>2026-04-19T13:10:56.001Z</time></trkpt><trkpt lat="44.537053843737006" lon="8.198809042394574"><ele>381.0</ele><time>2026-04-19T13:10:57.001Z</time></trkpt><trkpt lat="44.53709481200056" lon="8.198904589496937"><ele>381.0</ele><time>2026-04-19T13:10:58.001Z</time></trkpt><trkpt lat="44.53712057963146" lon="8.198996258456434"><ele>381.0</ele><time>2026-04-19T13:10:59.001Z</time></trkpt><trkpt lat="44.53710739931248" lon="8.199160022055644"><ele>381.0</ele><time>2026-04-19T13:11:01.001Z</time></trkpt><trkpt lat="44.536994902098044" lon="8.199226703857024"><ele>381.0</ele><time>2026-04-19T13:11:03.001Z</time></trkpt><trkpt lat="44.5369334538481" lon="8.199159883277318"><ele>384.75</ele><time>2026-04-19T13:11:04.001Z</time></trkpt><trkpt lat="44.536862000808135" lon="8.199079029896831"><ele>388.5</ele><time>2026-04-19T13:11:05.001Z</time></trkpt><trkpt lat="44.53676046357795" lon="8.198990844422898"><ele>392.25</ele><time>2026-04-19T13:11:06.001Z</time></trkpt><trkpt lat="44.536661356743195" lon="8.198838960675742"><ele>396.0</ele><time>2026-04-19T13:11:07.001Z</time></trkpt><trkpt lat="44.53654125873342" lon="8.19871130376068"><ele>396.0</ele><time>2026-04-19T13:11:08.001Z</time></trkpt><trkpt lat="44.53643448155421" lon="8.198617685016607"><ele>396.0</ele><time>2026-04-19T13:11:09.001Z</time></trkpt><trkpt lat="44.53634026036123" lon="8.19854881436119"><ele>396.0</ele><time>2026-04-19T13:11:10.001Z</time></trkpt><trkpt lat="44.536240540393194" lon="8.198515783786185"><ele>396.0</ele><time>2026-04-19T13:11:11.001Z</time></trkpt><trkpt lat="44.536133519225075" lon="8.198536220558987"><ele>396.0</ele><time>2026-04-19T13:11:12.001Z</time></trkpt><trkpt lat="44.53601136595581" lon="8.198571406112865"><ele>399.66666666666663</ele><time>2026-04-19T13:11:13.001Z</time></trkpt><trkpt lat="44.53587308529946" lon="8.198622076809874"><ele>403.3333333333333</ele><time>2026-04-19T13:11:14.001Z</time></trkpt><trkpt lat="44.53572786915765" lon="8.198684808326835"><ele>407.0</ele><time>2026-04-19T13:11:15.001Z</time></trkpt><trkpt lat="44.535562657793704" lon="8.198663378556223"><ele>407.0</ele><time>2026-04-19T13:11:16.001Z</time></trkpt><trkpt lat="44.535397266351524" lon="8.19866282516098"><ele>407.0</ele><time>2026-04-19T13:11:17.001Z</time></trkpt><trkpt lat="44.53525868479176" lon="8.198619088418628"><ele>407.0</ele><time>2026-04-19T13:11:18.001Z</time></trkpt><trkpt lat="44.53513163098024" lon="8.198589909897123"><ele>407.0</ele><time>2026-04-19T13:11:19.001Z</time></trkpt><trkpt lat="44.535009247674765" lon="8.198577820824324"><ele>408.75</ele><time>2026-04-19T13:11:20.001Z</time></trkpt><trkpt lat="44.534877670042476" lon="8.198594456984743"><ele>410.5</ele><time>2026-04-19T13:11:21.001Z</time></trkpt><trkpt lat="44.5347466164541" lon="8.198634292041769"><ele>412.25</ele><time>2026-04-19T13:11:22.001Z</time></trkpt><trkpt lat="44.5346117632211" lon="8.198651458447834"><ele>414.0</ele><time>2026-04-19T13:11:23.001Z</time></trkpt><trkpt lat="44.53449950974753" lon="8.198679339913506"><ele>417.0</ele><time>2026-04-19T13:11:24.001Z</time></trkpt><trkpt lat="44.53440506493929" lon="8.19868923330681"><ele>420.0</ele><time>2026-04-19T13:11:25.001Z</time></trkpt><trkpt lat="44.53431862167193" lon="8.198684585144623"><ele>423.0</ele><time>2026-04-19T13:11:26.001Z</time></trkpt><trkpt lat="44.534239854980136" lon="8.19861775995043"><ele>426.0</ele><time>2026-04-19T13:11:27.001Z</time></trkpt><trkpt lat="44.53417124199527" lon="8.198504046349694"><ele>429.0</ele><time>2026-04-19T13:11:28.001Z</time></trkpt><trkpt lat="44.53410239706198" lon="8.198358554636004"><ele>429.0</ele><time>2026-04-19T13:11:29.001Z</time></trkpt><trkpt lat="44.53403011448514" lon="8.198187785725624"><ele>429.0</ele><time>2026-04-19T13:11:30.001Z</time></trkpt><trkpt lat="44.53397105755645" lon="8.197985966506728"><ele>429.0</ele><time>2026-04-19T13:11:31.001Z</time></trkpt><trkpt lat="44.53393396180789" lon="8.197769272732303"><ele>426.66666666666663</ele><time>2026-04-19T13:11:32.001Z</time></trkpt><trkpt lat="44.53389092937994" lon="8.197559166643437"><ele>424.3333333333333</ele><time>2026-04-19T13:11:33.001Z</time></trkpt><trkpt lat="44.5338203930865" lon="8.197361226298508"><ele>422.0</ele><time>2026-04-19T13:11:34.001Z</time></trkpt><trkpt lat="44.53372869026555" lon="8.197186341521663"><ele>426.66666666666663</ele><time>2026-04-19T13:11:35.001Z</time></trkpt><trkpt lat="44.53361389148503" lon="8.197037434478744"><ele>431.33333333333337</ele><time>2026-04-19T13:11:36.001Z</time></trkpt><trkpt lat="44.533469959035635" lon="8.19690317091246"><ele>436.0</ele><time>2026-04-19T13:11:37.001Z</time></trkpt><trkpt lat="44.53331997181776" lon="8.196748928567942"><ele>436.0</ele><time>2026-04-19T13:11:38.001Z</time></trkpt><trkpt lat="44.53317272492367" lon="8.196568871471683"><ele>436.0</ele><time>2026-04-19T13:11:39.001Z</time></trkpt><trkpt lat="44.53303124266377" lon="8.196394202451334"><ele>436.0</ele><time>2026-04-19T13:11:40.001Z</time></trkpt><trkpt lat="44.53290338314881" lon="8.196240629441975"><ele>437.75</ele><time>2026-04-19T13:11:41.001Z</time></trkpt><trkpt lat="44.53278855357368" lon="8.196098069867006"><ele>439.5</ele><time>2026-04-19T13:11:42.001Z</time></trkpt><trkpt lat="44.53268675683902" lon="8.195968551466407"><ele>441.25</ele><time>2026-04-19T13:11:43.001Z</time></trkpt><trkpt lat="44.53258268926686" lon="8.195874298932774"><ele>443.0</ele><time>2026-04-19T13:11:44.001Z</time></trkpt><trkpt lat="44.532455064511616" lon="8.195815344500962"><ele>443.0</ele><time>2026-04-19T13:11:45.001Z</time></trkpt><trkpt lat="44.53230406931199" lon="8.195786861039442"><ele>443.0</ele><time>2026-04-19T13:11:46.001Z</time></trkpt><trkpt lat="44.532147012453294" lon="8.195731878763645"><ele>443.0</ele><time>2026-04-19T13:11:47.001Z</time></trkpt><trkpt lat="44.531995715196956" lon="8.195706051461501"><ele>446.0</ele><time>2026-04-19T13:11:48.001Z</time></trkpt><trkpt lat="44.53183748511531" lon="8.195717128061755"><ele>449.0</ele><time>2026-04-19T13:11:49.001Z</time></trkpt><trkpt lat="44.531662674425796" lon="8.195746423564383"><ele>452.0</ele><time>2026-04-19T13:11:50.001Z</time></trkpt><trkpt lat="44.53147913315963" lon="8.195756158022537"><ele>452.0</ele><time>2026-04-19T13:11:51.001Z</time></trkpt><trkpt lat="44.53131383292361" lon="8.195767987516833"><ele>452.0</ele><time>2026-04-19T13:11:52.001Z</time></trkpt><trkpt lat="44.53118121407891" lon="8.19578971766714"><ele>452.0</ele><time>2026-04-19T13:11:53.001Z</time></trkpt><trkpt lat="44.53107662623563" lon="8.195790408955249"><ele>452.0</ele><time>2026-04-19T13:11:54.001Z</time></trkpt><trkpt lat="44.530990299113675" lon="8.19581778362133"><ele>450.49999999999994</ele><time>2026-04-19T13:11:55.001Z</time></trkpt><trkpt lat="44.53091884723089" lon="8.195858121666058"><ele>449.0</ele><time>2026-04-19T13:11:56.001Z</time></trkpt><trkpt lat="44.53088855759696" lon="8.195951587810166"><ele>447.5</ele><time>2026-04-19T13:11:57.001Z</time></trkpt><trkpt lat="44.530896270615656" lon="8.196061921958712"><ele>446.0</ele><time>2026-04-19T13:11:58.001Z</time></trkpt><trkpt lat="44.53097333687685" lon="8.196126749241433"><ele>444.49999999999994</ele><time>2026-04-19T13:11:59.001Z</time></trkpt><trkpt lat="44.53105045933459" lon="8.196186283849892"><ele>443.0</ele><time>2026-04-19T13:12:00.001Z</time></trkpt><trkpt lat="44.531138915013564" lon="8.196269187919176"><ele>445.25</ele><time>2026-04-19T13:12:01.001Z</time></trkpt><trkpt lat="44.531250161544975" lon="8.196345373610487"><ele>447.5</ele><time>2026-04-19T13:12:02.001Z</time></trkpt><trkpt lat="44.53137188442876" lon="8.196435243774559"><ele>449.75</ele><time>2026-04-19T13:12:03.001Z</time></trkpt><trkpt lat="44.53149598615038" lon="8.196520462644061"><ele>452.0</ele><time>2026-04-19T13:12:04.001Z</time></trkpt><trkpt lat="44.53158945034285" lon="8.19663186874262"><ele>455.0</ele><time>2026-04-19T13:12:05.001Z</time></trkpt><trkpt lat="44.53166192504606" lon="8.19676229260278"><ele>458.0</ele><time>2026-04-19T13:12:06.001Z</time></trkpt><trkpt lat="44.5316924491922" lon="8.196943064894796"><ele>461.0</ele><time>2026-04-19T13:12:07.001Z</time></trkpt><trkpt lat="44.53172719977107" lon="8.197132313765804"><ele>464.0</ele><time>2026-04-19T13:12:08.001Z</time></trkpt><trkpt lat="44.53175841066096" lon="8.197320884464046"><ele>468.66666666666663</ele><time>2026-04-19T13:12:09.001Z</time></trkpt><trkpt lat="44.53179123495438" lon="8.197504521179267"><ele>473.33333333333337</ele><time>2026-04-19T13:12:10.001Z</time></trkpt><trkpt lat="44.53179027743198" lon="8.197715165636469"><ele>478.0</ele><time>2026-04-19T13:12:11.001Z</time></trkpt><trkpt lat="44.531767758985204" lon="8.197948195523598"><ele>479.0</ele><time>2026-04-19T13:12:12.001Z</time></trkpt><trkpt lat="44.53169560964858" lon="8.19818337984638"><ele>480.0</ele><time>2026-04-19T13:12:13.001Z</time></trkpt><trkpt lat="44.53162101541368" lon="8.19842177465405"><ele>481.0</ele><time>2026-04-19T13:12:14.001Z</time></trkpt><trkpt lat="44.53156501442329" lon="8.19863698838954"><ele>481.0</ele><time>2026-04-19T13:12:15.001Z</time></trkpt><trkpt lat="44.5315120756799" lon="8.198832121603468"><ele>481.0</ele><time>2026-04-19T13:12:16.001Z</time></trkpt><trkpt lat="44.53147271287688" lon="8.199020378202945"><ele>481.0</ele><time>2026-04-19T13:12:17.001Z</time></trkpt><trkpt lat="44.53150493601298" lon="8.199235064595014"><ele>481.0</ele><time>2026-04-19T13:12:18.001Z</time></trkpt><trkpt lat="44.531543718846336" lon="8.199453506042236"><ele>481.5</ele><time>2026-04-19T13:12:19.001Z</time></trkpt><trkpt lat="44.53159054352548" lon="8.199655823665728"><ele>482.0</ele><time>2026-04-19T13:12:20.001Z</time></trkpt><trkpt lat="44.531625034328115" lon="8.199836520778183"><ele>482.5</ele><time>2026-04-19T13:12:21.001Z</time></trkpt><trkpt lat="44.53166502516587" lon="8.200008468694058"><ele>483.0</ele><time>2026-04-19T13:12:22.001Z</time></trkpt><trkpt lat="44.53170939535697" lon="8.200174010510834"><ele>484.0</ele><time>2026-04-19T13:12:23.001Z</time></trkpt><trkpt lat="44.53181128763982" lon="8.20028101604098"><ele>485.0</ele><time>2026-04-19T13:12:24.001Z</time></trkpt><trkpt lat="44.5319178440051" lon="8.200365895586978"><ele>486.0</ele><time>2026-04-19T13:12:25.001Z</time></trkpt><trkpt lat="44.5320164424521" lon="8.200433837688736"><ele>487.0</ele><time>2026-04-19T13:12:26.001Z</time></trkpt><trkpt lat="44.532083685546674" lon="8.200529831085083"><ele>486.83333333333337</ele><time>2026-04-19T13:12:27.001Z</time></trkpt><trkpt lat="44.53214842464162" lon="8.200620641780622"><ele>486.6666666666667</ele><time>2026-04-19T13:12:28.001Z</time></trkpt><trkpt lat="44.532170305734645" lon="8.200740345448448"><ele>486.5</ele><time>2026-04-19T13:12:29.001Z</time></trkpt><trkpt lat="44.53215666531034" lon="8.20084146175049"><ele>486.33333333333337</ele><time>2026-04-19T13:12:30.001Z</time></trkpt><trkpt lat="44.53208063968498" lon="8.200954070978003"><ele>486.1666666666667</ele><time>2026-04-19T13:12:32.001Z</time></trkpt><trkpt lat="44.53201648649875" lon="8.200977559314687"><ele>486.0</ele><time>2026-04-19T13:12:33.001Z</time></trkpt><trkpt lat="44.53193106346613" lon="8.200929105586777"><ele>487.75</ele><time>2026-04-19T13:12:34.001Z</time></trkpt><trkpt lat="44.53182916075534" lon="8.200909493400385"><ele>489.5</ele><time>2026-04-19T13:12:35.001Z</time></trkpt><trkpt lat="44.5316977360597" lon="8.200881833942416"><ele>491.25</ele><time>2026-04-19T13:12:36.001Z</time></trkpt><trkpt lat="44.531541931806316" lon="8.200842755172209"><ele>493.0</ele><time>2026-04-19T13:12:37.001Z</time></trkpt><trkpt lat="44.531369406224385" lon="8.20079920406164"><ele>494.6666666666667</ele><time>2026-04-19T13:12:38.001Z</time></trkpt><trkpt lat="44.53119471007515" lon="8.200775952727437"><ele>496.33333333333337</ele><time>2026-04-19T13:12:39.001Z</time></trkpt><trkpt lat="44.531048095973546" lon="8.200743319492094"><ele>498.0</ele><time>2026-04-19T13:12:40.001Z</time></trkpt><trkpt lat="44.53091295751614" lon="8.200727612339016"><ele>498.0</ele><time>2026-04-19T13:12:41.001Z</time></trkpt><trkpt lat="44.53077579565403" lon="8.200725094604685"><ele>498.0</ele><time>2026-04-19T13:12:42.001Z</time></trkpt><trkpt lat="44.53063610542004" lon="8.200747620461915"><ele>498.0</ele><time>2026-04-19T13:12:43.001Z</time></trkpt><trkpt lat="44.53049246716118" lon="8.200807496161303"><ele>498.0</ele><time>2026-04-19T13:12:44.001Z</time></trkpt><trkpt lat="44.53033960570848" lon="8.200890055710877"><ele>499.0</ele><time>2026-04-19T13:12:45.001Z</time></trkpt><trkpt lat="44.53018083973486" lon="8.200974169802583"><ele>500.0</ele><time>2026-04-19T13:12:46.001Z</time></trkpt><trkpt lat="44.53002160049943" lon="8.20106796570302"><ele>501.0</ele><time>2026-04-19T13:12:47.001Z</time></trkpt><trkpt lat="44.529869132250006" lon="8.20117496091378"><ele>501.0</ele><time>2026-04-19T13:12:48.001Z</time></trkpt><trkpt lat="44.52973082651604" lon="8.201294273126013"><ele>501.0</ele><time>2026-04-19T13:12:49.001Z</time></trkpt><trkpt lat="44.52961687721271" lon="8.20141823844062"><ele>501.0</ele><time>2026-04-19T13:12:50.001Z</time></trkpt><trkpt lat="44.529513457348756" lon="8.201560205054372"><ele>498.33333333333337</ele><time>2026-04-19T13:12:51.001Z</time></trkpt><trkpt lat="44.52941332440593" lon="8.201733570646526"><ele>495.6666666666667</ele><time>2026-04-19T13:12:52.001Z</time></trkpt><trkpt lat="44.52930728819147" lon="8.20192512352594"><ele>493.0</ele><time>2026-04-19T13:12:53.001Z</time></trkpt><trkpt lat="44.529195520724116" lon="8.20212060847799"><ele>493.0</ele><time>2026-04-19T13:12:54.001Z</time></trkpt><trkpt lat="44.52909111288232" lon="8.202308359641032"><ele>493.0</ele><time>2026-04-19T13:12:55.001Z</time></trkpt><trkpt lat="44.528970285716596" lon="8.202479551821021"><ele>493.0</ele><time>2026-04-19T13:12:56.001Z</time></trkpt><trkpt lat="44.528859664947404" lon="8.202671333913777"><ele>494.0</ele><time>2026-04-19T13:12:57.001Z</time></trkpt><trkpt lat="44.528765064391216" lon="8.202860805946871"><ele>495.0</ele><time>2026-04-19T13:12:58.001Z</time></trkpt><trkpt lat="44.52869267212312" lon="8.203042009515968"><ele>496.0</ele><time>2026-04-19T13:12:59.001Z</time></trkpt><trkpt lat="44.52864051133899" lon="8.20321642547817"><ele>497.0</ele><time>2026-04-19T13:13:00.001Z</time></trkpt><trkpt lat="44.528585413078716" lon="8.203362062356671"><ele>500.20000000000005</ele><time>2026-04-19T13:13:01.001Z</time></trkpt><trkpt lat="44.52851512365719" lon="8.203432213731954"><ele>503.40000000000003</ele><time>2026-04-19T13:13:02.001Z</time></trkpt><trkpt lat="44.52843718778214" lon="8.203516823782405"><ele>506.59999999999997</ele><time>2026-04-19T13:13:03.001Z</time></trkpt><trkpt lat="44.528310355269035" lon="8.203477066154306"><ele>509.79999999999995</ele><time>2026-04-19T13:13:04.001Z</time></trkpt><trkpt lat="44.528178067163495" lon="8.203475040831261"><ele>513.0</ele><time>2026-04-19T13:13:05.001Z</time></trkpt><trkpt lat="44.528021818760756" lon="8.203465050242805"><ele>515.6666666666666</ele><time>2026-04-19T13:13:06.001Z</time></trkpt><trkpt lat="44.52784209266324" lon="8.203453547777487"><ele>518.3333333333333</ele><time>2026-04-19T13:13:07.001Z</time></trkpt><trkpt lat="44.527666132377114" lon="8.203440997358912"><ele>521.0</ele><time>2026-04-19T13:13:08.001Z</time></trkpt><trkpt lat="44.527510875585016" lon="8.203433534352328"><ele>521.0</ele><time>2026-04-19T13:13:09.001Z</time></trkpt><trkpt lat="44.527382751524414" lon="8.203426758531604"><ele>521.0</ele><time>2026-04-19T13:13:10.001Z</time></trkpt><trkpt lat="44.52727813817676" lon="8.203406842184794"><ele>521.0</ele><time>2026-04-19T13:13:11.001Z</time></trkpt><trkpt lat="44.52718747688885" lon="8.203365722303747"><ele>521.0</ele><time>2026-04-19T13:13:12.001Z</time></trkpt><trkpt lat="44.5271069208205" lon="8.203267082915223"><ele>521.0</ele><time>2026-04-19T13:13:13.001Z</time></trkpt><trkpt lat="44.527091678325974" lon="8.203149411958272"><ele>520.6</ele><time>2026-04-19T13:13:14.001Z</time></trkpt><trkpt lat="44.5270916364456" lon="8.203039243543483"><ele>520.2</ele><time>2026-04-19T13:13:15.001Z</time></trkpt><trkpt lat="44.52712384774565" lon="8.202907208235098"><ele>519.8</ele><time>2026-04-19T13:13:16.001Z</time></trkpt><trkpt lat="44.52716526970925" lon="8.20276201578684"><ele>519.4</ele><time>2026-04-19T13:13:17.001Z</time></trkpt><trkpt lat="44.527239156799105" lon="8.202624039360828"><ele>519.0</ele><time>2026-04-19T13:13:18.001Z</time></trkpt><trkpt lat="44.5273466636826" lon="8.202498073847126"><ele>519.0</ele><time>2026-04-19T13:13:19.001Z</time></trkpt><trkpt lat="44.527431402397234" lon="8.20237010321087"><ele>519.0</ele><time>2026-04-19T13:13:20.001Z</time></trkpt><trkpt lat="44.52748100397966" lon="8.202234869187656"><ele>519.0</ele><time>2026-04-19T13:13:21.001Z</time></trkpt><trkpt lat="44.527503555608156" lon="8.2021052385757"><ele>519.0</ele><time>2026-04-19T13:13:22.001Z</time></trkpt><trkpt lat="44.52748768937812" lon="8.201970719660258"><ele>519.0</ele><time>2026-04-19T13:13:23.001Z</time></trkpt><trkpt lat="44.52742644348231" lon="8.201838898617726"><ele>518.25</ele><time>2026-04-19T13:13:24.001Z</time></trkpt><trkpt lat="44.52733423124337" lon="8.201719825672138"><ele>517.5</ele><time>2026-04-19T13:13:25.001Z</time></trkpt><trkpt lat="44.527224517862486" lon="8.20162552364098"><ele>516.75</ele><time>2026-04-19T13:13:26.001Z</time></trkpt><trkpt lat="44.52710591186989" lon="8.201521922576184"><ele>516.0</ele><time>2026-04-19T13:13:27.001Z</time></trkpt><trkpt lat="44.52696795722115" lon="8.201428002108734"><ele>518.0</ele><time>2026-04-19T13:13:28.001Z</time></trkpt><trkpt lat="44.52680961926526" lon="8.201344779434427"><ele>520.0</ele><time>2026-04-19T13:13:29.001Z</time></trkpt><trkpt lat="44.526650036452764" lon="8.201276162509686"><ele>522.0</ele><time>2026-04-19T13:13:30.001Z</time></trkpt><trkpt lat="44.52652448394048" lon="8.201184707675925"><ele>522.0</ele><time>2026-04-19T13:13:31.001Z</time></trkpt><trkpt lat="44.52642738264166" lon="8.201106659812005"><ele>522.0</ele><time>2026-04-19T13:13:32.001Z</time></trkpt><trkpt lat="44.526371658586676" lon="8.201002681803372"><ele>522.0</ele><time>2026-04-19T13:13:33.001Z</time></trkpt><trkpt lat="44.52635068830621" lon="8.200881590833498"><ele>522.0</ele><time>2026-04-19T13:13:34.001Z</time></trkpt><trkpt lat="44.52639164691552" lon="8.200739345685554"><ele>522.0</ele><time>2026-04-19T13:13:35.001Z</time></trkpt><trkpt lat="44.52638636896202" lon="8.20058091940384"><ele>522.5</ele><time>2026-04-19T13:13:36.001Z</time></trkpt><trkpt lat="44.526346554742894" lon="8.20044064907641"><ele>523.0</ele><time>2026-04-19T13:13:37.001Z</time></trkpt><trkpt lat="44.52629146368193" lon="8.200305066707394"><ele>523.5</ele><time>2026-04-19T13:13:38.001Z</time></trkpt><trkpt lat="44.52619526026708" lon="8.200195417270454"><ele>524.0</ele><time>2026-04-19T13:13:39.001Z</time></trkpt><trkpt lat="44.52609287357481" lon="8.200135053949523"><ele>524.0</ele><time>2026-04-19T13:13:40.001Z</time></trkpt><trkpt lat="44.52599739983957" lon="8.200128129452843"><ele>524.0</ele><time>2026-04-19T13:13:41.001Z</time></trkpt><trkpt lat="44.52590886477662" lon="8.200189301739574"><ele>524.0</ele><time>2026-04-19T13:13:42.001Z</time></trkpt><trkpt lat="44.525818641270725" lon="8.20029061924418"><ele>524.0</ele><time>2026-04-19T13:13:43.001Z</time></trkpt><trkpt lat="44.52570725256079" lon="8.200340871682643"><ele>524.0</ele><time>2026-04-19T13:13:44.001Z</time></trkpt><trkpt lat="44.52559067601705" lon="8.200345627056025"><ele>524.0</ele><time>2026-04-19T13:13:45.001Z</time></trkpt><trkpt lat="44.52545972550898" lon="8.200304210098837"><ele>524.0</ele><time>2026-04-19T13:13:46.001Z</time></trkpt><trkpt lat="44.525333615416464" lon="8.20021442409824"><ele>524.0</ele><time>2026-04-19T13:13:47.001Z</time></trkpt><trkpt lat="44.52521286978799" lon="8.200083287188956"><ele>524.0</ele><time>2026-04-19T13:13:48.001Z</time></trkpt><trkpt lat="44.52509851273869" lon="8.199931748595088"><ele>526.3333333333333</ele><time>2026-04-19T13:13:49.001Z</time></trkpt><trkpt lat="44.524986973035" lon="8.199739654938348"><ele>528.6666666666666</ele><time>2026-04-19T13:13:50.001Z</time></trkpt><trkpt lat="44.52487258112662" lon="8.199530081701262"><ele>531.0</ele><time>2026-04-19T13:13:51.001Z</time></trkpt><trkpt lat="44.52474973714703" lon="8.199314656938377"><ele>531.0</ele><time>2026-04-19T13:13:52.001Z</time></trkpt><trkpt lat="44.52461732794891" lon="8.199082093086059"><ele>531.0</ele><time>2026-04-19T13:13:53.001Z</time></trkpt><trkpt lat="44.52449107297978" lon="8.198886088711456"><ele>531.0</ele><time>2026-04-19T13:13:54.001Z</time></trkpt><trkpt lat="44.52439411933455" lon="8.198685171907623"><ele>532.0</ele><time>2026-04-19T13:13:55.001Z</time></trkpt><trkpt lat="44.52429373619236" lon="8.198492042688954"><ele>533.0</ele><time>2026-04-19T13:13:56.001Z</time></trkpt><trkpt lat="44.52418766679647" lon="8.1982952773245"><ele>534.0</ele><time>2026-04-19T13:13:57.001Z</time></trkpt><trkpt lat="44.52409581716918" lon="8.198086106756751"><ele>530.6666666666666</ele><time>2026-04-19T13:13:58.001Z</time></trkpt><trkpt lat="44.52400036995161" lon="8.197883365587948"><ele>527.3333333333333</ele><time>2026-04-19T13:13:59.001Z</time></trkpt><trkpt lat="44.52390104780983" lon="8.197679087498546"><ele>524.0</ele><time>2026-04-19T13:14:00.001Z</time></trkpt><trkpt lat="44.523785019080556" lon="8.197479245151033"><ele>526.6666666666666</ele><time>2026-04-19T13:14:01.001Z</time></trkpt><trkpt lat="44.52365704221865" lon="8.19728766356194"><ele>529.3333333333334</ele><time>2026-04-19T13:14:02.001Z</time></trkpt><trkpt lat="44.523524544324644" lon="8.197089948263349"><ele>532.0</ele><time>2026-04-19T13:14:03.001Z</time></trkpt><trkpt lat="44.52339478749565" lon="8.196899935276663"><ele>532.0</ele><time>2026-04-19T13:14:04.001Z</time></trkpt><trkpt lat="44.5232814062151" lon="8.196717263532594"><ele>532.0</ele><time>2026-04-19T13:14:05.001Z</time></trkpt><trkpt lat="44.523189847415004" lon="8.196563344808059"><ele>532.0</ele><time>2026-04-19T13:14:06.001Z</time></trkpt><trkpt lat="44.523111935562156" lon="8.196435607476722"><ele>532.0</ele><time>2026-04-19T13:14:07.001Z</time></trkpt><trkpt lat="44.523044693567996" lon="8.196336569318204"><ele>531.2</ele><time>2026-04-19T13:14:08.001Z</time></trkpt><trkpt lat="44.52298491545782" lon="8.196271036919347"><ele>530.4000000000001</ele><time>2026-04-19T13:14:09.001Z</time></trkpt><trkpt lat="44.52289676489365" lon="8.1963006703498"><ele>529.5999999999999</ele><time>2026-04-19T13:14:10.001Z</time></trkpt><trkpt lat="44.52281410266813" lon="8.196366826748651"><ele>528.8</ele><time>2026-04-19T13:14:11.001Z</time></trkpt><trkpt lat="44.52272517006559" lon="8.196461971196417"><ele>528.0</ele><time>2026-04-19T13:14:12.001Z</time></trkpt><trkpt lat="44.52262885573037" lon="8.196566696066947"><ele>528.0</ele><time>2026-04-19T13:14:13.001Z</time></trkpt><trkpt lat="44.5225425336735" lon="8.196677205389982"><ele>528.0</ele><time>2026-04-19T13:14:14.001Z</time></trkpt><trkpt lat="44.52247747549551" lon="8.196813775814464"><ele>528.0</ele><time>2026-04-19T13:14:15.001Z</time></trkpt><trkpt lat="44.52244430564502" lon="8.196972963938952"><ele>528.0</ele><time>2026-04-19T13:14:16.001Z</time></trkpt><trkpt lat="44.52243654850556" lon="8.197155066604479"><ele>528.0</ele><time>2026-04-19T13:14:17.001Z</time></trkpt><trkpt lat="44.52240889482386" lon="8.197307249262511"><ele>528.0</ele><time>2026-04-19T13:14:18.001Z</time></trkpt><trkpt lat="44.52238665038804" lon="8.197425768354533"><ele>528.0</ele><time>2026-04-19T13:14:19.001Z</time></trkpt><trkpt lat="44.522308096028596" lon="8.197515892018705"><ele>528.0</ele><time>2026-04-19T13:14:20.001Z</time></trkpt><trkpt lat="44.52218520058213" lon="8.197549744266572"><ele>528.0</ele><time>2026-04-19T13:14:21.001Z</time></trkpt><trkpt lat="44.522062960003204" lon="8.19763478322728"><ele>528.25</ele><time>2026-04-19T13:14:22.001Z</time></trkpt><trkpt lat="44.52194261907195" lon="8.19772585415574"><ele>528.5</ele><time>2026-04-19T13:14:23.002Z</time></trkpt><trkpt lat="44.52184640137671" lon="8.197798137777152"><ele>528.75</ele><time>2026-04-19T13:14:24.002Z</time></trkpt><trkpt lat="44.52178163706798" lon="8.19789326128875"><ele>529.0</ele><time>2026-04-19T13:14:25.002Z</time></trkpt><trkpt lat="44.52172842154933" lon="8.198037874326891"><ele>537.0</ele><time>2026-04-19T13:14:26.002Z</time></trkpt><trkpt lat="44.52169233247844" lon="8.198243319146812"><ele>545.0</ele><time>2026-04-19T13:14:27.002Z</time></trkpt><trkpt lat="44.521621584332564" lon="8.198458080114182"><ele>553.0</ele><time>2026-04-19T13:14:28.002Z</time></trkpt><trkpt lat="44.52155629047136" lon="8.198700118275871"><ele>553.0</ele><time>2026-04-19T13:14:29.002Z</time></trkpt><trkpt lat="44.52146781325366" lon="8.198912701736225"><ele>553.0</ele><time>2026-04-19T13:14:30.002Z</time></trkpt><trkpt lat="44.521376978218264" lon="8.199074362191379"><ele>553.0</ele><time>2026-04-19T13:14:31.002Z</time></trkpt><trkpt lat="44.52132485319059" lon="8.19921741184859"><ele>553.0</ele><time>2026-04-19T13:14:32.002Z</time></trkpt><trkpt lat="44.521279605574065" lon="8.199317196776548"><ele>555.0</ele><time>2026-04-19T13:14:33.001Z</time></trkpt><trkpt lat="44.521274737022054" lon="8.19941692260285"><ele>557.0</ele><time>2026-04-19T13:14:34.001Z</time></trkpt><trkpt lat="44.52129895675804" lon="8.199524602972012"><ele>559.0</ele><time>2026-04-19T13:14:35.001Z</time></trkpt><trkpt lat="44.52139154816245" lon="8.199619919991195"><ele>561.0</ele><time>2026-04-19T13:14:36.001Z</time></trkpt><trkpt lat="44.521492212393184" lon="8.19972325379974"><ele>563.0</ele><time>2026-04-19T13:14:37.001Z</time></trkpt><trkpt lat="44.52159437170095" lon="8.199863842744797"><ele>563.0</ele><time>2026-04-19T13:14:38.001Z</time></trkpt><trkpt lat="44.52168446892802" lon="8.200036992043506"><ele>563.0</ele><time>2026-04-19T13:14:39.001Z</time></trkpt><trkpt lat="44.52175453080473" lon="8.200242006917641"><ele>563.0</ele><time>2026-04-19T13:14:40.001Z</time></trkpt><trkpt lat="44.521788067860506" lon="8.20046716606516"><ele>562.6666666666666</ele><time>2026-04-19T13:14:41.001Z</time></trkpt><trkpt lat="44.52179250647547" lon="8.200711497805756"><ele>562.3333333333334</ele><time>2026-04-19T13:14:42.001Z</time></trkpt><trkpt lat="44.52177705607389" lon="8.200980512404694"><ele>562.0</ele><time>2026-04-19T13:14:43.001Z</time></trkpt><trkpt lat="44.52175368117366" lon="8.201253384925124"><ele>564.3333333333334</ele><time>2026-04-19T13:14:44.001Z</time></trkpt><trkpt lat="44.52172406639139" lon="8.201526584471578"><ele>566.6666666666666</ele><time>2026-04-19T13:14:45.001Z</time></trkpt><trkpt lat="44.52167478633906" lon="8.201772896075338"><ele>569.0</ele><time>2026-04-19T13:14:46.001Z</time></trkpt><trkpt lat="44.52159890075638" lon="8.201977834907902"><ele>569.0</ele><time>2026-04-19T13:14:47.001Z</time></trkpt><trkpt lat="44.52150122741554" lon="8.202134559119735"><ele>569.0</ele><time>2026-04-19T13:14:48.001Z</time></trkpt><trkpt lat="44.521421477303775" lon="8.202289099566377"><ele>569.0</ele><time>2026-04-19T13:14:49.001Z</time></trkpt><trkpt lat="44.52134680777924" lon="8.202400624509488"><ele>569.0</ele><time>2026-04-19T13:14:50.001Z</time></trkpt><trkpt lat="44.52132306865033" lon="8.202518028538046"><ele>572.0</ele><time>2026-04-19T13:14:51.001Z</time></trkpt><trkpt lat="44.52134031271468" lon="8.202640304768481"><ele>575.0</ele><time>2026-04-19T13:14:52.001Z</time></trkpt><trkpt lat="44.5214015119926" lon="8.202767692917732"><ele>578.0</ele><time>2026-04-19T13:14:53.001Z</time></trkpt><trkpt lat="44.52149850838274" lon="8.20290638131727"><ele>581.0</ele><time>2026-04-19T13:14:54.001Z</time></trkpt><trkpt lat="44.521580453927704" lon="8.20309001817083"><ele>580.6666666666666</ele><time>2026-04-19T13:14:55.001Z</time></trkpt><trkpt lat="44.521665611975" lon="8.203277176345134"><ele>580.3333333333334</ele><time>2026-04-19T13:14:56.001Z</time></trkpt><trkpt lat="44.52172140542857" lon="8.203469527170308"><ele>580.0</ele><time>2026-04-19T13:14:57.001Z</time></trkpt><trkpt lat="44.52172715322193" lon="8.203670174790018"><ele>580.0</ele><time>2026-04-19T13:14:58.001Z</time></trkpt><trkpt lat="44.5217115311869" lon="8.203881563303543"><ele>580.0</ele><time>2026-04-19T13:14:59.001Z</time></trkpt><trkpt lat="44.521668565851115" lon="8.204093567223879"><ele>580.0</ele><time>2026-04-19T13:15:00.001Z</time></trkpt><trkpt lat="44.52160450611164" lon="8.204312699240235"><ele>580.6666666666667</ele><time>2026-04-19T13:15:01.001Z</time></trkpt><trkpt lat="44.52152144437236" lon="8.204537270485883"><ele>581.3333333333334</ele><time>2026-04-19T13:15:02.001Z</time></trkpt><trkpt lat="44.521417522159105" lon="8.20471488015415"><ele>582.0</ele><time>2026-04-19T13:15:03.001Z</time></trkpt><trkpt lat="44.521349318512634" lon="8.20487411768675"><ele>585.75</ele><time>2026-04-19T13:15:04.001Z</time></trkpt><trkpt lat="44.52129741016334" lon="8.205012875410572"><ele>589.5</ele><time>2026-04-19T13:15:05.001Z</time></trkpt><trkpt lat="44.52128172902534" lon="8.205181858577717"><ele>593.25</ele><time>2026-04-19T13:15:06.001Z</time></trkpt><trkpt lat="44.521272671266765" lon="8.2053894322523"><ele>597.0</ele><time>2026-04-19T13:15:07.001Z</time></trkpt><trkpt lat="44.52123391216241" lon="8.205606312404417"><ele>592.6666666666666</ele><time>2026-04-19T13:15:08.001Z</time></trkpt><trkpt lat="44.52115871657287" lon="8.20582183569751"><ele>588.3333333333333</ele><time>2026-04-19T13:15:09.001Z</time></trkpt><trkpt lat="44.521053423010585" lon="8.206007459435165"><ele>584.0</ele><time>2026-04-19T13:15:10.001Z</time></trkpt><trkpt lat="44.52092782403833" lon="8.206128977260974"><ele>584.0</ele><time>2026-04-19T13:15:11.001Z</time></trkpt><trkpt lat="44.52083017396277" lon="8.20624807748062"><ele>584.0</ele><time>2026-04-19T13:15:12.001Z</time></trkpt><trkpt lat="44.520729822501" lon="8.20632977779126"><ele>584.0</ele><time>2026-04-19T13:15:13.001Z</time></trkpt><trkpt lat="44.52065468695254" lon="8.206426816110357"><ele>584.0</ele><time>2026-04-19T13:15:14.001Z</time></trkpt><trkpt lat="44.52060984248889" lon="8.206557712137442"><ele>590.6666666666666</ele><time>2026-04-19T13:15:15.001Z</time></trkpt><trkpt lat="44.52058705972478" lon="8.206740764286366"><ele>597.3333333333334</ele><time>2026-04-19T13:15:16.001Z</time></trkpt><trkpt lat="44.52055293776272" lon="8.206956119823001"><ele>604.0</ele><time>2026-04-19T13:15:17.001Z</time></trkpt><trkpt lat="44.52052325286495" lon="8.207195941921135"><ele>607.6666666666667</ele><time>2026-04-19T13:15:18.001Z</time></trkpt><trkpt lat="44.52048667041192" lon="8.207447210445864"><ele>611.3333333333334</ele><time>2026-04-19T13:15:19.001Z</time></trkpt><trkpt lat="44.520446735980286" lon="8.207683242459332"><ele>615.0</ele><time>2026-04-19T13:15:20.001Z</time></trkpt><trkpt lat="44.52040681402995" lon="8.207891864228259"><ele>613.0</ele><time>2026-04-19T13:15:21.001Z</time></trkpt><trkpt lat="44.52033491128315" lon="8.208058197264716"><ele>611.0</ele><time>2026-04-19T13:15:22.001Z</time></trkpt><trkpt lat="44.52023258297942" lon="8.208169198689763"><ele>609.0</ele><time>2026-04-19T13:15:23.001Z</time></trkpt><trkpt lat="44.520129096871045" lon="8.208285556873145"><ele>607.0</ele><time>2026-04-19T13:15:24.001Z</time></trkpt><trkpt lat="44.52000200482743" lon="8.208388281308778"><ele>607.0</ele><time>2026-04-19T13:15:25.001Z</time></trkpt><trkpt lat="44.51987657304786" lon="8.208482336270619"><ele>607.0</ele><time>2026-04-19T13:15:26.001Z</time></trkpt><trkpt lat="44.51975195638308" lon="8.20854067466826"><ele>607.0</ele><time>2026-04-19T13:15:27.001Z</time></trkpt><trkpt lat="44.51962213408482" lon="8.208579718823001"><ele>607.0</ele><time>2026-04-19T13:15:28.001Z</time></trkpt><trkpt lat="44.51948792464129" lon="8.208633840428204"><ele>605.2</ele><time>2026-04-19T13:15:29.001Z</time></trkpt><trkpt lat="44.51935530616695" lon="8.208655715601315"><ele>603.4000000000001</ele><time>2026-04-19T13:15:30.001Z</time></trkpt><trkpt lat="44.51924508576172" lon="8.208687460532163"><ele>601.5999999999999</ele><time>2026-04-19T13:15:31.001Z</time></trkpt><trkpt lat="44.519156374903105" lon="8.208743686604402"><ele>599.8</ele><time>2026-04-19T13:15:32.001Z</time></trkpt><trkpt lat="44.519085334717346" lon="8.208835119469617"><ele>598.0</ele><time>2026-04-19T13:15:33.001Z</time></trkpt><trkpt lat="44.5190226098938" lon="8.208968350689833"><ele>601.5</ele><time>2026-04-19T13:15:34.001Z</time></trkpt><trkpt lat="44.51893240912028" lon="8.20910157903931"><ele>605.0</ele><time>2026-04-19T13:15:35.001Z</time></trkpt><trkpt lat="44.51884536603887" lon="8.20925203484258"><ele>608.5</ele><time>2026-04-19T13:15:36.001Z</time></trkpt><trkpt lat="44.51874237827443" lon="8.209384916413205"><ele>612.0</ele><time>2026-04-19T13:15:37.001Z</time></trkpt><trkpt lat="44.51862225110958" lon="8.209493434631487"><ele>612.0</ele><time>2026-04-19T13:15:38.001Z</time></trkpt><trkpt lat="44.51848628524542" lon="8.209570688731642"><ele>612.0</ele><time>2026-04-19T13:15:39.001Z</time></trkpt><trkpt lat="44.51833575599872" lon="8.209640038067878"><ele>612.0</ele><time>2026-04-19T13:15:40.001Z</time></trkpt><trkpt lat="44.5181771469886" lon="8.209700762209804"><ele>612.0</ele><time>2026-04-19T13:15:41.001Z</time></trkpt><trkpt lat="44.518014009567494" lon="8.209753803737456"><ele>612.0</ele><time>2026-04-19T13:15:42.001Z</time></trkpt><trkpt lat="44.51784818303843" lon="8.209828657442884"><ele>612.0</ele><time>2026-04-19T13:15:43.001Z</time></trkpt><trkpt lat="44.5176802844897" lon="8.209890676215545"><ele>615.75</ele><time>2026-04-19T13:15:44.001Z</time></trkpt><trkpt lat="44.51752977772707" lon="8.209949814623673"><ele>619.5</ele><time>2026-04-19T13:15:45.001Z</time></trkpt><trkpt lat="44.517448049248706" lon="8.210038736268496"><ele>623.25</ele><time>2026-04-19T13:15:46.001Z</time></trkpt><trkpt lat="44.51745736974386" lon="8.210171565514866"><ele>627.0</ele><time>2026-04-19T13:15:49.001Z</time></trkpt><trkpt lat="44.51757995109947" lon="8.21024954725299"><ele>627.0</ele><time>2026-04-19T13:15:51.001Z</time></trkpt><trkpt lat="44.517686985099964" lon="8.210219804391015"><ele>627.0</ele><time>2026-04-19T13:15:52.001Z</time></trkpt><trkpt lat="44.51780862806766" lon="8.210189284872106"><ele>627.0</ele><time>2026-04-19T13:15:53.001Z</time></trkpt><trkpt lat="44.51794246388909" lon="8.2101316878434"><ele>627.0</ele><time>2026-04-19T13:15:54.001Z</time></trkpt><trkpt lat="44.518100358082755" lon="8.210112142254896"><ele>629.6666666666666</ele><time>2026-04-19T13:15:55.001Z</time></trkpt><trkpt lat="44.51827450075364" lon="8.210088097324041"><ele>632.3333333333333</ele><time>2026-04-19T13:15:56.001Z</time></trkpt><trkpt lat="44.518451056781615" lon="8.210104736092408"><ele>635.0</ele><time>2026-04-19T13:15:57.001Z</time></trkpt><trkpt lat="44.518599270370274" lon="8.210104567264189"><ele>635.0</ele><time>2026-04-19T13:15:58.001Z</time></trkpt><trkpt lat="44.518719444176355" lon="8.210082298635216"><ele>635.0</ele><time>2026-04-19T13:15:59.001Z</time></trkpt><trkpt lat="44.51882148861637" lon="8.210078967533594"><ele>635.0</ele><time>2026-04-19T13:16:00.001Z</time></trkpt><trkpt lat="44.51892489093836" lon="8.210044617058573"><ele>635.0</ele><time>2026-04-19T13:16:01.001Z</time></trkpt><trkpt lat="44.519025642842784" lon="8.209969592492728"><ele>635.0</ele><time>2026-04-19T13:16:02.001Z</time></trkpt><trkpt lat="44.519124619365705" lon="8.209890428293338"><ele>635.8</ele><time>2026-04-19T13:16:03.001Z</time></trkpt><trkpt lat="44.51919861638678" lon="8.209821295115175"><ele>636.6</ele><time>2026-04-19T13:16:04.001Z</time></trkpt><trkpt lat="44.519268550964924" lon="8.209766502528785"><ele>637.4</ele><time>2026-04-19T13:16:05.001Z</time></trkpt><trkpt lat="44.519363494706624" lon="8.209779507917778"><ele>638.2</ele><time>2026-04-19T13:16:06.001Z</time></trkpt><trkpt lat="44.51946493105949" lon="8.209853610286341"><ele>639.0</ele><time>2026-04-19T13:16:07.001Z</time></trkpt><trkpt lat="44.519583951073294" lon="8.209919129108481"><ele>639.0</ele><time>2026-04-19T13:16:08.001Z</time></trkpt><trkpt lat="44.51971563687456" lon="8.209994017588217"><ele>639.0</ele><time>2026-04-19T13:16:09.001Z</time></trkpt><trkpt lat="44.51984912534076" lon="8.210069931362563"><ele>639.0</ele><time>2026-04-19T13:16:10.001Z</time></trkpt><trkpt lat="44.519961609614576" lon="8.21013390020843"><ele>639.0</ele><time>2026-04-19T13:16:11.001Z</time></trkpt><trkpt lat="44.520055782479616" lon="8.210193523689838"><ele>639.0</ele><time>2026-04-19T13:16:12.001Z</time></trkpt><trkpt lat="44.520140718513396" lon="8.210251003711674"><ele>639.0</ele><time>2026-04-19T13:16:13.001Z</time></trkpt><trkpt lat="44.52019699305573" lon="8.210369812841277"><ele>639.0</ele><time>2026-04-19T13:16:14.001Z</time></trkpt><trkpt lat="44.52020791297359" lon="8.210519441553004"><ele>639.0</ele><time>2026-04-19T13:16:15.001Z</time></trkpt><trkpt lat="44.52021205500952" lon="8.210680082696289"><ele>639.0</ele><time>2026-04-19T13:16:16.001Z</time></trkpt><trkpt lat="44.520216903307954" lon="8.210847578999514"><ele>642.25</ele><time>2026-04-19T13:16:17.001Z</time></trkpt><trkpt lat="44.520237027355606" lon="8.211018021177749"><ele>645.5</ele><time>2026-04-19T13:16:18.001Z</time></trkpt><trkpt lat="44.520244510465794" lon="8.21119311598377"><ele>648.75</ele><time>2026-04-19T13:16:19.001Z</time></trkpt><trkpt lat="44.52024830294934" lon="8.211369913078903"><ele>652.0</ele><time>2026-04-19T13:16:20.001Z</time></trkpt><trkpt lat="44.520252721001995" lon="8.211548795175567"><ele>653.0</ele><time>2026-04-19T13:16:21.001Z</time></trkpt><trkpt lat="44.52026066926538" lon="8.211718617206328"><ele>654.0</ele><time>2026-04-19T13:16:22.001Z</time></trkpt><trkpt lat="44.520254342727384" lon="8.211857698653393"><ele>655.0</ele><time>2026-04-19T13:16:23.001Z</time></trkpt><trkpt lat="44.52025849099794" lon="8.211970711638942"><ele>656.0</ele><time>2026-04-19T13:16:24.001Z</time></trkpt><trkpt lat="44.52021717985297" lon="8.212047756355748"><ele>657.0</ele><time>2026-04-19T13:16:25.001Z</time></trkpt><trkpt lat="44.52015806265288" lon="8.212079064590046"><ele>658.0</ele><time>2026-04-19T13:16:26.001Z</time></trkpt><trkpt lat="44.520091294605606" lon="8.21206502997901"><ele>658.0</ele><time>2026-04-19T13:16:27.001Z</time></trkpt><trkpt lat="44.52002706726005" lon="8.212007662692612"><ele>658.0</ele><time>2026-04-19T13:16:28.001Z</time></trkpt><trkpt lat="44.51998815224551" lon="8.211870330458556"><ele>658.0</ele><time>2026-04-19T13:16:29.002Z</time></trkpt><trkpt lat="44.519918858218816" lon="8.211734959256813"><ele>658.0</ele><time>2026-04-19T13:16:30.002Z</time></trkpt><trkpt lat="44.51982923542568" lon="8.211580997929806"><ele>658.0</ele><time>2026-04-19T13:16:31.002Z</time></trkpt><trkpt lat="44.51975714267889" lon="8.211418734663718"><ele>657.8</ele><time>2026-04-19T13:16:32.002Z</time></trkpt><trkpt lat="44.51968903646753" lon="8.211291425202353"><ele>657.5999999999999</ele><time>2026-04-19T13:16:33.002Z</time></trkpt><trkpt lat="44.519606240561174" lon="8.211187522028403"><ele>657.4000000000001</ele><time>2026-04-19T13:16:34.002Z</time></trkpt><trkpt lat="44.51950500721203" lon="8.211113066159232"><ele>657.2</ele><time>2026-04-19T13:16:35.002Z</time></trkpt><trkpt lat="44.519414154022535" lon="8.21105971517089"><ele>657.0</ele><time>2026-04-19T13:16:36.002Z</time></trkpt><trkpt lat="44.51933614882763" lon="8.211037570826106"><ele>657.0</ele><time>2026-04-19T13:16:37.002Z</time></trkpt><trkpt lat="44.51925680638003" lon="8.211053296797525"><ele>657.0</ele><time>2026-04-19T13:16:38.002Z</time></trkpt><trkpt lat="44.51916949232145" lon="8.211116870214727"><ele>657.0</ele><time>2026-04-19T13:16:39.001Z</time></trkpt><trkpt lat="44.51908390031757" lon="8.211219441275958"><ele>657.0</ele><time>2026-04-19T13:16:40.001Z</time></trkpt><trkpt lat="44.51898107715097" lon="8.211337864803978"><ele>657.0</ele><time>2026-04-19T13:16:41.001Z</time></trkpt><trkpt lat="44.518882472399156" lon="8.211488743839158"><ele>661.0</ele><time>2026-04-19T13:16:42.001Z</time></trkpt><trkpt lat="44.51876449426628" lon="8.211632387647281"><ele>665.0</ele><time>2026-04-19T13:16:43.001Z</time></trkpt><trkpt lat="44.5186269370621" lon="8.211761935808234"><ele>669.0</ele><time>2026-04-19T13:16:44.001Z</time></trkpt><trkpt lat="44.51847247572788" lon="8.211856560609185"><ele>669.0</ele><time>2026-04-19T13:16:45.001Z</time></trkpt><trkpt lat="44.5182978775425" lon="8.21189760064449"><ele>669.0</ele><time>2026-04-19T13:16:46.001Z</time></trkpt><trkpt lat="44.518113557026105" lon="8.211904932894747"><ele>669.0</ele><time>2026-04-19T13:16:47.001Z</time></trkpt><trkpt lat="44.517939827376864" lon="8.211923586354064"><ele>670.0</ele><time>2026-04-19T13:16:48.001Z</time></trkpt><trkpt lat="44.51778496580583" lon="8.211916489926656"><ele>671.0</ele><time>2026-04-19T13:16:49.001Z</time></trkpt><trkpt lat="44.51764432613566" lon="8.211914782049657"><ele>672.0</ele><time>2026-04-19T13:16:50.001Z</time></trkpt><trkpt lat="44.517503759132985" lon="8.211927784060544"><ele>673.0</ele><time>2026-04-19T13:16:51.001Z</time></trkpt><trkpt lat="44.51736202197468" lon="8.211987932283709"><ele>673.0</ele><time>2026-04-19T13:16:52.001Z</time></trkpt><trkpt lat="44.51720964498545" lon="8.212065359594472"><ele>673.0</ele><time>2026-04-19T13:16:53.001Z</time></trkpt><trkpt lat="44.51706478422819" lon="8.212174284784407"><ele>673.0</ele><time>2026-04-19T13:16:54.001Z</time></trkpt><trkpt lat="44.516932184739204" lon="8.21225241137852"><ele>672.75</ele><time>2026-04-19T13:16:55.001Z</time></trkpt><trkpt lat="44.51680325761079" lon="8.212305292905247"><ele>672.5</ele><time>2026-04-19T13:16:56.001Z</time></trkpt><trkpt lat="44.51667010621579" lon="8.212345208864754"><ele>672.25</ele><time>2026-04-19T13:16:57.001Z</time></trkpt><trkpt lat="44.51653755014796" lon="8.212311317664623"><ele>672.0</ele><time>2026-04-19T13:16:58.001Z</time></trkpt><trkpt lat="44.516433443120654" lon="8.212244127023913"><ele>672.0</ele><time>2026-04-19T13:16:59.001Z</time></trkpt><trkpt lat="44.51634771233459" lon="8.212192861041709"><ele>672.0</ele><time>2026-04-19T13:17:00.001Z</time></trkpt><trkpt lat="44.51627488705662" lon="8.212190790233109"><ele>672.0</ele><time>2026-04-19T13:17:01.001Z</time></trkpt><trkpt lat="44.516175112381106" lon="8.212279311930564"><ele>672.0</ele><time>2026-04-19T13:17:03.001Z</time></trkpt><trkpt lat="44.51617640885711" lon="8.212375289505863"><ele>672.0</ele><time>2026-04-19T13:17:04.001Z</time></trkpt><trkpt lat="44.516327038451294" lon="8.212478503696154"><ele>678.25</ele><time>2026-04-19T13:17:06.001Z</time></trkpt><trkpt lat="44.51641879193301" lon="8.212523791534506"><ele>684.5</ele><time>2026-04-19T13:17:07.001Z</time></trkpt><trkpt lat="44.516518884304496" lon="8.212604031549578"><ele>690.75</ele><time>2026-04-19T13:17:08.001Z</time></trkpt><trkpt lat="44.516624276484656" lon="8.21272538702833"><ele>697.0</ele><time>2026-04-19T13:17:09.001Z</time></trkpt><trkpt lat="44.51672718215512" lon="8.21288633346481"><ele>697.0</ele><time>2026-04-19T13:17:10.001Z</time></trkpt><trkpt lat="44.51684882121539" lon="8.213049039649697"><ele>697.0</ele><time>2026-04-19T13:17:11.001Z</time></trkpt><trkpt lat="44.51696978511748" lon="8.21322648263046"><ele>697.0</ele><time>2026-04-19T13:17:12.001Z</time></trkpt><trkpt lat="44.51708940141999" lon="8.21341867891412"><ele>699.0</ele><time>2026-04-19T13:17:13.001Z</time></trkpt><trkpt lat="44.51720077250028" lon="8.213621937058594"><ele>701.0</ele><time>2026-04-19T13:17:14.001Z</time></trkpt><trkpt lat="44.51731496021399" lon="8.213806469069393"><ele>703.0</ele><time>2026-04-19T13:17:15.001Z</time></trkpt><trkpt lat="44.517411160152584" lon="8.214015810385133"><ele>707.3333333333334</ele><time>2026-04-19T13:17:16.001Z</time></trkpt><trkpt lat="44.51750008760754" lon="8.214195701257857"><ele>711.6666666666666</ele><time>2026-04-19T13:17:17.001Z</time></trkpt><trkpt lat="44.51758976164317" lon="8.214386957797785"><ele>716.0</ele><time>2026-04-19T13:17:18.001Z</time></trkpt><trkpt lat="44.5176838823617" lon="8.214590900584321"><ele>716.0</ele><time>2026-04-19T13:17:19.001Z</time></trkpt><trkpt lat="44.517772679296236" lon="8.214806213140406"><ele>716.0</ele><time>2026-04-19T13:17:20.001Z</time></trkpt><trkpt lat="44.51785334939581" lon="8.21503151553089"><ele>716.0</ele><time>2026-04-19T13:17:21.001Z</time></trkpt><trkpt lat="44.51792520076879" lon="8.215262100436162"><ele>715.0</ele><time>2026-04-19T13:17:22.001Z</time></trkpt><trkpt lat="44.5179916705675" lon="8.215503356768073"><ele>714.0</ele><time>2026-04-19T13:17:23.001Z</time></trkpt><trkpt lat="44.51806927692712" lon="8.215747607747987"><ele>713.0</ele><time>2026-04-19T13:17:24.001Z</time></trkpt><trkpt lat="44.51816748807076" lon="8.215979167847559"><ele>717.3333333333333</ele><time>2026-04-19T13:17:25.001Z</time></trkpt><trkpt lat="44.51826657766868" lon="8.216213446793308"><ele>721.6666666666666</ele><time>2026-04-19T13:17:26.001Z</time></trkpt><trkpt lat="44.51837467189884" lon="8.216433166289235"><ele>726.0</ele><time>2026-04-19T13:17:27.001Z</time></trkpt><trkpt lat="44.5184881900836" lon="8.216628288619232"><ele>723.6666666666666</ele><time>2026-04-19T13:17:28.001Z</time></trkpt><trkpt lat="44.518591797809115" lon="8.21680052874804"><ele>721.3333333333333</ele><time>2026-04-19T13:17:29.001Z</time></trkpt><trkpt lat="44.518655382905415" lon="8.217008630972488"><ele>719.0</ele><time>2026-04-19T13:17:30.001Z</time></trkpt><trkpt lat="44.518736202406224" lon="8.217218839183268"><ele>723.0</ele><time>2026-04-19T13:17:31.001Z</time></trkpt><trkpt lat="44.51882118178536" lon="8.217437769110989"><ele>727.0</ele><time>2026-04-19T13:17:32.001Z</time></trkpt><trkpt lat="44.51891143535239" lon="8.217661756269543"><ele>731.0</ele><time>2026-04-19T13:17:33.001Z</time></trkpt><trkpt lat="44.51901179011034" lon="8.21788643924656"><ele>731.0</ele><time>2026-04-19T13:17:34.001Z</time></trkpt><trkpt lat="44.51913427056687" lon="8.218106722093495"><ele>731.0</ele><time>2026-04-19T13:17:35.001Z</time></trkpt><trkpt lat="44.51923881642982" lon="8.218330099816566"><ele>731.0</ele><time>2026-04-19T13:17:36.001Z</time></trkpt><trkpt lat="44.51932563585194" lon="8.218552945361866"><ele>733.0</ele><time>2026-04-19T13:17:37.001Z</time></trkpt><trkpt lat="44.51941554768437" lon="8.218739017007879"><ele>735.0</ele><time>2026-04-19T13:17:38.001Z</time></trkpt><trkpt lat="44.51949840618914" lon="8.218895962043652"><ele>737.0</ele><time>2026-04-19T13:17:39.001Z</time></trkpt><trkpt lat="44.519566666202664" lon="8.219030671924177"><ele>739.0</ele><time>2026-04-19T13:17:40.001Z</time></trkpt><trkpt lat="44.51962036955511" lon="8.21915998988428"><ele>739.0</ele><time>2026-04-19T13:17:41.001Z</time></trkpt><trkpt lat="44.51966320794745" lon="8.219285188759622"><ele>739.0</ele><time>2026-04-19T13:17:42.001Z</time></trkpt><trkpt lat="44.51969412096663" lon="8.219411196190189"><ele>739.0</ele><time>2026-04-19T13:17:43.001Z</time></trkpt><trkpt lat="44.51970764684071" lon="8.219521116981937"><ele>739.0</ele><time>2026-04-19T13:17:44.001Z</time></trkpt><trkpt lat="44.51971762219346" lon="8.219646270691065"><ele>739.0</ele><time>2026-04-19T13:17:45.001Z</time></trkpt><trkpt lat="44.51972010820695" lon="8.219766978163738"><ele>739.0</ele><time>2026-04-19T13:17:46.001Z</time></trkpt><trkpt lat="44.519713833021584" lon="8.219883133376573"><ele>740.8333333333334</ele><time>2026-04-19T13:17:47.001Z</time></trkpt><trkpt lat="44.51969673361602" lon="8.219994298826307"><ele>742.6666666666667</ele><time>2026-04-19T13:17:48.001Z</time></trkpt><trkpt lat="44.51965248893862" lon="8.220164536257128"><ele>744.5</ele><time>2026-04-19T13:17:50.001Z</time></trkpt><trkpt lat="44.5196242651447" lon="8.220247609520735"><ele>746.3333333333334</ele><time>2026-04-19T13:17:52.001Z</time></trkpt><trkpt lat="44.51957062997369" lon="8.220333901984116"><ele>748.1666666666666</ele><time>2026-04-19T13:17:55.001Z</time></trkpt><trkpt lat="44.519493804280955" lon="8.220369273746082"><ele>750.0</ele><time>2026-04-19T13:17:58.001Z</time></trkpt><trkpt lat="44.51940626979844" lon="8.22038062346824"><ele>750.6666666666666</ele><time>2026-04-19T13:18:01.001Z</time></trkpt><trkpt lat="44.51933640308873" lon="8.220368478964602"><ele>751.3333333333334</ele><time>2026-04-19T13:18:03.001Z</time></trkpt><trkpt lat="44.51925343484626" lon="8.220354217232835"><ele>752.0</ele><time>2026-04-19T13:18:06.001Z</time></trkpt><trkpt lat="44.51917483129758" lon="8.220300248619047"><ele>752.6666666666667</ele><time>2026-04-19T13:18:09.001Z</time></trkpt><trkpt lat="44.51909307502771" lon="8.220281529393862"><ele>753.3333333333334</ele><time>2026-04-19T13:18:11.001Z</time></trkpt><trkpt lat="44.51900679020187" lon="8.220214779620271"><ele>754.0</ele><time>2026-04-19T13:18:13.001Z</time></trkpt><trkpt lat="44.518896941021815" lon="8.22013629666186"><ele>754.0</ele><time>2026-04-19T13:18:15.001Z</time></trkpt><trkpt lat="44.518830665825604" lon="8.220097480064851"><ele>754.0</ele><time>2026-04-19T13:18:16.001Z</time></trkpt><trkpt lat="44.51876343321897" lon="8.2200757405493"><ele>754.0</ele><time>2026-04-19T13:18:17.001Z</time></trkpt><trkpt lat="44.51869192356271" lon="8.22004843256205"><ele>754.0</ele><time>2026-04-19T13:18:18.001Z</time></trkpt><trkpt lat="44.51860688631179" lon="8.22007276759004"><ele>754.0</ele><time>2026-04-19T13:18:19.001Z</time></trkpt><trkpt lat="44.518538355643955" lon="8.2201512128197"><ele>754.0</ele><time>2026-04-19T13:18:20.001Z</time></trkpt><trkpt lat="44.51846454920042" lon="8.220209271642696"><ele>754.1666666666667</ele><time>2026-04-19T13:18:21.001Z</time></trkpt><trkpt lat="44.51838611097757" lon="8.220263361975288"><ele>754.3333333333334</ele><time>2026-04-19T13:18:22.001Z</time></trkpt><trkpt lat="44.51830237624388" lon="8.220306811986113"><ele>754.5</ele><time>2026-04-19T13:18:23.001Z</time></trkpt><trkpt lat="44.51822152414127" lon="8.220344993627817"><ele>754.6666666666666</ele><time>2026-04-19T13:18:24.001Z</time></trkpt><trkpt lat="44.5181389165018" lon="8.220376672311453"><ele>754.8333333333333</ele><time>2026-04-19T13:18:25.001Z</time></trkpt><trkpt lat="44.51806666908621" lon="8.220464379769345"><ele>755.0</ele><time>2026-04-19T13:18:26.001Z</time></trkpt><trkpt lat="44.51803550679638" lon="8.220596672103655"><ele>752.4</ele><time>2026-04-19T13:18:27.001Z</time></trkpt><trkpt lat="44.518015994132185" lon="8.220720501044838"><ele>749.8</ele><time>2026-04-19T13:18:28.001Z</time></trkpt><trkpt lat="44.518001493500925" lon="8.220870797158227"><ele>747.2</ele><time>2026-04-19T13:18:29.001Z</time></trkpt><trkpt lat="44.51796967758171" lon="8.221017427930715"><ele>744.6</ele><time>2026-04-19T13:18:30.001Z</time></trkpt><trkpt lat="44.51794623142929" lon="8.221167393896831"><ele>742.0</ele><time>2026-04-19T13:18:31.001Z</time></trkpt><trkpt lat="44.51792610233871" lon="8.221316575509704"><ele>742.0</ele><time>2026-04-19T13:18:32.001Z</time></trkpt><trkpt lat="44.517922448919364" lon="8.221469848809873"><ele>742.0</ele><time>2026-04-19T13:18:33.001Z</time></trkpt><trkpt lat="44.51789473254995" lon="8.221613023340733"><ele>742.0</ele><time>2026-04-19T13:18:34.001Z</time></trkpt><trkpt lat="44.517869705250746" lon="8.221750405588951"><ele>742.0</ele><time>2026-04-19T13:18:35.001Z</time></trkpt><trkpt lat="44.51781736136912" lon="8.221870429963396"><ele>742.0</ele><time>2026-04-19T13:18:36.001Z</time></trkpt><trkpt lat="44.517768462617255" lon="8.221998902439445"><ele>742.0</ele><time>2026-04-19T13:18:37.001Z</time></trkpt><trkpt lat="44.51770946360067" lon="8.22214093357698"><ele>742.0</ele><time>2026-04-19T13:18:38.001Z</time></trkpt><trkpt lat="44.51763969482124" lon="8.222299207905614"><ele>742.0</ele><time>2026-04-19T13:18:39.001Z</time></trkpt><trkpt lat="44.51757123243167" lon="8.222470808148795"><ele>742.0</ele><time>2026-04-19T13:18:40.001Z</time></trkpt><trkpt lat="44.517493754631175" lon="8.222649573182384"><ele>742.0</ele><time>2026-04-19T13:18:41.001Z</time></trkpt><trkpt lat="44.51741030170428" lon="8.222827852871019"><ele>742.0</ele><time>2026-04-19T13:18:42.001Z</time></trkpt><trkpt lat="44.51732830908158" lon="8.222994616776887"><ele>742.0</ele><time>2026-04-19T13:18:43.001Z</time></trkpt><trkpt lat="44.51724966586888" lon="8.223136283217105"><ele>742.0</ele><time>2026-04-19T13:18:44.001Z</time></trkpt><trkpt lat="44.517179649209794" lon="8.223250522129733"><ele>741.0</ele><time>2026-04-19T13:18:45.001Z</time></trkpt><trkpt lat="44.51711410797725" lon="8.223345692146735"><ele>740.0</ele><time>2026-04-19T13:18:46.001Z</time></trkpt><trkpt lat="44.51704572823732" lon="8.223423684256916"><ele>739.0</ele><time>2026-04-19T13:18:47.001Z</time></trkpt><trkpt lat="44.51696746539747" lon="8.223486043137388"><ele>738.0</ele><time>2026-04-19T13:18:48.001Z</time></trkpt><trkpt lat="44.516867847180485" lon="8.22347063374538"><ele>737.0</ele><time>2026-04-19T13:18:49.001Z</time></trkpt><trkpt lat="44.5167621455465" lon="8.223492340737351"><ele>737.0</ele><time>2026-04-19T13:18:50.001Z</time></trkpt><trkpt lat="44.516653582582826" lon="8.223551155756011"><ele>737.0</ele><time>2026-04-19T13:18:51.001Z</time></trkpt><trkpt lat="44.51654166888865" lon="8.223602093420991"><ele>737.0</ele><time>2026-04-19T13:18:52.001Z</time></trkpt><trkpt lat="44.51643971324333" lon="8.223657351670658"><ele>737.0</ele><time>2026-04-19T13:18:53.001Z</time></trkpt><trkpt lat="44.51634885342215" lon="8.223708742470613"><ele>737.0</ele><time>2026-04-19T13:18:54.001Z</time></trkpt><trkpt lat="44.51626114800227" lon="8.223740129057164"><ele>736.6</ele><time>2026-04-19T13:18:55.001Z</time></trkpt><trkpt lat="44.516169969094086" lon="8.223734880496444"><ele>736.2</ele><time>2026-04-19T13:18:56.001Z</time></trkpt><trkpt lat="44.51607769560754" lon="8.223697361485495"><ele>735.8</ele><time>2026-04-19T13:18:57.001Z</time></trkpt><trkpt lat="44.51599618541589" lon="8.223595000277175"><ele>735.4</ele><time>2026-04-19T13:18:58.001Z</time></trkpt><trkpt lat="44.51589286341434" lon="8.223564049604208"><ele>735.0</ele><time>2026-04-19T13:18:59.001Z</time></trkpt><trkpt lat="44.51578833598595" lon="8.223528393213753"><ele>735.0</ele><time>2026-04-19T13:19:00.001Z</time></trkpt><trkpt lat="44.515681377560036" lon="8.223503196789512"><ele>735.0</ele><time>2026-04-19T13:19:01.001Z</time></trkpt><trkpt lat="44.51557632365771" lon="8.223500012648508"><ele>735.0</ele><time>2026-04-19T13:19:02.001Z</time></trkpt><trkpt lat="44.51547686475869" lon="8.22352434472767"><ele>735.0</ele><time>2026-04-19T13:19:03.001Z</time></trkpt><trkpt lat="44.51538494787853" lon="8.223581283514427"><ele>735.0</ele><time>2026-04-19T13:19:04.001Z</time></trkpt><trkpt lat="44.515294408945095" lon="8.22360410671969"><ele>733.0</ele><time>2026-04-19T13:19:05.001Z</time></trkpt><trkpt lat="44.51520884049392" lon="8.22362172059907"><ele>731.0</ele><time>2026-04-19T13:19:06.001Z</time></trkpt><trkpt lat="44.515121038835" lon="8.223628363592825"><ele>729.0</ele><time>2026-04-19T13:19:07.001Z</time></trkpt><trkpt lat="44.51503063081576" lon="8.223572095204755"><ele>727.0</ele><time>2026-04-19T13:19:08.001Z</time></trkpt><trkpt lat="44.514933829640256" lon="8.223517371249745"><ele>725.0</ele><time>2026-04-19T13:19:09.001Z</time></trkpt><trkpt lat="44.514834642639286" lon="8.223470603160358"><ele>725.0</ele><time>2026-04-19T13:19:10.001Z</time></trkpt><trkpt lat="44.51473288226867" lon="8.223451536996201"><ele>725.0</ele><time>2026-04-19T13:19:11.001Z</time></trkpt><trkpt lat="44.51463449524621" lon="8.22345863441387"><ele>725.0</ele><time>2026-04-19T13:19:12.001Z</time></trkpt><trkpt lat="44.514541681472" lon="8.223465342373418"><ele>725.0</ele><time>2026-04-19T13:19:13.001Z</time></trkpt><trkpt lat="44.51445145109745" lon="8.223444174894325"><ele>725.0</ele><time>2026-04-19T13:19:14.001Z</time></trkpt><trkpt lat="44.51436116948641" lon="8.223393249307541"><ele>724.8</ele><time>2026-04-19T13:19:15.001Z</time></trkpt><trkpt lat="44.51427322988233" lon="8.223318280102363"><ele>724.6</ele><time>2026-04-19T13:19:16.001Z</time></trkpt><trkpt lat="44.51418924053722" lon="8.22322376605177"><ele>724.4000000000001</ele><time>2026-04-19T13:19:17.001Z</time></trkpt><trkpt lat="44.51411144638666" lon="8.223111580742563"><ele>724.2</ele><time>2026-04-19T13:19:18.001Z</time></trkpt><trkpt lat="44.514036510355155" lon="8.222992119344891"><ele>724.0</ele><time>2026-04-19T13:19:19.001Z</time></trkpt><trkpt lat="44.51395734635919" lon="8.222878368850179"><ele>724.0</ele><time>2026-04-19T13:19:20.001Z</time></trkpt><trkpt lat="44.513874223162254" lon="8.222774677582466"><ele>724.0</ele><time>2026-04-19T13:19:21.001Z</time></trkpt><trkpt lat="44.513776844856544" lon="8.222684751108499"><ele>724.0</ele><time>2026-04-19T13:19:22.001Z</time></trkpt><trkpt lat="44.51366626887206" lon="8.222605713460345"><ele>724.0</ele><time>2026-04-19T13:19:23.001Z</time></trkpt><trkpt lat="44.51355413990309" lon="8.222541763293917"><ele>718.4000000000001</ele><time>2026-04-19T13:19:24.001Z</time></trkpt><trkpt lat="44.51344522570717" lon="8.22249089113908"><ele>712.8</ele><time>2026-04-19T13:19:25.001Z</time></trkpt><trkpt lat="44.51334129379579" lon="8.222450102412695"><ele>707.2</ele><time>2026-04-19T13:19:26.001Z</time></trkpt><trkpt lat="44.51325345275218" lon="8.222405947790769"><ele>701.5999999999999</ele><time>2026-04-19T13:19:27.001Z</time></trkpt><trkpt lat="44.51318110549792" lon="8.222345670285502"><ele>696.0</ele><time>2026-04-19T13:19:28.001Z</time></trkpt><trkpt lat="44.51312664066092" lon="8.222273758277666"><ele>696.0</ele><time>2026-04-19T13:19:29.001Z</time></trkpt><trkpt lat="44.51309774070925" lon="8.2221854961589"><ele>696.0</ele><time>2026-04-19T13:19:30.001Z</time></trkpt><trkpt lat="44.51309327287537" lon="8.22208302541972"><ele>696.0</ele><time>2026-04-19T13:19:31.001Z</time></trkpt><trkpt lat="44.51313485956587" lon="8.22197716018381"><ele>696.0</ele><time>2026-04-19T13:19:32.001Z</time></trkpt><trkpt lat="44.51314546921412" lon="8.221852498692943"><ele>696.0</ele><time>2026-04-19T13:19:33.001Z</time></trkpt><trkpt lat="44.513174245164684" lon="8.22174379498346"><ele>696.0</ele><time>2026-04-19T13:19:34.001Z</time></trkpt><trkpt lat="44.51317670929471" lon="8.221649529352023"><ele>696.0</ele><time>2026-04-19T13:19:35.001Z</time></trkpt><trkpt lat="44.513092637575554" lon="8.22153427557744"><ele>696.0</ele><time>2026-04-19T13:19:37.001Z</time></trkpt><trkpt lat="44.512965129107364" lon="8.221521834897459"><ele>696.0</ele><time>2026-04-19T13:19:39.001Z</time></trkpt><trkpt lat="44.51290756668452" lon="8.221678275920683"><ele>696.0</ele><time>2026-04-19T13:19:40.001Z</time></trkpt><trkpt lat="44.51285024756015" lon="8.22179995872017"><ele>693.1999999999999</ele><time>2026-04-19T13:19:41.001Z</time></trkpt><trkpt lat="44.512787080178406" lon="8.221933380206186"><ele>690.4</ele><time>2026-04-19T13:19:42.001Z</time></trkpt><trkpt lat="44.512722812861206" lon="8.22206676613419"><ele>687.6</ele><time>2026-04-19T13:19:43.001Z</time></trkpt><trkpt lat="44.51266156049377" lon="8.222182563322278"><ele>684.8</ele><time>2026-04-19T13:19:44.001Z</time></trkpt><trkpt lat="44.51261550515404" lon="8.222281926757143"><ele>682.0</ele><time>2026-04-19T13:19:45.001Z</time></trkpt><trkpt lat="44.512584330170505" lon="8.222379283549776"><ele>682.0</ele><time>2026-04-19T13:19:46.001Z</time></trkpt><trkpt lat="44.51256290542411" lon="8.222481787686686"><ele>682.0</ele><time>2026-04-19T13:19:47.001Z</time></trkpt><trkpt lat="44.51260210539114" lon="8.222590021092246"><ele>682.0</ele><time>2026-04-19T13:19:48.001Z</time></trkpt><trkpt lat="44.512691814911705" lon="8.222650450838643"><ele>682.0</ele><time>2026-04-19T13:19:49Z</time></trkpt><trkpt lat="44.51278369747591" lon="8.222691675969589"><ele>682.0</ele><time>2026-04-19T13:19:50Z</time></trkpt><trkpt lat="44.512882587389" lon="8.222750848959251"><ele>685.25</ele><time>2026-04-19T13:19:51Z</time></trkpt><trkpt lat="44.51298830415361" lon="8.222804748047631"><ele>688.5</ele><time>2026-04-19T13:19:52Z</time></trkpt><trkpt lat="44.513106005306746" lon="8.222850413760062"><ele>691.75</ele><time>2026-04-19T13:19:53Z</time></trkpt><trkpt lat="44.513211901024874" lon="8.2229666459068"><ele>695.0</ele><time>2026-04-19T13:19:54Z</time></trkpt><trkpt lat="44.51331698347633" lon="8.223084608587106"><ele>690.8</ele><time>2026-04-19T13:19:55Z</time></trkpt><trkpt lat="44.51342150928997" lon="8.22319921462363"><ele>686.6</ele><time>2026-04-19T13:19:56Z</time></trkpt><trkpt lat="44.51348507352743" lon="8.223334927263378"><ele>682.4000000000001</ele><time>2026-04-19T13:19:57Z</time></trkpt><trkpt lat="44.51354622152094" lon="8.223432260363692"><ele>678.2</ele><time>2026-04-19T13:19:58Z</time></trkpt><trkpt lat="44.513591952939926" lon="8.223501218310687"><ele>674.0</ele><time>2026-04-19T13:19:59Z</time></trkpt><trkpt lat="44.51365687908436" lon="8.223566883102205"><ele>674.0</ele><time>2026-04-19T13:20:01Z</time></trkpt><trkpt lat="44.51357607958528" lon="8.223511507897749"><ele>674.0</ele><time>2026-04-19T13:21:00Z</time></trkpt><trkpt lat="44.51349540667907" lon="8.223387145310728"><ele>674.0</ele><time>2026-04-19T13:21:02Z</time></trkpt><trkpt lat="44.513445327980115" lon="8.223306316381116"><ele>674.0</ele><time>2026-04-19T13:21:03Z</time></trkpt><trkpt lat="44.513312049244774" lon="8.223206377196519"><ele>674.0</ele><time>2026-04-19T13:21:04Z</time></trkpt><trkpt lat="44.51322568708093" lon="8.223132455659998"><ele>675.6</ele><time>2026-04-19T13:21:05Z</time></trkpt><trkpt lat="44.51313817051054" lon="8.223077706312448"><ele>677.2</ele><time>2026-04-19T13:21:06Z</time></trkpt><trkpt lat="44.51305732074146" lon="8.223016621053507"><ele>678.8000000000001</ele><time>2026-04-19T13:21:07Z</time></trkpt><trkpt lat="44.512967725895265" lon="8.22299568942089"><ele>680.4000000000001</ele><time>2026-04-19T13:21:08Z</time></trkpt><trkpt lat="44.512869926725934" lon="8.222997903052192"><ele>682.0</ele><time>2026-04-19T13:21:09Z</time></trkpt><trkpt lat="44.51277617470727" lon="8.223037009975583"><ele>682.0</ele><time>2026-04-19T13:21:10Z</time></trkpt><trkpt lat="44.512683044010465" lon="8.223082463873602"><ele>682.0</ele><time>2026-04-19T13:21:11Z</time></trkpt><trkpt lat="44.51257645273061" lon="8.223043456598301"><ele>682.0</ele><time>2026-04-19T13:21:12Z</time></trkpt><trkpt lat="44.512473644670166" lon="8.223015876980046"><ele>682.0</ele><time>2026-04-19T13:21:13Z</time></trkpt><trkpt lat="44.51236079229989" lon="8.22300093199885"><ele>682.0</ele><time>2026-04-19T13:21:14Z</time></trkpt><trkpt lat="44.512245937903195" lon="8.223015403551921"><ele>682.0</ele><time>2026-04-19T13:21:15Z</time></trkpt><trkpt lat="44.51214458889262" lon="8.223035625939978"><ele>682.0</ele><time>2026-04-19T13:21:16Z</time></trkpt><trkpt lat="44.51205225910339" lon="8.223065300339291"><ele>682.0</ele><time>2026-04-19T13:21:17Z</time></trkpt><trkpt lat="44.5119687895704" lon="8.223122960142446"><ele>682.0</ele><time>2026-04-19T13:21:18Z</time></trkpt><trkpt lat="44.511893690314174" lon="8.223218862829375"><ele>682.0</ele><time>2026-04-19T13:21:19Z</time></trkpt><trkpt lat="44.511826582956886" lon="8.223318878444923"><ele>679.5</ele><time>2026-04-19T13:21:20Z</time></trkpt><trkpt lat="44.511764805954364" lon="8.223411240732572"><ele>677.0</ele><time>2026-04-19T13:21:21Z</time></trkpt><trkpt lat="44.51170470708536" lon="8.223500202872243"><ele>674.5</ele><time>2026-04-19T13:21:22Z</time></trkpt><trkpt lat="44.511647799364795" lon="8.223576808169128"><ele>672.0</ele><time>2026-04-19T13:21:23Z</time></trkpt><trkpt lat="44.511588398193005" lon="8.22363675494984"><ele>669.5</ele><time>2026-04-19T13:21:24Z</time></trkpt><trkpt lat="44.51152129322128" lon="8.22366358744946"><ele>667.0</ele><time>2026-04-19T13:21:25Z</time></trkpt><trkpt lat="44.51144909128418" lon="8.223651936797902"><ele>667.0</ele><time>2026-04-19T13:21:26Z</time></trkpt><trkpt lat="44.51137295463707" lon="8.223623156239745"><ele>667.0</ele><time>2026-04-19T13:21:27Z</time></trkpt><trkpt lat="44.511304952095244" lon="8.223553956884517"><ele>667.0</ele><time>2026-04-19T13:21:28Z</time></trkpt><trkpt lat="44.51123462863885" lon="8.223449816401855"><ele>667.0</ele><time>2026-04-19T13:21:29Z</time></trkpt><trkpt lat="44.51116293083194" lon="8.223321789855166"><ele>667.0</ele><time>2026-04-19T13:21:30Z</time></trkpt><trkpt lat="44.51107093440757" lon="8.223167852899628"><ele>664.25</ele><time>2026-04-19T13:21:31Z</time></trkpt><trkpt lat="44.5109688022441" lon="8.223032313890236"><ele>661.5</ele><time>2026-04-19T13:21:32Z</time></trkpt><trkpt lat="44.51088157197225" lon="8.222917323507014"><ele>658.75</ele><time>2026-04-19T13:21:33Z</time></trkpt><trkpt lat="44.510813881252474" lon="8.222799679840598"><ele>656.0</ele><time>2026-04-19T13:21:34Z</time></trkpt><trkpt lat="44.510751384301315" lon="8.222678445026645"><ele>656.0</ele><time>2026-04-19T13:21:35Z</time></trkpt><trkpt lat="44.51067979569094" lon="8.222550610276667"><ele>656.0</ele><time>2026-04-19T13:21:36Z</time></trkpt><trkpt lat="44.510647762016085" lon="8.222380655597933"><ele>656.0</ele><time>2026-04-19T13:21:37Z</time></trkpt><trkpt lat="44.51059472125391" lon="8.222225989592808"><ele>656.0</ele><time>2026-04-19T13:21:38Z</time></trkpt><trkpt lat="44.51055957151452" lon="8.2220702169108"><ele>655.4</ele><time>2026-04-19T13:21:39Z</time></trkpt><trkpt lat="44.51052429368891" lon="8.221927220790613"><ele>654.8</ele><time>2026-04-19T13:21:40Z</time></trkpt><trkpt lat="44.51050551328091" lon="8.221796909868354"><ele>654.1999999999999</ele><time>2026-04-19T13:21:41Z</time></trkpt><trkpt lat="44.5104620469293" lon="8.221677967368267"><ele>653.5999999999999</ele><time>2026-04-19T13:21:42Z</time></trkpt><trkpt lat="44.51038900597879" lon="8.221573519279406"><ele>653.0</ele><time>2026-04-19T13:21:43Z</time></trkpt><trkpt lat="44.51027353672014" lon="8.221508788770121"><ele>649.5</ele><time>2026-04-19T13:21:44Z</time></trkpt><trkpt lat="44.51015401379893" lon="8.221445829280063"><ele>646.0</ele><time>2026-04-19T13:21:45Z</time></trkpt><trkpt lat="44.510025036254426" lon="8.221377889720276"><ele>642.5</ele><time>2026-04-19T13:21:46Z</time></trkpt><trkpt lat="44.50988933331137" lon="8.221311288240374"><ele>639.0</ele><time>2026-04-19T13:21:47Z</time></trkpt><trkpt lat="44.50975032155611" lon="8.221245307373056"><ele>639.0</ele><time>2026-04-19T13:21:48Z</time></trkpt><trkpt lat="44.50960030616592" lon="8.221207631416986"><ele>639.0</ele><time>2026-04-19T13:21:49Z</time></trkpt><trkpt lat="44.50945574315822" lon="8.221146047525778"><ele>639.0</ele><time>2026-04-19T13:21:50Z</time></trkpt><trkpt lat="44.50931383774373" lon="8.22108696427435"><ele>640.0</ele><time>2026-04-19T13:21:51Z</time></trkpt><trkpt lat="44.50918956732928" lon="8.220999893814591"><ele>641.0</ele><time>2026-04-19T13:21:52Z</time></trkpt><trkpt lat="44.509065240088454" lon="8.220935482567898"><ele>642.0</ele><time>2026-04-19T13:21:53Z</time></trkpt><trkpt lat="44.50894663868149" lon="8.220876446515717"><ele>643.0</ele><time>2026-04-19T13:21:54Z</time></trkpt><trkpt lat="44.50882556585383" lon="8.220844009725077"><ele>644.5</ele><time>2026-04-19T13:21:55Z</time></trkpt><trkpt lat="44.50871641702112" lon="8.22078861427133"><ele>646.0</ele><time>2026-04-19T13:21:56Z</time></trkpt><trkpt lat="44.508602078221685" lon="8.220745118376762"><ele>647.5</ele><time>2026-04-19T13:21:57Z</time></trkpt><trkpt lat="44.50848556373387" lon="8.220678313968225"><ele>649.0</ele><time>2026-04-19T13:21:58Z</time></trkpt><trkpt lat="44.50836540479778" lon="8.220624334005159"><ele>649.0</ele><time>2026-04-19T13:21:59Z</time></trkpt><trkpt lat="44.50824496983281" lon="8.220566876220856"><ele>649.0</ele><time>2026-04-19T13:22:00Z</time></trkpt><trkpt lat="44.508128233688325" lon="8.22049986537372"><ele>649.0</ele><time>2026-04-19T13:22:01Z</time></trkpt><trkpt lat="44.50801257539606" lon="8.220431191455559"><ele>649.0</ele><time>2026-04-19T13:22:02Z</time></trkpt><trkpt lat="44.50789506540872" lon="8.220365602599546"><ele>650.0</ele><time>2026-04-19T13:22:03Z</time></trkpt><trkpt lat="44.50777860284672" lon="8.220303796643396"><ele>651.0</ele><time>2026-04-19T13:22:04Z</time></trkpt><trkpt lat="44.50765228702885" lon="8.220263577606165"><ele>652.0</ele><time>2026-04-19T13:22:05Z</time></trkpt><trkpt lat="44.50753030742751" lon="8.220203467965419"><ele>653.0</ele><time>2026-04-19T13:22:06Z</time></trkpt><trkpt lat="44.507404826951266" lon="8.220166908247718"><ele>653.0</ele><time>2026-04-19T13:22:07Z</time></trkpt><trkpt lat="44.50727878174779" lon="8.220116267126798"><ele>653.0</ele><time>2026-04-19T13:22:08Z</time></trkpt><trkpt lat="44.50714659949964" lon="8.220106736640137"><ele>653.0</ele><time>2026-04-19T13:22:09Z</time></trkpt><trkpt lat="44.50701374176832" lon="8.220110487750128"><ele>653.0</ele><time>2026-04-19T13:22:10Z</time></trkpt><trkpt lat="44.50688350358012" lon="8.220117403444887"><ele>654.0</ele><time>2026-04-19T13:22:11Z</time></trkpt><trkpt lat="44.50675553805313" lon="8.220124198495048"><ele>655.0</ele><time>2026-04-19T13:22:12Z</time></trkpt><trkpt lat="44.506636140658664" lon="8.220131498379999"><ele>656.0</ele><time>2026-04-19T13:22:13Z</time></trkpt><trkpt lat="44.50651886961617" lon="8.220141923718794"><ele>657.0</ele><time>2026-04-19T13:22:14Z</time></trkpt><trkpt lat="44.5063950818279" lon="8.220155463449682"><ele>657.0</ele><time>2026-04-19T13:22:15Z</time></trkpt><trkpt lat="44.50627309609895" lon="8.220170296913857"><ele>657.0</ele><time>2026-04-19T13:22:16Z</time></trkpt><trkpt lat="44.5061485681116" lon="8.220189355178935"><ele>657.0</ele><time>2026-04-19T13:22:17Z</time></trkpt><trkpt lat="44.50602787816345" lon="8.220208638130664"><ele>657.0</ele><time>2026-04-19T13:22:18Z</time></trkpt><trkpt lat="44.505915410353865" lon="8.220232109913809"><ele>658.4000000000001</ele><time>2026-04-19T13:22:18.999Z</time></trkpt><trkpt lat="44.5058099492661" lon="8.220258081348929"><ele>659.8000000000001</ele><time>2026-04-19T13:22:19.999Z</time></trkpt><trkpt lat="44.5057036502429" lon="8.220284384151052"><ele>661.2</ele><time>2026-04-19T13:22:20.999Z</time></trkpt><trkpt lat="44.50559419824882" lon="8.220313858771709"><ele>662.6</ele><time>2026-04-19T13:22:21.999Z</time></trkpt><trkpt lat="44.50548122856123" lon="8.220331461452295"><ele>664.0</ele><time>2026-04-19T13:22:22.999Z</time></trkpt><trkpt lat="44.505364751499705" lon="8.220329630391005"><ele>664.25</ele><time>2026-04-19T13:22:23.999Z</time></trkpt><trkpt lat="44.50525088215671" lon="8.220317741997318"><ele>664.5</ele><time>2026-04-19T13:22:24.999Z</time></trkpt><trkpt lat="44.50513331453531" lon="8.220287710538772"><ele>664.75</ele><time>2026-04-19T13:22:25.999Z</time></trkpt><trkpt lat="44.50500583387279" lon="8.220233720269674"><ele>665.0</ele><time>2026-04-19T13:22:26.999Z</time></trkpt><trkpt lat="44.504874793162415" lon="8.220154754970142"><ele>665.0</ele><time>2026-04-19T13:22:27.999Z</time></trkpt><trkpt lat="44.5047389923997" lon="8.220063148437815"><ele>665.0</ele><time>2026-04-19T13:22:28.999Z</time></trkpt><trkpt lat="44.50459882797942" lon="8.219964169733153"><ele>665.0</ele><time>2026-04-19T13:22:29.999Z</time></trkpt><trkpt lat="44.50446182242593" lon="8.219857614328433"><ele>664.0</ele><time>2026-04-19T13:22:30.999Z</time></trkpt><trkpt lat="44.50433411463096" lon="8.219755705761271"><ele>663.0</ele><time>2026-04-19T13:22:31.999Z</time></trkpt><trkpt lat="44.50421499516477" lon="8.219662406466727"><ele>662.0</ele><time>2026-04-19T13:22:32.999Z</time></trkpt><trkpt lat="44.50409075132003" lon="8.219595297690008"><ele>661.0</ele><time>2026-04-19T13:22:33.999Z</time></trkpt><trkpt lat="44.50397382773405" lon="8.219502196373808"><ele>661.0</ele><time>2026-04-19T13:22:34.999Z</time></trkpt><trkpt lat="44.50384605056272" lon="8.2194143520357"><ele>661.0</ele><time>2026-04-19T13:22:35.999Z</time></trkpt><trkpt lat="44.503707418771484" lon="8.219336428359107"><ele>661.0</ele><time>2026-04-19T13:22:36.999Z</time></trkpt><trkpt lat="44.503580799973115" lon="8.21923896284499"><ele>661.0</ele><time>2026-04-19T13:22:37.999Z</time></trkpt><trkpt lat="44.50345392336294" lon="8.219170163944911"><ele>661.25</ele><time>2026-04-19T13:22:38.999Z</time></trkpt><trkpt lat="44.5033267545849" lon="8.219095743640954"><ele>661.5</ele><time>2026-04-19T13:22:39.999Z</time></trkpt><trkpt lat="44.5031973752652" lon="8.219007219994845"><ele>661.75</ele><time>2026-04-19T13:22:40.999Z</time></trkpt><trkpt lat="44.503063461986265" lon="8.218906390092965"><ele>662.0</ele><time>2026-04-19T13:22:41.999Z</time></trkpt><trkpt lat="44.50292751193309" lon="8.218809947488236"><ele>661.25</ele><time>2026-04-19T13:22:42.999Z</time></trkpt><trkpt lat="44.50279477990462" lon="8.21871747975237"><ele>660.5</ele><time>2026-04-19T13:22:43.999Z</time></trkpt><trkpt lat="44.50266859016624" lon="8.218629945599329"><ele>659.75</ele><time>2026-04-19T13:22:44.999Z</time></trkpt><trkpt lat="44.50255477436999" lon="8.218553107939618"><ele>659.0</ele><time>2026-04-19T13:22:45.999Z</time></trkpt><trkpt lat="44.502446968557436" lon="8.218488380609415"><ele>659.0</ele><time>2026-04-19T13:22:47Z</time></trkpt><trkpt lat="44.50234608021984" lon="8.21845878783426"><ele>659.0</ele><time>2026-04-19T13:22:48Z</time></trkpt><trkpt lat="44.50225758347343" lon="8.218410253260835"><ele>659.0</ele><time>2026-04-19T13:22:49Z</time></trkpt><trkpt lat="44.50216455152165" lon="8.218447550517883"><ele>659.0</ele><time>2026-04-19T13:22:50Z</time></trkpt><trkpt lat="44.50206798634447" lon="8.218463966651921"><ele>659.0</ele><time>2026-04-19T13:22:51Z</time></trkpt><trkpt lat="44.50197888934222" lon="8.218485085918813"><ele>659.4000000000001</ele><time>2026-04-19T13:22:52Z</time></trkpt><trkpt lat="44.50189889848535" lon="8.218483017433883"><ele>659.8</ele><time>2026-04-19T13:22:53Z</time></trkpt><trkpt lat="44.50181255165828" lon="8.218440945061564"><ele>660.2</ele><time>2026-04-19T13:22:54Z</time></trkpt><trkpt lat="44.50171899810205" lon="8.218374903422774"><ele>660.5999999999999</ele><time>2026-04-19T13:22:55Z</time></trkpt><trkpt lat="44.50162221408713" lon="8.218316953309667"><ele>661.0</ele><time>2026-04-19T13:22:56Z</time></trkpt><trkpt lat="44.50151250072574" lon="8.21826473375687"><ele>661.0</ele><time>2026-04-19T13:22:57Z</time></trkpt><trkpt lat="44.501387797772296" lon="8.21822173152561"><ele>661.0</ele><time>2026-04-19T13:22:58Z</time></trkpt><trkpt lat="44.50125042237844" lon="8.21819771366075"><ele>661.0</ele><time>2026-04-19T13:22:59Z</time></trkpt><trkpt lat="44.50110798189072" lon="8.21820421912852"><ele>661.0</ele><time>2026-04-19T13:23:00Z</time></trkpt><trkpt lat="44.500981129121094" lon="8.218204912951139"><ele>660.75</ele><time>2026-04-19T13:23:01Z</time></trkpt><trkpt lat="44.500856369756995" lon="8.218178632386586"><ele>660.5</ele><time>2026-04-19T13:23:02Z</time></trkpt><trkpt lat="44.50073367664418" lon="8.218168638563132"><ele>660.25</ele><time>2026-04-19T13:23:03Z</time></trkpt><trkpt lat="44.50061448832726" lon="8.218203481911896"><ele>660.0</ele><time>2026-04-19T13:23:04Z</time></trkpt><trkpt lat="44.500502736367494" lon="8.218265537998233"><ele>659.4</ele><time>2026-04-19T13:23:05Z</time></trkpt><trkpt lat="44.50040853155198" lon="8.218341020426168"><ele>658.8</ele><time>2026-04-19T13:23:06Z</time></trkpt><trkpt lat="44.500312060691726" lon="8.218359627086633"><ele>658.2</ele><time>2026-04-19T13:23:07Z</time></trkpt><trkpt lat="44.50023475027123" lon="8.218372464285089"><ele>657.6</ele><time>2026-04-19T13:23:08Z</time></trkpt><trkpt lat="44.50016861220587" lon="8.218366994236437"><ele>657.0</ele><time>2026-04-19T13:23:09Z</time></trkpt><trkpt lat="44.50007054220099" lon="8.21829395003941"><ele>657.0</ele><time>2026-04-19T13:23:11Z</time></trkpt><trkpt lat="44.500009706272394" lon="8.218251008420745"><ele>657.0</ele><time>2026-04-19T13:23:12Z</time></trkpt><trkpt lat="44.49993782875263" lon="8.218214282367153"><ele>657.0</ele><time>2026-04-19T13:23:13Z</time></trkpt><trkpt lat="44.49990836002457" lon="8.218107165104545"><ele>657.0</ele><time>2026-04-19T13:23:14Z</time></trkpt><trkpt lat="44.49985432136754" lon="8.218039103442457"><ele>657.0</ele><time>2026-04-19T13:23:15Z</time></trkpt><trkpt lat="44.49979123148079" lon="8.217977342409766"><ele>657.0</ele><time>2026-04-19T13:23:16Z</time></trkpt><trkpt lat="44.49972761383899" lon="8.217927314845898"><ele>657.0</ele><time>2026-04-19T13:23:17Z</time></trkpt><trkpt lat="44.49966584986656" lon="8.217891008298034"><ele>658.1666666666666</ele><time>2026-04-19T13:23:18Z</time></trkpt><trkpt lat="44.49959501782837" lon="8.21785411206799"><ele>659.3333333333334</ele><time>2026-04-19T13:23:19Z</time></trkpt><trkpt lat="44.49952081591309" lon="8.21781855215557"><ele>660.5</ele><time>2026-04-19T13:23:20Z</time></trkpt><trkpt lat="44.49944919739386" lon="8.21776099430083"><ele>661.6666666666667</ele><time>2026-04-19T13:23:21Z</time></trkpt><trkpt lat="44.499362667701234" lon="8.217758751171344"><ele>662.8333333333334</ele><time>2026-04-19T13:23:22Z</time></trkpt><trkpt lat="44.49926673346191" lon="8.217724740497376"><ele>664.0</ele><time>2026-04-19T13:23:23Z</time></trkpt><trkpt lat="44.49916185762456" lon="8.217750133292753"><ele>664.0</ele><time>2026-04-19T13:23:24Z</time></trkpt><trkpt lat="44.49905411287197" lon="8.217801839702064"><ele>664.0</ele><time>2026-04-19T13:23:25Z</time></trkpt><trkpt lat="44.498942134961965" lon="8.217858724529643"><ele>664.0</ele><time>2026-04-19T13:23:26Z</time></trkpt><trkpt lat="44.49885553822323" lon="8.217934921023934"><ele>664.0</ele><time>2026-04-19T13:23:27Z</time></trkpt><trkpt lat="44.49876665807148" lon="8.217951851907095"><ele>664.0</ele><time>2026-04-19T13:23:28Z</time></trkpt><trkpt lat="44.498664574615745" lon="8.21794052221679"><ele>666.25</ele><time>2026-04-19T13:23:29Z</time></trkpt><trkpt lat="44.49855326533665" lon="8.217911461482721"><ele>668.5</ele><time>2026-04-19T13:23:30Z</time></trkpt><trkpt lat="44.49843542760705" lon="8.217892443043933"><ele>670.75</ele><time>2026-04-19T13:23:31Z</time></trkpt><trkpt lat="44.498316573200334" lon="8.217901161366507"><ele>673.0</ele><time>2026-04-19T13:23:32Z</time></trkpt><trkpt lat="44.49820410312036" lon="8.2179259240045"><ele>673.0</ele><time>2026-04-19T13:23:33Z</time></trkpt><trkpt lat="44.49810031298758" lon="8.217943598849287"><ele>673.0</ele><time>2026-04-19T13:23:34Z</time></trkpt><trkpt lat="44.49800504814982" lon="8.21790493673736"><ele>673.0</ele><time>2026-04-19T13:23:35Z</time></trkpt><trkpt lat="44.4979135130559" lon="8.217900680392281"><ele>673.0</ele><time>2026-04-19T13:23:36Z</time></trkpt><trkpt lat="44.49784084584839" lon="8.217841675965673"><ele>673.0</ele><time>2026-04-19T13:23:37Z</time></trkpt><trkpt lat="44.497777616607245" lon="8.217756441279787"><ele>673.8</ele><time>2026-04-19T13:23:38Z</time></trkpt><trkpt lat="44.49771603568518" lon="8.217642193565785"><ele>674.5999999999999</ele><time>2026-04-19T13:23:39Z</time></trkpt><trkpt lat="44.49764972570724" lon="8.217532868112794"><ele>675.4000000000001</ele><time>2026-04-19T13:23:40Z</time></trkpt><trkpt lat="44.497574461296246" lon="8.217451224720342"><ele>676.2</ele><time>2026-04-19T13:23:41Z</time></trkpt><trkpt lat="44.49749167844595" lon="8.217395445535141"><ele>677.0</ele><time>2026-04-19T13:23:42Z</time></trkpt><trkpt lat="44.497407094710994" lon="8.217361001084814"><ele>677.0</ele><time>2026-04-19T13:23:43Z</time></trkpt><trkpt lat="44.49731779256112" lon="8.217340139286893"><ele>677.0</ele><time>2026-04-19T13:23:44Z</time></trkpt><trkpt lat="44.49722412662584" lon="8.217333792378616"><ele>677.0</ele><time>2026-04-19T13:23:45Z</time></trkpt><trkpt lat="44.49713143126663" lon="8.217314053502514"><ele>677.0</ele><time>2026-04-19T13:23:46Z</time></trkpt><trkpt lat="44.49703253631338" lon="8.217330434498486"><ele>677.0</ele><time>2026-04-19T13:23:47Z</time></trkpt><trkpt lat="44.49692960632338" lon="8.21737625120443"><ele>678.25</ele><time>2026-04-19T13:23:48Z</time></trkpt><trkpt lat="44.49682150644944" lon="8.217434093472406"><ele>679.5</ele><time>2026-04-19T13:23:49Z</time></trkpt><trkpt lat="44.49670328188074" lon="8.217499888309208"><ele>680.75</ele><time>2026-04-19T13:23:50Z</time></trkpt><trkpt lat="44.496579377988546" lon="8.217573176195375"><ele>682.0</ele><time>2026-04-19T13:23:51Z</time></trkpt><trkpt lat="44.496449747517694" lon="8.217652917459262"><ele>682.0</ele><time>2026-04-19T13:23:52Z</time></trkpt><trkpt lat="44.49631557089862" lon="8.217744679110833"><ele>682.0</ele><time>2026-04-19T13:23:53Z</time></trkpt><trkpt lat="44.49618114974399" lon="8.217859038213543"><ele>682.0</ele><time>2026-04-19T13:23:54Z</time></trkpt><trkpt lat="44.496053014362964" lon="8.217975935647335"><ele>683.5</ele><time>2026-04-19T13:23:55Z</time></trkpt><trkpt lat="44.49593799996474" lon="8.218081654143838"><ele>685.0</ele><time>2026-04-19T13:23:56Z</time></trkpt><trkpt lat="44.49583902184926" lon="8.218184652383474"><ele>686.5</ele><time>2026-04-19T13:23:57Z</time></trkpt><trkpt lat="44.495754266511284" lon="8.218287095425685"><ele>688.0</ele><time>2026-04-19T13:23:58Z</time></trkpt><trkpt lat="44.49568198504649" lon="8.218405658167125"><ele>688.0</ele><time>2026-04-19T13:23:59Z</time></trkpt><trkpt lat="44.49563575269154" lon="8.2185372206437"><ele>688.0</ele><time>2026-04-19T13:24:00Z</time></trkpt><trkpt lat="44.49562441981984" lon="8.218668437012244"><ele>688.0</ele><time>2026-04-19T13:24:01Z</time></trkpt><trkpt lat="44.49558380572447" lon="8.218805929084777"><ele>688.0</ele><time>2026-04-19T13:24:02Z</time></trkpt><trkpt lat="44.49556364112446" lon="8.218958147284097"><ele>688.0</ele><time>2026-04-19T13:24:03Z</time></trkpt><trkpt lat="44.49555555910518" lon="8.219118429298852"><ele>687.25</ele><time>2026-04-19T13:24:04Z</time></trkpt><trkpt lat="44.495532865673276" lon="8.219276366752675"><ele>686.5</ele><time>2026-04-19T13:24:05Z</time></trkpt><trkpt lat="44.49551100656692" lon="8.219435721962256"><ele>685.75</ele><time>2026-04-19T13:24:06Z</time></trkpt><trkpt lat="44.49549433642343" lon="8.219602710859391"><ele>685.0</ele><time>2026-04-19T13:24:07Z</time></trkpt><trkpt lat="44.49545800497289" lon="8.219768034997976"><ele>684.75</ele><time>2026-04-19T13:24:08Z</time></trkpt><trkpt lat="44.49543610341439" lon="8.219937121948114"><ele>684.5</ele><time>2026-04-19T13:24:09Z</time></trkpt><trkpt lat="44.495405386356666" lon="8.220096755945042"><ele>684.25</ele><time>2026-04-19T13:24:10Z</time></trkpt><trkpt lat="44.495389453431905" lon="8.220277462100782"><ele>684.0</ele><time>2026-04-19T13:24:11Z</time></trkpt><trkpt lat="44.49540351428495" lon="8.220450068633335"><ele>684.0</ele><time>2026-04-19T13:24:12Z</time></trkpt><trkpt lat="44.495450251237116" lon="8.220604588647035"><ele>684.0</ele><time>2026-04-19T13:24:13Z</time></trkpt><trkpt lat="44.49546979978356" lon="8.220758818556149"><ele>684.0</ele><time>2026-04-19T13:24:14Z</time></trkpt><trkpt lat="44.49550030406026" lon="8.22090311362622"><ele>684.0</ele><time>2026-04-19T13:24:15Z</time></trkpt><trkpt lat="44.49554211031525" lon="8.22104931659668"><ele>684.0</ele><time>2026-04-19T13:24:16Z</time></trkpt><trkpt lat="44.495580420162824" lon="8.22120641121161"><ele>684.0</ele><time>2026-04-19T13:24:17Z</time></trkpt><trkpt lat="44.49562442566868" lon="8.221372719304352"><ele>684.0</ele><time>2026-04-19T13:24:18Z</time></trkpt><trkpt lat="44.4956640783169" lon="8.221549105580126"><ele>684.0</ele><time>2026-04-19T13:24:19Z</time></trkpt><trkpt lat="44.4957066344802" lon="8.221727163087358"><ele>684.0</ele><time>2026-04-19T13:24:20Z</time></trkpt><trkpt lat="44.495754764177946" lon="8.221908697995424"><ele>684.0</ele><time>2026-04-19T13:24:21Z</time></trkpt><trkpt lat="44.49580462353716" lon="8.222100522100495"><ele>684.0</ele><time>2026-04-19T13:24:22Z</time></trkpt><trkpt lat="44.49585364538582" lon="8.222300018934193"><ele>684.0</ele><time>2026-04-19T13:24:23Z</time></trkpt><trkpt lat="44.495903293478946" lon="8.222493751522927"><ele>686.25</ele><time>2026-04-19T13:24:24Z</time></trkpt><trkpt lat="44.49594746426203" lon="8.222674195877488"><ele>688.5</ele><time>2026-04-19T13:24:25Z</time></trkpt><trkpt lat="44.49598417936285" lon="8.222844430922871"><ele>690.75</ele><time>2026-04-19T13:24:26Z</time></trkpt><trkpt lat="44.496011564776005" lon="8.223009117736806"><ele>693.0</ele><time>2026-04-19T13:24:27Z</time></trkpt><trkpt lat="44.4960127389245" lon="8.223152553244457"><ele>694.5</ele><time>2026-04-19T13:24:28Z</time></trkpt><trkpt lat="44.496015153442706" lon="8.223269806368236"><ele>696.0</ele><time>2026-04-19T13:24:29Z</time></trkpt><trkpt lat="44.496001983245925" lon="8.2233724438479"><ele>697.5</ele><time>2026-04-19T13:24:30Z</time></trkpt><trkpt lat="44.49597601702548" lon="8.223464578605014"><ele>699.0</ele><time>2026-04-19T13:24:31Z</time></trkpt><trkpt lat="44.495935736939785" lon="8.223567386120434"><ele>700.5</ele><time>2026-04-19T13:24:32Z</time></trkpt><trkpt lat="44.49588334489865" lon="8.223696623445237"><ele>702.0</ele><time>2026-04-19T13:24:33Z</time></trkpt><trkpt lat="44.49583214595885" lon="8.223827446391057"><ele>702.0</ele><time>2026-04-19T13:24:34Z</time></trkpt><trkpt lat="44.49577910944447" lon="8.223963133000272"><ele>702.0</ele><time>2026-04-19T13:24:35Z</time></trkpt><trkpt lat="44.49571751815226" lon="8.224105081449594"><ele>702.0</ele><time>2026-04-19T13:24:36Z</time></trkpt><trkpt lat="44.495659687822375" lon="8.224253300934356"><ele>702.0</ele><time>2026-04-19T13:24:37Z</time></trkpt><trkpt lat="44.49560744972274" lon="8.224408267527508"><ele>700.2</ele><time>2026-04-19T13:24:38Z</time></trkpt><trkpt lat="44.49553452875686" lon="8.224540891499693"><ele>698.4000000000001</ele><time>2026-04-19T13:24:39Z</time></trkpt><trkpt lat="44.49548204040247" lon="8.22466269807675"><ele>696.5999999999999</ele><time>2026-04-19T13:24:40Z</time></trkpt><trkpt lat="44.49543207967407" lon="8.224790650469986"><ele>694.8</ele><time>2026-04-19T13:24:41Z</time></trkpt><trkpt lat="44.49540143169225" lon="8.224928212806095"><ele>693.0</ele><time>2026-04-19T13:24:41.999Z</time></trkpt><trkpt lat="44.49537373902729" lon="8.22506852344546"><ele>689.0</ele><time>2026-04-19T13:24:42.999Z</time></trkpt><trkpt lat="44.49535715316166" lon="8.225215932543373"><ele>685.0</ele><time>2026-04-19T13:24:43.999Z</time></trkpt><trkpt lat="44.49534884218879" lon="8.225369839304333"><ele>681.0</ele><time>2026-04-19T13:24:44.999Z</time></trkpt><trkpt lat="44.495330645129336" lon="8.225534886673849"><ele>677.0</ele><time>2026-04-19T13:24:45.999Z</time></trkpt><trkpt lat="44.495334769273946" lon="8.225716072753693"><ele>675.75</ele><time>2026-04-19T13:24:46.999Z</time></trkpt><trkpt lat="44.4953463283295" lon="8.225903137044702"><ele>674.5</ele><time>2026-04-19T13:24:47.999Z</time></trkpt><trkpt lat="44.49535874361524" lon="8.226090290390356"><ele>673.25</ele><time>2026-04-19T13:24:48.999Z</time></trkpt><trkpt lat="44.49538745076872" lon="8.226274309846122"><ele>672.0</ele><time>2026-04-19T13:24:49.999Z</time></trkpt><trkpt lat="44.49539513914077" lon="8.22645958791587"><ele>671.0</ele><time>2026-04-19T13:24:50.999Z</time></trkpt><trkpt lat="44.49539846758176" lon="8.226640003175484"><ele>670.0</ele><time>2026-04-19T13:24:52Z</time></trkpt><trkpt lat="44.49540119352224" lon="8.226810848668542"><ele>669.0</ele><time>2026-04-19T13:24:53Z</time></trkpt><trkpt lat="44.49539738110593" lon="8.226970310741443"><ele>668.0</ele><time>2026-04-19T13:24:54Z</time></trkpt><trkpt lat="44.495391591018276" lon="8.227107899567189"><ele>668.0</ele><time>2026-04-19T13:24:55Z</time></trkpt><trkpt lat="44.495371531218716" lon="8.227228763371187"><ele>668.0</ele><time>2026-04-19T13:24:56Z</time></trkpt><trkpt lat="44.49534031607881" lon="8.227332721779895"><ele>668.0</ele><time>2026-04-19T13:24:57Z</time></trkpt><trkpt lat="44.495284042647945" lon="8.227404961762833"><ele>668.0</ele><time>2026-04-19T13:24:58Z</time></trkpt><trkpt lat="44.49523023677483" lon="8.227464029876682"><ele>668.0</ele><time>2026-04-19T13:24:59Z</time></trkpt><trkpt lat="44.4951176189629" lon="8.227441809272399"><ele>668.0</ele><time>2026-04-19T13:25:01Z</time></trkpt><trkpt lat="44.49502735149771" lon="8.227439987248559"><ele>667.8</ele><time>2026-04-19T13:25:02Z</time></trkpt><trkpt lat="44.49490448381549" lon="8.227491820274874"><ele>667.5999999999999</ele><time>2026-04-19T13:25:03Z</time></trkpt><trkpt lat="44.49487009573402" lon="8.227600040518784"><ele>667.4000000000001</ele><time>2026-04-19T13:25:04Z</time></trkpt><trkpt lat="44.49485091138907" lon="8.227701616738836"><ele>667.2</ele><time>2026-04-19T13:25:05Z</time></trkpt><trkpt lat="44.49485626122068" lon="8.227818816228679"><ele>667.0</ele><time>2026-04-19T13:25:06Z</time></trkpt><trkpt lat="44.494879501202654" lon="8.227948200840364"><ele>667.0</ele><time>2026-04-19T13:25:07Z</time></trkpt><trkpt lat="44.494900788544435" lon="8.22806008883044"><ele>667.0</ele><time>2026-04-19T13:25:08Z</time></trkpt><trkpt lat="44.494872381553584" lon="8.228147458924706"><ele>667.0</ele><time>2026-04-19T13:25:09Z</time></trkpt><trkpt lat="44.49481496574926" lon="8.228192584212218"><ele>667.0</ele><time>2026-04-19T13:25:10Z</time></trkpt><trkpt lat="44.494745532323094" lon="8.228218030499526"><ele>667.0</ele><time>2026-04-19T13:25:11Z</time></trkpt><trkpt lat="44.49465671812467" lon="8.228271643268853"><ele>667.0</ele><time>2026-04-19T13:25:12Z</time></trkpt><trkpt lat="44.49455715798391" lon="8.228347828533147"><ele>665.2</ele><time>2026-04-19T13:25:13Z</time></trkpt><trkpt lat="44.49447106316388" lon="8.228478284878758"><ele>663.4000000000001</ele><time>2026-04-19T13:25:14Z</time></trkpt><trkpt lat="44.49438399090485" lon="8.228597805509432"><ele>661.5999999999999</ele><time>2026-04-19T13:25:15Z</time></trkpt><trkpt lat="44.49429669505699" lon="8.22867634281864"><ele>659.8</ele><time>2026-04-19T13:25:16Z</time></trkpt><trkpt lat="44.494220681510285" lon="8.228732617607468"><ele>658.0</ele><time>2026-04-19T13:25:17Z</time></trkpt><trkpt lat="44.49414096592127" lon="8.228759017672424"><ele>658.0</ele><time>2026-04-19T13:25:18Z</time></trkpt><trkpt lat="44.4940503047329" lon="8.22877868307635"><ele>658.0</ele><time>2026-04-19T13:25:19Z</time></trkpt><trkpt lat="44.493955833050734" lon="8.228784253939187"><ele>658.0</ele><time>2026-04-19T13:25:20Z</time></trkpt><trkpt lat="44.49386084415325" lon="8.228770689494361"><ele>658.0</ele><time>2026-04-19T13:25:21Z</time></trkpt><trkpt lat="44.4937515367149" lon="8.228743169735312"><ele>658.0</ele><time>2026-04-19T13:25:22Z</time></trkpt><trkpt lat="44.49362817726477" lon="8.228718240345728"><ele>657.75</ele><time>2026-04-19T13:25:23Z</time></trkpt><trkpt lat="44.49350439210806" lon="8.228737918871175"><ele>657.5</ele><time>2026-04-19T13:25:24Z</time></trkpt><trkpt lat="44.49337962545098" lon="8.228767185515487"><ele>657.25</ele><time>2026-04-19T13:25:25Z</time></trkpt><trkpt lat="44.49327538867539" lon="8.228794267222204"><ele>657.0</ele><time>2026-04-19T13:25:26Z</time></trkpt><trkpt lat="44.49317774084283" lon="8.228847667553378"><ele>657.0</ele><time>2026-04-19T13:25:27Z</time></trkpt><trkpt lat="44.49307239683526" lon="8.228905232561445"><ele>657.0</ele><time>2026-04-19T13:25:28Z</time></trkpt><trkpt lat="44.492974576194975" lon="8.228967428548225"><ele>657.0</ele><time>2026-04-19T13:25:29Z</time></trkpt><trkpt lat="44.492880737140716" lon="8.229030959762202"><ele>657.0</ele><time>2026-04-19T13:25:30Z</time></trkpt><trkpt lat="44.49279313506473" lon="8.229106801936823"><ele>657.0</ele><time>2026-04-19T13:25:31Z</time></trkpt><trkpt lat="44.49273034824723" lon="8.229205766984002"><ele>657.6666666666666</ele><time>2026-04-19T13:25:32Z</time></trkpt><trkpt lat="44.492676195789684" lon="8.229284777882958"><ele>658.3333333333334</ele><time>2026-04-19T13:25:33Z</time></trkpt><trkpt lat="44.49264707721013" lon="8.229367113133744"><ele>659.0</ele><time>2026-04-19T13:25:34Z</time></trkpt><trkpt lat="44.49263094042576" lon="8.229456815170593"><ele>659.6666666666667</ele><time>2026-04-19T13:25:35Z</time></trkpt><trkpt lat="44.49259579286815" lon="8.229564079650121"><ele>660.3333333333334</ele><time>2026-04-19T13:25:36Z</time></trkpt><trkpt lat="44.49256319138739" lon="8.229701057456927"><ele>661.0</ele><time>2026-04-19T13:25:37Z</time></trkpt><trkpt lat="44.492540727236126" lon="8.229856016330881"><ele>662.75</ele><time>2026-04-19T13:25:38Z</time></trkpt><trkpt lat="44.49249398627073" lon="8.230012231655653"><ele>664.5</ele><time>2026-04-19T13:25:39Z</time></trkpt><trkpt lat="44.492449533901116" lon="8.230184560176435"><ele>666.25</ele><time>2026-04-19T13:25:40Z</time></trkpt><trkpt lat="44.49240572911534" lon="8.230362849759995"><ele>668.0</ele><time>2026-04-19T13:25:41Z</time></trkpt><trkpt lat="44.49236370403855" lon="8.230529092033825"><ele>669.0</ele><time>2026-04-19T13:25:42Z</time></trkpt><trkpt lat="44.49230399021344" lon="8.230674327088876"><ele>670.0</ele><time>2026-04-19T13:25:43Z</time></trkpt><trkpt lat="44.49224663000661" lon="8.230812189529534"><ele>671.0</ele><time>2026-04-19T13:25:44Z</time></trkpt><trkpt lat="44.4921819692477" lon="8.230934305631061"><ele>672.0</ele><time>2026-04-19T13:25:45Z</time></trkpt><trkpt lat="44.492119396904165" lon="8.231056657182188"><ele>673.0</ele><time>2026-04-19T13:25:46Z</time></trkpt><trkpt lat="44.49206955911541" lon="8.231192772453193"><ele>669.0</ele><time>2026-04-19T13:25:47Z</time></trkpt><trkpt lat="44.492018701323424" lon="8.231320285998072"><ele>665.0</ele><time>2026-04-19T13:25:48Z</time></trkpt><trkpt lat="44.49198055223305" lon="8.231471058444521"><ele>661.0</ele><time>2026-04-19T13:25:49Z</time></trkpt><trkpt lat="44.49194858581517" lon="8.231634841812143"><ele>657.0</ele><time>2026-04-19T13:25:50Z</time></trkpt><trkpt lat="44.49191363815875" lon="8.231798886680554"><ele>657.0</ele><time>2026-04-19T13:25:51Z</time></trkpt><trkpt lat="44.49184109434699" lon="8.231931903026064"><ele>657.0</ele><time>2026-04-19T13:25:52Z</time></trkpt><trkpt lat="44.491776784395896" lon="8.232048213849172"><ele>657.0</ele><time>2026-04-19T13:25:53Z</time></trkpt><trkpt lat="44.49171661511084" lon="8.232135954320174"><ele>657.0</ele><time>2026-04-19T13:25:54Z</time></trkpt><trkpt lat="44.491629918171924" lon="8.232302546136076"><ele>656.2</ele><time>2026-04-19T13:25:56Z</time></trkpt><trkpt lat="44.491580192275386" lon="8.232418579361555"><ele>655.4000000000001</ele><time>2026-04-19T13:25:58Z</time></trkpt><trkpt lat="44.49162252195833" lon="8.232521595087402"><ele>654.5999999999999</ele><time>2026-04-19T13:25:59Z</time></trkpt><trkpt lat="44.4917005633815" lon="8.232586855521056"><ele>653.8</ele><time>2026-04-19T13:26:00Z</time></trkpt><trkpt lat="44.4917772351804" lon="8.232650834247412"><ele>653.0</ele><time>2026-04-19T13:26:01Z</time></trkpt><trkpt lat="44.49187606676195" lon="8.232703326031208"><ele>653.0</ele><time>2026-04-19T13:26:02Z</time></trkpt><trkpt lat="44.49200449581952" lon="8.232751770559013"><ele>653.0</ele><time>2026-04-19T13:26:03Z</time></trkpt><trkpt lat="44.492144455433596" lon="8.232795552759947"><ele>653.0</ele><time>2026-04-19T13:26:04Z</time></trkpt><trkpt lat="44.49227513020403" lon="8.232839514837536"><ele>653.0</ele><time>2026-04-19T13:26:05Z</time></trkpt><trkpt lat="44.49239972420268" lon="8.232889822675757"><ele>653.0</ele><time>2026-04-19T13:26:06Z</time></trkpt><trkpt lat="44.492522362719754" lon="8.232946586245502"><ele>653.0</ele><time>2026-04-19T13:26:07Z</time></trkpt><trkpt lat="44.492623205520346" lon="8.233049191125984"><ele>653.0</ele><time>2026-04-19T13:26:08Z</time></trkpt><trkpt lat="44.4926993816074" lon="8.233130824414"><ele>653.0</ele><time>2026-04-19T13:26:09Z</time></trkpt><trkpt lat="44.49275308297162" lon="8.233202888854285"><ele>653.0</ele><time>2026-04-19T13:26:10Z</time></trkpt><trkpt lat="44.49279323989353" lon="8.233283437605937"><ele>650.8</ele><time>2026-04-19T13:26:11Z</time></trkpt><trkpt lat="44.492812897496556" lon="8.233373941985008"><ele>648.5999999999999</ele><time>2026-04-19T13:26:12Z</time></trkpt><trkpt lat="44.49281555270823" lon="8.233484216661825"><ele>646.4000000000001</ele><time>2026-04-19T13:26:13Z</time></trkpt><trkpt lat="44.492822522175786" lon="8.233621814936152"><ele>644.2</ele><time>2026-04-19T13:26:14Z</time></trkpt><trkpt lat="44.492845158330965" lon="8.233772143154573"><ele>642.0</ele><time>2026-04-19T13:26:15Z</time></trkpt><trkpt lat="44.49285693891872" lon="8.23394541463627"><ele>642.25</ele><time>2026-04-19T13:26:16Z</time></trkpt><trkpt lat="44.49288091652959" lon="8.234136941062896"><ele>642.5</ele><time>2026-04-19T13:26:17Z</time></trkpt><trkpt lat="44.492879914225874" lon="8.234330694247532"><ele>642.75</ele><time>2026-04-19T13:26:18Z</time></trkpt><trkpt lat="44.492887111186015" lon="8.234512037560306"><ele>643.0</ele><time>2026-04-19T13:26:19Z</time></trkpt><trkpt lat="44.49292378268132" lon="8.234671962383745"><ele>642.5999999999999</ele><time>2026-04-19T13:26:20Z</time></trkpt><trkpt lat="44.492952324966176" lon="8.234819287402631"><ele>642.1999999999999</ele><time>2026-04-19T13:26:21Z</time></trkpt><trkpt lat="44.49298312134706" lon="8.23496372875128"><ele>641.8</ele><time>2026-04-19T13:26:22Z</time></trkpt><trkpt lat="44.49296560089727" lon="8.235119082777445"><ele>641.4</ele><time>2026-04-19T13:26:23Z</time></trkpt><trkpt lat="44.492933726532456" lon="8.235254257350013"><ele>641.0</ele><time>2026-04-19T13:26:24Z</time></trkpt><trkpt lat="44.49291295432266" lon="8.235384637388817"><ele>641.0</ele><time>2026-04-19T13:26:25Z</time></trkpt><trkpt lat="44.492901580776035" lon="8.235495770638959"><ele>641.0</ele><time>2026-04-19T13:26:26Z</time></trkpt><trkpt lat="44.49293847090772" lon="8.235621598812815"><ele>641.0</ele><time>2026-04-19T13:26:27Z</time></trkpt><trkpt lat="44.492972344650696" lon="8.235749655533386"><ele>641.0</ele><time>2026-04-19T13:26:28Z</time></trkpt><trkpt lat="44.49298662721013" lon="8.235875640317213"><ele>641.0</ele><time>2026-04-19T13:26:29Z</time></trkpt><trkpt lat="44.49298849789982" lon="8.235989024094618"><ele>641.0</ele><time>2026-04-19T13:26:30Z</time></trkpt><trkpt lat="44.49294113883853" lon="8.236072765244716"><ele>635.0</ele><time>2026-04-19T13:26:31Z</time></trkpt><trkpt lat="44.49289663789494" lon="8.236179575315742"><ele>629.0</ele><time>2026-04-19T13:26:32Z</time></trkpt><trkpt lat="44.49285132618946" lon="8.236291105303499"><ele>623.0</ele><time>2026-04-19T13:26:33Z</time></trkpt><trkpt lat="44.49281709969992" lon="8.2363961808885"><ele>617.0</ele><time>2026-04-19T13:26:34Z</time></trkpt><trkpt lat="44.49281183116702" lon="8.23656634266192"><ele>611.0</ele><time>2026-04-19T13:26:36Z</time></trkpt><trkpt lat="44.49285405018425" lon="8.236656001444823"><ele>610.4</ele><time>2026-04-19T13:26:37Z</time></trkpt><trkpt lat="44.49289386302274" lon="8.236755785631116"><ele>609.8</ele><time>2026-04-19T13:26:37.999Z</time></trkpt><trkpt lat="44.49292924091702" lon="8.236882600926206"><ele>609.1999999999999</ele><time>2026-04-19T13:26:38.999Z</time></trkpt><trkpt lat="44.49294511377879" lon="8.237016612650136"><ele>608.6</ele><time>2026-04-19T13:26:39.999Z</time></trkpt><trkpt lat="44.49294329607587" lon="8.237166423774969"><ele>608.0</ele><time>2026-04-19T13:26:40.999Z</time></trkpt><trkpt lat="44.49292385434265" lon="8.23732912490119"><ele>607.0</ele><time>2026-04-19T13:26:41.999Z</time></trkpt><trkpt lat="44.492906546371294" lon="8.237482155991595"><ele>606.0</ele><time>2026-04-19T13:26:42.999Z</time></trkpt><trkpt lat="44.49289872077126" lon="8.23762475829179"><ele>605.0</ele><time>2026-04-19T13:26:43.999Z</time></trkpt><trkpt lat="44.492837922185224" lon="8.237734822016346"><ele>604.0</ele><time>2026-04-19T13:26:44.999Z</time></trkpt><trkpt lat="44.49277723887927" lon="8.237836709752791"><ele>603.0</ele><time>2026-04-19T13:26:45.999Z</time></trkpt><trkpt lat="44.49271745792097" lon="8.237940172370147"><ele>603.0</ele><time>2026-04-19T13:26:46.999Z</time></trkpt><trkpt lat="44.49265594863362" lon="8.238047194203904"><ele>603.0</ele><time>2026-04-19T13:26:47.999Z</time></trkpt><trkpt lat="44.492612778335605" lon="8.238164663790029"><ele>603.0</ele><time>2026-04-19T13:26:48.999Z</time></trkpt><trkpt lat="44.49256749190647" lon="8.23827394396651"><ele>603.0</ele><time>2026-04-19T13:26:49.999Z</time></trkpt><trkpt lat="44.49251890837091" lon="8.238364241397218"><ele>603.0</ele><time>2026-04-19T13:26:50.999Z</time></trkpt><trkpt lat="44.492495853893125" lon="8.238464348215889"><ele>603.0</ele><time>2026-04-19T13:26:51.999Z</time></trkpt><trkpt lat="44.49250571766605" lon="8.238571448968115"><ele>603.5</ele><time>2026-04-19T13:26:52.999Z</time></trkpt><trkpt lat="44.492520592189656" lon="8.238665868254706"><ele>604.0</ele><time>2026-04-19T13:26:53.999Z</time></trkpt><trkpt lat="44.492562926165895" lon="8.238751040581054"><ele>604.5</ele><time>2026-04-19T13:26:54.999Z</time></trkpt><trkpt lat="44.49261992179305" lon="8.23884317441936"><ele>605.0</ele><time>2026-04-19T13:26:55.999Z</time></trkpt><trkpt lat="44.49268992244452" lon="8.238944971009015"><ele>605.5</ele><time>2026-04-19T13:26:56.999Z</time></trkpt><trkpt lat="44.49277123399831" lon="8.23904404357651"><ele>606.0</ele><time>2026-04-19T13:26:58Z</time></trkpt><trkpt lat="44.49283655631801" lon="8.23916482779935"><ele>602.25</ele><time>2026-04-19T13:26:59Z</time></trkpt><trkpt lat="44.49289047047284" lon="8.23929228718476"><ele>598.5</ele><time>2026-04-19T13:27:00Z</time></trkpt><trkpt lat="44.49294539856718" lon="8.239442316914186"><ele>594.75</ele><time>2026-04-19T13:27:01Z</time></trkpt><trkpt lat="44.49301902665041" lon="8.23959472252205"><ele>591.0</ele><time>2026-04-19T13:27:02Z</time></trkpt><trkpt lat="44.49307040200351" lon="8.239754396201526"><ele>595.0</ele><time>2026-04-19T13:27:03Z</time></trkpt><trkpt lat="44.49311870631645" lon="8.239899230225127"><ele>599.0</ele><time>2026-04-19T13:27:04Z</time></trkpt><trkpt lat="44.493143602245276" lon="8.240047267679607"><ele>603.0</ele><time>2026-04-19T13:27:05Z</time></trkpt><trkpt lat="44.493161240092796" lon="8.240190537392195"><ele>607.0</ele><time>2026-04-19T13:27:06Z</time></trkpt><trkpt lat="44.49318799054791" lon="8.240332487140757"><ele>611.0</ele><time>2026-04-19T13:27:07Z</time></trkpt><trkpt lat="44.49318004320793" lon="8.24048183762025"><ele>609.4</ele><time>2026-04-19T13:27:08Z</time></trkpt><trkpt lat="44.493176475866406" lon="8.240636877546113"><ele>607.8</ele><time>2026-04-19T13:27:09Z</time></trkpt><trkpt lat="44.49316462779566" lon="8.240789656490023"><ele>606.1999999999999</ele><time>2026-04-19T13:27:10Z</time></trkpt><trkpt lat="44.493147318159956" lon="8.2409501810856"><ele>604.6</ele><time>2026-04-19T13:27:11Z</time></trkpt><trkpt lat="44.493120923746034" lon="8.241104821593801"><ele>603.0</ele><time>2026-04-19T13:27:12Z</time></trkpt><trkpt lat="44.49309011825878" lon="8.241252849095739"><ele>603.0</ele><time>2026-04-19T13:27:13Z</time></trkpt><trkpt lat="44.493080363322576" lon="8.241403271965556"><ele>603.0</ele><time>2026-04-19T13:27:14Z</time></trkpt><trkpt lat="44.493049502636374" lon="8.241545315593298"><ele>603.0</ele><time>2026-04-19T13:27:15Z</time></trkpt><trkpt lat="44.49302852680886" lon="8.241703419439771"><ele>603.0</ele><time>2026-04-19T13:27:16Z</time></trkpt><trkpt lat="44.493000449917155" lon="8.241865392089249"><ele>603.0</ele><time>2026-04-19T13:27:17Z</time></trkpt><trkpt lat="44.49294182607857" lon="8.242013784665989"><ele>599.1999999999999</ele><time>2026-04-19T13:27:18Z</time></trkpt><trkpt lat="44.49289864121691" lon="8.242160960815077"><ele>595.4</ele><time>2026-04-19T13:27:19Z</time></trkpt><trkpt lat="44.49284403442082" lon="8.242283173053908"><ele>591.5999999999999</ele><time>2026-04-19T13:27:20Z</time></trkpt><trkpt lat="44.49277439087489" lon="8.24240411117018"><ele>587.8</ele><time>2026-04-19T13:27:21Z</time></trkpt><trkpt lat="44.49269578681317" lon="8.24252900826818"><ele>584.0</ele><time>2026-04-19T13:27:22Z</time></trkpt><trkpt lat="44.49261055232908" lon="8.242661680123868"><ele>584.0</ele><time>2026-04-19T13:27:23Z</time></trkpt><trkpt lat="44.49252020585169" lon="8.242798721320547"><ele>584.0</ele><time>2026-04-19T13:27:24Z</time></trkpt><trkpt lat="44.49241944580427" lon="8.242934996741976"><ele>584.0</ele><time>2026-04-19T13:27:25Z</time></trkpt><trkpt lat="44.49233064091567" lon="8.243066502083892"><ele>584.0</ele><time>2026-04-19T13:27:26Z</time></trkpt><trkpt lat="44.49226481927343" lon="8.243207990102936"><ele>583.6</ele><time>2026-04-19T13:27:27Z</time></trkpt><trkpt lat="44.49218069008263" lon="8.243312755135982"><ele>583.2</ele><time>2026-04-19T13:27:28Z</time></trkpt><trkpt lat="44.49211244439102" lon="8.243427152772636"><ele>582.8000000000001</ele><time>2026-04-19T13:27:29Z</time></trkpt><trkpt lat="44.49206323015264" lon="8.243545055912445"><ele>582.4</ele><time>2026-04-19T13:27:30Z</time></trkpt><trkpt lat="44.49200776144742" lon="8.243631127198487"><ele>582.0</ele><time>2026-04-19T13:27:31Z</time></trkpt><trkpt lat="44.491952763494716" lon="8.243694218611854"><ele>582.0</ele><time>2026-04-19T13:27:32Z</time></trkpt><trkpt lat="44.49184834247815" lon="8.243671847529193"><ele>582.0</ele><time>2026-04-19T13:27:34Z</time></trkpt><trkpt lat="44.49183183224438" lon="8.243581388470838"><ele>582.0</ele><time>2026-04-19T13:27:35Z</time></trkpt><trkpt lat="44.491802543092454" lon="8.243395380632595"><ele>582.0</ele><time>2026-04-19T13:27:37Z</time></trkpt><trkpt lat="44.49177942400618" lon="8.243272226474696"><ele>582.0</ele><time>2026-04-19T13:27:38Z</time></trkpt><trkpt lat="44.491780608078635" lon="8.243141439573254"><ele>580.5</ele><time>2026-04-19T13:27:39Z</time></trkpt><trkpt lat="44.49179034823641" lon="8.243023314498176"><ele>579.0</ele><time>2026-04-19T13:27:40Z</time></trkpt><trkpt lat="44.49180696846248" lon="8.242909286314896"><ele>577.5</ele><time>2026-04-19T13:27:41Z</time></trkpt><trkpt lat="44.49182782926153" lon="8.242803817989428"><ele>576.0</ele><time>2026-04-19T13:27:42Z</time></trkpt><trkpt lat="44.49184422477638" lon="8.242636511376153"><ele>574.5</ele><time>2026-04-19T13:27:44Z</time></trkpt><trkpt lat="44.491798014159535" lon="8.242565167165509"><ele>573.0</ele><time>2026-04-19T13:27:45Z</time></trkpt><trkpt lat="44.49170698201312" lon="8.242591898599347"><ele>573.0</ele><time>2026-04-19T13:27:46Z</time></trkpt><trkpt lat="44.49162679483418" lon="8.242619818057031"><ele>573.0</ele><time>2026-04-19T13:27:47Z</time></trkpt><trkpt lat="44.49151797236215" lon="8.242640856721481"><ele>573.0</ele><time>2026-04-19T13:27:48Z</time></trkpt><trkpt lat="44.491404260545046" lon="8.242705885116486"><ele>573.0</ele><time>2026-04-19T13:27:49Z</time></trkpt><trkpt lat="44.49130204195977" lon="8.24278211305363"><ele>573.0</ele><time>2026-04-19T13:27:50Z</time></trkpt><trkpt lat="44.49121545381561" lon="8.242874829020408"><ele>567.8</ele><time>2026-04-19T13:27:51Z</time></trkpt><trkpt lat="44.49111513756717" lon="8.24289936572393"><ele>562.5999999999999</ele><time>2026-04-19T13:27:52Z</time></trkpt><trkpt lat="44.49101776405676" lon="8.242903256105782"><ele>557.4000000000001</ele><time>2026-04-19T13:27:53Z</time></trkpt><trkpt lat="44.490922964092285" lon="8.242899831505035"><ele>552.2</ele><time>2026-04-19T13:27:54Z</time></trkpt><trkpt lat="44.490839675093575" lon="8.242897299424746"><ele>547.0</ele><time>2026-04-19T13:27:55Z</time></trkpt><trkpt lat="44.49076138118269" lon="8.242915039409988"><ele>547.0</ele><time>2026-04-19T13:27:56Z</time></trkpt><trkpt lat="44.49070090311644" lon="8.242972044786114"><ele>547.0</ele><time>2026-04-19T13:27:57Z</time></trkpt><trkpt lat="44.490672505423504" lon="8.24307584942898"><ele>547.0</ele><time>2026-04-19T13:27:58Z</time></trkpt><trkpt lat="44.49064180261643" lon="8.243198931911733"><ele>547.0</ele><time>2026-04-19T13:27:59Z</time></trkpt><trkpt lat="44.49060197646549" lon="8.24333728875825"><ele>547.0</ele><time>2026-04-19T13:28:00Z</time></trkpt><trkpt lat="44.49057925704947" lon="8.243471668685602"><ele>548.0</ele><time>2026-04-19T13:28:01Z</time></trkpt><trkpt lat="44.49056225022486" lon="8.2435930878828"><ele>549.0</ele><time>2026-04-19T13:28:02Z</time></trkpt><trkpt lat="44.49055359918535" lon="8.243701486113618"><ele>550.0</ele><time>2026-04-19T13:28:03Z</time></trkpt><trkpt lat="44.49056071591443" lon="8.243798556400998"><ele>551.0</ele><time>2026-04-19T13:28:04Z</time></trkpt><trkpt lat="44.4906385523913" lon="8.24390400440362"><ele>552.0</ele><time>2026-04-19T13:28:06Z</time></trkpt><trkpt lat="44.49073941331702" lon="8.24397067905571"><ele>552.0</ele><time>2026-04-19T13:28:08Z</time></trkpt><trkpt lat="44.490805392532906" lon="8.244033462104653"><ele>552.0</ele><time>2026-04-19T13:28:09Z</time></trkpt><trkpt lat="44.490872620702646" lon="8.244092723387801"><ele>552.0</ele><time>2026-04-19T13:28:10Z</time></trkpt><trkpt lat="44.49091270555482" lon="8.244165241051821"><ele>552.0</ele><time>2026-04-19T13:28:10.999Z</time></trkpt><trkpt lat="44.49092900171285" lon="8.244252129057292"><ele>552.0</ele><time>2026-04-19T13:28:11.999Z</time></trkpt><trkpt lat="44.49093258996613" lon="8.244345215051831"><ele>552.0</ele><time>2026-04-19T13:28:12.999Z</time></trkpt><trkpt lat="44.49092422052509" lon="8.244480897549069"><ele>552.0</ele><time>2026-04-19T13:28:13.999Z</time></trkpt><trkpt lat="44.49091028220131" lon="8.244633561084306"><ele>552.0</ele><time>2026-04-19T13:28:14.999Z</time></trkpt><trkpt lat="44.49089582998593" lon="8.24478219599105"><ele>552.0</ele><time>2026-04-19T13:28:15.999Z</time></trkpt><trkpt lat="44.490884097057446" lon="8.244920147788875"><ele>552.0</ele><time>2026-04-19T13:28:16.999Z</time></trkpt><trkpt lat="44.49087916749466" lon="8.245046548411926"><ele>552.0</ele><time>2026-04-19T13:28:17.999Z</time></trkpt><trkpt lat="44.49088187667449" lon="8.245161468347773"><ele>550.2</ele><time>2026-04-19T13:28:18.999Z</time></trkpt><trkpt lat="44.49090444335757" lon="8.245271696278204"><ele>548.4000000000001</ele><time>2026-04-19T13:28:19.999Z</time></trkpt><trkpt lat="44.490963947567984" lon="8.245361366637248"><ele>546.5999999999999</ele><time>2026-04-19T13:28:20.999Z</time></trkpt><trkpt lat="44.49104235551625" lon="8.245441387002437"><ele>544.8</ele><time>2026-04-19T13:28:21.999Z</time></trkpt><trkpt lat="44.491127467653165" lon="8.245528084682121"><ele>543.0</ele><time>2026-04-19T13:28:22.999Z</time></trkpt><trkpt lat="44.49123175974333" lon="8.245596633871207"><ele>542.25</ele><time>2026-04-19T13:28:23.999Z</time></trkpt><trkpt lat="44.49133841790267" lon="8.245666150840247"><ele>541.5</ele><time>2026-04-19T13:28:24.999Z</time></trkpt><trkpt lat="44.49145634112248" lon="8.245725430175954"><ele>540.75</ele><time>2026-04-19T13:28:25.999Z</time></trkpt><trkpt lat="44.491577625552914" lon="8.24577337011791"><ele>540.0</ele><time>2026-04-19T13:28:26.999Z</time></trkpt><trkpt lat="44.49169280807457" lon="8.24581993078689"><ele>540.0</ele><time>2026-04-19T13:28:27.999Z</time></trkpt><trkpt lat="44.491796107441246" lon="8.245857124625294"><ele>540.0</ele><time>2026-04-19T13:28:28.999Z</time></trkpt><trkpt lat="44.49188919277152" lon="8.245917408543495"><ele>540.0</ele><time>2026-04-19T13:28:29.999Z</time></trkpt><trkpt lat="44.491985928392914" lon="8.245981986998862"><ele>540.0</ele><time>2026-04-19T13:28:30.999Z</time></trkpt><trkpt lat="44.492082944071534" lon="8.246044170805416"><ele>540.0</ele><time>2026-04-19T13:28:31.999Z</time></trkpt><trkpt lat="44.49217809879079" lon="8.246105161589918"><ele>537.6</ele><time>2026-04-19T13:28:32.999Z</time></trkpt><trkpt lat="44.49226755721112" lon="8.246162503618512"><ele>535.2</ele><time>2026-04-19T13:28:33.999Z</time></trkpt><trkpt lat="44.49233402976184" lon="8.24625344080713"><ele>532.8</ele><time>2026-04-19T13:28:34.999Z</time></trkpt><trkpt lat="44.49239744200414" lon="8.246371869417876"><ele>530.4</ele><time>2026-04-19T13:28:35.999Z</time></trkpt><trkpt lat="44.49246898592654" lon="8.2465074759031"><ele>528.0</ele><time>2026-04-19T13:28:36.999Z</time></trkpt><trkpt lat="44.492545896563364" lon="8.246642486581841"><ele>526.75</ele><time>2026-04-19T13:28:37.999Z</time></trkpt><trkpt lat="44.492624798684666" lon="8.246767746403632"><ele>525.5</ele><time>2026-04-19T13:28:38.999Z</time></trkpt><trkpt lat="44.492718854539724" lon="8.246877156306251"><ele>524.25</ele><time>2026-04-19T13:28:39.999Z</time></trkpt><trkpt lat="44.49282469265149" lon="8.246965230575332"><ele>523.0</ele><time>2026-04-19T13:28:40.999Z</time></trkpt><trkpt lat="44.492933389414794" lon="8.247044747734966"><ele>520.5</ele><time>2026-04-19T13:28:41.999Z</time></trkpt><trkpt lat="44.49304403916274" lon="8.247134929526926"><ele>518.0</ele><time>2026-04-19T13:28:42.999Z</time></trkpt><trkpt lat="44.49316248538406" lon="8.24725712351503"><ele>515.5</ele><time>2026-04-19T13:28:43.999Z</time></trkpt><trkpt lat="44.49330139370821" lon="8.247372273655625"><ele>513.0</ele><time>2026-04-19T13:28:44.999Z</time></trkpt><trkpt lat="44.493437631058306" lon="8.247477101215527"><ele>513.0</ele><time>2026-04-19T13:28:45.999Z</time></trkpt><trkpt lat="44.49356901518502" lon="8.247574767735735"><ele>513.0</ele><time>2026-04-19T13:28:46.999Z</time></trkpt><trkpt lat="44.493687747713764" lon="8.247665373501821"><ele>513.0</ele><time>2026-04-19T13:28:47.999Z</time></trkpt><trkpt lat="44.493794906397056" lon="8.24775814255139"><ele>513.0</ele><time>2026-04-19T13:28:48.999Z</time></trkpt><trkpt lat="44.493895727847615" lon="8.247854303155128"><ele>511.4</ele><time>2026-04-19T13:28:49.999Z</time></trkpt><trkpt lat="44.493982309873914" lon="8.247955399183931"><ele>509.79999999999995</ele><time>2026-04-19T13:28:50.999Z</time></trkpt><trkpt lat="44.49406446845583" lon="8.248025406894655"><ele>508.2</ele><time>2026-04-19T13:28:51.999Z</time></trkpt><trkpt lat="44.49410787390986" lon="8.248135504133886"><ele>506.6</ele><time>2026-04-19T13:28:52.999Z</time></trkpt><trkpt lat="44.49414277942403" lon="8.248249482071618"><ele>505.0</ele><time>2026-04-19T13:28:53.999Z</time></trkpt><trkpt lat="44.49418666693615" lon="8.24836995931153"><ele>504.2</ele><time>2026-04-19T13:28:54.999Z</time></trkpt><trkpt lat="44.4942636815516" lon="8.248473141377639"><ele>503.4</ele><time>2026-04-19T13:28:55.999Z</time></trkpt><trkpt lat="44.49434581139158" lon="8.248570778917022"><ele>502.6</ele><time>2026-04-19T13:28:56.999Z</time></trkpt><trkpt lat="44.494422533644716" lon="8.24866280338951"><ele>501.8</ele><time>2026-04-19T13:28:57.999Z</time></trkpt><trkpt lat="44.49448988448063" lon="8.24874358882149"><ele>501.0</ele><time>2026-04-19T13:28:58.999Z</time></trkpt><trkpt lat="44.49453573971621" lon="8.248817619442447"><ele>501.0</ele><time>2026-04-19T13:28:59.999Z</time></trkpt><trkpt lat="44.49454246582269" lon="8.248946733313325"><ele>501.0</ele><time>2026-04-19T13:29:01.999Z</time></trkpt><trkpt lat="44.49446319687372" lon="8.249010936407732"><ele>501.0</ele><time>2026-04-19T13:29:04Z</time></trkpt><trkpt lat="44.494424405311996" lon="8.248940730267877"><ele>501.0</ele><time>2026-04-19T13:29:05Z</time></trkpt><trkpt lat="44.49438219986722" lon="8.248869474510723"><ele>501.0</ele><time>2026-04-19T13:29:06Z</time></trkpt><trkpt lat="44.49432871382779" lon="8.248764278666817"><ele>501.0</ele><time>2026-04-19T13:29:07Z</time></trkpt><trkpt lat="44.49422990250164" lon="8.248696393397495"><ele>501.0</ele><time>2026-04-19T13:29:08Z</time></trkpt><trkpt lat="44.49412457584092" lon="8.248636941119717"><ele>501.0</ele><time>2026-04-19T13:29:09Z</time></trkpt><trkpt lat="44.49402251573323" lon="8.248562739125413"><ele>501.0</ele><time>2026-04-19T13:29:10Z</time></trkpt><trkpt lat="44.49390769225006" lon="8.248533487830821"><ele>501.0</ele><time>2026-04-19T13:29:11Z</time></trkpt><trkpt lat="44.493792069869954" lon="8.248545544998631"><ele>499.8</ele><time>2026-04-19T13:29:12Z</time></trkpt><trkpt lat="44.493687888685855" lon="8.248586901940646"><ele>498.6</ele><time>2026-04-19T13:29:13Z</time></trkpt><trkpt lat="44.49359394343868" lon="8.24853736842192"><ele>497.4</ele><time>2026-04-19T13:29:14Z</time></trkpt><trkpt lat="44.49349554397788" lon="8.248489591633998"><ele>496.2</ele><time>2026-04-19T13:29:15Z</time></trkpt><trkpt lat="44.49339477997255" lon="8.248456678253408"><ele>495.0</ele><time>2026-04-19T13:29:16Z</time></trkpt><trkpt lat="44.49330246789138" lon="8.24839283724137"><ele>495.0</ele><time>2026-04-19T13:29:17Z</time></trkpt><trkpt lat="44.493199695206435" lon="8.24836729192774"><ele>495.0</ele><time>2026-04-19T13:29:18Z</time></trkpt><trkpt lat="44.493085006459836" lon="8.248357112596588"><ele>495.0</ele><time>2026-04-19T13:29:19Z</time></trkpt><trkpt lat="44.49297584394854" lon="8.248355006123864"><ele>495.0</ele><time>2026-04-19T13:29:20Z</time></trkpt><trkpt lat="44.4928780990078" lon="8.248365736304645"><ele>495.0</ele><time>2026-04-19T13:29:21Z</time></trkpt><trkpt lat="44.49278450533541" lon="8.248390327193137"><ele>495.75</ele><time>2026-04-19T13:29:22Z</time></trkpt><trkpt lat="44.49269746258597" lon="8.248457892361186"><ele>496.5</ele><time>2026-04-19T13:29:23Z</time></trkpt><trkpt lat="44.492640100846444" lon="8.248593355567209"><ele>497.25</ele><time>2026-04-19T13:29:24Z</time></trkpt><trkpt lat="44.492559859148905" lon="8.248713404841057"><ele>498.0</ele><time>2026-04-19T13:29:25Z</time></trkpt><trkpt lat="44.492490731389516" lon="8.248865719885366"><ele>490.75</ele><time>2026-04-19T13:29:26Z</time></trkpt><trkpt lat="44.492442526331054" lon="8.249032215968526"><ele>483.5</ele><time>2026-04-19T13:29:27Z</time></trkpt><trkpt lat="44.49239859076384" lon="8.249182710332878"><ele>476.25</ele><time>2026-04-19T13:29:28Z</time></trkpt><trkpt lat="44.492339060478955" lon="8.249316461311418"><ele>469.0</ele><time>2026-04-19T13:29:29Z</time></trkpt><trkpt lat="44.49228979614036" lon="8.249442648296414"><ele>469.0</ele><time>2026-04-19T13:29:30Z</time></trkpt><trkpt lat="44.492255851720955" lon="8.249567142280466"><ele>469.0</ele><time>2026-04-19T13:29:31Z</time></trkpt><trkpt lat="44.492254913085155" lon="8.249717064367221"><ele>469.0</ele><time>2026-04-19T13:29:32Z</time></trkpt><trkpt lat="44.49227375830871" lon="8.249888082957604"><ele>469.0</ele><time>2026-04-19T13:29:33Z</time></trkpt><trkpt lat="44.492299841236935" lon="8.250078777435391"><ele>466.0</ele><time>2026-04-19T13:29:34Z</time></trkpt><trkpt lat="44.49232653069591" lon="8.250282338414717"><ele>463.0</ele><time>2026-04-19T13:29:35Z</time></trkpt><trkpt lat="44.49234785834712" lon="8.250466121674586"><ele>460.0</ele><time>2026-04-19T13:29:36Z</time></trkpt><trkpt lat="44.49236431008374" lon="8.250637788860287"><ele>457.0</ele><time>2026-04-19T13:29:37Z</time></trkpt><trkpt lat="44.49237274975136" lon="8.250803819640568"><ele>455.40000000000003</ele><time>2026-04-19T13:29:38Z</time></trkpt><trkpt lat="44.49236985717026" lon="8.250969126095661"><ele>453.80000000000007</ele><time>2026-04-19T13:29:39Z</time></trkpt><trkpt lat="44.49234637002505" lon="8.251125473072904"><ele>452.2</ele><time>2026-04-19T13:29:40Z</time></trkpt><trkpt lat="44.49233319218623" lon="8.251268628289582"><ele>450.6</ele><time>2026-04-19T13:29:41Z</time></trkpt><trkpt lat="44.49231941965401" lon="8.251375093641068"><ele>449.0</ele><time>2026-04-19T13:29:42Z</time></trkpt><trkpt lat="44.49227920909334" lon="8.251505190940447"><ele>448.99999999999994</ele><time>2026-04-19T13:29:44Z</time></trkpt><trkpt lat="44.49219232854601" lon="8.25152197415347"><ele>449.0</ele><time>2026-04-19T13:29:46Z</time></trkpt><trkpt lat="44.49214676437791" lon="8.251455963455939"><ele>449.0</ele><time>2026-04-19T13:29:46.999Z</time></trkpt><trkpt lat="44.49211780005317" lon="8.251356024377689"><ele>449.0</ele><time>2026-04-19T13:29:47.999Z</time></trkpt><trkpt lat="44.49210868768649" lon="8.251226386302692"><ele>448.99999999999994</ele><time>2026-04-19T13:29:48.999Z</time></trkpt><trkpt lat="44.4921083410097" lon="8.251077059210221"><ele>449.0</ele><time>2026-04-19T13:29:49.999Z</time></trkpt><trkpt lat="44.49210725585377" lon="8.250905373052326"><ele>449.0</ele><time>2026-04-19T13:29:50.999Z</time></trkpt><trkpt lat="44.49209243725034" lon="8.250742429061193"><ele>449.0</ele><time>2026-04-19T13:29:51.999Z</time></trkpt><trkpt lat="44.492064205904875" lon="8.250592536834473"><ele>449.0</ele><time>2026-04-19T13:29:52.999Z</time></trkpt><trkpt lat="44.492021367858555" lon="8.250455626823737"><ele>449.0</ele><time>2026-04-19T13:29:53.999Z</time></trkpt><trkpt lat="44.49197045521131" lon="8.250331822723886"><ele>449.0</ele><time>2026-04-19T13:29:54.999Z</time></trkpt><trkpt lat="44.49192536183544" lon="8.250212727203934"><ele>448.49999999999994</ele><time>2026-04-19T13:29:55.999Z</time></trkpt><trkpt lat="44.49189442442534" lon="8.250100362306364"><ele>448.0</ele><time>2026-04-19T13:29:56.999Z</time></trkpt><trkpt lat="44.49185584008759" lon="8.2500020368201"><ele>447.5</ele><time>2026-04-19T13:29:57.999Z</time></trkpt><trkpt lat="44.49179900878459" lon="8.249923170880754"><ele>447.0</ele><time>2026-04-19T13:29:58.999Z</time></trkpt><trkpt lat="44.4917257338792" lon="8.249892144945655"><ele>446.49999999999994</ele><time>2026-04-19T13:29:59.999Z</time></trkpt><trkpt lat="44.491649623376766" lon="8.24987836687076"><ele>446.0</ele><time>2026-04-19T13:30:00.999Z</time></trkpt><trkpt lat="44.491555594547386" lon="8.24993103546506"><ele>446.0</ele><time>2026-04-19T13:30:01.999Z</time></trkpt><trkpt lat="44.49144847786095" lon="8.24999556369081"><ele>446.0</ele><time>2026-04-19T13:30:02.999Z</time></trkpt><trkpt lat="44.49133139814027" lon="8.250018826283524"><ele>446.0</ele><time>2026-04-19T13:30:03.999Z</time></trkpt><trkpt lat="44.49122641572105" lon="8.25001474403894"><ele>446.0</ele><time>2026-04-19T13:30:04.999Z</time></trkpt><trkpt lat="44.49113408164318" lon="8.24997990904515"><ele>446.0</ele><time>2026-04-19T13:30:05.999Z</time></trkpt><trkpt lat="44.491042986115446" lon="8.249962027891534"><ele>442.49999999999994</ele><time>2026-04-19T13:30:06.999Z</time></trkpt><trkpt lat="44.4909789820767" lon="8.249925197101343"><ele>439.0</ele><time>2026-04-19T13:30:07.999Z</time></trkpt><trkpt lat="44.49091230881658" lon="8.249969391993055"><ele>435.5</ele><time>2026-04-19T13:30:08.999Z</time></trkpt><trkpt lat="44.4908774556873" lon="8.250049549547594"><ele>432.0</ele><time>2026-04-19T13:30:09.999Z</time></trkpt><trkpt lat="44.49087910798782" lon="8.25014970164384"><ele>428.49999999999994</ele><time>2026-04-19T13:30:10.999Z</time></trkpt><trkpt lat="44.490943603572475" lon="8.25023225459728"><ele>425.0</ele><time>2026-04-19T13:30:11.999Z</time></trkpt><trkpt lat="44.491042679403215" lon="8.25023797435393"><ele>425.0</ele><time>2026-04-19T13:30:12.999Z</time></trkpt><trkpt lat="44.49113749467905" lon="8.250255020538724"><ele>425.0</ele><time>2026-04-19T13:30:13.999Z</time></trkpt><trkpt lat="44.49122166873368" lon="8.250286462607477"><ele>425.0</ele><time>2026-04-19T13:30:14.999Z</time></trkpt><trkpt lat="44.491267548046466" lon="8.250355200226785"><ele>425.0</ele><time>2026-04-19T13:30:15.999Z</time></trkpt><trkpt lat="44.491316166835546" lon="8.250510057343668"><ele>425.0</ele><time>2026-04-19T13:30:17.999Z</time></trkpt><trkpt lat="44.49132153609188" lon="8.250624992234153"><ele>428.0</ele><time>2026-04-19T13:30:18.999Z</time></trkpt><trkpt lat="44.49132156044933" lon="8.250779015922983"><ele>431.0</ele><time>2026-04-19T13:30:19.999Z</time></trkpt><trkpt lat="44.49131768561955" lon="8.250960498104638"><ele>434.0</ele><time>2026-04-19T13:30:20.999Z</time></trkpt><trkpt lat="44.491305923696984" lon="8.251134982577037"><ele>437.0</ele><time>2026-04-19T13:30:21.999Z</time></trkpt><trkpt lat="44.49128618011383" lon="8.251302889332779"><ele>435.20000000000005</ele><time>2026-04-19T13:30:22.999Z</time></trkpt><trkpt lat="44.49127628903471" lon="8.251461136590022"><ele>433.40000000000003</ele><time>2026-04-19T13:30:23.999Z</time></trkpt><trkpt lat="44.49129175825793" lon="8.251611955815445"><ele>431.59999999999997</ele><time>2026-04-19T13:30:24.999Z</time></trkpt><trkpt lat="44.49131638388616" lon="8.251754291432208"><ele>429.79999999999995</ele><time>2026-04-19T13:30:25.999Z</time></trkpt><trkpt lat="44.49135596526263" lon="8.251885855132398"><ele>428.0</ele><time>2026-04-19T13:30:26.999Z</time></trkpt><trkpt lat="44.49140228535255" lon="8.251979957075593"><ele>428.0</ele><time>2026-04-19T13:30:27.999Z</time></trkpt><trkpt lat="44.49146378843137" lon="8.252055080454323"><ele>427.99999999999994</ele><time>2026-04-19T13:30:28.999Z</time></trkpt><trkpt lat="44.491562765982685" lon="8.25206406018897"><ele>427.99999999999994</ele><time>2026-04-19T13:30:29.999Z</time></trkpt><trkpt lat="44.491652487649255" lon="8.25212243169643"><ele>428.0</ele><time>2026-04-19T13:30:30.999Z</time></trkpt><trkpt lat="44.49173280900955" lon="8.25219044730359"><ele>428.0</ele><time>2026-04-19T13:30:31.999Z</time></trkpt><trkpt lat="44.49180261971814" lon="8.252291395710872"><ele>421.75</ele><time>2026-04-19T13:30:32.999Z</time></trkpt><trkpt lat="44.491874197029766" lon="8.252423769982302"><ele>415.5</ele><time>2026-04-19T13:30:33.999Z</time></trkpt><trkpt lat="44.49193692492194" lon="8.252576178171624"><ele>409.25</ele><time>2026-04-19T13:30:34.999Z</time></trkpt><trkpt lat="44.491978737028425" lon="8.252738329465364"><ele>403.0</ele><time>2026-04-19T13:30:35.999Z</time></trkpt><trkpt lat="44.49200586129689" lon="8.252920311289648"><ele>403.0</ele><time>2026-04-19T13:30:36.999Z</time></trkpt><trkpt lat="44.492054091817984" lon="8.253106740901268"><ele>403.0</ele><time>2026-04-19T13:30:37.999Z</time></trkpt><trkpt lat="44.49213227940301" lon="8.253268450342235"><ele>403.0</ele><time>2026-04-19T13:30:38.999Z</time></trkpt><trkpt lat="44.492198133585795" lon="8.253427480364623"><ele>403.0</ele><time>2026-04-19T13:30:39.999Z</time></trkpt><trkpt lat="44.492253290612915" lon="8.253572818030063"><ele>402.83333333333337</ele><time>2026-04-19T13:30:40.999Z</time></trkpt><trkpt lat="44.49229854256336" lon="8.253690366528575"><ele>402.6666666666667</ele><time>2026-04-19T13:30:41.999Z</time></trkpt><trkpt lat="44.49234057360977" lon="8.253782842505379"><ele>402.5</ele><time>2026-04-19T13:30:42.999Z</time></trkpt><trkpt lat="44.49240115204437" lon="8.25383606763903"><ele>402.33333333333337</ele><time>2026-04-19T13:30:43.999Z</time></trkpt><trkpt lat="44.49246245505331" lon="8.253875057624455"><ele>402.1666666666667</ele><time>2026-04-19T13:30:44.999Z</time></trkpt><trkpt lat="44.492529682867854" lon="8.253806472439054"><ele>402.0</ele><time>2026-04-19T13:30:45.999Z</time></trkpt><trkpt lat="44.492582462462906" lon="8.25370935906363"><ele>402.0</ele><time>2026-04-19T13:30:46.999Z</time></trkpt><trkpt lat="44.49263654977386" lon="8.253586041610333"><ele>402.0</ele><time>2026-04-19T13:30:47.999Z</time></trkpt><trkpt lat="44.49268847435402" lon="8.253479217574816"><ele>402.0</ele><time>2026-04-19T13:30:48.999Z</time></trkpt><trkpt lat="44.49274302419189" lon="8.25340753966824"><ele>402.0</ele><time>2026-04-19T13:30:49.999Z</time></trkpt><trkpt lat="44.49282126284467" lon="8.253363395294855"><ele>402.0</ele><time>2026-04-19T13:30:51.999Z</time></trkpt><trkpt lat="44.49285899080874" lon="8.253501858363522"><ele>402.0</ele><time>2026-04-19T13:30:53.999Z</time></trkpt><trkpt lat="44.49280106621442" lon="8.253563079852015"><ele>402.0</ele><time>2026-04-19T13:30:54.999Z</time></trkpt><trkpt lat="44.492747793065014" lon="8.253664496010524"><ele>402.0</ele><time>2026-04-19T13:30:55.999Z</time></trkpt><trkpt lat="44.49269791468038" lon="8.25379103677603"><ele>402.0</ele><time>2026-04-19T13:30:56.999Z</time></trkpt><trkpt lat="44.49265717815727" lon="8.253927351332923"><ele>402.0</ele><time>2026-04-19T13:30:57.999Z</time></trkpt><trkpt lat="44.4926221122623" lon="8.254045168729608"><ele>398.6666666666667</ele><time>2026-04-19T13:30:58.999Z</time></trkpt><trkpt lat="44.49258302667794" lon="8.254128563399108"><ele>395.3333333333333</ele><time>2026-04-19T13:30:59.999Z</time></trkpt><trkpt lat="44.492541298336185" lon="8.25419642785548"><ele>392.0</ele><time>2026-04-19T13:31:00.999Z</time></trkpt><trkpt lat="44.49246771849308" lon="8.254219317061025"><ele>388.66666666666663</ele><time>2026-04-19T13:31:01.999Z</time></trkpt><trkpt lat="44.49238220489886" lon="8.254214003527785"><ele>385.3333333333333</ele><time>2026-04-19T13:31:02.999Z</time></trkpt><trkpt lat="44.49229531115886" lon="8.254145202542134"><ele>382.0</ele><time>2026-04-19T13:31:03.999Z</time></trkpt><trkpt lat="44.492202713238676" lon="8.25407388330149"><ele>382.0</ele><time>2026-04-19T13:31:04.999Z</time></trkpt><trkpt lat="44.492106760006024" lon="8.253977223039332"><ele>382.0</ele><time>2026-04-19T13:31:05.999Z</time></trkpt><trkpt lat="44.49199888647818" lon="8.253830992841062"><ele>382.0</ele><time>2026-04-19T13:31:06.999Z</time></trkpt><trkpt lat="44.491881574478526" lon="8.253689843132223"><ele>382.0</ele><time>2026-04-19T13:31:07.999Z</time></trkpt><trkpt lat="44.49178325892534" lon="8.25354851603218"><ele>381.8</ele><time>2026-04-19T13:31:09Z</time></trkpt><trkpt lat="44.49169712942273" lon="8.25342126054373"><ele>381.6</ele><time>2026-04-19T13:31:10Z</time></trkpt><trkpt lat="44.491628594328944" lon="8.253298253123495"><ele>381.40000000000003</ele><time>2026-04-19T13:31:11Z</time></trkpt><trkpt lat="44.49158068636279" lon="8.253169088147521"><ele>381.20000000000005</ele><time>2026-04-19T13:31:12Z</time></trkpt><trkpt lat="44.49156028169047" lon="8.253052601099808"><ele>381.0</ele><time>2026-04-19T13:31:13Z</time></trkpt><trkpt lat="44.49149693372783" lon="8.252923347943547"><ele>381.0</ele><time>2026-04-19T13:31:15Z</time></trkpt><trkpt lat="44.49143085175501" lon="8.252932707446698"><ele>381.0</ele><time>2026-04-19T13:31:16Z</time></trkpt><trkpt lat="44.49137261030952" lon="8.253068017164075"><ele>381.0</ele><time>2026-04-19T13:31:18Z</time></trkpt><trkpt lat="44.49141996368472" lon="8.253159096660163"><ele>381.0</ele><time>2026-04-19T13:31:19Z</time></trkpt><trkpt lat="44.49148057521505" lon="8.253273130024727"><ele>381.0</ele><time>2026-04-19T13:31:20Z</time></trkpt><trkpt lat="44.49154787903427" lon="8.253414265857153"><ele>381.0</ele><time>2026-04-19T13:31:21Z</time></trkpt><trkpt lat="44.49160359744016" lon="8.253613421225351"><ele>381.0</ele><time>2026-04-19T13:31:22Z</time></trkpt><trkpt lat="44.491669393550886" lon="8.253825322294738"><ele>381.0</ele><time>2026-04-19T13:31:23Z</time></trkpt><trkpt lat="44.49172249810366" lon="8.254025632370727"><ele>377.75</ele><time>2026-04-19T13:31:24Z</time></trkpt><trkpt lat="44.49178830103682" lon="8.254191662602747"><ele>374.5</ele><time>2026-04-19T13:31:25Z</time></trkpt><trkpt lat="44.49182662002819" lon="8.254353773478698"><ele>371.25</ele><time>2026-04-19T13:31:26Z</time></trkpt><trkpt lat="44.49188878840632" lon="8.254494463896995"><ele>368.0</ele><time>2026-04-19T13:31:27Z</time></trkpt><trkpt lat="44.49199684552919" lon="8.254606082815046"><ele>366.0</ele><time>2026-04-19T13:31:28Z</time></trkpt><trkpt lat="44.49213885937826" lon="8.254663005680364"><ele>364.0</ele><time>2026-04-19T13:31:29Z</time></trkpt><trkpt lat="44.49227858139305" lon="8.254731373848571"><ele>362.0</ele><time>2026-04-19T13:31:30Z</time></trkpt><trkpt lat="44.49239630258847" lon="8.254817043643985"><ele>360.0</ele><time>2026-04-19T13:31:31Z</time></trkpt><trkpt lat="44.49248554469625" lon="8.25491962763431"><ele>360.0</ele><time>2026-04-19T13:31:32Z</time></trkpt><trkpt lat="44.49256240668126" lon="8.255027330569018"><ele>360.0</ele><time>2026-04-19T13:31:33Z</time></trkpt><trkpt lat="44.49264542813059" lon="8.255107328185254"><ele>360.0</ele><time>2026-04-19T13:31:34Z</time></trkpt><trkpt lat="44.49273748163614" lon="8.255150701691463"><ele>360.0</ele><time>2026-04-19T13:31:35Z</time></trkpt><trkpt lat="44.49283507579914" lon="8.255144482534353"><ele>360.0</ele><time>2026-04-19T13:31:36Z</time></trkpt><trkpt lat="44.492938218856" lon="8.255113297213972"><ele>360.8333333333333</ele><time>2026-04-19T13:31:37Z</time></trkpt><trkpt lat="44.49302814621509" lon="8.255080562785402"><ele>361.6666666666667</ele><time>2026-04-19T13:31:38Z</time></trkpt><trkpt lat="44.49310117429052" lon="8.255035988247855"><ele>362.5</ele><time>2026-04-19T13:31:39Z</time></trkpt><trkpt lat="44.49316554809541" lon="8.254982018682442"><ele>363.33333333333337</ele><time>2026-04-19T13:31:40Z</time></trkpt><trkpt lat="44.49318463895896" lon="8.254852812702083"><ele>364.1666666666667</ele><time>2026-04-19T13:31:41Z</time></trkpt><trkpt lat="44.49320571832775" lon="8.254721421013379"><ele>365.0</ele><time>2026-04-19T13:31:42Z</time></trkpt><trkpt lat="44.49324907740229" lon="8.254614232769045"><ele>365.0</ele><time>2026-04-19T13:31:43Z</time></trkpt><trkpt lat="44.49331687512877" lon="8.254533705810116"><ele>365.0</ele><time>2026-04-19T13:31:44Z</time></trkpt><trkpt lat="44.4934160865577" lon="8.25448934480835"><ele>365.0</ele><time>2026-04-19T13:31:45Z</time></trkpt><trkpt lat="44.49350114974867" lon="8.254382833545758"><ele>365.0</ele><time>2026-04-19T13:31:46Z</time></trkpt><trkpt lat="44.49356027759137" lon="8.254265639484219"><ele>365.0</ele><time>2026-04-19T13:31:47Z</time></trkpt><trkpt lat="44.4936087746468" lon="8.254184531353227"><ele>365.0</ele><time>2026-04-19T13:31:48Z</time></trkpt><trkpt lat="44.493655228324094" lon="8.254122844577616"><ele>365.0</ele><time>2026-04-19T13:31:49Z</time></trkpt><trkpt lat="44.49377058150238" lon="8.254135790589146"><ele>365.0</ele><time>2026-04-19T13:31:51Z</time></trkpt><trkpt lat="44.49384004848742" lon="8.254284534444222"><ele>365.0</ele><time>2026-04-19T13:31:53Z</time></trkpt><trkpt lat="44.49385919101103" lon="8.254378078156613"><ele>365.0</ele><time>2026-04-19T13:31:53.999Z</time></trkpt><trkpt lat="44.493862411146345" lon="8.2544940927279"><ele>365.8</ele><time>2026-04-19T13:31:54.999Z</time></trkpt><trkpt lat="44.49384066879609" lon="8.2546151119015"><ele>366.6</ele><time>2026-04-19T13:31:55.999Z</time></trkpt><trkpt lat="44.493799265224474" lon="8.254748258875246"><ele>367.4</ele><time>2026-04-19T13:31:56.999Z</time></trkpt><trkpt lat="44.49375223138147" lon="8.254888589813172"><ele>368.2</ele><time>2026-04-19T13:31:57.999Z</time></trkpt><trkpt lat="44.49372531441047" lon="8.255028182408665"><ele>369.0</ele><time>2026-04-19T13:31:58.999Z</time></trkpt><trkpt lat="44.49370906820909" lon="8.25515586704904"><ele>367.3333333333333</ele><time>2026-04-19T13:31:59.999Z</time></trkpt><trkpt lat="44.49370411539118" lon="8.255293467465467"><ele>365.6666666666667</ele><time>2026-04-19T13:32:00.999Z</time></trkpt><trkpt lat="44.49371556439569" lon="8.255417812538512"><ele>364.0</ele><time>2026-04-19T13:32:01.999Z</time></trkpt><trkpt lat="44.49374651860613" lon="8.255518868548522"><ele>362.33333333333337</ele><time>2026-04-19T13:32:02.999Z</time></trkpt><trkpt lat="44.49381345411576" lon="8.255583455843695"><ele>360.6666666666667</ele><time>2026-04-19T13:32:03.999Z</time></trkpt><trkpt lat="44.4938889111591" lon="8.255633264293895"><ele>359.0</ele><time>2026-04-19T13:32:04.999Z</time></trkpt><trkpt lat="44.49398056771239" lon="8.255670063096021"><ele>355.6666666666667</ele><time>2026-04-19T13:32:05.999Z</time></trkpt><trkpt lat="44.494071589109815" lon="8.255721580112901"><ele>352.33333333333337</ele><time>2026-04-19T13:32:06.999Z</time></trkpt><trkpt lat="44.49414468148154" lon="8.255787318583142"><ele>349.0</ele><time>2026-04-19T13:32:07.999Z</time></trkpt><trkpt lat="44.49417992974233" lon="8.255899644612464"><ele>345.6666666666667</ele><time>2026-04-19T13:32:08.999Z</time></trkpt><trkpt lat="44.49420112781799" lon="8.25600864655858"><ele>342.3333333333333</ele><time>2026-04-19T13:32:09.999Z</time></trkpt><trkpt lat="44.494259478090896" lon="8.256108284784471"><ele>339.0</ele><time>2026-04-19T13:32:10.999Z</time></trkpt><trkpt lat="44.49437042421815" lon="8.256175768754792"><ele>339.0</ele><time>2026-04-19T13:32:11.999Z</time></trkpt><trkpt lat="44.4944958376052" lon="8.256274111493996"><ele>339.0</ele><time>2026-04-19T13:32:12.999Z</time></trkpt><trkpt lat="44.49463350335673" lon="8.256373776369545"><ele>339.0</ele><time>2026-04-19T13:32:13.999Z</time></trkpt><trkpt lat="44.49476171071399" lon="8.256469259102126"><ele>339.0</ele><time>2026-04-19T13:32:14.999Z</time></trkpt><trkpt lat="44.49486679107237" lon="8.25657921396189"><ele>336.2</ele><time>2026-04-19T13:32:15.999Z</time></trkpt><trkpt lat="44.4949753793101" lon="8.256637399874286"><ele>333.4</ele><time>2026-04-19T13:32:16.999Z</time></trkpt><trkpt lat="44.49506655125916" lon="8.256696334108343"><ele>330.6</ele><time>2026-04-19T13:32:17.999Z</time></trkpt><trkpt lat="44.49516166328625" lon="8.256730000330826"><ele>327.8</ele><time>2026-04-19T13:32:18.999Z</time></trkpt><trkpt lat="44.49524611158338" lon="8.256725702145628"><ele>325.0</ele><time>2026-04-19T13:32:19.999Z</time></trkpt><trkpt lat="44.495321767578204" lon="8.256705478541113"><ele>323.6</ele><time>2026-04-19T13:32:20.999Z</time></trkpt><trkpt lat="44.49542905979203" lon="8.256717510376104"><ele>322.2</ele><time>2026-04-19T13:32:22.999Z</time></trkpt><trkpt lat="44.49548689589511" lon="8.256776236988445"><ele>320.8</ele><time>2026-04-19T13:32:23.999Z</time></trkpt><trkpt lat="44.49552024698634" lon="8.256896621637415"><ele>319.4</ele><time>2026-04-19T13:32:24.999Z</time></trkpt><trkpt lat="44.49556854963645" lon="8.257034184682563"><ele>318.0</ele><time>2026-04-19T13:32:25.999Z</time></trkpt><trkpt lat="44.49562803669805" lon="8.257205511311856"><ele>317.6666666666667</ele><time>2026-04-19T13:32:26.999Z</time></trkpt><trkpt lat="44.495709323272436" lon="8.257393216429284"><ele>317.33333333333337</ele><time>2026-04-19T13:32:27.999Z</time></trkpt><trkpt lat="44.4957828940863" lon="8.25759359890932"><ele>317.0</ele><time>2026-04-19T13:32:28.999Z</time></trkpt><trkpt lat="44.49584038281714" lon="8.25777401695996"><ele>317.0</ele><time>2026-04-19T13:32:29.999Z</time></trkpt><trkpt lat="44.495871064838084" lon="8.257952857389082"><ele>317.0</ele><time>2026-04-19T13:32:30.999Z</time></trkpt><trkpt lat="44.49590309733523" lon="8.258128922789016"><ele>317.0</ele><time>2026-04-19T13:32:31.999Z</time></trkpt><trkpt lat="44.49591638972936" lon="8.258311237350176"><ele>317.0</ele><time>2026-04-19T13:32:32.999Z</time></trkpt><trkpt lat="44.49592077336308" lon="8.2584968079001"><ele>317.5</ele><time>2026-04-19T13:32:33.999Z</time></trkpt><trkpt lat="44.49594427500026" lon="8.258667954418838"><ele>318.0</ele><time>2026-04-19T13:32:34.999Z</time></trkpt><trkpt lat="44.49594763218606" lon="8.258832316149302"><ele>318.5</ele><time>2026-04-19T13:32:35.999Z</time></trkpt><trkpt lat="44.49598957293205" lon="8.258996217547278"><ele>319.0</ele><time>2026-04-19T13:32:36.999Z</time></trkpt><trkpt lat="44.4960781193478" lon="8.259145581856464"><ele>317.66666666666663</ele><time>2026-04-19T13:32:37.999Z</time></trkpt><trkpt lat="44.496156650576644" lon="8.259324986828158"><ele>316.3333333333333</ele><time>2026-04-19T13:32:38.999Z</time></trkpt><trkpt lat="44.49624537621475" lon="8.259494086525311"><ele>315.0</ele><time>2026-04-19T13:32:39.999Z</time></trkpt><trkpt lat="44.49632516648345" lon="8.259674788517076"><ele>316.6666666666667</ele><time>2026-04-19T13:32:40.999Z</time></trkpt><trkpt lat="44.49638239882225" lon="8.25990319301251"><ele>318.33333333333337</ele><time>2026-04-19T13:32:41.999Z</time></trkpt><trkpt lat="44.49643729287917" lon="8.2601673756371"><ele>320.0</ele><time>2026-04-19T13:32:42.999Z</time></trkpt><trkpt lat="44.496494940404425" lon="8.260406917657614"><ele>319.0</ele><time>2026-04-19T13:32:43.999Z</time></trkpt><trkpt lat="44.49654563686176" lon="8.260637738806013"><ele>318.0</ele><time>2026-04-19T13:32:44.999Z</time></trkpt><trkpt lat="44.496595417762954" lon="8.260864391582833"><ele>317.0</ele><time>2026-04-19T13:32:45.999Z</time></trkpt><trkpt lat="44.49664410685718" lon="8.2610860730667"><ele>317.0</ele><time>2026-04-19T13:32:46.999Z</time></trkpt><trkpt lat="44.496688394469714" lon="8.261288973136876"><ele>317.0</ele><time>2026-04-19T13:32:47.999Z</time></trkpt><trkpt lat="44.496724225458586" lon="8.261474150233632"><ele>317.0</ele><time>2026-04-19T13:32:48.999Z</time></trkpt><trkpt lat="44.496742252812545" lon="8.261647162932938"><ele>317.0</ele><time>2026-04-19T13:32:49.999Z</time></trkpt><trkpt lat="44.49673439160415" lon="8.261787783189323"><ele>315.25</ele><time>2026-04-19T13:32:50.999Z</time></trkpt><trkpt lat="44.496710891048764" lon="8.261926604170025"><ele>313.5</ele><time>2026-04-19T13:32:51.999Z</time></trkpt><trkpt lat="44.49668165786846" lon="8.262081423778143"><ele>311.75</ele><time>2026-04-19T13:32:52.999Z</time></trkpt><trkpt lat="44.4966467017336" lon="8.262250826728566"><ele>310.0</ele><time>2026-04-19T13:32:53.999Z</time></trkpt><trkpt lat="44.49661251928675" lon="8.262424442939786"><ele>309.75</ele><time>2026-04-19T13:32:54.999Z</time></trkpt><trkpt lat="44.49658556711103" lon="8.262596057779668"><ele>309.5</ele><time>2026-04-19T13:32:55.999Z</time></trkpt><trkpt lat="44.49657110171573" lon="8.26275554140558"><ele>309.25</ele><time>2026-04-19T13:32:56.999Z</time></trkpt><trkpt lat="44.496567266995484" lon="8.262907131923651"><ele>309.0</ele><time>2026-04-19T13:32:57.999Z</time></trkpt><trkpt lat="44.4965992226476" lon="8.263064783606206"><ele>309.75</ele><time>2026-04-19T13:32:58.999Z</time></trkpt><trkpt lat="44.49664550814877" lon="8.263227132211174"><ele>310.5</ele><time>2026-04-19T13:32:59.999Z</time></trkpt><trkpt lat="44.49670506375099" lon="8.26340507364695"><ele>311.25</ele><time>2026-04-19T13:33:00.999Z</time></trkpt><trkpt lat="44.496767895069254" lon="8.263582306345308"><ele>312.0</ele><time>2026-04-19T13:33:01.999Z</time></trkpt><trkpt lat="44.496832928799265" lon="8.2637377507897"><ele>312.0</ele><time>2026-04-19T13:33:02.999Z</time></trkpt><trkpt lat="44.496918445966024" lon="8.263856958256683"><ele>312.0</ele><time>2026-04-19T13:33:03.999Z</time></trkpt><trkpt lat="44.49700236276349" lon="8.263961880128686"><ele>312.0</ele><time>2026-04-19T13:33:04.999Z</time></trkpt><trkpt lat="44.49710779030571" lon="8.264055818691407"><ele>312.0</ele><time>2026-04-19T13:33:05.999Z</time></trkpt><trkpt lat="44.49721145057955" lon="8.264128091269091"><ele>312.8</ele><time>2026-04-19T13:33:06.999Z</time></trkpt><trkpt lat="44.497311591630954" lon="8.264165704098039"><ele>313.6</ele><time>2026-04-19T13:33:07.999Z</time></trkpt><trkpt lat="44.49740948599747" lon="8.264191273316209"><ele>314.40000000000003</ele><time>2026-04-19T13:33:08.999Z</time></trkpt><trkpt lat="44.49754883520388" lon="8.264318567700613"><ele>315.2</ele><time>2026-04-19T13:33:10.999Z</time></trkpt><trkpt lat="44.49758590657238" lon="8.264405405239112"><ele>316.0</ele><time>2026-04-19T13:33:11.999Z</time></trkpt><trkpt lat="44.49760837144785" lon="8.26452737311186"><ele>316.0</ele><time>2026-04-19T13:33:12.999Z</time></trkpt><trkpt lat="44.49764817649102" lon="8.264689838598715"><ele>316.0</ele><time>2026-04-19T13:33:13.999Z</time></trkpt><trkpt lat="44.49769968698274" lon="8.264885299866714"><ele>316.0</ele><time>2026-04-19T13:33:14.999Z</time></trkpt><trkpt lat="44.49775591004145" lon="8.265101856697026"><ele>316.0</ele><time>2026-04-19T13:33:15.999Z</time></trkpt><trkpt lat="44.49779972012979" lon="8.265273745526727"><ele>315.0</ele><time>2026-04-19T13:33:16.999Z</time></trkpt><trkpt lat="44.497838495089425" lon="8.26542835546256"><ele>314.0</ele><time>2026-04-19T13:33:17.999Z</time></trkpt><trkpt lat="44.497895459273195" lon="8.265574650488247"><ele>313.0</ele><time>2026-04-19T13:33:18.999Z</time></trkpt><trkpt lat="44.49797476318485" lon="8.26569853003468"><ele>312.0</ele><time>2026-04-19T13:33:19.999Z</time></trkpt><trkpt lat="44.498080379931714" lon="8.265811055398569"><ele>312.0</ele><time>2026-04-19T13:33:20.999Z</time></trkpt><trkpt lat="44.49819133765569" lon="8.265897359723942"><ele>312.0</ele><time>2026-04-19T13:33:21.999Z</time></trkpt><trkpt lat="44.49827625457008" lon="8.265978785106324"><ele>312.0</ele><time>2026-04-19T13:33:22.999Z</time></trkpt><trkpt lat="44.498319554360855" lon="8.266071361425738"><ele>312.0</ele><time>2026-04-19T13:33:23.999Z</time></trkpt><trkpt lat="44.49835617095006" lon="8.266166787213754"><ele>312.0</ele><time>2026-04-19T13:33:24.999Z</time></trkpt><trkpt lat="44.49840486422674" lon="8.266292668666047"><ele>310.0</ele><time>2026-04-19T13:33:25.999Z</time></trkpt><trkpt lat="44.49846942916232" lon="8.266454218035777"><ele>308.0</ele><time>2026-04-19T13:33:26.999Z</time></trkpt><trkpt lat="44.49855260381354" lon="8.266657648874641"><ele>306.0</ele><time>2026-04-19T13:33:28Z</time></trkpt><trkpt lat="44.49865505864324" lon="8.266909502513144"><ele>306.0</ele><time>2026-04-19T13:33:29Z</time></trkpt><trkpt lat="44.49874492497298" lon="8.26713711379084"><ele>306.0</ele><time>2026-04-19T13:33:30Z</time></trkpt><trkpt lat="44.49882094468678" lon="8.267343956151768"><ele>306.0</ele><time>2026-04-19T13:33:31Z</time></trkpt><trkpt lat="44.49888194748015" lon="8.267538999925618"><ele>307.0</ele><time>2026-04-19T13:33:32Z</time></trkpt><trkpt lat="44.498926382295146" lon="8.26769805970506"><ele>308.0</ele><time>2026-04-19T13:33:33Z</time></trkpt><trkpt lat="44.49896657429622" lon="8.267850164146877"><ele>309.0</ele><time>2026-04-19T13:33:34Z</time></trkpt><trkpt lat="44.49899449276221" lon="8.267964392678627"><ele>310.0</ele><time>2026-04-19T13:33:35Z</time></trkpt><trkpt lat="44.4990157159998" lon="8.26805632196862"><ele>311.0</ele><time>2026-04-19T13:33:36Z</time></trkpt><trkpt lat="44.4990597091806" lon="8.268186086289305"><ele>311.0</ele><time>2026-04-19T13:33:38Z</time></trkpt><trkpt lat="44.49910277635354" lon="8.268252146700824"><ele>311.0</ele><time>2026-04-19T13:33:39Z</time></trkpt><trkpt lat="44.49915067512847" lon="8.268344818486598"><ele>311.0</ele><time>2026-04-19T13:33:40Z</time></trkpt><trkpt lat="44.49924784392979" lon="8.268392579526601"><ele>311.0</ele><time>2026-04-19T13:33:41Z</time></trkpt><trkpt lat="44.49935877533508" lon="8.268423122388317"><ele>311.0</ele><time>2026-04-19T13:33:42Z</time></trkpt><trkpt lat="44.49948811163845" lon="8.268463993004254"><ele>311.8</ele><time>2026-04-19T13:33:43Z</time></trkpt><trkpt lat="44.49960215289507" lon="8.268489645669776"><ele>312.6</ele><time>2026-04-19T13:33:44Z</time></trkpt><trkpt lat="44.499697421494545" lon="8.268512294670376"><ele>313.4</ele><time>2026-04-19T13:33:45Z</time></trkpt><trkpt lat="44.499761346457575" lon="8.268589912265169"><ele>314.2</ele><time>2026-04-19T13:33:46Z</time></trkpt><trkpt lat="44.499800592361076" lon="8.268701593178152"><ele>315.0</ele><time>2026-04-19T13:33:47Z</time></trkpt><trkpt lat="44.49977176310274" lon="8.268833712959742"><ele>312.25</ele><time>2026-04-19T13:33:48Z</time></trkpt><trkpt lat="44.49972090075724" lon="8.268952417114775"><ele>309.5</ele><time>2026-04-19T13:33:49Z</time></trkpt><trkpt lat="44.499654742609025" lon="8.269116090138574"><ele>306.75</ele><time>2026-04-19T13:33:50Z</time></trkpt><trkpt lat="44.499568854882305" lon="8.269311060464137"><ele>304.0</ele><time>2026-04-19T13:33:51Z</time></trkpt><trkpt lat="44.49946814126015" lon="8.269539915026929"><ele>303.0</ele><time>2026-04-19T13:33:52Z</time></trkpt><trkpt lat="44.49935670016739" lon="8.269795217897398"><ele>302.0</ele><time>2026-04-19T13:33:53Z</time></trkpt><trkpt lat="44.499236129085304" lon="8.270073796239206"><ele>301.0</ele><time>2026-04-19T13:33:54Z</time></trkpt><trkpt lat="44.49910923464699" lon="8.270369752950469"><ele>304.0</ele><time>2026-04-19T13:33:55Z</time></trkpt><trkpt lat="44.498978255250385" lon="8.27068074081234"><ele>307.0</ele><time>2026-04-19T13:33:56Z</time></trkpt><trkpt lat="44.498847694443306" lon="8.270987373950993"><ele>303.5</ele><time>2026-04-19T13:33:57Z</time></trkpt><trkpt lat="44.49872377567929" lon="8.271275842065812"><ele>300.0</ele><time>2026-04-19T13:33:58Z</time></trkpt><trkpt lat="44.49860164496261" lon="8.271551454716459"><ele>300.0</ele><time>2026-04-19T13:33:59Z</time></trkpt><trkpt lat="44.49846976790934" lon="8.271798600151175"><ele>300.0</ele><time>2026-04-19T13:34:00Z</time></trkpt><trkpt lat="44.49831942117717" lon="8.27201183780324"><ele>300.0</ele><time>2026-04-19T13:34:01Z</time></trkpt><trkpt lat="44.49817295304576" lon="8.272215225158805"><ele>301.6666666666667</ele><time>2026-04-19T13:34:02Z</time></trkpt><trkpt lat="44.49803222025541" lon="8.272413000476853"><ele>303.33333333333337</ele><time>2026-04-19T13:34:02.999Z</time></trkpt><trkpt lat="44.49791535641529" lon="8.27264930399077"><ele>305.0</ele><time>2026-04-19T13:34:03.999Z</time></trkpt><trkpt lat="44.49781093156078" lon="8.272900337241166"><ele>302.6666666666667</ele><time>2026-04-19T13:34:04.999Z</time></trkpt><trkpt lat="44.49770495113786" lon="8.273156199617354"><ele>300.3333333333333</ele><time>2026-04-19T13:34:05.999Z</time></trkpt><trkpt lat="44.49761128568949" lon="8.27340442927658"><ele>298.0</ele><time>2026-04-19T13:34:06.999Z</time></trkpt><trkpt lat="44.49751285954174" lon="8.273636808750462"><ele>298.0</ele><time>2026-04-19T13:34:07.999Z</time></trkpt><trkpt lat="44.49740091445643" lon="8.27386488553264"><ele>298.0</ele><time>2026-04-19T13:34:08.999Z</time></trkpt><trkpt lat="44.49727820637303" lon="8.274064359560459"><ele>298.0</ele><time>2026-04-19T13:34:09.999Z</time></trkpt><trkpt lat="44.497168233158206" lon="8.274282170194834"><ele>296.3333333333333</ele><time>2026-04-19T13:34:10.999Z</time></trkpt><trkpt lat="44.497080270913486" lon="8.274528953733027"><ele>294.6666666666667</ele><time>2026-04-19T13:34:11.999Z</time></trkpt><trkpt lat="44.49701669509038" lon="8.274787579008562"><ele>293.0</ele><time>2026-04-19T13:34:12.999Z</time></trkpt><trkpt lat="44.49697839792674" lon="8.275041600610832"><ele>293.0</ele><time>2026-04-19T13:34:13.999Z</time></trkpt><trkpt lat="44.49696076399702" lon="8.275286855873906"><ele>293.0</ele><time>2026-04-19T13:34:14.999Z</time></trkpt><trkpt lat="44.49693814869816" lon="8.275518340291715"><ele>293.0</ele><time>2026-04-19T13:34:15.999Z</time></trkpt><trkpt lat="44.496955083016765" lon="8.275750948282912"><ele>293.33333333333337</ele><time>2026-04-19T13:34:16.999Z</time></trkpt><trkpt lat="44.496994884055994" lon="8.276005163202145"><ele>293.6666666666667</ele><time>2026-04-19T13:34:17.999Z</time></trkpt><trkpt lat="44.497040893538006" lon="8.276288138766843"><ele>294.0</ele><time>2026-04-19T13:34:18.999Z</time></trkpt><trkpt lat="44.49708791626763" lon="8.276583475272394"><ele>294.6666666666667</ele><time>2026-04-19T13:34:19.999Z</time></trkpt><trkpt lat="44.49709776181668" lon="8.276860755728473"><ele>295.33333333333337</ele><time>2026-04-19T13:34:20.999Z</time></trkpt><trkpt lat="44.49709925441961" lon="8.27712998934807"><ele>296.0</ele><time>2026-04-19T13:34:21.999Z</time></trkpt><trkpt lat="44.49708646650363" lon="8.277389115744944"><ele>296.33333333333337</ele><time>2026-04-19T13:34:22.999Z</time></trkpt><trkpt lat="44.497054278966615" lon="8.277636436166212"><ele>296.6666666666667</ele><time>2026-04-19T13:34:23.999Z</time></trkpt><trkpt lat="44.49700024644381" lon="8.277890841638227"><ele>297.0</ele><time>2026-04-19T13:34:24.999Z</time></trkpt><trkpt lat="44.49692588599515" lon="8.27814767068798"><ele>297.0</ele><time>2026-04-19T13:34:25.999Z</time></trkpt><trkpt lat="44.496843616442895" lon="8.278388374515917"><ele>297.0</ele><time>2026-04-19T13:34:26.999Z</time></trkpt><trkpt lat="44.49675524166543" lon="8.27860788951183"><ele>297.0</ele><time>2026-04-19T13:34:27.999Z</time></trkpt><trkpt lat="44.49666098669221" lon="8.278809844227789"><ele>299.3333333333333</ele><time>2026-04-19T13:34:28.999Z</time></trkpt><trkpt lat="44.49656441611239" lon="8.279001239069178"><ele>301.66666666666663</ele><time>2026-04-19T13:34:29.999Z</time></trkpt><trkpt lat="44.49646808043534" lon="8.279196496413643"><ele>304.0</ele><time>2026-04-19T13:34:30.999Z</time></trkpt><trkpt lat="44.49638005121497" lon="8.279411169240227"><ele>304.0</ele><time>2026-04-19T13:34:31.999Z</time></trkpt><trkpt lat="44.4962993044836" lon="8.279645605933247"><ele>304.0</ele><time>2026-04-19T13:34:32.999Z</time></trkpt><trkpt lat="44.49623855362744" lon="8.279903827723928"><ele>304.0</ele><time>2026-04-19T13:34:33.999Z</time></trkpt><trkpt lat="44.496200204451526" lon="8.280167815351517"><ele>300.3333333333333</ele><time>2026-04-19T13:34:34.999Z</time></trkpt><trkpt lat="44.49618750971969" lon="8.280444141565047"><ele>296.6666666666667</ele><time>2026-04-19T13:34:35.999Z</time></trkpt><trkpt lat="44.49619255344807" lon="8.280747536195094"><ele>293.0</ele><time>2026-04-19T13:34:36.999Z</time></trkpt><trkpt lat="44.496203756093585" lon="8.281038926219313"><ele>292.0</ele><time>2026-04-19T13:34:37.999Z</time></trkpt><trkpt lat="44.496216610581634" lon="8.28132360974661"><ele>291.0</ele><time>2026-04-19T13:34:38.999Z</time></trkpt><trkpt lat="44.496230662413964" lon="8.281619449979846"><ele>290.0</ele><time>2026-04-19T13:34:39.999Z</time></trkpt><trkpt lat="44.496242787392084" lon="8.28191623842431"><ele>289.33333333333337</ele><time>2026-04-19T13:34:40.999Z</time></trkpt><trkpt lat="44.496251080807916" lon="8.282194881506593"><ele>288.6666666666667</ele><time>2026-04-19T13:34:41.999Z</time></trkpt><trkpt lat="44.4962556529409" lon="8.282464359643571"><ele>288.0</ele><time>2026-04-19T13:34:42.999Z</time></trkpt><trkpt lat="44.496224915070776" lon="8.282714370782493"><ele>288.0</ele><time>2026-04-19T13:34:43.999Z</time></trkpt><trkpt lat="44.49618166838597" lon="8.28294742623159"><ele>288.0</ele><time>2026-04-19T13:34:44.999Z</time></trkpt><trkpt lat="44.49611811572938" lon="8.283175424579294"><ele>288.0</ele><time>2026-04-19T13:34:45.999Z</time></trkpt><trkpt lat="44.49602862506303" lon="8.283386401697252"><ele>289.0</ele><time>2026-04-19T13:34:46.999Z</time></trkpt><trkpt lat="44.4959124169673" lon="8.283593850833782"><ele>290.0</ele><time>2026-04-19T13:34:47.999Z</time></trkpt><trkpt lat="44.49576989811711" lon="8.283812082107383"><ele>291.0</ele><time>2026-04-19T13:34:48.999Z</time></trkpt><trkpt lat="44.4956298876063" lon="8.28405657523344"><ele>292.5</ele><time>2026-04-19T13:34:49.999Z</time></trkpt><trkpt lat="44.49546798924042" lon="8.284301679314229"><ele>294.0</ele><time>2026-04-19T13:34:50.999Z</time></trkpt><trkpt lat="44.49529838630192" lon="8.2845582483599"><ele>292.0</ele><time>2026-04-19T13:34:51.999Z</time></trkpt><trkpt lat="44.495134833650965" lon="8.284805762062867"><ele>290.0</ele><time>2026-04-19T13:34:52.999Z</time></trkpt><trkpt lat="44.49496121072524" lon="8.285015864772555"><ele>290.0</ele><time>2026-04-19T13:34:53.999Z</time></trkpt><trkpt lat="44.49479582590955" lon="8.285243778704588"><ele>290.0</ele><time>2026-04-19T13:34:54.999Z</time></trkpt><trkpt lat="44.49459463991774" lon="8.28542396234586"><ele>291.5</ele><time>2026-04-19T13:34:55.999Z</time></trkpt><trkpt lat="44.494381714942534" lon="8.2855699478951"><ele>293.0</ele><time>2026-04-19T13:34:56.999Z</time></trkpt><trkpt lat="44.49417401812539" lon="8.285690136197177"><ele>293.0</ele><time>2026-04-19T13:34:57.999Z</time></trkpt><trkpt lat="44.49397505870391" lon="8.285801837263376"><ele>293.0</ele><time>2026-04-19T13:34:58.999Z</time></trkpt><trkpt lat="44.49378879847071" lon="8.28592621865269"><ele>293.0</ele><time>2026-04-19T13:34:59.999Z</time></trkpt><trkpt lat="44.493627585057716" lon="8.286084451277329"><ele>292.6666666666667</ele><time>2026-04-19T13:35:00.999Z</time></trkpt><trkpt lat="44.49348233528621" lon="8.286294358087662"><ele>292.3333333333333</ele><time>2026-04-19T13:35:01.999Z</time></trkpt><trkpt lat="44.49335176390831" lon="8.286549667074231"><ele>292.0</ele><time>2026-04-19T13:35:02.999Z</time></trkpt><trkpt lat="44.49321542454698" lon="8.28677402615461"><ele>292.0</ele><time>2026-04-19T13:35:03.999Z</time></trkpt><trkpt lat="44.493088088796505" lon="8.286992884583032"><ele>292.0</ele><time>2026-04-19T13:35:04.999Z</time></trkpt><trkpt lat="44.49294621730392" lon="8.28720853436128"><ele>292.0</ele><time>2026-04-19T13:35:05.999Z</time></trkpt><trkpt lat="44.49276403576006" lon="8.287375274481466"><ele>290.0</ele><time>2026-04-19T13:35:06.999Z</time></trkpt><trkpt lat="44.4925777273166" lon="8.28749468777312"><ele>288.0</ele><time>2026-04-19T13:35:07.999Z</time></trkpt><trkpt lat="44.492396648147576" lon="8.28756770105702"><ele>286.0</ele><time>2026-04-19T13:35:08.999Z</time></trkpt><trkpt lat="44.49224035125528" lon="8.287641157586643"><ele>286.0</ele><time>2026-04-19T13:35:09.999Z</time></trkpt><trkpt lat="44.492120225344586" lon="8.28774892322029"><ele>286.0</ele><time>2026-04-19T13:35:10.999Z</time></trkpt><trkpt lat="44.49203614817487" lon="8.28787827251346"><ele>286.0</ele><time>2026-04-19T13:35:11.999Z</time></trkpt><trkpt lat="44.491985470300975" lon="8.28803054037713"><ele>286.0</ele><time>2026-04-19T13:35:12.999Z</time></trkpt><trkpt lat="44.49196849440559" lon="8.288196565388624"><ele>285.75</ele><time>2026-04-19T13:35:13.999Z</time></trkpt><trkpt lat="44.491987478849445" lon="8.288371874127643"><ele>285.5</ele><time>2026-04-19T13:35:14.999Z</time></trkpt><trkpt lat="44.49204373107239" lon="8.288545436782401"><ele>285.25</ele><time>2026-04-19T13:35:15.999Z</time></trkpt><trkpt lat="44.492142265689175" lon="8.288712858520373"><ele>285.0</ele><time>2026-04-19T13:35:16.999Z</time></trkpt><trkpt lat="44.49227272275357" lon="8.28888122854714"><ele>283.3333333333333</ele><time>2026-04-19T13:35:17.999Z</time></trkpt><trkpt lat="44.49239919801843" lon="8.289088812843977"><ele>281.66666666666663</ele><time>2026-04-19T13:35:18.999Z</time></trkpt><trkpt lat="44.49254305525294" lon="8.289301854051807"><ele>280.0</ele><time>2026-04-19T13:35:19.999Z</time></trkpt><trkpt lat="44.49268280964403" lon="8.28951158372318"><ele>280.0</ele><time>2026-04-19T13:35:20.999Z</time></trkpt><trkpt lat="44.49281416471446" lon="8.289712971374485"><ele>280.0</ele><time>2026-04-19T13:35:21.999Z</time></trkpt><trkpt lat="44.492929513567525" lon="8.289918836413968"><ele>280.0</ele><time>2026-04-19T13:35:22.999Z</time></trkpt><trkpt lat="44.49302685737253" lon="8.290134085379117"><ele>280.66666666666663</ele><time>2026-04-19T13:35:23.999Z</time></trkpt><trkpt lat="44.49309387657629" lon="8.290362540194831"><ele>281.3333333333333</ele><time>2026-04-19T13:35:24.999Z</time></trkpt><trkpt lat="44.49313848401673" lon="8.290615267191434"><ele>282.0</ele><time>2026-04-19T13:35:25.999Z</time></trkpt><trkpt lat="44.493158010354044" lon="8.290894115008701"><ele>282.0</ele><time>2026-04-19T13:35:26.999Z</time></trkpt><trkpt lat="44.49314958900836" lon="8.29119211663387"><ele>282.0</ele><time>2026-04-19T13:35:27.999Z</time></trkpt><trkpt lat="44.493103359885254" lon="8.291493493563404"><ele>282.0</ele><time>2026-04-19T13:35:28.999Z</time></trkpt><trkpt lat="44.493039033570675" lon="8.291803369550022"><ele>283.0</ele><time>2026-04-19T13:35:29.999Z</time></trkpt><trkpt lat="44.49296854611214" lon="8.292121416050938"><ele>284.0</ele><time>2026-04-19T13:35:30.999Z</time></trkpt><trkpt lat="44.49289462049272" lon="8.292453665327791"><ele>278.0</ele><time>2026-04-19T13:35:31.999Z</time></trkpt><trkpt lat="44.4928286097086" lon="8.29275751844212"><ele>272.0</ele><time>2026-04-19T13:35:32.999Z</time></trkpt><trkpt lat="44.49276078764443" lon="8.293065267394965"><ele>272.6666666666667</ele><time>2026-04-19T13:35:33.999Z</time></trkpt><trkpt lat="44.49269503557722" lon="8.293356305585455"><ele>273.3333333333333</ele><time>2026-04-19T13:35:34.999Z</time></trkpt><trkpt lat="44.49262314168608" lon="8.29362787479862"><ele>274.0</ele><time>2026-04-19T13:35:35.999Z</time></trkpt><trkpt lat="44.492537081591735" lon="8.293880037077866"><ele>275.3333333333333</ele><time>2026-04-19T13:35:36.999Z</time></trkpt><trkpt lat="44.492439331497195" lon="8.294107289649943"><ele>276.6666666666667</ele><time>2026-04-19T13:35:37.999Z</time></trkpt><trkpt lat="44.49232249992246" lon="8.294320378510394"><ele>278.0</ele><time>2026-04-19T13:35:38.999Z</time></trkpt><trkpt lat="44.49217870229922" lon="8.29453942112628"><ele>276.33333333333337</ele><time>2026-04-19T13:35:39.999Z</time></trkpt><trkpt lat="44.49202304694972" lon="8.29473860252487"><ele>274.6666666666667</ele><time>2026-04-19T13:35:40.999Z</time></trkpt><trkpt lat="44.49186855915149" lon="8.294906638975574"><ele>273.0</ele><time>2026-04-19T13:35:41.999Z</time></trkpt><trkpt lat="44.4917413880726" lon="8.29510672105117"><ele>273.0</ele><time>2026-04-19T13:35:42.999Z</time></trkpt><trkpt lat="44.49161576737341" lon="8.295286556145747"><ele>273.0</ele><time>2026-04-19T13:35:43.999Z</time></trkpt><trkpt lat="44.49150388668838" lon="8.295503654384301"><ele>273.0</ele><time>2026-04-19T13:35:44.999Z</time></trkpt><trkpt lat="44.49141196561518" lon="8.295760440266898"><ele>274.3333333333333</ele><time>2026-04-19T13:35:45.999Z</time></trkpt><trkpt lat="44.49135044633784" lon="8.296038914240615"><ele>275.66666666666663</ele><time>2026-04-19T13:35:46.999Z</time></trkpt><trkpt lat="44.491312920653975" lon="8.296304686155084"><ele>277.0</ele><time>2026-04-19T13:35:47.999Z</time></trkpt><trkpt lat="44.49128433309225" lon="8.296564328162168"><ele>274.3333333333333</ele><time>2026-04-19T13:35:48.999Z</time></trkpt><trkpt lat="44.49125627111439" lon="8.29681804425103"><ele>271.6666666666667</ele><time>2026-04-19T13:35:49.999Z</time></trkpt><trkpt lat="44.49121946277022" lon="8.297088817826527"><ele>269.0</ele><time>2026-04-19T13:35:50.999Z</time></trkpt><trkpt lat="44.4911815205355" lon="8.297374111024224"><ele>269.0</ele><time>2026-04-19T13:35:51.999Z</time></trkpt><trkpt lat="44.491138666657044" lon="8.29764152858604"><ele>269.0</ele><time>2026-04-19T13:35:52.999Z</time></trkpt><trkpt lat="44.49107624054878" lon="8.297883744747942"><ele>269.0</ele><time>2026-04-19T13:35:53.999Z</time></trkpt><trkpt lat="44.49103824781008" lon="8.298123373257619"><ele>268.33333333333337</ele><time>2026-04-19T13:35:54.999Z</time></trkpt><trkpt lat="44.491001060056824" lon="8.298357923940753"><ele>267.6666666666667</ele><time>2026-04-19T13:35:55.999Z</time></trkpt><trkpt lat="44.4909649686283" lon="8.298585559937566"><ele>267.0</ele><time>2026-04-19T13:35:56.999Z</time></trkpt><trkpt lat="44.49092982045554" lon="8.298804762216017"><ele>267.0</ele><time>2026-04-19T13:35:57.999Z</time></trkpt><trkpt lat="44.49089637052537" lon="8.299011277426073"><ele>267.0</ele><time>2026-04-19T13:35:58.999Z</time></trkpt><trkpt lat="44.49086392942778" lon="8.29921156475375"><ele>267.0</ele><time>2026-04-19T13:35:59.999Z</time></trkpt><trkpt lat="44.49083242425369" lon="8.29939884170043"><ele>267.0</ele><time>2026-04-19T13:36:00.999Z</time></trkpt><trkpt lat="44.4908003843148" lon="8.29957412678859"><ele>267.0</ele><time>2026-04-19T13:36:01.999Z</time></trkpt><trkpt lat="44.49077090915125" lon="8.299734400119084"><ele>267.0</ele><time>2026-04-19T13:36:02.999Z</time></trkpt><trkpt lat="44.49074675176458" lon="8.299879012227677"><ele>267.0</ele><time>2026-04-19T13:36:03.999Z</time></trkpt><trkpt lat="44.49072792636954" lon="8.300010806687606"><ele>267.0</ele><time>2026-04-19T13:36:04.999Z</time></trkpt><trkpt lat="44.490727996148465" lon="8.30011978610801"><ele>267.0</ele><time>2026-04-19T13:36:05.999Z</time></trkpt><trkpt lat="44.490704251863505" lon="8.30020386569674"><ele>267.0</ele><time>2026-04-19T13:36:07.999Z</time></trkpt><trkpt lat="44.490641868228394" lon="8.3002882161824"><ele>267.0</ele><time>2026-04-19T13:36:48.999Z</time></trkpt><trkpt lat="44.49054238750476" lon="8.300339337838576"><ele>267.0</ele><time>2026-04-19T13:36:50.999Z</time></trkpt><trkpt lat="44.49047848459505" lon="8.30034204559512"><ele>267.0</ele><time>2026-04-19T13:36:51.999Z</time></trkpt><trkpt lat="44.49041264768811" lon="8.30036393089605"><ele>267.0</ele><time>2026-04-19T13:36:52.999Z</time></trkpt><trkpt lat="44.490349657095244" lon="8.300383111450069"><ele>267.0</ele><time>2026-04-19T13:36:53.999Z</time></trkpt><trkpt lat="44.49024034317301" lon="8.300412121217057"><ele>267.3333333333333</ele><time>2026-04-19T13:36:55.999Z</time></trkpt><trkpt lat="44.49016161979411" lon="8.300431777663903"><ele>267.6666666666667</ele><time>2026-04-19T13:36:57.999Z</time></trkpt><trkpt lat="44.490078559980304" lon="8.300463892556525"><ele>268.0</ele><time>2026-04-19T13:36:59.999Z</time></trkpt><trkpt lat="44.490010297202105" lon="8.300553505222586"><ele>268.33333333333337</ele><time>2026-04-19T13:37:01.999Z</time></trkpt><trkpt lat="44.489940669111974" lon="8.30063180308719"><ele>268.6666666666667</ele><time>2026-04-19T13:37:03.999Z</time></trkpt><trkpt lat="44.48987311365702" lon="8.300732035176447"><ele>269.0</ele><time>2026-04-19T13:37:05.999Z</time></trkpt><trkpt lat="44.48981117500889" lon="8.300858268405364"><ele>269.0</ele><time>2026-04-19T13:37:07.999Z</time></trkpt><trkpt lat="44.48975046272185" lon="8.301007220125085"><ele>269.0</ele><time>2026-04-19T13:37:09.999Z</time></trkpt><trkpt lat="44.48968855555083" lon="8.30114691891127"><ele>269.0</ele><time>2026-04-19T13:37:11.999Z</time></trkpt><trkpt lat="44.48965008304464" lon="8.301249172323482"><ele>269.0</ele><time>2026-04-19T13:37:13.999Z</time></trkpt><trkpt lat="44.489608101282464" lon="8.301377914087004"><ele>269.0</ele><time>2026-04-19T13:37:15.999Z</time></trkpt><trkpt lat="44.489537423628484" lon="8.30153848117348"><ele>273.0</ele><time>2026-04-19T13:37:17.999Z</time></trkpt><trkpt lat="44.48949892463189" lon="8.30163475343736"><ele>277.0</ele><time>2026-04-19T13:37:18.999Z</time></trkpt><trkpt lat="44.489454220139045" lon="8.301749133954868"><ele>281.0</ele><time>2026-04-19T13:37:19.999Z</time></trkpt><trkpt lat="44.489404457222186" lon="8.30188497238053"><ele>285.0</ele><time>2026-04-19T13:37:20.999Z</time></trkpt><trkpt lat="44.48935265747192" lon="8.30203130654487"><ele>289.0</ele><time>2026-04-19T13:37:21.999Z</time></trkpt><trkpt lat="44.489298817284286" lon="8.30218340512351"><ele>287.2</ele><time>2026-04-19T13:37:22.999Z</time></trkpt><trkpt lat="44.489252651275066" lon="8.302316596526154"><ele>285.4</ele><time>2026-04-19T13:37:23.999Z</time></trkpt><trkpt lat="44.48921123865399" lon="8.302439117013092"><ele>283.6</ele><time>2026-04-19T13:37:24.999Z</time></trkpt><trkpt lat="44.48917538021639" lon="8.30255299232766"><ele>281.8</ele><time>2026-04-19T13:37:25.999Z</time></trkpt><trkpt lat="44.48914549354387" lon="8.302652105674584"><ele>280.0</ele><time>2026-04-19T13:37:26.999Z</time></trkpt><trkpt lat="44.48912171342232" lon="8.30281164913518"><ele>280.0</ele><time>2026-04-19T13:37:28.999Z</time></trkpt><trkpt lat="44.48905773373367" lon="8.30295330589276"><ele>280.0</ele><time>2026-04-19T13:37:30.999Z</time></trkpt><trkpt lat="44.48899567769024" lon="8.303040453280426"><ele>280.0</ele><time>2026-04-19T13:37:31.999Z</time></trkpt><trkpt lat="44.4889167058293" lon="8.303148181215402"><ele>280.0</ele><time>2026-04-19T13:37:32.999Z</time></trkpt><trkpt lat="44.488821530503834" lon="8.303282451608313"><ele>283.3333333333333</ele><time>2026-04-19T13:37:33.999Z</time></trkpt><trkpt lat="44.48870744570567" lon="8.303437971606625"><ele>286.6666666666667</ele><time>2026-04-19T13:37:34.999Z</time></trkpt><trkpt lat="44.48857857304532" lon="8.303615252288159"><ele>290.0</ele><time>2026-04-19T13:37:35.999Z</time></trkpt><trkpt lat="44.48843908199126" lon="8.303809526791532"><ele>284.33333333333337</ele><time>2026-04-19T13:37:36.999Z</time></trkpt><trkpt lat="44.488305806395275" lon="8.303986483498141"><ele>278.6666666666667</ele><time>2026-04-19T13:37:37.999Z</time></trkpt><trkpt lat="44.48817946313458" lon="8.304162598145185"><ele>273.0</ele><time>2026-04-19T13:37:38.999Z</time></trkpt><trkpt lat="44.488054851524616" lon="8.3043372903314"><ele>273.0</ele><time>2026-04-19T13:37:39.999Z</time></trkpt><trkpt lat="44.487937190834415" lon="8.304502705309757"><ele>273.0</ele><time>2026-04-19T13:37:40.999Z</time></trkpt><trkpt lat="44.48782086250045" lon="8.304663014046515"><ele>273.0</ele><time>2026-04-19T13:37:41.999Z</time></trkpt><trkpt lat="44.48770807478651" lon="8.304821507673271"><ele>272.6666666666667</ele><time>2026-04-19T13:37:42.999Z</time></trkpt><trkpt lat="44.487597463696105" lon="8.304974176098206"><ele>272.33333333333337</ele><time>2026-04-19T13:37:43.999Z</time></trkpt><trkpt lat="44.48748569540111" lon="8.305138294066316"><ele>272.0</ele><time>2026-04-19T13:37:44.999Z</time></trkpt><trkpt lat="44.487359602296515" lon="8.305281675817241"><ele>272.0</ele><time>2026-04-19T13:37:45.999Z</time></trkpt><trkpt lat="44.487229739973905" lon="8.305458700660452"><ele>272.0</ele><time>2026-04-19T13:37:46.999Z</time></trkpt><trkpt lat="44.48710363902283" lon="8.305630598052815"><ele>272.0</ele><time>2026-04-19T13:37:47.999Z</time></trkpt><trkpt lat="44.48699277150181" lon="8.30579736765387"><ele>273.25</ele><time>2026-04-19T13:37:48.999Z</time></trkpt><trkpt lat="44.48687652156942" lon="8.305936841513445"><ele>274.5</ele><time>2026-04-19T13:37:49.999Z</time></trkpt><trkpt lat="44.486762507758215" lon="8.306064942332524"><ele>275.75</ele><time>2026-04-19T13:37:50.999Z</time></trkpt><trkpt lat="44.486656973079064" lon="8.306181389421182"><ele>277.0</ele><time>2026-04-19T13:37:51.999Z</time></trkpt><trkpt lat="44.48655666803153" lon="8.306291006252268"><ele>277.0</ele><time>2026-04-19T13:37:52.999Z</time></trkpt><trkpt lat="44.48646269476469" lon="8.306391787861084"><ele>277.0</ele><time>2026-04-19T13:37:53.999Z</time></trkpt><trkpt lat="44.48637771687591" lon="8.306486484547964"><ele>277.0</ele><time>2026-04-19T13:37:54.999Z</time></trkpt><trkpt lat="44.48629875627221" lon="8.306573345582267"><ele>277.0</ele><time>2026-04-19T13:37:55.999Z</time></trkpt><trkpt lat="44.48622671582732" lon="8.306657111659609"><ele>277.0</ele><time>2026-04-19T13:37:56.999Z</time></trkpt><trkpt lat="44.48615324113586" lon="8.30673096903896"><ele>277.0</ele><time>2026-04-19T13:37:57.999Z</time></trkpt><trkpt lat="44.486082851258864" lon="8.306808078809576"><ele>277.0</ele><time>2026-04-19T13:37:58.999Z</time></trkpt><trkpt lat="44.48602366709778" lon="8.30687857112052"><ele>277.0</ele><time>2026-04-19T13:37:59.999Z</time></trkpt><trkpt lat="44.48592978639034" lon="8.30695340156932"><ele>277.0</ele><time>2026-04-19T13:38:01.999Z</time></trkpt><trkpt lat="44.48596982439109" lon="8.307144175725783"><ele>277.0</ele><time>2026-04-19T13:38:05.999Z</time></trkpt><trkpt lat="44.48600067366949" lon="8.307224666136152"><ele>275.4</ele><time>2026-04-19T13:38:06.999Z</time></trkpt><trkpt lat="44.48605245994727" lon="8.307304802003932"><ele>273.79999999999995</ele><time>2026-04-19T13:38:07.999Z</time></trkpt><trkpt lat="44.48611167409215" lon="8.307396581724765"><ele>272.2</ele><time>2026-04-19T13:38:08.999Z</time></trkpt><trkpt lat="44.48617546492944" lon="8.307496291502602"><ele>270.59999999999997</ele><time>2026-04-19T13:38:09.999Z</time></trkpt><trkpt lat="44.48624500797362" lon="8.307604992696476"><ele>269.0</ele><time>2026-04-19T13:38:10.999Z</time></trkpt><trkpt lat="44.48631450625621" lon="8.307713623593195"><ele>269.0</ele><time>2026-04-19T13:38:11.999Z</time></trkpt><trkpt lat="44.48637405753666" lon="8.30780649751063"><ele>269.0</ele><time>2026-04-19T13:38:12.999Z</time></trkpt><trkpt lat="44.486438872899285" lon="8.307873320603413"><ele>269.0</ele><time>2026-04-19T13:38:13.999Z</time></trkpt><trkpt lat="44.486496163984405" lon="8.30792989403011"><ele>269.0</ele><time>2026-04-19T13:38:14.999Z</time></trkpt><trkpt lat="44.486564669112795" lon="8.307976503302312"><ele>269.0</ele><time>2026-04-19T13:38:15.999Z</time></trkpt><trkpt lat="44.486670877324585" lon="8.307938541247818"><ele>269.0</ele><time>2026-04-19T13:38:16.999Z</time></trkpt><trkpt lat="44.486790577775885" lon="8.307905429366295"><ele>269.0</ele><time>2026-04-19T13:38:17.999Z</time></trkpt><trkpt lat="44.4869221309132" lon="8.307878567908244"><ele>269.0</ele><time>2026-04-19T13:38:18.999Z</time></trkpt><trkpt lat="44.487055379266096" lon="8.307848204058377"><ele>269.0</ele><time>2026-04-19T13:38:19.999Z</time></trkpt><trkpt lat="44.48719328179953" lon="8.307801036445728"><ele>269.0</ele><time>2026-04-19T13:38:20.999Z</time></trkpt><trkpt lat="44.48730556243068" lon="8.307737240749379"><ele>270.2</ele><time>2026-04-19T13:38:21.999Z</time></trkpt><trkpt lat="44.48739307266364" lon="8.307674861013119"><ele>271.4</ele><time>2026-04-19T13:38:22.999Z</time></trkpt><trkpt lat="44.48748078789813" lon="8.307664973763284"><ele>272.6</ele><time>2026-04-19T13:38:23.999Z</time></trkpt><trkpt lat="44.487570387781155" lon="8.307657867891157"><ele>273.8</ele><time>2026-04-19T13:38:24.999Z</time></trkpt><trkpt lat="44.48767188606644" lon="8.307655762130809"><ele>275.0</ele><time>2026-04-19T13:38:25.999Z</time></trkpt><trkpt lat="44.4877783388767" lon="8.30765303040517"><ele>275.0</ele><time>2026-04-19T13:38:26.999Z</time></trkpt><trkpt lat="44.48789877186429" lon="8.307651326271568"><ele>275.0</ele><time>2026-04-19T13:38:27.999Z</time></trkpt><trkpt lat="44.48800062795494" lon="8.30765597923879"><ele>275.0</ele><time>2026-04-19T13:38:28.999Z</time></trkpt><trkpt lat="44.48807248113464" lon="8.30766161335633"><ele>275.0</ele><time>2026-04-19T13:38:29.999Z</time></trkpt><trkpt lat="44.4881317248793" lon="8.307740433490682"><ele>275.0</ele><time>2026-04-19T13:38:32.999Z</time></trkpt><trkpt lat="44.48807802628685" lon="8.307840359104238"><ele>275.0</ele><time>2026-04-19T13:38:34.999Z</time></trkpt><trkpt lat="44.487961926604655" lon="8.307800442240984"><ele>275.0</ele><time>2026-04-19T13:38:36.999Z</time></trkpt><trkpt lat="44.48789914023568" lon="8.30782603567815"><ele>275.0</ele><time>2026-04-19T13:38:37.999Z</time></trkpt><trkpt lat="44.4878293943645" lon="8.307828999677078"><ele>275.0</ele><time>2026-04-19T13:38:38.999Z</time></trkpt><trkpt lat="44.48774909018576" lon="8.307853374174174"><ele>275.0</ele><time>2026-04-19T13:38:39.999Z</time></trkpt><trkpt lat="44.48766063766123" lon="8.307883102279478"><ele>275.0</ele><time>2026-04-19T13:38:40.999Z</time></trkpt><trkpt lat="44.48758946314797" lon="8.307924966068219"><ele>275.0</ele><time>2026-04-19T13:38:41.999Z</time></trkpt><trkpt lat="44.48752657309814" lon="8.307977500140266"><ele>275.0</ele><time>2026-04-19T13:38:42.999Z</time></trkpt><trkpt lat="44.48748287153071" lon="8.308084102399556"><ele>275.0</ele><time>2026-04-19T13:38:43.999Z</time></trkpt><trkpt lat="44.48745313046699" lon="8.308202867912485"><ele>275.0</ele><time>2026-04-19T13:38:44.999Z</time></trkpt><trkpt lat="44.487445532806454" lon="8.308332389023985"><ele>275.0</ele><time>2026-04-19T13:38:45.999Z</time></trkpt><trkpt lat="44.48744787603445" lon="8.308455295241043"><ele>275.0</ele><time>2026-04-19T13:38:46.999Z</time></trkpt><trkpt lat="44.48745576954927" lon="8.30857270915808"><ele>276.8</ele><time>2026-04-19T13:38:47.999Z</time></trkpt><trkpt lat="44.48745252457602" lon="8.30867433639431"><ele>278.6</ele><time>2026-04-19T13:38:48.999Z</time></trkpt><trkpt lat="44.487435801886605" lon="8.308778929445465"><ele>280.4</ele><time>2026-04-19T13:38:49.999Z</time></trkpt><trkpt lat="44.48740186634646" lon="8.308892306522802"><ele>282.2</ele><time>2026-04-19T13:38:50.999Z</time></trkpt><trkpt lat="44.487407221813434" lon="8.30904403105847"><ele>284.0</ele><time>2026-04-19T13:38:51.999Z</time></trkpt><trkpt lat="44.48742076844348" lon="8.309213788526773"><ele>285.0</ele><time>2026-04-19T13:38:52.999Z</time></trkpt><trkpt lat="44.48743396909134" lon="8.30939139335543"><ele>286.0</ele><time>2026-04-19T13:38:53.999Z</time></trkpt><trkpt lat="44.4874503524833" lon="8.30956725132414"><ele>287.0</ele><time>2026-04-19T13:38:54.999Z</time></trkpt><trkpt lat="44.48747685212865" lon="8.309757599727861"><ele>288.0</ele><time>2026-04-19T13:38:55.999Z</time></trkpt><trkpt lat="44.48752316224832" lon="8.309949838203288"><ele>289.0</ele><time>2026-04-19T13:38:56.999Z</time></trkpt><trkpt lat="44.48757551395854" lon="8.310135674123048"><ele>290.0</ele><time>2026-04-19T13:38:57.999Z</time></trkpt><trkpt lat="44.48762560026841" lon="8.310313532506898"><ele>291.0</ele><time>2026-04-19T13:38:58.999Z</time></trkpt><trkpt lat="44.48766604268806" lon="8.310468601734373"><ele>292.0</ele><time>2026-04-19T13:38:59.999Z</time></trkpt><trkpt lat="44.48769057755032" lon="8.310593653345679"><ele>292.5</ele><time>2026-04-19T13:39:00.999Z</time></trkpt><trkpt lat="44.48769385236213" lon="8.310695164589218"><ele>293.0</ele><time>2026-04-19T13:39:01.999Z</time></trkpt><trkpt lat="44.487666667303955" lon="8.310777652860539"><ele>293.5</ele><time>2026-04-19T13:39:02.999Z</time></trkpt><trkpt lat="44.48760849545906" lon="8.31084981126474"><ele>294.0</ele><time>2026-04-19T13:39:03.999Z</time></trkpt><trkpt lat="44.48751909265852" lon="8.310903333649838"><ele>294.5</ele><time>2026-04-19T13:39:04.999Z</time></trkpt><trkpt lat="44.48739995039245" lon="8.310975355188814"><ele>295.0</ele><time>2026-04-19T13:39:05.999Z</time></trkpt><trkpt lat="44.48725795543428" lon="8.311054824719529"><ele>295.0</ele><time>2026-04-19T13:39:06.999Z</time></trkpt><trkpt lat="44.48709832819587" lon="8.311142772065912"><ele>295.0</ele><time>2026-04-19T13:39:07.999Z</time></trkpt><trkpt lat="44.48695289218302" lon="8.311226475898039"><ele>295.0</ele><time>2026-04-19T13:39:08.999Z</time></trkpt><trkpt lat="44.486835052895884" lon="8.311316158203454"><ele>295.75</ele><time>2026-04-19T13:39:09.999Z</time></trkpt><trkpt lat="44.48671709634146" lon="8.31136354596219"><ele>296.5</ele><time>2026-04-19T13:39:10.999Z</time></trkpt><trkpt lat="44.48658702483547" lon="8.31135934586782"><ele>297.25</ele><time>2026-04-19T13:39:11.999Z</time></trkpt><trkpt lat="44.48646154442855" lon="8.3113686892984"><ele>298.0</ele><time>2026-04-19T13:39:12.999Z</time></trkpt><trkpt lat="44.48635471518358" lon="8.311386992325703"><ele>298.6</ele><time>2026-04-19T13:39:13.999Z</time></trkpt><trkpt lat="44.486259751773034" lon="8.311392461759857"><ele>299.20000000000005</ele><time>2026-04-19T13:39:14.999Z</time></trkpt><trkpt lat="44.48616287179333" lon="8.31142521394096"><ele>299.8</ele><time>2026-04-19T13:39:15.999Z</time></trkpt><trkpt lat="44.48605162231486" lon="8.311471697952802"><ele>300.40000000000003</ele><time>2026-04-19T13:39:16.999Z</time></trkpt><trkpt lat="44.485938428401795" lon="8.311566349844954"><ele>301.0</ele><time>2026-04-19T13:39:17.999Z</time></trkpt><trkpt lat="44.4858123916894" lon="8.311674264042312"><ele>302.2</ele><time>2026-04-19T13:39:18.999Z</time></trkpt><trkpt lat="44.48570005872037" lon="8.311760814397353"><ele>303.40000000000003</ele><time>2026-04-19T13:39:19.999Z</time></trkpt><trkpt lat="44.4856119584716" lon="8.311818405765528"><ele>304.6</ele><time>2026-04-19T13:39:20.999Z</time></trkpt><trkpt lat="44.485524641813704" lon="8.311841392883567"><ele>305.8</ele><time>2026-04-19T13:39:21.999Z</time></trkpt><trkpt lat="44.48542449008928" lon="8.311794950072436"><ele>307.0</ele><time>2026-04-19T13:39:22.999Z</time></trkpt><trkpt lat="44.48533507118441" lon="8.31171436976635"><ele>309.4</ele><time>2026-04-19T13:39:23.999Z</time></trkpt><trkpt lat="44.485261809498745" lon="8.311632106591732"><ele>311.79999999999995</ele><time>2026-04-19T13:39:24.999Z</time></trkpt><trkpt lat="44.485189534959474" lon="8.311567461190863"><ele>314.2</ele><time>2026-04-19T13:39:25.999Z</time></trkpt><trkpt lat="44.48510744806271" lon="8.311529484063376"><ele>316.59999999999997</ele><time>2026-04-19T13:39:26.999Z</time></trkpt><trkpt lat="44.48500587520593" lon="8.311512307532785"><ele>319.0</ele><time>2026-04-19T13:39:27.999Z</time></trkpt><trkpt lat="44.48488757176099" lon="8.311505091495567"><ele>319.0</ele><time>2026-04-19T13:39:28.999Z</time></trkpt><trkpt lat="44.48475629135642" lon="8.311476986212096"><ele>319.0</ele><time>2026-04-19T13:39:29.999Z</time></trkpt><trkpt lat="44.48460342350993" lon="8.311485994674763"><ele>319.0</ele><time>2026-04-19T13:39:30.999Z</time></trkpt><trkpt lat="44.48442910853769" lon="8.311506240066963"><ele>320.0</ele><time>2026-04-19T13:39:31.999Z</time></trkpt><trkpt lat="44.48424903289516" lon="8.31152840108956"><ele>321.0</ele><time>2026-04-19T13:39:32.999Z</time></trkpt><trkpt lat="44.484096921501354" lon="8.31156534340118"><ele>322.0</ele><time>2026-04-19T13:39:33.999Z</time></trkpt><trkpt lat="44.483960820038774" lon="8.31157124682223"><ele>322.0</ele><time>2026-04-19T13:39:34.999Z</time></trkpt><trkpt lat="44.48384126982958" lon="8.31157744813389"><ele>322.0</ele><time>2026-04-19T13:39:35.999Z</time></trkpt><trkpt lat="44.48371211692894" lon="8.311588810892225"><ele>322.0</ele><time>2026-04-19T13:39:36.999Z</time></trkpt><trkpt lat="44.483582762089114" lon="8.31167980476193"><ele>322.0</ele><time>2026-04-19T13:39:37.999Z</time></trkpt><trkpt lat="44.48344599368184" lon="8.311776705057158"><ele>319.75</ele><time>2026-04-19T13:39:38.999Z</time></trkpt><trkpt lat="44.483318366668236" lon="8.311868018081263"><ele>317.5</ele><time>2026-04-19T13:39:39.999Z</time></trkpt><trkpt lat="44.48321076451376" lon="8.311950872195617"><ele>315.25</ele><time>2026-04-19T13:39:40.999Z</time></trkpt><trkpt lat="44.4831179678308" lon="8.312084870521998"><ele>313.0</ele><time>2026-04-19T13:39:41.999Z</time></trkpt><trkpt lat="44.483014484910086" lon="8.312219051472397"><ele>314.75</ele><time>2026-04-19T13:39:42.999Z</time></trkpt><trkpt lat="44.482918182597054" lon="8.312377052122057"><ele>316.5</ele><time>2026-04-19T13:39:43.999Z</time></trkpt><trkpt lat="44.48284133032489" lon="8.312544939524807"><ele>318.25</ele><time>2026-04-19T13:39:44.999Z</time></trkpt><trkpt lat="44.482791688103816" lon="8.312731195291988"><ele>320.0</ele><time>2026-04-19T13:39:45.999Z</time></trkpt><trkpt lat="44.48273435964704" lon="8.31294143757619"><ele>323.25</ele><time>2026-04-19T13:39:46.999Z</time></trkpt><trkpt lat="44.482673107391065" lon="8.31316048664462"><ele>326.5</ele><time>2026-04-19T13:39:47.999Z</time></trkpt><trkpt lat="44.48262193049074" lon="8.313342950229893"><ele>329.75</ele><time>2026-04-19T13:39:48.999Z</time></trkpt><trkpt lat="44.48257880089801" lon="8.313512441763153"><ele>333.0</ele><time>2026-04-19T13:39:49.999Z</time></trkpt><trkpt lat="44.4825585836089" lon="8.313678450245668"><ele>333.0</ele><time>2026-04-19T13:39:50.999Z</time></trkpt><trkpt lat="44.482589877009175" lon="8.313854259840868"><ele>333.0</ele><time>2026-04-19T13:39:51.999Z</time></trkpt><trkpt lat="44.48261385636209" lon="8.31404590975529"><ele>333.0</ele><time>2026-04-19T13:39:52.999Z</time></trkpt><trkpt lat="44.48264315494477" lon="8.31421275199801"><ele>333.0</ele><time>2026-04-19T13:39:53.999Z</time></trkpt><trkpt lat="44.482686084491284" lon="8.314345524677332"><ele>334.5</ele><time>2026-04-19T13:39:54.999Z</time></trkpt><trkpt lat="44.48275593294427" lon="8.314483239050755"><ele>336.0</ele><time>2026-04-19T13:39:55.999Z</time></trkpt><trkpt lat="44.48284880447419" lon="8.314627101601088"><ele>337.5</ele><time>2026-04-19T13:39:56.999Z</time></trkpt><trkpt lat="44.482938678598536" lon="8.314777711351443"><ele>339.0</ele><time>2026-04-19T13:39:57.999Z</time></trkpt><trkpt lat="44.48305148529781" lon="8.314952406968196"><ele>346.3333333333333</ele><time>2026-04-19T13:39:58.999Z</time></trkpt><trkpt lat="44.483149571886834" lon="8.315156349519016"><ele>353.66666666666663</ele><time>2026-04-19T13:39:59.999Z</time></trkpt><trkpt lat="44.48325625716039" lon="8.315308382029428"><ele>361.0</ele><time>2026-04-19T13:40:00.999Z</time></trkpt><trkpt lat="44.483353698389024" lon="8.315442192486984"><ele>361.0</ele><time>2026-04-19T13:40:01.999Z</time></trkpt><trkpt lat="44.48347335371648" lon="8.315568230684462"><ele>361.0</ele><time>2026-04-19T13:40:02.999Z</time></trkpt><trkpt lat="44.48360806308581" lon="8.315704621270852"><ele>361.0</ele><time>2026-04-19T13:40:03.999Z</time></trkpt><trkpt lat="44.48371437848002" lon="8.315855684705248"><ele>362.8</ele><time>2026-04-19T13:40:04.999Z</time></trkpt><trkpt lat="44.48380221997928" lon="8.315970691830291"><ele>364.6</ele><time>2026-04-19T13:40:05.999Z</time></trkpt><trkpt lat="44.483865104393345" lon="8.316064252933156"><ele>366.4</ele><time>2026-04-19T13:40:06.999Z</time></trkpt><trkpt lat="44.48387706630858" lon="8.316163216290873"><ele>368.2</ele><time>2026-04-19T13:40:07.999Z</time></trkpt><trkpt lat="44.48383554572207" lon="8.31633130118351"><ele>370.0</ele><time>2026-04-19T13:40:09.999Z</time></trkpt><trkpt lat="44.483780282391095" lon="8.316403602722977"><ele>367.4</ele><time>2026-04-19T13:40:10.999Z</time></trkpt><trkpt lat="44.483711089727876" lon="8.316498461224716"><ele>364.8</ele><time>2026-04-19T13:40:11.999Z</time></trkpt><trkpt lat="44.483652740668056" lon="8.316604526684257"><ele>362.20000000000005</ele><time>2026-04-19T13:40:12.999Z</time></trkpt><trkpt lat="44.48360615947219" lon="8.316689203861477"><ele>359.6</ele><time>2026-04-19T13:40:13.999Z</time></trkpt><trkpt lat="44.48357610087227" lon="8.316803713117785"><ele>357.0</ele><time>2026-04-19T13:40:14.999Z</time></trkpt><trkpt lat="44.48360979267883" lon="8.316956154126267"><ele>357.0</ele><time>2026-04-19T13:40:15.999Z</time></trkpt><trkpt lat="44.48362550362871" lon="8.317104937815003"><ele>357.0</ele><time>2026-04-19T13:40:16.999Z</time></trkpt><trkpt lat="44.483653677701085" lon="8.317246848288177"><ele>357.0</ele><time>2026-04-19T13:40:17.999Z</time></trkpt><trkpt lat="44.48369943957508" lon="8.317351719745933"><ele>357.0</ele><time>2026-04-19T13:40:18.999Z</time></trkpt><trkpt lat="44.48377675222521" lon="8.31742658451307"><ele>357.0</ele><time>2026-04-19T13:40:19.999Z</time></trkpt><trkpt lat="44.4838847677722" lon="8.317473200377194"><ele>362.25</ele><time>2026-04-19T13:40:20.999Z</time></trkpt><trkpt lat="44.4840075788809" lon="8.317543769146234"><ele>367.5</ele><time>2026-04-19T13:40:21.999Z</time></trkpt><trkpt lat="44.48413782727314" lon="8.317616955524704"><ele>372.75</ele><time>2026-04-19T13:40:22.999Z</time></trkpt><trkpt lat="44.48424230332346" lon="8.317682075551906"><ele>378.0</ele><time>2026-04-19T13:40:24Z</time></trkpt><trkpt lat="44.48431438232245" lon="8.317749918634352"><ele>378.0</ele><time>2026-04-19T13:40:25Z</time></trkpt><trkpt lat="44.48435059949002" lon="8.317907293309382"><ele>378.0</ele><time>2026-04-19T13:40:27Z</time></trkpt><trkpt lat="44.48428406189681" lon="8.318044482485913"><ele>378.0</ele><time>2026-04-19T13:40:29Z</time></trkpt><trkpt lat="44.48423026794367" lon="8.318166832657406"><ele>378.0</ele><time>2026-04-19T13:40:30Z</time></trkpt><trkpt lat="44.48417631870211" lon="8.318287007433291"><ele>378.0</ele><time>2026-04-19T13:40:31Z</time></trkpt><trkpt lat="44.484119057878104" lon="8.318399477453987"><ele>378.0</ele><time>2026-04-19T13:40:32Z</time></trkpt><trkpt lat="44.48408323398389" lon="8.318504866733027"><ele>378.0</ele><time>2026-04-19T13:40:33Z</time></trkpt><trkpt lat="44.48408019793435" lon="8.318594296561235"><ele>378.0</ele><time>2026-04-19T13:40:34Z</time></trkpt><trkpt lat="44.48412907884185" lon="8.318679390328565"><ele>378.0</ele><time>2026-04-19T13:40:35Z</time></trkpt><trkpt lat="44.484212907022034" lon="8.318714200165337"><ele>378.0</ele><time>2026-04-19T13:40:36Z</time></trkpt><trkpt lat="44.48429577856852" lon="8.318633247492402"><ele>378.0</ele><time>2026-04-19T13:40:37Z</time></trkpt><trkpt lat="44.48433930342088" lon="8.318544845150887"><ele>378.0</ele><time>2026-04-19T13:40:38Z</time></trkpt><trkpt lat="44.48436787606638" lon="8.318438835438478"><ele>378.0</ele><time>2026-04-19T13:40:39Z</time></trkpt><trkpt lat="44.484403695581854" lon="8.318328923154843"><ele>378.0</ele><time>2026-04-19T13:40:40Z</time></trkpt><trkpt lat="44.48446142487979" lon="8.318235914395306"><ele>378.0</ele><time>2026-04-19T13:40:41Z</time></trkpt><trkpt lat="44.48455048942416" lon="8.318209397204935"><ele>378.0</ele><time>2026-04-19T13:40:42Z</time></trkpt><trkpt lat="44.48464627867219" lon="8.318186301519695"><ele>378.0</ele><time>2026-04-19T13:40:43Z</time></trkpt><trkpt lat="44.48472615006514" lon="8.318125242359445"><ele>379.4</ele><time>2026-04-19T13:40:44Z</time></trkpt><trkpt lat="44.48478393678037" lon="8.318003262833484"><ele>380.79999999999995</ele><time>2026-04-19T13:40:45Z</time></trkpt><trkpt lat="44.484834818029576" lon="8.317843575110437"><ele>382.2</ele><time>2026-04-19T13:40:46Z</time></trkpt><trkpt lat="44.48487869553084" lon="8.31768185941902"><ele>383.6</ele><time>2026-04-19T13:40:47Z</time></trkpt><trkpt lat="44.48491440064556" lon="8.31756350165698"><ele>385.0</ele><time>2026-04-19T13:40:48Z</time></trkpt><trkpt lat="44.48496227118918" lon="8.31750372845808"><ele>385.0</ele><time>2026-04-19T13:40:49Z</time></trkpt><trkpt lat="44.48505911394164" lon="8.317585834081507"><ele>385.0</ele><time>2026-04-19T13:40:51Z</time></trkpt><trkpt lat="44.48508977202585" lon="8.31766369448711"><ele>385.0</ele><time>2026-04-19T13:40:52Z</time></trkpt><trkpt lat="44.48504203123644" lon="8.31776434294417"><ele>385.0</ele><time>2026-04-19T13:40:53Z</time></trkpt><trkpt lat="44.48498458211228" lon="8.317850680509846"><ele>385.0</ele><time>2026-04-19T13:40:54Z</time></trkpt><trkpt lat="44.4849345910285" lon="8.317984430560353"><ele>386.2</ele><time>2026-04-19T13:40:55Z</time></trkpt><trkpt lat="44.48488293954756" lon="8.318136713251512"><ele>387.4</ele><time>2026-04-19T13:40:56Z</time></trkpt><trkpt lat="44.48482838165009" lon="8.31828475733205"><ele>388.6</ele><time>2026-04-19T13:40:57Z</time></trkpt><trkpt lat="44.48478209218107" lon="8.318406863810816"><ele>389.8</ele><time>2026-04-19T13:40:58Z</time></trkpt><trkpt lat="44.48476853270661" lon="8.31852133019528"><ele>391.0</ele><time>2026-04-19T13:40:59Z</time></trkpt><trkpt lat="44.484832764428496" lon="8.31863302060054"><ele>391.0</ele><time>2026-04-19T13:41:00Z</time></trkpt><trkpt lat="44.484923083436335" lon="8.318703602151889"><ele>391.0</ele><time>2026-04-19T13:41:01Z</time></trkpt><trkpt lat="44.48503372549536" lon="8.318758292509603"><ele>391.0</ele><time>2026-04-19T13:41:02Z</time></trkpt><trkpt lat="44.48516082245416" lon="8.31885275066132"><ele>391.0</ele><time>2026-04-19T13:41:03Z</time></trkpt><trkpt lat="44.485304088896626" lon="8.318971323730857"><ele>393.33333333333337</ele><time>2026-04-19T13:41:04Z</time></trkpt><trkpt lat="44.485447737985176" lon="8.319130956843985"><ele>395.66666666666663</ele><time>2026-04-19T13:41:05Z</time></trkpt><trkpt lat="44.48560283960486" lon="8.319295458530425"><ele>398.0</ele><time>2026-04-19T13:41:06Z</time></trkpt><trkpt lat="44.48573742270351" lon="8.319460089938687"><ele>398.0</ele><time>2026-04-19T13:41:07Z</time></trkpt><trkpt lat="44.48586471331345" lon="8.319629762217112"><ele>398.0</ele><time>2026-04-19T13:41:08Z</time></trkpt><trkpt lat="44.485985795461616" lon="8.319794952203624"><ele>398.0</ele><time>2026-04-19T13:41:09Z</time></trkpt><trkpt lat="44.486089742697544" lon="8.319947841189292"><ele>397.3333333333333</ele><time>2026-04-19T13:41:10Z</time></trkpt><trkpt lat="44.4861831874071" lon="8.320099940940285"><ele>396.66666666666663</ele><time>2026-04-19T13:41:11Z</time></trkpt><trkpt lat="44.486268790799926" lon="8.320275862012409"><ele>396.0</ele><time>2026-04-19T13:41:12Z</time></trkpt><trkpt lat="44.48635575666482" lon="8.320481437164005"><ele>398.66666666666663</ele><time>2026-04-19T13:41:13Z</time></trkpt><trkpt lat="44.4864484997205" lon="8.320700668671135"><ele>401.3333333333333</ele><time>2026-04-19T13:41:14Z</time></trkpt><trkpt lat="44.48653970190911" lon="8.320911867003886"><ele>404.0</ele><time>2026-04-19T13:41:15Z</time></trkpt><trkpt lat="44.486619611212525" lon="8.321097761280214"><ele>404.0</ele><time>2026-04-19T13:41:16Z</time></trkpt><trkpt lat="44.48668027258317" lon="8.32126903400439"><ele>404.0</ele><time>2026-04-19T13:41:17Z</time></trkpt><trkpt lat="44.48671821243516" lon="8.321433086741258"><ele>404.0</ele><time>2026-04-19T13:41:18Z</time></trkpt><trkpt lat="44.486727498836814" lon="8.321601994437005"><ele>404.0</ele><time>2026-04-19T13:41:19Z</time></trkpt><trkpt lat="44.48670995822262" lon="8.321795918212311"><ele>405.25</ele><time>2026-04-19T13:41:20Z</time></trkpt><trkpt lat="44.48668713720012" lon="8.321998339622874"><ele>406.5</ele><time>2026-04-19T13:41:21Z</time></trkpt><trkpt lat="44.48668248114886" lon="8.322182033592922"><ele>407.75</ele><time>2026-04-19T13:41:22Z</time></trkpt><trkpt lat="44.48668350265018" lon="8.322357926372254"><ele>409.0</ele><time>2026-04-19T13:41:23Z</time></trkpt><trkpt lat="44.48671634477901" lon="8.322537956050288"><ele>409.33333333333337</ele><time>2026-04-19T13:41:24Z</time></trkpt><trkpt lat="44.48677657270749" lon="8.322729374107519"><ele>409.66666666666663</ele><time>2026-04-19T13:41:25Z</time></trkpt><trkpt lat="44.48683545325082" lon="8.322945702500869"><ele>410.0</ele><time>2026-04-19T13:41:26Z</time></trkpt><trkpt lat="44.48691351336615" lon="8.323172103136296"><ele>410.66666666666663</ele><time>2026-04-19T13:41:27Z</time></trkpt><trkpt lat="44.48700091546041" lon="8.323406248722655"><ele>411.33333333333337</ele><time>2026-04-19T13:41:28Z</time></trkpt><trkpt lat="44.48707821885846" lon="8.323615297805514"><ele>412.0</ele><time>2026-04-19T13:41:29Z</time></trkpt><trkpt lat="44.48714030381529" lon="8.323799024204707"><ele>413.0</ele><time>2026-04-19T13:41:30Z</time></trkpt><trkpt lat="44.487160517007595" lon="8.323943959117043"><ele>414.0</ele><time>2026-04-19T13:41:31Z</time></trkpt><trkpt lat="44.487144642880914" lon="8.324065346300188"><ele>415.0</ele><time>2026-04-19T13:41:32Z</time></trkpt><trkpt lat="44.48709523460864" lon="8.324183119807698"><ele>416.0</ele><time>2026-04-19T13:41:33Z</time></trkpt><trkpt lat="44.48702424942113" lon="8.324308324760445"><ele>417.0</ele><time>2026-04-19T13:41:34Z</time></trkpt><trkpt lat="44.48694181515892" lon="8.324453431400642"><ele>417.0</ele><time>2026-04-19T13:41:35Z</time></trkpt><trkpt lat="44.48687670515156" lon="8.324610896582348"><ele>417.0</ele><time>2026-04-19T13:41:36Z</time></trkpt><trkpt lat="44.486855079581815" lon="8.3248089531297"><ele>417.0</ele><time>2026-04-19T13:41:37Z</time></trkpt><trkpt lat="44.4868461789807" lon="8.325013450002112"><ele>417.0</ele><time>2026-04-19T13:41:38Z</time></trkpt><trkpt lat="44.48686101633271" lon="8.325194354280653"><ele>418.75</ele><time>2026-04-19T13:41:38.999Z</time></trkpt><trkpt lat="44.48690897455419" lon="8.325342697680336"><ele>420.5</ele><time>2026-04-19T13:41:39.999Z</time></trkpt><trkpt lat="44.48698950709538" lon="8.325479049821148"><ele>422.25</ele><time>2026-04-19T13:41:40.999Z</time></trkpt><trkpt lat="44.48706035422569" lon="8.325626949579203"><ele>424.0</ele><time>2026-04-19T13:41:41.999Z</time></trkpt><trkpt lat="44.48712134178255" lon="8.325778735233442"><ele>427.5</ele><time>2026-04-19T13:41:42.999Z</time></trkpt><trkpt lat="44.48716639662239" lon="8.32596002995296"><ele>431.0</ele><time>2026-04-19T13:41:43.999Z</time></trkpt><trkpt lat="44.48721530261712" lon="8.326156234287307"><ele>434.5</ele><time>2026-04-19T13:41:44.999Z</time></trkpt><trkpt lat="44.48724591912437" lon="8.326311369421656"><ele>438.0</ele><time>2026-04-19T13:41:45.999Z</time></trkpt><trkpt lat="44.487257232443056" lon="8.326423968956329"><ele>438.6666666666667</ele><time>2026-04-19T13:41:46.999Z</time></trkpt><trkpt lat="44.48723356557425" lon="8.326513310331611"><ele>439.33333333333337</ele><time>2026-04-19T13:41:47.999Z</time></trkpt><trkpt lat="44.4871748521937" lon="8.326569721107912"><ele>440.0</ele><time>2026-04-19T13:41:48.999Z</time></trkpt><trkpt lat="44.48710167082858" lon="8.326608113994247"><ele>440.6666666666667</ele><time>2026-04-19T13:41:49.999Z</time></trkpt><trkpt lat="44.487017723906774" lon="8.326659534947144"><ele>441.33333333333337</ele><time>2026-04-19T13:41:50.999Z</time></trkpt><trkpt lat="44.48692521135532" lon="8.32672224414565"><ele>442.0</ele><time>2026-04-19T13:41:51.999Z</time></trkpt><trkpt lat="44.48683925356753" lon="8.326818854771334"><ele>440.0</ele><time>2026-04-19T13:41:52.999Z</time></trkpt><trkpt lat="44.486776041441374" lon="8.326903782007829"><ele>438.00000000000006</ele><time>2026-04-19T13:41:53.999Z</time></trkpt><trkpt lat="44.48672902677451" lon="8.326986310694592"><ele>436.00000000000006</ele><time>2026-04-19T13:41:54.999Z</time></trkpt><trkpt lat="44.48673387092818" lon="8.327113901237105"><ele>434.0</ele><time>2026-04-19T13:41:55.999Z</time></trkpt><trkpt lat="44.48681166515692" lon="8.327243711230894"><ele>432.0</ele><time>2026-04-19T13:41:56.999Z</time></trkpt><trkpt lat="44.486884066366464" lon="8.32738425305669"><ele>432.0</ele><time>2026-04-19T13:41:58Z</time></trkpt><trkpt lat="44.486963112437415" lon="8.327537922772274"><ele>432.0</ele><time>2026-04-19T13:41:59Z</time></trkpt><trkpt lat="44.48703696601648" lon="8.327674813105464"><ele>432.0</ele><time>2026-04-19T13:42:00Z</time></trkpt><trkpt lat="44.487110554044705" lon="8.32776344528196"><ele>432.0</ele><time>2026-04-19T13:42:01Z</time></trkpt><trkpt lat="44.48720431178986" lon="8.327800465635255"><ele>435.0</ele><time>2026-04-19T13:42:02Z</time></trkpt><trkpt lat="44.487327400198616" lon="8.327817037725664"><ele>438.0</ele><time>2026-04-19T13:42:03Z</time></trkpt><trkpt lat="44.48744523678194" lon="8.32789810151911"><ele>441.0</ele><time>2026-04-19T13:42:04Z</time></trkpt><trkpt lat="44.48755785863966" lon="8.328004191750326"><ele>444.0</ele><time>2026-04-19T13:42:05Z</time></trkpt><trkpt lat="44.48767388715265" lon="8.328137586872437"><ele>444.0</ele><time>2026-04-19T13:42:06Z</time></trkpt><trkpt lat="44.48778016017813" lon="8.328293643091019"><ele>444.0</ele><time>2026-04-19T13:42:07Z</time></trkpt><trkpt lat="44.48785943561489" lon="8.328455715072408"><ele>444.0</ele><time>2026-04-19T13:42:08Z</time></trkpt><trkpt lat="44.48793073862822" lon="8.328636249345124"><ele>444.0</ele><time>2026-04-19T13:42:09Z</time></trkpt><trkpt lat="44.487993381851936" lon="8.328834189311678"><ele>447.0</ele><time>2026-04-19T13:42:10Z</time></trkpt><trkpt lat="44.48805429106064" lon="8.329062978962153"><ele>450.0</ele><time>2026-04-19T13:42:11Z</time></trkpt><trkpt lat="44.488115279926134" lon="8.329306424031175"><ele>453.0</ele><time>2026-04-19T13:42:12Z</time></trkpt><trkpt lat="44.488170907623555" lon="8.329565073365025"><ele>454.0</ele><time>2026-04-19T13:42:13Z</time></trkpt><trkpt lat="44.488220441405865" lon="8.329800288734548"><ele>455.0</ele><time>2026-04-19T13:42:14Z</time></trkpt><trkpt lat="44.48825823673363" lon="8.329991099850638"><ele>456.0</ele><time>2026-04-19T13:42:15Z</time></trkpt><trkpt lat="44.48828576454064" lon="8.330134784622548"><ele>457.0</ele><time>2026-04-19T13:42:16Z</time></trkpt><trkpt lat="44.48832565115167" lon="8.330235007059992"><ele>457.0</ele><time>2026-04-19T13:42:17Z</time></trkpt><trkpt lat="44.488342498046975" lon="8.330353204700037"><ele>457.00000000000006</ele><time>2026-04-19T13:42:18Z</time></trkpt><trkpt lat="44.488399754922916" lon="8.330448982375147"><ele>457.00000000000006</ele><time>2026-04-19T13:42:19Z</time></trkpt><trkpt lat="44.4884614509175" lon="8.330562684822633"><ele>457.0</ele><time>2026-04-19T13:42:20Z</time></trkpt><trkpt lat="44.488543832342586" lon="8.330688602055409"><ele>457.0</ele><time>2026-04-19T13:42:21Z</time></trkpt><trkpt lat="44.48864452914291" lon="8.330833702161366"><ele>457.25</ele><time>2026-04-19T13:42:22Z</time></trkpt><trkpt lat="44.48874743043868" lon="8.330987069948554"><ele>457.5</ele><time>2026-04-19T13:42:23Z</time></trkpt><trkpt lat="44.488813499681534" lon="8.33115444406018"><ele>457.75</ele><time>2026-04-19T13:42:24Z</time></trkpt><trkpt lat="44.48888607150815" lon="8.331290713102652"><ele>458.0</ele><time>2026-04-19T13:42:25Z</time></trkpt><trkpt lat="44.48895831361597" lon="8.331425638882301"><ele>458.0</ele><time>2026-04-19T13:42:26Z</time></trkpt><trkpt lat="44.48906498467862" lon="8.331521382650813"><ele>458.0</ele><time>2026-04-19T13:42:27Z</time></trkpt><trkpt lat="44.48917225629215" lon="8.33162622667829"><ele>458.0</ele><time>2026-04-19T13:42:28Z</time></trkpt><trkpt lat="44.48925312872555" lon="8.331746228546558"><ele>458.0</ele><time>2026-04-19T13:42:29Z</time></trkpt><trkpt lat="44.48932609984319" lon="8.331868594643732"><ele>458.0</ele><time>2026-04-19T13:42:30Z</time></trkpt><trkpt lat="44.48939366943633" lon="8.332009676716035"><ele>457.99999999999994</ele><time>2026-04-19T13:42:31Z</time></trkpt><trkpt lat="44.48944681620685" lon="8.332143951853451"><ele>457.99999999999994</ele><time>2026-04-19T13:42:32Z</time></trkpt><trkpt lat="44.48949104959146" lon="8.332267360963943"><ele>458.0</ele><time>2026-04-19T13:42:33Z</time></trkpt><trkpt lat="44.489531978964045" lon="8.332394366332835"><ele>458.0</ele><time>2026-04-19T13:42:34Z</time></trkpt><trkpt lat="44.48957133428028" lon="8.332542760212954"><ele>457.0</ele><time>2026-04-19T13:42:35Z</time></trkpt><trkpt lat="44.48961463995985" lon="8.332710816182436"><ele>455.99999999999994</ele><time>2026-04-19T13:42:36Z</time></trkpt><trkpt lat="44.48965397999145" lon="8.332858166844288"><ele>454.99999999999994</ele><time>2026-04-19T13:42:37Z</time></trkpt><trkpt lat="44.48970540853589" lon="8.332982357958183"><ele>454.0</ele><time>2026-04-19T13:42:38Z</time></trkpt><trkpt lat="44.48973518844582" lon="8.333103819674788"><ele>453.0</ele><time>2026-04-19T13:42:39Z</time></trkpt><trkpt lat="44.48982093755245" lon="8.333208563984114"><ele>456.0</ele><time>2026-04-19T13:42:40Z</time></trkpt><trkpt lat="44.48993315599499" lon="8.333290091720885"><ele>459.0</ele><time>2026-04-19T13:42:41Z</time></trkpt><trkpt lat="44.49003927665074" lon="8.33341192436602"><ele>462.0</ele><time>2026-04-19T13:42:42Z</time></trkpt><trkpt lat="44.49015667804493" lon="8.333533552607948"><ele>465.0</ele><time>2026-04-19T13:42:43Z</time></trkpt><trkpt lat="44.49026621749106" lon="8.333629856173285"><ele>465.0</ele><time>2026-04-19T13:42:44Z</time></trkpt><trkpt lat="44.490383532758415" lon="8.33371395293735"><ele>465.0</ele><time>2026-04-19T13:42:45Z</time></trkpt><trkpt lat="44.49052390924475" lon="8.333800654399033"><ele>465.0</ele><time>2026-04-19T13:42:46Z</time></trkpt><trkpt lat="44.490641896773205" lon="8.333948468455205"><ele>465.0</ele><time>2026-04-19T13:42:47Z</time></trkpt><trkpt lat="44.49075857434226" lon="8.334081333177263"><ele>466.75</ele><time>2026-04-19T13:42:48Z</time></trkpt><trkpt lat="44.49086366081474" lon="8.334203429480334"><ele>468.5</ele><time>2026-04-19T13:42:49Z</time></trkpt><trkpt lat="44.49095647514173" lon="8.334311629559426"><ele>470.25</ele><time>2026-04-19T13:42:50Z</time></trkpt><trkpt lat="44.49103947819096" lon="8.334405346538064"><ele>472.0</ele><time>2026-04-19T13:42:51Z</time></trkpt><trkpt lat="44.491091651334465" lon="8.334537891865859"><ele>472.0</ele><time>2026-04-19T13:42:52Z</time></trkpt><trkpt lat="44.49115517048954" lon="8.334669363304391"><ele>472.0</ele><time>2026-04-19T13:42:53Z</time></trkpt><trkpt lat="44.49122597183533" lon="8.334792324013982"><ele>472.0</ele><time>2026-04-19T13:42:54Z</time></trkpt><trkpt lat="44.491276621101434" lon="8.33494107548443"><ele>472.0</ele><time>2026-04-19T13:42:55Z</time></trkpt><trkpt lat="44.49131817840912" lon="8.33509813418655"><ele>470.5</ele><time>2026-04-19T13:42:56Z</time></trkpt><trkpt lat="44.49134917206621" lon="8.335254185400682"><ele>469.0</ele><time>2026-04-19T13:42:57Z</time></trkpt><trkpt lat="44.491355691230495" lon="8.33541100162616"><ele>467.5</ele><time>2026-04-19T13:42:58Z</time></trkpt><trkpt lat="44.49139453288747" lon="8.335554098170412"><ele>466.0</ele><time>2026-04-19T13:42:59Z</time></trkpt><trkpt lat="44.49146384630578" lon="8.335681243715094"><ele>465.75</ele><time>2026-04-19T13:43:00Z</time></trkpt><trkpt lat="44.4915604303907" lon="8.335823333809554"><ele>465.5</ele><time>2026-04-19T13:43:01Z</time></trkpt><trkpt lat="44.491616498662424" lon="8.336008155833982"><ele>465.25</ele><time>2026-04-19T13:43:02Z</time></trkpt><trkpt lat="44.4916818957775" lon="8.33619133318489"><ele>465.0</ele><time>2026-04-19T13:43:03Z</time></trkpt><trkpt lat="44.49174200310228" lon="8.336378988700064"><ele>463.25</ele><time>2026-04-19T13:43:04Z</time></trkpt><trkpt lat="44.49179421416592" lon="8.336569118160726"><ele>461.5</ele><time>2026-04-19T13:43:05Z</time></trkpt><trkpt lat="44.49184171174849" lon="8.336747150655846"><ele>459.75</ele><time>2026-04-19T13:43:06Z</time></trkpt><trkpt lat="44.491882468138336" lon="8.336889814369929"><ele>458.0</ele><time>2026-04-19T13:43:07Z</time></trkpt><trkpt lat="44.49192859506332" lon="8.337029280670592"><ele>458.0</ele><time>2026-04-19T13:43:08Z</time></trkpt><trkpt lat="44.4919951501107" lon="8.337154316971336"><ele>458.0</ele><time>2026-04-19T13:43:09Z</time></trkpt><trkpt lat="44.492073257330944" lon="8.337278917401905"><ele>458.0</ele><time>2026-04-19T13:43:10Z</time></trkpt><trkpt lat="44.49217915695594" lon="8.33739927073078"><ele>458.0</ele><time>2026-04-19T13:43:11Z</time></trkpt><trkpt lat="44.49225975156089" lon="8.337543436370904"><ele>458.2</ele><time>2026-04-19T13:43:12Z</time></trkpt><trkpt lat="44.49232563794547" lon="8.337659288807139"><ele>458.4</ele><time>2026-04-19T13:43:13Z</time></trkpt><trkpt lat="44.492353734419574" lon="8.337776496604702"><ele>458.59999999999997</ele><time>2026-04-19T13:43:14Z</time></trkpt><trkpt lat="44.49237974351438" lon="8.337927104301205"><ele>458.79999999999995</ele><time>2026-04-19T13:43:15Z</time></trkpt><trkpt lat="44.4924207801402" lon="8.33810959437207"><ele>459.0</ele><time>2026-04-19T13:43:16Z</time></trkpt><trkpt lat="44.492461266992926" lon="8.338307397877662"><ele>457.75</ele><time>2026-04-19T13:43:17Z</time></trkpt><trkpt lat="44.49247580767523" lon="8.338479339504623"><ele>456.5</ele><time>2026-04-19T13:43:18Z</time></trkpt><trkpt lat="44.492488110114124" lon="8.338645473436989"><ele>455.25</ele><time>2026-04-19T13:43:19Z</time></trkpt><trkpt lat="44.49250129916531" lon="8.338813813738218"><ele>454.0</ele><time>2026-04-19T13:43:20Z</time></trkpt><trkpt lat="44.49251776556968" lon="8.338969093275033"><ele>454.0</ele><time>2026-04-19T13:43:21Z</time></trkpt><trkpt lat="44.49254307657308" lon="8.339111118929342"><ele>454.0</ele><time>2026-04-19T13:43:22Z</time></trkpt><trkpt lat="44.49259885807596" lon="8.339261381190838"><ele>454.0</ele><time>2026-04-19T13:43:23Z</time></trkpt><trkpt lat="44.4926610843855" lon="8.339434545852066"><ele>454.0</ele><time>2026-04-19T13:43:24Z</time></trkpt><trkpt lat="44.49271990480958" lon="8.33962470101398"><ele>452.25</ele><time>2026-04-19T13:43:25Z</time></trkpt><trkpt lat="44.49276033005388" lon="8.339807109058192"><ele>450.5</ele><time>2026-04-19T13:43:26Z</time></trkpt><trkpt lat="44.49277249975517" lon="8.339974517250939"><ele>448.75</ele><time>2026-04-19T13:43:27Z</time></trkpt><trkpt lat="44.492778774392306" lon="8.340133972167328"><ele>447.0</ele><time>2026-04-19T13:43:28Z</time></trkpt><trkpt lat="44.492787139192764" lon="8.340292283540485"><ele>447.0</ele><time>2026-04-19T13:43:29Z</time></trkpt><trkpt lat="44.49281466518456" lon="8.34045996280991"><ele>447.0</ele><time>2026-04-19T13:43:30Z</time></trkpt><trkpt lat="44.49285213619669" lon="8.340642148627571"><ele>447.0</ele><time>2026-04-19T13:43:31Z</time></trkpt><trkpt lat="44.492896476284265" lon="8.340846374196913"><ele>447.0</ele><time>2026-04-19T13:43:32Z</time></trkpt><trkpt lat="44.492952146823995" lon="8.341055614695971"><ele>450.25</ele><time>2026-04-19T13:43:33Z</time></trkpt><trkpt lat="44.493012748474776" lon="8.341242790431666"><ele>453.5</ele><time>2026-04-19T13:43:34Z</time></trkpt><trkpt lat="44.49305656630534" lon="8.341419649998016"><ele>456.75</ele><time>2026-04-19T13:43:35Z</time></trkpt><trkpt lat="44.49307445551317" lon="8.341583122977951"><ele>460.0</ele><time>2026-04-19T13:43:36Z</time></trkpt><trkpt lat="44.4930955925887" lon="8.341726343078939"><ele>460.0</ele><time>2026-04-19T13:43:37Z</time></trkpt><trkpt lat="44.49312808617173" lon="8.341841540914826"><ele>460.0</ele><time>2026-04-19T13:43:38Z</time></trkpt><trkpt lat="44.49323620592466" lon="8.341904866422906"><ele>460.0</ele><time>2026-04-19T13:43:39Z</time></trkpt><trkpt lat="44.49331704910185" lon="8.342010564084648"><ele>460.0</ele><time>2026-04-19T13:43:40Z</time></trkpt><trkpt lat="44.493391099978304" lon="8.342131813411168"><ele>460.0</ele><time>2026-04-19T13:43:41Z</time></trkpt><trkpt lat="44.49346601321678" lon="8.3422759670757"><ele>456.5</ele><time>2026-04-19T13:43:42Z</time></trkpt><trkpt lat="44.493547449221495" lon="8.342418655723513"><ele>453.0</ele><time>2026-04-19T13:43:43Z</time></trkpt><trkpt lat="44.49361776666971" lon="8.342543601198484"><ele>449.5</ele><time>2026-04-19T13:43:44Z</time></trkpt><trkpt lat="44.4936746751611" lon="8.342668587530405"><ele>446.0</ele><time>2026-04-19T13:43:45Z</time></trkpt><trkpt lat="44.493714150163726" lon="8.342802983646347"><ele>446.0</ele><time>2026-04-19T13:43:46Z</time></trkpt><trkpt lat="44.493745632055806" lon="8.34294854938349"><ele>446.0</ele><time>2026-04-19T13:43:47Z</time></trkpt><trkpt lat="44.493767779438144" lon="8.343098038576363"><ele>446.0</ele><time>2026-04-19T13:43:48Z</time></trkpt><trkpt lat="44.49378717287154" lon="8.343262168970188"><ele>446.0</ele><time>2026-04-19T13:43:49Z</time></trkpt><trkpt lat="44.493811399546125" lon="8.343438298026378"><ele>445.0</ele><time>2026-04-19T13:43:50Z</time></trkpt><trkpt lat="44.49383372037654" lon="8.343601251772668"><ele>444.0</ele><time>2026-04-19T13:43:51Z</time></trkpt><trkpt lat="44.49383844216997" lon="8.34375539515878"><ele>443.0</ele><time>2026-04-19T13:43:52Z</time></trkpt><trkpt lat="44.49382967938881" lon="8.343912264362398"><ele>442.0</ele><time>2026-04-19T13:43:53Z</time></trkpt><trkpt lat="44.49382348713173" lon="8.344067478002076"><ele>442.0</ele><time>2026-04-19T13:43:54Z</time></trkpt><trkpt lat="44.49381387062623" lon="8.34421346685918"><ele>442.00000000000006</ele><time>2026-04-19T13:43:55Z</time></trkpt><trkpt lat="44.49380537056767" lon="8.344357402286551"><ele>442.00000000000006</ele><time>2026-04-19T13:43:56Z</time></trkpt><trkpt lat="44.49380315277019" lon="8.344497846494896"><ele>442.0</ele><time>2026-04-19T13:43:57Z</time></trkpt><trkpt lat="44.49382149894658" lon="8.344636201677917"><ele>442.0</ele><time>2026-04-19T13:43:58Z</time></trkpt><trkpt lat="44.49386414106033" lon="8.344762931016628"><ele>442.00000000000006</ele><time>2026-04-19T13:43:59Z</time></trkpt><trkpt lat="44.493916869274535" lon="8.3448796030806"><ele>442.0</ele><time>2026-04-19T13:44:00Z</time></trkpt><trkpt lat="44.49396786620384" lon="8.344975662145984"><ele>442.0</ele><time>2026-04-19T13:44:01Z</time></trkpt><trkpt lat="44.4939994173107" lon="8.345065601507383"><ele>442.0</ele><time>2026-04-19T13:44:02Z</time></trkpt><trkpt lat="44.4940174004661" lon="8.34516252721678"><ele>442.00000000000006</ele><time>2026-04-19T13:44:03Z</time></trkpt><trkpt lat="44.494004732799766" lon="8.34527625211"><ele>442.0</ele><time>2026-04-19T13:44:04Z</time></trkpt><trkpt lat="44.49400622455652" lon="8.34542344062469"><ele>441.8</ele><time>2026-04-19T13:44:05Z</time></trkpt><trkpt lat="44.49401543049927" lon="8.345575953171878"><ele>441.6</ele><time>2026-04-19T13:44:06Z</time></trkpt><trkpt lat="44.494034283979616" lon="8.345703845006048"><ele>441.40000000000003</ele><time>2026-04-19T13:44:07Z</time></trkpt><trkpt lat="44.494070578391515" lon="8.345813301900607"><ele>441.20000000000005</ele><time>2026-04-19T13:44:08Z</time></trkpt><trkpt lat="44.49414659223039" lon="8.345893857125006"><ele>441.0</ele><time>2026-04-19T13:44:09Z</time></trkpt><trkpt lat="44.49422993658487" lon="8.345949150776049"><ele>441.0</ele><time>2026-04-19T13:44:10Z</time></trkpt><trkpt lat="44.49432547378115" lon="8.345989560081133"><ele>441.0</ele><time>2026-04-19T13:44:11Z</time></trkpt><trkpt lat="44.494439632949565" lon="8.346023145694424"><ele>441.0</ele><time>2026-04-19T13:44:12Z</time></trkpt><trkpt lat="44.49455218347875" lon="8.346054456339981"><ele>441.0</ele><time>2026-04-19T13:44:13Z</time></trkpt><trkpt lat="44.494646048307786" lon="8.346120576275442"><ele>441.0</ele><time>2026-04-19T13:44:14Z</time></trkpt><trkpt lat="44.49472396072344" lon="8.346177390129439"><ele>437.1666666666667</ele><time>2026-04-19T13:44:15Z</time></trkpt><trkpt lat="44.494789068056114" lon="8.346230246635333"><ele>433.33333333333337</ele><time>2026-04-19T13:44:16Z</time></trkpt><trkpt lat="44.49483830441351" lon="8.346289195873625"><ele>429.5</ele><time>2026-04-19T13:44:17Z</time></trkpt><trkpt lat="44.49485295552941" lon="8.346416160257355"><ele>425.6666666666667</ele><time>2026-04-19T13:44:19Z</time></trkpt><trkpt lat="44.494808068047774" lon="8.34648348503478"><ele>421.83333333333337</ele><time>2026-04-19T13:44:20Z</time></trkpt><trkpt lat="44.494766761519934" lon="8.346611093211978"><ele>418.0</ele><time>2026-04-19T13:44:21Z</time></trkpt><trkpt lat="44.49472110138709" lon="8.346750460127485"><ele>418.0</ele><time>2026-04-19T13:44:22Z</time></trkpt><trkpt lat="44.494686139351806" lon="8.346888484678294"><ele>418.0</ele><time>2026-04-19T13:44:23Z</time></trkpt><trkpt lat="44.494684564196525" lon="8.34701163822613"><ele>418.0</ele><time>2026-04-19T13:44:24Z</time></trkpt><trkpt lat="44.49464001589892" lon="8.3471423667153"><ele>418.0</ele><time>2026-04-19T13:44:26Z</time></trkpt><trkpt lat="44.49451967903012" lon="8.347187302815597"><ele>418.0</ele><time>2026-04-19T13:44:28Z</time></trkpt><trkpt lat="44.49442591760006" lon="8.347187579422124"><ele>417.4</ele><time>2026-04-19T13:44:29Z</time></trkpt><trkpt lat="44.49432089468321" lon="8.347177537940372"><ele>416.79999999999995</ele><time>2026-04-19T13:44:30Z</time></trkpt><trkpt lat="44.49422598779328" lon="8.347168912259875"><ele>416.2</ele><time>2026-04-19T13:44:31Z</time></trkpt><trkpt lat="44.4941472947659" lon="8.347173439641526"><ele>415.6</ele><time>2026-04-19T13:44:32Z</time></trkpt><trkpt lat="44.49407140934334" lon="8.347208046437585"><ele>415.0</ele><time>2026-04-19T13:44:33Z</time></trkpt><trkpt lat="44.493992198902454" lon="8.347282475029804"><ele>415.0</ele><time>2026-04-19T13:44:34Z</time></trkpt><trkpt lat="44.49391185037039" lon="8.347385720748983"><ele>415.0</ele><time>2026-04-19T13:44:35Z</time></trkpt><trkpt lat="44.49383551416322" lon="8.347484372729308"><ele>415.0</ele><time>2026-04-19T13:44:36Z</time></trkpt><trkpt lat="44.49376692852954" lon="8.347549153206549"><ele>415.0</ele><time>2026-04-19T13:44:37Z</time></trkpt><trkpt lat="44.49369399554156" lon="8.347643831736834"><ele>415.0</ele><time>2026-04-19T13:44:39Z</time></trkpt><trkpt lat="44.49375060485702" lon="8.34779754456651"><ele>415.00000000000006</ele><time>2026-04-19T13:44:41Z</time></trkpt><trkpt lat="44.49381822923945" lon="8.347797955992222"><ele>415.0</ele><time>2026-04-19T13:44:42Z</time></trkpt><trkpt lat="44.493895817854806" lon="8.34773703496385"><ele>415.0</ele><time>2026-04-19T13:44:43Z</time></trkpt><trkpt lat="44.49397930863123" lon="8.347680160213327"><ele>415.0</ele><time>2026-04-19T13:44:44Z</time></trkpt><trkpt lat="44.49404550545087" lon="8.347642467133024"><ele>415.00000000000006</ele><time>2026-04-19T13:44:45Z</time></trkpt><trkpt lat="44.4941014996687" lon="8.347693149620747"><ele>415.0</ele><time>2026-04-19T13:44:47Z</time></trkpt><trkpt lat="44.49403990088029" lon="8.347797500074291"><ele>415.0</ele><time>2026-04-19T13:44:49Z</time></trkpt><trkpt lat="44.49398206957558" lon="8.347839142730832"><ele>415.0</ele><time>2026-04-19T13:44:50Z</time></trkpt><trkpt lat="44.49390939258088" lon="8.347917670569908"><ele>415.0</ele><time>2026-04-19T13:44:51Z</time></trkpt><trkpt lat="44.4938212970278" lon="8.34804501314492"><ele>415.0</ele><time>2026-04-19T13:44:52Z</time></trkpt><trkpt lat="44.493738775789524" lon="8.348186392154654"><ele>415.0</ele><time>2026-04-19T13:44:53Z</time></trkpt><trkpt lat="44.49367159979416" lon="8.348305631359223"><ele>412.4</ele><time>2026-04-19T13:44:54Z</time></trkpt><trkpt lat="44.49360736226704" lon="8.348405525732852"><ele>409.8</ele><time>2026-04-19T13:44:55Z</time></trkpt><trkpt lat="44.49353708997657" lon="8.348481155145635"><ele>407.20000000000005</ele><time>2026-04-19T13:44:56Z</time></trkpt><trkpt lat="44.493459023902346" lon="8.348544447378043"><ele>404.6</ele><time>2026-04-19T13:44:57Z</time></trkpt><trkpt lat="44.49336723872268" lon="8.348571112234728"><ele>402.0</ele><time>2026-04-19T13:44:58Z</time></trkpt><trkpt lat="44.49326811720989" lon="8.348605701414556"><ele>402.0</ele><time>2026-04-19T13:44:59Z</time></trkpt><trkpt lat="44.49317444637821" lon="8.348620355637621"><ele>402.0</ele><time>2026-04-19T13:45:00Z</time></trkpt><trkpt lat="44.49307905426869" lon="8.348611043418945"><ele>402.0</ele><time>2026-04-19T13:45:01Z</time></trkpt><trkpt lat="44.49298639987822" lon="8.348611043416632"><ele>402.0</ele><time>2026-04-19T13:45:02Z</time></trkpt><trkpt lat="44.492901732510354" lon="8.348654775213156"><ele>402.0</ele><time>2026-04-19T13:45:03Z</time></trkpt><trkpt lat="44.49282499958971" lon="8.34864914063173"><ele>401.40000000000003</ele><time>2026-04-19T13:45:04Z</time></trkpt><trkpt lat="44.49274385219182" lon="8.348654804901447"><ele>400.8</ele><time>2026-04-19T13:45:05Z</time></trkpt><trkpt lat="44.492658564928604" lon="8.348660758123373"><ele>400.2</ele><time>2026-04-19T13:45:06Z</time></trkpt><trkpt lat="44.49256832149048" lon="8.348663572585242"><ele>399.6</ele><time>2026-04-19T13:45:07Z</time></trkpt><trkpt lat="44.49247494857206" lon="8.348656695697404"><ele>399.0</ele><time>2026-04-19T13:45:08Z</time></trkpt><trkpt lat="44.492377257633784" lon="8.348629874963938"><ele>399.0</ele><time>2026-04-19T13:45:09Z</time></trkpt><trkpt lat="44.49227884985591" lon="8.348590379506662"><ele>399.0</ele><time>2026-04-19T13:45:10Z</time></trkpt><trkpt lat="44.49218484436888" lon="8.348550961680164"><ele>399.0</ele><time>2026-04-19T13:45:11Z</time></trkpt><trkpt lat="44.492089300127084" lon="8.348529798138124"><ele>399.0</ele><time>2026-04-19T13:45:12Z</time></trkpt><trkpt lat="44.49200172400588" lon="8.348488813541396"><ele>399.0</ele><time>2026-04-19T13:45:13Z</time></trkpt><trkpt lat="44.491914802636344" lon="8.348446969757719"><ele>396.4</ele><time>2026-04-19T13:45:14Z</time></trkpt><trkpt lat="44.491830764217994" lon="8.348396376736474"><ele>393.79999999999995</ele><time>2026-04-19T13:45:15Z</time></trkpt><trkpt lat="44.49175050834516" lon="8.348340317829823"><ele>391.20000000000005</ele><time>2026-04-19T13:45:16Z</time></trkpt><trkpt lat="44.49167680518027" lon="8.34829598426952"><ele>388.6</ele><time>2026-04-19T13:45:17Z</time></trkpt><trkpt lat="44.491575067802295" lon="8.3482997963106"><ele>386.0</ele><time>2026-04-19T13:45:19Z</time></trkpt><trkpt lat="44.49151020892252" lon="8.3484097999951"><ele>386.0</ele><time>2026-04-19T13:45:21Z</time></trkpt><trkpt lat="44.49157700322204" lon="8.348523377595003"><ele>386.0</ele><time>2026-04-19T13:45:22Z</time></trkpt><trkpt lat="44.491627927990045" lon="8.3486160128491"><ele>386.0</ele><time>2026-04-19T13:45:23Z</time></trkpt><trkpt lat="44.491680769515995" lon="8.348725024917401"><ele>386.0</ele><time>2026-04-19T13:45:24Z</time></trkpt><trkpt lat="44.49173866535503" lon="8.34886892339861"><ele>386.0</ele><time>2026-04-19T13:45:25Z</time></trkpt><trkpt lat="44.491811188836735" lon="8.349051641207424"><ele>385.0</ele><time>2026-04-19T13:45:26Z</time></trkpt><trkpt lat="44.491903509225736" lon="8.349244112074343"><ele>384.0</ele><time>2026-04-19T13:45:27Z</time></trkpt><trkpt lat="44.49200601382865" lon="8.349441090942152"><ele>383.0</ele><time>2026-04-19T13:45:28Z</time></trkpt><trkpt lat="44.492109347864854" lon="8.349645418440526"><ele>379.5</ele><time>2026-04-19T13:45:29Z</time></trkpt><trkpt lat="44.49220213643864" lon="8.349833315950743"><ele>376.0</ele><time>2026-04-19T13:45:30Z</time></trkpt><trkpt lat="44.492286927314915" lon="8.349996174805074"><ele>372.5</ele><time>2026-04-19T13:45:31Z</time></trkpt><trkpt lat="44.492358002230496" lon="8.350124783739146"><ele>369.0</ele><time>2026-04-19T13:45:32Z</time></trkpt><trkpt lat="44.49241072801773" lon="8.35021907276312"><ele>369.0</ele><time>2026-04-19T13:45:33Z</time></trkpt><trkpt lat="44.492458833950494" lon="8.350306218810823"><ele>369.0</ele><time>2026-04-19T13:45:34Z</time></trkpt><trkpt lat="44.49252038273105" lon="8.350384630889085"><ele>369.0</ele><time>2026-04-19T13:45:35Z</time></trkpt><trkpt lat="44.49256624997454" lon="8.350466629134388"><ele>369.0</ele><time>2026-04-19T13:45:36Z</time></trkpt><trkpt lat="44.49261167112245" lon="8.350583301098721"><ele>369.0</ele><time>2026-04-19T13:45:37Z</time></trkpt><trkpt lat="44.49268670293909" lon="8.350710855106644"><ele>369.0</ele><time>2026-04-19T13:45:38Z</time></trkpt><trkpt lat="44.49276536956863" lon="8.35084274672914"><ele>369.25</ele><time>2026-04-19T13:45:39Z</time></trkpt><trkpt lat="44.492833576536974" lon="8.350962064250439"><ele>369.5</ele><time>2026-04-19T13:45:40Z</time></trkpt><trkpt lat="44.492903556700874" lon="8.35107732854501"><ele>369.75</ele><time>2026-04-19T13:45:41Z</time></trkpt><trkpt lat="44.49299958503012" lon="8.35116423928415"><ele>370.0</ele><time>2026-04-19T13:45:42Z</time></trkpt><trkpt lat="44.49308999960417" lon="8.35128251910776"><ele>368.25</ele><time>2026-04-19T13:45:43Z</time></trkpt><trkpt lat="44.49319405825192" lon="8.351380892919687"><ele>366.5</ele><time>2026-04-19T13:45:44Z</time></trkpt><trkpt lat="44.49328872694801" lon="8.351473724955383"><ele>364.75</ele><time>2026-04-19T13:45:45Z</time></trkpt><trkpt lat="44.493370139786116" lon="8.351572456750727"><ele>363.0</ele><time>2026-04-19T13:45:46Z</time></trkpt><trkpt lat="44.493438370831804" lon="8.351686252435"><ele>363.0</ele><time>2026-04-19T13:45:47Z</time></trkpt><trkpt lat="44.49349303032471" lon="8.351826529571182"><ele>363.0</ele><time>2026-04-19T13:45:48Z</time></trkpt><trkpt lat="44.49355347612231" lon="8.351982412173106"><ele>363.0</ele><time>2026-04-19T13:45:49Z</time></trkpt><trkpt lat="44.49360761746306" lon="8.352154544709892"><ele>363.0</ele><time>2026-04-19T13:45:50Z</time></trkpt><trkpt lat="44.493662117255184" lon="8.35234284815012"><ele>362.5</ele><time>2026-04-19T13:45:51Z</time></trkpt><trkpt lat="44.49371826299924" lon="8.352532269287776"><ele>362.0</ele><time>2026-04-19T13:45:52Z</time></trkpt><trkpt lat="44.493775542684546" lon="8.352711046517907"><ele>361.5</ele><time>2026-04-19T13:45:53Z</time></trkpt><trkpt lat="44.493836183358475" lon="8.352877661698473"><ele>361.0</ele><time>2026-04-19T13:45:54Z</time></trkpt><trkpt lat="44.493898104300065" lon="8.353040999014473"><ele>360.25</ele><time>2026-04-19T13:45:55Z</time></trkpt><trkpt lat="44.493962047322796" lon="8.353197572483694"><ele>359.5</ele><time>2026-04-19T13:45:56Z</time></trkpt><trkpt lat="44.494027459670974" lon="8.353344270063143"><ele>358.75</ele><time>2026-04-19T13:45:57Z</time></trkpt><trkpt lat="44.494101153032666" lon="8.353492502242837"><ele>358.0</ele><time>2026-04-19T13:45:58Z</time></trkpt><trkpt lat="44.49419514837118" lon="8.35365255511885"><ele>358.0</ele><time>2026-04-19T13:45:59Z</time></trkpt><trkpt lat="44.49429436716805" lon="8.353825715190608"><ele>358.0</ele><time>2026-04-19T13:46:00Z</time></trkpt><trkpt lat="44.49437700439588" lon="8.35399551525568"><ele>358.0</ele><time>2026-04-19T13:46:01Z</time></trkpt><trkpt lat="44.49445405619814" lon="8.35416192716792"><ele>358.0</ele><time>2026-04-19T13:46:02Z</time></trkpt><trkpt lat="44.494533280582665" lon="8.354321528439332"><ele>356.5</ele><time>2026-04-19T13:46:03Z</time></trkpt><trkpt lat="44.49461761127474" lon="8.354465068358532"><ele>355.0</ele><time>2026-04-19T13:46:04Z</time></trkpt><trkpt lat="44.49470494331736" lon="8.354589614573806"><ele>353.5</ele><time>2026-04-19T13:46:05Z</time></trkpt><trkpt lat="44.49478287908353" lon="8.354706971434211"><ele>352.0</ele><time>2026-04-19T13:46:06Z</time></trkpt><trkpt lat="44.4948547893001" lon="8.354820139894654"><ele>352.0</ele><time>2026-04-19T13:46:07Z</time></trkpt><trkpt lat="44.49491212341177" lon="8.354925759443823"><ele>352.0</ele><time>2026-04-19T13:46:08Z</time></trkpt><trkpt lat="44.4949517033452" lon="8.355019538976103"><ele>352.0</ele><time>2026-04-19T13:46:09Z</time></trkpt><trkpt lat="44.49498774072467" lon="8.355118989400347"><ele>352.0</ele><time>2026-04-19T13:46:10Z</time></trkpt><trkpt lat="44.49503904691081" lon="8.355217225655576"><ele>352.0</ele><time>2026-04-19T13:46:11Z</time></trkpt><trkpt lat="44.49505044136403" lon="8.355335955046012"><ele>352.0</ele><time>2026-04-19T13:46:12Z</time></trkpt><trkpt lat="44.495079290436465" lon="8.355445934382397"><ele>351.5</ele><time>2026-04-19T13:46:13Z</time></trkpt><trkpt lat="44.4951114012297" lon="8.355544221925959"><ele>351.0</ele><time>2026-04-19T13:46:14Z</time></trkpt><trkpt lat="44.49514600483884" lon="8.35562810747472"><ele>350.5</ele><time>2026-04-19T13:46:15Z</time></trkpt><trkpt lat="44.49522714540652" lon="8.355734490413687"><ele>350.0</ele><time>2026-04-19T13:46:17Z</time></trkpt><trkpt lat="44.495293426038444" lon="8.35572347760053"><ele>349.5</ele><time>2026-04-19T13:46:18Z</time></trkpt><trkpt lat="44.49538436576441" lon="8.3557916258739"><ele>349.0</ele><time>2026-04-19T13:46:20Z</time></trkpt><trkpt lat="44.49542818285491" lon="8.355881844233958"><ele>348.4</ele><time>2026-04-19T13:46:22Z</time></trkpt><trkpt lat="44.495465679657485" lon="8.355953369393424"><ele>347.79999999999995</ele><time>2026-04-19T13:46:23Z</time></trkpt><trkpt lat="44.49551595577846" lon="8.356037318499423"><ele>347.20000000000005</ele><time>2026-04-19T13:46:24Z</time></trkpt><trkpt lat="44.495579316126815" lon="8.356137497839946"><ele>346.6</ele><time>2026-04-19T13:46:25Z</time></trkpt><trkpt lat="44.49565076286932" lon="8.35624649995248"><ele>346.0</ele><time>2026-04-19T13:46:26Z</time></trkpt><trkpt lat="44.49573193877724" lon="8.356366955796139"><ele>345.0</ele><time>2026-04-19T13:46:27Z</time></trkpt><trkpt lat="44.49581677284652" lon="8.356483987713514"><ele>344.0</ele><time>2026-04-19T13:46:28Z</time></trkpt><trkpt lat="44.495896927771014" lon="8.35659044451165"><ele>343.0</ele><time>2026-04-19T13:46:29Z</time></trkpt><trkpt lat="44.495970398829755" lon="8.356686328744397"><ele>342.0</ele><time>2026-04-19T13:46:30Z</time></trkpt><trkpt lat="44.49603704096088" lon="8.356769582929898"><ele>341.0</ele><time>2026-04-19T13:46:31Z</time></trkpt><trkpt lat="44.496107125887555" lon="8.356843082817457"><ele>341.0</ele><time>2026-04-19T13:46:32Z</time></trkpt><trkpt lat="44.49619401910372" lon="8.356885455918652"><ele>341.0</ele><time>2026-04-19T13:46:33Z</time></trkpt><trkpt lat="44.49628222519103" lon="8.35687576212361"><ele>341.0</ele><time>2026-04-19T13:46:34Z</time></trkpt><trkpt lat="44.496358423192305" lon="8.356925338689763"><ele>341.0</ele><time>2026-04-19T13:46:35Z</time></trkpt><trkpt lat="44.49643857614631" lon="8.356960929929373"><ele>341.0</ele><time>2026-04-19T13:46:36Z</time></trkpt><trkpt lat="44.49651227490969" lon="8.3570079791895"><ele>341.0</ele><time>2026-04-19T13:46:37Z</time></trkpt><trkpt lat="44.49658036435845" lon="8.357056028193892"><ele>340.6666666666667</ele><time>2026-04-19T13:46:38Z</time></trkpt><trkpt lat="44.49664583971205" lon="8.357103632018799"><ele>340.33333333333337</ele><time>2026-04-19T13:46:39Z</time></trkpt><trkpt lat="44.49669681055726" lon="8.357181977486222"><ele>340.0</ele><time>2026-04-19T13:46:40Z</time></trkpt><trkpt lat="44.4967609950864" lon="8.357209551920782"><ele>339.6666666666667</ele><time>2026-04-19T13:46:41Z</time></trkpt><trkpt lat="44.49681250419338" lon="8.357301637998193"><ele>339.3333333333333</ele><time>2026-04-19T13:46:42Z</time></trkpt><trkpt lat="44.496893499213876" lon="8.357335478762469"><ele>339.0</ele><time>2026-04-19T13:46:43Z</time></trkpt><trkpt lat="44.49698893102818" lon="8.357348663059792"><ele>338.3333333333333</ele><time>2026-04-19T13:46:44Z</time></trkpt><trkpt lat="44.497075106889106" lon="8.357362951776622"><ele>337.6666666666667</ele><time>2026-04-19T13:46:45Z</time></trkpt><trkpt lat="44.49715249085157" lon="8.357371703582741"><ele>337.0</ele><time>2026-04-19T13:46:46Z</time></trkpt><trkpt lat="44.49722818476595" lon="8.357363431279166"><ele>336.33333333333337</ele><time>2026-04-19T13:46:47Z</time></trkpt><trkpt lat="44.49730325807641" lon="8.357341694260342"><ele>335.6666666666667</ele><time>2026-04-19T13:46:48Z</time></trkpt><trkpt lat="44.497379238478125" lon="8.357325485838558"><ele>335.0</ele><time>2026-04-19T13:46:49Z</time></trkpt><trkpt lat="44.49745996232154" lon="8.357303328349436"><ele>334.6666666666667</ele><time>2026-04-19T13:46:50Z</time></trkpt><trkpt lat="44.49754666344155" lon="8.357264618658101"><ele>334.33333333333337</ele><time>2026-04-19T13:46:51Z</time></trkpt><trkpt lat="44.49762692158027" lon="8.35720329377789"><ele>334.0</ele><time>2026-04-19T13:46:52Z</time></trkpt><trkpt lat="44.49771610181236" lon="8.357162842270515"><ele>333.6666666666667</ele><time>2026-04-19T13:46:54Z</time></trkpt><trkpt lat="44.49778461239783" lon="8.357206814549064"><ele>333.3333333333333</ele><time>2026-04-19T13:46:56Z</time></trkpt><trkpt lat="44.49784995556112" lon="8.357269141479227"><ele>333.0</ele><time>2026-04-19T13:46:58Z</time></trkpt><trkpt lat="44.49791965262841" lon="8.357351037526298"><ele>333.0</ele><time>2026-04-19T13:47:00Z</time></trkpt><trkpt lat="44.497989031568245" lon="8.35742864612954"><ele>333.0</ele><time>2026-04-19T13:47:02Z</time></trkpt><trkpt lat="44.49804462381863" lon="8.35749692911334"><ele>333.0</ele><time>2026-04-19T13:47:05Z</time></trkpt><trkpt lat="44.498042414652474" lon="8.357609601916522"><ele>333.0</ele><time>2026-04-19T13:47:08Z</time></trkpt><trkpt lat="44.49795484513042" lon="8.357688517489857"><ele>333.0</ele><time>2026-04-19T13:47:10Z</time></trkpt><trkpt lat="44.497894297331065" lon="8.357740675683054"><ele>333.0</ele><time>2026-04-19T13:47:11Z</time></trkpt><trkpt lat="44.49782198503359" lon="8.357807967782309"><ele>333.0</ele><time>2026-04-19T13:47:12Z</time></trkpt><trkpt lat="44.497736307525415" lon="8.357897480334161"><ele>333.0</ele><time>2026-04-19T13:47:13Z</time></trkpt><trkpt lat="44.497634743872524" lon="8.358006943056457"><ele>333.0</ele><time>2026-04-19T13:47:14Z</time></trkpt><trkpt lat="44.49751383236775" lon="8.358128511344466"><ele>333.0</ele><time>2026-04-19T13:47:15Z</time></trkpt><trkpt lat="44.49738171008139" lon="8.358281477179904"><ele>332.3333333333333</ele><time>2026-04-19T13:47:16Z</time></trkpt><trkpt lat="44.497236013966784" lon="8.358440663528475"><ele>331.66666666666663</ele><time>2026-04-19T13:47:17Z</time></trkpt><trkpt lat="44.497101457348485" lon="8.358587920457655"><ele>331.0</ele><time>2026-04-19T13:47:18Z</time></trkpt><trkpt lat="44.49698790362241" lon="8.358715798518306"><ele>331.0</ele><time>2026-04-19T13:47:19Z</time></trkpt><trkpt lat="44.49690000220326" lon="8.35881378069213"><ele>331.0</ele><time>2026-04-19T13:47:20Z</time></trkpt><trkpt lat="44.49681192075065" lon="8.35886890322125"><ele>331.0</ele><time>2026-04-19T13:47:21Z</time></trkpt><trkpt lat="44.49677373010687" lon="8.358974381918491"><ele>331.0</ele><time>2026-04-19T13:47:22Z</time></trkpt><trkpt lat="44.49677144695774" lon="8.359078986587358"><ele>331.0</ele><time>2026-04-19T13:47:23Z</time></trkpt><trkpt lat="44.49680098498458" lon="8.359185842380224"><ele>331.0</ele><time>2026-04-19T13:47:24Z</time></trkpt><trkpt lat="44.496883426975195" lon="8.359278202768296"><ele>331.0</ele><time>2026-04-19T13:47:25Z</time></trkpt><trkpt lat="44.49696385295514" lon="8.359375648117108"><ele>331.0</ele><time>2026-04-19T13:47:26Z</time></trkpt><trkpt lat="44.49706096030463" lon="8.359447740900555"><ele>331.0</ele><time>2026-04-19T13:47:27Z</time></trkpt><trkpt lat="44.49715449503116" lon="8.35949822906998"><ele>331.0</ele><time>2026-04-19T13:47:28Z</time></trkpt><trkpt lat="44.49722460576499" lon="8.359545003811201"><ele>332.0</ele><time>2026-04-19T13:47:29Z</time></trkpt><trkpt lat="44.49727763121515" lon="8.359602875512538"><ele>333.0</ele><time>2026-04-19T13:47:30Z</time></trkpt><trkpt lat="44.49729751546342" lon="8.359699610455474"><ele>334.0</ele><time>2026-04-19T13:47:31Z</time></trkpt><trkpt lat="44.497330255560115" lon="8.359808311134719"><ele>335.0</ele><time>2026-04-19T13:47:32Z</time></trkpt><trkpt lat="44.49738586831487" lon="8.35989756141376"><ele>336.0</ele><time>2026-04-19T13:47:33Z</time></trkpt><trkpt lat="44.49744917904684" lon="8.359980397922143"><ele>337.0</ele><time>2026-04-19T13:47:34Z</time></trkpt><trkpt lat="44.497521190603756" lon="8.360021211816695"><ele>339.0</ele><time>2026-04-19T13:47:35Z</time></trkpt><trkpt lat="44.497608956219096" lon="8.360041319989653"><ele>341.0</ele><time>2026-04-19T13:47:36Z</time></trkpt><trkpt lat="44.497710126770805" lon="8.360043634307907"><ele>343.0</ele><time>2026-04-19T13:47:37Z</time></trkpt><trkpt lat="44.49782976134173" lon="8.360038779724611"><ele>345.0</ele><time>2026-04-19T13:47:38Z</time></trkpt><trkpt lat="44.49795581553869" lon="8.360037192050347"><ele>347.0</ele><time>2026-04-19T13:47:39Z</time></trkpt><trkpt lat="44.498054025513" lon="8.360027843886481"><ele>347.83333333333337</ele><time>2026-04-19T13:47:40Z</time></trkpt><trkpt lat="44.49812508444566" lon="8.360011838612346"><ele>348.6666666666667</ele><time>2026-04-19T13:47:41Z</time></trkpt><trkpt lat="44.49819562589183" lon="8.360071669006624"><ele>349.5</ele><time>2026-04-19T13:47:43Z</time></trkpt><trkpt lat="44.498145616978285" lon="8.36019254345166"><ele>350.3333333333333</ele><time>2026-04-19T13:47:45Z</time></trkpt><trkpt lat="44.49808067280903" lon="8.360237203520779"><ele>351.16666666666663</ele><time>2026-04-19T13:47:46Z</time></trkpt><trkpt lat="44.49801039084864" lon="8.360321509431627"><ele>352.0</ele><time>2026-04-19T13:47:47Z</time></trkpt><trkpt lat="44.49792618141036" lon="8.360443836176731"><ele>354.0</ele><time>2026-04-19T13:47:48Z</time></trkpt><trkpt lat="44.497822423135815" lon="8.360554981258105"><ele>356.0</ele><time>2026-04-19T13:47:49Z</time></trkpt><trkpt lat="44.49774363531554" lon="8.360641709076612"><ele>358.0</ele><time>2026-04-19T13:47:50Z</time></trkpt><trkpt lat="44.4976641223071" lon="8.360692490468667"><ele>360.0</ele><time>2026-04-19T13:47:51Z</time></trkpt><trkpt lat="44.49758326097402" lon="8.360761852236935"><ele>362.0</ele><time>2026-04-19T13:47:52Z</time></trkpt><trkpt lat="44.49748735034844" lon="8.360838040476283"><ele>362.0</ele><time>2026-04-19T13:47:53Z</time></trkpt><trkpt lat="44.497381889629075" lon="8.360943776704453"><ele>362.0</ele><time>2026-04-19T13:47:54Z</time></trkpt><trkpt lat="44.49726828086677" lon="8.361049614075386"><ele>362.0</ele><time>2026-04-19T13:47:55Z</time></trkpt><trkpt lat="44.49713783873312" lon="8.361168304162092"><ele>362.0</ele><time>2026-04-19T13:47:56Z</time></trkpt><trkpt lat="44.49702550996391" lon="8.36132302540629"><ele>361.25</ele><time>2026-04-19T13:47:57Z</time></trkpt><trkpt lat="44.496928874608415" lon="8.361454094990002"><ele>360.5</ele><time>2026-04-19T13:47:58Z</time></trkpt><trkpt lat="44.496846493637314" lon="8.361582565562701"><ele>359.75</ele><time>2026-04-19T13:47:59Z</time></trkpt><trkpt lat="44.49678393837711" lon="8.36171372205018"><ele>359.0</ele><time>2026-04-19T13:48:00Z</time></trkpt><trkpt lat="44.49674772578495" lon="8.361842956903649"><ele>359.0</ele><time>2026-04-19T13:48:01Z</time></trkpt><trkpt lat="44.49676711970655" lon="8.361962646958942"><ele>359.0</ele><time>2026-04-19T13:48:02Z</time></trkpt><trkpt lat="44.49679701164657" lon="8.362089341237395"><ele>359.0</ele><time>2026-04-19T13:48:03Z</time></trkpt><trkpt lat="44.4968414430834" lon="8.362234597710694"><ele>359.0</ele><time>2026-04-19T13:48:04Z</time></trkpt><trkpt lat="44.496868559250764" lon="8.362403218376812"><ele>359.0</ele><time>2026-04-19T13:48:05Z</time></trkpt><trkpt lat="44.49687103370096" lon="8.362540275466829"><ele>359.6</ele><time>2026-04-19T13:48:06Z</time></trkpt><trkpt lat="44.49688974719282" lon="8.362636913198031"><ele>360.2</ele><time>2026-04-19T13:48:07Z</time></trkpt><trkpt lat="44.49698750338576" lon="8.362703483049977"><ele>360.8</ele><time>2026-04-19T13:48:09Z</time></trkpt><trkpt lat="44.49707506260731" lon="8.362565061619277"><ele>361.40000000000003</ele><time>2026-04-19T13:48:11Z</time></trkpt><trkpt lat="44.4970855332314" lon="8.362435481660036"><ele>362.0</ele><time>2026-04-19T13:48:12Z</time></trkpt><trkpt lat="44.49711276328847" lon="8.362291241686739"><ele>365.75</ele><time>2026-04-19T13:48:13Z</time></trkpt><trkpt lat="44.49717184315802" lon="8.36213539328965"><ele>369.5</ele><time>2026-04-19T13:48:14Z</time></trkpt><trkpt lat="44.49725043740457" lon="8.361984097174206"><ele>373.25</ele><time>2026-04-19T13:48:15Z</time></trkpt><trkpt lat="44.497341805542874" lon="8.361865557165876"><ele>377.0</ele><time>2026-04-19T13:48:16Z</time></trkpt><trkpt lat="44.49742608070265" lon="8.361777758515421"><ele>377.0</ele><time>2026-04-19T13:48:17Z</time></trkpt><trkpt lat="44.497488086583196" lon="8.361736183975866"><ele>377.0</ele><time>2026-04-19T13:48:18Z</time></trkpt><trkpt lat="44.497580191459484" lon="8.361775906381759"><ele>377.0</ele><time>2026-04-19T13:48:20Z</time></trkpt><trkpt lat="44.49754450341842" lon="8.361897261974969"><ele>377.0</ele><time>2026-04-19T13:48:23Z</time></trkpt><trkpt lat="44.49750408667334" lon="8.361994684076851"><ele>377.0</ele><time>2026-04-19T13:48:24Z</time></trkpt><trkpt lat="44.497470765064776" lon="8.362132902026419"><ele>377.0</ele><time>2026-04-19T13:48:25Z</time></trkpt><trkpt lat="44.49745564619964" lon="8.362302990394879"><ele>378.0</ele><time>2026-04-19T13:48:26Z</time></trkpt><trkpt lat="44.497448705567656" lon="8.362467979363247"><ele>379.0</ele><time>2026-04-19T13:48:27Z</time></trkpt><trkpt lat="44.49746059022901" lon="8.362625325121018"><ele>380.0</ele><time>2026-04-19T13:48:28Z</time></trkpt><trkpt lat="44.49749818879401" lon="8.362766692228616"><ele>381.0</ele><time>2026-04-19T13:48:29Z</time></trkpt><trkpt lat="44.49755293166267" lon="8.362869092375094"><ele>382.0</ele><time>2026-04-19T13:48:30Z</time></trkpt><trkpt lat="44.497622894935304" lon="8.362941972183041"><ele>382.0</ele><time>2026-04-19T13:48:31Z</time></trkpt><trkpt lat="44.49772126466506" lon="8.362978002701531"><ele>382.0</ele><time>2026-04-19T13:48:32Z</time></trkpt><trkpt lat="44.497845765693235" lon="8.36299803372536"><ele>382.0</ele><time>2026-04-19T13:48:33Z</time></trkpt><trkpt lat="44.497987478004134" lon="8.363024179983537"><ele>382.0</ele><time>2026-04-19T13:48:34Z</time></trkpt><trkpt lat="44.4981322166428" lon="8.363086181720185"><ele>383.0</ele><time>2026-04-19T13:48:35Z</time></trkpt><trkpt lat="44.4982567066536" lon="8.363133010083066"><ele>384.0</ele><time>2026-04-19T13:48:36Z</time></trkpt><trkpt lat="44.49836512528834" lon="8.363183583852372"><ele>385.0</ele><time>2026-04-19T13:48:37Z</time></trkpt><trkpt lat="44.49848235466496" lon="8.363183917060924"><ele>386.0</ele><time>2026-04-19T13:48:38Z</time></trkpt><trkpt lat="44.498626099462136" lon="8.363158793939673"><ele>388.0</ele><time>2026-04-19T13:48:39Z</time></trkpt><trkpt lat="44.49878296109989" lon="8.363110961900531"><ele>390.0</ele><time>2026-04-19T13:48:40Z</time></trkpt><trkpt lat="44.4989156077719" lon="8.363106745829352"><ele>392.0</ele><time>2026-04-19T13:48:41Z</time></trkpt><trkpt lat="44.499006878421945" lon="8.363160069180372"><ele>394.0</ele><time>2026-04-19T13:48:42Z</time></trkpt><trkpt lat="44.49907728255779" lon="8.36320488041925"><ele>394.0</ele><time>2026-04-19T13:48:43Z</time></trkpt><trkpt lat="44.49911937796884" lon="8.363277087032872"><ele>394.0</ele><time>2026-04-19T13:48:44Z</time></trkpt><trkpt lat="44.499089008483" lon="8.363419207552647"><ele>394.0</ele><time>2026-04-19T13:48:45Z</time></trkpt><trkpt lat="44.4991183935864" lon="8.36355975782399"><ele>394.0</ele><time>2026-04-19T13:48:46Z</time></trkpt><trkpt lat="44.49917077442765" lon="8.36370412974092"><ele>394.0</ele><time>2026-04-19T13:48:47Z</time></trkpt><trkpt lat="44.499232912386915" lon="8.363872555300125"><ele>394.6666666666667</ele><time>2026-04-19T13:48:48Z</time></trkpt><trkpt lat="44.49930179859176" lon="8.364072666990994"><ele>395.33333333333337</ele><time>2026-04-19T13:48:49Z</time></trkpt><trkpt lat="44.499376218395035" lon="8.364297654097204"><ele>396.0</ele><time>2026-04-19T13:48:50Z</time></trkpt><trkpt lat="44.49945600725302" lon="8.36452718985073"><ele>397.4</ele><time>2026-04-19T13:48:51Z</time></trkpt><trkpt lat="44.49952480451822" lon="8.364715720644181"><ele>398.8</ele><time>2026-04-19T13:48:52Z</time></trkpt><trkpt lat="44.4995802870038" lon="8.36486250082523"><ele>400.2</ele><time>2026-04-19T13:48:53Z</time></trkpt><trkpt lat="44.49961216134575" lon="8.364978410199937"><ele>401.59999999999997</ele><time>2026-04-19T13:48:54Z</time></trkpt><trkpt lat="44.49962718785162" lon="8.365074000109269"><ele>403.0</ele><time>2026-04-19T13:48:55Z</time></trkpt><trkpt lat="44.49960748661078" lon="8.365159036565654"><ele>403.0</ele><time>2026-04-19T13:48:56Z</time></trkpt><trkpt lat="44.499560103882395" lon="8.365220484332959"><ele>403.0</ele><time>2026-04-19T13:48:57Z</time></trkpt><trkpt lat="44.49944963200084" lon="8.36533186957902"><ele>403.0</ele><time>2026-04-19T13:48:59Z</time></trkpt><trkpt lat="44.49937175866906" lon="8.365402370045027"><ele>403.0</ele><time>2026-04-19T13:49:00Z</time></trkpt><trkpt lat="44.499292187779936" lon="8.365461760333325"><ele>403.0</ele><time>2026-04-19T13:49:01Z</time></trkpt><trkpt lat="44.4992159603275" lon="8.365494382374314"><ele>403.0</ele><time>2026-04-19T13:49:02Z</time></trkpt><trkpt lat="44.4991364221155" lon="8.365464699691355"><ele>403.0</ele><time>2026-04-19T13:49:03Z</time></trkpt><trkpt lat="44.49903066244371" lon="8.365435828313812"><ele>403.0</ele><time>2026-04-19T13:49:04Z</time></trkpt><trkpt lat="44.49891107016757" lon="8.365391321894434"><ele>403.0</ele><time>2026-04-19T13:49:05Z</time></trkpt><trkpt lat="44.498792370159464" lon="8.365320718704842"><ele>403.0</ele><time>2026-04-19T13:49:06Z</time></trkpt><trkpt lat="44.49867269685891" lon="8.365217950523002"><ele>405.0</ele><time>2026-04-19T13:49:07Z</time></trkpt><trkpt lat="44.498550853793866" lon="8.36510078035969"><ele>407.0</ele><time>2026-04-19T13:49:08Z</time></trkpt><trkpt lat="44.49845230020483" lon="8.365002691435466"><ele>409.0</ele><time>2026-04-19T13:49:09Z</time></trkpt><trkpt lat="44.498373322909416" lon="8.364917441547382"><ele>411.0</ele><time>2026-04-19T13:49:10Z</time></trkpt><trkpt lat="44.49830493540749" lon="8.364867168904182"><ele>413.0</ele><time>2026-04-19T13:49:11Z</time></trkpt><trkpt lat="44.49818152224301" lon="8.364869108462118"><ele>413.0</ele><time>2026-04-19T13:49:13Z</time></trkpt><trkpt lat="44.49812944693989" lon="8.364939171612008"><ele>413.0</ele><time>2026-04-19T13:49:14Z</time></trkpt><trkpt lat="44.49812364921337" lon="8.365074195603965"><ele>413.0</ele><time>2026-04-19T13:49:15Z</time></trkpt><trkpt lat="44.49820292235997" lon="8.365196116698963"><ele>413.0</ele><time>2026-04-19T13:49:16Z</time></trkpt><trkpt lat="44.49826091189038" lon="8.365308425291781"><ele>413.0</ele><time>2026-04-19T13:49:17Z</time></trkpt><trkpt lat="44.498316666259534" lon="8.365446209438753"><ele>415.0</ele><time>2026-04-19T13:49:18Z</time></trkpt><trkpt lat="44.498367122788856" lon="8.365606076862655"><ele>417.0</ele><time>2026-04-19T13:49:19Z</time></trkpt><trkpt lat="44.4984038328751" lon="8.36579402368169"><ele>419.0</ele><time>2026-04-19T13:49:20Z</time></trkpt><trkpt lat="44.498460196031154" lon="8.365974363224034"><ele>421.0</ele><time>2026-04-19T13:49:21Z</time></trkpt><trkpt lat="44.49849821861023" lon="8.366129801293427"><ele>421.0</ele><time>2026-04-19T13:49:22Z</time></trkpt><trkpt lat="44.498563383312" lon="8.366262389591897"><ele>421.0</ele><time>2026-04-19T13:49:23Z</time></trkpt><trkpt lat="44.49865978657817" lon="8.366381270967754"><ele>421.0</ele><time>2026-04-19T13:49:24Z</time></trkpt><trkpt lat="44.49878227838208" lon="8.3664856556165"><ele>421.0</ele><time>2026-04-19T13:49:25Z</time></trkpt><trkpt lat="44.49890533246741" lon="8.366625853709719"><ele>423.0</ele><time>2026-04-19T13:49:26Z</time></trkpt><trkpt lat="44.49904673529185" lon="8.366753400721452"><ele>425.0</ele><time>2026-04-19T13:49:27Z</time></trkpt><trkpt lat="44.49917537220511" lon="8.366901161170555"><ele>427.0</ele><time>2026-04-19T13:49:28Z</time></trkpt><trkpt lat="44.49930221133968" lon="8.367084287076423"><ele>426.33333333333337</ele><time>2026-04-19T13:49:29Z</time></trkpt><trkpt lat="44.49943007869611" lon="8.367292436562364"><ele>425.66666666666663</ele><time>2026-04-19T13:49:30Z</time></trkpt><trkpt lat="44.499565348341775" lon="8.36751382443035"><ele>425.0</ele><time>2026-04-19T13:49:31Z</time></trkpt><trkpt lat="44.49971437589678" lon="8.36771772695135"><ele>427.66666666666663</ele><time>2026-04-19T13:49:32Z</time></trkpt><trkpt lat="44.499833343399004" lon="8.367919191322093"><ele>430.33333333333337</ele><time>2026-04-19T13:49:33Z</time></trkpt><trkpt lat="44.49993674407781" lon="8.368098806301903"><ele>433.0</ele><time>2026-04-19T13:49:34Z</time></trkpt><trkpt lat="44.50001977709781" lon="8.368276145368293"><ele>435.6666666666667</ele><time>2026-04-19T13:49:35Z</time></trkpt><trkpt lat="44.50012138139501" lon="8.368419832999688"><ele>438.33333333333337</ele><time>2026-04-19T13:49:36Z</time></trkpt><trkpt lat="44.500222257338656" lon="8.36858103001098"><ele>441.0</ele><time>2026-04-19T13:49:37Z</time></trkpt><trkpt lat="44.50033750857584" lon="8.368742861355527"><ele>444.66666666666663</ele><time>2026-04-19T13:49:38Z</time></trkpt><trkpt lat="44.500466767357295" lon="8.368895288557741"><ele>448.3333333333333</ele><time>2026-04-19T13:49:39Z</time></trkpt><trkpt lat="44.50060621131314" lon="8.369040955349153"><ele>452.0</ele><time>2026-04-19T13:49:40Z</time></trkpt><trkpt lat="44.50075908946056" lon="8.369181820864895"><ele>452.0</ele><time>2026-04-19T13:49:41Z</time></trkpt><trkpt lat="44.500908345140495" lon="8.369332510098685"><ele>452.0</ele><time>2026-04-19T13:49:42Z</time></trkpt><trkpt lat="44.501066110377316" lon="8.36945358363109"><ele>452.0</ele><time>2026-04-19T13:49:43Z</time></trkpt><trkpt lat="44.50120665005873" lon="8.369570662592954"><ele>452.25</ele><time>2026-04-19T13:49:44Z</time></trkpt><trkpt lat="44.50132611871279" lon="8.369691549991998"><ele>452.5</ele><time>2026-04-19T13:49:45Z</time></trkpt><trkpt lat="44.50143298745293" lon="8.369816307126316"><ele>452.75</ele><time>2026-04-19T13:49:46Z</time></trkpt><trkpt lat="44.501542729221036" lon="8.369931324677754"><ele>453.0</ele><time>2026-04-19T13:49:47Z</time></trkpt><trkpt lat="44.50159820867574" lon="8.3700799042017"><ele>453.0</ele><time>2026-04-19T13:49:48Z</time></trkpt><trkpt lat="44.50162137213407" lon="8.370214700921006"><ele>453.0</ele><time>2026-04-19T13:49:49Z</time></trkpt><trkpt lat="44.50164543662865" lon="8.370379580231596"><ele>453.0</ele><time>2026-04-19T13:49:50Z</time></trkpt><trkpt lat="44.50167124289544" lon="8.37057773051467"><ele>453.0</ele><time>2026-04-19T13:49:51Z</time></trkpt><trkpt lat="44.50169959272916" lon="8.370806908948774"><ele>452.66666666666663</ele><time>2026-04-19T13:49:52Z</time></trkpt><trkpt lat="44.50171238174839" lon="8.371050880792268"><ele>452.3333333333333</ele><time>2026-04-19T13:49:53Z</time></trkpt><trkpt lat="44.50170719078508" lon="8.371269741021083"><ele>452.0</ele><time>2026-04-19T13:49:54Z</time></trkpt><trkpt lat="44.501701652835365" lon="8.371468164391214"><ele>453.25</ele><time>2026-04-19T13:49:55Z</time></trkpt><trkpt lat="44.5017199734104" lon="8.371652930442336"><ele>454.5</ele><time>2026-04-19T13:49:56Z</time></trkpt><trkpt lat="44.501737724787084" lon="8.371845921454135"><ele>455.75</ele><time>2026-04-19T13:49:57Z</time></trkpt><trkpt lat="44.5017853408701" lon="8.372059753859402"><ele>457.0</ele><time>2026-04-19T13:49:58Z</time></trkpt><trkpt lat="44.50184888381083" lon="8.372273780406811"><ele>457.25</ele><time>2026-04-19T13:49:59Z</time></trkpt><trkpt lat="44.50190423631862" lon="8.372462774749327"><ele>457.5</ele><time>2026-04-19T13:50:00Z</time></trkpt><trkpt lat="44.50197530492438" lon="8.372622807192519"><ele>457.75</ele><time>2026-04-19T13:50:01Z</time></trkpt><trkpt lat="44.50207423846516" lon="8.372790321283546"><ele>458.0</ele><time>2026-04-19T13:50:02Z</time></trkpt><trkpt lat="44.50218658009053" lon="8.372989422722616"><ele>459.3333333333333</ele><time>2026-04-19T13:50:03Z</time></trkpt><trkpt lat="44.50230221235306" lon="8.37317289791599"><ele>460.66666666666663</ele><time>2026-04-19T13:50:04Z</time></trkpt><trkpt lat="44.50241600419234" lon="8.373317026852531"><ele>462.0</ele><time>2026-04-19T13:50:05Z</time></trkpt><trkpt lat="44.502488427757335" lon="8.373488454999343"><ele>462.0</ele><time>2026-04-19T13:50:06Z</time></trkpt><trkpt lat="44.50256196511532" lon="8.373663131169987"><ele>462.0</ele><time>2026-04-19T13:50:07Z</time></trkpt><trkpt lat="44.502635896530975" lon="8.373867257053986"><ele>462.0</ele><time>2026-04-19T13:50:08Z</time></trkpt><trkpt lat="44.502723692935405" lon="8.374083747046058"><ele>461.66666666666663</ele><time>2026-04-19T13:50:09Z</time></trkpt><trkpt lat="44.502820103572034" lon="8.37429110799001"><ele>461.3333333333333</ele><time>2026-04-19T13:50:10Z</time></trkpt><trkpt lat="44.50289294085606" lon="8.374492047338727"><ele>461.0</ele><time>2026-04-19T13:50:11Z</time></trkpt><trkpt lat="44.50296195471073" lon="8.374678509910842"><ele>462.5</ele><time>2026-04-19T13:50:12Z</time></trkpt><trkpt lat="44.503025533709604" lon="8.374841807570222"><ele>464.0</ele><time>2026-04-19T13:50:13Z</time></trkpt><trkpt lat="44.50308042345197" lon="8.374996478200972"><ele>465.5</ele><time>2026-04-19T13:50:14Z</time></trkpt><trkpt lat="44.503186603405425" lon="8.375102100115154"><ele>467.0</ele><time>2026-04-19T13:50:15Z</time></trkpt><trkpt lat="44.503305439770294" lon="8.375207211344417"><ele>467.0</ele><time>2026-04-19T13:50:16Z</time></trkpt><trkpt lat="44.503442696141356" lon="8.375308650699537"><ele>467.0</ele><time>2026-04-19T13:50:17Z</time></trkpt><trkpt lat="44.50358039073319" lon="8.375445844738595"><ele>467.0</ele><time>2026-04-19T13:50:18Z</time></trkpt><trkpt lat="44.50373587976407" lon="8.375549119172142"><ele>467.0</ele><time>2026-04-19T13:50:19Z</time></trkpt><trkpt lat="44.50387781763425" lon="8.375624466431024"><ele>467.00000000000006</ele><time>2026-04-19T13:50:20Z</time></trkpt><trkpt lat="44.50399887198748" lon="8.37568374176547"><ele>467.00000000000006</ele><time>2026-04-19T13:50:21Z</time></trkpt><trkpt lat="44.50407768196474" lon="8.37574533328065"><ele>467.0</ele><time>2026-04-19T13:50:22Z</time></trkpt><trkpt lat="44.50412456241582" lon="8.375833867271314"><ele>467.0</ele><time>2026-04-19T13:50:23Z</time></trkpt><trkpt lat="44.50416148346164" lon="8.375960770396873"><ele>467.0</ele><time>2026-04-19T13:50:24Z</time></trkpt><trkpt lat="44.50421535362789" lon="8.376121310114984"><ele>467.0</ele><time>2026-04-19T13:50:25Z</time></trkpt><trkpt lat="44.50427715414133" lon="8.376320968389873"><ele>467.0</ele><time>2026-04-19T13:50:26Z</time></trkpt><trkpt lat="44.50431757274786" lon="8.376494309453733"><ele>467.0</ele><time>2026-04-19T13:50:27Z</time></trkpt><trkpt lat="44.50432000957507" lon="8.3766311686531"><ele>468.75</ele><time>2026-04-19T13:50:28Z</time></trkpt><trkpt lat="44.50431670377525" lon="8.376769369489436"><ele>470.5</ele><time>2026-04-19T13:50:29Z</time></trkpt><trkpt lat="44.50428925223147" lon="8.376937272581944"><ele>472.25</ele><time>2026-04-19T13:50:30Z</time></trkpt><trkpt lat="44.5042483627835" lon="8.377115396257103"><ele>474.0</ele><time>2026-04-19T13:50:31Z</time></trkpt><trkpt lat="44.50422149989458" lon="8.377271980602211"><ele>474.4</ele><time>2026-04-19T13:50:32Z</time></trkpt><trkpt lat="44.5042314626905" lon="8.377406957169969"><ele>474.79999999999995</ele><time>2026-04-19T13:50:33Z</time></trkpt><trkpt lat="44.50424724478924" lon="8.377533550348842"><ele>475.20000000000005</ele><time>2026-04-19T13:50:34Z</time></trkpt><trkpt lat="44.50429270358445" lon="8.377670558317275"><ele>475.6</ele><time>2026-04-19T13:50:35Z</time></trkpt><trkpt lat="44.504356824375584" lon="8.377828212152053"><ele>476.0</ele><time>2026-04-19T13:50:36Z</time></trkpt><trkpt lat="44.50439345271185" lon="8.378017144299582"><ele>476.0</ele><time>2026-04-19T13:50:37Z</time></trkpt><trkpt lat="44.504444244364336" lon="8.37820745098184"><ele>476.0</ele><time>2026-04-19T13:50:38Z</time></trkpt><trkpt lat="44.50448063490008" lon="8.37838889241046"><ele>476.0</ele><time>2026-04-19T13:50:39Z</time></trkpt><trkpt lat="44.50449428084253" lon="8.3785543455127"><ele>476.0</ele><time>2026-04-19T13:50:40Z</time></trkpt><trkpt lat="44.50451412051522" lon="8.378741309376085"><ele>474.75</ele><time>2026-04-19T13:50:41Z</time></trkpt><trkpt lat="44.50454845358615" lon="8.378944269120016"><ele>473.5</ele><time>2026-04-19T13:50:42Z</time></trkpt><trkpt lat="44.50460103954533" lon="8.379115436541474"><ele>472.25</ele><time>2026-04-19T13:50:43Z</time></trkpt><trkpt lat="44.504631615427535" lon="8.379253681166254"><ele>471.0</ele><time>2026-04-19T13:50:44Z</time></trkpt><trkpt lat="44.50468175877407" lon="8.379375978469435"><ele>470.0</ele><time>2026-04-19T13:50:45Z</time></trkpt><trkpt lat="44.504716138614405" lon="8.379532198986663"><ele>469.0</ele><time>2026-04-19T13:50:46Z</time></trkpt><trkpt lat="44.50476583874536" lon="8.379704355791675"><ele>468.0</ele><time>2026-04-19T13:50:47Z</time></trkpt><trkpt lat="44.50480725932167" lon="8.379885333847405"><ele>467.0</ele><time>2026-04-19T13:50:48Z</time></trkpt><trkpt lat="44.504875032831784" lon="8.380069408342738"><ele>467.0</ele><time>2026-04-19T13:50:49Z</time></trkpt><trkpt lat="44.50495253194653" lon="8.38021666115163"><ele>467.00000000000006</ele><time>2026-04-19T13:50:50Z</time></trkpt><trkpt lat="44.50501784814935" lon="8.380339304882744"><ele>467.00000000000006</ele><time>2026-04-19T13:50:51Z</time></trkpt><trkpt lat="44.50505702681568" lon="8.380437844299694"><ele>467.0</ele><time>2026-04-19T13:50:52Z</time></trkpt><trkpt lat="44.505057390167885" lon="8.38056140152291"><ele>467.0</ele><time>2026-04-19T13:50:54Z</time></trkpt><trkpt lat="44.50496146886773" lon="8.380677693253089"><ele>466.20000000000005</ele><time>2026-04-19T13:50:56Z</time></trkpt><trkpt lat="44.50487757848288" lon="8.380755862246463"><ele>465.40000000000003</ele><time>2026-04-19T13:50:57Z</time></trkpt><trkpt lat="44.50478966908309" lon="8.380854584086581"><ele>464.59999999999997</ele><time>2026-04-19T13:50:58Z</time></trkpt><trkpt lat="44.50471614987572" lon="8.38095633944771"><ele>463.79999999999995</ele><time>2026-04-19T13:50:59Z</time></trkpt><trkpt lat="44.5046542156269" lon="8.381058771404708"><ele>463.0</ele><time>2026-04-19T13:51:00Z</time></trkpt><trkpt lat="44.50460236245309" lon="8.38117766854052"><ele>461.59999999999997</ele><time>2026-04-19T13:51:01Z</time></trkpt><trkpt lat="44.504569503059955" lon="8.381303568418593"><ele>460.19999999999993</ele><time>2026-04-19T13:51:02Z</time></trkpt><trkpt lat="44.50454555322946" lon="8.381438631839828"><ele>458.8</ele><time>2026-04-19T13:51:03Z</time></trkpt><trkpt lat="44.504541639215766" lon="8.38158591388517"><ele>457.4</ele><time>2026-04-19T13:51:04Z</time></trkpt><trkpt lat="44.50457122986632" lon="8.381710998000697"><ele>456.0</ele><time>2026-04-19T13:51:05Z</time></trkpt><trkpt lat="44.50462460762691" lon="8.381808437667305"><ele>455.8</ele><time>2026-04-19T13:51:06Z</time></trkpt><trkpt lat="44.50470740090226" lon="8.381864485813587"><ele>455.6</ele><time>2026-04-19T13:51:07Z</time></trkpt><trkpt lat="44.50476825959949" lon="8.381969367382865"><ele>455.4</ele><time>2026-04-19T13:51:08Z</time></trkpt><trkpt lat="44.50483284767797" lon="8.382090938296844"><ele>455.2</ele><time>2026-04-19T13:51:09Z</time></trkpt><trkpt lat="44.5049084321402" lon="8.38222630231423"><ele>455.0</ele><time>2026-04-19T13:51:10Z</time></trkpt><trkpt lat="44.50498432083883" lon="8.382357210672382"><ele>455.0</ele><time>2026-04-19T13:51:11Z</time></trkpt><trkpt lat="44.50507059325718" lon="8.382478540850823"><ele>455.0</ele><time>2026-04-19T13:51:12Z</time></trkpt><trkpt lat="44.50516419280834" lon="8.382588975179806"><ele>455.0</ele><time>2026-04-19T13:51:13Z</time></trkpt><trkpt lat="44.50527068614683" lon="8.382688767952745"><ele>455.0</ele><time>2026-04-19T13:51:14Z</time></trkpt><trkpt lat="44.50535519069336" lon="8.382762373985152"><ele>454.99999999999994</ele><time>2026-04-19T13:51:15Z</time></trkpt><trkpt lat="44.50540541789944" lon="8.382848157782329"><ele>455.0</ele><time>2026-04-19T13:51:16Z</time></trkpt><trkpt lat="44.50543418004084" lon="8.382944631249526"><ele>455.0</ele><time>2026-04-19T13:51:17Z</time></trkpt><trkpt lat="44.50545454692399" lon="8.383047228198667"><ele>455.0</ele><time>2026-04-19T13:51:18Z</time></trkpt><trkpt lat="44.50547560336094" lon="8.383159103284173"><ele>454.99999999999994</ele><time>2026-04-19T13:51:19Z</time></trkpt><trkpt lat="44.50552166223711" lon="8.383257050621895"><ele>455.0</ele><time>2026-04-19T13:51:20Z</time></trkpt><trkpt lat="44.50555393001846" lon="8.383373656123556"><ele>451.25</ele><time>2026-04-19T13:51:21Z</time></trkpt><trkpt lat="44.50562507843012" lon="8.383476338619822"><ele>447.5</ele><time>2026-04-19T13:51:22Z</time></trkpt><trkpt lat="44.5057221124702" lon="8.383580965562116"><ele>443.75</ele><time>2026-04-19T13:51:23Z</time></trkpt><trkpt lat="44.50584610408749" lon="8.383642156629742"><ele>440.0</ele><time>2026-04-19T13:51:24Z</time></trkpt><trkpt lat="44.505924938242856" lon="8.383759763861592"><ele>440.0</ele><time>2026-04-19T13:51:25Z</time></trkpt><trkpt lat="44.50600020805322" lon="8.383880562568926"><ele>440.0</ele><time>2026-04-19T13:51:26Z</time></trkpt><trkpt lat="44.5060673958014" lon="8.384008333117135"><ele>440.0</ele><time>2026-04-19T13:51:27Z</time></trkpt><trkpt lat="44.50615776235482" lon="8.384109883449238"><ele>440.0</ele><time>2026-04-19T13:51:28Z</time></trkpt><trkpt lat="44.50622273385818" lon="8.38424998331252"><ele>440.4</ele><time>2026-04-19T13:51:29Z</time></trkpt><trkpt lat="44.5062526344965" lon="8.384377688900967"><ele>440.8</ele><time>2026-04-19T13:51:30Z</time></trkpt><trkpt lat="44.5062791227945" lon="8.384510986406502"><ele>441.20000000000005</ele><time>2026-04-19T13:51:31Z</time></trkpt><trkpt lat="44.50631241486853" lon="8.384656814077161"><ele>441.6</ele><time>2026-04-19T13:51:32Z</time></trkpt><trkpt lat="44.506381082112966" lon="8.384804972104746"><ele>442.0</ele><time>2026-04-19T13:51:33Z</time></trkpt><trkpt lat="44.506453892384094" lon="8.384966875539032"><ele>442.0</ele><time>2026-04-19T13:51:34Z</time></trkpt><trkpt lat="44.50656223876318" lon="8.385101155828366"><ele>442.0</ele><time>2026-04-19T13:51:35Z</time></trkpt><trkpt lat="44.506687815403744" lon="8.385220630115256"><ele>442.0</ele><time>2026-04-19T13:51:36Z</time></trkpt><trkpt lat="44.50683273335455" lon="8.38531966066583"><ele>442.0</ele><time>2026-04-19T13:51:37Z</time></trkpt><trkpt lat="44.50698754713671" lon="8.385391062838123"><ele>442.0</ele><time>2026-04-19T13:51:38Z</time></trkpt><trkpt lat="44.507122128589955" lon="8.385437066263735"><ele>442.0</ele><time>2026-04-19T13:51:39Z</time></trkpt><trkpt lat="44.50725045820301" lon="8.385491816446558"><ele>442.0</ele><time>2026-04-19T13:51:40.001Z</time></trkpt><trkpt lat="44.50738818114748" lon="8.385558612767861"><ele>443.25</ele><time>2026-04-19T13:51:41.001Z</time></trkpt><trkpt lat="44.50751389083424" lon="8.385636455874602"><ele>444.5</ele><time>2026-04-19T13:51:42.001Z</time></trkpt><trkpt lat="44.50759794914749" lon="8.385776225267923"><ele>445.75</ele><time>2026-04-19T13:51:43.001Z</time></trkpt><trkpt lat="44.50765949128211" lon="8.385915552564617"><ele>447.0</ele><time>2026-04-19T13:51:44.001Z</time></trkpt><trkpt lat="44.50771601910689" lon="8.386077466590894"><ele>447.0</ele><time>2026-04-19T13:51:45.001Z</time></trkpt><trkpt lat="44.50778296737587" lon="8.386230248992982"><ele>447.0</ele><time>2026-04-19T13:51:46.001Z</time></trkpt><trkpt lat="44.507863433593364" lon="8.386365878616985"><ele>447.0</ele><time>2026-04-19T13:51:47.001Z</time></trkpt><trkpt lat="44.507939586277615" lon="8.386455553618308"><ele>447.0</ele><time>2026-04-19T13:51:48.001Z</time></trkpt><trkpt lat="44.50803956225243" lon="8.38652090037105"><ele>448.25</ele><time>2026-04-19T13:51:49.001Z</time></trkpt><trkpt lat="44.50815827304621" lon="8.386601743527871"><ele>449.5</ele><time>2026-04-19T13:51:50.001Z</time></trkpt><trkpt lat="44.50828496538827" lon="8.386669613161645"><ele>450.75</ele><time>2026-04-19T13:51:51.001Z</time></trkpt><trkpt lat="44.50840002729753" lon="8.38671566312297"><ele>452.0</ele><time>2026-04-19T13:51:52.001Z</time></trkpt><trkpt lat="44.50848605259834" lon="8.386768286548712"><ele>452.0</ele><time>2026-04-19T13:51:53.001Z</time></trkpt><trkpt lat="44.50853165664465" lon="8.386870186818868"><ele>452.00000000000006</ele><time>2026-04-19T13:51:54.001Z</time></trkpt><trkpt lat="44.508582358462974" lon="8.386953047392149"><ele>452.00000000000006</ele><time>2026-04-19T13:51:55.001Z</time></trkpt><trkpt lat="44.508634862378905" lon="8.38706033718765"><ele>452.0</ele><time>2026-04-19T13:51:56.001Z</time></trkpt><trkpt lat="44.50869878677964" lon="8.387198124608611"><ele>452.0</ele><time>2026-04-19T13:51:57.001Z</time></trkpt><trkpt lat="44.50876524322631" lon="8.387345728301682"><ele>451.25</ele><time>2026-04-19T13:51:58.001Z</time></trkpt><trkpt lat="44.50883274398349" lon="8.387493596016729"><ele>450.5</ele><time>2026-04-19T13:51:59.001Z</time></trkpt><trkpt lat="44.50891423976761" lon="8.387634332069293"><ele>449.75</ele><time>2026-04-19T13:52:00.001Z</time></trkpt><trkpt lat="44.50897475933106" lon="8.387792982452764"><ele>449.0</ele><time>2026-04-19T13:52:01.001Z</time></trkpt><trkpt lat="44.50901113216796" lon="8.387945491488107"><ele>448.79999999999995</ele><time>2026-04-19T13:52:02.001Z</time></trkpt><trkpt lat="44.50905300425128" lon="8.388064182413387"><ele>448.59999999999997</ele><time>2026-04-19T13:52:03.001Z</time></trkpt><trkpt lat="44.509084458583246" lon="8.388149610300072"><ele>448.4</ele><time>2026-04-19T13:52:04.001Z</time></trkpt><trkpt lat="44.5091265690113" lon="8.388263979103714"><ele>448.2</ele><time>2026-04-19T13:52:06.001Z</time></trkpt><trkpt lat="44.509305846508695" lon="8.388274754268007"><ele>448.0</ele><time>2026-04-19T13:52:08Z</time></trkpt><trkpt lat="44.50941582617801" lon="8.388290347804077"><ele>448.0</ele><time>2026-04-19T13:52:09Z</time></trkpt><trkpt lat="44.50952617758532" lon="8.388378003796902"><ele>448.0</ele><time>2026-04-19T13:52:10Z</time></trkpt><trkpt lat="44.50966507685818" lon="8.388489689827177"><ele>448.0</ele><time>2026-04-19T13:52:11Z</time></trkpt><trkpt lat="44.50982255409871" lon="8.388594059095523"><ele>447.25</ele><time>2026-04-19T13:52:12Z</time></trkpt><trkpt lat="44.50996049769513" lon="8.388715086049604"><ele>446.5</ele><time>2026-04-19T13:52:13Z</time></trkpt><trkpt lat="44.510078396786795" lon="8.388813633438424"><ele>445.75</ele><time>2026-04-19T13:52:14Z</time></trkpt><trkpt lat="44.51018728513347" lon="8.388875695995758"><ele>445.0</ele><time>2026-04-19T13:52:15Z</time></trkpt><trkpt lat="44.510300663585554" lon="8.38887916579891"><ele>442.33333333333337</ele><time>2026-04-19T13:52:16Z</time></trkpt><trkpt lat="44.510435754763805" lon="8.388818157633022"><ele>439.66666666666663</ele><time>2026-04-19T13:52:17Z</time></trkpt><trkpt lat="44.51059616626602" lon="8.388729468016589"><ele>437.0</ele><time>2026-04-19T13:52:18Z</time></trkpt><trkpt lat="44.5107759167206" lon="8.388652743463965"><ele>437.0</ele><time>2026-04-19T13:52:19Z</time></trkpt><trkpt lat="44.51096303888953" lon="8.388579612705096"><ele>437.0</ele><time>2026-04-19T13:52:20Z</time></trkpt><trkpt lat="44.511143110314734" lon="8.388509395197834"><ele>437.0</ele><time>2026-04-19T13:52:21Z</time></trkpt><trkpt lat="44.51130696750526" lon="8.388420179963756"><ele>437.66666666666663</ele><time>2026-04-19T13:52:22Z</time></trkpt><trkpt lat="44.51146174352481" lon="8.38828245972616"><ele>438.33333333333337</ele><time>2026-04-19T13:52:23Z</time></trkpt><trkpt lat="44.51159636741862" lon="8.388097861217682"><ele>439.0</ele><time>2026-04-19T13:52:24Z</time></trkpt><trkpt lat="44.51171463527358" lon="8.387925834029769"><ele>439.0</ele><time>2026-04-19T13:52:25Z</time></trkpt><trkpt lat="44.51181241359033" lon="8.387765675768966"><ele>439.0</ele><time>2026-04-19T13:52:26Z</time></trkpt><trkpt lat="44.51191297871397" lon="8.387640960572872"><ele>439.0</ele><time>2026-04-19T13:52:27Z</time></trkpt><trkpt lat="44.51202091258343" lon="8.387540282824087"><ele>439.0</ele><time>2026-04-19T13:52:28Z</time></trkpt><trkpt lat="44.51213964018837" lon="8.38746509768759"><ele>439.5</ele><time>2026-04-19T13:52:29Z</time></trkpt><trkpt lat="44.5122712577062" lon="8.387452353260727"><ele>440.0</ele><time>2026-04-19T13:52:30Z</time></trkpt><trkpt lat="44.51242124134309" lon="8.387430141412112"><ele>440.5</ele><time>2026-04-19T13:52:31Z</time></trkpt><trkpt lat="44.51256023850328" lon="8.387393006750136"><ele>441.0</ele><time>2026-04-19T13:52:32Z</time></trkpt><trkpt lat="44.5126760229309" lon="8.387359826092167"><ele>441.0</ele><time>2026-04-19T13:52:33Z</time></trkpt><trkpt lat="44.512755048362195" lon="8.387339495362934"><ele>441.0</ele><time>2026-04-19T13:52:34Z</time></trkpt><trkpt lat="44.51284627856858" lon="8.387323038767349"><ele>441.0</ele><time>2026-04-19T13:52:36Z</time></trkpt><trkpt lat="44.51288354384126" lon="8.387457007158051"><ele>441.0</ele><time>2026-04-19T13:52:37Z</time></trkpt><trkpt lat="44.512939312112835" lon="8.387554815837163"><ele>441.0</ele><time>2026-04-19T13:52:38Z</time></trkpt><trkpt lat="44.512984226978396" lon="8.387676974726855"><ele>439.0</ele><time>2026-04-19T13:52:39Z</time></trkpt><trkpt lat="44.51298829356464" lon="8.38782423642808"><ele>437.0</ele><time>2026-04-19T13:52:40Z</time></trkpt><trkpt lat="44.51298209199455" lon="8.387998661705648"><ele>435.0</ele><time>2026-04-19T13:52:41Z</time></trkpt><trkpt lat="44.51300879646559" lon="8.388210647767465"><ele>433.0</ele><time>2026-04-19T13:52:42Z</time></trkpt><trkpt lat="44.512978993888794" lon="8.388437602129702"><ele>433.0</ele><time>2026-04-19T13:52:43Z</time></trkpt><trkpt lat="44.51293945478445" lon="8.388653901013255"><ele>433.0</ele><time>2026-04-19T13:52:44Z</time></trkpt><trkpt lat="44.51289036477835" lon="8.388852052792268"><ele>433.0</ele><time>2026-04-19T13:52:45Z</time></trkpt><trkpt lat="44.512799397271664" lon="8.389014959610114"><ele>432.5</ele><time>2026-04-19T13:52:46Z</time></trkpt><trkpt lat="44.512765484057404" lon="8.389210061445999"><ele>432.0</ele><time>2026-04-19T13:52:47Z</time></trkpt><trkpt lat="44.512707504721405" lon="8.389386229355898"><ele>431.5</ele><time>2026-04-19T13:52:48Z</time></trkpt><trkpt lat="44.512651053364614" lon="8.38956218724019"><ele>431.0</ele><time>2026-04-19T13:52:49Z</time></trkpt><trkpt lat="44.51259757535262" lon="8.389738414289821"><ele>430.0</ele><time>2026-04-19T13:52:50Z</time></trkpt><trkpt lat="44.51252401234009" lon="8.389895487146477"><ele>429.0</ele><time>2026-04-19T13:52:51Z</time></trkpt><trkpt lat="44.512495322899056" lon="8.390064122081728"><ele>428.0</ele><time>2026-04-19T13:52:52Z</time></trkpt><trkpt lat="44.51250540873896" lon="8.390249396431656"><ele>427.0</ele><time>2026-04-19T13:52:53Z</time></trkpt><trkpt lat="44.51249410244096" lon="8.390444475106724"><ele>425.6</ele><time>2026-04-19T13:52:54Z</time></trkpt><trkpt lat="44.512494193009616" lon="8.390630973407589"><ele>424.20000000000005</ele><time>2026-04-19T13:52:55Z</time></trkpt><trkpt lat="44.51249242918035" lon="8.390810280063773"><ele>422.8</ele><time>2026-04-19T13:52:56Z</time></trkpt><trkpt lat="44.51250562493905" lon="8.390959675931711"><ele>421.4</ele><time>2026-04-19T13:52:57Z</time></trkpt><trkpt lat="44.51251401226954" lon="8.391068480337257"><ele>420.0</ele><time>2026-04-19T13:52:58Z</time></trkpt><trkpt lat="44.512533632116025" lon="8.39116322680991"><ele>420.0</ele><time>2026-04-19T13:52:59Z</time></trkpt><trkpt lat="44.51263020683633" lon="8.391201564073489"><ele>420.0</ele><time>2026-04-19T13:53:00Z</time></trkpt><trkpt lat="44.51273317481408" lon="8.391200691143018"><ele>420.0</ele><time>2026-04-19T13:53:01Z</time></trkpt><trkpt lat="44.512858069517854" lon="8.391190768183995"><ele>420.0</ele><time>2026-04-19T13:53:02Z</time></trkpt><trkpt lat="44.51297759001014" lon="8.391202103837315"><ele>420.0</ele><time>2026-04-19T13:53:03Z</time></trkpt><trkpt lat="44.51306360588837" lon="8.39124348708477"><ele>420.75</ele><time>2026-04-19T13:53:04Z</time></trkpt><trkpt lat="44.513121507063225" lon="8.391331868009816"><ele>421.5</ele><time>2026-04-19T13:53:05Z</time></trkpt><trkpt lat="44.513165863083685" lon="8.391462678604253"><ele>422.25</ele><time>2026-04-19T13:53:06Z</time></trkpt><trkpt lat="44.51316237251338" lon="8.391638236657524"><ele>423.0</ele><time>2026-04-19T13:53:07Z</time></trkpt><trkpt lat="44.5131927643426" lon="8.391850679835132"><ele>420.66666666666663</ele><time>2026-04-19T13:53:08Z</time></trkpt><trkpt lat="44.51322634219296" lon="8.392090282125453"><ele>418.3333333333333</ele><time>2026-04-19T13:53:09Z</time></trkpt><trkpt lat="44.51325613303105" lon="8.392309327341541"><ele>416.0</ele><time>2026-04-19T13:53:10Z</time></trkpt><trkpt lat="44.513281381954464" lon="8.392494977498474"><ele>414.0</ele><time>2026-04-19T13:53:11Z</time></trkpt><trkpt lat="44.5133239957391" lon="8.392640087558368"><ele>412.0</ele><time>2026-04-19T13:53:12Z</time></trkpt><trkpt lat="44.513352723352995" lon="8.392760123391962"><ele>410.0</ele><time>2026-04-19T13:53:13Z</time></trkpt><trkpt lat="44.51346486901922" lon="8.39282547925623"><ele>408.0</ele><time>2026-04-19T13:53:14Z</time></trkpt><trkpt lat="44.51360752606788" lon="8.392882588621777"><ele>406.33333333333337</ele><time>2026-04-19T13:53:15Z</time></trkpt><trkpt lat="44.5137837380028" lon="8.392930374935622"><ele>404.6666666666667</ele><time>2026-04-19T13:53:16Z</time></trkpt><trkpt lat="44.51398370147472" lon="8.39298925074065"><ele>403.0</ele><time>2026-04-19T13:53:17Z</time></trkpt><trkpt lat="44.51419728097212" lon="8.393083207132664"><ele>401.0</ele><time>2026-04-19T13:53:18Z</time></trkpt><trkpt lat="44.51442576913733" lon="8.393146125973198"><ele>399.0</ele><time>2026-04-19T13:53:19Z</time></trkpt><trkpt lat="44.51464318984903" lon="8.393163687097754"><ele>399.0</ele><time>2026-04-19T13:53:20Z</time></trkpt><trkpt lat="44.514846418186146" lon="8.393176973921443"><ele>399.0</ele><time>2026-04-19T13:53:21Z</time></trkpt><trkpt lat="44.515036544097015" lon="8.393163133976026"><ele>399.0</ele><time>2026-04-19T13:53:22Z</time></trkpt><trkpt lat="44.51519901374723" lon="8.393150214308688"><ele>399.0</ele><time>2026-04-19T13:53:23Z</time></trkpt><trkpt lat="44.51532650706983" lon="8.393172428675694"><ele>399.0</ele><time>2026-04-19T13:53:24Z</time></trkpt><trkpt lat="44.51543994949887" lon="8.393168207995998"><ele>399.0</ele><time>2026-04-19T13:53:25Z</time></trkpt><trkpt lat="44.515517038984974" lon="8.393264898811834"><ele>399.0</ele><time>2026-04-19T13:53:26.001Z</time></trkpt><trkpt lat="44.51558041964882" lon="8.393364090224221"><ele>399.0</ele><time>2026-04-19T13:53:27.001Z</time></trkpt><trkpt lat="44.51561955885474" lon="8.393509706542526"><ele>398.66666666666663</ele><time>2026-04-19T13:53:28.001Z</time></trkpt><trkpt lat="44.51565785495036" lon="8.393689175397554"><ele>398.3333333333333</ele><time>2026-04-19T13:53:29.001Z</time></trkpt><trkpt lat="44.51569162640571" lon="8.393913033138787"><ele>398.0</ele><time>2026-04-19T13:53:30.001Z</time></trkpt><trkpt lat="44.51572506907651" lon="8.394156479505693"><ele>398.0</ele><time>2026-04-19T13:53:31.001Z</time></trkpt><trkpt lat="44.51579176645382" lon="8.394389587524342"><ele>398.0</ele><time>2026-04-19T13:53:32.001Z</time></trkpt><trkpt lat="44.51586566152028" lon="8.39462459365988"><ele>398.0</ele><time>2026-04-19T13:53:33.001Z</time></trkpt><trkpt lat="44.515943057381214" lon="8.394807206861177"><ele>397.0</ele><time>2026-04-19T13:53:34.001Z</time></trkpt><trkpt lat="44.51600384349641" lon="8.394924054147582"><ele>396.0</ele><time>2026-04-19T13:53:35.001Z</time></trkpt><trkpt lat="44.516064853557076" lon="8.395022234460008"><ele>395.0</ele><time>2026-04-19T13:53:36.001Z</time></trkpt><trkpt lat="44.51613164052432" lon="8.39517318223076"><ele>394.0</ele><time>2026-04-19T13:53:37.001Z</time></trkpt><trkpt lat="44.516224473182206" lon="8.395355465011047"><ele>393.6666666666667</ele><time>2026-04-19T13:53:38.001Z</time></trkpt><trkpt lat="44.516328517015474" lon="8.395561377442222"><ele>393.33333333333337</ele><time>2026-04-19T13:53:39.001Z</time></trkpt><trkpt lat="44.516442830525975" lon="8.39578360744936"><ele>393.0</ele><time>2026-04-19T13:53:40.001Z</time></trkpt><trkpt lat="44.51655873301497" lon="8.39600401750469"><ele>393.0</ele><time>2026-04-19T13:53:41.001Z</time></trkpt><trkpt lat="44.51666887771347" lon="8.396204193455995"><ele>393.0</ele><time>2026-04-19T13:53:42.001Z</time></trkpt><trkpt lat="44.51676018180991" lon="8.396404940962158"><ele>393.0</ele><time>2026-04-19T13:53:43.001Z</time></trkpt><trkpt lat="44.51683804084301" lon="8.39664047256109"><ele>393.66666666666663</ele><time>2026-04-19T13:53:44.001Z</time></trkpt><trkpt lat="44.51691551460937" lon="8.396904976600075"><ele>394.3333333333333</ele><time>2026-04-19T13:53:45.001Z</time></trkpt><trkpt lat="44.516997580402325" lon="8.397201895161633"><ele>395.0</ele><time>2026-04-19T13:53:46.001Z</time></trkpt><trkpt lat="44.517085775417065" lon="8.397509105521427"><ele>393.66666666666663</ele><time>2026-04-19T13:53:47.001Z</time></trkpt><trkpt lat="44.517171762819515" lon="8.397806219553184"><ele>392.33333333333337</ele><time>2026-04-19T13:53:48.001Z</time></trkpt><trkpt lat="44.517253134016755" lon="8.398079864310322"><ele>391.0</ele><time>2026-04-19T13:53:49.001Z</time></trkpt><trkpt lat="44.517332013305456" lon="8.398344195536527"><ele>391.0</ele><time>2026-04-19T13:53:50.001Z</time></trkpt><trkpt lat="44.51740764063003" lon="8.398597138966807"><ele>391.0</ele><time>2026-04-19T13:53:51.001Z</time></trkpt><trkpt lat="44.51747158137936" lon="8.398832680342046"><ele>391.0</ele><time>2026-04-19T13:53:52.001Z</time></trkpt><trkpt lat="44.517531298115344" lon="8.39904722935956"><ele>392.75</ele><time>2026-04-19T13:53:53.001Z</time></trkpt><trkpt lat="44.517596729472906" lon="8.399225316634043"><ele>394.5</ele><time>2026-04-19T13:53:54.001Z</time></trkpt><trkpt lat="44.51768088759819" lon="8.39936932897989"><ele>396.25</ele><time>2026-04-19T13:53:55.001Z</time></trkpt><trkpt lat="44.517810035348624" lon="8.399476836330852"><ele>398.0</ele><time>2026-04-19T13:53:56.001Z</time></trkpt><trkpt lat="44.517961664931754" lon="8.39960377151182"><ele>393.3333333333333</ele><time>2026-04-19T13:53:57.001Z</time></trkpt><trkpt lat="44.518136684816696" lon="8.399735314253146"><ele>388.66666666666663</ele><time>2026-04-19T13:53:58.001Z</time></trkpt><trkpt lat="44.518325840856804" lon="8.399887073464257"><ele>384.0</ele><time>2026-04-19T13:53:59.001Z</time></trkpt><trkpt lat="44.51851583322615" lon="8.40006432699083"><ele>384.0</ele><time>2026-04-19T13:54:00.001Z</time></trkpt><trkpt lat="44.518702614292565" lon="8.400217975232524"><ele>384.0</ele><time>2026-04-19T13:54:01.001Z</time></trkpt><trkpt lat="44.5188689418075" lon="8.40035498347202"><ele>384.0</ele><time>2026-04-19T13:54:02.001Z</time></trkpt><trkpt lat="44.519022671739194" lon="8.400451563257993"><ele>383.6666666666667</ele><time>2026-04-19T13:54:03.001Z</time></trkpt><trkpt lat="44.519176247168545" lon="8.400556920882552"><ele>383.33333333333337</ele><time>2026-04-19T13:54:04.001Z</time></trkpt><trkpt lat="44.51934028414723" lon="8.400631571253907"><ele>383.0</ele><time>2026-04-19T13:54:05.001Z</time></trkpt><trkpt lat="44.51952446355515" lon="8.400677651948365"><ele>382.6666666666667</ele><time>2026-04-19T13:54:06.001Z</time></trkpt><trkpt lat="44.51970368614974" lon="8.4006994735854"><ele>382.3333333333333</ele><time>2026-04-19T13:54:07.001Z</time></trkpt><trkpt lat="44.51987064408063" lon="8.400750007226579"><ele>382.0</ele><time>2026-04-19T13:54:08.001Z</time></trkpt><trkpt lat="44.52003888575305" lon="8.400775391101208"><ele>382.0</ele><time>2026-04-19T13:54:09.001Z</time></trkpt><trkpt lat="44.52017996682273" lon="8.400803215199963"><ele>382.0</ele><time>2026-04-19T13:54:10.001Z</time></trkpt><trkpt lat="44.520296142883616" lon="8.400869107810315"><ele>382.0</ele><time>2026-04-19T13:54:11.001Z</time></trkpt><trkpt lat="44.5203924533957" lon="8.40097601913793"><ele>382.0</ele><time>2026-04-19T13:54:12.001Z</time></trkpt><trkpt lat="44.52048927456984" lon="8.401135718916084"><ele>381.0</ele><time>2026-04-19T13:54:13.001Z</time></trkpt><trkpt lat="44.52060316399404" lon="8.401331172040624"><ele>380.0</ele><time>2026-04-19T13:54:14Z</time></trkpt><trkpt lat="44.52070319083198" lon="8.401543508401337"><ele>379.0</ele><time>2026-04-19T13:54:15Z</time></trkpt><trkpt lat="44.5207587192723" lon="8.401766402581707"><ele>379.0</ele><time>2026-04-19T13:54:16Z</time></trkpt><trkpt lat="44.52081432627967" lon="8.402003530121323"><ele>379.0</ele><time>2026-04-19T13:54:17Z</time></trkpt><trkpt lat="44.52086746073007" lon="8.402226309080834"><ele>379.0</ele><time>2026-04-19T13:54:18Z</time></trkpt><trkpt lat="44.520949622652594" lon="8.40240042407649"><ele>378.66666666666663</ele><time>2026-04-19T13:54:19Z</time></trkpt><trkpt lat="44.52103130432511" lon="8.402567247825953"><ele>378.3333333333333</ele><time>2026-04-19T13:54:20Z</time></trkpt><trkpt lat="44.52115519529737" lon="8.402718782393261"><ele>378.0</ele><time>2026-04-19T13:54:21Z</time></trkpt><trkpt lat="44.52130715531369" lon="8.402898023540505"><ele>378.0</ele><time>2026-04-19T13:54:22Z</time></trkpt><trkpt lat="44.521452574610684" lon="8.403118200093125"><ele>378.0</ele><time>2026-04-19T13:54:23Z</time></trkpt><trkpt lat="44.521581216087974" lon="8.403376196048294"><ele>378.0</ele><time>2026-04-19T13:54:24Z</time></trkpt><trkpt lat="44.521698709829536" lon="8.4036272059051"><ele>377.3333333333333</ele><time>2026-04-19T13:54:25Z</time></trkpt><trkpt lat="44.52181068126754" lon="8.40383540526894"><ele>376.66666666666663</ele><time>2026-04-19T13:54:26Z</time></trkpt><trkpt lat="44.52188141997041" lon="8.40402596586185"><ele>376.0</ele><time>2026-04-19T13:54:27Z</time></trkpt><trkpt lat="44.52191062271376" lon="8.404184688080566"><ele>376.0</ele><time>2026-04-19T13:54:28Z</time></trkpt><trkpt lat="44.52192380089196" lon="8.404353373835786"><ele>376.0</ele><time>2026-04-19T13:54:29Z</time></trkpt><trkpt lat="44.52193604917331" lon="8.404570856372022"><ele>376.0</ele><time>2026-04-19T13:54:30Z</time></trkpt><trkpt lat="44.52194770502532" lon="8.404813541556836"><ele>376.0</ele><time>2026-04-19T13:54:31Z</time></trkpt><trkpt lat="44.521959859740285" lon="8.405038240028649"><ele>376.0</ele><time>2026-04-19T13:54:32Z</time></trkpt><trkpt lat="44.52200047229486" lon="8.40523304616593"><ele>376.0</ele><time>2026-04-19T13:54:33Z</time></trkpt><trkpt lat="44.52204236126832" lon="8.405409953313425"><ele>376.0</ele><time>2026-04-19T13:54:34Z</time></trkpt><trkpt lat="44.52211642860732" lon="8.405562167457747"><ele>376.25</ele><time>2026-04-19T13:54:35Z</time></trkpt><trkpt lat="44.52221945107116" lon="8.405707567571508"><ele>376.5</ele><time>2026-04-19T13:54:36Z</time></trkpt><trkpt lat="44.52228343890819" lon="8.405869961350394"><ele>376.75</ele><time>2026-04-19T13:54:37Z</time></trkpt><trkpt lat="44.52232913568268" lon="8.406022434250639"><ele>377.0</ele><time>2026-04-19T13:54:38Z</time></trkpt><trkpt lat="44.52233796703464" lon="8.4061828014806"><ele>376.5</ele><time>2026-04-19T13:54:39Z</time></trkpt><trkpt lat="44.52231588354532" lon="8.406361483409327"><ele>376.0</ele><time>2026-04-19T13:54:40Z</time></trkpt><trkpt lat="44.522295088106425" lon="8.406567552200444"><ele>375.5</ele><time>2026-04-19T13:54:41Z</time></trkpt><trkpt lat="44.5222766002508" lon="8.406764041326204"><ele>375.0</ele><time>2026-04-19T13:54:42Z</time></trkpt><trkpt lat="44.52228451869279" lon="8.406960549957246"><ele>375.0</ele><time>2026-04-19T13:54:43Z</time></trkpt><trkpt lat="44.522310319597565" lon="8.407159993317567"><ele>375.0</ele><time>2026-04-19T13:54:44Z</time></trkpt><trkpt lat="44.52236920380778" lon="8.407361510835726"><ele>375.0</ele><time>2026-04-19T13:54:45Z</time></trkpt><trkpt lat="44.52242604598834" lon="8.407568047958502"><ele>374.3333333333333</ele><time>2026-04-19T13:54:46Z</time></trkpt><trkpt lat="44.52249139407151" lon="8.407770791523793"><ele>373.66666666666663</ele><time>2026-04-19T13:54:47Z</time></trkpt><trkpt lat="44.52253725937627" lon="8.408002145142998"><ele>373.0</ele><time>2026-04-19T13:54:48Z</time></trkpt><trkpt lat="44.52257816125629" lon="8.408266034595531"><ele>372.66666666666663</ele><time>2026-04-19T13:54:49Z</time></trkpt><trkpt lat="44.522615882326406" lon="8.408511393852702"><ele>372.3333333333333</ele><time>2026-04-19T13:54:50Z</time></trkpt><trkpt lat="44.522652471538606" lon="8.408734550462523"><ele>372.0</ele><time>2026-04-19T13:54:51Z</time></trkpt><trkpt lat="44.52267478443756" lon="8.408928393018128"><ele>372.0</ele><time>2026-04-19T13:54:52Z</time></trkpt><trkpt lat="44.52269013278396" lon="8.409071734325043"><ele>372.0</ele><time>2026-04-19T13:54:53Z</time></trkpt><trkpt lat="44.52270032598222" lon="8.409174842618057"><ele>372.0</ele><time>2026-04-19T13:54:54Z</time></trkpt><trkpt lat="44.52271720172356" lon="8.40932533342757"><ele>372.0</ele><time>2026-04-19T13:54:56Z</time></trkpt><trkpt lat="44.522734262728825" lon="8.409454793468917"><ele>372.0</ele><time>2026-04-19T13:54:58.001Z</time></trkpt><trkpt lat="44.522746543345" lon="8.409547993433351"><ele>372.0</ele><time>2026-04-19T13:55:00.001Z</time></trkpt><trkpt lat="44.522770230101735" lon="8.409664919153226"><ele>372.0</ele><time>2026-04-19T13:55:03.001Z</time></trkpt><trkpt lat="44.52280492548628" lon="8.409759567103977"><ele>372.0</ele><time>2026-04-19T13:55:05.001Z</time></trkpt><trkpt lat="44.522838297830795" lon="8.409849385822353"><ele>372.0</ele><time>2026-04-19T13:55:07.001Z</time></trkpt><trkpt lat="44.52288087690821" lon="8.409962599720178"><ele>372.0</ele><time>2026-04-19T13:55:09.001Z</time></trkpt><trkpt lat="44.522916909992375" lon="8.410054013336522"><ele>372.0</ele><time>2026-04-19T13:55:11.001Z</time></trkpt><trkpt lat="44.522966724703544" lon="8.410168259349147"><ele>372.0</ele><time>2026-04-19T13:55:13.001Z</time></trkpt><trkpt lat="44.523011125603325" lon="8.410254985656481"><ele>373.0</ele><time>2026-04-19T13:55:14.001Z</time></trkpt><trkpt lat="44.52307324405697" lon="8.410365209333689"><ele>374.0</ele><time>2026-04-19T13:55:15.001Z</time></trkpt><trkpt lat="44.52315086668076" lon="8.41050106879607"><ele>375.0</ele><time>2026-04-19T13:55:16.001Z</time></trkpt><trkpt lat="44.52322970921763" lon="8.410659977465025"><ele>376.0</ele><time>2026-04-19T13:55:17.001Z</time></trkpt><trkpt lat="44.523301204596436" lon="8.410801539221175"><ele>376.16666666666663</ele><time>2026-04-19T13:55:18.001Z</time></trkpt><trkpt lat="44.52336338162216" lon="8.410919871237533"><ele>376.3333333333333</ele><time>2026-04-19T13:55:19.001Z</time></trkpt><trkpt lat="44.52341834867875" lon="8.411024481759464"><ele>376.5</ele><time>2026-04-19T13:55:20.001Z</time></trkpt><trkpt lat="44.52347043421004" lon="8.41112360827901"><ele>376.6666666666667</ele><time>2026-04-19T13:55:21.001Z</time></trkpt><trkpt lat="44.523516313199266" lon="8.411216815729846"><ele>376.83333333333337</ele><time>2026-04-19T13:55:22.001Z</time></trkpt><trkpt lat="44.52355794923117" lon="8.411303641350605"><ele>377.0</ele><time>2026-04-19T13:55:23.001Z</time></trkpt><trkpt lat="44.52359959228885" lon="8.411380319684374"><ele>377.0</ele><time>2026-04-19T13:55:24.001Z</time></trkpt><trkpt lat="44.523674240737144" lon="8.411489994702395"><ele>377.0</ele><time>2026-04-19T13:55:26.001Z</time></trkpt><trkpt lat="44.52370100686796" lon="8.411584483386362"><ele>377.0</ele><time>2026-04-19T13:55:28.001Z</time></trkpt><trkpt lat="44.52375968133898" lon="8.411623488289377"><ele>377.0</ele><time>2026-04-19T13:55:31.001Z</time></trkpt><trkpt lat="44.52367683435827" lon="8.41152425161744"><ele>377.0</ele><time>2026-04-19T13:56:17.001Z</time></trkpt><trkpt lat="44.523603017524415" lon="8.411333619397805"><ele>377.0</ele><time>2026-04-19T13:56:18.001Z</time></trkpt><trkpt lat="44.52404828894953" lon="8.410836416685772"><ele>377.0</ele><time>2026-04-19T13:56:19.001Z</time></trkpt><trkpt lat="44.52400716584508" lon="8.410728627006437"><ele>377.0</ele><time>2026-04-19T13:56:20Z</time></trkpt><trkpt lat="44.52395368512348" lon="8.410599431437994"><ele>377.0</ele><time>2026-04-19T13:56:21Z</time></trkpt><trkpt lat="44.52389237097556" lon="8.410457692009954"><ele>377.0</ele><time>2026-04-19T13:56:22Z</time></trkpt><trkpt lat="44.52382611445697" lon="8.410340999542793"><ele>377.0</ele><time>2026-04-19T13:56:23Z</time></trkpt><trkpt lat="44.5237771628515" lon="8.410253746647298"><ele>376.75</ele><time>2026-04-19T13:56:24Z</time></trkpt><trkpt lat="44.523647665265635" lon="8.410139750841507"><ele>376.5</ele><time>2026-04-19T13:56:25Z</time></trkpt><trkpt lat="44.52359465048551" lon="8.41006309080633"><ele>376.25</ele><time>2026-04-19T13:56:26Z</time></trkpt><trkpt lat="44.5234877973863" lon="8.410040349619145"><ele>376.0</ele><time>2026-04-19T13:56:27Z</time></trkpt><trkpt lat="44.523142035228275" lon="8.41042315056564"><ele>376.0</ele><time>2026-04-19T13:56:28Z</time></trkpt><trkpt lat="44.52306331828241" lon="8.410295033848945"><ele>376.0</ele><time>2026-04-19T13:56:30Z</time></trkpt><trkpt lat="44.52302008372992" lon="8.410221841911484"><ele>376.0</ele><time>2026-04-19T13:56:31Z</time></trkpt><trkpt lat="44.52297355105278" lon="8.410138585943404"><ele>376.0</ele><time>2026-04-19T13:56:32Z</time></trkpt><trkpt lat="44.52293797736629" lon="8.410049283084616"><ele>376.0</ele><time>2026-04-19T13:56:33Z</time></trkpt><trkpt lat="44.522907647079414" lon="8.409968753455148"><ele>376.0</ele><time>2026-04-19T13:56:34Z</time></trkpt><trkpt lat="44.52285387613884" lon="8.409830216801017"><ele>375.20000000000005</ele><time>2026-04-19T13:56:36Z</time></trkpt><trkpt lat="44.52280692577767" lon="8.409708333263644"><ele>374.40000000000003</ele><time>2026-04-19T13:56:38Z</time></trkpt><trkpt lat="44.52278626524893" lon="8.409586620287138"><ele>373.6</ele><time>2026-04-19T13:56:40Z</time></trkpt><trkpt lat="44.522761147235336" lon="8.409495205928362"><ele>372.8</ele><time>2026-04-19T13:56:42Z</time></trkpt><trkpt lat="44.52274746813398" lon="8.409351970335932"><ele>372.0</ele><time>2026-04-19T13:56:44Z</time></trkpt><trkpt lat="44.522727427367435" lon="8.40918884521877"><ele>372.0</ele><time>2026-04-19T13:56:46Z</time></trkpt><trkpt lat="44.52271829327833" lon="8.40902272184544"><ele>372.0</ele><time>2026-04-19T13:56:48Z</time></trkpt><trkpt lat="44.52270374362277" lon="8.40889300333336"><ele>372.0</ele><time>2026-04-19T13:56:50Z</time></trkpt><trkpt lat="44.52268720584216" lon="8.408795582887064"><ele>372.0</ele><time>2026-04-19T13:56:52Z</time></trkpt><trkpt lat="44.52267146137227" lon="8.408707293004884"><ele>372.0</ele><time>2026-04-19T13:56:56Z</time></trkpt><trkpt lat="44.52264418040001" lon="8.408823764185538"><ele>372.0</ele><time>2026-04-19T13:57:20Z</time></trkpt><trkpt lat="44.522623432002376" lon="8.408933364577212"><ele>372.0</ele><time>2026-04-19T13:57:21Z</time></trkpt><trkpt lat="44.52263166069686" lon="8.40902882732536"><ele>372.0</ele><time>2026-04-19T13:57:22Z</time></trkpt><trkpt lat="44.52264388773749" lon="8.409143405256469"><ele>372.0</ele><time>2026-04-19T13:57:25.001Z</time></trkpt><trkpt lat="44.52255346372581" lon="8.409170408140557"><ele>372.0</ele><time>2026-04-19T13:57:28.001Z</time></trkpt><trkpt lat="44.52244767227774" lon="8.409160382096415"><ele>372.0</ele><time>2026-04-19T13:57:30.001Z</time></trkpt><trkpt lat="44.522381547576146" lon="8.409174294666617"><ele>372.0</ele><time>2026-04-19T13:57:31.001Z</time></trkpt><trkpt lat="44.52230826177414" lon="8.409189713919423"><ele>372.0</ele><time>2026-04-19T13:57:32.001Z</time></trkpt><trkpt lat="44.522242095257674" lon="8.40920870610844"><ele>372.0</ele><time>2026-04-19T13:57:33.001Z</time></trkpt><trkpt lat="44.52214701671513" lon="8.409232200255271"><ele>372.0</ele><time>2026-04-19T13:57:35.001Z</time></trkpt><trkpt lat="44.52206971732394" lon="8.409203205424504"><ele>372.0</ele><time>2026-04-19T13:57:37.001Z</time></trkpt><trkpt lat="44.52198833601183" lon="8.409096353248527"><ele>372.0</ele><time>2026-04-19T13:57:39.001Z</time></trkpt><trkpt lat="44.52191924914692" lon="8.408994235754129"><ele>372.0</ele><time>2026-04-19T13:57:41.001Z</time></trkpt><trkpt lat="44.52183948641167" lon="8.408922776324179"><ele>372.0</ele><time>2026-04-19T13:57:44.001Z</time></trkpt><trkpt lat="44.521760083134865" lon="8.408922624932949"><ele>372.0</ele><time>2026-04-19T13:57:46.001Z</time></trkpt><trkpt lat="44.52166256097982" lon="8.408931423324509"><ele>372.0</ele><time>2026-04-19T13:57:48.001Z</time></trkpt><trkpt lat="44.521597631559295" lon="8.408947400251744"><ele>372.0</ele><time>2026-04-19T13:57:49.001Z</time></trkpt><trkpt lat="44.52151683076386" lon="8.408995078940341"><ele>372.0</ele><time>2026-04-19T13:57:50.001Z</time></trkpt><trkpt lat="44.521443073879865" lon="8.409064886174608"><ele>372.0</ele><time>2026-04-19T13:57:51.001Z</time></trkpt><trkpt lat="44.52138506371105" lon="8.409110263922816"><ele>372.0</ele><time>2026-04-19T13:57:52.001Z</time></trkpt><trkpt lat="44.521301262126926" lon="8.409149187943179"><ele>372.0</ele><time>2026-04-19T13:57:54.001Z</time></trkpt><trkpt lat="44.5211656260303" lon="8.409158676931279"><ele>372.0</ele><time>2026-04-19T13:57:56.001Z</time></trkpt><trkpt lat="44.521076906956374" lon="8.409181524446618"><ele>372.0</ele><time>2026-04-19T13:57:57.001Z</time></trkpt><trkpt lat="44.52098425718864" lon="8.409210579223142"><ele>373.0</ele><time>2026-04-19T13:57:58.001Z</time></trkpt><trkpt lat="44.52089814679119" lon="8.40923796742286"><ele>374.0</ele><time>2026-04-19T13:57:59.001Z</time></trkpt><trkpt lat="44.52081253416862" lon="8.40927208443744"><ele>375.0</ele><time>2026-04-19T13:58:00.001Z</time></trkpt><trkpt lat="44.5207250981614" lon="8.409344427917295"><ele>376.0</ele><time>2026-04-19T13:58:01.001Z</time></trkpt><trkpt lat="44.52064119126107" lon="8.409431565072174"><ele>377.0</ele><time>2026-04-19T13:58:02.001Z</time></trkpt><trkpt lat="44.52056410143196" lon="8.409528538938432"><ele>377.0</ele><time>2026-04-19T13:58:03.001Z</time></trkpt><trkpt lat="44.52048719397759" lon="8.409627504203216"><ele>377.0</ele><time>2026-04-19T13:58:04.001Z</time></trkpt><trkpt lat="44.520417150725876" lon="8.409717636665414"><ele>377.0</ele><time>2026-04-19T13:58:05.001Z</time></trkpt><trkpt lat="44.52035664352418" lon="8.40979941095141"><ele>377.0</ele><time>2026-04-19T13:58:06.001Z</time></trkpt><trkpt lat="44.520300496109364" lon="8.409890191032648"><ele>377.0</ele><time>2026-04-19T13:58:07.001Z</time></trkpt><trkpt lat="44.520263444596644" lon="8.410013765334734"><ele>377.33333333333337</ele><time>2026-04-19T13:58:08.001Z</time></trkpt><trkpt lat="44.52024201808674" lon="8.41013690111468"><ele>377.6666666666667</ele><time>2026-04-19T13:58:09.001Z</time></trkpt><trkpt lat="44.52022596764813" lon="8.410254403681256"><ele>378.0</ele><time>2026-04-19T13:58:10.001Z</time></trkpt><trkpt lat="44.52020737528683" lon="8.410347316534859"><ele>378.3333333333333</ele><time>2026-04-19T13:58:11.001Z</time></trkpt><trkpt lat="44.520156734129664" lon="8.410470480535794"><ele>378.66666666666663</ele><time>2026-04-19T13:58:13.001Z</time></trkpt><trkpt lat="44.52008068522903" lon="8.410517696572944"><ele>379.0</ele><time>2026-04-19T13:58:15.001Z</time></trkpt><trkpt lat="44.51993393635994" lon="8.410538342992403"><ele>380.6</ele><time>2026-04-19T13:58:17.001Z</time></trkpt><trkpt lat="44.51983221231264" lon="8.410548427874252"><ele>382.2</ele><time>2026-04-19T13:58:18.001Z</time></trkpt><trkpt lat="44.5197343264287" lon="8.410546436080923"><ele>383.8</ele><time>2026-04-19T13:58:19.001Z</time></trkpt><trkpt lat="44.51964236952923" lon="8.410514334503059"><ele>385.40000000000003</ele><time>2026-04-19T13:58:20.001Z</time></trkpt><trkpt lat="44.51954837616479" lon="8.410478864232726"><ele>387.0</ele><time>2026-04-19T13:58:21.001Z</time></trkpt><trkpt lat="44.51946296680941" lon="8.410457061987952"><ele>387.5</ele><time>2026-04-19T13:58:22.001Z</time></trkpt><trkpt lat="44.51937811188901" lon="8.410452830747797"><ele>388.0</ele><time>2026-04-19T13:58:23.001Z</time></trkpt><trkpt lat="44.51929091471547" lon="8.410480137659718"><ele>388.5</ele><time>2026-04-19T13:58:24.001Z</time></trkpt><trkpt lat="44.51921641579289" lon="8.410524811676154"><ele>389.0</ele><time>2026-04-19T13:58:25.001Z</time></trkpt><trkpt lat="44.51914687261691" lon="8.410590294774623"><ele>389.5</ele><time>2026-04-19T13:58:26.001Z</time></trkpt><trkpt lat="44.51910081666709" lon="8.41068605029631"><ele>390.0</ele><time>2026-04-19T13:58:27Z</time></trkpt><trkpt lat="44.5190621450563" lon="8.410775063393322"><ele>390.1666666666667</ele><time>2026-04-19T13:58:28Z</time></trkpt><trkpt lat="44.51901852123147" lon="8.410875475802861"><ele>390.33333333333337</ele><time>2026-04-19T13:58:29Z</time></trkpt><trkpt lat="44.518969421198854" lon="8.410960170837527"><ele>390.5</ele><time>2026-04-19T13:58:30Z</time></trkpt><trkpt lat="44.518913884099014" lon="8.411018006081369"><ele>390.6666666666667</ele><time>2026-04-19T13:58:31Z</time></trkpt><trkpt lat="44.518807993747025" lon="8.411088951223668"><ele>390.83333333333337</ele><time>2026-04-19T13:58:33Z</time></trkpt><trkpt lat="44.51873981443861" lon="8.411113247018664"><ele>391.0</ele><time>2026-04-19T13:58:34Z</time></trkpt><trkpt lat="44.51866082689871" lon="8.411124761396614"><ele>391.00000000000006</ele><time>2026-04-19T13:58:35Z</time></trkpt><trkpt lat="44.51856997815911" lon="8.411135144230625"><ele>391.0</ele><time>2026-04-19T13:58:36Z</time></trkpt><trkpt lat="44.518484506821196" lon="8.41114607022226"><ele>391.0</ele><time>2026-04-19T13:58:37Z</time></trkpt><trkpt lat="44.51840236404766" lon="8.411178278105387"><ele>391.0</ele><time>2026-04-19T13:58:38Z</time></trkpt><trkpt lat="44.51833351689622" lon="8.411224138328222"><ele>391.00000000000006</ele><time>2026-04-19T13:58:39Z</time></trkpt><trkpt lat="44.51826712027047" lon="8.411299610124178"><ele>391.0</ele><time>2026-04-19T13:58:40Z</time></trkpt><trkpt lat="44.51820724773404" lon="8.411393112649645"><ele>390.33333333333337</ele><time>2026-04-19T13:58:41Z</time></trkpt><trkpt lat="44.51814806012908" lon="8.411469836061178"><ele>389.6666666666667</ele><time>2026-04-19T13:58:42Z</time></trkpt><trkpt lat="44.51808648061461" lon="8.411510536753466"><ele>389.0</ele><time>2026-04-19T13:58:43Z</time></trkpt><trkpt lat="44.51801950841062" lon="8.411536714461658"><ele>388.33333333333337</ele><time>2026-04-19T13:58:44Z</time></trkpt><trkpt lat="44.517935173260355" lon="8.411557156193258"><ele>387.6666666666667</ele><time>2026-04-19T13:58:45Z</time></trkpt><trkpt lat="44.517832162961" lon="8.41157916743607"><ele>387.0</ele><time>2026-04-19T13:58:46Z</time></trkpt><trkpt lat="44.517723458823745" lon="8.411595380987192"><ele>386.3333333333333</ele><time>2026-04-19T13:58:47Z</time></trkpt><trkpt lat="44.517632530804136" lon="8.411604222211665"><ele>385.6666666666667</ele><time>2026-04-19T13:58:48Z</time></trkpt><trkpt lat="44.51755513469959" lon="8.41160577322554"><ele>385.0</ele><time>2026-04-19T13:58:49Z</time></trkpt><trkpt lat="44.517490261023376" lon="8.411614399193349"><ele>384.33333333333337</ele><time>2026-04-19T13:58:50Z</time></trkpt><trkpt lat="44.51739764496133" lon="8.411744879853481"><ele>383.6666666666667</ele><time>2026-04-19T13:58:52Z</time></trkpt><trkpt lat="44.51736748870991" lon="8.411842179235958"><ele>383.0</ele><time>2026-04-19T13:58:53Z</time></trkpt><trkpt lat="44.51735314544333" lon="8.41194588037549"><ele>383.0</ele><time>2026-04-19T13:58:54Z</time></trkpt><trkpt lat="44.51727696432632" lon="8.412023886433158"><ele>383.0</ele><time>2026-04-19T13:58:56Z</time></trkpt><trkpt lat="44.5172212608116" lon="8.41207144156234"><ele>383.0</ele><time>2026-04-19T13:58:57Z</time></trkpt><trkpt lat="44.51715206996675" lon="8.412119024075645"><ele>383.0</ele><time>2026-04-19T13:58:58Z</time></trkpt><trkpt lat="44.51706831087037" lon="8.412153563935682"><ele>383.0</ele><time>2026-04-19T13:58:59Z</time></trkpt><trkpt lat="44.51696949446649" lon="8.412166033486523"><ele>383.0</ele><time>2026-04-19T13:59:00Z</time></trkpt><trkpt lat="44.516858483317655" lon="8.412172222122123"><ele>383.5</ele><time>2026-04-19T13:59:01Z</time></trkpt><trkpt lat="44.51676671920211" lon="8.412162988129152"><ele>384.0</ele><time>2026-04-19T13:59:02Z</time></trkpt><trkpt lat="44.51669544283887" lon="8.41213606879441"><ele>384.5</ele><time>2026-04-19T13:59:03Z</time></trkpt><trkpt lat="44.51659141039178" lon="8.412153613598099"><ele>385.0</ele><time>2026-04-19T13:59:05Z</time></trkpt><trkpt lat="44.51653162737997" lon="8.41223779406238"><ele>385.49999999999994</ele><time>2026-04-19T13:59:06Z</time></trkpt><trkpt lat="44.516477468708956" lon="8.412328377570015"><ele>386.0</ele><time>2026-04-19T13:59:07Z</time></trkpt><trkpt lat="44.51641258519306" lon="8.41242130991092"><ele>387.0</ele><time>2026-04-19T13:59:08Z</time></trkpt><trkpt lat="44.51633323872995" lon="8.412499340090067"><ele>388.0</ele><time>2026-04-19T13:59:09Z</time></trkpt><trkpt lat="44.516234310411846" lon="8.412537684016039"><ele>389.0</ele><time>2026-04-19T13:59:10Z</time></trkpt><trkpt lat="44.51611576987559" lon="8.41257994108426"><ele>390.0</ele><time>2026-04-19T13:59:11Z</time></trkpt><trkpt lat="44.51599382484421" lon="8.412636178667999"><ele>390.0</ele><time>2026-04-19T13:59:12Z</time></trkpt><trkpt lat="44.51588902418626" lon="8.412691997067327"><ele>390.0</ele><time>2026-04-19T13:59:13Z</time></trkpt><trkpt lat="44.51579500526437" lon="8.412746377348418"><ele>390.0</ele><time>2026-04-19T13:59:14Z</time></trkpt><trkpt lat="44.515713207252446" lon="8.412797625224067"><ele>390.0</ele><time>2026-04-19T13:59:15Z</time></trkpt><trkpt lat="44.51563629521853" lon="8.412856894748813"><ele>390.0</ele><time>2026-04-19T13:59:16Z</time></trkpt><trkpt lat="44.51557023196786" lon="8.41296005252068"><ele>391.0</ele><time>2026-04-19T13:59:17Z</time></trkpt><trkpt lat="44.51550434024015" lon="8.413050140020793"><ele>392.0</ele><time>2026-04-19T13:59:18Z</time></trkpt><trkpt lat="44.51543064009284" lon="8.413116685143224"><ele>393.0</ele><time>2026-04-19T13:59:19Z</time></trkpt><trkpt lat="44.51537434924537" lon="8.413184469615251"><ele>394.0</ele><time>2026-04-19T13:59:20Z</time></trkpt><trkpt lat="44.51528771356723" lon="8.413251707122397"><ele>395.0</ele><time>2026-04-19T13:59:22Z</time></trkpt><trkpt lat="44.51519804482035" lon="8.413220470484024"><ele>396.0</ele><time>2026-04-19T13:59:24Z</time></trkpt><trkpt lat="44.515141276492784" lon="8.413179514745769"><ele>396.0</ele><time>2026-04-19T13:59:25Z</time></trkpt><trkpt lat="44.51506863993382" lon="8.413123333903098"><ele>396.0</ele><time>2026-04-19T13:59:26Z</time></trkpt><trkpt lat="44.514983010232186" lon="8.4130593859446"><ele>396.0</ele><time>2026-04-19T13:59:27Z</time></trkpt><trkpt lat="44.51488864923473" lon="8.413011664524888"><ele>396.0</ele><time>2026-04-19T13:59:28Z</time></trkpt><trkpt lat="44.51478841137883" lon="8.413002272987137"><ele>396.0</ele><time>2026-04-19T13:59:29Z</time></trkpt><trkpt lat="44.514695025829525" lon="8.413019398295647"><ele>396.0</ele><time>2026-04-19T13:59:30Z</time></trkpt><trkpt lat="44.514614277193445" lon="8.413061254021983"><ele>396.0</ele><time>2026-04-19T13:59:31Z</time></trkpt><trkpt lat="44.514533700596395" lon="8.413132025499358"><ele>396.0</ele><time>2026-04-19T13:59:32Z</time></trkpt><trkpt lat="44.51447009693452" lon="8.413239506845898"><ele>396.0</ele><time>2026-04-19T13:59:33Z</time></trkpt><trkpt lat="44.51441338839246" lon="8.413353856983207"><ele>396.0</ele><time>2026-04-19T13:59:34Z</time></trkpt><trkpt lat="44.5143554496717" lon="8.41347055183679"><ele>395.6666666666667</ele><time>2026-04-19T13:59:35Z</time></trkpt><trkpt lat="44.514301065892916" lon="8.413561811717045"><ele>395.33333333333337</ele><time>2026-04-19T13:59:36Z</time></trkpt><trkpt lat="44.51426331285333" lon="8.413649838646855"><ele>395.0</ele><time>2026-04-19T13:59:37Z</time></trkpt><trkpt lat="44.514261954297375" lon="8.413765378968113"><ele>394.6666666666667</ele><time>2026-04-19T13:59:38Z</time></trkpt><trkpt lat="44.5142394793117" lon="8.413886778401288"><ele>394.33333333333337</ele><time>2026-04-19T13:59:39Z</time></trkpt><trkpt lat="44.514233457878284" lon="8.41402261891989"><ele>394.0</ele><time>2026-04-19T13:59:40Z</time></trkpt><trkpt lat="44.51422054674821" lon="8.414147650433508"><ele>395.00000000000006</ele><time>2026-04-19T13:59:41Z</time></trkpt><trkpt lat="44.51419708356027" lon="8.414261569774562"><ele>396.0</ele><time>2026-04-19T13:59:42Z</time></trkpt><trkpt lat="44.51415505821016" lon="8.414330966626759"><ele>397.0</ele><time>2026-04-19T13:59:43Z</time></trkpt><trkpt lat="44.51410134498557" lon="8.414383227644686"><ele>398.0</ele><time>2026-04-19T13:59:44Z</time></trkpt><trkpt lat="44.5140479066126" lon="8.414447648159115"><ele>399.00000000000006</ele><time>2026-04-19T13:59:45Z</time></trkpt><trkpt lat="44.51398966672253" lon="8.414622904380836"><ele>400.0</ele><time>2026-04-19T13:59:47Z</time></trkpt><trkpt lat="44.51399524988629" lon="8.414746633069042"><ele>401.1666666666667</ele><time>2026-04-19T13:59:48Z</time></trkpt><trkpt lat="44.513974461296115" lon="8.41487221220849"><ele>402.33333333333337</ele><time>2026-04-19T13:59:49Z</time></trkpt><trkpt lat="44.513919637426746" lon="8.41497529414236"><ele>403.5</ele><time>2026-04-19T13:59:50Z</time></trkpt><trkpt lat="44.513865970354615" lon="8.415081454342467"><ele>404.66666666666663</ele><time>2026-04-19T13:59:51Z</time></trkpt><trkpt lat="44.51381615606076" lon="8.415186490216518"><ele>405.8333333333333</ele><time>2026-04-19T13:59:52Z</time></trkpt><trkpt lat="44.51379880608587" lon="8.415298957535661"><ele>407.0</ele><time>2026-04-19T13:59:53Z</time></trkpt><trkpt lat="44.513773543910744" lon="8.415419205337454"><ele>407.6</ele><time>2026-04-19T13:59:54Z</time></trkpt><trkpt lat="44.51374757157932" lon="8.415545123718204"><ele>408.20000000000005</ele><time>2026-04-19T13:59:55Z</time></trkpt><trkpt lat="44.51368423020475" lon="8.415663133690447"><ele>408.8</ele><time>2026-04-19T13:59:56Z</time></trkpt><trkpt lat="44.51363468930061" lon="8.415778654416622"><ele>409.4</ele><time>2026-04-19T13:59:57Z</time></trkpt><trkpt lat="44.51358809500715" lon="8.415901552380117"><ele>410.0</ele><time>2026-04-19T13:59:58Z</time></trkpt><trkpt lat="44.51356367365056" lon="8.416040778356708"><ele>409.99999999999994</ele><time>2026-04-19T13:59:59Z</time></trkpt><trkpt lat="44.5135125981294" lon="8.416144430722257"><ele>410.0</ele><time>2026-04-19T14:00:00Z</time></trkpt><trkpt lat="44.51346696812263" lon="8.416221591559705"><ele>410.0</ele><time>2026-04-19T14:00:01Z</time></trkpt><trkpt lat="44.513415615651574" lon="8.41630935956828"><ele>410.0</ele><time>2026-04-19T14:00:02Z</time></trkpt><trkpt lat="44.5133883027169" lon="8.416428437736023"><ele>409.99999999999994</ele><time>2026-04-19T14:00:03Z</time></trkpt><trkpt lat="44.513373050963565" lon="8.4165635654792"><ele>410.0</ele><time>2026-04-19T14:00:04Z</time></trkpt><trkpt lat="44.51336689855901" lon="8.416721195773007"><ele>411.75</ele><time>2026-04-19T14:00:05Z</time></trkpt><trkpt lat="44.51338377211668" lon="8.416889471787085"><ele>413.5</ele><time>2026-04-19T14:00:06Z</time></trkpt><trkpt lat="44.51339677271859" lon="8.417053956006594"><ele>415.25</ele><time>2026-04-19T14:00:07Z</time></trkpt><trkpt lat="44.5134289153896" lon="8.417222512671167"><ele>417.0</ele><time>2026-04-19T14:00:08Z</time></trkpt><trkpt lat="44.51346737654881" lon="8.41736525969405"><ele>418.6</ele><time>2026-04-19T14:00:09Z</time></trkpt><trkpt lat="44.513497121210015" lon="8.417478989076583"><ele>420.20000000000005</ele><time>2026-04-19T14:00:10Z</time></trkpt><trkpt lat="44.51352986645834" lon="8.417573700113772"><ele>421.8</ele><time>2026-04-19T14:00:11Z</time></trkpt><trkpt lat="44.513580442799366" lon="8.417652552327482"><ele>423.4</ele><time>2026-04-19T14:00:12Z</time></trkpt><trkpt lat="44.51364510733879" lon="8.417712888834728"><ele>425.0</ele><time>2026-04-19T14:00:13Z</time></trkpt><trkpt lat="44.513745676527755" lon="8.417851291568873"><ele>424.99999999999994</ele><time>2026-04-19T14:00:16Z</time></trkpt><trkpt lat="44.51370793945792" lon="8.417963473502905"><ele>425.0</ele><time>2026-04-19T14:00:18Z</time></trkpt><trkpt lat="44.51366961236597" lon="8.418073852576057"><ele>425.0</ele><time>2026-04-19T14:00:20Z</time></trkpt><trkpt lat="44.513609171188264" lon="8.418133891102702"><ele>425.0</ele><time>2026-04-19T14:00:22Z</time></trkpt><trkpt lat="44.51366881192514" lon="8.418252567930134"><ele>424.99999999999994</ele><time>2026-04-19T14:00:25Z</time></trkpt><trkpt lat="44.51371744848068" lon="8.418340546388354"><ele>425.0</ele><time>2026-04-19T14:00:27Z</time></trkpt><trkpt lat="44.51373221761421" lon="8.418453569767102"><ele>424.3333333333333</ele><time>2026-04-19T14:00:29Z</time></trkpt><trkpt lat="44.51370898217539" lon="8.418543050765608"><ele>423.66666666666663</ele><time>2026-04-19T14:00:31Z</time></trkpt><trkpt lat="44.51364567042834" lon="8.41865774158005"><ele>423.0</ele><time>2026-04-19T14:00:33Z</time></trkpt><trkpt lat="44.51356721815977" lon="8.418794360491106"><ele>422.33333333333337</ele><time>2026-04-19T14:00:35Z</time></trkpt><trkpt lat="44.51353066062388" lon="8.418873649775826"><ele>421.6666666666667</ele><time>2026-04-19T14:00:36Z</time></trkpt><trkpt lat="44.51349944433657" lon="8.41895614180114"><ele>421.0</ele><time>2026-04-19T14:00:37Z</time></trkpt><trkpt lat="44.51348466007446" lon="8.419056361972903"><ele>421.4</ele><time>2026-04-19T14:00:38Z</time></trkpt><trkpt lat="44.513504356175" lon="8.419211481508363"><ele>421.8</ele><time>2026-04-19T14:00:40Z</time></trkpt><trkpt lat="44.513624163881374" lon="8.419263064804202"><ele>422.2</ele><time>2026-04-19T14:00:42Z</time></trkpt><trkpt lat="44.513699101984386" lon="8.41927237172877"><ele>422.59999999999997</ele><time>2026-04-19T14:00:43Z</time></trkpt><trkpt lat="44.51378828525254" lon="8.41928767348395"><ele>423.0</ele><time>2026-04-19T14:00:44Z</time></trkpt><trkpt lat="44.513891681185775" lon="8.419317641636091"><ele>423.0</ele><time>2026-04-19T14:00:45Z</time></trkpt><trkpt lat="44.513989898686745" lon="8.41935898084673"><ele>423.0</ele><time>2026-04-19T14:00:46Z</time></trkpt><trkpt lat="44.51408635271757" lon="8.419392570171466"><ele>423.0</ele><time>2026-04-19T14:00:47Z</time></trkpt><trkpt lat="44.51419276364306" lon="8.41940813430735"><ele>423.0</ele><time>2026-04-19T14:00:48Z</time></trkpt><trkpt lat="44.51431612766241" lon="8.4194087945092"><ele>423.0</ele><time>2026-04-19T14:00:49Z</time></trkpt><trkpt lat="44.51444100837077" lon="8.41939939761707"><ele>423.0</ele><time>2026-04-19T14:00:50Z</time></trkpt><trkpt lat="44.51455618214093" lon="8.419414301842219"><ele>423.0</ele><time>2026-04-19T14:00:51Z</time></trkpt><trkpt lat="44.51466184454961" lon="8.41938917641027"><ele>423.0</ele><time>2026-04-19T14:00:52Z</time></trkpt><trkpt lat="44.51475508344441" lon="8.419407615011561"><ele>423.0</ele><time>2026-04-19T14:00:53Z</time></trkpt><trkpt lat="44.514831754824186" lon="8.419446905734507"><ele>423.0</ele><time>2026-04-19T14:00:54Z</time></trkpt><trkpt lat="44.5148925280394" lon="8.419514130387586"><ele>423.79999999999995</ele><time>2026-04-19T14:00:55Z</time></trkpt><trkpt lat="44.514941683281684" lon="8.419602296658809"><ele>424.6</ele><time>2026-04-19T14:00:56Z</time></trkpt><trkpt lat="44.51497991287779" lon="8.419717871611047"><ele>425.40000000000003</ele><time>2026-04-19T14:00:57Z</time></trkpt><trkpt lat="44.51499144243022" lon="8.41986588286887"><ele>426.20000000000005</ele><time>2026-04-19T14:00:58Z</time></trkpt><trkpt lat="44.51500419720726" lon="8.420026032350892"><ele>427.0</ele><time>2026-04-19T14:00:59Z</time></trkpt><trkpt lat="44.515012057615266" lon="8.420189347365932"><ele>424.40000000000003</ele><time>2026-04-19T14:01:00Z</time></trkpt><trkpt lat="44.51501445276874" lon="8.42035058468964"><ele>421.80000000000007</ele><time>2026-04-19T14:01:01Z</time></trkpt><trkpt lat="44.51501161249661" lon="8.420490144026365"><ele>419.2</ele><time>2026-04-19T14:01:02Z</time></trkpt><trkpt lat="44.515000365303564" lon="8.420613055264104"><ele>416.6</ele><time>2026-04-19T14:01:03Z</time></trkpt><trkpt lat="44.514973588123524" lon="8.420727874940013"><ele>414.0</ele><time>2026-04-19T14:01:04Z</time></trkpt><trkpt lat="44.514926551752254" lon="8.42086540740305"><ele>412.66666666666663</ele><time>2026-04-19T14:01:05Z</time></trkpt><trkpt lat="44.51486539629571" lon="8.421042847283328"><ele>411.3333333333333</ele><time>2026-04-19T14:01:06Z</time></trkpt><trkpt lat="44.51477665344646" lon="8.42123043475952"><ele>410.0</ele><time>2026-04-19T14:01:07Z</time></trkpt><trkpt lat="44.51467979134634" lon="8.421426832711646"><ele>408.0</ele><time>2026-04-19T14:01:08Z</time></trkpt><trkpt lat="44.514564209861845" lon="8.421662170976797"><ele>406.0</ele><time>2026-04-19T14:01:09Z</time></trkpt><trkpt lat="44.51446802299604" lon="8.421899154215213"><ele>404.0</ele><time>2026-04-19T14:01:10Z</time></trkpt><trkpt lat="44.51437967967337" lon="8.422130775139758"><ele>403.66666666666663</ele><time>2026-04-19T14:01:11Z</time></trkpt><trkpt lat="44.51431813499178" lon="8.422383102852706"><ele>403.33333333333337</ele><time>2026-04-19T14:01:12Z</time></trkpt><trkpt lat="44.51423421769791" lon="8.422616410493976"><ele>403.0</ele><time>2026-04-19T14:01:13Z</time></trkpt><trkpt lat="44.514173700592266" lon="8.42283679344042"><ele>403.25</ele><time>2026-04-19T14:01:14Z</time></trkpt><trkpt lat="44.51412140718773" lon="8.423036097169108"><ele>403.5</ele><time>2026-04-19T14:01:15Z</time></trkpt><trkpt lat="44.51404421042424" lon="8.423203140401407"><ele>403.75</ele><time>2026-04-19T14:01:16Z</time></trkpt><trkpt lat="44.51393850731248" lon="8.423353646530964"><ele>404.0</ele><time>2026-04-19T14:01:17Z</time></trkpt><trkpt lat="44.513838820227186" lon="8.423526925735448"><ele>404.0</ele><time>2026-04-19T14:01:18Z</time></trkpt><trkpt lat="44.51373586179366" lon="8.423707227656934"><ele>404.0</ele><time>2026-04-19T14:01:19Z</time></trkpt><trkpt lat="44.51363018850579" lon="8.423891420766452"><ele>404.0</ele><time>2026-04-19T14:01:20Z</time></trkpt><trkpt lat="44.513523806772646" lon="8.424075387917304"><ele>404.0</ele><time>2026-04-19T14:01:21Z</time></trkpt><trkpt lat="44.5134347628011" lon="8.424254985855953"><ele>404.0</ele><time>2026-04-19T14:01:22Z</time></trkpt><trkpt lat="44.513328581920334" lon="8.424379066306141"><ele>404.0</ele><time>2026-04-19T14:01:23Z</time></trkpt><trkpt lat="44.5132440989204" lon="8.42450899428163"><ele>404.0</ele><time>2026-04-19T14:01:24Z</time></trkpt><trkpt lat="44.51312638097491" lon="8.424573544375434"><ele>404.0</ele><time>2026-04-19T14:01:25Z</time></trkpt><trkpt lat="44.5130052691261" lon="8.424638538694122"><ele>404.0</ele><time>2026-04-19T14:01:26Z</time></trkpt><trkpt lat="44.51287250881051" lon="8.424702266002612"><ele>404.0</ele><time>2026-04-19T14:01:27Z</time></trkpt><trkpt lat="44.51273812051218" lon="8.424798171616604"><ele>404.0</ele><time>2026-04-19T14:01:28Z</time></trkpt><trkpt lat="44.51259144600682" lon="8.424885603656984"><ele>405.25</ele><time>2026-04-19T14:01:29Z</time></trkpt><trkpt lat="44.51245224178449" lon="8.424979213865104"><ele>406.5</ele><time>2026-04-19T14:01:30Z</time></trkpt><trkpt lat="44.512322256329604" lon="8.425055291107928"><ele>407.75</ele><time>2026-04-19T14:01:31Z</time></trkpt><trkpt lat="44.512203970936646" lon="8.425126091163014"><ele>409.0</ele><time>2026-04-19T14:01:32Z</time></trkpt><trkpt lat="44.51209625235556" lon="8.425213768996494"><ele>407.25</ele><time>2026-04-19T14:01:33Z</time></trkpt><trkpt lat="44.512001485110986" lon="8.425334639721168"><ele>405.5</ele><time>2026-04-19T14:01:34Z</time></trkpt><trkpt lat="44.511908465255196" lon="8.42548453432478"><ele>403.75</ele><time>2026-04-19T14:01:35Z</time></trkpt><trkpt lat="44.51180044934272" lon="8.42563492426989"><ele>402.0</ele><time>2026-04-19T14:01:36Z</time></trkpt><trkpt lat="44.51167686872791" lon="8.42577130264841"><ele>402.0</ele><time>2026-04-19T14:01:37Z</time></trkpt><trkpt lat="44.511558639144546" lon="8.42590219588423"><ele>402.0</ele><time>2026-04-19T14:01:38Z</time></trkpt><trkpt lat="44.511448672571284" lon="8.426040912074448"><ele>402.0</ele><time>2026-04-19T14:01:39Z</time></trkpt><trkpt lat="44.51135571155774" lon="8.42618748968423"><ele>402.0</ele><time>2026-04-19T14:01:40Z</time></trkpt><trkpt lat="44.51128823163379" lon="8.426307428313752"><ele>401.5</ele><time>2026-04-19T14:01:41Z</time></trkpt><trkpt lat="44.511221541780856" lon="8.426403214872243"><ele>401.0</ele><time>2026-04-19T14:01:42Z</time></trkpt><trkpt lat="44.51111917079613" lon="8.42644871862997"><ele>400.5</ele><time>2026-04-19T14:01:43Z</time></trkpt><trkpt lat="44.5109977149273" lon="8.426525692164978"><ele>400.0</ele><time>2026-04-19T14:01:44Z</time></trkpt><trkpt lat="44.51085851569852" lon="8.426613396378622"><ele>400.0</ele><time>2026-04-19T14:01:45Z</time></trkpt><trkpt lat="44.510732326122294" lon="8.426725559856076"><ele>400.0</ele><time>2026-04-19T14:01:46Z</time></trkpt><trkpt lat="44.51061552231099" lon="8.426817791503536"><ele>400.0</ele><time>2026-04-19T14:01:47Z</time></trkpt><trkpt lat="44.5105143931561" lon="8.426927032985574"><ele>400.0</ele><time>2026-04-19T14:01:48Z</time></trkpt><trkpt lat="44.510432340103264" lon="8.427051599805656"><ele>400.5</ele><time>2026-04-19T14:01:49Z</time></trkpt><trkpt lat="44.51035913562708" lon="8.427205025626147"><ele>401.0</ele><time>2026-04-19T14:01:50Z</time></trkpt><trkpt lat="44.51028103640721" lon="8.427357621537382"><ele>401.5</ele><time>2026-04-19T14:01:51Z</time></trkpt><trkpt lat="44.51019241481897" lon="8.427478740640712"><ele>402.0</ele><time>2026-04-19T14:01:52Z</time></trkpt><trkpt lat="44.51008722177085" lon="8.427539517349103"><ele>402.0</ele><time>2026-04-19T14:01:53Z</time></trkpt><trkpt lat="44.509971825446684" lon="8.427592645880988"><ele>402.0</ele><time>2026-04-19T14:01:54Z</time></trkpt><trkpt lat="44.50983478033891" lon="8.427618975672281"><ele>402.0</ele><time>2026-04-19T14:01:55Z</time></trkpt><trkpt lat="44.509692936969266" lon="8.427651689670219"><ele>402.0</ele><time>2026-04-19T14:01:56Z</time></trkpt><trkpt lat="44.50955728573629" lon="8.427714946945407"><ele>402.25</ele><time>2026-04-19T14:01:57Z</time></trkpt><trkpt lat="44.50941632960325" lon="8.427773817334243"><ele>402.5</ele><time>2026-04-19T14:01:58Z</time></trkpt><trkpt lat="44.50929854650575" lon="8.427834918654755"><ele>402.75</ele><time>2026-04-19T14:01:59Z</time></trkpt><trkpt lat="44.50919436807057" lon="8.42790585843328"><ele>403.0</ele><time>2026-04-19T14:02:00Z</time></trkpt><trkpt lat="44.509106708644254" lon="8.427973585312166"><ele>402.83333333333337</ele><time>2026-04-19T14:02:01Z</time></trkpt><trkpt lat="44.50903132545086" lon="8.428027764165789"><ele>402.6666666666667</ele><time>2026-04-19T14:02:02Z</time></trkpt><trkpt lat="44.508956240175486" lon="8.428061172367695"><ele>402.5</ele><time>2026-04-19T14:02:03Z</time></trkpt><trkpt lat="44.50886496608177" lon="8.428073123538475"><ele>402.33333333333337</ele><time>2026-04-19T14:02:04Z</time></trkpt><trkpt lat="44.508776057056856" lon="8.42807519819597"><ele>402.1666666666667</ele><time>2026-04-19T14:02:05Z</time></trkpt><trkpt lat="44.508693260620845" lon="8.428088889168775"><ele>402.0</ele><time>2026-04-19T14:02:06Z</time></trkpt><trkpt lat="44.508616934284916" lon="8.428120553552795"><ele>402.5</ele><time>2026-04-19T14:02:07Z</time></trkpt><trkpt lat="44.50855347898443" lon="8.428168330636494"><ele>403.0</ele><time>2026-04-19T14:02:08Z</time></trkpt><trkpt lat="44.50848694785484" lon="8.428207528021519"><ele>403.5</ele><time>2026-04-19T14:02:09Z</time></trkpt><trkpt lat="44.508426719515555" lon="8.428276616965846"><ele>404.0</ele><time>2026-04-19T14:02:10Z</time></trkpt><trkpt lat="44.50835693913895" lon="8.428347444342517"><ele>404.5</ele><time>2026-04-19T14:02:11Z</time></trkpt><trkpt lat="44.50827766283197" lon="8.428408207144534"><ele>405.0</ele><time>2026-04-19T14:02:12Z</time></trkpt><trkpt lat="44.50818490145063" lon="8.428457361096042"><ele>405.0</ele><time>2026-04-19T14:02:13Z</time></trkpt><trkpt lat="44.50809565383321" lon="8.428508534080228"><ele>405.0</ele><time>2026-04-19T14:02:14Z</time></trkpt><trkpt lat="44.50800193847543" lon="8.428523727242151"><ele>405.0</ele><time>2026-04-19T14:02:15Z</time></trkpt><trkpt lat="44.50789930913363" lon="8.428540821550694"><ele>405.0</ele><time>2026-04-19T14:02:16Z</time></trkpt><trkpt lat="44.50778679056393" lon="8.42855756288625"><ele>405.0</ele><time>2026-04-19T14:02:17Z</time></trkpt><trkpt lat="44.50766909996615" lon="8.42857160501318"><ele>403.6</ele><time>2026-04-19T14:02:18Z</time></trkpt><trkpt lat="44.507560242134105" lon="8.428583971376437"><ele>402.2</ele><time>2026-04-19T14:02:19Z</time></trkpt><trkpt lat="44.50745112972288" lon="8.428602536075617"><ele>400.79999999999995</ele><time>2026-04-19T14:02:20Z</time></trkpt><trkpt lat="44.50735116827403" lon="8.428623086326425"><ele>399.4</ele><time>2026-04-19T14:02:21Z</time></trkpt><trkpt lat="44.50725572954638" lon="8.428649264638496"><ele>398.0</ele><time>2026-04-19T14:02:22Z</time></trkpt><trkpt lat="44.50716981910468" lon="8.428660083946669"><ele>397.99999999999994</ele><time>2026-04-19T14:02:23Z</time></trkpt><trkpt lat="44.50710791249071" lon="8.428701924807887"><ele>398.0</ele><time>2026-04-19T14:02:24Z</time></trkpt><trkpt lat="44.50707088787634" lon="8.428774235655105"><ele>398.0</ele><time>2026-04-19T14:02:25Z</time></trkpt><trkpt lat="44.507099131910444" lon="8.428940120088752"><ele>398.0</ele><time>2026-04-19T14:02:27Z</time></trkpt><trkpt lat="44.50715265656579" lon="8.429031782503403"><ele>397.99999999999994</ele><time>2026-04-19T14:02:28Z</time></trkpt><trkpt lat="44.507209482742354" lon="8.429151052797318"><ele>398.0</ele><time>2026-04-19T14:02:29Z</time></trkpt><trkpt lat="44.507253864707955" lon="8.429299268198148"><ele>398.0</ele><time>2026-04-19T14:02:30Z</time></trkpt><trkpt lat="44.50727887263554" lon="8.429452808331218"><ele>398.0</ele><time>2026-04-19T14:02:31Z</time></trkpt><trkpt lat="44.507289440547225" lon="8.429602244914236"><ele>398.0</ele><time>2026-04-19T14:02:32Z</time></trkpt><trkpt lat="44.507275178555595" lon="8.429747297451412"><ele>398.0</ele><time>2026-04-19T14:02:33Z</time></trkpt><trkpt lat="44.5072820517911" lon="8.429894702747303"><ele>398.0</ele><time>2026-04-19T14:02:34Z</time></trkpt><trkpt lat="44.507321686905236" lon="8.430039109107216"><ele>396.0</ele><time>2026-04-19T14:02:35Z</time></trkpt><trkpt lat="44.50734752424006" lon="8.430191507269507"><ele>394.0</ele><time>2026-04-19T14:02:36Z</time></trkpt><trkpt lat="44.50736831166957" lon="8.430345700287132"><ele>392.0</ele><time>2026-04-19T14:02:37Z</time></trkpt><trkpt lat="44.50738788752405" lon="8.430503305934415"><ele>390.0</ele><time>2026-04-19T14:02:38Z</time></trkpt><trkpt lat="44.5074054370147" lon="8.43066184436492"><ele>389.0</ele><time>2026-04-19T14:02:39Z</time></trkpt><trkpt lat="44.50742194777115" lon="8.430826747893601"><ele>388.0</ele><time>2026-04-19T14:02:40Z</time></trkpt><trkpt lat="44.50743573125659" lon="8.430996716168123"><ele>387.0</ele><time>2026-04-19T14:02:41Z</time></trkpt><trkpt lat="44.50744873769577" lon="8.431161769076509"><ele>386.0</ele><time>2026-04-19T14:02:42Z</time></trkpt><trkpt lat="44.50745223517905" lon="8.43131391992343"><ele>384.49999999999994</ele><time>2026-04-19T14:02:43Z</time></trkpt><trkpt lat="44.507443914655084" lon="8.431448849720855"><ele>383.0</ele><time>2026-04-19T14:02:44Z</time></trkpt><trkpt lat="44.507421106982584" lon="8.431559931991137"><ele>381.5</ele><time>2026-04-19T14:02:45Z</time></trkpt><trkpt lat="44.50736463375732" lon="8.431631816871187"><ele>380.0</ele><time>2026-04-19T14:02:46Z</time></trkpt><trkpt lat="44.50730412971491" lon="8.431678074216261"><ele>378.5</ele><time>2026-04-19T14:02:47Z</time></trkpt><trkpt lat="44.50722715327157" lon="8.431699610643141"><ele>377.0</ele><time>2026-04-19T14:02:48Z</time></trkpt><trkpt lat="44.50712350213022" lon="8.431716439822678"><ele>376.8</ele><time>2026-04-19T14:02:49Z</time></trkpt><trkpt lat="44.50699775405518" lon="8.43173034571179"><ele>376.6</ele><time>2026-04-19T14:02:50Z</time></trkpt><trkpt lat="44.50688791739821" lon="8.431753547014166"><ele>376.40000000000003</ele><time>2026-04-19T14:02:51Z</time></trkpt><trkpt lat="44.5067908938518" lon="8.431781789893138"><ele>376.20000000000005</ele><time>2026-04-19T14:02:52Z</time></trkpt><trkpt lat="44.50670873003824" lon="8.431814338464555"><ele>376.0</ele><time>2026-04-19T14:02:53Z</time></trkpt><trkpt lat="44.50664147551518" lon="8.431854710297163"><ele>376.0</ele><time>2026-04-19T14:02:53.999Z</time></trkpt><trkpt lat="44.50659158171544" lon="8.431916037719219"><ele>376.0</ele><time>2026-04-19T14:02:54.999Z</time></trkpt><trkpt lat="44.50657724241191" lon="8.432003992834863"><ele>376.0</ele><time>2026-04-19T14:02:55.999Z</time></trkpt><trkpt lat="44.50659301698736" lon="8.432092433281284"><ele>376.0</ele><time>2026-04-19T14:02:56.999Z</time></trkpt><trkpt lat="44.506652079306924" lon="8.432173987246085"><ele>376.0</ele><time>2026-04-19T14:02:57.999Z</time></trkpt><trkpt lat="44.50674754206427" lon="8.432163811534437"><ele>376.0</ele><time>2026-04-19T14:02:58.999Z</time></trkpt><trkpt lat="44.50683659076193" lon="8.432136424024973"><ele>376.0</ele><time>2026-04-19T14:02:59.999Z</time></trkpt><trkpt lat="44.50691926471588" lon="8.432130684170964"><ele>376.0</ele><time>2026-04-19T14:03:00.998Z</time></trkpt><trkpt lat="44.50699517255565" lon="8.432176226314608"><ele>376.0</ele><time>2026-04-19T14:03:01.998Z</time></trkpt><trkpt lat="44.50707268505189" lon="8.432261784078882"><ele>376.0</ele><time>2026-04-19T14:03:02.998Z</time></trkpt><trkpt lat="44.507155766411266" lon="8.432360742946166"><ele>376.0</ele><time>2026-04-19T14:03:03.998Z</time></trkpt><trkpt lat="44.50723605189117" lon="8.432467072930761"><ele>373.8</ele><time>2026-04-19T14:03:04.998Z</time></trkpt><trkpt lat="44.507311278765975" lon="8.432538709283433"><ele>371.6</ele><time>2026-04-19T14:03:05.998Z</time></trkpt><trkpt lat="44.507374405501835" lon="8.432604837492468"><ele>369.4</ele><time>2026-04-19T14:03:06.998Z</time></trkpt><trkpt lat="44.507416004685915" lon="8.432706390781307"><ele>367.2</ele><time>2026-04-19T14:03:07.998Z</time></trkpt><trkpt lat="44.50743916198066" lon="8.432853335121399"><ele>365.0</ele><time>2026-04-19T14:03:08.998Z</time></trkpt><trkpt lat="44.50745637101088" lon="8.433009358586396"><ele>365.0</ele><time>2026-04-19T14:03:09.998Z</time></trkpt><trkpt lat="44.50748072423982" lon="8.433130567930172"><ele>365.0</ele><time>2026-04-19T14:03:10.998Z</time></trkpt><trkpt lat="44.507519622549395" lon="8.433208171918292"><ele>365.0</ele><time>2026-04-19T14:03:11.997Z</time></trkpt><trkpt lat="44.507593816945594" lon="8.433306086924999"><ele>365.0</ele><time>2026-04-19T14:03:13.997Z</time></trkpt><trkpt lat="44.50766184068774" lon="8.433250425358285"><ele>365.0</ele><time>2026-04-19T14:03:14.997Z</time></trkpt><trkpt lat="44.507664739122326" lon="8.433110291786154"><ele>365.0</ele><time>2026-04-19T14:03:15.997Z</time></trkpt><trkpt lat="44.50768548724644" lon="8.432964457012385"><ele>365.0</ele><time>2026-04-19T14:03:16.997Z</time></trkpt><trkpt lat="44.50769962941999" lon="8.43278809949899"><ele>365.0</ele><time>2026-04-19T14:03:17.997Z</time></trkpt><trkpt lat="44.50771667066694" lon="8.432610071308366"><ele>365.0</ele><time>2026-04-19T14:03:18.997Z</time></trkpt><trkpt lat="44.507734673972614" lon="8.432457078304175"><ele>365.0</ele><time>2026-04-19T14:03:19.997Z</time></trkpt><trkpt lat="44.5077620854946" lon="8.432325094573393"><ele>365.0</ele><time>2026-04-19T14:03:20.997Z</time></trkpt><trkpt lat="44.5077965252456" lon="8.432230245058218"><ele>365.0</ele><time>2026-04-19T14:03:21.997Z</time></trkpt><trkpt lat="44.50784381540296" lon="8.432165955440276"><ele>365.0</ele><time>2026-04-19T14:03:22.997Z</time></trkpt><trkpt lat="44.50793778550167" lon="8.432156863480621"><ele>365.0</ele><time>2026-04-19T14:03:24.997Z</time></trkpt><trkpt lat="44.50800657487272" lon="8.432267215002469"><ele>365.0</ele><time>2026-04-19T14:03:26.997Z</time></trkpt><trkpt lat="44.50798839486349" lon="8.432370169169175"><ele>365.0</ele><time>2026-04-19T14:03:27.997Z</time></trkpt><trkpt lat="44.50796895875645" lon="8.432476899795375"><ele>364.75</ele><time>2026-04-19T14:03:28.997Z</time></trkpt><trkpt lat="44.50796897805246" lon="8.432609505439851"><ele>364.5</ele><time>2026-04-19T14:03:29.997Z</time></trkpt><trkpt lat="44.50794439006595" lon="8.432758943282373"><ele>364.25</ele><time>2026-04-19T14:03:30.997Z</time></trkpt><trkpt lat="44.507939319997384" lon="8.432927061045142"><ele>364.0</ele><time>2026-04-19T14:03:31.997Z</time></trkpt><trkpt lat="44.50795855456249" lon="8.433107595305822"><ele>362.5</ele><time>2026-04-19T14:03:32.997Z</time></trkpt><trkpt lat="44.50797372816506" lon="8.433311903577437"><ele>361.0</ele><time>2026-04-19T14:03:33.997Z</time></trkpt><trkpt lat="44.50799515916805" lon="8.433509260625085"><ele>359.5</ele><time>2026-04-19T14:03:34.997Z</time></trkpt><trkpt lat="44.50801773531799" lon="8.43370343022761"><ele>358.0</ele><time>2026-04-19T14:03:35.997Z</time></trkpt><trkpt lat="44.50804138725541" lon="8.43388156564388"><ele>355.79999999999995</ele><time>2026-04-19T14:03:36.997Z</time></trkpt><trkpt lat="44.508071400017464" lon="8.434047810746941"><ele>353.6</ele><time>2026-04-19T14:03:37.997Z</time></trkpt><trkpt lat="44.50810546983755" lon="8.434183622060212"><ele>351.4</ele><time>2026-04-19T14:03:38.997Z</time></trkpt><trkpt lat="44.508139211531564" lon="8.43430540615765"><ele>349.20000000000005</ele><time>2026-04-19T14:03:39.997Z</time></trkpt><trkpt lat="44.508139501092344" lon="8.43444555942691"><ele>347.0</ele><time>2026-04-19T14:03:40.997Z</time></trkpt><trkpt lat="44.508116366630404" lon="8.434574644062636"><ele>344.8</ele><time>2026-04-19T14:03:41.997Z</time></trkpt><trkpt lat="44.508097976564954" lon="8.434699546017558"><ele>342.6</ele><time>2026-04-19T14:03:42.997Z</time></trkpt><trkpt lat="44.50807162820236" lon="8.434817335839584"><ele>340.40000000000003</ele><time>2026-04-19T14:03:43.997Z</time></trkpt><trkpt lat="44.50804310282708" lon="8.434938037691706"><ele>338.20000000000005</ele><time>2026-04-19T14:03:44.997Z</time></trkpt><trkpt lat="44.508014720283995" lon="8.435058134375067"><ele>336.0</ele><time>2026-04-19T14:03:45.997Z</time></trkpt><trkpt lat="44.50798606265146" lon="8.435190447943544"><ele>336.0</ele><time>2026-04-19T14:03:46.997Z</time></trkpt><trkpt lat="44.50795789235767" lon="8.435337648040695"><ele>336.0</ele><time>2026-04-19T14:03:47.997Z</time></trkpt><trkpt lat="44.5079445625993" lon="8.435477869476447"><ele>336.0</ele><time>2026-04-19T14:03:48.997Z</time></trkpt><trkpt lat="44.50794739538624" lon="8.435606421042495"><ele>336.0</ele><time>2026-04-19T14:03:49.997Z</time></trkpt><trkpt lat="44.507949449618465" lon="8.435721674401043"><ele>336.0</ele><time>2026-04-19T14:03:50.997Z</time></trkpt><trkpt lat="44.50795237385522" lon="8.43581855089205"><ele>334.4</ele><time>2026-04-19T14:03:51.997Z</time></trkpt><trkpt lat="44.50795608875062" lon="8.435923455202675"><ele>332.8</ele><time>2026-04-19T14:03:54.997Z</time></trkpt><trkpt lat="44.50810853589132" lon="8.43597237978978"><ele>331.2</ele><time>2026-04-19T14:03:56.997Z</time></trkpt><trkpt lat="44.50820259506276" lon="8.435968500604426"><ele>329.59999999999997</ele><time>2026-04-19T14:03:57.997Z</time></trkpt><trkpt lat="44.508323041370424" lon="8.435962287296697"><ele>328.0</ele><time>2026-04-19T14:03:58.997Z</time></trkpt><trkpt lat="44.50846793564847" lon="8.435988162485861"><ele>328.0</ele><time>2026-04-19T14:03:59.997Z</time></trkpt><trkpt lat="44.50863508205635" lon="8.435970500034548"><ele>328.0</ele><time>2026-04-19T14:04:00.997Z</time></trkpt><trkpt lat="44.508784531258335" lon="8.435991690882572"><ele>328.0</ele><time>2026-04-19T14:04:01.997Z</time></trkpt><trkpt lat="44.50892376610752" lon="8.43602291259638"><ele>328.0</ele><time>2026-04-19T14:04:02.997Z</time></trkpt><trkpt lat="44.509051457547564" lon="8.436099400082377"><ele>328.0</ele><time>2026-04-19T14:04:03.997Z</time></trkpt><trkpt lat="44.50916988801927" lon="8.436253797677567"><ele>328.0</ele><time>2026-04-19T14:04:04.997Z</time></trkpt><trkpt lat="44.50930994273342" lon="8.436408927443765"><ele>327.66666666666663</ele><time>2026-04-19T14:04:05.997Z</time></trkpt><trkpt lat="44.509433942278406" lon="8.43657751123594"><ele>327.3333333333333</ele><time>2026-04-19T14:04:06.997Z</time></trkpt><trkpt lat="44.50957134528392" lon="8.436734158947903"><ele>327.0</ele><time>2026-04-19T14:04:07.997Z</time></trkpt><trkpt lat="44.50972095029738" lon="8.436877017016474"><ele>327.0</ele><time>2026-04-19T14:04:08.997Z</time></trkpt><trkpt lat="44.50985903936283" lon="8.437018848164525"><ele>327.0</ele><time>2026-04-19T14:04:09.997Z</time></trkpt><trkpt lat="44.50998170129379" lon="8.437184472490937"><ele>327.0</ele><time>2026-04-19T14:04:10.997Z</time></trkpt><trkpt lat="44.510099083505914" lon="8.437372639621993"><ele>325.3333333333333</ele><time>2026-04-19T14:04:11.997Z</time></trkpt><trkpt lat="44.51020266757375" lon="8.43757319968271"><ele>323.66666666666663</ele><time>2026-04-19T14:04:12.997Z</time></trkpt><trkpt lat="44.51027701590587" lon="8.43781383614081"><ele>322.0</ele><time>2026-04-19T14:04:13.997Z</time></trkpt><trkpt lat="44.51036151759662" lon="8.438067585290725"><ele>321.3333333333333</ele><time>2026-04-19T14:04:14.997Z</time></trkpt><trkpt lat="44.51044863602506" lon="8.438324577920673"><ele>320.6666666666667</ele><time>2026-04-19T14:04:15.997Z</time></trkpt><trkpt lat="44.51054962710483" lon="8.43857829671345"><ele>320.0</ele><time>2026-04-19T14:04:16.997Z</time></trkpt><trkpt lat="44.51063267717898" lon="8.438828177570967"><ele>319.6666666666667</ele><time>2026-04-19T14:04:17.997Z</time></trkpt><trkpt lat="44.51070097725332" lon="8.439071033809821"><ele>319.3333333333333</ele><time>2026-04-19T14:04:18.997Z</time></trkpt><trkpt lat="44.51079887385603" lon="8.439270625786891"><ele>319.0</ele><time>2026-04-19T14:04:19.997Z</time></trkpt><trkpt lat="44.51089834889357" lon="8.43943003656834"><ele>319.0</ele><time>2026-04-19T14:04:20.997Z</time></trkpt><trkpt lat="44.51098467928158" lon="8.439573563261648"><ele>319.0</ele><time>2026-04-19T14:04:21.997Z</time></trkpt><trkpt lat="44.511020918562146" lon="8.439742581012725"><ele>319.0</ele><time>2026-04-19T14:04:22.997Z</time></trkpt><trkpt lat="44.51100992176507" lon="8.43990847036393"><ele>319.0</ele><time>2026-04-19T14:04:23.997Z</time></trkpt><trkpt lat="44.51094103048028" lon="8.440072507822231"><ele>318.66666666666663</ele><time>2026-04-19T14:04:24.997Z</time></trkpt><trkpt lat="44.51086449341416" lon="8.440271993968166"><ele>318.3333333333333</ele><time>2026-04-19T14:04:25.997Z</time></trkpt><trkpt lat="44.51076673396729" lon="8.440491735871108"><ele>318.0</ele><time>2026-04-19T14:04:26.997Z</time></trkpt><trkpt lat="44.510658299931855" lon="8.44071468354359"><ele>318.0</ele><time>2026-04-19T14:04:27.997Z</time></trkpt><trkpt lat="44.51054056217859" lon="8.440892872167659"><ele>318.0</ele><time>2026-04-19T14:04:28.997Z</time></trkpt><trkpt lat="44.51044754400882" lon="8.441044239459927"><ele>318.0</ele><time>2026-04-19T14:04:29.997Z</time></trkpt><trkpt lat="44.51038422632176" lon="8.441174179154663"><ele>318.0</ele><time>2026-04-19T14:04:30.997Z</time></trkpt><trkpt lat="44.51034920291994" lon="8.441309594045107"><ele>318.0</ele><time>2026-04-19T14:04:31.997Z</time></trkpt><trkpt lat="44.51032975248985" lon="8.441449132690902"><ele>318.0</ele><time>2026-04-19T14:04:32.997Z</time></trkpt><trkpt lat="44.51039305885176" lon="8.441589999425323"><ele>318.0</ele><time>2026-04-19T14:04:33.997Z</time></trkpt><trkpt lat="44.510473839223216" lon="8.441736137032494"><ele>318.0</ele><time>2026-04-19T14:04:34.997Z</time></trkpt><trkpt lat="44.510591558729075" lon="8.441888388125546"><ele>318.0</ele><time>2026-04-19T14:04:35.997Z</time></trkpt><trkpt lat="44.51070657830172" lon="8.44209736632847"><ele>318.0</ele><time>2026-04-19T14:04:36.997Z</time></trkpt><trkpt lat="44.5108469189462" lon="8.442322661358366"><ele>318.0</ele><time>2026-04-19T14:04:37.997Z</time></trkpt><trkpt lat="44.51097613675342" lon="8.442587459128521"><ele>318.0</ele><time>2026-04-19T14:04:38.997Z</time></trkpt><trkpt lat="44.511075758586216" lon="8.442855275630185"><ele>318.0</ele><time>2026-04-19T14:04:39.997Z</time></trkpt><trkpt lat="44.511159845463936" lon="8.443088213953715"><ele>318.0</ele><time>2026-04-19T14:04:40.997Z</time></trkpt><trkpt lat="44.51124114600559" lon="8.443268312276066"><ele>318.3333333333333</ele><time>2026-04-19T14:04:41.997Z</time></trkpt><trkpt lat="44.51129416342926" lon="8.443462039949635"><ele>318.66666666666663</ele><time>2026-04-19T14:04:42.997Z</time></trkpt><trkpt lat="44.51139542122425" lon="8.443664942257108"><ele>319.0</ele><time>2026-04-19T14:04:43.997Z</time></trkpt><trkpt lat="44.511539714162026" lon="8.443825906568557"><ele>317.66666666666663</ele><time>2026-04-19T14:04:44.997Z</time></trkpt><trkpt lat="44.5116822865609" lon="8.443952014327754"><ele>316.3333333333333</ele><time>2026-04-19T14:04:45.997Z</time></trkpt><trkpt lat="44.511829873590365" lon="8.444054260637019"><ele>315.0</ele><time>2026-04-19T14:04:46.997Z</time></trkpt><trkpt lat="44.511993709673966" lon="8.444080559904188"><ele>315.3333333333333</ele><time>2026-04-19T14:04:47.997Z</time></trkpt><trkpt lat="44.512158851745475" lon="8.444029967555961"><ele>315.66666666666663</ele><time>2026-04-19T14:04:48.997Z</time></trkpt><trkpt lat="44.51231934498358" lon="8.444004534728979"><ele>316.0</ele><time>2026-04-19T14:04:49.998Z</time></trkpt><trkpt lat="44.51246514350887" lon="8.444053816007568"><ele>316.0</ele><time>2026-04-19T14:04:50.998Z</time></trkpt><trkpt lat="44.51259898596107" lon="8.444108075386888"><ele>316.0</ele><time>2026-04-19T14:04:51.998Z</time></trkpt><trkpt lat="44.51272222810842" lon="8.444156383288382"><ele>316.0</ele><time>2026-04-19T14:04:52.998Z</time></trkpt><trkpt lat="44.51281571687895" lon="8.444281063941263"><ele>316.0</ele><time>2026-04-19T14:04:53.998Z</time></trkpt><trkpt lat="44.5128789543944" lon="8.444469925643876"><ele>317.66666666666663</ele><time>2026-04-19T14:04:54.998Z</time></trkpt><trkpt lat="44.51294630025913" lon="8.444684403612044"><ele>319.3333333333333</ele><time>2026-04-19T14:04:55.998Z</time></trkpt><trkpt lat="44.51301809742943" lon="8.444907596937602"><ele>321.0</ele><time>2026-04-19T14:04:56.998Z</time></trkpt><trkpt lat="44.51307619420083" lon="8.445107764552962"><ele>321.0</ele><time>2026-04-19T14:04:57.999Z</time></trkpt><trkpt lat="44.51312172788178" lon="8.445330964682805"><ele>321.0</ele><time>2026-04-19T14:04:58.999Z</time></trkpt><trkpt lat="44.51315514597459" lon="8.445575379928899"><ele>321.0</ele><time>2026-04-19T14:04:59.999Z</time></trkpt><trkpt lat="44.51320101249337" lon="8.44583345664211"><ele>319.6666666666667</ele><time>2026-04-19T14:05:00.999Z</time></trkpt><trkpt lat="44.513246613785824" lon="8.44611086860558"><ele>318.33333333333337</ele><time>2026-04-19T14:05:01.999Z</time></trkpt><trkpt lat="44.51330145461271" lon="8.446397758052337"><ele>317.0</ele><time>2026-04-19T14:05:02.999Z</time></trkpt><trkpt lat="44.51335671830104" lon="8.44668834901341"><ele>316.0</ele><time>2026-04-19T14:05:03.999Z</time></trkpt><trkpt lat="44.51342363328127" lon="8.446989481555125"><ele>315.0</ele><time>2026-04-19T14:05:04.999Z</time></trkpt><trkpt lat="44.51349593616814" lon="8.4473034869858"><ele>314.5</ele><time>2026-04-19T14:05:05.999Z</time></trkpt><trkpt lat="44.513569227856614" lon="8.447630508590317"><ele>314.0</ele><time>2026-04-19T14:05:06.999Z</time></trkpt><trkpt lat="44.513623129339074" lon="8.4479436097605"><ele>313.0</ele><time>2026-04-19T14:05:07.999Z</time></trkpt><trkpt lat="44.513693484623175" lon="8.448236297905856"><ele>312.0</ele><time>2026-04-19T14:05:08.999Z</time></trkpt><trkpt lat="44.51376967784252" lon="8.448513797454044"><ele>311.0</ele><time>2026-04-19T14:05:09.999Z</time></trkpt><trkpt lat="44.513838240543045" lon="8.448770344524133"><ele>314.0</ele><time>2026-04-19T14:05:10.999Z</time></trkpt><trkpt lat="44.513900951966285" lon="8.449001907723495"><ele>317.0</ele><time>2026-04-19T14:05:11.999Z</time></trkpt><trkpt lat="44.513957680895146" lon="8.449205223623528"><ele>320.0</ele><time>2026-04-19T14:05:12.999Z</time></trkpt><trkpt lat="44.51401337678823" lon="8.449375772317042"><ele>320.0</ele><time>2026-04-19T14:05:14Z</time></trkpt><trkpt lat="44.514004836195014" lon="8.449542049740591"><ele>320.0</ele><time>2026-04-19T14:05:15Z</time></trkpt><trkpt lat="44.51397484542916" lon="8.449701627624988"><ele>320.0</ele><time>2026-04-19T14:05:16Z</time></trkpt><trkpt lat="44.51392089505027" lon="8.449866157309936"><ele>320.0</ele><time>2026-04-19T14:05:17Z</time></trkpt><trkpt lat="44.513845775838234" lon="8.450055602313348"><ele>320.75</ele><time>2026-04-19T14:05:18Z</time></trkpt><trkpt lat="44.513765702908735" lon="8.450261744950048"><ele>321.5</ele><time>2026-04-19T14:05:19Z</time></trkpt><trkpt lat="44.5136978315025" lon="8.450438516960276"><ele>322.25</ele><time>2026-04-19T14:05:20Z</time></trkpt><trkpt lat="44.51365045899434" lon="8.450611845117383"><ele>323.0</ele><time>2026-04-19T14:05:21Z</time></trkpt><trkpt lat="44.51359913357553" lon="8.450759247007914"><ele>322.4</ele><time>2026-04-19T14:05:22Z</time></trkpt><trkpt lat="44.51356362821422" lon="8.450898885540783"><ele>321.79999999999995</ele><time>2026-04-19T14:05:23Z</time></trkpt><trkpt lat="44.51353860045567" lon="8.451029025270216"><ele>321.2</ele><time>2026-04-19T14:05:24Z</time></trkpt><trkpt lat="44.51350080706481" lon="8.451143293692812"><ele>320.6</ele><time>2026-04-19T14:05:25Z</time></trkpt><trkpt lat="44.5134746211155" lon="8.451262156355096"><ele>320.0</ele><time>2026-04-19T14:05:26Z</time></trkpt><trkpt lat="44.51344367766254" lon="8.451403645717738"><ele>320.0</ele><time>2026-04-19T14:05:27Z</time></trkpt><trkpt lat="44.51342764570299" lon="8.451574476804625"><ele>320.0</ele><time>2026-04-19T14:05:28Z</time></trkpt><trkpt lat="44.513400048868135" lon="8.451732649768784"><ele>320.0</ele><time>2026-04-19T14:05:29Z</time></trkpt><trkpt lat="44.513356877397655" lon="8.451863347173994"><ele>320.0</ele><time>2026-04-19T14:05:30Z</time></trkpt><trkpt lat="44.513329275983374" lon="8.45199206030985"><ele>320.0</ele><time>2026-04-19T14:05:31Z</time></trkpt><trkpt lat="44.5133005120558" lon="8.452113100973198"><ele>320.0</ele><time>2026-04-19T14:05:32Z</time></trkpt><trkpt lat="44.51327104999098" lon="8.452222789596258"><ele>320.0</ele><time>2026-04-19T14:05:33Z</time></trkpt><trkpt lat="44.51323721603262" lon="8.452315395953962"><ele>320.0</ele><time>2026-04-19T14:05:34Z</time></trkpt><trkpt lat="44.51319509749801" lon="8.452397732046824"><ele>320.0</ele><time>2026-04-19T14:05:35Z</time></trkpt><trkpt lat="44.51314059398348" lon="8.452478538302456"><ele>320.0</ele><time>2026-04-19T14:05:36Z</time></trkpt><trkpt lat="44.513070448141136" lon="8.452568453222785"><ele>320.0</ele><time>2026-04-19T14:05:37Z</time></trkpt><trkpt lat="44.51298521284243" lon="8.452660529502776"><ele>318.4</ele><time>2026-04-19T14:05:38Z</time></trkpt><trkpt lat="44.512886892140756" lon="8.452765097507145"><ele>316.8</ele><time>2026-04-19T14:05:39Z</time></trkpt><trkpt lat="44.51280831902103" lon="8.452873684524466"><ele>315.2</ele><time>2026-04-19T14:05:40Z</time></trkpt><trkpt lat="44.51272915073703" lon="8.45296131427301"><ele>313.6</ele><time>2026-04-19T14:05:41Z</time></trkpt><trkpt lat="44.51265928315709" lon="8.45304779629017"><ele>312.0</ele><time>2026-04-19T14:05:42Z</time></trkpt><trkpt lat="44.512605264086076" lon="8.45314098072247"><ele>312.0</ele><time>2026-04-19T14:05:43Z</time></trkpt><trkpt lat="44.51256159539312" lon="8.45323600583935"><ele>312.0</ele><time>2026-04-19T14:05:44Z</time></trkpt><trkpt lat="44.51252339157825" lon="8.453328860744932"><ele>312.0</ele><time>2026-04-19T14:05:45Z</time></trkpt><trkpt lat="44.51247604920009" lon="8.453416118711086"><ele>312.0</ele><time>2026-04-19T14:05:46Z</time></trkpt><trkpt lat="44.51247031212425" lon="8.453536646908136"><ele>312.0</ele><time>2026-04-19T14:05:47Z</time></trkpt><trkpt lat="44.512475842660855" lon="8.453658044658223"><ele>312.0</ele><time>2026-04-19T14:05:48Z</time></trkpt><trkpt lat="44.512517782950226" lon="8.453777251347114"><ele>311.4</ele><time>2026-04-19T14:05:49Z</time></trkpt><trkpt lat="44.512582388757814" lon="8.453888263615948"><ele>310.79999999999995</ele><time>2026-04-19T14:05:50Z</time></trkpt><trkpt lat="44.512663872767" lon="8.453994322562554"><ele>310.2</ele><time>2026-04-19T14:05:51Z</time></trkpt><trkpt lat="44.51275419934606" lon="8.454092733748833"><ele>309.59999999999997</ele><time>2026-04-19T14:05:52Z</time></trkpt><trkpt lat="44.51284981012953" lon="8.454175531920576"><ele>309.0</ele><time>2026-04-19T14:05:53Z</time></trkpt><trkpt lat="44.51295961079832" lon="8.454225735405391"><ele>309.0</ele><time>2026-04-19T14:05:54Z</time></trkpt><trkpt lat="44.513083424665396" lon="8.454244034507603"><ele>309.0</ele><time>2026-04-19T14:05:55Z</time></trkpt><trkpt lat="44.513215976159294" lon="8.454232169736011"><ele>309.0</ele><time>2026-04-19T14:05:56Z</time></trkpt><trkpt lat="44.5133654673848" lon="8.454190628627627"><ele>309.0</ele><time>2026-04-19T14:05:57Z</time></trkpt><trkpt lat="44.5135346177531" lon="8.454174444189343"><ele>309.0</ele><time>2026-04-19T14:05:58Z</time></trkpt><trkpt lat="44.51369036708526" lon="8.45414811168109"><ele>309.0</ele><time>2026-04-19T14:05:59Z</time></trkpt><trkpt lat="44.51381562768638" lon="8.454128023683388"><ele>309.0</ele><time>2026-04-19T14:06:00Z</time></trkpt><trkpt lat="44.513933215744174" lon="8.454098095484467"><ele>309.0</ele><time>2026-04-19T14:06:01Z</time></trkpt><trkpt lat="44.514053078712266" lon="8.454106229963166"><ele>310.25</ele><time>2026-04-19T14:06:02Z</time></trkpt><trkpt lat="44.51416627756169" lon="8.454153517002396"><ele>311.5</ele><time>2026-04-19T14:06:03Z</time></trkpt><trkpt lat="44.51427472777576" lon="8.45424967035245"><ele>312.75</ele><time>2026-04-19T14:06:04Z</time></trkpt><trkpt lat="44.51438535557146" lon="8.454385049782312"><ele>314.0</ele><time>2026-04-19T14:06:05Z</time></trkpt><trkpt lat="44.514507814834175" lon="8.454529444196346"><ele>312.0</ele><time>2026-04-19T14:06:06Z</time></trkpt><trkpt lat="44.51464895631701" lon="8.454658875902489"><ele>310.0</ele><time>2026-04-19T14:06:07Z</time></trkpt><trkpt lat="44.514797928995456" lon="8.454798802356054"><ele>308.0</ele><time>2026-04-19T14:06:08Z</time></trkpt><trkpt lat="44.51497682953806" lon="8.454913714508468"><ele>308.0</ele><time>2026-04-19T14:06:09Z</time></trkpt><trkpt lat="44.51517344209799" lon="8.45503831789833"><ele>308.0</ele><time>2026-04-19T14:06:10Z</time></trkpt><trkpt lat="44.51535697698272" lon="8.45516627504365"><ele>308.0</ele><time>2026-04-19T14:06:11Z</time></trkpt><trkpt lat="44.515525328413474" lon="8.455296300142702"><ele>308.33333333333337</ele><time>2026-04-19T14:06:12Z</time></trkpt><trkpt lat="44.51567611919735" lon="8.455439884451115"><ele>308.6666666666667</ele><time>2026-04-19T14:06:13Z</time></trkpt><trkpt lat="44.51580705769917" lon="8.455598607550966"><ele>309.0</ele><time>2026-04-19T14:06:14Z</time></trkpt><trkpt lat="44.515931855783364" lon="8.455748218908276"><ele>309.0</ele><time>2026-04-19T14:06:15Z</time></trkpt><trkpt lat="44.51603187940298" lon="8.455918771944448"><ele>309.0</ele><time>2026-04-19T14:06:16Z</time></trkpt><trkpt lat="44.51610193812521" lon="8.456122641204235"><ele>309.0</ele><time>2026-04-19T14:06:17Z</time></trkpt><trkpt lat="44.516169365978776" lon="8.456343847163913"><ele>306.6666666666667</ele><time>2026-04-19T14:06:18Z</time></trkpt><trkpt lat="44.51622426576132" lon="8.456589907889047"><ele>304.33333333333337</ele><time>2026-04-19T14:06:19Z</time></trkpt><trkpt lat="44.51626150039374" lon="8.456824141827074"><ele>302.0</ele><time>2026-04-19T14:06:20Z</time></trkpt><trkpt lat="44.516282252973305" lon="8.457047466651838"><ele>304.25</ele><time>2026-04-19T14:06:21Z</time></trkpt><trkpt lat="44.51627440376499" lon="8.457234144945426"><ele>306.5</ele><time>2026-04-19T14:06:22Z</time></trkpt><trkpt lat="44.51626353273773" lon="8.457391904930217"><ele>308.75</ele><time>2026-04-19T14:06:23Z</time></trkpt><trkpt lat="44.51628184545979" lon="8.45755012211616"><ele>311.0</ele><time>2026-04-19T14:06:24Z</time></trkpt><trkpt lat="44.51633107815838" lon="8.45772564296814"><ele>311.0</ele><time>2026-04-19T14:06:25Z</time></trkpt><trkpt lat="44.51641461935934" lon="8.45789190750834"><ele>311.0</ele><time>2026-04-19T14:06:26Z</time></trkpt><trkpt lat="44.51649800191453" lon="8.458039295648254"><ele>311.0</ele><time>2026-04-19T14:06:27Z</time></trkpt><trkpt lat="44.51662269095921" lon="8.458117261829125"><ele>311.0</ele><time>2026-04-19T14:06:28Z</time></trkpt><trkpt lat="44.5167536989578" lon="8.45816730336446"><ele>309.5</ele><time>2026-04-19T14:06:29Z</time></trkpt><trkpt lat="44.516889988573546" lon="8.458206208762144"><ele>308.0</ele><time>2026-04-19T14:06:30Z</time></trkpt><trkpt lat="44.5170126585269" lon="8.4582357416956"><ele>306.5</ele><time>2026-04-19T14:06:31Z</time></trkpt><trkpt lat="44.51712133357753" lon="8.458303277355471"><ele>305.0</ele><time>2026-04-19T14:06:32Z</time></trkpt><trkpt lat="44.517214602085545" lon="8.458454031546704"><ele>305.0</ele><time>2026-04-19T14:06:33Z</time></trkpt><trkpt lat="44.51731669366489" lon="8.458657212525956"><ele>305.0</ele><time>2026-04-19T14:06:34Z</time></trkpt><trkpt lat="44.51742946387422" lon="8.458888129745002"><ele>305.0</ele><time>2026-04-19T14:06:35Z</time></trkpt><trkpt lat="44.51755451165064" lon="8.459141149710561"><ele>301.5</ele><time>2026-04-19T14:06:36Z</time></trkpt><trkpt lat="44.517696150691336" lon="8.459405327452465"><ele>298.0</ele><time>2026-04-19T14:06:37Z</time></trkpt><trkpt lat="44.51784950612182" lon="8.459680718350402"><ele>299.0</ele><time>2026-04-19T14:06:38Z</time></trkpt><trkpt lat="44.51800983009413" lon="8.459962644132297"><ele>300.0</ele><time>2026-04-19T14:06:39Z</time></trkpt><trkpt lat="44.51816972649809" lon="8.460225527528323"><ele>299.5</ele><time>2026-04-19T14:06:40Z</time></trkpt><trkpt lat="44.51830563999315" lon="8.460494924297949"><ele>299.0</ele><time>2026-04-19T14:06:41Z</time></trkpt><trkpt lat="44.5184347071907" lon="8.460758270542419"><ele>299.0</ele><time>2026-04-19T14:06:42Z</time></trkpt><trkpt lat="44.51854838322067" lon="8.461039174766688"><ele>299.0</ele><time>2026-04-19T14:06:43Z</time></trkpt><trkpt lat="44.51868145287421" lon="8.461323357341152"><ele>300.5</ele><time>2026-04-19T14:06:44Z</time></trkpt><trkpt lat="44.51881102133423" lon="8.46160319632"><ele>302.0</ele><time>2026-04-19T14:06:45Z</time></trkpt><trkpt lat="44.51893589869049" lon="8.461872903789148"><ele>300.5</ele><time>2026-04-19T14:06:46Z</time></trkpt><trkpt lat="44.5190531075078" lon="8.462157230783959"><ele>299.0</ele><time>2026-04-19T14:06:47Z</time></trkpt><trkpt lat="44.51916029818771" lon="8.462473917991558"><ele>299.0</ele><time>2026-04-19T14:06:48Z</time></trkpt><trkpt lat="44.5192696324926" lon="8.462798778261725"><ele>299.0</ele><time>2026-04-19T14:06:49Z</time></trkpt><trkpt lat="44.51938023660353" lon="8.463126107325206"><ele>296.5</ele><time>2026-04-19T14:06:50Z</time></trkpt><trkpt lat="44.51948947159886" lon="8.463447469451424"><ele>294.0</ele><time>2026-04-19T14:06:51Z</time></trkpt><trkpt lat="44.51959319595366" lon="8.463752087477982"><ele>302.0</ele><time>2026-04-19T14:06:52Z</time></trkpt><trkpt lat="44.51969036132783" lon="8.464044608139387"><ele>310.0</ele><time>2026-04-19T14:06:53Z</time></trkpt><trkpt lat="44.51978264127437" lon="8.464326500276277"><ele>310.0</ele><time>2026-04-19T14:06:54Z</time></trkpt><trkpt lat="44.51987227395871" lon="8.464600305646096"><ele>310.0</ele><time>2026-04-19T14:06:55Z</time></trkpt><trkpt lat="44.51995713269958" lon="8.464859527853504"><ele>310.0</ele><time>2026-04-19T14:06:56Z</time></trkpt><trkpt lat="44.520039075079374" lon="8.465107951792664"><ele>307.0</ele><time>2026-04-19T14:06:57Z</time></trkpt><trkpt lat="44.52011227008801" lon="8.465328414519947"><ele>304.0</ele><time>2026-04-19T14:06:58Z</time></trkpt><trkpt lat="44.520199255400776" lon="8.465498829246169"><ele>301.0</ele><time>2026-04-19T14:06:59Z</time></trkpt><trkpt lat="44.52027734176079" lon="8.465651278043909"><ele>299.66666666666663</ele><time>2026-04-19T14:07:00Z</time></trkpt><trkpt lat="44.52039089995898" lon="8.46578669615451"><ele>298.3333333333333</ele><time>2026-04-19T14:07:01Z</time></trkpt><trkpt lat="44.520556067941506" lon="8.465911167740753"><ele>297.0</ele><time>2026-04-19T14:07:02Z</time></trkpt><trkpt lat="44.520751368174594" lon="8.466037326762413"><ele>297.0</ele><time>2026-04-19T14:07:03Z</time></trkpt><trkpt lat="44.52097025004482" lon="8.466161498552715"><ele>297.0</ele><time>2026-04-19T14:07:04Z</time></trkpt><trkpt lat="44.521154414704895" lon="8.46630061934244"><ele>297.0</ele><time>2026-04-19T14:07:05Z</time></trkpt><trkpt lat="44.52130652256309" lon="8.466433160270702"><ele>298.6</ele><time>2026-04-19T14:07:06Z</time></trkpt><trkpt lat="44.52142712314594" lon="8.466549324289515"><ele>300.2</ele><time>2026-04-19T14:07:07Z</time></trkpt><trkpt lat="44.521522893517236" lon="8.466653030523597"><ele>301.8</ele><time>2026-04-19T14:07:08Z</time></trkpt><trkpt lat="44.521574837025504" lon="8.466741329391375"><ele>303.4</ele><time>2026-04-19T14:07:09Z</time></trkpt><trkpt lat="44.521611169631505" lon="8.466842001389752"><ele>305.0</ele><time>2026-04-19T14:07:10Z</time></trkpt><trkpt lat="44.521557890103644" lon="8.466963741176981"><ele>305.0</ele><time>2026-04-19T14:07:11Z</time></trkpt><trkpt lat="44.521519957446486" lon="8.467069844040989"><ele>305.0</ele><time>2026-04-19T14:07:12Z</time></trkpt><trkpt lat="44.521486702956146" lon="8.467199476574564"><ele>305.0</ele><time>2026-04-19T14:07:13Z</time></trkpt><trkpt lat="44.521477762992426" lon="8.467339029439472"><ele>305.0</ele><time>2026-04-19T14:07:14Z</time></trkpt><trkpt lat="44.521502443848185" lon="8.467498305314344"><ele>305.0</ele><time>2026-04-19T14:07:15Z</time></trkpt><trkpt lat="44.521568167268896" lon="8.467680371003366"><ele>305.33333333333337</ele><time>2026-04-19T14:07:16Z</time></trkpt><trkpt lat="44.521644013615585" lon="8.467881631311938"><ele>305.6666666666667</ele><time>2026-04-19T14:07:17Z</time></trkpt><trkpt lat="44.521772096553526" lon="8.468046827481885"><ele>306.0</ele><time>2026-04-19T14:07:18Z</time></trkpt><trkpt lat="44.52186261487884" lon="8.46822278605791"><ele>304.5</ele><time>2026-04-19T14:07:19Z</time></trkpt><trkpt lat="44.52192402526925" lon="8.468398729784703"><ele>303.0</ele><time>2026-04-19T14:07:20Z</time></trkpt><trkpt lat="44.52194141447686" lon="8.468568333331842"><ele>301.5</ele><time>2026-04-19T14:07:21Z</time></trkpt><trkpt lat="44.52192526774518" lon="8.468731421312869"><ele>300.0</ele><time>2026-04-19T14:07:22Z</time></trkpt><trkpt lat="44.521922252470695" lon="8.468875849650182"><ele>298.8333333333333</ele><time>2026-04-19T14:07:23Z</time></trkpt><trkpt lat="44.5219462615961" lon="8.468994440199232"><ele>297.6666666666667</ele><time>2026-04-19T14:07:24Z</time></trkpt><trkpt lat="44.52195939288543" lon="8.469081473453059"><ele>296.5</ele><time>2026-04-19T14:07:25Z</time></trkpt><trkpt lat="44.52198882265305" lon="8.469184413063752"><ele>295.33333333333337</ele><time>2026-04-19T14:07:27Z</time></trkpt><trkpt lat="44.521932209549604" lon="8.469263870705715"><ele>294.1666666666667</ele><time>2026-04-19T14:07:28Z</time></trkpt><trkpt lat="44.52188706729779" lon="8.469344771807373"><ele>293.0</ele><time>2026-04-19T14:07:29Z</time></trkpt><trkpt lat="44.52182732183432" lon="8.469451668808137"><ele>293.0</ele><time>2026-04-19T14:07:30Z</time></trkpt><trkpt lat="44.521748475382864" lon="8.469587406189913"><ele>293.0</ele><time>2026-04-19T14:07:31Z</time></trkpt><trkpt lat="44.521649202109415" lon="8.469744362303704"><ele>293.0</ele><time>2026-04-19T14:07:32Z</time></trkpt><trkpt lat="44.5215293787795" lon="8.469922622209229"><ele>293.0</ele><time>2026-04-19T14:07:33Z</time></trkpt><trkpt lat="44.521406428084845" lon="8.470085497148087"><ele>293.25</ele><time>2026-04-19T14:07:34Z</time></trkpt><trkpt lat="44.52129179771942" lon="8.470216404704477"><ele>293.5</ele><time>2026-04-19T14:07:35Z</time></trkpt><trkpt lat="44.521183669303845" lon="8.470326010051739"><ele>293.75</ele><time>2026-04-19T14:07:36Z</time></trkpt><trkpt lat="44.52108114568696" lon="8.47042635967038"><ele>294.0</ele><time>2026-04-19T14:07:37Z</time></trkpt><trkpt lat="44.52097758947562" lon="8.470537749787225"><ele>295.5</ele><time>2026-04-19T14:07:38Z</time></trkpt><trkpt lat="44.520873116592725" lon="8.470658760280532"><ele>297.0</ele><time>2026-04-19T14:07:39Z</time></trkpt><trkpt lat="44.520765662999395" lon="8.470780033925742"><ele>298.5</ele><time>2026-04-19T14:07:40Z</time></trkpt><trkpt lat="44.52065767682595" lon="8.470902961900668"><ele>300.0</ele><time>2026-04-19T14:07:41Z</time></trkpt><trkpt lat="44.520548215820156" lon="8.47102806584711"><ele>300.0</ele><time>2026-04-19T14:07:42Z</time></trkpt><trkpt lat="44.52043427684328" lon="8.471146932920021"><ele>300.0</ele><time>2026-04-19T14:07:43Z</time></trkpt><trkpt lat="44.520308129450086" lon="8.471249236630225"><ele>300.0</ele><time>2026-04-19T14:07:44Z</time></trkpt><trkpt lat="44.5201650571297" lon="8.471301648167858"><ele>300.0</ele><time>2026-04-19T14:07:45Z</time></trkpt><trkpt lat="44.520027547059826" lon="8.47139301797212"><ele>302.75</ele><time>2026-04-19T14:07:46Z</time></trkpt><trkpt lat="44.51988439329212" lon="8.471469395774925"><ele>305.5</ele><time>2026-04-19T14:07:47Z</time></trkpt><trkpt lat="44.51974640440943" lon="8.47155440512065"><ele>308.25</ele><time>2026-04-19T14:07:48Z</time></trkpt><trkpt lat="44.51962561753824" lon="8.47165357498691"><ele>311.0</ele><time>2026-04-19T14:07:49Z</time></trkpt><trkpt lat="44.519535660007634" lon="8.47178527634506"><ele>316.0</ele><time>2026-04-19T14:07:50Z</time></trkpt><trkpt lat="44.519483276974874" lon="8.471959586828984"><ele>321.0</ele><time>2026-04-19T14:07:51Z</time></trkpt><trkpt lat="44.51945516164632" lon="8.4721600205649"><ele>326.0</ele><time>2026-04-19T14:07:52Z</time></trkpt><trkpt lat="44.519470524542335" lon="8.472374569566512"><ele>331.0</ele><time>2026-04-19T14:07:53Z</time></trkpt><trkpt lat="44.519501644242304" lon="8.47256519306915"><ele>331.0</ele><time>2026-04-19T14:07:54Z</time></trkpt><trkpt lat="44.51950867236832" lon="8.472745137116094"><ele>331.0</ele><time>2026-04-19T14:07:55Z</time></trkpt><trkpt lat="44.51950278046224" lon="8.472912894593204"><ele>331.0</ele><time>2026-04-19T14:07:56Z</time></trkpt><trkpt lat="44.519470802293334" lon="8.473090065378727"><ele>331.0</ele><time>2026-04-19T14:07:57Z</time></trkpt><trkpt lat="44.519394948690625" lon="8.473273177767094"><ele>327.0</ele><time>2026-04-19T14:07:58Z</time></trkpt><trkpt lat="44.519290052703894" lon="8.473415324047139"><ele>323.0</ele><time>2026-04-19T14:07:59Z</time></trkpt><trkpt lat="44.5191609961673" lon="8.473518308334112"><ele>319.0</ele><time>2026-04-19T14:08:00Z</time></trkpt><trkpt lat="44.519008227465" lon="8.473589992769842"><ele>319.0</ele><time>2026-04-19T14:08:01Z</time></trkpt><trkpt lat="44.51883115968823" lon="8.473665558037652"><ele>319.0</ele><time>2026-04-19T14:08:02Z</time></trkpt><trkpt lat="44.51865609287564" lon="8.47374270217095"><ele>319.0</ele><time>2026-04-19T14:08:03Z</time></trkpt><trkpt lat="44.518500976748" lon="8.473806684801795"><ele>319.0</ele><time>2026-04-19T14:08:04Z</time></trkpt><trkpt lat="44.51836094509702" lon="8.473873570261844"><ele>319.0</ele><time>2026-04-19T14:08:05Z</time></trkpt><trkpt lat="44.51822829118873" lon="8.47393683116935"><ele>319.0</ele><time>2026-04-19T14:08:06Z</time></trkpt><trkpt lat="44.51807177839329" lon="8.473988116587348"><ele>319.0</ele><time>2026-04-19T14:08:07Z</time></trkpt><trkpt lat="44.517900330420886" lon="8.474060195147741"><ele>319.0</ele><time>2026-04-19T14:08:08Z</time></trkpt><trkpt lat="44.517748020116436" lon="8.474140771879656"><ele>319.0</ele><time>2026-04-19T14:08:09Z</time></trkpt><trkpt lat="44.51760534875826" lon="8.474185491249331"><ele>319.0</ele><time>2026-04-19T14:08:10Z</time></trkpt><trkpt lat="44.51747118834233" lon="8.474209263919587"><ele>319.0</ele><time>2026-04-19T14:08:11Z</time></trkpt><trkpt lat="44.517341745746194" lon="8.474192269263353"><ele>319.0</ele><time>2026-04-19T14:08:12Z</time></trkpt><trkpt lat="44.51722194460141" lon="8.47409342683767"><ele>319.0</ele><time>2026-04-19T14:08:13Z</time></trkpt><trkpt lat="44.51709311170535" lon="8.473999900112444"><ele>319.0</ele><time>2026-04-19T14:08:14Z</time></trkpt><trkpt lat="44.5169772667906" lon="8.47391448087692"><ele>319.0</ele><time>2026-04-19T14:08:15Z</time></trkpt><trkpt lat="44.51686715378522" lon="8.473858011467286"><ele>318.59999999999997</ele><time>2026-04-19T14:08:16Z</time></trkpt><trkpt lat="44.516776669729474" lon="8.473782109628415"><ele>318.2</ele><time>2026-04-19T14:08:17Z</time></trkpt><trkpt lat="44.51669070072678" lon="8.473723260980236"><ele>317.79999999999995</ele><time>2026-04-19T14:08:18Z</time></trkpt><trkpt lat="44.516614688454034" lon="8.473660955865265"><ele>317.4</ele><time>2026-04-19T14:08:19Z</time></trkpt><trkpt lat="44.51655011569126" lon="8.473555530778393"><ele>317.0</ele><time>2026-04-19T14:08:20Z</time></trkpt><trkpt lat="44.516480704833846" lon="8.473438981529684"><ele>318.6</ele><time>2026-04-19T14:08:21Z</time></trkpt><trkpt lat="44.51640667999468" lon="8.47332839492937"><ele>320.2</ele><time>2026-04-19T14:08:22Z</time></trkpt><trkpt lat="44.51635993811309" lon="8.473216344505417"><ele>321.8</ele><time>2026-04-19T14:08:23Z</time></trkpt><trkpt lat="44.51631694227556" lon="8.473105653810784"><ele>323.4</ele><time>2026-04-19T14:08:24Z</time></trkpt><trkpt lat="44.51625847581781" lon="8.472984763933816"><ele>325.0</ele><time>2026-04-19T14:08:25Z</time></trkpt><trkpt lat="44.51618392709597" lon="8.472857982792716"><ele>325.0</ele><time>2026-04-19T14:08:26Z</time></trkpt><trkpt lat="44.51608942342395" lon="8.472748560822453"><ele>325.0</ele><time>2026-04-19T14:08:27Z</time></trkpt><trkpt lat="44.51597419740011" lon="8.472666202200383"><ele>325.0</ele><time>2026-04-19T14:08:28Z</time></trkpt><trkpt lat="44.515837157621576" lon="8.472629667773031"><ele>325.0</ele><time>2026-04-19T14:08:29Z</time></trkpt><trkpt lat="44.51567987611601" lon="8.472645937649093"><ele>325.0</ele><time>2026-04-19T14:08:30Z</time></trkpt><trkpt lat="44.515505201451674" lon="8.472695807465145"><ele>325.0</ele><time>2026-04-19T14:08:31Z</time></trkpt><trkpt lat="44.51531452325019" lon="8.472756467767855"><ele>325.0</ele><time>2026-04-19T14:08:32Z</time></trkpt><trkpt lat="44.51510657941862" lon="8.472821380162358"><ele>328.0</ele><time>2026-04-19T14:08:33Z</time></trkpt><trkpt lat="44.51487910469765" lon="8.472886877669852"><ele>331.0</ele><time>2026-04-19T14:08:34Z</time></trkpt><trkpt lat="44.51464204933874" lon="8.472968535792008"><ele>325.5</ele><time>2026-04-19T14:08:35Z</time></trkpt><trkpt lat="44.51440696687821" lon="8.473050772975558"><ele>320.0</ele><time>2026-04-19T14:08:36Z</time></trkpt><trkpt lat="44.514191908412776" lon="8.473126505939396"><ele>320.0</ele><time>2026-04-19T14:08:37Z</time></trkpt><trkpt lat="44.51398607844996" lon="8.473195996122273"><ele>320.0</ele><time>2026-04-19T14:08:38Z</time></trkpt><trkpt lat="44.51379047172034" lon="8.473263476730466"><ele>320.0</ele><time>2026-04-19T14:08:39Z</time></trkpt><trkpt lat="44.51360548430192" lon="8.473327462065049"><ele>319.6</ele><time>2026-04-19T14:08:40Z</time></trkpt><trkpt lat="44.51345859080241" lon="8.47337459457221"><ele>319.2</ele><time>2026-04-19T14:08:41Z</time></trkpt><trkpt lat="44.51337010468071" lon="8.473398338081312"><ele>318.8</ele><time>2026-04-19T14:08:42Z</time></trkpt><trkpt lat="44.51324336107718" lon="8.473439538585264"><ele>318.4</ele><time>2026-04-19T14:08:44Z</time></trkpt><trkpt lat="44.51316752576914" lon="8.473463848107352"><ele>318.0</ele><time>2026-04-19T14:08:45Z</time></trkpt><trkpt lat="44.513073824399335" lon="8.473495344303059"><ele>318.0</ele><time>2026-04-19T14:08:46Z</time></trkpt><trkpt lat="44.512963833386415" lon="8.473534187557174"><ele>318.0</ele><time>2026-04-19T14:08:47Z</time></trkpt><trkpt lat="44.512836574111354" lon="8.473578157150099"><ele>318.0</ele><time>2026-04-19T14:08:48Z</time></trkpt><trkpt lat="44.512710423974816" lon="8.473622226517175"><ele>318.0</ele><time>2026-04-19T14:08:49Z</time></trkpt><trkpt lat="44.51256888547841" lon="8.473668539432763"><ele>318.6666666666667</ele><time>2026-04-19T14:08:50Z</time></trkpt><trkpt lat="44.512414917357724" lon="8.473721627244247"><ele>319.33333333333337</ele><time>2026-04-19T14:08:51Z</time></trkpt><trkpt lat="44.51225263761433" lon="8.473778071829905"><ele>320.0</ele><time>2026-04-19T14:08:52Z</time></trkpt><trkpt lat="44.51207746878344" lon="8.473836859501178"><ele>320.6666666666667</ele><time>2026-04-19T14:08:53Z</time></trkpt><trkpt lat="44.51190665983608" lon="8.473892863339225"><ele>321.3333333333333</ele><time>2026-04-19T14:08:54Z</time></trkpt><trkpt lat="44.511751152921846" lon="8.473946509227444"><ele>322.0</ele><time>2026-04-19T14:08:55Z</time></trkpt><trkpt lat="44.51159814528808" lon="8.474001269084013"><ele>322.0</ele><time>2026-04-19T14:08:56Z</time></trkpt><trkpt lat="44.5114435474353" lon="8.474065179132975"><ele>322.0</ele><time>2026-04-19T14:08:57Z</time></trkpt><trkpt lat="44.51128990961964" lon="8.474144916275566"><ele>322.0</ele><time>2026-04-19T14:08:58Z</time></trkpt><trkpt lat="44.511140292835364" lon="8.474253466988136"><ele>321.66666666666663</ele><time>2026-04-19T14:08:59Z</time></trkpt><trkpt lat="44.51099197716721" lon="8.474387538130149"><ele>321.3333333333333</ele><time>2026-04-19T14:09:00Z</time></trkpt><trkpt lat="44.510837586730965" lon="8.474552820647483"><ele>321.0</ele><time>2026-04-19T14:09:01Z</time></trkpt><trkpt lat="44.51067298511337" lon="8.474772840282291"><ele>321.0</ele><time>2026-04-19T14:09:02Z</time></trkpt><trkpt lat="44.51051940601965" lon="8.474993199957797"><ele>321.0</ele><time>2026-04-19T14:09:03Z</time></trkpt><trkpt lat="44.510399164465554" lon="8.47525815031598"><ele>321.0</ele><time>2026-04-19T14:09:04Z</time></trkpt><trkpt lat="44.510300902410876" lon="8.47558493718092"><ele>322.0</ele><time>2026-04-19T14:09:05Z</time></trkpt><trkpt lat="44.51021293594517" lon="8.475925370367564"><ele>323.0</ele><time>2026-04-19T14:09:06Z</time></trkpt><trkpt lat="44.510129278822326" lon="8.47628129110036"><ele>323.0</ele><time>2026-04-19T14:09:07Z</time></trkpt><trkpt lat="44.51004537694873" lon="8.476646856275341"><ele>323.0</ele><time>2026-04-19T14:09:08Z</time></trkpt><trkpt lat="44.509957669339165" lon="8.477005589010536"><ele>322.5</ele><time>2026-04-19T14:09:09Z</time></trkpt><trkpt lat="44.50987207711833" lon="8.477354156600123"><ele>322.0</ele><time>2026-04-19T14:09:10Z</time></trkpt><trkpt lat="44.50979044974786" lon="8.477698777900104"><ele>322.5</ele><time>2026-04-19T14:09:11Z</time></trkpt><trkpt lat="44.50971302673662" lon="8.478027618735759"><ele>323.0</ele><time>2026-04-19T14:09:12Z</time></trkpt><trkpt lat="44.509642603897206" lon="8.478343523390972"><ele>332.0</ele><time>2026-04-19T14:09:13Z</time></trkpt><trkpt lat="44.50957172875168" lon="8.478658376886752"><ele>341.0</ele><time>2026-04-19T14:09:14Z</time></trkpt><trkpt lat="44.509505259081244" lon="8.478975279171681"><ele>341.0</ele><time>2026-04-19T14:09:15Z</time></trkpt><trkpt lat="44.50944439295303" lon="8.479305312511592"><ele>341.0</ele><time>2026-04-19T14:09:16Z</time></trkpt><trkpt lat="44.50939225656546" lon="8.479613371429602"><ele>341.0</ele><time>2026-04-19T14:09:17Z</time></trkpt><trkpt lat="44.50933996615598" lon="8.479902859826872"><ele>341.0</ele><time>2026-04-19T14:09:18Z</time></trkpt><trkpt lat="44.50928951545192" lon="8.480168985766332"><ele>341.0</ele><time>2026-04-19T14:09:19Z</time></trkpt><trkpt lat="44.50922704594976" lon="8.480420810581595"><ele>338.6666666666667</ele><time>2026-04-19T14:09:20Z</time></trkpt><trkpt lat="44.50913615410017" lon="8.480678362846072"><ele>336.3333333333333</ele><time>2026-04-19T14:09:21Z</time></trkpt><trkpt lat="44.50901891260756" lon="8.480937310843158"><ele>334.0</ele><time>2026-04-19T14:09:22Z</time></trkpt><trkpt lat="44.50887703553401" lon="8.481164399733183"><ele>333.66666666666663</ele><time>2026-04-19T14:09:23Z</time></trkpt><trkpt lat="44.50875052564548" lon="8.48138274513171"><ele>333.3333333333333</ele><time>2026-04-19T14:09:24Z</time></trkpt><trkpt lat="44.508580136863024" lon="8.481544803747472"><ele>333.0</ele><time>2026-04-19T14:09:25Z</time></trkpt><trkpt lat="44.50842006737035" lon="8.48169823710883"><ele>335.6666666666667</ele><time>2026-04-19T14:09:26Z</time></trkpt><trkpt lat="44.50825216886134" lon="8.4817939134584"><ele>338.33333333333337</ele><time>2026-04-19T14:09:27Z</time></trkpt><trkpt lat="44.50811041221792" lon="8.48191796053231"><ele>341.0</ele><time>2026-04-19T14:09:28Z</time></trkpt><trkpt lat="44.50798485663785" lon="8.482070345311621"><ele>340.75</ele><time>2026-04-19T14:09:29Z</time></trkpt><trkpt lat="44.50789769541569" lon="8.482263650573955"><ele>340.5</ele><time>2026-04-19T14:09:30Z</time></trkpt><trkpt lat="44.50780334740172" lon="8.482397778756923"><ele>340.25</ele><time>2026-04-19T14:09:31Z</time></trkpt><trkpt lat="44.50769603570209" lon="8.482480047074105"><ele>340.0</ele><time>2026-04-19T14:09:32Z</time></trkpt><trkpt lat="44.507567694216576" lon="8.482480833263038"><ele>340.0</ele><time>2026-04-19T14:09:33Z</time></trkpt><trkpt lat="44.507416331435714" lon="8.4824604458885"><ele>340.0</ele><time>2026-04-19T14:09:34Z</time></trkpt><trkpt lat="44.50724471960044" lon="8.482435593181386"><ele>340.0</ele><time>2026-04-19T14:09:35Z</time></trkpt><trkpt lat="44.507087171613534" lon="8.482368748421187"><ele>339.25</ele><time>2026-04-19T14:09:36Z</time></trkpt><trkpt lat="44.5069577110794" lon="8.48227327378641"><ele>338.5</ele><time>2026-04-19T14:09:37Z</time></trkpt><trkpt lat="44.50684515129526" lon="8.482189810624266"><ele>337.75</ele><time>2026-04-19T14:09:38Z</time></trkpt><trkpt lat="44.50673348416962" lon="8.482135655511248"><ele>337.0</ele><time>2026-04-19T14:09:39Z</time></trkpt><trkpt lat="44.50662714002138" lon="8.482187685872814"><ele>337.0</ele><time>2026-04-19T14:09:40Z</time></trkpt><trkpt lat="44.506536790031426" lon="8.482262131255583"><ele>337.0</ele><time>2026-04-19T14:09:41Z</time></trkpt><trkpt lat="44.506460250093035" lon="8.482386354638136"><ele>337.0</ele><time>2026-04-19T14:09:42Z</time></trkpt><trkpt lat="44.506378142634645" lon="8.482537412487819"><ele>337.0</ele><time>2026-04-19T14:09:43Z</time></trkpt><trkpt lat="44.50627077761693" lon="8.482665126289007"><ele>337.5</ele><time>2026-04-19T14:09:44Z</time></trkpt><trkpt lat="44.50614632244634" lon="8.482745111756133"><ele>338.0</ele><time>2026-04-19T14:09:45Z</time></trkpt><trkpt lat="44.50600088711476" lon="8.482780611737544"><ele>338.5</ele><time>2026-04-19T14:09:46Z</time></trkpt><trkpt lat="44.505841416541635" lon="8.482769052658437"><ele>339.0</ele><time>2026-04-19T14:09:47Z</time></trkpt><trkpt lat="44.50568049714442" lon="8.482761658932414"><ele>339.0</ele><time>2026-04-19T14:09:48Z</time></trkpt><trkpt lat="44.5055155938011" lon="8.482816635633128"><ele>339.0</ele><time>2026-04-19T14:09:49Z</time></trkpt><trkpt lat="44.50533185289109" lon="8.482921404842495"><ele>339.0</ele><time>2026-04-19T14:09:50Z</time></trkpt><trkpt lat="44.50512767480537" lon="8.483025668937632"><ele>339.5</ele><time>2026-04-19T14:09:51Z</time></trkpt><trkpt lat="44.50491198080812" lon="8.48312670509904"><ele>340.0</ele><time>2026-04-19T14:09:52Z</time></trkpt><trkpt lat="44.504683646973255" lon="8.483237500260685"><ele>338.0</ele><time>2026-04-19T14:09:53Z</time></trkpt><trkpt lat="44.50444425789731" lon="8.483358503694811"><ele>336.0</ele><time>2026-04-19T14:09:54Z</time></trkpt><trkpt lat="44.50419871477712" lon="8.483483543278679"><ele>336.0</ele><time>2026-04-19T14:09:55Z</time></trkpt><trkpt lat="44.50395633935476" lon="8.483603197094615"><ele>336.0</ele><time>2026-04-19T14:09:56Z</time></trkpt><trkpt lat="44.50373574378426" lon="8.483713398252856"><ele>335.6666666666667</ele><time>2026-04-19T14:09:57Z</time></trkpt><trkpt lat="44.50353388669075" lon="8.48378449562115"><ele>335.33333333333337</ele><time>2026-04-19T14:09:58Z</time></trkpt><trkpt lat="44.50335287712768" lon="8.483898595485801"><ele>335.0</ele><time>2026-04-19T14:09:59Z</time></trkpt><trkpt lat="44.50317153889681" lon="8.48399204996024"><ele>335.0</ele><time>2026-04-19T14:10:00Z</time></trkpt><trkpt lat="44.50299673570585" lon="8.484077991062442"><ele>335.0</ele><time>2026-04-19T14:10:01Z</time></trkpt><trkpt lat="44.502824270263524" lon="8.484139145350658"><ele>335.0</ele><time>2026-04-19T14:10:02Z</time></trkpt><trkpt lat="44.50266668862444" lon="8.484217113299685"><ele>335.25</ele><time>2026-04-19T14:10:03Z</time></trkpt><trkpt lat="44.502537070435594" lon="8.484303172685234"><ele>335.5</ele><time>2026-04-19T14:10:04Z</time></trkpt><trkpt lat="44.50241091775675" lon="8.484366267591126"><ele>335.75</ele><time>2026-04-19T14:10:05Z</time></trkpt><trkpt lat="44.50228599194572" lon="8.484432341316602"><ele>336.0</ele><time>2026-04-19T14:10:06Z</time></trkpt><trkpt lat="44.50216556775868" lon="8.484495587278445"><ele>336.25</ele><time>2026-04-19T14:10:07Z</time></trkpt><trkpt lat="44.502050192923086" lon="8.484558624755214"><ele>336.5</ele><time>2026-04-19T14:10:08Z</time></trkpt><trkpt lat="44.501932981285925" lon="8.484588198906206"><ele>336.75</ele><time>2026-04-19T14:10:09Z</time></trkpt><trkpt lat="44.50183621242754" lon="8.48465984368448"><ele>337.0</ele><time>2026-04-19T14:10:10Z</time></trkpt><trkpt lat="44.501739510693085" lon="8.484701559557827"><ele>337.8333333333333</ele><time>2026-04-19T14:10:11Z</time></trkpt><trkpt lat="44.50164598895257" lon="8.484740869852052"><ele>338.66666666666663</ele><time>2026-04-19T14:10:12Z</time></trkpt><trkpt lat="44.50155759480967" lon="8.484779911148397"><ele>339.5</ele><time>2026-04-19T14:10:13Z</time></trkpt><trkpt lat="44.50147664140093" lon="8.484827842631935"><ele>340.3333333333333</ele><time>2026-04-19T14:10:14Z</time></trkpt><trkpt lat="44.50140435181576" lon="8.484886773748675"><ele>341.1666666666667</ele><time>2026-04-19T14:10:15Z</time></trkpt><trkpt lat="44.501337351140855" lon="8.484965389548016"><ele>342.0</ele><time>2026-04-19T14:10:16Z</time></trkpt><trkpt lat="44.50127636605912" lon="8.485072994325872"><ele>341.75</ele><time>2026-04-19T14:10:17Z</time></trkpt><trkpt lat="44.501221315760844" lon="8.485209371793086"><ele>341.5</ele><time>2026-04-19T14:10:18Z</time></trkpt><trkpt lat="44.50117474057105" lon="8.485374968057183"><ele>341.25</ele><time>2026-04-19T14:10:19Z</time></trkpt><trkpt lat="44.50112951952355" lon="8.485556928940456"><ele>341.0</ele><time>2026-04-19T14:10:20Z</time></trkpt><trkpt lat="44.501080453634714" lon="8.485748112268304"><ele>341.6666666666667</ele><time>2026-04-19T14:10:21Z</time></trkpt><trkpt lat="44.501027097810265" lon="8.485947185276634"><ele>342.3333333333333</ele><time>2026-04-19T14:10:22Z</time></trkpt><trkpt lat="44.500971645946606" lon="8.486152797316501"><ele>343.0</ele><time>2026-04-19T14:10:23Z</time></trkpt><trkpt lat="44.500915245127" lon="8.486362209387378"><ele>344.3333333333333</ele><time>2026-04-19T14:10:24Z</time></trkpt><trkpt lat="44.50085906834458" lon="8.486575651310861"><ele>345.6666666666667</ele><time>2026-04-19T14:10:25Z</time></trkpt><trkpt lat="44.50080858442824" lon="8.486773601515592"><ele>347.0</ele><time>2026-04-19T14:10:26Z</time></trkpt><trkpt lat="44.50075967847849" lon="8.486955134274282"><ele>347.25</ele><time>2026-04-19T14:10:27Z</time></trkpt><trkpt lat="44.50071246847595" lon="8.48712846382136"><ele>347.5</ele><time>2026-04-19T14:10:28Z</time></trkpt><trkpt lat="44.50067099334136" lon="8.487294627430911"><ele>347.75</ele><time>2026-04-19T14:10:29Z</time></trkpt><trkpt lat="44.50063288353389" lon="8.487448431151163"><ele>348.0</ele><time>2026-04-19T14:10:30Z</time></trkpt><trkpt lat="44.500596677461765" lon="8.487598944097785"><ele>348.0</ele><time>2026-04-19T14:10:31Z</time></trkpt><trkpt lat="44.50055728908864" lon="8.487754329021373"><ele>348.0</ele><time>2026-04-19T14:10:32Z</time></trkpt><trkpt lat="44.50051641937655" lon="8.487896677525159"><ele>348.0</ele><time>2026-04-19T14:10:33Z</time></trkpt><trkpt lat="44.500479980455644" lon="8.488031683960367"><ele>348.0</ele><time>2026-04-19T14:10:34Z</time></trkpt><trkpt lat="44.50044975826732" lon="8.488147878695846"><ele>348.0</ele><time>2026-04-19T14:10:35Z</time></trkpt><trkpt lat="44.50042325521659" lon="8.48824055368352"><ele>348.0</ele><time>2026-04-19T14:10:36Z</time></trkpt><trkpt lat="44.50037808406783" lon="8.488379305025255"><ele>348.0</ele><time>2026-04-19T14:10:38Z</time></trkpt><trkpt lat="44.50033184561585" lon="8.488447628259634"><ele>348.0</ele><time>2026-04-19T14:10:40Z</time></trkpt><trkpt lat="44.50028991718501" lon="8.488524957914537"><ele>348.0</ele><time>2026-04-19T14:10:43Z</time></trkpt><trkpt lat="44.500395175264615" lon="8.48855156210383"><ele>348.0</ele><time>2026-04-19T14:10:54Z</time></trkpt><trkpt lat="44.50047166774022" lon="8.488148725740775"><ele>348.0</ele><time>2026-04-19T14:10:56Z</time></trkpt><trkpt lat="44.500521121881334" lon="8.487963573096767"><ele>348.0</ele><time>2026-04-19T14:10:57Z</time></trkpt><trkpt lat="44.500576078915365" lon="8.487748895708584"><ele>348.0</ele><time>2026-04-19T14:10:58Z</time></trkpt><trkpt lat="44.50063704139627" lon="8.487510918006997"><ele>348.0</ele><time>2026-04-19T14:10:59Z</time></trkpt><trkpt lat="44.50070345884765" lon="8.487258000634016"><ele>348.0</ele><time>2026-04-19T14:11:00Z</time></trkpt><trkpt lat="44.50076223670766" lon="8.487014241800683"><ele>348.0</ele><time>2026-04-19T14:11:01Z</time></trkpt><trkpt lat="44.50080855165913" lon="8.48677251969262"><ele>347.6666666666667</ele><time>2026-04-19T14:11:02Z</time></trkpt><trkpt lat="44.500872956308136" lon="8.486565195213826"><ele>347.33333333333337</ele><time>2026-04-19T14:11:03Z</time></trkpt><trkpt lat="44.50093169662354" lon="8.48634069002881"><ele>347.0</ele><time>2026-04-19T14:11:04Z</time></trkpt><trkpt lat="44.50099754780856" lon="8.486100073750817"><ele>345.6666666666667</ele><time>2026-04-19T14:11:05Z</time></trkpt><trkpt lat="44.50105669002399" lon="8.485878840810187"><ele>344.3333333333333</ele><time>2026-04-19T14:11:06Z</time></trkpt><trkpt lat="44.501111673287305" lon="8.485663407592023"><ele>343.0</ele><time>2026-04-19T14:11:07Z</time></trkpt><trkpt lat="44.50116413186541" lon="8.48545703989467"><ele>342.75</ele><time>2026-04-19T14:11:08Z</time></trkpt><trkpt lat="44.501223170184666" lon="8.48526642292657"><ele>342.5</ele><time>2026-04-19T14:11:09Z</time></trkpt><trkpt lat="44.501291461483625" lon="8.485101544302763"><ele>342.25</ele><time>2026-04-19T14:11:10Z</time></trkpt><trkpt lat="44.50137459063861" lon="8.48496019212731"><ele>342.0</ele><time>2026-04-19T14:11:11Z</time></trkpt><trkpt lat="44.501480967352286" lon="8.484855081445092"><ele>342.0</ele><time>2026-04-19T14:11:12Z</time></trkpt><trkpt lat="44.50161199040674" lon="8.484767352745301"><ele>342.0</ele><time>2026-04-19T14:11:13Z</time></trkpt><trkpt lat="44.50175998104009" lon="8.484700054228986"><ele>342.0</ele><time>2026-04-19T14:11:14Z</time></trkpt><trkpt lat="44.50190273294347" lon="8.484636074131952"><ele>340.75</ele><time>2026-04-19T14:11:15Z</time></trkpt><trkpt lat="44.502036072438926" lon="8.484575316358805"><ele>339.5</ele><time>2026-04-19T14:11:16Z</time></trkpt><trkpt lat="44.50216385334961" lon="8.484513396231112"><ele>338.25</ele><time>2026-04-19T14:11:17Z</time></trkpt><trkpt lat="44.502280543655615" lon="8.484454308865665"><ele>337.0</ele><time>2026-04-19T14:11:18Z</time></trkpt><trkpt lat="44.50238100361309" lon="8.484399145169077"><ele>336.8333333333333</ele><time>2026-04-19T14:11:19Z</time></trkpt><trkpt lat="44.502468179198935" lon="8.484344243279864"><ele>336.66666666666663</ele><time>2026-04-19T14:11:20Z</time></trkpt><trkpt lat="44.50253797338801" lon="8.484286850891646"><ele>336.5</ele><time>2026-04-19T14:11:21Z</time></trkpt><trkpt lat="44.502594300742125" lon="8.484234494609717"><ele>336.3333333333333</ele><time>2026-04-19T14:11:22Z</time></trkpt><trkpt lat="44.502672396329196" lon="8.484157561164903"><ele>336.1666666666667</ele><time>2026-04-19T14:11:24Z</time></trkpt><trkpt lat="44.502715925596334" lon="8.484069301861252"><ele>336.0</ele><time>2026-04-19T14:11:31Z</time></trkpt><trkpt lat="44.502663163100536" lon="8.484169700487675"><ele>336.0</ele><time>2026-04-19T14:27:14.999Z</time></trkpt><trkpt lat="44.502578841672964" lon="8.484246998493063"><ele>336.0</ele><time>2026-04-19T14:27:16.999Z</time></trkpt><trkpt lat="44.50252613628005" lon="8.484300170848018"><ele>336.0</ele><time>2026-04-19T14:27:17.999Z</time></trkpt><trkpt lat="44.502453420750584" lon="8.484359227546857"><ele>336.0</ele><time>2026-04-19T14:27:18.999Z</time></trkpt><trkpt lat="44.50234864192916" lon="8.484409225303132"><ele>336.0</ele><time>2026-04-19T14:27:19.999Z</time></trkpt><trkpt lat="44.50221750125932" lon="8.484474466347345"><ele>336.3333333333333</ele><time>2026-04-19T14:27:20.999Z</time></trkpt><trkpt lat="44.502057951972496" lon="8.484553191907533"><ele>336.66666666666663</ele><time>2026-04-19T14:27:21.999Z</time></trkpt><trkpt lat="44.50188401963471" lon="8.484634865474783"><ele>337.0</ele><time>2026-04-19T14:27:22.999Z</time></trkpt><trkpt lat="44.501724610309545" lon="8.48470774382855"><ele>338.25</ele><time>2026-04-19T14:27:23.999Z</time></trkpt><trkpt lat="44.50158489925852" lon="8.484777159342665"><ele>339.5</ele><time>2026-04-19T14:27:24.999Z</time></trkpt><trkpt lat="44.501462955793635" lon="8.484852117422289"><ele>340.75</ele><time>2026-04-19T14:27:25.999Z</time></trkpt><trkpt lat="44.50134972894492" lon="8.484936074633971"><ele>342.0</ele><time>2026-04-19T14:27:26.999Z</time></trkpt><trkpt lat="44.5012690114275" lon="8.485114663910226"><ele>341.6666666666667</ele><time>2026-04-19T14:27:27.999Z</time></trkpt><trkpt lat="44.50118820045669" lon="8.485322533974337"><ele>341.33333333333337</ele><time>2026-04-19T14:27:28.999Z</time></trkpt><trkpt lat="44.5011215597279" lon="8.485563822377514"><ele>341.0</ele><time>2026-04-19T14:27:29.999Z</time></trkpt><trkpt lat="44.50105575766678" lon="8.485826512192869"><ele>341.6666666666667</ele><time>2026-04-19T14:27:30.999Z</time></trkpt><trkpt lat="44.500983334646904" lon="8.486108689932195"><ele>342.3333333333333</ele><time>2026-04-19T14:27:31.999Z</time></trkpt><trkpt lat="44.50091364957797" lon="8.486375005028982"><ele>343.0</ele><time>2026-04-19T14:27:32.999Z</time></trkpt><trkpt lat="44.500849365942784" lon="8.486623166626085"><ele>344.3333333333333</ele><time>2026-04-19T14:27:33.999Z</time></trkpt><trkpt lat="44.50077206198181" lon="8.486851366433843"><ele>345.6666666666667</ele><time>2026-04-19T14:27:34.999Z</time></trkpt><trkpt lat="44.5007120506171" lon="8.487076288954748"><ele>347.0</ele><time>2026-04-19T14:27:35.999Z</time></trkpt><trkpt lat="44.50065457829631" lon="8.487302036762205"><ele>347.33333333333337</ele><time>2026-04-19T14:27:36.999Z</time></trkpt><trkpt lat="44.500597852891396" lon="8.487530239649228"><ele>347.6666666666667</ele><time>2026-04-19T14:27:37.999Z</time></trkpt><trkpt lat="44.50055778012106" lon="8.48775987729474"><ele>348.0</ele><time>2026-04-19T14:27:38.999Z</time></trkpt><trkpt lat="44.50050314562915" lon="8.487967928799833"><ele>348.0</ele><time>2026-04-19T14:27:39.999Z</time></trkpt><trkpt lat="44.50043491485592" lon="8.48815742852807"><ele>348.0</ele><time>2026-04-19T14:27:40.999Z</time></trkpt><trkpt lat="44.500382778254895" lon="8.488345712721348"><ele>348.0</ele><time>2026-04-19T14:27:41.999Z</time></trkpt><trkpt lat="44.500359139679524" lon="8.48853643186069"><ele>348.0</ele><time>2026-04-19T14:27:42.999Z</time></trkpt><trkpt lat="44.500310723235486" lon="8.488712919862007"><ele>347.25</ele><time>2026-04-19T14:27:43.999Z</time></trkpt><trkpt lat="44.500262965758544" lon="8.48889260724316"><ele>346.5</ele><time>2026-04-19T14:27:44.999Z</time></trkpt><trkpt lat="44.500212165338496" lon="8.489079762709949"><ele>345.75</ele><time>2026-04-19T14:27:45.999Z</time></trkpt><trkpt lat="44.500159220953314" lon="8.489269507949452"><ele>345.0</ele><time>2026-04-19T14:27:47Z</time></trkpt><trkpt lat="44.500109208978856" lon="8.489457965045194"><ele>344.75</ele><time>2026-04-19T14:27:48Z</time></trkpt><trkpt lat="44.500060601361696" lon="8.489644152978821"><ele>344.5</ele><time>2026-04-19T14:27:49Z</time></trkpt><trkpt lat="44.50001205419354" lon="8.489824728867541"><ele>344.25</ele><time>2026-04-19T14:27:50Z</time></trkpt><trkpt lat="44.499966313966986" lon="8.489999838598909"><ele>344.0</ele><time>2026-04-19T14:27:51Z</time></trkpt><trkpt lat="44.49992085798234" lon="8.490168696276697"><ele>344.0</ele><time>2026-04-19T14:27:52Z</time></trkpt><trkpt lat="44.49987846946534" lon="8.490325489350294"><ele>344.0</ele><time>2026-04-19T14:27:53Z</time></trkpt><trkpt lat="44.49982205035852" lon="8.490459173153939"><ele>344.0</ele><time>2026-04-19T14:27:54Z</time></trkpt><trkpt lat="44.499781236733575" lon="8.490590714932123"><ele>344.0</ele><time>2026-04-19T14:27:55Z</time></trkpt><trkpt lat="44.49975626572339" lon="8.49072669256122"><ele>344.0</ele><time>2026-04-19T14:27:56Z</time></trkpt><trkpt lat="44.499713128755175" lon="8.490846922962126"><ele>344.0</ele><time>2026-04-19T14:27:57Z</time></trkpt><trkpt lat="44.4996669220872" lon="8.490971402254512"><ele>344.0</ele><time>2026-04-19T14:27:58Z</time></trkpt><trkpt lat="44.49961807901089" lon="8.491097592348973"><ele>344.0</ele><time>2026-04-19T14:27:59Z</time></trkpt><trkpt lat="44.49956630974289" lon="8.491224787463459"><ele>344.0</ele><time>2026-04-19T14:28:00Z</time></trkpt><trkpt lat="44.4995126045795" lon="8.49135497111587"><ele>344.0</ele><time>2026-04-19T14:28:01Z</time></trkpt><trkpt lat="44.49945984783258" lon="8.491486716297581"><ele>344.2</ele><time>2026-04-19T14:28:02Z</time></trkpt><trkpt lat="44.49939369800854" lon="8.491602059695106"><ele>344.4</ele><time>2026-04-19T14:28:03Z</time></trkpt><trkpt lat="44.499359697415464" lon="8.491733950720938"><ele>344.6</ele><time>2026-04-19T14:28:04Z</time></trkpt><trkpt lat="44.49930873870376" lon="8.491858654228567"><ele>344.8</ele><time>2026-04-19T14:28:05Z</time></trkpt><trkpt lat="44.49925822705032" lon="8.49198143224902"><ele>345.0</ele><time>2026-04-19T14:28:06Z</time></trkpt><trkpt lat="44.49920718176941" lon="8.492102124790728"><ele>345.4</ele><time>2026-04-19T14:28:07Z</time></trkpt><trkpt lat="44.49915585168882" lon="8.492224693429717"><ele>345.8</ele><time>2026-04-19T14:28:08Z</time></trkpt><trkpt lat="44.4991060364652" lon="8.492349682037084"><ele>346.20000000000005</ele><time>2026-04-19T14:28:09Z</time></trkpt><trkpt lat="44.49905358645154" lon="8.492481816046945"><ele>346.6</ele><time>2026-04-19T14:28:10Z</time></trkpt><trkpt lat="44.49899920778434" lon="8.492610542233422"><ele>347.0</ele><time>2026-04-19T14:28:11Z</time></trkpt><trkpt lat="44.498945894790054" lon="8.492734472133417"><ele>347.0</ele><time>2026-04-19T14:28:12Z</time></trkpt><trkpt lat="44.498894701527675" lon="8.492857409954862"><ele>347.0</ele><time>2026-04-19T14:28:13Z</time></trkpt><trkpt lat="44.49884487004097" lon="8.492978439196516"><ele>347.0</ele><time>2026-04-19T14:28:14Z</time></trkpt><trkpt lat="44.49879468740508" lon="8.493098775060204"><ele>347.0</ele><time>2026-04-19T14:28:15Z</time></trkpt><trkpt lat="44.49874504425257" lon="8.493218785749205"><ele>347.0</ele><time>2026-04-19T14:28:16Z</time></trkpt><trkpt lat="44.49869390572129" lon="8.493343594973819"><ele>347.75</ele><time>2026-04-19T14:28:17Z</time></trkpt><trkpt lat="44.49864061000533" lon="8.4934734425404"><ele>348.5</ele><time>2026-04-19T14:28:18Z</time></trkpt><trkpt lat="44.498585928875386" lon="8.493606070764582"><ele>349.25</ele><time>2026-04-19T14:28:19Z</time></trkpt><trkpt lat="44.49852640677069" lon="8.493757515076465"><ele>350.0</ele><time>2026-04-19T14:28:20Z</time></trkpt><trkpt lat="44.49844541991971" lon="8.493916572052388"><ele>350.6666666666667</ele><time>2026-04-19T14:28:21Z</time></trkpt><trkpt lat="44.498371933741694" lon="8.494100287617622"><ele>351.3333333333333</ele><time>2026-04-19T14:28:22Z</time></trkpt><trkpt lat="44.4982909522574" lon="8.494297870780018"><ele>352.0</ele><time>2026-04-19T14:28:23Z</time></trkpt><trkpt lat="44.49820341280052" lon="8.494511106763918"><ele>353.3333333333333</ele><time>2026-04-19T14:28:24Z</time></trkpt><trkpt lat="44.49810753247911" lon="8.494747016909944"><ele>354.6666666666667</ele><time>2026-04-19T14:28:25Z</time></trkpt><trkpt lat="44.49800857171047" lon="8.49499135970055"><ele>356.0</ele><time>2026-04-19T14:28:26Z</time></trkpt><trkpt lat="44.49793114172129" lon="8.495221793639088"><ele>354.33333333333337</ele><time>2026-04-19T14:28:27Z</time></trkpt><trkpt lat="44.49783545701903" lon="8.495418795162593"><ele>352.6666666666667</ele><time>2026-04-19T14:28:28Z</time></trkpt><trkpt lat="44.497757090838135" lon="8.495606293336868"><ele>351.0</ele><time>2026-04-19T14:28:29Z</time></trkpt><trkpt lat="44.49768543083524" lon="8.49578650189474"><ele>351.0</ele><time>2026-04-19T14:28:30Z</time></trkpt><trkpt lat="44.49758284839073" lon="8.495914539273445"><ele>351.0</ele><time>2026-04-19T14:28:31Z</time></trkpt><trkpt lat="44.4974577418244" lon="8.495977888289197"><ele>351.0</ele><time>2026-04-19T14:28:32Z</time></trkpt><trkpt lat="44.49731390036654" lon="8.496023450168483"><ele>351.0</ele><time>2026-04-19T14:28:33Z</time></trkpt><trkpt lat="44.49715106777688" lon="8.496047910651136"><ele>351.6666666666667</ele><time>2026-04-19T14:28:34Z</time></trkpt><trkpt lat="44.49697317139209" lon="8.49610211128924"><ele>352.33333333333337</ele><time>2026-04-19T14:28:35Z</time></trkpt><trkpt lat="44.49678123084444" lon="8.49613550250268"><ele>353.0</ele><time>2026-04-19T14:28:36Z</time></trkpt><trkpt lat="44.49657617543824" lon="8.496176071045094"><ele>353.0</ele><time>2026-04-19T14:28:37Z</time></trkpt><trkpt lat="44.49635931896833" lon="8.496222417541809"><ele>353.0</ele><time>2026-04-19T14:28:38Z</time></trkpt><trkpt lat="44.49613176481203" lon="8.496242770119704"><ele>353.0</ele><time>2026-04-19T14:28:39Z</time></trkpt><trkpt lat="44.495899346254085" lon="8.496284417402522"><ele>355.5</ele><time>2026-04-19T14:28:40Z</time></trkpt><trkpt lat="44.49566664483143" lon="8.496256438322598"><ele>358.0</ele><time>2026-04-19T14:28:41Z</time></trkpt><trkpt lat="44.495444915283265" lon="8.496254306141845"><ele>361.3333333333333</ele><time>2026-04-19T14:28:42Z</time></trkpt><trkpt lat="44.495244033308765" lon="8.496271420497463"><ele>364.6666666666667</ele><time>2026-04-19T14:28:43Z</time></trkpt><trkpt lat="44.49505541551619" lon="8.496278457411346"><ele>368.0</ele><time>2026-04-19T14:28:44Z</time></trkpt><trkpt lat="44.49487499479404" lon="8.496277658498165"><ele>368.0</ele><time>2026-04-19T14:28:45Z</time></trkpt><trkpt lat="44.49471233398247" lon="8.49626760080771"><ele>368.0</ele><time>2026-04-19T14:28:46Z</time></trkpt><trkpt lat="44.49457727300974" lon="8.4962778850078"><ele>368.0</ele><time>2026-04-19T14:28:47Z</time></trkpt><trkpt lat="44.4944622387882" lon="8.496334287361288"><ele>368.0</ele><time>2026-04-19T14:28:48Z</time></trkpt><trkpt lat="44.49433326048542" lon="8.496451808925155"><ele>367.33333333333337</ele><time>2026-04-19T14:28:49Z</time></trkpt><trkpt lat="44.49418126336411" lon="8.496518553853129"><ele>366.6666666666667</ele><time>2026-04-19T14:28:50Z</time></trkpt><trkpt lat="44.49400941703944" lon="8.496555634274179"><ele>366.0</ele><time>2026-04-19T14:28:51Z</time></trkpt><trkpt lat="44.49384079364227" lon="8.496650968102019"><ele>366.3333333333333</ele><time>2026-04-19T14:28:52Z</time></trkpt><trkpt lat="44.49369643061233" lon="8.496788242720093"><ele>366.66666666666663</ele><time>2026-04-19T14:28:53Z</time></trkpt><trkpt lat="44.493554259357005" lon="8.496864055787022"><ele>367.0</ele><time>2026-04-19T14:28:54Z</time></trkpt><trkpt lat="44.49337994515218" lon="8.496859698819788"><ele>367.0</ele><time>2026-04-19T14:28:55Z</time></trkpt><trkpt lat="44.493196434829585" lon="8.496843885939072"><ele>367.0</ele><time>2026-04-19T14:28:56Z</time></trkpt><trkpt lat="44.49304176268674" lon="8.496850631664984"><ele>367.0</ele><time>2026-04-19T14:28:57Z</time></trkpt><trkpt lat="44.49290801752739" lon="8.496846796749022"><ele>369.0</ele><time>2026-04-19T14:28:58Z</time></trkpt><trkpt lat="44.49280665276383" lon="8.496735930958677"><ele>371.0</ele><time>2026-04-19T14:28:59Z</time></trkpt><trkpt lat="44.492685116246925" lon="8.4965992633715"><ele>373.0</ele><time>2026-04-19T14:29:00Z</time></trkpt><trkpt lat="44.49256027146014" lon="8.496477584280058"><ele>375.0</ele><time>2026-04-19T14:29:00.999Z</time></trkpt><trkpt lat="44.492454269998255" lon="8.49641267996178"><ele>375.0</ele><time>2026-04-19T14:29:01.999Z</time></trkpt><trkpt lat="44.49235377225288" lon="8.496408642868609"><ele>375.0</ele><time>2026-04-19T14:29:02.999Z</time></trkpt><trkpt lat="44.49225991339648" lon="8.496481155993623"><ele>375.0</ele><time>2026-04-19T14:29:03.999Z</time></trkpt><trkpt lat="44.492169715198" lon="8.496619197622731"><ele>375.0</ele><time>2026-04-19T14:29:04.999Z</time></trkpt><trkpt lat="44.492069665977645" lon="8.496807491618824"><ele>375.6666666666667</ele><time>2026-04-19T14:29:05.999Z</time></trkpt><trkpt lat="44.491919054001364" lon="8.496885194463017"><ele>376.33333333333337</ele><time>2026-04-19T14:29:06.999Z</time></trkpt><trkpt lat="44.49173526841158" lon="8.496940857909616"><ele>377.0</ele><time>2026-04-19T14:29:07.999Z</time></trkpt><trkpt lat="44.49159053011623" lon="8.497003772533239"><ele>377.0</ele><time>2026-04-19T14:29:08.999Z</time></trkpt><trkpt lat="44.49148176314101" lon="8.49703402122478"><ele>377.0</ele><time>2026-04-19T14:29:09.999Z</time></trkpt><trkpt lat="44.491412412305806" lon="8.497032150955349"><ele>377.0</ele><time>2026-04-19T14:29:10.999Z</time></trkpt><trkpt lat="44.49135167995393" lon="8.496978490876854"><ele>377.0</ele><time>2026-04-19T14:29:11.999Z</time></trkpt><trkpt lat="44.49130859013717" lon="8.496848049717267"><ele>377.0</ele><time>2026-04-19T14:29:12.999Z</time></trkpt><trkpt lat="44.4913236215179" lon="8.496676003263648"><ele>377.0</ele><time>2026-04-19T14:29:13.999Z</time></trkpt><trkpt lat="44.491300856751145" lon="8.49651438789455"><ele>377.0</ele><time>2026-04-19T14:29:14.999Z</time></trkpt><trkpt lat="44.49126154300247" lon="8.496393708464126"><ele>377.0</ele><time>2026-04-19T14:29:15.999Z</time></trkpt><trkpt lat="44.49118807607351" lon="8.496305346019335"><ele>377.0</ele><time>2026-04-19T14:29:16.999Z</time></trkpt><trkpt lat="44.49105170454431" lon="8.496302065340489"><ele>377.0</ele><time>2026-04-19T14:29:17.999Z</time></trkpt><trkpt lat="44.49091120262979" lon="8.49630972601874"><ele>378.6</ele><time>2026-04-19T14:29:18.999Z</time></trkpt><trkpt lat="44.490793382348045" lon="8.496320583470844"><ele>380.20000000000005</ele><time>2026-04-19T14:29:19.999Z</time></trkpt><trkpt lat="44.49071012321873" lon="8.496363046728733"><ele>381.8</ele><time>2026-04-19T14:29:20.999Z</time></trkpt><trkpt lat="44.49066062369887" lon="8.496458316105064"><ele>383.4</ele><time>2026-04-19T14:29:21.999Z</time></trkpt><trkpt lat="44.490628525554115" lon="8.49658391250942"><ele>385.0</ele><time>2026-04-19T14:29:22.999Z</time></trkpt><trkpt lat="44.49064673934897" lon="8.496769805250404"><ele>385.0</ele><time>2026-04-19T14:29:23.999Z</time></trkpt><trkpt lat="44.49058860028412" lon="8.496908222583391"><ele>385.0</ele><time>2026-04-19T14:29:24.999Z</time></trkpt><trkpt lat="44.49050793251958" lon="8.497020579914317"><ele>385.0</ele><time>2026-04-19T14:29:25.999Z</time></trkpt><trkpt lat="44.49039777245819" lon="8.497043196577069"><ele>385.0</ele><time>2026-04-19T14:29:26.999Z</time></trkpt><trkpt lat="44.49028447392001" lon="8.497035742539913"><ele>384.5</ele><time>2026-04-19T14:29:27.999Z</time></trkpt><trkpt lat="44.4901571889747" lon="8.497049652216747"><ele>384.0</ele><time>2026-04-19T14:29:28.999Z</time></trkpt><trkpt lat="44.49002644219185" lon="8.497080042273943"><ele>383.5</ele><time>2026-04-19T14:29:29.999Z</time></trkpt><trkpt lat="44.489894608435776" lon="8.497181404794944"><ele>383.0</ele><time>2026-04-19T14:29:30.999Z</time></trkpt><trkpt lat="44.4897791665776" lon="8.497310449121077"><ele>385.75</ele><time>2026-04-19T14:29:31.999Z</time></trkpt><trkpt lat="44.489693563052214" lon="8.497460213993694"><ele>388.5</ele><time>2026-04-19T14:29:32.999Z</time></trkpt><trkpt lat="44.48960590655895" lon="8.49762773571269"><ele>391.25</ele><time>2026-04-19T14:29:33.999Z</time></trkpt><trkpt lat="44.489500400762864" lon="8.497734907184316"><ele>394.0</ele><time>2026-04-19T14:29:34.999Z</time></trkpt><trkpt lat="44.48939956611666" lon="8.497794600375908"><ele>394.5</ele><time>2026-04-19T14:29:35.999Z</time></trkpt><trkpt lat="44.489289784379146" lon="8.49780813548363"><ele>395.0</ele><time>2026-04-19T14:29:36.999Z</time></trkpt><trkpt lat="44.48917067367507" lon="8.497769763180726"><ele>395.5</ele><time>2026-04-19T14:29:37.999Z</time></trkpt><trkpt lat="44.489063614571144" lon="8.49766727037199"><ele>396.0</ele><time>2026-04-19T14:29:38.999Z</time></trkpt><trkpt lat="44.48897223889975" lon="8.497532738731113"><ele>396.0</ele><time>2026-04-19T14:29:39.999Z</time></trkpt><trkpt lat="44.48891502770008" lon="8.49735792843468"><ele>396.0</ele><time>2026-04-19T14:29:40.999Z</time></trkpt><trkpt lat="44.48883732488779" lon="8.497243445637938"><ele>396.0</ele><time>2026-04-19T14:29:41.999Z</time></trkpt><trkpt lat="44.48872397090027" lon="8.497200102700475"><ele>396.0</ele><time>2026-04-19T14:29:42.999Z</time></trkpt><trkpt lat="44.48859796175958" lon="8.497203976392136"><ele>400.0</ele><time>2026-04-19T14:29:43.999Z</time></trkpt><trkpt lat="44.48847665348878" lon="8.497263828408366"><ele>404.0</ele><time>2026-04-19T14:29:44.999Z</time></trkpt><trkpt lat="44.48837690090423" lon="8.497375354973652"><ele>408.0</ele><time>2026-04-19T14:29:45.999Z</time></trkpt><trkpt lat="44.48828211235081" lon="8.497462505660083"><ele>412.0</ele><time>2026-04-19T14:29:46.999Z</time></trkpt><trkpt lat="44.48818715961442" lon="8.497501452371258"><ele>412.0</ele><time>2026-04-19T14:29:47.999Z</time></trkpt><trkpt lat="44.48809618717757" lon="8.4975014533316"><ele>412.0</ele><time>2026-04-19T14:29:48.999Z</time></trkpt><trkpt lat="44.48801573034919" lon="8.497397325820604"><ele>412.0</ele><time>2026-04-19T14:29:49.999Z</time></trkpt><trkpt lat="44.48798204311712" lon="8.497241081671538"><ele>412.0</ele><time>2026-04-19T14:29:50.999Z</time></trkpt><trkpt lat="44.487931947797456" lon="8.497115998881405"><ele>412.0</ele><time>2026-04-19T14:29:51.999Z</time></trkpt><trkpt lat="44.48781649606645" lon="8.4970002635454"><ele>410.6666666666667</ele><time>2026-04-19T14:29:52.999Z</time></trkpt><trkpt lat="44.487662894825526" lon="8.496921341952948"><ele>409.33333333333337</ele><time>2026-04-19T14:29:53.999Z</time></trkpt><trkpt lat="44.48750601208487" lon="8.49683863573676"><ele>408.0</ele><time>2026-04-19T14:29:54.999Z</time></trkpt><trkpt lat="44.48737852127802" lon="8.496815443188185"><ele>408.0</ele><time>2026-04-19T14:29:55.999Z</time></trkpt><trkpt lat="44.48722781118592" lon="8.496839836186448"><ele>408.0</ele><time>2026-04-19T14:29:56.999Z</time></trkpt><trkpt lat="44.487067551938324" lon="8.4969329325481"><ele>408.0</ele><time>2026-04-19T14:29:57.999Z</time></trkpt><trkpt lat="44.48689995076451" lon="8.497063611351741"><ele>410.0</ele><time>2026-04-19T14:29:58.999Z</time></trkpt><trkpt lat="44.486748084544" lon="8.497170569902172"><ele>412.0</ele><time>2026-04-19T14:29:59.999Z</time></trkpt><trkpt lat="44.486600372730074" lon="8.497224997207336"><ele>414.0</ele><time>2026-04-19T14:30:00.999Z</time></trkpt><trkpt lat="44.48644446827605" lon="8.497205668680266"><ele>414.0</ele><time>2026-04-19T14:30:01.999Z</time></trkpt><trkpt lat="44.486275626022746" lon="8.49716335710591"><ele>414.0</ele><time>2026-04-19T14:30:02.999Z</time></trkpt><trkpt lat="44.486074334613804" lon="8.497091648942094"><ele>414.0</ele><time>2026-04-19T14:30:03.999Z</time></trkpt><trkpt lat="44.485856204395105" lon="8.497010331055161"><ele>413.0</ele><time>2026-04-19T14:30:04.999Z</time></trkpt><trkpt lat="44.485666440723556" lon="8.49691623531232"><ele>412.0</ele><time>2026-04-19T14:30:05.999Z</time></trkpt><trkpt lat="44.485501805549724" lon="8.49681351485111"><ele>411.0</ele><time>2026-04-19T14:30:06.999Z</time></trkpt><trkpt lat="44.48535004843131" lon="8.49670934853022"><ele>407.66666666666663</ele><time>2026-04-19T14:30:08Z</time></trkpt><trkpt lat="44.48519827815822" lon="8.496607946529869"><ele>404.3333333333333</ele><time>2026-04-19T14:30:09Z</time></trkpt><trkpt lat="44.48509100924765" lon="8.496438009036222"><ele>401.0</ele><time>2026-04-19T14:30:10Z</time></trkpt><trkpt lat="44.48498526573916" lon="8.49629857051215"><ele>401.0</ele><time>2026-04-19T14:30:11Z</time></trkpt><trkpt lat="44.484892616804814" lon="8.496169301527416"><ele>401.0</ele><time>2026-04-19T14:30:12Z</time></trkpt><trkpt lat="44.48485088600103" lon="8.496008569825346"><ele>401.0</ele><time>2026-04-19T14:30:13Z</time></trkpt><trkpt lat="44.484870542988645" lon="8.495829591730281"><ele>401.0</ele><time>2026-04-19T14:30:14Z</time></trkpt><trkpt lat="44.48490252891814" lon="8.495635529225165"><ele>401.0</ele><time>2026-04-19T14:30:15Z</time></trkpt><trkpt lat="44.48493395373663" lon="8.495433741825561"><ele>401.0</ele><time>2026-04-19T14:30:16Z</time></trkpt><trkpt lat="44.48494160679049" lon="8.495260745732125"><ele>401.0</ele><time>2026-04-19T14:30:17Z</time></trkpt><trkpt lat="44.48489977934737" lon="8.495113486660735"><ele>401.0</ele><time>2026-04-19T14:30:18Z</time></trkpt><trkpt lat="44.484817409089985" lon="8.494997814824176"><ele>401.0</ele><time>2026-04-19T14:30:19Z</time></trkpt><trkpt lat="44.48470136379226" lon="8.49491864873108"><ele>401.0</ele><time>2026-04-19T14:30:20Z</time></trkpt><trkpt lat="44.48456592024781" lon="8.494895328716623"><ele>401.0</ele><time>2026-04-19T14:30:21Z</time></trkpt><trkpt lat="44.48442806029593" lon="8.494897556249025"><ele>401.0</ele><time>2026-04-19T14:30:22Z</time></trkpt><trkpt lat="44.484307000204524" lon="8.49484372289646"><ele>398.66666666666663</ele><time>2026-04-19T14:30:23Z</time></trkpt><trkpt lat="44.48420337827567" lon="8.494742413750878"><ele>396.33333333333337</ele><time>2026-04-19T14:30:24Z</time></trkpt><trkpt lat="44.48407233552486" lon="8.494574301733977"><ele>394.0</ele><time>2026-04-19T14:30:25Z</time></trkpt><trkpt lat="44.48390682044667" lon="8.494432512589194"><ele>391.75</ele><time>2026-04-19T14:30:25.999Z</time></trkpt><trkpt lat="44.48376341581016" lon="8.494312244154349"><ele>389.5</ele><time>2026-04-19T14:30:26.999Z</time></trkpt><trkpt lat="44.483650065351924" lon="8.494219347432608"><ele>387.25</ele><time>2026-04-19T14:30:27.999Z</time></trkpt><trkpt lat="44.483574914245395" lon="8.494104461836843"><ele>385.0</ele><time>2026-04-19T14:30:28.999Z</time></trkpt><trkpt lat="44.4835662095633" lon="8.49394486663083"><ele>385.0</ele><time>2026-04-19T14:30:29.999Z</time></trkpt><trkpt lat="44.483552742594924" lon="8.493759033021425"><ele>385.0</ele><time>2026-04-19T14:30:30.999Z</time></trkpt><trkpt lat="44.4835328508082" lon="8.493546068205177"><ele>385.0</ele><time>2026-04-19T14:30:31.999Z</time></trkpt><trkpt lat="44.4834991735896" lon="8.49333641337481"><ele>385.0</ele><time>2026-04-19T14:30:32.999Z</time></trkpt><trkpt lat="44.483430477359484" lon="8.493173700225116"><ele>385.75</ele><time>2026-04-19T14:30:33.999Z</time></trkpt><trkpt lat="44.483333153708415" lon="8.493064649704083"><ele>386.5</ele><time>2026-04-19T14:30:34.999Z</time></trkpt><trkpt lat="44.483212361540325" lon="8.493003309943555"><ele>387.25</ele><time>2026-04-19T14:30:35.999Z</time></trkpt><trkpt lat="44.48306480026548" lon="8.4929804763916"><ele>388.0</ele><time>2026-04-19T14:30:36.999Z</time></trkpt><trkpt lat="44.482892128713885" lon="8.492977155597936"><ele>388.0</ele><time>2026-04-19T14:30:37.999Z</time></trkpt><trkpt lat="44.48271016571869" lon="8.492960045224512"><ele>388.0</ele><time>2026-04-19T14:30:38.999Z</time></trkpt><trkpt lat="44.4825568780602" lon="8.492858279220206"><ele>388.0</ele><time>2026-04-19T14:30:39.999Z</time></trkpt><trkpt lat="44.48240716677231" lon="8.492801674908705"><ele>388.0</ele><time>2026-04-19T14:30:40.999Z</time></trkpt><trkpt lat="44.48229564634113" lon="8.492720457520118"><ele>388.0</ele><time>2026-04-19T14:30:41.999Z</time></trkpt><trkpt lat="44.482199248279045" lon="8.492641507805892"><ele>388.0</ele><time>2026-04-19T14:30:42.999Z</time></trkpt><trkpt lat="44.48211788279214" lon="8.492529680991945"><ele>388.0</ele><time>2026-04-19T14:30:43.999Z</time></trkpt><trkpt lat="44.48208277613621" lon="8.49235360660485"><ele>384.0</ele><time>2026-04-19T14:30:44.999Z</time></trkpt><trkpt lat="44.482051123490265" lon="8.492143737039475"><ele>380.0</ele><time>2026-04-19T14:30:45.999Z</time></trkpt><trkpt lat="44.48201799703433" lon="8.491896463413195"><ele>376.0</ele><time>2026-04-19T14:30:46.999Z</time></trkpt><trkpt lat="44.48200519861257" lon="8.491645282346804"><ele>376.0</ele><time>2026-04-19T14:30:47.999Z</time></trkpt><trkpt lat="44.48198654761487" lon="8.491419676761971"><ele>376.0</ele><time>2026-04-19T14:30:48.999Z</time></trkpt><trkpt lat="44.48197362028343" lon="8.491223972024354"><ele>376.0</ele><time>2026-04-19T14:30:49.999Z</time></trkpt><trkpt lat="44.481952017342934" lon="8.491035504299658"><ele>376.0</ele><time>2026-04-19T14:30:50.999Z</time></trkpt><trkpt lat="44.48192360253295" lon="8.490852841713167"><ele>375.75</ele><time>2026-04-19T14:30:51.999Z</time></trkpt><trkpt lat="44.481881834287016" lon="8.490680142373817"><ele>375.5</ele><time>2026-04-19T14:30:52.999Z</time></trkpt><trkpt lat="44.48182288747417" lon="8.49053025625156"><ele>375.25</ele><time>2026-04-19T14:30:53.999Z</time></trkpt><trkpt lat="44.48174980120215" lon="8.490407093727267"><ele>375.0</ele><time>2026-04-19T14:30:54.999Z</time></trkpt><trkpt lat="44.48166927046321" lon="8.490307508237356"><ele>374.0</ele><time>2026-04-19T14:30:55.999Z</time></trkpt><trkpt lat="44.48158938590443" lon="8.49022027155114"><ele>373.0</ele><time>2026-04-19T14:30:56.999Z</time></trkpt><trkpt lat="44.48150117699462" lon="8.490156990148582"><ele>372.0</ele><time>2026-04-19T14:30:57.999Z</time></trkpt><trkpt lat="44.48140428015679" lon="8.49012978146517"><ele>371.0</ele><time>2026-04-19T14:30:58.999Z</time></trkpt><trkpt lat="44.48130743298136" lon="8.49012737438061"><ele>370.0</ele><time>2026-04-19T14:30:59.999Z</time></trkpt><trkpt lat="44.481206379424215" lon="8.490135285013626"><ele>369.8</ele><time>2026-04-19T14:31:00.999Z</time></trkpt><trkpt lat="44.481098050663306" lon="8.49014307063537"><ele>369.6</ele><time>2026-04-19T14:31:01.999Z</time></trkpt><trkpt lat="44.48098864899242" lon="8.490143121202548"><ele>369.4</ele><time>2026-04-19T14:31:02.999Z</time></trkpt><trkpt lat="44.48088003759781" lon="8.490139901076"><ele>369.2</ele><time>2026-04-19T14:31:03.999Z</time></trkpt><trkpt lat="44.48077408579019" lon="8.490138856835287"><ele>369.0</ele><time>2026-04-19T14:31:04.999Z</time></trkpt><trkpt lat="44.48066917661831" lon="8.490139494008746"><ele>369.0</ele><time>2026-04-19T14:31:05.999Z</time></trkpt><trkpt lat="44.48056703655729" lon="8.490140510934726"><ele>369.0</ele><time>2026-04-19T14:31:06.999Z</time></trkpt><trkpt lat="44.48047000682025" lon="8.490140597389056"><ele>369.0</ele><time>2026-04-19T14:31:07.999Z</time></trkpt><trkpt lat="44.48029795253124" lon="8.490143022741124"><ele>369.0</ele><time>2026-04-19T14:31:09.999Z</time></trkpt><trkpt lat="44.48022096742836" lon="8.49014726139139"><ele>369.0</ele><time>2026-04-19T14:31:10.999Z</time></trkpt><trkpt lat="44.48015201901277" lon="8.490152921621709"><ele>370.6</ele><time>2026-04-19T14:31:11.999Z</time></trkpt><trkpt lat="44.48004257460351" lon="8.49015132558439"><ele>372.2</ele><time>2026-04-19T14:31:13.999Z</time></trkpt><trkpt lat="44.47994746924084" lon="8.490150650166132"><ele>373.8</ele><time>2026-04-19T14:31:15.999Z</time></trkpt><trkpt lat="44.47984063931268" lon="8.490146446450508"><ele>375.40000000000003</ele><time>2026-04-19T14:31:17.999Z</time></trkpt><trkpt lat="44.4797450757516" lon="8.490153479655376"><ele>377.0</ele><time>2026-04-19T14:31:19.999Z</time></trkpt><trkpt lat="44.47966708384247" lon="8.490153900741369"><ele>379.0</ele><time>2026-04-19T14:31:21.999Z</time></trkpt><trkpt lat="44.47959072763278" lon="8.490147418172834"><ele>381.0</ele><time>2026-04-19T14:31:23.999Z</time></trkpt><trkpt lat="44.47951959213793" lon="8.490141697373891"><ele>383.0</ele><time>2026-04-19T14:31:25.999Z</time></trkpt><trkpt lat="44.47944473746009" lon="8.490102543085031"><ele>385.0</ele><time>2026-04-19T14:31:28.999Z</time></trkpt><trkpt lat="44.479390666511655" lon="8.49002925881032"><ele>386.99999999999994</ele><time>2026-04-19T14:31:30.999Z</time></trkpt><trkpt lat="44.479338081475" lon="8.48987370704642"><ele>389.0</ele><time>2026-04-19T14:31:32.999Z</time></trkpt><trkpt lat="44.479314353186375" lon="8.48979043198124"><ele>388.99999999999994</ele><time>2026-04-19T14:31:33.999Z</time></trkpt><trkpt lat="44.479310011917555" lon="8.48969842963059"><ele>389.0</ele><time>2026-04-19T14:31:34.999Z</time></trkpt><trkpt lat="44.47927374922016" lon="8.489554427134793"><ele>389.0</ele><time>2026-04-19T14:31:36.999Z</time></trkpt><trkpt lat="44.47925133693844" lon="8.4894701573699"><ele>389.0</ele><time>2026-04-19T14:31:37.999Z</time></trkpt><trkpt lat="44.47923458742147" lon="8.48937437174069"><ele>388.99999999999994</ele><time>2026-04-19T14:31:38.999Z</time></trkpt><trkpt lat="44.4792113649134" lon="8.489274861115831"><ele>389.0</ele><time>2026-04-19T14:31:39.999Z</time></trkpt><trkpt lat="44.479185236785824" lon="8.489174686529593"><ele>388.49999999999994</ele><time>2026-04-19T14:31:40.999Z</time></trkpt><trkpt lat="44.479157316180185" lon="8.489083326052349"><ele>388.0</ele><time>2026-04-19T14:31:41.999Z</time></trkpt><trkpt lat="44.479126160864666" lon="8.48900347072501"><ele>387.5</ele><time>2026-04-19T14:31:42.999Z</time></trkpt><trkpt lat="44.47907963466805" lon="8.488938543320272"><ele>387.0</ele><time>2026-04-19T14:31:43.999Z</time></trkpt><trkpt lat="44.478994635395644" lon="8.488878010378144"><ele>386.49999999999994</ele><time>2026-04-19T14:31:45.999Z</time></trkpt><trkpt lat="44.478937099283804" lon="8.488805734798628"><ele>386.0</ele><time>2026-04-19T14:31:48.999Z</time></trkpt><trkpt lat="44.47902590580773" lon="8.488902921313336"><ele>386.0</ele><time>2026-04-19T14:32:05.999Z</time></trkpt><trkpt lat="44.47908779757427" lon="8.488929954875829"><ele>386.0</ele><time>2026-04-19T14:32:06.999Z</time></trkpt><trkpt lat="44.47914953109026" lon="8.488963088111127"><ele>386.0</ele><time>2026-04-19T14:32:07.999Z</time></trkpt><trkpt lat="44.47916726900903" lon="8.489211221208091"><ele>386.0</ele><time>2026-04-19T14:32:08.999Z</time></trkpt><trkpt lat="44.479193196086825" lon="8.489323740268926"><ele>386.0</ele><time>2026-04-19T14:32:09.999Z</time></trkpt><trkpt lat="44.47921797435673" lon="8.489417830432659"><ele>385.99999999999994</ele><time>2026-04-19T14:32:10.999Z</time></trkpt><trkpt lat="44.47924948896542" lon="8.489563361289619"><ele>386.0</ele><time>2026-04-19T14:32:12.999Z</time></trkpt><trkpt lat="44.479276236547435" lon="8.489654777593294"><ele>386.0</ele><time>2026-04-19T14:32:14.999Z</time></trkpt><trkpt lat="44.47929903788009" lon="8.489744974811433"><ele>386.0</ele><time>2026-04-19T14:32:16.999Z</time></trkpt><trkpt lat="44.47932434683051" lon="8.489860147900274"><ele>385.99999999999994</ele><time>2026-04-19T14:32:20Z</time></trkpt><trkpt lat="44.4793585016238" lon="8.489981735735304"><ele>386.0</ele><time>2026-04-19T14:32:23Z</time></trkpt><trkpt lat="44.479388442165515" lon="8.49007285310647"><ele>386.6</ele><time>2026-04-19T14:32:25Z</time></trkpt><trkpt lat="44.479434721358324" lon="8.490179904895694"><ele>387.20000000000005</ele><time>2026-04-19T14:32:28Z</time></trkpt><trkpt lat="44.47955014174756" lon="8.490210650805146"><ele>387.79999999999995</ele><time>2026-04-19T14:32:30Z</time></trkpt><trkpt lat="44.47964645282369" lon="8.49021465565723"><ele>388.4</ele><time>2026-04-19T14:32:32Z</time></trkpt><trkpt lat="44.479706161046266" lon="8.490284464230877"><ele>389.0</ele><time>2026-04-19T14:32:35Z</time></trkpt><trkpt lat="44.479711576623394" lon="8.490398311444576"><ele>388.8333333333333</ele><time>2026-04-19T14:32:37Z</time></trkpt><trkpt lat="44.47972689403682" lon="8.490494211888302"><ele>388.66666666666663</ele><time>2026-04-19T14:32:39Z</time></trkpt><trkpt lat="44.479718517917455" lon="8.490612792523086"><ele>388.5</ele><time>2026-04-19T14:32:42Z</time></trkpt><trkpt lat="44.47966786421964" lon="8.49066687818938"><ele>388.33333333333337</ele><time>2026-04-19T14:32:44Z</time></trkpt><trkpt lat="44.479605033349166" lon="8.490677347582551"><ele>388.1666666666667</ele><time>2026-04-19T14:32:46Z</time></trkpt><trkpt lat="44.4795402536882" lon="8.490666808651085"><ele>388.0</ele><time>2026-04-19T14:32:50.999Z</time></trkpt><trkpt lat="44.479624051232996" lon="8.490749531511044"><ele>385.79999999999995</ele><time>2026-04-19T14:35:19Z</time></trkpt><trkpt lat="44.47968864224726" lon="8.490690876249005"><ele>383.6</ele><time>2026-04-19T14:52:06Z</time></trkpt><trkpt lat="44.479618627862166" lon="8.490644315658884"><ele>381.4</ele><time>2026-04-19T14:52:22Z</time></trkpt><trkpt lat="44.479621960468165" lon="8.490512568398456"><ele>379.20000000000005</ele><time>2026-04-19T14:52:44Z</time></trkpt><trkpt lat="44.47965265294103" lon="8.490702446601835"><ele>377.0</ele><time>2026-04-19T14:53:00Z</time></trkpt><trkpt lat="44.479632869360636" lon="8.490610335331583"><ele>377.0</ele><time>2026-04-19T14:53:11Z</time></trkpt><trkpt lat="44.479636495039244" lon="8.490490403566044"><ele>377.0</ele><time>2026-04-19T14:53:18Z</time></trkpt><trkpt lat="44.479700454683055" lon="8.490714776929332"><ele>377.0</ele><time>2026-04-19T14:53:54Z</time></trkpt><trkpt lat="44.47962856531018" lon="8.490669746235206"><ele>377.0</ele><time>2026-04-19T14:54:47.428Z</time></trkpt><trkpt lat="44.47954417240173" lon="8.490531933240876"><ele>377.0</ele><time>2026-04-19T14:55:29.428Z</time></trkpt><trkpt lat="44.47958625102648" lon="8.490661227383615"><ele>377.0</ele><time>2026-04-19T14:57:10.189Z</time></trkpt><trkpt lat="44.479776617406955" lon="8.490774564071286"><ele>377.0</ele><time>2026-04-19T14:58:28.018Z</time></trkpt><trkpt lat="44.479721952528635" lon="8.490826220866728"><ele>377.0</ele><time>2026-04-19T14:58:58.021Z</time></trkpt><trkpt lat="44.4796441400351" lon="8.490856107582529"><ele>377.0</ele><time>2026-04-19T14:59:00.02Z</time></trkpt><trkpt lat="44.479811844066525" lon="8.49070803793097"><ele>377.0</ele><time>2026-04-19T14:59:23.021Z</time></trkpt><trkpt lat="44.47987518665082" lon="8.49080504498658"><ele>377.0</ele><time>2026-04-19T14:59:58.02Z</time></trkpt><trkpt lat="44.47996880267268" lon="8.490783383911129"><ele>377.0</ele><time>2026-04-19T15:00:08.02Z</time></trkpt><trkpt lat="44.479897253403884" lon="8.490793011958294"><ele>377.0</ele><time>2026-04-19T15:00:12.02Z</time></trkpt><trkpt lat="44.47982117162712" lon="8.490796642898326"><ele>377.0</ele><time>2026-04-19T15:00:17.02Z</time></trkpt><trkpt lat="44.47977450883654" lon="8.490878891021639"><ele>377.0</ele><time>2026-04-19T15:00:20.018Z</time></trkpt><trkpt lat="44.47970627980101" lon="8.490830497310762"><ele>377.0</ele><time>2026-04-19T15:00:30.025Z</time></trkpt><trkpt lat="44.479613387048595" lon="8.490793731653321"><ele>377.0</ele><time>2026-04-19T15:00:31.025Z</time></trkpt><trkpt lat="44.47951686615466" lon="8.490745355399751"><ele>377.0</ele><time>2026-04-19T15:00:33.025Z</time></trkpt><trkpt lat="44.47959023759462" lon="8.490697812110287"><ele>377.0</ele><time>2026-04-19T15:00:34.025Z</time></trkpt><trkpt lat="44.4796827684621" lon="8.490699899481953"><ele>377.0</ele><time>2026-04-19T15:00:49.004Z</time></trkpt><trkpt lat="44.479634583652484" lon="8.490633711670897"><ele>377.0</ele><time>2026-04-19T15:01:20.001Z</time></trkpt><trkpt lat="44.47956837144162" lon="8.490662151541807"><ele>377.0</ele><time>2026-04-19T15:01:26.001Z</time></trkpt><trkpt lat="44.47949884167392" lon="8.490629260108827"><ele>377.0</ele><time>2026-04-19T15:01:33.001Z</time></trkpt><trkpt lat="44.47943182936941" lon="8.490622083359042"><ele>377.0</ele><time>2026-04-19T15:05:11Z</time></trkpt><trkpt lat="44.479424871736676" lon="8.490497680403585"><ele>379.40000000000003</ele><time>2026-04-19T15:05:13Z</time></trkpt><trkpt lat="44.47941963734538" lon="8.490376898703866"><ele>381.8</ele><time>2026-04-19T15:05:15Z</time></trkpt><trkpt lat="44.47943215171907" lon="8.490284420307114"><ele>384.2</ele><time>2026-04-19T15:05:17Z</time></trkpt><trkpt lat="44.47942132522405" lon="8.490142287910261"><ele>386.6</ele><time>2026-04-19T15:05:20Z</time></trkpt><trkpt lat="44.479368691144295" lon="8.489981364205722"><ele>389.0</ele><time>2026-04-19T15:05:22Z</time></trkpt><trkpt lat="44.479332614303345" lon="8.48988293167815"><ele>389.0</ele><time>2026-04-19T15:05:23Z</time></trkpt><trkpt lat="44.479323834046795" lon="8.48975655056118"><ele>389.0</ele><time>2026-04-19T15:05:24Z</time></trkpt><trkpt lat="44.47929527142285" lon="8.489635350417508"><ele>389.0</ele><time>2026-04-19T15:05:25Z</time></trkpt><trkpt lat="44.479263005501316" lon="8.489514030949781"><ele>389.0</ele><time>2026-04-19T15:05:26Z</time></trkpt><trkpt lat="44.479240617419435" lon="8.489395473583507"><ele>389.0</ele><time>2026-04-19T15:05:27Z</time></trkpt><trkpt lat="44.47919533052636" lon="8.48926870448449"><ele>388.4</ele><time>2026-04-19T15:05:28Z</time></trkpt><trkpt lat="44.47915748684317" lon="8.489128094852802"><ele>387.79999999999995</ele><time>2026-04-19T15:05:29Z</time></trkpt><trkpt lat="44.47912390684096" lon="8.488997967415017"><ele>387.20000000000005</ele><time>2026-04-19T15:05:30Z</time></trkpt><trkpt lat="44.47907102277142" lon="8.48891234648561"><ele>386.6</ele><time>2026-04-19T15:05:31Z</time></trkpt><trkpt lat="44.479012638524104" lon="8.488842625376403"><ele>386.0</ele><time>2026-04-19T15:05:32Z</time></trkpt><trkpt lat="44.47888009685992" lon="8.488835425264568"><ele>385.5</ele><time>2026-04-19T15:05:33Z</time></trkpt><trkpt lat="44.478749920466086" lon="8.488829355620306"><ele>385.0</ele><time>2026-04-19T15:05:34Z</time></trkpt><trkpt lat="44.47862372334926" lon="8.488829568543714"><ele>384.5</ele><time>2026-04-19T15:05:35Z</time></trkpt><trkpt lat="44.47851928906669" lon="8.48878869922372"><ele>384.0</ele><time>2026-04-19T15:05:36Z</time></trkpt><trkpt lat="44.47841843627016" lon="8.48876575346159"><ele>383.0</ele><time>2026-04-19T15:05:37Z</time></trkpt><trkpt lat="44.478335357538505" lon="8.488741189536677"><ele>382.0</ele><time>2026-04-19T15:05:38Z</time></trkpt><trkpt lat="44.47826485730519" lon="8.488702241706001"><ele>381.0</ele><time>2026-04-19T15:05:39Z</time></trkpt><trkpt lat="44.47821224461661" lon="8.488648957962997"><ele>380.0</ele><time>2026-04-19T15:05:40Z</time></trkpt><trkpt lat="44.47819930058335" lon="8.488542570196756"><ele>379.0</ele><time>2026-04-19T15:05:41Z</time></trkpt><trkpt lat="44.47820354191333" lon="8.488398001958219"><ele>378.0</ele><time>2026-04-19T15:05:42Z</time></trkpt><trkpt lat="44.47817173324533" lon="8.488026627521908"><ele>377.5</ele><time>2026-04-19T15:05:44Z</time></trkpt><trkpt lat="44.47817257292219" lon="8.48782008283133"><ele>377.0</ele><time>2026-04-19T15:05:45Z</time></trkpt><trkpt lat="44.47815875389737" lon="8.487615451398378"><ele>376.5</ele><time>2026-04-19T15:05:46Z</time></trkpt><trkpt lat="44.478134592893944" lon="8.487407159941883"><ele>376.0</ele><time>2026-04-19T15:05:47Z</time></trkpt><trkpt lat="44.478093627995065" lon="8.487198514858983"><ele>375.66666666666663</ele><time>2026-04-19T15:05:48Z</time></trkpt><trkpt lat="44.47799601369116" lon="8.486807145241793"><ele>375.3333333333333</ele><time>2026-04-19T15:05:50Z</time></trkpt><trkpt lat="44.47794756645152" lon="8.486630520293714"><ele>375.0</ele><time>2026-04-19T15:05:51Z</time></trkpt><trkpt lat="44.47788868720204" lon="8.486465733283838"><ele>372.5</ele><time>2026-04-19T15:05:52Z</time></trkpt><trkpt lat="44.47782373077485" lon="8.486310801657886"><ele>370.0</ele><time>2026-04-19T15:05:53Z</time></trkpt><trkpt lat="44.477741114186884" lon="8.486179729637605"><ele>367.5</ele><time>2026-04-19T15:05:54Z</time></trkpt><trkpt lat="44.47763469304133" lon="8.486053734815531"><ele>365.0</ele><time>2026-04-19T15:05:55Z</time></trkpt><trkpt lat="44.47749903066512" lon="8.485933768200878"><ele>365.0</ele><time>2026-04-19T15:05:56Z</time></trkpt><trkpt lat="44.47735086598843" lon="8.485820967664361"><ele>365.0</ele><time>2026-04-19T15:05:57Z</time></trkpt><trkpt lat="44.47721711962323" lon="8.485721883598496"><ele>365.0</ele><time>2026-04-19T15:05:58Z</time></trkpt><trkpt lat="44.47709404495118" lon="8.485640842382988"><ele>364.75</ele><time>2026-04-19T15:05:59Z</time></trkpt><trkpt lat="44.47697423414974" lon="8.485580192855055"><ele>364.5</ele><time>2026-04-19T15:06:00Z</time></trkpt><trkpt lat="44.47685640895642" lon="8.485552409158709"><ele>364.25</ele><time>2026-04-19T15:06:01Z</time></trkpt><trkpt lat="44.47674699879635" lon="8.485569572585824"><ele>364.0</ele><time>2026-04-19T15:06:02Z</time></trkpt><trkpt lat="44.476654516651266" lon="8.485621151927539"><ele>364.0</ele><time>2026-04-19T15:06:03Z</time></trkpt><trkpt lat="44.47658593428559" lon="8.485673927785534"><ele>364.0</ele><time>2026-04-19T15:06:04Z</time></trkpt><trkpt lat="44.47652292610142" lon="8.485744226299605"><ele>364.0</ele><time>2026-04-19T15:06:05Z</time></trkpt><trkpt lat="44.47646232030373" lon="8.485835849708977"><ele>364.0</ele><time>2026-04-19T15:06:06Z</time></trkpt><trkpt lat="44.476411742072756" lon="8.485920526761747"><ele>364.0</ele><time>2026-04-19T15:06:07Z</time></trkpt><trkpt lat="44.47636026538356" lon="8.485995791498867"><ele>364.0</ele><time>2026-04-19T15:06:08Z</time></trkpt><trkpt lat="44.476298088415966" lon="8.48607544284896"><ele>364.25</ele><time>2026-04-19T15:06:09Z</time></trkpt><trkpt lat="44.47622953323783" lon="8.48616594973385"><ele>364.5</ele><time>2026-04-19T15:06:10Z</time></trkpt><trkpt lat="44.47615913577432" lon="8.486263526333618"><ele>364.75</ele><time>2026-04-19T15:06:11Z</time></trkpt><trkpt lat="44.47606446375702" lon="8.486365535019056"><ele>365.0</ele><time>2026-04-19T15:06:12Z</time></trkpt><trkpt lat="44.47596483612682" lon="8.486502675629644"><ele>366.0</ele><time>2026-04-19T15:06:13Z</time></trkpt><trkpt lat="44.47585066961278" lon="8.486659829471064"><ele>367.0</ele><time>2026-04-19T15:06:14Z</time></trkpt><trkpt lat="44.47573855150169" lon="8.486814163636733"><ele>368.0</ele><time>2026-04-19T15:06:15Z</time></trkpt><trkpt lat="44.475653449667384" lon="8.486960584027905"><ele>368.0</ele><time>2026-04-19T15:06:16Z</time></trkpt><trkpt lat="44.475544992859206" lon="8.487053137996405"><ele>368.0</ele><time>2026-04-19T15:06:17Z</time></trkpt><trkpt lat="44.475417369386214" lon="8.48703550660916"><ele>368.0</ele><time>2026-04-19T15:06:18Z</time></trkpt><trkpt lat="44.475280057473434" lon="8.487057565672815"><ele>368.0</ele><time>2026-04-19T15:06:19Z</time></trkpt><trkpt lat="44.475128814864426" lon="8.487112652570575"><ele>370.33333333333337</ele><time>2026-04-19T15:06:20Z</time></trkpt><trkpt lat="44.47496475570564" lon="8.487144759631999"><ele>372.6666666666667</ele><time>2026-04-19T15:06:21Z</time></trkpt><trkpt lat="44.474801953738705" lon="8.48719887059073"><ele>375.0</ele><time>2026-04-19T15:06:22Z</time></trkpt><trkpt lat="44.47463857519475" lon="8.487238084767077"><ele>376.3333333333333</ele><time>2026-04-19T15:06:23Z</time></trkpt><trkpt lat="44.4744739794586" lon="8.487220825107398"><ele>377.66666666666663</ele><time>2026-04-19T15:06:24Z</time></trkpt><trkpt lat="44.474318633883264" lon="8.48710435112185"><ele>379.0</ele><time>2026-04-19T15:06:25Z</time></trkpt><trkpt lat="44.47415482097357" lon="8.486971210843897"><ele>379.3333333333333</ele><time>2026-04-19T15:06:26Z</time></trkpt><trkpt lat="44.47398441988056" lon="8.48683226756588"><ele>379.6666666666667</ele><time>2026-04-19T15:06:27Z</time></trkpt><trkpt lat="44.47381771524133" lon="8.48671069216164"><ele>380.0</ele><time>2026-04-19T15:06:28Z</time></trkpt><trkpt lat="44.4736635823748" lon="8.486570309494205"><ele>380.0</ele><time>2026-04-19T15:06:29Z</time></trkpt><trkpt lat="44.47352117294119" lon="8.486448233258352"><ele>380.0</ele><time>2026-04-19T15:06:30Z</time></trkpt><trkpt lat="44.4734118815802" lon="8.48635721327848"><ele>380.0</ele><time>2026-04-19T15:06:31Z</time></trkpt><trkpt lat="44.47333167278498" lon="8.48628802416053"><ele>380.0</ele><time>2026-04-19T15:06:32Z</time></trkpt><trkpt lat="44.473260426995466" lon="8.486224441469993"><ele>379.4</ele><time>2026-04-19T15:06:33Z</time></trkpt><trkpt lat="44.473190246984544" lon="8.486159513206436"><ele>378.8</ele><time>2026-04-19T15:06:34Z</time></trkpt><trkpt lat="44.47312107354926" lon="8.486085217145046"><ele>378.20000000000005</ele><time>2026-04-19T15:06:35Z</time></trkpt><trkpt lat="44.473037735902636" lon="8.486014969887274"><ele>377.6</ele><time>2026-04-19T15:06:36Z</time></trkpt><trkpt lat="44.47294494273391" lon="8.48593681468007"><ele>377.0</ele><time>2026-04-19T15:06:37Z</time></trkpt><trkpt lat="44.47284406496292" lon="8.48585189704156"><ele>377.0</ele><time>2026-04-19T15:06:38Z</time></trkpt><trkpt lat="44.472740695732895" lon="8.485759354654924"><ele>377.0</ele><time>2026-04-19T15:06:39Z</time></trkpt><trkpt lat="44.47263353701059" lon="8.485662829408849"><ele>377.0</ele><time>2026-04-19T15:06:40Z</time></trkpt><trkpt lat="44.47252393382907" lon="8.485564102241183"><ele>377.0</ele><time>2026-04-19T15:06:41Z</time></trkpt><trkpt lat="44.47240675372863" lon="8.485458550028763"><ele>377.25</ele><time>2026-04-19T15:06:42Z</time></trkpt><trkpt lat="44.472281683491346" lon="8.485345890545709"><ele>377.5</ele><time>2026-04-19T15:06:43Z</time></trkpt><trkpt lat="44.47213291454634" lon="8.485274577054781"><ele>377.75</ele><time>2026-04-19T15:06:44Z</time></trkpt><trkpt lat="44.472028494477435" lon="8.485164629635484"><ele>378.0</ele><time>2026-04-19T15:06:45Z</time></trkpt><trkpt lat="44.47194309567747" lon="8.485072123192715"><ele>378.0</ele><time>2026-04-19T15:06:46Z</time></trkpt><trkpt lat="44.471865509181534" lon="8.484990009189085"><ele>378.0</ele><time>2026-04-19T15:06:47Z</time></trkpt><trkpt lat="44.4717923029929" lon="8.484912686475713"><ele>378.0</ele><time>2026-04-19T15:06:48Z</time></trkpt><trkpt lat="44.47171820964693" lon="8.484844257832611"><ele>378.0</ele><time>2026-04-19T15:06:49Z</time></trkpt><trkpt lat="44.4716431963687" lon="8.484776976170277"><ele>378.0</ele><time>2026-04-19T15:06:50Z</time></trkpt><trkpt lat="44.47155904948878" lon="8.484698901641265"><ele>378.0</ele><time>2026-04-19T15:06:51Z</time></trkpt><trkpt lat="44.47146881739673" lon="8.484612654412171"><ele>378.0</ele><time>2026-04-19T15:06:52Z</time></trkpt><trkpt lat="44.47137727651409" lon="8.484519568135376"><ele>378.0</ele><time>2026-04-19T15:06:53Z</time></trkpt><trkpt lat="44.4712820218984" lon="8.484432847329755"><ele>378.0</ele><time>2026-04-19T15:06:54Z</time></trkpt><trkpt lat="44.47118232490773" lon="8.48436522803137"><ele>378.0</ele><time>2026-04-19T15:06:55Z</time></trkpt><trkpt lat="44.4710837232624" lon="8.484315814680706"><ele>378.25</ele><time>2026-04-19T15:06:56Z</time></trkpt><trkpt lat="44.470978267908514" lon="8.484290709008118"><ele>378.5</ele><time>2026-04-19T15:06:57Z</time></trkpt><trkpt lat="44.470865387726754" lon="8.484244647232229"><ele>378.75</ele><time>2026-04-19T15:06:58Z</time></trkpt><trkpt lat="44.47074590545888" lon="8.484222949645858"><ele>379.0</ele><time>2026-04-19T15:06:59Z</time></trkpt><trkpt lat="44.47062881339328" lon="8.484201686108657"><ele>379.0</ele><time>2026-04-19T15:07:00Z</time></trkpt><trkpt lat="44.470508965655796" lon="8.484180154313476"><ele>379.0</ele><time>2026-04-19T15:07:01Z</time></trkpt><trkpt lat="44.470389962048536" lon="8.484162440395126"><ele>379.0</ele><time>2026-04-19T15:07:02Z</time></trkpt><trkpt lat="44.47026590946924" lon="8.484150035080793"><ele>379.0</ele><time>2026-04-19T15:07:03Z</time></trkpt><trkpt lat="44.47014374599349" lon="8.484139716198161"><ele>379.75</ele><time>2026-04-19T15:07:04Z</time></trkpt><trkpt lat="44.47001504867729" lon="8.484137316822148"><ele>380.5</ele><time>2026-04-19T15:07:05Z</time></trkpt><trkpt lat="44.46988655976482" lon="8.484154478761297"><ele>381.25</ele><time>2026-04-19T15:07:06Z</time></trkpt><trkpt lat="44.469751128748754" lon="8.48419331279724"><ele>382.0</ele><time>2026-04-19T15:07:07Z</time></trkpt><trkpt lat="44.46961566944575" lon="8.484252950906605"><ele>381.3333333333333</ele><time>2026-04-19T15:07:08Z</time></trkpt><trkpt lat="44.46947005170055" lon="8.484293702412275"><ele>380.6666666666667</ele><time>2026-04-19T15:07:09Z</time></trkpt><trkpt lat="44.46931940376095" lon="8.484339745355909"><ele>380.0</ele><time>2026-04-19T15:07:10Z</time></trkpt><trkpt lat="44.46916429255093" lon="8.484388759674955"><ele>380.0</ele><time>2026-04-19T15:07:11Z</time></trkpt><trkpt lat="44.46900567797509" lon="8.484434950515341"><ele>380.0</ele><time>2026-04-19T15:07:12Z</time></trkpt><trkpt lat="44.4688432997726" lon="8.484479129611266"><ele>380.0</ele><time>2026-04-19T15:07:13Z</time></trkpt><trkpt lat="44.468683243037" lon="8.484520094965694"><ele>380.0</ele><time>2026-04-19T15:07:14Z</time></trkpt><trkpt lat="44.46853470681003" lon="8.484562682095403"><ele>380.0</ele><time>2026-04-19T15:07:15Z</time></trkpt><trkpt lat="44.46839607639069" lon="8.484604414767634"><ele>380.0</ele><time>2026-04-19T15:07:16Z</time></trkpt><trkpt lat="44.468267154615305" lon="8.484647292895936"><ele>380.0</ele><time>2026-04-19T15:07:17Z</time></trkpt><trkpt lat="44.46814264346373" lon="8.484676234205034"><ele>381.0</ele><time>2026-04-19T15:07:18Z</time></trkpt><trkpt lat="44.468014625611524" lon="8.484669291105728"><ele>382.0</ele><time>2026-04-19T15:07:19Z</time></trkpt><trkpt lat="44.46787490651098" lon="8.484619433535597"><ele>383.0</ele><time>2026-04-19T15:07:20Z</time></trkpt><trkpt lat="44.46773729636882" lon="8.484520042965395"><ele>384.0</ele><time>2026-04-19T15:07:21Z</time></trkpt><trkpt lat="44.46758967096205" lon="8.484435286871925"><ele>384.0</ele><time>2026-04-19T15:07:22Z</time></trkpt><trkpt lat="44.46743723154115" lon="8.484347050016321"><ele>384.0</ele><time>2026-04-19T15:07:23Z</time></trkpt><trkpt lat="44.467274405903495" lon="8.48427574615254"><ele>384.0</ele><time>2026-04-19T15:07:24Z</time></trkpt><trkpt lat="44.467115385924316" lon="8.484173233238971"><ele>388.0</ele><time>2026-04-19T15:07:25Z</time></trkpt><trkpt lat="44.46695920516494" lon="8.484058261422085"><ele>392.0</ele><time>2026-04-19T15:07:26Z</time></trkpt><trkpt lat="44.466807632696224" lon="8.483931885425324"><ele>396.0</ele><time>2026-04-19T15:07:27Z</time></trkpt><trkpt lat="44.46666741131169" lon="8.483782246000503"><ele>394.33333333333337</ele><time>2026-04-19T15:07:28Z</time></trkpt><trkpt lat="44.466524646287525" lon="8.483635570100368"><ele>392.6666666666667</ele><time>2026-04-19T15:07:29Z</time></trkpt><trkpt lat="44.466384901796474" lon="8.483483084933502"><ele>391.0</ele><time>2026-04-19T15:07:30Z</time></trkpt><trkpt lat="44.46623728753707" lon="8.48334913507168"><ele>391.0</ele><time>2026-04-19T15:07:31Z</time></trkpt><trkpt lat="44.466103768588354" lon="8.48319006728832"><ele>391.0</ele><time>2026-04-19T15:07:32Z</time></trkpt><trkpt lat="44.4659668222506" lon="8.48305200562915"><ele>391.0</ele><time>2026-04-19T15:07:33Z</time></trkpt><trkpt lat="44.4658427417631" lon="8.48292085553453"><ele>390.25</ele><time>2026-04-19T15:07:34Z</time></trkpt><trkpt lat="44.46572619197148" lon="8.482798266708139"><ele>389.5</ele><time>2026-04-19T15:07:35Z</time></trkpt><trkpt lat="44.465620960284646" lon="8.482680710392495"><ele>388.75</ele><time>2026-04-19T15:07:36Z</time></trkpt><trkpt lat="44.46552321044356" lon="8.482578631724136"><ele>388.0</ele><time>2026-04-19T15:07:37Z</time></trkpt><trkpt lat="44.46541355893238" lon="8.482508564516992"><ele>390.75</ele><time>2026-04-19T15:07:38Z</time></trkpt><trkpt lat="44.46528761736322" lon="8.482483416313343"><ele>393.5</ele><time>2026-04-19T15:07:39Z</time></trkpt><trkpt lat="44.46514824698403" lon="8.482484042638049"><ele>396.25</ele><time>2026-04-19T15:07:40Z</time></trkpt><trkpt lat="44.46501219987612" lon="8.482500542549637"><ele>399.0</ele><time>2026-04-19T15:07:41Z</time></trkpt><trkpt lat="44.46488656977303" lon="8.482509768178812"><ele>399.0</ele><time>2026-04-19T15:07:42Z</time></trkpt><trkpt lat="44.46476898293197" lon="8.482527654338172"><ele>399.0</ele><time>2026-04-19T15:07:43Z</time></trkpt><trkpt lat="44.4646533157696" lon="8.482560176802643"><ele>399.0</ele><time>2026-04-19T15:07:44Z</time></trkpt><trkpt lat="44.464539551984416" lon="8.482627893318636"><ele>399.0</ele><time>2026-04-19T15:07:45Z</time></trkpt><trkpt lat="44.46441703250771" lon="8.482704872668238"><ele>399.25</ele><time>2026-04-19T15:07:46Z</time></trkpt><trkpt lat="44.46428327299619" lon="8.482755504642926"><ele>399.5</ele><time>2026-04-19T15:07:47Z</time></trkpt><trkpt lat="44.46415248647223" lon="8.482831327320024"><ele>399.75</ele><time>2026-04-19T15:07:48Z</time></trkpt><trkpt lat="44.46400179216432" lon="8.482854310734417"><ele>400.0</ele><time>2026-04-19T15:07:49Z</time></trkpt><trkpt lat="44.46383545894901" lon="8.482837815625416"><ele>400.33333333333337</ele><time>2026-04-19T15:07:50Z</time></trkpt><trkpt lat="44.46366432869207" lon="8.482814016202985"><ele>400.66666666666663</ele><time>2026-04-19T15:07:51Z</time></trkpt><trkpt lat="44.46348420899722" lon="8.482776198552322"><ele>401.0</ele><time>2026-04-19T15:07:52Z</time></trkpt><trkpt lat="44.463306366969434" lon="8.482749570342053"><ele>401.0</ele><time>2026-04-19T15:07:53Z</time></trkpt><trkpt lat="44.463141908450126" lon="8.482725373041468"><ele>401.0</ele><time>2026-04-19T15:07:54Z</time></trkpt><trkpt lat="44.4630003967339" lon="8.482642064672937"><ele>401.0</ele><time>2026-04-19T15:07:55Z</time></trkpt><trkpt lat="44.46287430702888" lon="8.482523442017513"><ele>402.66666666666663</ele><time>2026-04-19T15:07:56Z</time></trkpt><trkpt lat="44.462741972373976" lon="8.482437131230427"><ele>404.33333333333337</ele><time>2026-04-19T15:07:57Z</time></trkpt><trkpt lat="44.46260340782076" lon="8.482366144401512"><ele>406.0</ele><time>2026-04-19T15:07:58Z</time></trkpt><trkpt lat="44.46244167941793" lon="8.482354676261146"><ele>406.0</ele><time>2026-04-19T15:07:59Z</time></trkpt><trkpt lat="44.462269976491626" lon="8.482350070579272"><ele>406.0</ele><time>2026-04-19T15:08:00Z</time></trkpt><trkpt lat="44.462091753482255" lon="8.482324247950444"><ele>406.0</ele><time>2026-04-19T15:08:01Z</time></trkpt><trkpt lat="44.46190754147825" lon="8.48227822525468"><ele>408.33333333333337</ele><time>2026-04-19T15:08:02Z</time></trkpt><trkpt lat="44.46171797256785" lon="8.48222759285933"><ele>410.66666666666663</ele><time>2026-04-19T15:08:03Z</time></trkpt><trkpt lat="44.461522639893985" lon="8.482175359395644"><ele>413.0</ele><time>2026-04-19T15:08:04Z</time></trkpt><trkpt lat="44.461328784155505" lon="8.48210084346604"><ele>412.0</ele><time>2026-04-19T15:08:05Z</time></trkpt><trkpt lat="44.46114564928219" lon="8.481993759111859"><ele>411.0</ele><time>2026-04-19T15:08:06Z</time></trkpt><trkpt lat="44.46097677334439" lon="8.481873599155536"><ele>410.0</ele><time>2026-04-19T15:08:07Z</time></trkpt><trkpt lat="44.46079924723487" lon="8.481768895282153"><ele>410.0</ele><time>2026-04-19T15:08:08Z</time></trkpt><trkpt lat="44.46062245188354" lon="8.48170594151036"><ele>410.0</ele><time>2026-04-19T15:08:09Z</time></trkpt><trkpt lat="44.46045795902828" lon="8.481669880069061"><ele>410.0</ele><time>2026-04-19T15:08:10Z</time></trkpt><trkpt lat="44.460310899328526" lon="8.481623518956981"><ele>413.75</ele><time>2026-04-19T15:08:11Z</time></trkpt><trkpt lat="44.46017666962728" lon="8.481548437372602"><ele>417.5</ele><time>2026-04-19T15:08:12Z</time></trkpt><trkpt lat="44.46006804813644" lon="8.481424526396742"><ele>421.25</ele><time>2026-04-19T15:08:13Z</time></trkpt><trkpt lat="44.45997358744557" lon="8.481308722585425"><ele>425.0</ele><time>2026-04-19T15:08:14Z</time></trkpt><trkpt lat="44.459918711586326" lon="8.48117237282679"><ele>425.0</ele><time>2026-04-19T15:08:15Z</time></trkpt><trkpt lat="44.459889900879794" lon="8.481011839521788"><ele>425.0</ele><time>2026-04-19T15:08:16Z</time></trkpt><trkpt lat="44.459829549032655" lon="8.480862391589765"><ele>425.0</ele><time>2026-04-19T15:08:17Z</time></trkpt><trkpt lat="44.4597536210804" lon="8.480706664988062"><ele>425.0</ele><time>2026-04-19T15:08:18Z</time></trkpt><trkpt lat="44.459625189860986" lon="8.480560598377762"><ele>425.66666666666663</ele><time>2026-04-19T15:08:19Z</time></trkpt><trkpt lat="44.459475560360296" lon="8.480412956797442"><ele>426.33333333333337</ele><time>2026-04-19T15:08:20Z</time></trkpt><trkpt lat="44.45931757692499" lon="8.48024690407159"><ele>427.0</ele><time>2026-04-19T15:08:21Z</time></trkpt><trkpt lat="44.45915996093878" lon="8.480088278871062"><ele>427.0</ele><time>2026-04-19T15:08:22Z</time></trkpt><trkpt lat="44.45901486661677" lon="8.479937279777966"><ele>427.0</ele><time>2026-04-19T15:08:23Z</time></trkpt><trkpt lat="44.45888576179228" lon="8.479803225553368"><ele>427.0</ele><time>2026-04-19T15:08:24Z</time></trkpt><trkpt lat="44.45877213270022" lon="8.479693471730172"><ele>425.75</ele><time>2026-04-19T15:08:25Z</time></trkpt><trkpt lat="44.45867598644661" lon="8.479641260860026"><ele>424.5</ele><time>2026-04-19T15:08:26Z</time></trkpt><trkpt lat="44.45857258134903" lon="8.479609264299036"><ele>423.25</ele><time>2026-04-19T15:08:27Z</time></trkpt><trkpt lat="44.45844561942384" lon="8.479673958072357"><ele>422.0</ele><time>2026-04-19T15:08:28Z</time></trkpt><trkpt lat="44.45831670558496" lon="8.479743299992041"><ele>422.0</ele><time>2026-04-19T15:08:29Z</time></trkpt><trkpt lat="44.4581775880242" lon="8.479793635566738"><ele>422.0</ele><time>2026-04-19T15:08:30Z</time></trkpt><trkpt lat="44.45803341168463" lon="8.479809590626106"><ele>422.0</ele><time>2026-04-19T15:08:31Z</time></trkpt><trkpt lat="44.45789173471906" lon="8.479813986040357"><ele>422.0</ele><time>2026-04-19T15:08:32Z</time></trkpt><trkpt lat="44.45775903748865" lon="8.479854925643112"><ele>422.0</ele><time>2026-04-19T15:08:33Z</time></trkpt><trkpt lat="44.45764123006125" lon="8.479953865550971"><ele>422.0</ele><time>2026-04-19T15:08:34Z</time></trkpt><trkpt lat="44.457546662093826" lon="8.480098831441635"><ele>422.0</ele><time>2026-04-19T15:08:35Z</time></trkpt><trkpt lat="44.457446634420165" lon="8.480242387474854"><ele>422.0</ele><time>2026-04-19T15:08:36Z</time></trkpt><trkpt lat="44.45732562698132" lon="8.480327997210187"><ele>422.0</ele><time>2026-04-19T15:08:37Z</time></trkpt><trkpt lat="44.45717688652065" lon="8.480356249776406"><ele>422.0</ele><time>2026-04-19T15:08:38Z</time></trkpt><trkpt lat="44.45702087343828" lon="8.480328289383666"><ele>422.0</ele><time>2026-04-19T15:08:39Z</time></trkpt><trkpt lat="44.45686511861937" lon="8.480238423421602"><ele>422.66666666666663</ele><time>2026-04-19T15:08:40Z</time></trkpt><trkpt lat="44.45670561863" lon="8.4801460329569"><ele>423.33333333333337</ele><time>2026-04-19T15:08:41Z</time></trkpt><trkpt lat="44.45653231161396" lon="8.480071001794691"><ele>424.0</ele><time>2026-04-19T15:08:42Z</time></trkpt><trkpt lat="44.45634004375501" lon="8.480023331768008"><ele>427.0</ele><time>2026-04-19T15:08:43Z</time></trkpt><trkpt lat="44.45616139676353" lon="8.479975856924918"><ele>430.0</ele><time>2026-04-19T15:08:44Z</time></trkpt><trkpt lat="44.45600195465578" lon="8.479923049052454"><ele>433.0</ele><time>2026-04-19T15:08:45Z</time></trkpt><trkpt lat="44.45583584303326" lon="8.479938148587626"><ele>433.0</ele><time>2026-04-19T15:08:46Z</time></trkpt><trkpt lat="44.455694661456306" lon="8.479979491967875"><ele>433.0</ele><time>2026-04-19T15:08:47Z</time></trkpt><trkpt lat="44.45556473988238" lon="8.480061067562845"><ele>433.0</ele><time>2026-04-19T15:08:48Z</time></trkpt><trkpt lat="44.45543098164627" lon="8.48012699843239"><ele>433.0</ele><time>2026-04-19T15:08:49Z</time></trkpt><trkpt lat="44.45528661876656" lon="8.480134913984843"><ele>435.0</ele><time>2026-04-19T15:08:50Z</time></trkpt><trkpt lat="44.4551348192589" lon="8.48008180232652"><ele>437.0</ele><time>2026-04-19T15:08:51Z</time></trkpt><trkpt lat="44.45497771854565" lon="8.479994582524935"><ele>439.0</ele><time>2026-04-19T15:08:52Z</time></trkpt><trkpt lat="44.4548139895349" lon="8.479906199593847"><ele>439.0</ele><time>2026-04-19T15:08:53Z</time></trkpt><trkpt lat="44.45464105799475" lon="8.47982544345739"><ele>439.0</ele><time>2026-04-19T15:08:54Z</time></trkpt><trkpt lat="44.45446943425186" lon="8.479769873961716"><ele>439.0</ele><time>2026-04-19T15:08:55Z</time></trkpt><trkpt lat="44.454303497633845" lon="8.479712903634944"><ele>439.0</ele><time>2026-04-19T15:08:56Z</time></trkpt><trkpt lat="44.45414868471859" lon="8.479612769559639"><ele>439.0</ele><time>2026-04-19T15:08:57Z</time></trkpt><trkpt lat="44.454014329436" lon="8.479440594244805"><ele>439.0</ele><time>2026-04-19T15:08:58Z</time></trkpt><trkpt lat="44.4538480089591" lon="8.47933698565005"><ele>446.33333333333337</ele><time>2026-04-19T15:08:59Z</time></trkpt><trkpt lat="44.45369012599946" lon="8.479214453574405"><ele>453.66666666666663</ele><time>2026-04-19T15:09:00Z</time></trkpt><trkpt lat="44.45355491486761" lon="8.479079609441657"><ele>461.0</ele><time>2026-04-19T15:09:01Z</time></trkpt><trkpt lat="44.453422667917124" lon="8.478974073515882"><ele>461.0</ele><time>2026-04-19T15:09:02Z</time></trkpt><trkpt lat="44.453327525638606" lon="8.478827255523795"><ele>461.0</ele><time>2026-04-19T15:09:03Z</time></trkpt><trkpt lat="44.453250566328244" lon="8.478682373442304"><ele>461.0</ele><time>2026-04-19T15:09:04Z</time></trkpt><trkpt lat="44.4531759859958" lon="8.478551220511095"><ele>461.0</ele><time>2026-04-19T15:09:05Z</time></trkpt><trkpt lat="44.45309875623366" lon="8.478441058758559"><ele>458.0</ele><time>2026-04-19T15:09:06Z</time></trkpt><trkpt lat="44.45300399387528" lon="8.478354551392446"><ele>455.0</ele><time>2026-04-19T15:09:07Z</time></trkpt><trkpt lat="44.45288782010529" lon="8.478301650357492"><ele>452.0</ele><time>2026-04-19T15:09:08Z</time></trkpt><trkpt lat="44.45276583418338" lon="8.478285262079321"><ele>449.0</ele><time>2026-04-19T15:09:09Z</time></trkpt><trkpt lat="44.45264293714901" lon="8.478300341458368"><ele>449.0</ele><time>2026-04-19T15:09:10Z</time></trkpt><trkpt lat="44.45252238694491" lon="8.478337923881385"><ele>449.0</ele><time>2026-04-19T15:09:11Z</time></trkpt><trkpt lat="44.45240445615458" lon="8.47838989835592"><ele>449.0</ele><time>2026-04-19T15:09:12Z</time></trkpt><trkpt lat="44.452289540321296" lon="8.478454606694465"><ele>449.0</ele><time>2026-04-19T15:09:13Z</time></trkpt><trkpt lat="44.45218526985446" lon="8.478540597586944"><ele>450.75</ele><time>2026-04-19T15:09:14Z</time></trkpt><trkpt lat="44.452088193894866" lon="8.478635577836798"><ele>452.5</ele><time>2026-04-19T15:09:15Z</time></trkpt><trkpt lat="44.451990410314224" lon="8.47872363201529"><ele>454.25</ele><time>2026-04-19T15:09:16Z</time></trkpt><trkpt lat="44.45187658471783" lon="8.478776378310537"><ele>456.0</ele><time>2026-04-19T15:09:17Z</time></trkpt><trkpt lat="44.45175545828629" lon="8.478794752487438"><ele>456.0</ele><time>2026-04-19T15:09:18Z</time></trkpt><trkpt lat="44.45162541065036" lon="8.478784787058979"><ele>456.0</ele><time>2026-04-19T15:09:19Z</time></trkpt><trkpt lat="44.451493302744986" lon="8.478741834957738"><ele>456.0</ele><time>2026-04-19T15:09:20Z</time></trkpt><trkpt lat="44.45136231525555" lon="8.478675135752981"><ele>456.0</ele><time>2026-04-19T15:09:21Z</time></trkpt><trkpt lat="44.451216460563245" lon="8.47858745929694"><ele>455.33333333333337</ele><time>2026-04-19T15:09:22Z</time></trkpt><trkpt lat="44.45106485003911" lon="8.4784593362581"><ele>454.6666666666667</ele><time>2026-04-19T15:09:23Z</time></trkpt><trkpt lat="44.450892717239284" lon="8.47834683007118"><ele>454.0</ele><time>2026-04-19T15:09:24Z</time></trkpt><trkpt lat="44.45070609242901" lon="8.47824900376382"><ele>454.0</ele><time>2026-04-19T15:09:25Z</time></trkpt><trkpt lat="44.45052264585219" lon="8.478099992812238"><ele>454.0</ele><time>2026-04-19T15:09:26Z</time></trkpt><trkpt lat="44.45033884330899" lon="8.477945526338363"><ele>454.0</ele><time>2026-04-19T15:09:27Z</time></trkpt><trkpt lat="44.450157392122925" lon="8.477788957245483"><ele>455.6666666666667</ele><time>2026-04-19T15:09:28Z</time></trkpt><trkpt lat="44.449932319076325" lon="8.477713942825101"><ele>457.33333333333337</ele><time>2026-04-19T15:09:29Z</time></trkpt><trkpt lat="44.44975564354245" lon="8.477593703235499"><ele>459.0</ele><time>2026-04-19T15:09:30Z</time></trkpt><trkpt lat="44.44958191407742" lon="8.477482593821808"><ele>458.33333333333337</ele><time>2026-04-19T15:09:31Z</time></trkpt><trkpt lat="44.44942146539391" lon="8.47737550340027"><ele>457.6666666666667</ele><time>2026-04-19T15:09:32Z</time></trkpt><trkpt lat="44.44927646714265" lon="8.477237349507895"><ele>457.0</ele><time>2026-04-19T15:09:33Z</time></trkpt><trkpt lat="44.44912998096771" lon="8.477099924490956"><ele>457.0</ele><time>2026-04-19T15:09:34Z</time></trkpt><trkpt lat="44.44899938587045" lon="8.476953339380147"><ele>457.0</ele><time>2026-04-19T15:09:35Z</time></trkpt><trkpt lat="44.448849870723436" lon="8.476849701088192"><ele>457.0</ele><time>2026-04-19T15:09:36Z</time></trkpt><trkpt lat="44.44868090647041" lon="8.476791112357052"><ele>456.0</ele><time>2026-04-19T15:09:37Z</time></trkpt><trkpt lat="44.44850457637574" lon="8.476780792037642"><ele>455.0</ele><time>2026-04-19T15:09:38Z</time></trkpt><trkpt lat="44.448346957489115" lon="8.476824009609835"><ele>454.0</ele><time>2026-04-19T15:09:39Z</time></trkpt><trkpt lat="44.448191676394764" lon="8.476924728991536"><ele>454.0</ele><time>2026-04-19T15:09:40Z</time></trkpt><trkpt lat="44.44805329958269" lon="8.477073062487413"><ele>454.0</ele><time>2026-04-19T15:09:41Z</time></trkpt><trkpt lat="44.447918551551645" lon="8.477271481189797"><ele>454.0</ele><time>2026-04-19T15:09:42Z</time></trkpt><trkpt lat="44.44778976857221" lon="8.477488098763398"><ele>457.6666666666667</ele><time>2026-04-19T15:09:43Z</time></trkpt><trkpt lat="44.44765483889696" lon="8.477722586398027"><ele>461.33333333333337</ele><time>2026-04-19T15:09:44Z</time></trkpt><trkpt lat="44.44751804123727" lon="8.477965507459714"><ele>465.0</ele><time>2026-04-19T15:09:45Z</time></trkpt><trkpt lat="44.44737431700814" lon="8.478205682586877"><ele>471.0</ele><time>2026-04-19T15:09:46Z</time></trkpt><trkpt lat="44.44722483729959" lon="8.478452357907344"><ele>477.0</ele><time>2026-04-19T15:09:47Z</time></trkpt><trkpt lat="44.447076301514926" lon="8.478713430355159"><ele>481.0</ele><time>2026-04-19T15:09:48Z</time></trkpt><trkpt lat="44.44692606949903" lon="8.478972254017568"><ele>485.0</ele><time>2026-04-19T15:09:49Z</time></trkpt><trkpt lat="44.44677278267065" lon="8.479241337435969"><ele>485.0</ele><time>2026-04-19T15:09:50Z</time></trkpt><trkpt lat="44.44662680413483" lon="8.47952925474968"><ele>485.0</ele><time>2026-04-19T15:09:51Z</time></trkpt><trkpt lat="44.44648939271348" lon="8.479839629298255"><ele>486.5</ele><time>2026-04-19T15:09:52Z</time></trkpt><trkpt lat="44.44635991473869" lon="8.480150023926708"><ele>488.0</ele><time>2026-04-19T15:09:53Z</time></trkpt><trkpt lat="44.446236008783565" lon="8.480441845402341"><ele>488.0</ele><time>2026-04-19T15:09:54Z</time></trkpt><trkpt lat="44.44612376823662" lon="8.480709191393894"><ele>488.0</ele><time>2026-04-19T15:09:55Z</time></trkpt><trkpt lat="44.44601605485452" lon="8.480962294145296"><ele>488.0</ele><time>2026-04-19T15:09:56Z</time></trkpt><trkpt lat="44.445901165193774" lon="8.481215999312639"><ele>490.0</ele><time>2026-04-19T15:09:57Z</time></trkpt><trkpt lat="44.445773519469206" lon="8.481481825206762"><ele>492.0</ele><time>2026-04-19T15:09:58Z</time></trkpt><trkpt lat="44.44562147000478" lon="8.481728611586227"><ele>492.0</ele><time>2026-04-19T15:09:59Z</time></trkpt><trkpt lat="44.44546869100842" lon="8.481975022764605"><ele>492.0</ele><time>2026-04-19T15:10:00Z</time></trkpt><trkpt lat="44.44530483553098" lon="8.482209834930433"><ele>495.5</ele><time>2026-04-19T15:10:01Z</time></trkpt><trkpt lat="44.44514027270913" lon="8.48245092111"><ele>499.0</ele><time>2026-04-19T15:10:02Z</time></trkpt><trkpt lat="44.4449482127315" lon="8.482654865430344"><ele>499.0</ele><time>2026-04-19T15:10:03Z</time></trkpt><trkpt lat="44.44479115326062" lon="8.48292378222184"><ele>499.0</ele><time>2026-04-19T15:10:04Z</time></trkpt><trkpt lat="44.44461821884018" lon="8.483155993776693"><ele>499.6666666666667</ele><time>2026-04-19T15:10:05Z</time></trkpt><trkpt lat="44.44445542902891" lon="8.48338027413858"><ele>500.33333333333337</ele><time>2026-04-19T15:10:06Z</time></trkpt><trkpt lat="44.444309002603404" lon="8.483594571372757"><ele>501.0</ele><time>2026-04-19T15:10:07Z</time></trkpt><trkpt lat="44.444159405716526" lon="8.48376752852034"><ele>502.33333333333337</ele><time>2026-04-19T15:10:08Z</time></trkpt><trkpt lat="44.44402293191216" lon="8.483955572245621"><ele>503.6666666666667</ele><time>2026-04-19T15:10:09Z</time></trkpt><trkpt lat="44.443843956408614" lon="8.484078405766779"><ele>505.0</ele><time>2026-04-19T15:10:10Z</time></trkpt><trkpt lat="44.44365185515242" lon="8.48418450537148"><ele>505.0</ele><time>2026-04-19T15:10:11Z</time></trkpt><trkpt lat="44.443441920051015" lon="8.484253007973264"><ele>505.0</ele><time>2026-04-19T15:10:12Z</time></trkpt><trkpt lat="44.443214510548565" lon="8.484276412334376"><ele>505.0</ele><time>2026-04-19T15:10:13Z</time></trkpt><trkpt lat="44.44297246529149" lon="8.484280922660886"><ele>506.0</ele><time>2026-04-19T15:10:14Z</time></trkpt><trkpt lat="44.44271992128655" lon="8.484311121607217"><ele>507.0</ele><time>2026-04-19T15:10:15Z</time></trkpt><trkpt lat="44.442460018804496" lon="8.484317848306807"><ele>507.0</ele><time>2026-04-19T15:10:16Z</time></trkpt><trkpt lat="44.44219451954749" lon="8.484335854835027"><ele>507.0</ele><time>2026-04-19T15:10:17Z</time></trkpt><trkpt lat="44.441928038165734" lon="8.484328282751301"><ele>507.0</ele><time>2026-04-19T15:10:18Z</time></trkpt><trkpt lat="44.44167295920656" lon="8.484358338774811"><ele>507.0</ele><time>2026-04-19T15:10:19Z</time></trkpt><trkpt lat="44.44142760797497" lon="8.484336795202756"><ele>506.5</ele><time>2026-04-19T15:10:20Z</time></trkpt><trkpt lat="44.4411821625269" lon="8.484246194343392"><ele>506.0</ele><time>2026-04-19T15:10:21Z</time></trkpt><trkpt lat="44.44092932751772" lon="8.48414628062828"><ele>506.0</ele><time>2026-04-19T15:10:22Z</time></trkpt><trkpt lat="44.440676781354846" lon="8.484025261344025"><ele>506.0</ele><time>2026-04-19T15:10:23Z</time></trkpt><trkpt lat="44.44042167214863" lon="8.483889161471751"><ele>507.0</ele><time>2026-04-19T15:10:24Z</time></trkpt><trkpt lat="44.44015813770861" lon="8.483769549191642"><ele>508.0</ele><time>2026-04-19T15:10:25Z</time></trkpt><trkpt lat="44.43990088310232" lon="8.483627315741339"><ele>508.0</ele><time>2026-04-19T15:10:26Z</time></trkpt><trkpt lat="44.43964380087565" lon="8.48348438844889"><ele>508.0</ele><time>2026-04-19T15:10:27Z</time></trkpt><trkpt lat="44.43938679242409" lon="8.483342260631865"><ele>509.5</ele><time>2026-04-19T15:10:28Z</time></trkpt><trkpt lat="44.43912737184884" lon="8.48320744484581"><ele>511.0</ele><time>2026-04-19T15:10:29Z</time></trkpt><trkpt lat="44.438865477811056" lon="8.483069714753627"><ele>512.5</ele><time>2026-04-19T15:10:30Z</time></trkpt><trkpt lat="44.43860293269631" lon="8.482928959136071"><ele>514.0</ele><time>2026-04-19T15:10:31Z</time></trkpt><trkpt lat="44.43834282661134" lon="8.482788150417653"><ele>514.0</ele><time>2026-04-19T15:10:32Z</time></trkpt><trkpt lat="44.43808276245117" lon="8.482648004690951"><ele>514.0</ele><time>2026-04-19T15:10:33Z</time></trkpt><trkpt lat="44.43781945955968" lon="8.482510469019108"><ele>513.0</ele><time>2026-04-19T15:10:34Z</time></trkpt><trkpt lat="44.43755497607764" lon="8.482374553480465"><ele>512.0</ele><time>2026-04-19T15:10:35Z</time></trkpt><trkpt lat="44.437293887453215" lon="8.482235027374797"><ele>513.0</ele><time>2026-04-19T15:10:36Z</time></trkpt><trkpt lat="44.43703213466222" lon="8.482093075337637"><ele>514.0</ele><time>2026-04-19T15:10:37Z</time></trkpt><trkpt lat="44.436770173004476" lon="8.481945202005466"><ele>514.0</ele><time>2026-04-19T15:10:38Z</time></trkpt><trkpt lat="44.436507485362306" lon="8.48178662062427"><ele>514.0</ele><time>2026-04-19T15:10:39Z</time></trkpt><trkpt lat="44.43624839282236" lon="8.481613914866161"><ele>514.0</ele><time>2026-04-19T15:10:40Z</time></trkpt><trkpt lat="44.43599395160608" lon="8.481426229436478"><ele>514.0</ele><time>2026-04-19T15:10:41Z</time></trkpt><trkpt lat="44.43574651216925" lon="8.481237230252697"><ele>516.5</ele><time>2026-04-19T15:10:42Z</time></trkpt><trkpt lat="44.43550686182477" lon="8.48105344971283"><ele>519.0</ele><time>2026-04-19T15:10:43Z</time></trkpt><trkpt lat="44.43527136122032" lon="8.480877813268737"><ele>519.0</ele><time>2026-04-19T15:10:44Z</time></trkpt><trkpt lat="44.43504205796135" lon="8.480709870224295"><ele>519.0</ele><time>2026-04-19T15:10:45Z</time></trkpt><trkpt lat="44.43482487212751" lon="8.480552440655378"><ele>518.0</ele><time>2026-04-19T15:10:46Z</time></trkpt><trkpt lat="44.43461736552855" lon="8.480403232016123"><ele>517.0</ele><time>2026-04-19T15:10:47Z</time></trkpt><trkpt lat="44.43440866822773" lon="8.480253731969471"><ele>517.0</ele><time>2026-04-19T15:10:48Z</time></trkpt><trkpt lat="44.4341881516094" lon="8.480096264965532"><ele>517.0</ele><time>2026-04-19T15:10:49Z</time></trkpt><trkpt lat="44.43397296949993" lon="8.479945005422836"><ele>522.5</ele><time>2026-04-19T15:10:50Z</time></trkpt><trkpt lat="44.43376904218281" lon="8.479803727710204"><ele>528.0</ele><time>2026-04-19T15:10:51Z</time></trkpt><trkpt lat="44.43355945648404" lon="8.479670596117916"><ele>524.0</ele><time>2026-04-19T15:10:52Z</time></trkpt><trkpt lat="44.43333454254987" lon="8.479557553127004"><ele>520.0</ele><time>2026-04-19T15:10:53Z</time></trkpt><trkpt lat="44.43311144058606" lon="8.479485956941048"><ele>521.0</ele><time>2026-04-19T15:10:54Z</time></trkpt><trkpt lat="44.432906295623916" lon="8.4794373220096"><ele>522.0</ele><time>2026-04-19T15:10:55Z</time></trkpt><trkpt lat="44.43271416832274" lon="8.479399928727425"><ele>523.0</ele><time>2026-04-19T15:10:56Z</time></trkpt><trkpt lat="44.43253313492771" lon="8.47936800870455"><ele>523.0</ele><time>2026-04-19T15:10:57Z</time></trkpt><trkpt lat="44.43236625626642" lon="8.479334233015292"><ele>523.0</ele><time>2026-04-19T15:10:58Z</time></trkpt><trkpt lat="44.43221548686438" lon="8.479288976736552"><ele>523.0</ele><time>2026-04-19T15:10:59Z</time></trkpt><trkpt lat="44.43208677994506" lon="8.479196012982126"><ele>523.75</ele><time>2026-04-19T15:11:00Z</time></trkpt><trkpt lat="44.43195701954943" lon="8.479126016067326"><ele>524.5</ele><time>2026-04-19T15:11:01Z</time></trkpt><trkpt lat="44.43183889804328" lon="8.47902121356536"><ele>525.25</ele><time>2026-04-19T15:11:02Z</time></trkpt><trkpt lat="44.4317244307886" lon="8.478914222901857"><ele>526.0</ele><time>2026-04-19T15:11:03Z</time></trkpt><trkpt lat="44.43164184196086" lon="8.47876713320074"><ele>526.0</ele><time>2026-04-19T15:11:04Z</time></trkpt><trkpt lat="44.43156307171043" lon="8.47861034406541"><ele>526.0</ele><time>2026-04-19T15:11:05Z</time></trkpt><trkpt lat="44.43149139152769" lon="8.47841506798544"><ele>526.0</ele><time>2026-04-19T15:11:06Z</time></trkpt><trkpt lat="44.43144027048253" lon="8.478193091895807"><ele>526.0</ele><time>2026-04-19T15:11:07Z</time></trkpt><trkpt lat="44.4314076269167" lon="8.477955103160426"><ele>526.0</ele><time>2026-04-19T15:11:08Z</time></trkpt><trkpt lat="44.43137762131509" lon="8.477715176723642"><ele>526.0</ele><time>2026-04-19T15:11:09Z</time></trkpt><trkpt lat="44.43138784389237" lon="8.477481978566546"><ele>524.5</ele><time>2026-04-19T15:11:10Z</time></trkpt><trkpt lat="44.43142617118946" lon="8.47727536863793"><ele>523.0</ele><time>2026-04-19T15:11:11Z</time></trkpt><trkpt lat="44.431518258563514" lon="8.477114708220073"><ele>521.5</ele><time>2026-04-19T15:11:12.001Z</time></trkpt><trkpt lat="44.43160347291094" lon="8.47695614696542"><ele>520.0</ele><time>2026-04-19T15:11:13.001Z</time></trkpt><trkpt lat="44.43165360589089" lon="8.4767920767159"><ele>518.25</ele><time>2026-04-19T15:11:14.001Z</time></trkpt><trkpt lat="44.43168266320569" lon="8.476618194239128"><ele>516.5</ele><time>2026-04-19T15:11:15.001Z</time></trkpt><trkpt lat="44.43166185638518" lon="8.476424542757442"><ele>514.75</ele><time>2026-04-19T15:11:16.001Z</time></trkpt><trkpt lat="44.431594856318746" lon="8.476233772889284"><ele>513.0</ele><time>2026-04-19T15:11:17.001Z</time></trkpt><trkpt lat="44.43148914886376" lon="8.47605094027279"><ele>512.6666666666666</ele><time>2026-04-19T15:11:18.001Z</time></trkpt><trkpt lat="44.43137532276418" lon="8.475871068987887"><ele>512.3333333333333</ele><time>2026-04-19T15:11:19.001Z</time></trkpt><trkpt lat="44.431305587174684" lon="8.475650765285234"><ele>512.0</ele><time>2026-04-19T15:11:20.001Z</time></trkpt><trkpt lat="44.43122751945534" lon="8.475451304475886"><ele>510.3333333333333</ele><time>2026-04-19T15:11:21.001Z</time></trkpt><trkpt lat="44.43116737069792" lon="8.47525383949601"><ele>508.66666666666663</ele><time>2026-04-19T15:11:22.001Z</time></trkpt><trkpt lat="44.43108543401547" lon="8.47506833363672"><ele>507.0</ele><time>2026-04-19T15:11:23.001Z</time></trkpt><trkpt lat="44.430954777045216" lon="8.474930424588784"><ele>507.0</ele><time>2026-04-19T15:11:24.001Z</time></trkpt><trkpt lat="44.43082460572096" lon="8.47477402429738"><ele>507.0</ele><time>2026-04-19T15:11:25.001Z</time></trkpt><trkpt lat="44.430701205425564" lon="8.474605183327347"><ele>507.0</ele><time>2026-04-19T15:11:26.001Z</time></trkpt><trkpt lat="44.43058353008661" lon="8.474447429225165"><ele>504.66666666666663</ele><time>2026-04-19T15:11:27.001Z</time></trkpt><trkpt lat="44.43047417670251" lon="8.474289073143122"><ele>502.3333333333333</ele><time>2026-04-19T15:11:28.001Z</time></trkpt><trkpt lat="44.43036309483454" lon="8.474145805989556"><ele>500.0</ele><time>2026-04-19T15:11:29.001Z</time></trkpt><trkpt lat="44.43023677178735" lon="8.474037799724199"><ele>500.0</ele><time>2026-04-19T15:11:30.001Z</time></trkpt><trkpt lat="44.43010123984637" lon="8.473964574283075"><ele>500.0</ele><time>2026-04-19T15:11:31.001Z</time></trkpt><trkpt lat="44.42996999669219" lon="8.473908264256806"><ele>500.0</ele><time>2026-04-19T15:11:32.001Z</time></trkpt><trkpt lat="44.42984929836718" lon="8.473855318771303"><ele>500.0</ele><time>2026-04-19T15:11:33.001Z</time></trkpt><trkpt lat="44.429734942841066" lon="8.473803556898895"><ele>500.4</ele><time>2026-04-19T15:11:34.001Z</time></trkpt><trkpt lat="44.429626552450166" lon="8.473752258176505"><ele>500.8</ele><time>2026-04-19T15:11:35.001Z</time></trkpt><trkpt lat="44.42952470576508" lon="8.473705163770243"><ele>501.20000000000005</ele><time>2026-04-19T15:11:36.001Z</time></trkpt><trkpt lat="44.42942684384054" lon="8.473659353696359"><ele>501.6</ele><time>2026-04-19T15:11:37.001Z</time></trkpt><trkpt lat="44.429339002956326" lon="8.473618368499052"><ele>502.0</ele><time>2026-04-19T15:11:38.001Z</time></trkpt><trkpt lat="44.42926924723225" lon="8.473576001410793"><ele>502.0</ele><time>2026-04-19T15:11:39.001Z</time></trkpt><trkpt lat="44.429167585832914" lon="8.473535325822704"><ele>502.0</ele><time>2026-04-19T15:11:41.001Z</time></trkpt><trkpt lat="44.42906969604421" lon="8.473559882426995"><ele>502.0</ele><time>2026-04-19T15:11:43.001Z</time></trkpt><trkpt lat="44.4289479654703" lon="8.473620278891312"><ele>502.0</ele><time>2026-04-19T15:11:45.001Z</time></trkpt><trkpt lat="44.42883814397262" lon="8.473677086934241"><ele>501.40000000000003</ele><time>2026-04-19T15:11:47.001Z</time></trkpt><trkpt lat="44.42877088250885" lon="8.473684427733374"><ele>500.80000000000007</ele><time>2026-04-19T15:11:48.001Z</time></trkpt><trkpt lat="44.428684410852064" lon="8.473649785640506"><ele>500.2</ele><time>2026-04-19T15:11:49.001Z</time></trkpt><trkpt lat="44.4285841595296" lon="8.473585577910368"><ele>499.6</ele><time>2026-04-19T15:11:50Z</time></trkpt><trkpt lat="44.42849394009352" lon="8.473482156688865"><ele>499.0</ele><time>2026-04-19T15:11:51Z</time></trkpt><trkpt lat="44.428457538222126" lon="8.473315409238467"><ele>499.0</ele><time>2026-04-19T15:11:52Z</time></trkpt><trkpt lat="44.42838531493729" lon="8.473191631479454"><ele>499.0</ele><time>2026-04-19T15:11:53Z</time></trkpt><trkpt lat="44.42830860452249" lon="8.473063046835815"><ele>499.0</ele><time>2026-04-19T15:11:54Z</time></trkpt><trkpt lat="44.428157707407465" lon="8.47301949623289"><ele>499.0</ele><time>2026-04-19T15:11:55Z</time></trkpt><trkpt lat="44.42799296725015" lon="8.473003878620416"><ele>493.6666666666667</ele><time>2026-04-19T15:11:56Z</time></trkpt><trkpt lat="44.427814355120695" lon="8.473002018241404"><ele>488.33333333333337</ele><time>2026-04-19T15:11:57Z</time></trkpt><trkpt lat="44.42762965846614" lon="8.472994765882559"><ele>483.0</ele><time>2026-04-19T15:11:58Z</time></trkpt><trkpt lat="44.42745670324517" lon="8.472997065260913"><ele>483.0</ele><time>2026-04-19T15:11:59Z</time></trkpt><trkpt lat="44.42730524452645" lon="8.4730122840375"><ele>483.0</ele><time>2026-04-19T15:12:00Z</time></trkpt><trkpt lat="44.42716008299954" lon="8.473066236744307"><ele>483.0</ele><time>2026-04-19T15:12:01Z</time></trkpt><trkpt lat="44.4270309134692" lon="8.473164243180786"><ele>483.0</ele><time>2026-04-19T15:12:02Z</time></trkpt><trkpt lat="44.426925779305705" lon="8.473301365323753"><ele>485.75</ele><time>2026-04-19T15:12:03Z</time></trkpt><trkpt lat="44.42685411572428" lon="8.473478761651801"><ele>488.5</ele><time>2026-04-19T15:12:04Z</time></trkpt><trkpt lat="44.42680280909598" lon="8.473653333629688"><ele>491.25</ele><time>2026-04-19T15:12:05Z</time></trkpt><trkpt lat="44.42672489765003" lon="8.473787081321015"><ele>494.0</ele><time>2026-04-19T15:12:06Z</time></trkpt><trkpt lat="44.42657378265775" lon="8.473835530412467"><ele>486.3333333333333</ele><time>2026-04-19T15:12:07Z</time></trkpt><trkpt lat="44.42640360055867" lon="8.473909801204886"><ele>478.66666666666663</ele><time>2026-04-19T15:12:08Z</time></trkpt><trkpt lat="44.426201316293835" lon="8.47397685222209"><ele>471.0</ele><time>2026-04-19T15:12:09Z</time></trkpt><trkpt lat="44.42603707882276" lon="8.474013145717251"><ele>471.0</ele><time>2026-04-19T15:12:10Z</time></trkpt><trkpt lat="44.42590263563599" lon="8.474067414237583"><ele>471.0</ele><time>2026-04-19T15:12:11Z</time></trkpt><trkpt lat="44.42578561417549" lon="8.474167016082818"><ele>471.0</ele><time>2026-04-19T15:12:12Z</time></trkpt><trkpt lat="44.42567214343922" lon="8.474315389166996"><ele>471.0</ele><time>2026-04-19T15:12:13Z</time></trkpt><trkpt lat="44.42556226308733" lon="8.474517256653005"><ele>466.33333333333337</ele><time>2026-04-19T15:12:14Z</time></trkpt><trkpt lat="44.42544041471161" lon="8.474747472342518"><ele>461.6666666666667</ele><time>2026-04-19T15:12:15Z</time></trkpt><trkpt lat="44.425301842339884" lon="8.47494803279633"><ele>457.0</ele><time>2026-04-19T15:12:16Z</time></trkpt><trkpt lat="44.425150447691166" lon="8.475109879871889"><ele>457.0</ele><time>2026-04-19T15:12:17Z</time></trkpt><trkpt lat="44.42499704391277" lon="8.475218288710584"><ele>457.0</ele><time>2026-04-19T15:12:18Z</time></trkpt><trkpt lat="44.424847999853164" lon="8.475274509849344"><ele>457.0</ele><time>2026-04-19T15:12:19Z</time></trkpt><trkpt lat="44.424689304955166" lon="8.475285783818618"><ele>454.33333333333337</ele><time>2026-04-19T15:12:20Z</time></trkpt><trkpt lat="44.424509638179316" lon="8.475224563388974"><ele>451.66666666666663</ele><time>2026-04-19T15:12:21Z</time></trkpt><trkpt lat="44.424314874099764" lon="8.475118561220725"><ele>449.0</ele><time>2026-04-19T15:12:22Z</time></trkpt><trkpt lat="44.424125589971524" lon="8.475000044390853"><ele>449.0</ele><time>2026-04-19T15:12:23Z</time></trkpt><trkpt lat="44.423950678716984" lon="8.474892224856312"><ele>449.0</ele><time>2026-04-19T15:12:24Z</time></trkpt><trkpt lat="44.42378677619538" lon="8.474777729627542"><ele>449.0</ele><time>2026-04-19T15:12:25Z</time></trkpt><trkpt lat="44.423643706056154" lon="8.474632221861688"><ele>446.3333333333333</ele><time>2026-04-19T15:12:26Z</time></trkpt><trkpt lat="44.423531214340514" lon="8.474447756549301"><ele>443.66666666666663</ele><time>2026-04-19T15:12:27Z</time></trkpt><trkpt lat="44.42342367472861" lon="8.474272254757018"><ele>441.0</ele><time>2026-04-19T15:12:28Z</time></trkpt><trkpt lat="44.42332567095741" lon="8.474119638038891"><ele>441.0</ele><time>2026-04-19T15:12:29Z</time></trkpt><trkpt lat="44.423240034053805" lon="8.473995542379894"><ele>441.0</ele><time>2026-04-19T15:12:30Z</time></trkpt><trkpt lat="44.42315204876946" lon="8.47390537354844"><ele>441.0</ele><time>2026-04-19T15:12:31Z</time></trkpt><trkpt lat="44.42304881743374" lon="8.473864453289336"><ele>441.0</ele><time>2026-04-19T15:12:32Z</time></trkpt><trkpt lat="44.42294039381047" lon="8.473881437296718"><ele>441.0</ele><time>2026-04-19T15:12:33Z</time></trkpt><trkpt lat="44.42284909922797" lon="8.473955836125405"><ele>440.0</ele><time>2026-04-19T15:12:34Z</time></trkpt><trkpt lat="44.42278867185226" lon="8.47407107620533"><ele>439.0</ele><time>2026-04-19T15:12:35Z</time></trkpt><trkpt lat="44.42276576964649" lon="8.474218641203377"><ele>438.0</ele><time>2026-04-19T15:12:36Z</time></trkpt><trkpt lat="44.42278441916627" lon="8.474376589466386"><ele>437.0</ele><time>2026-04-19T15:12:37Z</time></trkpt><trkpt lat="44.42284269478219" lon="8.474517234342649"><ele>436.0</ele><time>2026-04-19T15:12:38Z</time></trkpt><trkpt lat="44.422918012198025" lon="8.474618850561017"><ele>436.0</ele><time>2026-04-19T15:12:39Z</time></trkpt><trkpt lat="44.42298213928139" lon="8.47473660126186"><ele>436.0</ele><time>2026-04-19T15:12:40Z</time></trkpt><trkpt lat="44.423053450151926" lon="8.474830399231628"><ele>436.0</ele><time>2026-04-19T15:12:41Z</time></trkpt><trkpt lat="44.42306089270558" lon="8.4749668112828"><ele>436.0</ele><time>2026-04-19T15:12:42Z</time></trkpt><trkpt lat="44.42302104656247" lon="8.475085607695041"><ele>436.0</ele><time>2026-04-19T15:12:43Z</time></trkpt><trkpt lat="44.42294153631047" lon="8.47518712434555"><ele>436.0</ele><time>2026-04-19T15:12:44Z</time></trkpt><trkpt lat="44.422824935159134" lon="8.47521879271668"><ele>436.0</ele><time>2026-04-19T15:12:45Z</time></trkpt><trkpt lat="44.42271020677938" lon="8.475271473177711"><ele>436.0</ele><time>2026-04-19T15:12:46Z</time></trkpt><trkpt lat="44.42259845784611" lon="8.475269453929103"><ele>436.0</ele><time>2026-04-19T15:12:47Z</time></trkpt><trkpt lat="44.42248717290191" lon="8.475237599099184"><ele>436.0</ele><time>2026-04-19T15:12:48Z</time></trkpt><trkpt lat="44.42237428565667" lon="8.475183629200664"><ele>436.0</ele><time>2026-04-19T15:12:49Z</time></trkpt><trkpt lat="44.42225398649797" lon="8.475123381090112"><ele>436.0</ele><time>2026-04-19T15:12:50Z</time></trkpt><trkpt lat="44.422125019767414" lon="8.475098168130126"><ele>436.0</ele><time>2026-04-19T15:12:51Z</time></trkpt><trkpt lat="44.42203888829235" lon="8.475107124514336"><ele>433.0</ele><time>2026-04-19T15:12:52Z</time></trkpt><trkpt lat="44.42193759408804" lon="8.475105101523939"><ele>430.0</ele><time>2026-04-19T15:12:53Z</time></trkpt><trkpt lat="44.42183721942006" lon="8.475109730303334"><ele>427.0</ele><time>2026-04-19T15:12:54Z</time></trkpt><trkpt lat="44.42174128068052" lon="8.475128968993273"><ele>424.0</ele><time>2026-04-19T15:12:55Z</time></trkpt><trkpt lat="44.421651690421925" lon="8.475155755514697"><ele>421.0</ele><time>2026-04-19T15:12:56Z</time></trkpt><trkpt lat="44.421564767363705" lon="8.475199103467713"><ele>421.0</ele><time>2026-04-19T15:12:57Z</time></trkpt><trkpt lat="44.4214934234581" lon="8.475279256810857"><ele>421.0</ele><time>2026-04-19T15:12:58Z</time></trkpt><trkpt lat="44.42145506960015" lon="8.475394577223334"><ele>421.0</ele><time>2026-04-19T15:12:59Z</time></trkpt><trkpt lat="44.421464266877045" lon="8.475528376535356"><ele>421.0</ele><time>2026-04-19T15:13:00Z</time></trkpt><trkpt lat="44.42152519652134" lon="8.475641447783001"><ele>421.0</ele><time>2026-04-19T15:13:01Z</time></trkpt><trkpt lat="44.42162029288751" lon="8.47572614147932"><ele>421.20000000000005</ele><time>2026-04-19T15:13:02Z</time></trkpt><trkpt lat="44.421731658053865" lon="8.475773692265095"><ele>421.40000000000003</ele><time>2026-04-19T15:13:03Z</time></trkpt><trkpt lat="44.421823331547124" lon="8.475836665682879"><ele>421.6</ele><time>2026-04-19T15:13:04Z</time></trkpt><trkpt lat="44.421883270021134" lon="8.475937341037229"><ele>421.8</ele><time>2026-04-19T15:13:05Z</time></trkpt><trkpt lat="44.421894940144256" lon="8.476055883186522"><ele>422.0</ele><time>2026-04-19T15:13:06Z</time></trkpt><trkpt lat="44.42182353105296" lon="8.476185928331438"><ele>422.99999999999994</ele><time>2026-04-19T15:13:07Z</time></trkpt><trkpt lat="44.42175990440229" lon="8.476301550587767"><ele>424.0</ele><time>2026-04-19T15:13:08Z</time></trkpt><trkpt lat="44.42170656541032" lon="8.476422895426477"><ele>425.0</ele><time>2026-04-19T15:13:09Z</time></trkpt><trkpt lat="44.421653068034054" lon="8.476524746146577"><ele>426.0</ele><time>2026-04-19T15:13:10Z</time></trkpt><trkpt lat="44.42160058013105" lon="8.476598774760788"><ele>426.99999999999994</ele><time>2026-04-19T15:13:11Z</time></trkpt><trkpt lat="44.42153810253909" lon="8.476632399595061"><ele>428.0</ele><time>2026-04-19T15:13:12Z</time></trkpt><trkpt lat="44.42146353070112" lon="8.476650778907844"><ele>428.0</ele><time>2026-04-19T15:13:13Z</time></trkpt><trkpt lat="44.4213918078111" lon="8.476511568151697"><ele>427.99999999999994</ele><time>2026-04-19T15:13:14Z</time></trkpt><trkpt lat="44.42131379247013" lon="8.476427156652303"><ele>427.99999999999994</ele><time>2026-04-19T15:13:15Z</time></trkpt><trkpt lat="44.421225926178636" lon="8.47637193326108"><ele>428.0</ele><time>2026-04-19T15:13:16Z</time></trkpt><trkpt lat="44.421137878864755" lon="8.476315967375987"><ele>428.0</ele><time>2026-04-19T15:13:17Z</time></trkpt><trkpt lat="44.421049692945374" lon="8.47627671746461"><ele>425.99999999999994</ele><time>2026-04-19T15:13:18.001Z</time></trkpt><trkpt lat="44.420971179623955" lon="8.476235672616372"><ele>424.0</ele><time>2026-04-19T15:13:19.001Z</time></trkpt><trkpt lat="44.42088975136988" lon="8.476200518471154"><ele>422.0</ele><time>2026-04-19T15:13:20.001Z</time></trkpt><trkpt lat="44.42080742438023" lon="8.476188726463047"><ele>420.0</ele><time>2026-04-19T15:13:21.001Z</time></trkpt><trkpt lat="44.42072896207597" lon="8.476227282755367"><ele>417.99999999999994</ele><time>2026-04-19T15:13:22.001Z</time></trkpt><trkpt lat="44.42065080142157" lon="8.476321669708197"><ele>416.0</ele><time>2026-04-19T15:13:23.001Z</time></trkpt><trkpt lat="44.42056751996501" lon="8.476418247057644"><ele>410.6</ele><time>2026-04-19T15:13:24.001Z</time></trkpt><trkpt lat="44.42045875162271" lon="8.476442191131197"><ele>405.20000000000005</ele><time>2026-04-19T15:13:25.001Z</time></trkpt><trkpt lat="44.42035437744524" lon="8.476481547690225"><ele>399.79999999999995</ele><time>2026-04-19T15:13:26.001Z</time></trkpt><trkpt lat="44.42025466979662" lon="8.476502692601217"><ele>394.4</ele><time>2026-04-19T15:13:27.001Z</time></trkpt><trkpt lat="44.420173997454725" lon="8.476566166980964"><ele>389.0</ele><time>2026-04-19T15:13:28.001Z</time></trkpt><trkpt lat="44.42013126709985" lon="8.476683198553157"><ele>389.0</ele><time>2026-04-19T15:13:29.001Z</time></trkpt><trkpt lat="44.4201222685977" lon="8.47683148208652"><ele>389.0</ele><time>2026-04-19T15:13:30.001Z</time></trkpt><trkpt lat="44.42015729846918" lon="8.476993057131263"><ele>389.0</ele><time>2026-04-19T15:13:31.001Z</time></trkpt><trkpt lat="44.42021363912403" lon="8.477142644689735"><ele>389.0</ele><time>2026-04-19T15:13:32.001Z</time></trkpt><trkpt lat="44.42026726181463" lon="8.477261087014773"><ele>389.0</ele><time>2026-04-19T15:13:33.001Z</time></trkpt><trkpt lat="44.42029610842326" lon="8.477375623770575"><ele>389.8333333333333</ele><time>2026-04-19T15:13:34.001Z</time></trkpt><trkpt lat="44.420334832207985" lon="8.477482365662624"><ele>390.66666666666663</ele><time>2026-04-19T15:13:35.001Z</time></trkpt><trkpt lat="44.42036546722468" lon="8.477588443264795"><ele>391.5</ele><time>2026-04-19T15:13:36.001Z</time></trkpt><trkpt lat="44.42033064164079" lon="8.47769813896717"><ele>392.33333333333337</ele><time>2026-04-19T15:13:37.001Z</time></trkpt><trkpt lat="44.42027376221806" lon="8.477781441348707"><ele>393.1666666666667</ele><time>2026-04-19T15:13:38.001Z</time></trkpt><trkpt lat="44.42018543781688" lon="8.477824090944688"><ele>394.0</ele><time>2026-04-19T15:13:39.001Z</time></trkpt><trkpt lat="44.42007592513779" lon="8.47781691322056"><ele>394.0</ele><time>2026-04-19T15:13:40.001Z</time></trkpt><trkpt lat="44.41996028606906" lon="8.477830538972583"><ele>394.0</ele><time>2026-04-19T15:13:41.001Z</time></trkpt><trkpt lat="44.41984733880086" lon="8.47783646631337"><ele>394.0</ele><time>2026-04-19T15:13:42.001Z</time></trkpt><trkpt lat="44.419748420691" lon="8.477878176131693"><ele>394.0</ele><time>2026-04-19T15:13:43.001Z</time></trkpt><trkpt lat="44.41965680992269" lon="8.477953174696152"><ele>394.0</ele><time>2026-04-19T15:13:44.001Z</time></trkpt><trkpt lat="44.41958324504644" lon="8.478061297076506"><ele>389.4</ele><time>2026-04-19T15:13:45.001Z</time></trkpt><trkpt lat="44.419516912899056" lon="8.47816367830361"><ele>384.79999999999995</ele><time>2026-04-19T15:13:46.001Z</time></trkpt><trkpt lat="44.41946189090915" lon="8.47826357897113"><ele>380.20000000000005</ele><time>2026-04-19T15:13:47.001Z</time></trkpt><trkpt lat="44.41944365412344" lon="8.478374067031385"><ele>375.6</ele><time>2026-04-19T15:13:48.001Z</time></trkpt><trkpt lat="44.41946845404742" lon="8.478490365858548"><ele>371.0</ele><time>2026-04-19T15:13:49.001Z</time></trkpt><trkpt lat="44.41954552831706" lon="8.478602670957176"><ele>373.75</ele><time>2026-04-19T15:13:50.001Z</time></trkpt><trkpt lat="44.41965660259581" lon="8.478701378731218"><ele>376.5</ele><time>2026-04-19T15:13:51.001Z</time></trkpt><trkpt lat="44.41979342167997" lon="8.47878578225089"><ele>379.25</ele><time>2026-04-19T15:13:52.001Z</time></trkpt><trkpt lat="44.41991399714183" lon="8.47888107495837"><ele>382.0</ele><time>2026-04-19T15:13:53.001Z</time></trkpt><trkpt lat="44.42001547402185" lon="8.478982880846802"><ele>382.0</ele><time>2026-04-19T15:13:54.001Z</time></trkpt><trkpt lat="44.42011232058673" lon="8.47908691950018"><ele>382.0</ele><time>2026-04-19T15:13:55.001Z</time></trkpt><trkpt lat="44.42020801521331" lon="8.479175992572202"><ele>382.0</ele><time>2026-04-19T15:13:56.001Z</time></trkpt><trkpt lat="44.42030230367227" lon="8.479258760389303"><ele>382.0</ele><time>2026-04-19T15:13:57.001Z</time></trkpt><trkpt lat="44.42040165652096" lon="8.479321611039698"><ele>383.40000000000003</ele><time>2026-04-19T15:13:58.001Z</time></trkpt><trkpt lat="44.42049589021302" lon="8.47938995967464"><ele>384.8</ele><time>2026-04-19T15:13:59.001Z</time></trkpt><trkpt lat="44.42058912205999" lon="8.479448597273068"><ele>386.2</ele><time>2026-04-19T15:14:00.001Z</time></trkpt><trkpt lat="44.420682910276824" lon="8.47948073228372"><ele>387.6</ele><time>2026-04-19T15:14:01.001Z</time></trkpt><trkpt lat="44.42077188097076" lon="8.479459721710425"><ele>389.0</ele><time>2026-04-19T15:14:02.001Z</time></trkpt><trkpt lat="44.42085045151729" lon="8.479388209655742"><ele>389.0</ele><time>2026-04-19T15:14:03.001Z</time></trkpt><trkpt lat="44.42093817489022" lon="8.47932887141212"><ele>389.0</ele><time>2026-04-19T15:14:04.001Z</time></trkpt><trkpt lat="44.42101131849712" lon="8.47928583198175"><ele>389.0</ele><time>2026-04-19T15:14:05.001Z</time></trkpt><trkpt lat="44.42107421355947" lon="8.47926784694502"><ele>389.0</ele><time>2026-04-19T15:14:06.001Z</time></trkpt><trkpt lat="44.42116799440649" lon="8.479387603863241"><ele>389.0</ele><time>2026-04-19T15:14:08.001Z</time></trkpt><trkpt lat="44.421175483484014" lon="8.479504250986958"><ele>384.6</ele><time>2026-04-19T15:14:09.001Z</time></trkpt><trkpt lat="44.4211414931584" lon="8.479615014188369"><ele>380.2</ele><time>2026-04-19T15:14:10.001Z</time></trkpt><trkpt lat="44.42106527411089" lon="8.479682999324233"><ele>375.8</ele><time>2026-04-19T15:14:11.001Z</time></trkpt><trkpt lat="44.4209565663792" lon="8.479695308932122"><ele>371.40000000000003</ele><time>2026-04-19T15:14:12.001Z</time></trkpt><trkpt lat="44.42082885695487" lon="8.479678907738311"><ele>367.0</ele><time>2026-04-19T15:14:13.001Z</time></trkpt><trkpt lat="44.42069002801836" lon="8.479668518154812"><ele>367.0</ele><time>2026-04-19T15:14:14.001Z</time></trkpt><trkpt lat="44.42054151717921" lon="8.479654976851307"><ele>367.0</ele><time>2026-04-19T15:14:15.001Z</time></trkpt><trkpt lat="44.4204121978637" lon="8.479597264482788"><ele>367.0</ele><time>2026-04-19T15:14:16Z</time></trkpt><trkpt lat="44.42027144951076" lon="8.47953658452241"><ele>367.0</ele><time>2026-04-19T15:14:17Z</time></trkpt><trkpt lat="44.420104788797374" lon="8.479456422855081"><ele>374.5</ele><time>2026-04-19T15:14:18Z</time></trkpt><trkpt lat="44.41990454570213" lon="8.479361985792552"><ele>382.0</ele><time>2026-04-19T15:14:19Z</time></trkpt><trkpt lat="44.41966690612318" lon="8.479277452912568"><ele>375.3333333333333</ele><time>2026-04-19T15:14:20Z</time></trkpt><trkpt lat="44.41945631752228" lon="8.479155552343219"><ele>368.6666666666667</ele><time>2026-04-19T15:14:21Z</time></trkpt><trkpt lat="44.419284148207176" lon="8.479074067746122"><ele>362.0</ele><time>2026-04-19T15:14:22Z</time></trkpt><trkpt lat="44.41914506566418" lon="8.479003483206304"><ele>362.0</ele><time>2026-04-19T15:14:23Z</time></trkpt><trkpt lat="44.41903848264599" lon="8.478932286013826"><ele>362.0</ele><time>2026-04-19T15:14:24Z</time></trkpt><trkpt lat="44.41895728226826" lon="8.478834947667472"><ele>362.0</ele><time>2026-04-19T15:14:25Z</time></trkpt><trkpt lat="44.41889055703886" lon="8.478702336078287"><ele>362.0</ele><time>2026-04-19T15:14:26Z</time></trkpt><trkpt lat="44.41889099957175" lon="8.47852422705002"><ele>362.20000000000005</ele><time>2026-04-19T15:14:27Z</time></trkpt><trkpt lat="44.41884883850749" lon="8.478404812187332"><ele>362.4</ele><time>2026-04-19T15:14:28Z</time></trkpt><trkpt lat="44.418733623446" lon="8.478361452317932"><ele>362.6</ele><time>2026-04-19T15:14:30Z</time></trkpt><trkpt lat="44.41867693221822" lon="8.478440568106098"><ele>362.79999999999995</ele><time>2026-04-19T15:14:31Z</time></trkpt><trkpt lat="44.41865599751524" lon="8.478579004679778"><ele>363.0</ele><time>2026-04-19T15:14:32Z</time></trkpt><trkpt lat="44.418670164371534" lon="8.478771804501747"><ele>361.6666666666667</ele><time>2026-04-19T15:14:33Z</time></trkpt><trkpt lat="44.41869981476305" lon="8.47896181268431"><ele>360.3333333333333</ele><time>2026-04-19T15:14:34Z</time></trkpt><trkpt lat="44.41870529907069" lon="8.479064552101061"><ele>359.0</ele><time>2026-04-19T15:14:35Z</time></trkpt><trkpt lat="44.418692044453486" lon="8.479159944202651"><ele>357.66666666666663</ele><time>2026-04-19T15:14:37Z</time></trkpt><trkpt lat="44.41866177629506" lon="8.479240441142386"><ele>356.3333333333333</ele><time>2026-04-19T15:14:39Z</time></trkpt><trkpt lat="44.41864092281083" lon="8.479332866870823"><ele>355.0</ele><time>2026-04-19T15:15:04Z</time></trkpt><trkpt lat="44.418609566117226" lon="8.479466147693923"><ele>353.5</ele><time>2026-04-19T15:15:06Z</time></trkpt><trkpt lat="44.41856491723846" lon="8.479631312259519"><ele>352.0</ele><time>2026-04-19T15:15:08Z</time></trkpt><trkpt lat="44.418527311665734" lon="8.479710755933743"><ele>350.5</ele><time>2026-04-19T15:15:09Z</time></trkpt><trkpt lat="44.418446104354246" lon="8.479835210613137"><ele>349.0</ele><time>2026-04-19T15:15:11Z</time></trkpt><trkpt lat="44.418353551120134" lon="8.479973992789178"><ele>349.0</ele><time>2026-04-19T15:15:13Z</time></trkpt><trkpt lat="44.41827820811102" lon="8.480014243761037"><ele>349.0</ele><time>2026-04-19T15:15:14Z</time></trkpt><trkpt lat="44.41820338851079" lon="8.480068580673692"><ele>349.0</ele><time>2026-04-19T15:15:15Z</time></trkpt><trkpt lat="44.41813166168284" lon="8.480129930816576"><ele>349.0</ele><time>2026-04-19T15:15:16Z</time></trkpt><trkpt lat="44.41804884668608" lon="8.480202788004434"><ele>349.0</ele><time>2026-04-19T15:15:17Z</time></trkpt><trkpt lat="44.41796189002115" lon="8.48024465047989"><ele>349.0</ele><time>2026-04-19T15:15:18Z</time></trkpt><trkpt lat="44.417878896485" lon="8.480304196565928"><ele>349.16666666666663</ele><time>2026-04-19T15:15:19Z</time></trkpt><trkpt lat="44.41779477265188" lon="8.480361541366559"><ele>349.3333333333333</ele><time>2026-04-19T15:15:20Z</time></trkpt><trkpt lat="44.41771006135484" lon="8.480419334141796"><ele>349.5</ele><time>2026-04-19T15:15:21Z</time></trkpt><trkpt lat="44.417637571802324" lon="8.4804921491693"><ele>349.6666666666667</ele><time>2026-04-19T15:15:22Z</time></trkpt><trkpt lat="44.4175605894988" lon="8.480545003110743"><ele>349.83333333333337</ele><time>2026-04-19T15:15:23Z</time></trkpt><trkpt lat="44.41748156881956" lon="8.48057298137393"><ele>350.0</ele><time>2026-04-19T15:15:24.001Z</time></trkpt><trkpt lat="44.417417021754694" lon="8.48061563623142"><ele>350.1666666666667</ele><time>2026-04-19T15:15:25.001Z</time></trkpt><trkpt lat="44.417345869963576" lon="8.480662101439895"><ele>350.33333333333337</ele><time>2026-04-19T15:15:26.001Z</time></trkpt><trkpt lat="44.41727225645313" lon="8.480712811671724"><ele>350.5</ele><time>2026-04-19T15:15:27.001Z</time></trkpt><trkpt lat="44.41720844669583" lon="8.480793518731554"><ele>350.6666666666667</ele><time>2026-04-19T15:15:28.001Z</time></trkpt><trkpt lat="44.41713690744207" lon="8.480867366248505"><ele>350.8333333333333</ele><time>2026-04-19T15:15:29.001Z</time></trkpt><trkpt lat="44.417053568073925" lon="8.480938186705696"><ele>351.0</ele><time>2026-04-19T15:15:30.001Z</time></trkpt><trkpt lat="44.41698337142222" lon="8.48103697934593"><ele>350.20000000000005</ele><time>2026-04-19T15:15:31.001Z</time></trkpt><trkpt lat="44.41691874730703" lon="8.481148605741506"><ele>349.40000000000003</ele><time>2026-04-19T15:15:32.001Z</time></trkpt><trkpt lat="44.41686247274632" lon="8.481269866499236"><ele>348.6</ele><time>2026-04-19T15:15:33.001Z</time></trkpt><trkpt lat="44.41681929688269" lon="8.481406546024129"><ele>347.8</ele><time>2026-04-19T15:15:34.001Z</time></trkpt><trkpt lat="44.41675997493657" lon="8.481536173825356"><ele>347.0</ele><time>2026-04-19T15:15:35.001Z</time></trkpt><trkpt lat="44.416683964652684" lon="8.481655829498104"><ele>347.0</ele><time>2026-04-19T15:15:36.001Z</time></trkpt><trkpt lat="44.416618187652674" lon="8.48179490498666"><ele>347.0</ele><time>2026-04-19T15:15:37.001Z</time></trkpt><trkpt lat="44.41654951276294" lon="8.48193760308361"><ele>347.0</ele><time>2026-04-19T15:15:38.001Z</time></trkpt><trkpt lat="44.41647827636242" lon="8.482082862783663"><ele>347.0</ele><time>2026-04-19T15:15:39.001Z</time></trkpt><trkpt lat="44.416416140549295" lon="8.482239735871234"><ele>347.0</ele><time>2026-04-19T15:15:40.001Z</time></trkpt><trkpt lat="44.41633263602721" lon="8.482371468259178"><ele>347.0</ele><time>2026-04-19T15:15:41.001Z</time></trkpt><trkpt lat="44.41624477487704" lon="8.482486319823721"><ele>347.0</ele><time>2026-04-19T15:15:42.001Z</time></trkpt><trkpt lat="44.416136546528655" lon="8.482573810234125"><ele>347.0</ele><time>2026-04-19T15:15:43.001Z</time></trkpt><trkpt lat="44.416046618341625" lon="8.482692870260783"><ele>346.0</ele><time>2026-04-19T15:15:44.001Z</time></trkpt><trkpt lat="44.41594731672471" lon="8.482795120331078"><ele>345.0</ele><time>2026-04-19T15:15:45.001Z</time></trkpt><trkpt lat="44.415849099180086" lon="8.482897273844191"><ele>344.0</ele><time>2026-04-19T15:15:46.001Z</time></trkpt><trkpt lat="44.41575190732666" lon="8.482995176715747"><ele>343.0</ele><time>2026-04-19T15:15:47.001Z</time></trkpt><trkpt lat="44.415656611398056" lon="8.483079685401806"><ele>344.2</ele><time>2026-04-19T15:15:48.001Z</time></trkpt><trkpt lat="44.415561471796224" lon="8.483140364915235"><ele>345.4</ele><time>2026-04-19T15:15:49.001Z</time></trkpt><trkpt lat="44.415462701492004" lon="8.483180087079841"><ele>346.59999999999997</ele><time>2026-04-19T15:15:50.001Z</time></trkpt><trkpt lat="44.41535119780556" lon="8.483184628224215"><ele>347.79999999999995</ele><time>2026-04-19T15:15:51.001Z</time></trkpt><trkpt lat="44.41524015934199" lon="8.483140366486154"><ele>349.0</ele><time>2026-04-19T15:15:52.001Z</time></trkpt><trkpt lat="44.41513875961196" lon="8.48305600131844"><ele>349.0</ele><time>2026-04-19T15:15:53.001Z</time></trkpt><trkpt lat="44.415036369204415" lon="8.482972972545445"><ele>349.0</ele><time>2026-04-19T15:15:54.001Z</time></trkpt><trkpt lat="44.41493241965785" lon="8.48291211070555"><ele>349.0</ele><time>2026-04-19T15:15:55.001Z</time></trkpt><trkpt lat="44.41481333438332" lon="8.482895486072325"><ele>349.0</ele><time>2026-04-19T15:15:56.001Z</time></trkpt><trkpt lat="44.41468918151709" lon="8.482922877225288"><ele>349.0</ele><time>2026-04-19T15:15:57.001Z</time></trkpt><trkpt lat="44.41457075288519" lon="8.482954483562287"><ele>349.0</ele><time>2026-04-19T15:15:58.001Z</time></trkpt><trkpt lat="44.414463230996" lon="8.482982412419474"><ele>349.0</ele><time>2026-04-19T15:15:59.001Z</time></trkpt><trkpt lat="44.414361645406046" lon="8.482976337413804"><ele>349.0</ele><time>2026-04-19T15:16:00.001Z</time></trkpt><trkpt lat="44.414267152726474" lon="8.482985114715182"><ele>349.0</ele><time>2026-04-19T15:16:01.001Z</time></trkpt><trkpt lat="44.41417558493474" lon="8.483015873175084"><ele>349.0</ele><time>2026-04-19T15:16:02.001Z</time></trkpt><trkpt lat="44.41408028017641" lon="8.483021348427469"><ele>349.0</ele><time>2026-04-19T15:16:03.001Z</time></trkpt><trkpt lat="44.41398243652092" lon="8.483034266713648"><ele>349.0</ele><time>2026-04-19T15:16:04.001Z</time></trkpt><trkpt lat="44.413888119273565" lon="8.483074425469717"><ele>349.0</ele><time>2026-04-19T15:16:05.001Z</time></trkpt><trkpt lat="44.41379854971093" lon="8.483155181022898"><ele>349.0</ele><time>2026-04-19T15:16:06.001Z</time></trkpt><trkpt lat="44.41372050446023" lon="8.483284334182894"><ele>350.0</ele><time>2026-04-19T15:16:07.001Z</time></trkpt><trkpt lat="44.41365549448392" lon="8.483444303795702"><ele>351.0</ele><time>2026-04-19T15:16:08.001Z</time></trkpt><trkpt lat="44.413602080601656" lon="8.483590461132282"><ele>352.0</ele><time>2026-04-19T15:16:09Z</time></trkpt><trkpt lat="44.41355789150919" lon="8.48372411912222"><ele>353.0</ele><time>2026-04-19T15:16:10Z</time></trkpt><trkpt lat="44.41351562865354" lon="8.48384789426859"><ele>353.0</ele><time>2026-04-19T15:16:11Z</time></trkpt><trkpt lat="44.413468406772814" lon="8.483965610644034"><ele>353.0</ele><time>2026-04-19T15:16:12Z</time></trkpt><trkpt lat="44.41341929339897" lon="8.48410095856348"><ele>353.0</ele><time>2026-04-19T15:16:13Z</time></trkpt><trkpt lat="44.41333937097024" lon="8.48421669429846"><ele>353.0</ele><time>2026-04-19T15:16:14Z</time></trkpt><trkpt lat="44.413251368240665" lon="8.484329462663817"><ele>353.0</ele><time>2026-04-19T15:16:15Z</time></trkpt><trkpt lat="44.41315013242554" lon="8.484429319404823"><ele>353.0</ele><time>2026-04-19T15:16:16Z</time></trkpt><trkpt lat="44.41302061870749" lon="8.484396687162313"><ele>353.0</ele><time>2026-04-19T15:16:17Z</time></trkpt><trkpt lat="44.41292621031202" lon="8.484408743659111"><ele>353.0</ele><time>2026-04-19T15:16:18Z</time></trkpt><trkpt lat="44.41283300537977" lon="8.484388123627891"><ele>353.0</ele><time>2026-04-19T15:16:19Z</time></trkpt><trkpt lat="44.41273767420532" lon="8.484338006241643"><ele>353.0</ele><time>2026-04-19T15:16:20Z</time></trkpt><trkpt lat="44.41264080895834" lon="8.484265261203474"><ele>351.0</ele><time>2026-04-19T15:16:21Z</time></trkpt><trkpt lat="44.412547443170865" lon="8.484186105395914"><ele>349.0</ele><time>2026-04-19T15:16:22Z</time></trkpt><trkpt lat="44.41245347525675" lon="8.48412167344249"><ele>347.0</ele><time>2026-04-19T15:16:23Z</time></trkpt><trkpt lat="44.41234423550759" lon="8.484090128672577"><ele>345.0</ele><time>2026-04-19T15:16:24Z</time></trkpt><trkpt lat="44.41221247863622" lon="8.484090412278945"><ele>342.6666666666667</ele><time>2026-04-19T15:16:25Z</time></trkpt><trkpt lat="44.41206150496614" lon="8.484102454136256"><ele>340.33333333333337</ele><time>2026-04-19T15:16:26Z</time></trkpt><trkpt lat="44.41190586641014" lon="8.484153946242847"><ele>338.0</ele><time>2026-04-19T15:16:27Z</time></trkpt><trkpt lat="44.411746433836875" lon="8.484205182759743"><ele>338.0</ele><time>2026-04-19T15:16:28Z</time></trkpt><trkpt lat="44.41159478706042" lon="8.484230770204233"><ele>338.0</ele><time>2026-04-19T15:16:29Z</time></trkpt><trkpt lat="44.41146824705307" lon="8.48424428690622"><ele>338.0</ele><time>2026-04-19T15:16:30Z</time></trkpt><trkpt lat="44.41135450685771" lon="8.48424387623325"><ele>338.0</ele><time>2026-04-19T15:16:31Z</time></trkpt><trkpt lat="44.4112449400125" lon="8.484235967459082"><ele>339.5</ele><time>2026-04-19T15:16:32Z</time></trkpt><trkpt lat="44.41113452833408" lon="8.484188747631766"><ele>341.0</ele><time>2026-04-19T15:16:33Z</time></trkpt><trkpt lat="44.411017770861505" lon="8.484131063290842"><ele>342.5</ele><time>2026-04-19T15:16:34Z</time></trkpt><trkpt lat="44.410912469043154" lon="8.484054867941687"><ele>344.0</ele><time>2026-04-19T15:16:35Z</time></trkpt><trkpt lat="44.410835208394694" lon="8.48397630259379"><ele>344.0</ele><time>2026-04-19T15:16:36Z</time></trkpt><trkpt lat="44.41075733488416" lon="8.483899048973111"><ele>344.0</ele><time>2026-04-19T15:16:37Z</time></trkpt><trkpt lat="44.410672004328916" lon="8.483797714619628"><ele>344.0</ele><time>2026-04-19T15:16:38Z</time></trkpt><trkpt lat="44.41058349647446" lon="8.483742021438772"><ele>344.0</ele><time>2026-04-19T15:16:39Z</time></trkpt><trkpt lat="44.410490176418506" lon="8.483760955655791"><ele>344.0</ele><time>2026-04-19T15:16:40Z</time></trkpt><trkpt lat="44.41039295343813" lon="8.483773454027423"><ele>342.25</ele><time>2026-04-19T15:16:41Z</time></trkpt><trkpt lat="44.41031185721554" lon="8.483911735875077"><ele>340.5</ele><time>2026-04-19T15:16:42Z</time></trkpt><trkpt lat="44.410216276495724" lon="8.484053073877787"><ele>338.75</ele><time>2026-04-19T15:16:43Z</time></trkpt><trkpt lat="44.41009865008059" lon="8.484156937439073"><ele>337.0</ele><time>2026-04-19T15:16:44Z</time></trkpt><trkpt lat="44.40996402134829" lon="8.484227308436195"><ele>337.0</ele><time>2026-04-19T15:16:45Z</time></trkpt><trkpt lat="44.40983350240167" lon="8.484265578960292"><ele>337.0</ele><time>2026-04-19T15:16:46Z</time></trkpt><trkpt lat="44.40972067957173" lon="8.4843152086247"><ele>337.0</ele><time>2026-04-19T15:16:47Z</time></trkpt><trkpt lat="44.40962748291621" lon="8.48440179990234"><ele>337.0</ele><time>2026-04-19T15:16:48Z</time></trkpt><trkpt lat="44.40955915162202" lon="8.48452610749281"><ele>336.75</ele><time>2026-04-19T15:16:49Z</time></trkpt><trkpt lat="44.409503467937746" lon="8.484674610313688"><ele>336.5</ele><time>2026-04-19T15:16:50Z</time></trkpt><trkpt lat="44.409436233259036" lon="8.484821084134044"><ele>336.25</ele><time>2026-04-19T15:16:51Z</time></trkpt><trkpt lat="44.4093485212912" lon="8.484938576599966"><ele>336.0</ele><time>2026-04-19T15:16:52Z</time></trkpt><trkpt lat="44.40925088449896" lon="8.485005338884497"><ele>336.0</ele><time>2026-04-19T15:16:53Z</time></trkpt><trkpt lat="44.40914577478357" lon="8.485025831169247"><ele>336.0</ele><time>2026-04-19T15:16:54Z</time></trkpt><trkpt lat="44.40903788369727" lon="8.4850122902556"><ele>336.0</ele><time>2026-04-19T15:16:55Z</time></trkpt><trkpt lat="44.408930668452896" lon="8.484980225891963"><ele>336.0</ele><time>2026-04-19T15:16:56Z</time></trkpt><trkpt lat="44.40883135495349" lon="8.48497300141804"><ele>336.0</ele><time>2026-04-19T15:16:57Z</time></trkpt><trkpt lat="44.408744025801084" lon="8.485012684933578"><ele>332.0</ele><time>2026-04-19T15:16:58Z</time></trkpt><trkpt lat="44.408664334624774" lon="8.485089199440317"><ele>328.0</ele><time>2026-04-19T15:16:59Z</time></trkpt><trkpt lat="44.40860796431304" lon="8.485214182268072"><ele>324.0</ele><time>2026-04-19T15:17:00Z</time></trkpt><trkpt lat="44.408587376874856" lon="8.485373443146775"><ele>320.0</ele><time>2026-04-19T15:17:01Z</time></trkpt><trkpt lat="44.408590389500745" lon="8.485532039733508"><ele>316.0</ele><time>2026-04-19T15:17:02Z</time></trkpt><trkpt lat="44.40860900483494" lon="8.485684159237033"><ele>316.0</ele><time>2026-04-19T15:17:03Z</time></trkpt><trkpt lat="44.40866372847824" lon="8.485821963913466"><ele>316.0</ele><time>2026-04-19T15:17:04Z</time></trkpt><trkpt lat="44.408726884970044" lon="8.485952688784254"><ele>316.0</ele><time>2026-04-19T15:17:05Z</time></trkpt><trkpt lat="44.40881426528624" lon="8.485999375602864"><ele>316.0</ele><time>2026-04-19T15:17:06Z</time></trkpt><trkpt lat="44.408895828338885" lon="8.486113194108372"><ele>316.0</ele><time>2026-04-19T15:17:08Z</time></trkpt><trkpt lat="44.40885162444696" lon="8.48621989672535"><ele>317.75</ele><time>2026-04-19T15:17:09Z</time></trkpt><trkpt lat="44.408765063026586" lon="8.486296303977598"><ele>319.5</ele><time>2026-04-19T15:17:10Z</time></trkpt><trkpt lat="44.40865338534041" lon="8.486459814167477"><ele>321.25</ele><time>2026-04-19T15:17:11Z</time></trkpt><trkpt lat="44.40855058476963" lon="8.486659550991249"><ele>323.0</ele><time>2026-04-19T15:17:12Z</time></trkpt><trkpt lat="44.40845566761385" lon="8.486918907693664"><ele>327.0</ele><time>2026-04-19T15:17:13Z</time></trkpt><trkpt lat="44.40839978939174" lon="8.48720145858353"><ele>331.0</ele><time>2026-04-19T15:17:14Z</time></trkpt><trkpt lat="44.4083383763677" lon="8.487427484909333"><ele>335.0</ele><time>2026-04-19T15:17:15Z</time></trkpt><trkpt lat="44.40827940323382" lon="8.487607436311189"><ele>335.0</ele><time>2026-04-19T15:17:16Z</time></trkpt><trkpt lat="44.408234731811625" lon="8.487757356222977"><ele>335.0</ele><time>2026-04-19T15:17:17Z</time></trkpt><trkpt lat="44.408220480203326" lon="8.487904065948834"><ele>335.0</ele><time>2026-04-19T15:17:18Z</time></trkpt><trkpt lat="44.40824113433744" lon="8.488042948296265"><ele>335.0</ele><time>2026-04-19T15:17:19Z</time></trkpt><trkpt lat="44.40827848607067" lon="8.48817557610495"><ele>335.0</ele><time>2026-04-19T15:17:20Z</time></trkpt><trkpt lat="44.408267629630735" lon="8.488283250641746"><ele>336.0</ele><time>2026-04-19T15:17:21Z</time></trkpt><trkpt lat="44.408201526867536" lon="8.488357958656831"><ele>337.0</ele><time>2026-04-19T15:17:22Z</time></trkpt><trkpt lat="44.408080028180855" lon="8.488333399747876"><ele>338.0</ele><time>2026-04-19T15:17:23Z</time></trkpt><trkpt lat="44.40792287984214" lon="8.488374600231275"><ele>339.0</ele><time>2026-04-19T15:17:24Z</time></trkpt><trkpt lat="44.407757283934764" lon="8.488478172548144"><ele>338.6666666666667</ele><time>2026-04-19T15:17:25Z</time></trkpt><trkpt lat="44.40757274436804" lon="8.488625471424202"><ele>338.33333333333337</ele><time>2026-04-19T15:17:26Z</time></trkpt><trkpt lat="44.40741001193535" lon="8.488791758577507"><ele>338.0</ele><time>2026-04-19T15:17:27Z</time></trkpt><trkpt lat="44.40725844302919" lon="8.488934538022507"><ele>334.6666666666667</ele><time>2026-04-19T15:17:28Z</time></trkpt><trkpt lat="44.40712933252905" lon="8.489109963415492"><ele>331.3333333333333</ele><time>2026-04-19T15:17:29Z</time></trkpt><trkpt lat="44.40702241346753" lon="8.48932899447633"><ele>328.0</ele><time>2026-04-19T15:17:30.001Z</time></trkpt><trkpt lat="44.40691667502582" lon="8.489608461097594"><ele>328.0</ele><time>2026-04-19T15:17:31.001Z</time></trkpt><trkpt lat="44.40678320972715" lon="8.489868790483241"><ele>328.0</ele><time>2026-04-19T15:17:32.001Z</time></trkpt><trkpt lat="44.40665829393565" lon="8.490074833842623"><ele>328.0</ele><time>2026-04-19T15:17:33.001Z</time></trkpt><trkpt lat="44.40652699526851" lon="8.49022819169368"><ele>328.0</ele><time>2026-04-19T15:17:34.001Z</time></trkpt><trkpt lat="44.40637721084673" lon="8.490335656608845"><ele>328.0</ele><time>2026-04-19T15:17:35.001Z</time></trkpt><trkpt lat="44.40620289942643" lon="8.49040087898086"><ele>328.0</ele><time>2026-04-19T15:17:36.001Z</time></trkpt><trkpt lat="44.406016898642" lon="8.49042586387984"><ele>325.0</ele><time>2026-04-19T15:17:37.001Z</time></trkpt><trkpt lat="44.40583480290994" lon="8.490388311387163"><ele>322.0</ele><time>2026-04-19T15:17:38.001Z</time></trkpt><trkpt lat="44.40564435566333" lon="8.490328136552359"><ele>319.0</ele><time>2026-04-19T15:17:39.001Z</time></trkpt><trkpt lat="44.405460180032755" lon="8.490258042791423"><ele>318.66666666666663</ele><time>2026-04-19T15:17:40.001Z</time></trkpt><trkpt lat="44.405257143185906" lon="8.4901911630555"><ele>318.3333333333333</ele><time>2026-04-19T15:17:41.001Z</time></trkpt><trkpt lat="44.405057409230146" lon="8.490091681774352"><ele>318.0</ele><time>2026-04-19T15:17:42.001Z</time></trkpt><trkpt lat="44.40487666428587" lon="8.489988444097397"><ele>318.0</ele><time>2026-04-19T15:17:43.001Z</time></trkpt><trkpt lat="44.40471455492429" lon="8.489904183439027"><ele>318.0</ele><time>2026-04-19T15:17:44.001Z</time></trkpt><trkpt lat="44.40457862010861" lon="8.489839723023904"><ele>318.0</ele><time>2026-04-19T15:17:45.001Z</time></trkpt><trkpt lat="44.40446405297123" lon="8.48978155614269"><ele>318.0</ele><time>2026-04-19T15:17:46.001Z</time></trkpt><trkpt lat="44.40436555727864" lon="8.489735961810993"><ele>319.8</ele><time>2026-04-19T15:17:47.001Z</time></trkpt><trkpt lat="44.404285583817064" lon="8.489683994320169"><ele>321.6</ele><time>2026-04-19T15:17:48.001Z</time></trkpt><trkpt lat="44.40418791501486" lon="8.489673432035824"><ele>323.40000000000003</ele><time>2026-04-19T15:17:50Z</time></trkpt><trkpt lat="44.40416407587707" lon="8.489902534558283"><ele>325.20000000000005</ele><time>2026-04-19T15:17:52Z</time></trkpt><trkpt lat="44.404179964689924" lon="8.490026447221434"><ele>327.0</ele><time>2026-04-19T15:17:53Z</time></trkpt><trkpt lat="44.40416143980774" lon="8.490124365974577"><ele>327.0</ele><time>2026-04-19T15:17:54Z</time></trkpt><trkpt lat="44.40410079082155" lon="8.490150012057354"><ele>327.0</ele><time>2026-04-19T15:17:55Z</time></trkpt><trkpt lat="44.40402385834406" lon="8.490119776867967"><ele>327.0</ele><time>2026-04-19T15:17:56Z</time></trkpt><trkpt lat="44.403938480675784" lon="8.49003947926215"><ele>327.0</ele><time>2026-04-19T15:17:57Z</time></trkpt><trkpt lat="44.40386722764089" lon="8.489888696854056"><ele>327.0</ele><time>2026-04-19T15:17:58Z</time></trkpt><trkpt lat="44.40375874008369" lon="8.489730218687916"><ele>323.6666666666667</ele><time>2026-04-19T15:17:59Z</time></trkpt><trkpt lat="44.403638678813365" lon="8.489576519151457"><ele>320.33333333333337</ele><time>2026-04-19T15:18:00Z</time></trkpt><trkpt lat="44.403481530044395" lon="8.489481805844836"><ele>317.0</ele><time>2026-04-19T15:18:01Z</time></trkpt><trkpt lat="44.40329135594597" lon="8.489447527885474"><ele>317.0</ele><time>2026-04-19T15:18:02Z</time></trkpt><trkpt lat="44.40310698001454" lon="8.489433844557619"><ele>317.0</ele><time>2026-04-19T15:18:03Z</time></trkpt><trkpt lat="44.402967459538" lon="8.48942498053287"><ele>317.0</ele><time>2026-04-19T15:18:04Z</time></trkpt><trkpt lat="44.40284935797622" lon="8.48943429413641"><ele>317.0</ele><time>2026-04-19T15:18:05Z</time></trkpt><trkpt lat="44.40274244368611" lon="8.489490075264568"><ele>320.33333333333337</ele><time>2026-04-19T15:18:06Z</time></trkpt><trkpt lat="44.40263606915302" lon="8.48962245306738"><ele>323.6666666666667</ele><time>2026-04-19T15:18:07Z</time></trkpt><trkpt lat="44.40251474920895" lon="8.48979226829745"><ele>327.0</ele><time>2026-04-19T15:18:08Z</time></trkpt><trkpt lat="44.40238654720543" lon="8.489961927437594"><ele>327.0</ele><time>2026-04-19T15:18:09Z</time></trkpt><trkpt lat="44.40227459986268" lon="8.49012904840105"><ele>327.0</ele><time>2026-04-19T15:18:10Z</time></trkpt><trkpt lat="44.402207378970424" lon="8.490300010701413"><ele>327.0</ele><time>2026-04-19T15:18:11Z</time></trkpt><trkpt lat="44.402176307180135" lon="8.490466043293594"><ele>327.0</ele><time>2026-04-19T15:18:12Z</time></trkpt><trkpt lat="44.40212982427789" lon="8.490604578429153"><ele>324.75</ele><time>2026-04-19T15:18:12.999Z</time></trkpt><trkpt lat="44.402023844497826" lon="8.490675583538634"><ele>322.5</ele><time>2026-04-19T15:18:13.999Z</time></trkpt><trkpt lat="44.40190268460823" lon="8.490719128439912"><ele>320.25</ele><time>2026-04-19T15:18:14.999Z</time></trkpt><trkpt lat="44.401807743613105" lon="8.490809371806277"><ele>318.0</ele><time>2026-04-19T15:18:15.999Z</time></trkpt><trkpt lat="44.40173524905602" lon="8.490938107797177"><ele>318.0</ele><time>2026-04-19T15:18:16.999Z</time></trkpt><trkpt lat="44.401697553292266" lon="8.491120323799073"><ele>318.0</ele><time>2026-04-19T15:18:17.999Z</time></trkpt><trkpt lat="44.401700465798164" lon="8.491327099344598"><ele>318.0</ele><time>2026-04-19T15:18:18.999Z</time></trkpt><trkpt lat="44.40174308186459" lon="8.491513796280978"><ele>318.0</ele><time>2026-04-19T15:18:19.999Z</time></trkpt><trkpt lat="44.401743805465046" lon="8.491661887605035"><ele>321.75</ele><time>2026-04-19T15:18:20.999Z</time></trkpt><trkpt lat="44.40172027280728" lon="8.491811379096575"><ele>325.5</ele><time>2026-04-19T15:18:21.999Z</time></trkpt><trkpt lat="44.401611278019224" lon="8.491937516098785"><ele>329.25</ele><time>2026-04-19T15:18:22.999Z</time></trkpt><trkpt lat="44.40148859336498" lon="8.492085729770501"><ele>333.0</ele><time>2026-04-19T15:18:23.999Z</time></trkpt><trkpt lat="44.401390230165866" lon="8.49229911864291"><ele>328.6666666666667</ele><time>2026-04-19T15:18:24.999Z</time></trkpt><trkpt lat="44.40130069034825" lon="8.492510617179347"><ele>324.33333333333337</ele><time>2026-04-19T15:18:25.999Z</time></trkpt><trkpt lat="44.401206524410895" lon="8.492671104247723"><ele>320.0</ele><time>2026-04-19T15:18:26.999Z</time></trkpt><trkpt lat="44.40113175630293" lon="8.492820682745398"><ele>325.0</ele><time>2026-04-19T15:18:27.999Z</time></trkpt><trkpt lat="44.40107947109885" lon="8.492973815165353"><ele>330.0</ele><time>2026-04-19T15:18:28.999Z</time></trkpt><trkpt lat="44.401064416040825" lon="8.493182267083686"><ele>335.0</ele><time>2026-04-19T15:18:29.999Z</time></trkpt><trkpt lat="44.401033712014616" lon="8.49339748849711"><ele>340.0</ele><time>2026-04-19T15:18:30.999Z</time></trkpt><trkpt lat="44.40097805686048" lon="8.493582435489474"><ele>340.0</ele><time>2026-04-19T15:18:31.999Z</time></trkpt><trkpt lat="44.40091099958722" lon="8.493745464720064"><ele>340.0</ele><time>2026-04-19T15:18:32.999Z</time></trkpt><trkpt lat="44.4008420150338" lon="8.493881845374055"><ele>340.0</ele><time>2026-04-19T15:18:33.999Z</time></trkpt><trkpt lat="44.40077524491069" lon="8.493976080927267"><ele>340.0</ele><time>2026-04-19T15:18:34.999Z</time></trkpt><trkpt lat="44.40070269837469" lon="8.49400849187732"><ele>340.0</ele><time>2026-04-19T15:18:35.999Z</time></trkpt><trkpt lat="44.40062953678339" lon="8.493984378809332"><ele>340.25</ele><time>2026-04-19T15:18:36.999Z</time></trkpt><trkpt lat="44.40056928395203" lon="8.493875983325891"><ele>340.5</ele><time>2026-04-19T15:18:37.999Z</time></trkpt><trkpt lat="44.40048100398681" lon="8.493747828100426"><ele>340.75</ele><time>2026-04-19T15:18:38.999Z</time></trkpt><trkpt lat="44.40035396375478" lon="8.493623352400652"><ele>341.0</ele><time>2026-04-19T15:18:39.999Z</time></trkpt><trkpt lat="44.400213054450724" lon="8.493490656955581"><ele>341.0</ele><time>2026-04-19T15:18:40.999Z</time></trkpt><trkpt lat="44.4000834485596" lon="8.493393813985904"><ele>341.0</ele><time>2026-04-19T15:18:41.999Z</time></trkpt><trkpt lat="44.39997169451143" lon="8.493348421523313"><ele>341.0</ele><time>2026-04-19T15:18:42.999Z</time></trkpt><trkpt lat="44.39986684976489" lon="8.493319324577682"><ele>341.0</ele><time>2026-04-19T15:18:43.999Z</time></trkpt><trkpt lat="44.399730007218686" lon="8.493215164143944"><ele>335.33333333333337</ele><time>2026-04-19T15:18:44.999Z</time></trkpt><trkpt lat="44.39961945848816" lon="8.493518269579551"><ele>329.6666666666667</ele><time>2026-04-19T15:18:45.999Z</time></trkpt><trkpt lat="44.39951574329246" lon="8.493634795306516"><ele>324.0</ele><time>2026-04-19T15:18:46.999Z</time></trkpt><trkpt lat="44.39944948346098" lon="8.493749695409859"><ele>328.0</ele><time>2026-04-19T15:18:47.999Z</time></trkpt><trkpt lat="44.399428428695806" lon="8.493894311088479"><ele>332.0</ele><time>2026-04-19T15:18:48.999Z</time></trkpt><trkpt lat="44.39942680260054" lon="8.494067826867997"><ele>336.0</ele><time>2026-04-19T15:18:49.999Z</time></trkpt><trkpt lat="44.39936000058216" lon="8.49422150769693"><ele>340.0</ele><time>2026-04-19T15:18:50.999Z</time></trkpt><trkpt lat="44.39925679682731" lon="8.494356644954992"><ele>340.0</ele><time>2026-04-19T15:18:51.999Z</time></trkpt><trkpt lat="44.39916909393567" lon="8.494505496470019"><ele>340.0</ele><time>2026-04-19T15:18:52.999Z</time></trkpt><trkpt lat="44.39909865571076" lon="8.494666297910832"><ele>340.0</ele><time>2026-04-19T15:18:53.999Z</time></trkpt><trkpt lat="44.399085177263764" lon="8.494848097393506"><ele>340.0</ele><time>2026-04-19T15:18:54.999Z</time></trkpt><trkpt lat="44.39909305224208" lon="8.495010141988601"><ele>341.2</ele><time>2026-04-19T15:18:55.999Z</time></trkpt><trkpt lat="44.39916385632474" lon="8.495150449728548"><ele>342.4</ele><time>2026-04-19T15:18:56.999Z</time></trkpt><trkpt lat="44.39920902671007" lon="8.495279244299713"><ele>343.6</ele><time>2026-04-19T15:18:57.999Z</time></trkpt><trkpt lat="44.39919859138025" lon="8.495409711430478"><ele>344.8</ele><time>2026-04-19T15:18:58.999Z</time></trkpt><trkpt lat="44.39911694095626" lon="8.495530687356457"><ele>346.0</ele><time>2026-04-19T15:18:59.999Z</time></trkpt><trkpt lat="44.39901642744853" lon="8.495644557925685"><ele>347.5</ele><time>2026-04-19T15:19:00.999Z</time></trkpt><trkpt lat="44.39894241597915" lon="8.495773996588278"><ele>349.0</ele><time>2026-04-19T15:19:01.999Z</time></trkpt><trkpt lat="44.3988965549692" lon="8.49592659233226"><ele>350.5</ele><time>2026-04-19T15:19:02.999Z</time></trkpt><trkpt lat="44.39890016730428" lon="8.496117689984793"><ele>352.0</ele><time>2026-04-19T15:19:03.999Z</time></trkpt><trkpt lat="44.398942148688626" lon="8.496331313489252"><ele>354.0</ele><time>2026-04-19T15:19:04.999Z</time></trkpt><trkpt lat="44.39897454380205" lon="8.496565620356263"><ele>356.0</ele><time>2026-04-19T15:19:05.999Z</time></trkpt><trkpt lat="44.399000744794165" lon="8.496806560441232"><ele>358.0</ele><time>2026-04-19T15:19:06.999Z</time></trkpt><trkpt lat="44.39900585225415" lon="8.497003727541559"><ele>358.79999999999995</ele><time>2026-04-19T15:19:07.999Z</time></trkpt><trkpt lat="44.39900299756341" lon="8.49717617590788"><ele>359.6</ele><time>2026-04-19T15:19:08.999Z</time></trkpt><trkpt lat="44.39894956430667" lon="8.49728936319958"><ele>360.4</ele><time>2026-04-19T15:19:09.999Z</time></trkpt><trkpt lat="44.39886937628043" lon="8.497359826036943"><ele>361.20000000000005</ele><time>2026-04-19T15:19:10.999Z</time></trkpt><trkpt lat="44.39879068339013" lon="8.497463231971977"><ele>362.0</ele><time>2026-04-19T15:19:11.999Z</time></trkpt><trkpt lat="44.398625910925226" lon="8.497397167114611"><ele>357.5</ele><time>2026-04-19T15:19:12.999Z</time></trkpt><trkpt lat="44.39850277992853" lon="8.497489785186442"><ele>353.0</ele><time>2026-04-19T15:19:13.999Z</time></trkpt><trkpt lat="44.39841755517338" lon="8.497646329173236"><ele>348.5</ele><time>2026-04-19T15:19:14.999Z</time></trkpt><trkpt lat="44.398331798284545" lon="8.497768107769723"><ele>344.0</ele><time>2026-04-19T15:19:15.999Z</time></trkpt><trkpt lat="44.39819452951407" lon="8.497787441336525"><ele>344.0</ele><time>2026-04-19T15:19:16.999Z</time></trkpt><trkpt lat="44.39802765542841" lon="8.497840961778728"><ele>344.0</ele><time>2026-04-19T15:19:17.999Z</time></trkpt><trkpt lat="44.39785125299206" lon="8.497893368664327"><ele>344.0</ele><time>2026-04-19T15:19:18.999Z</time></trkpt><trkpt lat="44.397710195621784" lon="8.497980445915665"><ele>347.0</ele><time>2026-04-19T15:19:19.999Z</time></trkpt><trkpt lat="44.39759238037071" lon="8.498109183824644"><ele>350.0</ele><time>2026-04-19T15:19:20.999Z</time></trkpt><trkpt lat="44.39747086195951" lon="8.49827820119788"><ele>353.0</ele><time>2026-04-19T15:19:21.999Z</time></trkpt><trkpt lat="44.3973521418024" lon="8.498470687963831"><ele>353.0</ele><time>2026-04-19T15:19:22.999Z</time></trkpt><trkpt lat="44.39725662854182" lon="8.498694170547877"><ele>353.0</ele><time>2026-04-19T15:19:23.999Z</time></trkpt><trkpt lat="44.39719558624271" lon="8.49892143628996"><ele>353.0</ele><time>2026-04-19T15:19:24.999Z</time></trkpt><trkpt lat="44.3971219144729" lon="8.499103552774184"><ele>350.25</ele><time>2026-04-19T15:19:25.999Z</time></trkpt><trkpt lat="44.39705944674665" lon="8.499277156846414"><ele>347.5</ele><time>2026-04-19T15:19:26.999Z</time></trkpt><trkpt lat="44.396951423572546" lon="8.49938453916943"><ele>344.75</ele><time>2026-04-19T15:19:27.999Z</time></trkpt><trkpt lat="44.39680989202809" lon="8.499447085750829"><ele>342.0</ele><time>2026-04-19T15:19:28.999Z</time></trkpt><trkpt lat="44.39666445091502" lon="8.499484542166128"><ele>342.0</ele><time>2026-04-19T15:19:29.999Z</time></trkpt><trkpt lat="44.39654339064358" lon="8.499523013050402"><ele>342.0</ele><time>2026-04-19T15:19:30.999Z</time></trkpt><trkpt lat="44.39643743013952" lon="8.499616043870708"><ele>342.0</ele><time>2026-04-19T15:19:31.999Z</time></trkpt><trkpt lat="44.39635321528274" lon="8.499777290462474"><ele>342.0</ele><time>2026-04-19T15:19:32.999Z</time></trkpt><trkpt lat="44.39628263962364" lon="8.499981259106553"><ele>342.6666666666667</ele><time>2026-04-19T15:19:33.999Z</time></trkpt><trkpt lat="44.396195329297285" lon="8.500181795387896"><ele>343.33333333333337</ele><time>2026-04-19T15:19:34.999Z</time></trkpt><trkpt lat="44.39609571195265" lon="8.500373324735584"><ele>344.0</ele><time>2026-04-19T15:19:36Z</time></trkpt><trkpt lat="44.39601094105865" lon="8.500560455556302"><ele>344.0</ele><time>2026-04-19T15:19:37Z</time></trkpt><trkpt lat="44.39594962201235" lon="8.500748589519233"><ele>344.0</ele><time>2026-04-19T15:19:38Z</time></trkpt><trkpt lat="44.39590937521851" lon="8.50097532102405"><ele>344.0</ele><time>2026-04-19T15:19:39Z</time></trkpt><trkpt lat="44.39588149634079" lon="8.501232871540026"><ele>346.33333333333337</ele><time>2026-04-19T15:19:40Z</time></trkpt><trkpt lat="44.39585255130442" lon="8.501488606171252"><ele>348.6666666666667</ele><time>2026-04-19T15:19:41Z</time></trkpt><trkpt lat="44.395796327696075" lon="8.501702939783932"><ele>351.0</ele><time>2026-04-19T15:19:42Z</time></trkpt><trkpt lat="44.39574358876114" lon="8.501897484319276"><ele>351.0</ele><time>2026-04-19T15:19:43Z</time></trkpt><trkpt lat="44.39567844695423" lon="8.502076265037415"><ele>351.0</ele><time>2026-04-19T15:19:44Z</time></trkpt><trkpt lat="44.3956198707027" lon="8.502243091939746"><ele>351.0</ele><time>2026-04-19T15:19:45Z</time></trkpt><trkpt lat="44.395568909378795" lon="8.502382079736892"><ele>351.0</ele><time>2026-04-19T15:19:46Z</time></trkpt><trkpt lat="44.395561541966785" lon="8.502528793626832"><ele>352.25</ele><time>2026-04-19T15:19:47Z</time></trkpt><trkpt lat="44.3955830828461" lon="8.502653585384701"><ele>353.5</ele><time>2026-04-19T15:19:48Z</time></trkpt><trkpt lat="44.395624588307456" lon="8.502780955058133"><ele>354.75</ele><time>2026-04-19T15:19:49Z</time></trkpt><trkpt lat="44.39565523271165" lon="8.502958051241109"><ele>356.0</ele><time>2026-04-19T15:19:50Z</time></trkpt><trkpt lat="44.39567173650682" lon="8.503138849432"><ele>356.0</ele><time>2026-04-19T15:19:51Z</time></trkpt><trkpt lat="44.395671462189426" lon="8.503316236257762"><ele>356.0</ele><time>2026-04-19T15:19:52Z</time></trkpt><trkpt lat="44.39572520770625" lon="8.503489305051577"><ele>356.0</ele><time>2026-04-19T15:19:53Z</time></trkpt><trkpt lat="44.39581196054746" lon="8.503645210059902"><ele>356.0</ele><time>2026-04-19T15:19:54Z</time></trkpt><trkpt lat="44.395867167326195" lon="8.503784768423449"><ele>356.8</ele><time>2026-04-19T15:19:54.999Z</time></trkpt><trkpt lat="44.395903505973976" lon="8.503888694682344"><ele>357.6</ele><time>2026-04-19T15:19:55.999Z</time></trkpt><trkpt lat="44.39587092391167" lon="8.504036767767367"><ele>358.4</ele><time>2026-04-19T15:19:57.999Z</time></trkpt><trkpt lat="44.39577600587347" lon="8.504075757081928"><ele>359.2</ele><time>2026-04-19T15:19:58.999Z</time></trkpt><trkpt lat="44.39565375848429" lon="8.504024994175978"><ele>360.0</ele><time>2026-04-19T15:19:59.999Z</time></trkpt><trkpt lat="44.39552112624405" lon="8.50398645905567"><ele>356.0</ele><time>2026-04-19T15:20:00.999Z</time></trkpt><trkpt lat="44.39536709667798" lon="8.50393501201844"><ele>352.0</ele><time>2026-04-19T15:20:01.999Z</time></trkpt><trkpt lat="44.39523348082542" lon="8.5039089716265"><ele>348.0</ele><time>2026-04-19T15:20:02.999Z</time></trkpt><trkpt lat="44.395138198285416" lon="8.503958553257563"><ele>344.0</ele><time>2026-04-19T15:20:03.999Z</time></trkpt><trkpt lat="44.395066485301406" lon="8.504046875970534"><ele>344.0</ele><time>2026-04-19T15:20:04.999Z</time></trkpt><trkpt lat="44.3950185981703" lon="8.5041787182526"><ele>344.0</ele><time>2026-04-19T15:20:05.999Z</time></trkpt><trkpt lat="44.39498150744028" lon="8.504320383109265"><ele>344.0</ele><time>2026-04-19T15:20:06.999Z</time></trkpt><trkpt lat="44.39490742340611" lon="8.504432668110956"><ele>344.0</ele><time>2026-04-19T15:20:07.999Z</time></trkpt><trkpt lat="44.394793082379216" lon="8.504463755600927"><ele>344.0</ele><time>2026-04-19T15:20:08.999Z</time></trkpt><trkpt lat="44.39466141758251" lon="8.504496424281545"><ele>343.75</ele><time>2026-04-19T15:20:09.999Z</time></trkpt><trkpt lat="44.39451577842247" lon="8.50449789904349"><ele>343.5</ele><time>2026-04-19T15:20:10.999Z</time></trkpt><trkpt lat="44.39439248008799" lon="8.504544687573249"><ele>343.25</ele><time>2026-04-19T15:20:11.999Z</time></trkpt><trkpt lat="44.39426841247835" lon="8.504654561343711"><ele>343.0</ele><time>2026-04-19T15:20:12.999Z</time></trkpt><trkpt lat="44.3941509372997" lon="8.504777377530882"><ele>343.0</ele><time>2026-04-19T15:20:13.999Z</time></trkpt><trkpt lat="44.394057517169045" lon="8.504913130533009"><ele>343.0</ele><time>2026-04-19T15:20:14.999Z</time></trkpt><trkpt lat="44.39397562062006" lon="8.505094777716717"><ele>343.0</ele><time>2026-04-19T15:20:15.999Z</time></trkpt><trkpt lat="44.39391666173667" lon="8.505323152183681"><ele>347.3333333333333</ele><time>2026-04-19T15:20:16.999Z</time></trkpt><trkpt lat="44.393867736808616" lon="8.505562694128352"><ele>351.6666666666667</ele><time>2026-04-19T15:20:17.999Z</time></trkpt><trkpt lat="44.39382828925548" lon="8.505778096036705"><ele>356.0</ele><time>2026-04-19T15:20:18.999Z</time></trkpt><trkpt lat="44.39379577940708" lon="8.505979695111398"><ele>355.5</ele><time>2026-04-19T15:20:19.999Z</time></trkpt><trkpt lat="44.393788237955356" lon="8.506174283163393"><ele>355.0</ele><time>2026-04-19T15:20:20.999Z</time></trkpt><trkpt lat="44.393816849278494" lon="8.506371837808382"><ele>354.5</ele><time>2026-04-19T15:20:21.999Z</time></trkpt><trkpt lat="44.39387290216881" lon="8.506588170635348"><ele>354.0</ele><time>2026-04-19T15:20:22.999Z</time></trkpt><trkpt lat="44.39390600888692" lon="8.506834328223322"><ele>351.3333333333333</ele><time>2026-04-19T15:20:23.999Z</time></trkpt><trkpt lat="44.39394956886812" lon="8.507108159079724"><ele>348.66666666666663</ele><time>2026-04-19T15:20:24.999Z</time></trkpt><trkpt lat="44.39400879958279" lon="8.507359029614046"><ele>346.0</ele><time>2026-04-19T15:20:25.999Z</time></trkpt><trkpt lat="44.39405342713524" lon="8.507580148996718"><ele>346.0</ele><time>2026-04-19T15:20:26.999Z</time></trkpt><trkpt lat="44.39404579288147" lon="8.507776672542267"><ele>346.0</ele><time>2026-04-19T15:20:27.999Z</time></trkpt><trkpt lat="44.39405012185019" lon="8.508006965073811"><ele>346.0</ele><time>2026-04-19T15:20:28.999Z</time></trkpt><trkpt lat="44.394060334208305" lon="8.508219523795344"><ele>345.75</ele><time>2026-04-19T15:20:29.999Z</time></trkpt><trkpt lat="44.39406216649553" lon="8.5084230648152"><ele>345.5</ele><time>2026-04-19T15:20:30.999Z</time></trkpt><trkpt lat="44.39404125538562" lon="8.508613321089776"><ele>345.25</ele><time>2026-04-19T15:20:31.999Z</time></trkpt><trkpt lat="44.39399128643485" lon="8.508791738425892"><ele>345.0</ele><time>2026-04-19T15:20:32.999Z</time></trkpt><trkpt lat="44.393974913078466" lon="8.508961450369762"><ele>344.5</ele><time>2026-04-19T15:20:33.999Z</time></trkpt><trkpt lat="44.39395511008065" lon="8.509127842305595"><ele>344.0</ele><time>2026-04-19T15:20:34.999Z</time></trkpt><trkpt lat="44.3939864981707" lon="8.509306572541014"><ele>343.5</ele><time>2026-04-19T15:20:35.999Z</time></trkpt><trkpt lat="44.39404332736549" lon="8.509509407799715"><ele>343.0</ele><time>2026-04-19T15:20:36.999Z</time></trkpt><trkpt lat="44.39409562712345" lon="8.509740694993221"><ele>340.66666666666663</ele><time>2026-04-19T15:20:37.999Z</time></trkpt><trkpt lat="44.394147635251635" lon="8.509967247276828"><ele>338.3333333333333</ele><time>2026-04-19T15:20:38.999Z</time></trkpt><trkpt lat="44.39420345319635" lon="8.51016599088794"><ele>336.0</ele><time>2026-04-19T15:20:39.999Z</time></trkpt><trkpt lat="44.39424511277286" lon="8.510334415187959"><ele>335.8</ele><time>2026-04-19T15:20:40.999Z</time></trkpt><trkpt lat="44.39425967685654" lon="8.510472259549651"><ele>335.6</ele><time>2026-04-19T15:20:41.999Z</time></trkpt><trkpt lat="44.394264433680796" lon="8.510574561249115"><ele>335.4</ele><time>2026-04-19T15:20:42.999Z</time></trkpt><trkpt lat="44.39415643077341" lon="8.510672527262882"><ele>335.2</ele><time>2026-04-19T15:20:44.999Z</time></trkpt><trkpt lat="44.39404914105152" lon="8.510689274644239"><ele>335.0</ele><time>2026-04-19T15:20:45.999Z</time></trkpt><trkpt lat="44.393890260797185" lon="8.510736019254338"><ele>333.0</ele><time>2026-04-19T15:20:46.999Z</time></trkpt><trkpt lat="44.39371848050187" lon="8.51084456249716"><ele>331.0</ele><time>2026-04-19T15:20:47.999Z</time></trkpt><trkpt lat="44.393540466484566" lon="8.51089418761963"><ele>329.0</ele><time>2026-04-19T15:20:48.999Z</time></trkpt><trkpt lat="44.39338081996616" lon="8.510939938081377"><ele>329.0</ele><time>2026-04-19T15:20:49.999Z</time></trkpt><trkpt lat="44.39324408219769" lon="8.510958027110814"><ele>329.0</ele><time>2026-04-19T15:20:50.999Z</time></trkpt><trkpt lat="44.393133263606245" lon="8.510924168988973"><ele>329.0</ele><time>2026-04-19T15:20:51.999Z</time></trkpt><trkpt lat="44.39307399703895" lon="8.510753964160306"><ele>329.0</ele><time>2026-04-19T15:20:52.999Z</time></trkpt><trkpt lat="44.39297070211886" lon="8.510625309448093"><ele>329.0</ele><time>2026-04-19T15:20:53.999Z</time></trkpt><trkpt lat="44.39288042106643" lon="8.51053151543235"><ele>329.0</ele><time>2026-04-19T15:20:54.999Z</time></trkpt><trkpt lat="44.39278293100255" lon="8.510485367372004"><ele>329.0</ele><time>2026-04-19T15:20:55.999Z</time></trkpt><trkpt lat="44.39264573171029" lon="8.510497606215822"><ele>329.0</ele><time>2026-04-19T15:20:56.999Z</time></trkpt><trkpt lat="44.39248036232763" lon="8.510533512391644"><ele>329.0</ele><time>2026-04-19T15:20:57.999Z</time></trkpt><trkpt lat="44.39229686823135" lon="8.510523585990892"><ele>329.0</ele><time>2026-04-19T15:20:58.999Z</time></trkpt><trkpt lat="44.39213143086757" lon="8.510540152292016"><ele>329.0</ele><time>2026-04-19T15:20:59.999Z</time></trkpt><trkpt lat="44.39200452686752" lon="8.510471412128027"><ele>326.59999999999997</ele><time>2026-04-19T15:21:00.999Z</time></trkpt><trkpt lat="44.39190094737148" lon="8.51047034604603"><ele>324.2</ele><time>2026-04-19T15:21:01.999Z</time></trkpt><trkpt lat="44.39181829408103" lon="8.510492807798943"><ele>321.79999999999995</ele><time>2026-04-19T15:21:02.999Z</time></trkpt><trkpt lat="44.39175446739332" lon="8.510579078330798"><ele>319.4</ele><time>2026-04-19T15:21:03.999Z</time></trkpt><trkpt lat="44.39170689683971" lon="8.510723667739473"><ele>317.0</ele><time>2026-04-19T15:21:04.999Z</time></trkpt><trkpt lat="44.391685246087164" lon="8.5109020930682"><ele>317.0</ele><time>2026-04-19T15:21:05.999Z</time></trkpt><trkpt lat="44.39168215314844" lon="8.51109097459256"><ele>317.0</ele><time>2026-04-19T15:21:06.999Z</time></trkpt><trkpt lat="44.391689718797394" lon="8.511276301090497"><ele>317.0</ele><time>2026-04-19T15:21:07.999Z</time></trkpt><trkpt lat="44.39166033855912" lon="8.511443738787593"><ele>317.0</ele><time>2026-04-19T15:21:08.999Z</time></trkpt><trkpt lat="44.39163173252064" lon="8.511599381945425"><ele>320.33333333333337</ele><time>2026-04-19T15:21:09.999Z</time></trkpt><trkpt lat="44.39152652068031" lon="8.511749006194195"><ele>323.6666666666667</ele><time>2026-04-19T15:21:10.999Z</time></trkpt><trkpt lat="44.39143011109985" lon="8.511935959761933"><ele>327.0</ele><time>2026-04-19T15:21:11.999Z</time></trkpt><trkpt lat="44.391344275289065" lon="8.512098195882938"><ele>320.75</ele><time>2026-04-19T15:21:12.999Z</time></trkpt><trkpt lat="44.391293744875725" lon="8.512275558434666"><ele>314.5</ele><time>2026-04-19T15:21:13.999Z</time></trkpt><trkpt lat="44.391274668955255" lon="8.51246299444681"><ele>308.25</ele><time>2026-04-19T15:21:14.999Z</time></trkpt><trkpt lat="44.39125199683358" lon="8.51263479484686"><ele>302.0</ele><time>2026-04-19T15:21:15.999Z</time></trkpt><trkpt lat="44.39121888974292" lon="8.51278326753428"><ele>302.0</ele><time>2026-04-19T15:21:16.999Z</time></trkpt><trkpt lat="44.39114090981342" lon="8.512866111567423"><ele>302.0</ele><time>2026-04-19T15:21:17.999Z</time></trkpt><trkpt lat="44.39104038822325" lon="8.512957937865503"><ele>302.0</ele><time>2026-04-19T15:21:18.999Z</time></trkpt><trkpt lat="44.39094205077829" lon="8.51309645628179"><ele>302.0</ele><time>2026-04-19T15:21:19.999Z</time></trkpt><trkpt lat="44.39084285616452" lon="8.513269069504227"><ele>305.6666666666667</ele><time>2026-04-19T15:21:20.999Z</time></trkpt><trkpt lat="44.39076169359204" lon="8.51348168305934"><ele>309.3333333333333</ele><time>2026-04-19T15:21:21.999Z</time></trkpt><trkpt lat="44.39070304040854" lon="8.513707847239953"><ele>313.0</ele><time>2026-04-19T15:21:22.999Z</time></trkpt><trkpt lat="44.39067184007936" lon="8.51392764634529"><ele>314.5</ele><time>2026-04-19T15:21:23.999Z</time></trkpt><trkpt lat="44.39065840094249" lon="8.514125544635371"><ele>316.0</ele><time>2026-04-19T15:21:24.999Z</time></trkpt><trkpt lat="44.39066832846489" lon="8.514303246126621"><ele>317.5</ele><time>2026-04-19T15:21:25.999Z</time></trkpt><trkpt lat="44.390709239121" lon="8.514468948860873"><ele>319.0</ele><time>2026-04-19T15:21:26.999Z</time></trkpt><trkpt lat="44.390766411400854" lon="8.514614339357527"><ele>319.16666666666663</ele><time>2026-04-19T15:21:27.999Z</time></trkpt><trkpt lat="44.390785127750036" lon="8.514750353947196"><ele>319.3333333333333</ele><time>2026-04-19T15:21:28.999Z</time></trkpt><trkpt lat="44.3907710353131" lon="8.514865316730024"><ele>319.5</ele><time>2026-04-19T15:21:29.999Z</time></trkpt><trkpt lat="44.39074726000834" lon="8.514974658500037"><ele>319.6666666666667</ele><time>2026-04-19T15:21:30.999Z</time></trkpt><trkpt lat="44.39071367897691" lon="8.515078157173598"><ele>319.83333333333337</ele><time>2026-04-19T15:21:31.999Z</time></trkpt><trkpt lat="44.39068093258965" lon="8.515177646101906"><ele>320.0</ele><time>2026-04-19T15:21:32.999Z</time></trkpt><trkpt lat="44.390655358887564" lon="8.515264840706152"><ele>319.8</ele><time>2026-04-19T15:21:33.999Z</time></trkpt><trkpt lat="44.39063727428598" lon="8.515415430928211"><ele>319.6</ele><time>2026-04-19T15:21:35.999Z</time></trkpt><trkpt lat="44.39072656364823" lon="8.515467362692025"><ele>319.4</ele><time>2026-04-19T15:21:36.999Z</time></trkpt><trkpt lat="44.39077545315726" lon="8.515524122807435"><ele>319.2</ele><time>2026-04-19T15:21:37.998Z</time></trkpt><trkpt lat="44.39084593143755" lon="8.515601261879423"><ele>319.0</ele><time>2026-04-19T15:21:39.998Z</time></trkpt><trkpt lat="44.39091925182123" lon="8.515708702030885"><ele>319.0</ele><time>2026-04-19T15:21:42Z</time></trkpt><trkpt lat="44.390978697318374" lon="8.515799221137748"><ele>319.0</ele><time>2026-04-19T15:21:43Z</time></trkpt><trkpt lat="44.391008999782564" lon="8.515911632252068"><ele>319.0</ele><time>2026-04-19T15:21:44Z</time></trkpt><trkpt lat="44.3910755535323" lon="8.515982280328947"><ele>319.0</ele><time>2026-04-19T15:21:45Z</time></trkpt><trkpt lat="44.391117764306934" lon="8.516065278820774"><ele>319.0</ele><time>2026-04-19T15:21:46Z</time></trkpt><trkpt lat="44.391112466048696" lon="8.516175052319198"><ele>319.0</ele><time>2026-04-19T15:21:47Z</time></trkpt><trkpt lat="44.39110744783602" lon="8.516276704777281"><ele>316.8</ele><time>2026-04-19T15:21:48Z</time></trkpt><trkpt lat="44.391087269434685" lon="8.516399290972553"><ele>314.59999999999997</ele><time>2026-04-19T15:21:49Z</time></trkpt><trkpt lat="44.39105267371376" lon="8.516528898560537"><ele>312.4</ele><time>2026-04-19T15:21:50Z</time></trkpt><trkpt lat="44.39102278224948" lon="8.51665976468244"><ele>310.2</ele><time>2026-04-19T15:21:51Z</time></trkpt><trkpt lat="44.39098445264497" lon="8.516787884594349"><ele>308.0</ele><time>2026-04-19T15:21:52Z</time></trkpt><trkpt lat="44.39099273832338" lon="8.51692780428568"><ele>305.75</ele><time>2026-04-19T15:21:53Z</time></trkpt><trkpt lat="44.391040059982636" lon="8.517075235552436"><ele>303.5</ele><time>2026-04-19T15:21:54Z</time></trkpt><trkpt lat="44.39107526265127" lon="8.517251205364547"><ele>301.25</ele><time>2026-04-19T15:21:55Z</time></trkpt><trkpt lat="44.39112963241131" lon="8.517415008627953"><ele>299.0</ele><time>2026-04-19T15:21:56Z</time></trkpt><trkpt lat="44.39115164791431" lon="8.517575305946522"><ele>299.0</ele><time>2026-04-19T15:21:57Z</time></trkpt><trkpt lat="44.391179000904565" lon="8.51772639625296"><ele>299.0</ele><time>2026-04-19T15:21:58Z</time></trkpt><trkpt lat="44.39121281823256" lon="8.517856875191914"><ele>299.0</ele><time>2026-04-19T15:21:59Z</time></trkpt><trkpt lat="44.39129742022456" lon="8.517957111199975"><ele>299.0</ele><time>2026-04-19T15:22:00Z</time></trkpt><trkpt lat="44.39138778556595" lon="8.51804755301757"><ele>299.0</ele><time>2026-04-19T15:22:01Z</time></trkpt><trkpt lat="44.39146822798449" lon="8.518177589123056"><ele>300.75</ele><time>2026-04-19T15:22:02Z</time></trkpt><trkpt lat="44.391550553838044" lon="8.518302057433825"><ele>302.5</ele><time>2026-04-19T15:22:03Z</time></trkpt><trkpt lat="44.391636537831054" lon="8.518392647797912"><ele>304.25</ele><time>2026-04-19T15:22:04Z</time></trkpt><trkpt lat="44.39172224273456" lon="8.518474659311279"><ele>306.0</ele><time>2026-04-19T15:22:04.999Z</time></trkpt><trkpt lat="44.391836287122075" lon="8.518537445290029"><ele>306.0</ele><time>2026-04-19T15:22:05.999Z</time></trkpt><trkpt lat="44.39195388605723" lon="8.51861206853254"><ele>306.0</ele><time>2026-04-19T15:22:06.999Z</time></trkpt><trkpt lat="44.39206156000909" lon="8.518665529939906"><ele>306.0</ele><time>2026-04-19T15:22:07.999Z</time></trkpt><trkpt lat="44.39214862634339" lon="8.518708917843199"><ele>306.0</ele><time>2026-04-19T15:22:08.999Z</time></trkpt><trkpt lat="44.39220937872784" lon="8.518748407159059"><ele>306.0</ele><time>2026-04-19T15:22:09.999Z</time></trkpt><trkpt lat="44.392252795876416" lon="8.518887891308253"><ele>308.75</ele><time>2026-04-19T15:22:11.999Z</time></trkpt><trkpt lat="44.39217813497352" lon="8.51898964442467"><ele>311.5</ele><time>2026-04-19T15:22:12.999Z</time></trkpt><trkpt lat="44.392132311991226" lon="8.519134342653672"><ele>314.25</ele><time>2026-04-19T15:22:13.999Z</time></trkpt><trkpt lat="44.3921005614539" lon="8.51932161342003"><ele>317.0</ele><time>2026-04-19T15:22:14.999Z</time></trkpt><trkpt lat="44.39207961444731" lon="8.51952221699898"><ele>309.0</ele><time>2026-04-19T15:22:15.999Z</time></trkpt><trkpt lat="44.39205930224422" lon="8.519709327863481"><ele>301.0</ele><time>2026-04-19T15:22:16.999Z</time></trkpt><trkpt lat="44.39205100879637" lon="8.519875879948204"><ele>293.0</ele><time>2026-04-19T15:22:17.999Z</time></trkpt><trkpt lat="44.39207374962733" lon="8.520028439531991"><ele>285.0</ele><time>2026-04-19T15:22:18.999Z</time></trkpt><trkpt lat="44.39209772324538" lon="8.520176558088648"><ele>285.0</ele><time>2026-04-19T15:22:19.999Z</time></trkpt><trkpt lat="44.392143714197694" lon="8.520301539112953"><ele>285.0</ele><time>2026-04-19T15:22:20.999Z</time></trkpt><trkpt lat="44.39214376681318" lon="8.520411173758422"><ele>285.0</ele><time>2026-04-19T15:22:21.999Z</time></trkpt><trkpt lat="44.39208348398717" lon="8.52051188659942"><ele>285.0</ele><time>2026-04-19T15:22:22.999Z</time></trkpt><trkpt lat="44.39198021426497" lon="8.520551750239624"><ele>285.0</ele><time>2026-04-19T15:22:23.999Z</time></trkpt><trkpt lat="44.391911689498066" lon="8.520633262540773"><ele>284.6</ele><time>2026-04-19T15:22:24.999Z</time></trkpt><trkpt lat="44.39186077566543" lon="8.520709033828487"><ele>284.2</ele><time>2026-04-19T15:22:25.999Z</time></trkpt><trkpt lat="44.39185176987233" lon="8.520822454712295"><ele>283.8</ele><time>2026-04-19T15:22:26.999Z</time></trkpt><trkpt lat="44.391880845492196" lon="8.520971374207898"><ele>283.4</ele><time>2026-04-19T15:22:27.999Z</time></trkpt><trkpt lat="44.39194623883508" lon="8.521138181386595"><ele>283.0</ele><time>2026-04-19T15:22:28.999Z</time></trkpt><trkpt lat="44.391998615645974" lon="8.52131965009157"><ele>281.25</ele><time>2026-04-19T15:22:29.999Z</time></trkpt><trkpt lat="44.39199630806378" lon="8.521511488950463"><ele>279.5</ele><time>2026-04-19T15:22:30.999Z</time></trkpt><trkpt lat="44.392008353462494" lon="8.521686125693268"><ele>277.75</ele><time>2026-04-19T15:22:31.999Z</time></trkpt><trkpt lat="44.39203806135173" lon="8.521855233765335"><ele>276.0</ele><time>2026-04-19T15:22:32.999Z</time></trkpt><trkpt lat="44.39211994762664" lon="8.522014792282944"><ele>279.75</ele><time>2026-04-19T15:22:33.999Z</time></trkpt><trkpt lat="44.392190408311286" lon="8.522180433812455"><ele>283.5</ele><time>2026-04-19T15:22:34.999Z</time></trkpt><trkpt lat="44.39225382903364" lon="8.522335992368523"><ele>287.25</ele><time>2026-04-19T15:22:35.999Z</time></trkpt><trkpt lat="44.39231943169096" lon="8.522467444575065"><ele>291.0</ele><time>2026-04-19T15:22:36.999Z</time></trkpt><trkpt lat="44.392413295578315" lon="8.522557906853747"><ele>291.0</ele><time>2026-04-19T15:22:37.999Z</time></trkpt><trkpt lat="44.392530881700274" lon="8.522610143268455"><ele>291.0</ele><time>2026-04-19T15:22:38.999Z</time></trkpt><trkpt lat="44.39267362494011" lon="8.522626134496221"><ele>291.0</ele><time>2026-04-19T15:22:39.999Z</time></trkpt><trkpt lat="44.392810873637444" lon="8.522664184123837"><ele>291.0</ele><time>2026-04-19T15:22:40.999Z</time></trkpt><trkpt lat="44.392916248923825" lon="8.522673924496488"><ele>291.0</ele><time>2026-04-19T15:22:41.999Z</time></trkpt><trkpt lat="44.39299247194425" lon="8.522703432179766"><ele>291.0</ele><time>2026-04-19T15:22:42.999Z</time></trkpt><trkpt lat="44.39303918686935" lon="8.522859003035695"><ele>291.0</ele><time>2026-04-19T15:22:44.999Z</time></trkpt><trkpt lat="44.39297109403665" lon="8.52295994503144"><ele>291.0</ele><time>2026-04-19T15:22:45.999Z</time></trkpt><trkpt lat="44.39293112624347" lon="8.523114856020367"><ele>291.0</ele><time>2026-04-19T15:22:46.999Z</time></trkpt><trkpt lat="44.39290132799392" lon="8.523265264632292"><ele>289.8333333333333</ele><time>2026-04-19T15:22:47.999Z</time></trkpt><trkpt lat="44.39287211832276" lon="8.523375433640672"><ele>288.6666666666667</ele><time>2026-04-19T15:22:48.999Z</time></trkpt><trkpt lat="44.392830745688556" lon="8.523457560803738"><ele>287.5</ele><time>2026-04-19T15:22:49.999Z</time></trkpt><trkpt lat="44.39275737403886" lon="8.523484513817989"><ele>286.33333333333337</ele><time>2026-04-19T15:22:50.999Z</time></trkpt><trkpt lat="44.39268526017781" lon="8.523461482500045"><ele>285.1666666666667</ele><time>2026-04-19T15:22:51.999Z</time></trkpt><trkpt lat="44.39262932513783" lon="8.523362554888761"><ele>284.0</ele><time>2026-04-19T15:22:52.999Z</time></trkpt><trkpt lat="44.39253885263459" lon="8.523311374071112"><ele>284.0</ele><time>2026-04-19T15:22:53.999Z</time></trkpt><trkpt lat="44.392434480879416" lon="8.523265533620998"><ele>284.0</ele><time>2026-04-19T15:22:54.999Z</time></trkpt><trkpt lat="44.39228858177804" lon="8.523266778776964"><ele>284.0</ele><time>2026-04-19T15:22:55.999Z</time></trkpt><trkpt lat="44.392118321281544" lon="8.523277809111883"><ele>284.0</ele><time>2026-04-19T15:22:56.999Z</time></trkpt><trkpt lat="44.391983984455216" lon="8.523266299389947"><ele>281.0</ele><time>2026-04-19T15:22:57.999Z</time></trkpt><trkpt lat="44.39186458369531" lon="8.52325904821882"><ele>278.0</ele><time>2026-04-19T15:22:58.999Z</time></trkpt><trkpt lat="44.391759994389886" lon="8.523266034968358"><ele>275.0</ele><time>2026-04-19T15:22:59.999Z</time></trkpt><trkpt lat="44.391683753617244" lon="8.523317751861033"><ele>272.0</ele><time>2026-04-19T15:23:00.999Z</time></trkpt><trkpt lat="44.39163918034802" lon="8.523422723777179"><ele>269.0</ele><time>2026-04-19T15:23:01.999Z</time></trkpt><trkpt lat="44.391623854465" lon="8.523563070216294"><ele>270.25</ele><time>2026-04-19T15:23:02.999Z</time></trkpt><trkpt lat="44.39162794277462" lon="8.523762243619084"><ele>271.5</ele><time>2026-04-19T15:23:03.999Z</time></trkpt><trkpt lat="44.39160913969057" lon="8.523978373209992"><ele>272.75</ele><time>2026-04-19T15:23:04.999Z</time></trkpt><trkpt lat="44.391612159251764" lon="8.524179621771555"><ele>274.0</ele><time>2026-04-19T15:23:05.999Z</time></trkpt><trkpt lat="44.39162073267821" lon="8.524353924761414"><ele>274.0</ele><time>2026-04-19T15:23:06.999Z</time></trkpt><trkpt lat="44.39162994761841" lon="8.524497218422725"><ele>274.0</ele><time>2026-04-19T15:23:07.999Z</time></trkpt><trkpt lat="44.39158590291309" lon="8.524614406759131"><ele>274.0</ele><time>2026-04-19T15:23:08.999Z</time></trkpt><trkpt lat="44.391499631523544" lon="8.524666874256921"><ele>274.0</ele><time>2026-04-19T15:23:09.999Z</time></trkpt><trkpt lat="44.3914004591319" lon="8.52470974248027"><ele>274.0</ele><time>2026-04-19T15:23:10.999Z</time></trkpt><trkpt lat="44.391272787609886" lon="8.524745375952246"><ele>271.66666666666663</ele><time>2026-04-19T15:23:11.999Z</time></trkpt><trkpt lat="44.391127819380024" lon="8.52479302500204"><ele>269.3333333333333</ele><time>2026-04-19T15:23:12.999Z</time></trkpt><trkpt lat="44.39097827146181" lon="8.524879049774473"><ele>267.0</ele><time>2026-04-19T15:23:13.999Z</time></trkpt><trkpt lat="44.39082354930573" lon="8.52494346729519"><ele>267.0</ele><time>2026-04-19T15:23:14.999Z</time></trkpt><trkpt lat="44.390675638794896" lon="8.5250016026761"><ele>267.0</ele><time>2026-04-19T15:23:15.999Z</time></trkpt><trkpt lat="44.39054021742065" lon="8.52506081405995"><ele>267.0</ele><time>2026-04-19T15:23:16.999Z</time></trkpt><trkpt lat="44.39041614166396" lon="8.525114351248721"><ele>267.0</ele><time>2026-04-19T15:23:17.999Z</time></trkpt><trkpt lat="44.390300240337716" lon="8.525179725134455"><ele>266.0</ele><time>2026-04-19T15:23:18.999Z</time></trkpt><trkpt lat="44.39020372483871" lon="8.525278430699132"><ele>265.0</ele><time>2026-04-19T15:23:19.999Z</time></trkpt><trkpt lat="44.39014040676194" lon="8.52541190171741"><ele>264.0</ele><time>2026-04-19T15:23:20.999Z</time></trkpt><trkpt lat="44.390089375873856" lon="8.52555510188208"><ele>263.0</ele><time>2026-04-19T15:23:21.999Z</time></trkpt><trkpt lat="44.390059146676904" lon="8.52571120222482"><ele>263.0</ele><time>2026-04-19T15:23:22.999Z</time></trkpt><trkpt lat="44.39004168906505" lon="8.525858317139184"><ele>263.0</ele><time>2026-04-19T15:23:23.999Z</time></trkpt><trkpt lat="44.38997018575517" lon="8.52595930734296"><ele>263.0</ele><time>2026-04-19T15:23:24.999Z</time></trkpt><trkpt lat="44.38985649268923" lon="8.526006894155183"><ele>263.0</ele><time>2026-04-19T15:23:25.999Z</time></trkpt><trkpt lat="44.38972622403492" lon="8.526088256008414"><ele>262.6666666666667</ele><time>2026-04-19T15:23:26.999Z</time></trkpt><trkpt lat="44.38958408977421" lon="8.526183457882704"><ele>262.3333333333333</ele><time>2026-04-19T15:23:27.999Z</time></trkpt><trkpt lat="44.38943973407334" lon="8.526311490317877"><ele>262.0</ele><time>2026-04-19T15:23:28.999Z</time></trkpt><trkpt lat="44.389289025691454" lon="8.526416582905114"><ele>262.0</ele><time>2026-04-19T15:23:29.999Z</time></trkpt><trkpt lat="44.38913420022929" lon="8.526498560516517"><ele>262.0</ele><time>2026-04-19T15:23:30.999Z</time></trkpt><trkpt lat="44.38899276398674" lon="8.52661559591449"><ele>262.0</ele><time>2026-04-19T15:23:31.999Z</time></trkpt><trkpt lat="44.38884530166006" lon="8.526707463896159"><ele>258.66666666666663</ele><time>2026-04-19T15:23:32.999Z</time></trkpt><trkpt lat="44.38869114847578" lon="8.526784762044274"><ele>255.33333333333331</ele><time>2026-04-19T15:23:33.999Z</time></trkpt><trkpt lat="44.38853897982782" lon="8.5268886618021"><ele>252.0</ele><time>2026-04-19T15:23:34.999Z</time></trkpt><trkpt lat="44.388383571940615" lon="8.526994773283798"><ele>252.0</ele><time>2026-04-19T15:23:35.999Z</time></trkpt><trkpt lat="44.38822448727566" lon="8.52710198339067"><ele>252.0</ele><time>2026-04-19T15:23:36.999Z</time></trkpt><trkpt lat="44.388064064616" lon="8.527207239328844"><ele>252.0</ele><time>2026-04-19T15:23:37.999Z</time></trkpt><trkpt lat="44.38790657432808" lon="8.527310861282105"><ele>252.0</ele><time>2026-04-19T15:23:38.999Z</time></trkpt><trkpt lat="44.38775760673064" lon="8.527430214592286"><ele>252.0</ele><time>2026-04-19T15:23:39.999Z</time></trkpt><trkpt lat="44.387607404411575" lon="8.527527280367112"><ele>252.0</ele><time>2026-04-19T15:23:40.999Z</time></trkpt><trkpt lat="44.38745654260303" lon="8.527602526829714"><ele>252.0</ele><time>2026-04-19T15:23:41.999Z</time></trkpt><trkpt lat="44.38732219579645" lon="8.527723194705855"><ele>252.0</ele><time>2026-04-19T15:23:42.999Z</time></trkpt><trkpt lat="44.387202688755565" lon="8.527852790972503"><ele>252.0</ele><time>2026-04-19T15:23:43.999Z</time></trkpt><trkpt lat="44.387092793598896" lon="8.52796942328064"><ele>252.0</ele><time>2026-04-19T15:23:44.999Z</time></trkpt><trkpt lat="44.386993429765646" lon="8.528077402844712"><ele>252.39999999999998</ele><time>2026-04-19T15:23:45.999Z</time></trkpt><trkpt lat="44.38687294020688" lon="8.528092596563654"><ele>252.79999999999998</ele><time>2026-04-19T15:23:46.999Z</time></trkpt><trkpt lat="44.386760528983594" lon="8.528093270841172"><ele>253.2</ele><time>2026-04-19T15:23:48Z</time></trkpt><trkpt lat="44.38665680098244" lon="8.528064002323678"><ele>253.6</ele><time>2026-04-19T15:23:49Z</time></trkpt><trkpt lat="44.38655893257159" lon="8.528076927993174"><ele>254.0</ele><time>2026-04-19T15:23:50Z</time></trkpt><trkpt lat="44.38647086636199" lon="8.528134554743184"><ele>254.0</ele><time>2026-04-19T15:23:51Z</time></trkpt><trkpt lat="44.38637663296966" lon="8.528233130542239"><ele>254.0</ele><time>2026-04-19T15:23:52Z</time></trkpt><trkpt lat="44.386303735777666" lon="8.528357829172707"><ele>254.0</ele><time>2026-04-19T15:23:53Z</time></trkpt><trkpt lat="44.38625497056206" lon="8.528512051609177"><ele>254.0</ele><time>2026-04-19T15:23:54Z</time></trkpt><trkpt lat="44.38624007677442" lon="8.528683566459614"><ele>248.75</ele><time>2026-04-19T15:23:55Z</time></trkpt><trkpt lat="44.38623552129452" lon="8.528863118361521"><ele>243.5</ele><time>2026-04-19T15:23:56Z</time></trkpt><trkpt lat="44.38622254076693" lon="8.529039127105968"><ele>238.25</ele><time>2026-04-19T15:23:57Z</time></trkpt><trkpt lat="44.38619442755658" lon="8.52922063076668"><ele>233.0</ele><time>2026-04-19T15:23:58Z</time></trkpt><trkpt lat="44.386151770853346" lon="8.529397674305626"><ele>233.0</ele><time>2026-04-19T15:23:59Z</time></trkpt><trkpt lat="44.38611259357759" lon="8.529555360175227"><ele>233.0</ele><time>2026-04-19T15:24:00Z</time></trkpt><trkpt lat="44.38602500539737" lon="8.529667041278607"><ele>233.0</ele><time>2026-04-19T15:24:01Z</time></trkpt><trkpt lat="44.38591392852251" lon="8.529709794353641"><ele>233.0</ele><time>2026-04-19T15:24:02Z</time></trkpt><trkpt lat="44.385816956498175" lon="8.529785041454286"><ele>235.2</ele><time>2026-04-19T15:24:03Z</time></trkpt><trkpt lat="44.38572603361244" lon="8.5298464043882"><ele>237.4</ele><time>2026-04-19T15:24:04Z</time></trkpt><trkpt lat="44.385656858128044" lon="8.529946628596143"><ele>239.59999999999997</ele><time>2026-04-19T15:24:05Z</time></trkpt><trkpt lat="44.38562512847088" lon="8.530086846759724"><ele>241.79999999999998</ele><time>2026-04-19T15:24:06Z</time></trkpt><trkpt lat="44.38563166984022" lon="8.530242828514407"><ele>244.0</ele><time>2026-04-19T15:24:07Z</time></trkpt><trkpt lat="44.38565597152508" lon="8.530416351585542"><ele>245.2</ele><time>2026-04-19T15:24:08Z</time></trkpt><trkpt lat="44.38562605400958" lon="8.530572340577015"><ele>246.39999999999998</ele><time>2026-04-19T15:24:09Z</time></trkpt><trkpt lat="44.38558938164424" lon="8.53071239992459"><ele>247.6</ele><time>2026-04-19T15:24:10Z</time></trkpt><trkpt lat="44.38555483094704" lon="8.530858877535612"><ele>248.8</ele><time>2026-04-19T15:24:11Z</time></trkpt><trkpt lat="44.38550602509989" lon="8.53098208246521"><ele>250.0</ele><time>2026-04-19T15:24:12Z</time></trkpt><trkpt lat="44.3854913623926" lon="8.53110098866802"><ele>250.0</ele><time>2026-04-19T15:24:13Z</time></trkpt><trkpt lat="44.38551667862048" lon="8.531212698564163"><ele>250.0</ele><time>2026-04-19T15:24:14Z</time></trkpt><trkpt lat="44.385583689549925" lon="8.531306199635768"><ele>250.0</ele><time>2026-04-19T15:24:15Z</time></trkpt><trkpt lat="44.38567476012565" lon="8.531415526854468"><ele>250.0</ele><time>2026-04-19T15:24:15.999Z</time></trkpt><trkpt lat="44.38577649009153" lon="8.531543351956806"><ele>250.0</ele><time>2026-04-19T15:24:16.999Z</time></trkpt><trkpt lat="44.385894975317804" lon="8.531670901606992"><ele>244.66666666666666</ele><time>2026-04-19T15:24:17.999Z</time></trkpt><trkpt lat="44.38602413894246" lon="8.531804939460553"><ele>239.33333333333331</ele><time>2026-04-19T15:24:18.999Z</time></trkpt><trkpt lat="44.386149507596386" lon="8.531938826615118"><ele>234.0</ele><time>2026-04-19T15:24:19.999Z</time></trkpt><trkpt lat="44.38626978792002" lon="8.532061418787498"><ele>231.5</ele><time>2026-04-19T15:24:20.999Z</time></trkpt><trkpt lat="44.386378893862" lon="8.532166301787102"><ele>229.0</ele><time>2026-04-19T15:24:21.999Z</time></trkpt><trkpt lat="44.38648390918202" lon="8.532248581309924"><ele>226.5</ele><time>2026-04-19T15:24:22.999Z</time></trkpt><trkpt lat="44.3866067614767" lon="8.532286653309532"><ele>224.0</ele><time>2026-04-19T15:24:23.999Z</time></trkpt><trkpt lat="44.386745555496944" lon="8.532349755567033"><ele>224.0</ele><time>2026-04-19T15:24:24.999Z</time></trkpt><trkpt lat="44.386888950285865" lon="8.532435081415883"><ele>224.0</ele><time>2026-04-19T15:24:25.999Z</time></trkpt><trkpt lat="44.387036298861766" lon="8.532513546523209"><ele>224.0</ele><time>2026-04-19T15:24:26.999Z</time></trkpt><trkpt lat="44.38717940197381" lon="8.532583969397669"><ele>225.0</ele><time>2026-04-19T15:24:27.999Z</time></trkpt><trkpt lat="44.38729581787765" lon="8.532634954732202"><ele>225.99999999999997</ele><time>2026-04-19T15:24:28.999Z</time></trkpt><trkpt lat="44.38738273175512" lon="8.532697504986896"><ele>226.99999999999997</ele><time>2026-04-19T15:24:29.999Z</time></trkpt><trkpt lat="44.38745053317363" lon="8.532760825558666"><ele>228.0</ele><time>2026-04-19T15:24:30.999Z</time></trkpt><trkpt lat="44.38744584838612" lon="8.532875262628565"><ele>229.0</ele><time>2026-04-19T15:24:31.999Z</time></trkpt><trkpt lat="44.38742269469257" lon="8.532963133396247"><ele>229.0</ele><time>2026-04-19T15:24:32.999Z</time></trkpt><trkpt lat="44.38738396744596" lon="8.533045291933194"><ele>228.99999999999997</ele><time>2026-04-19T15:24:33.999Z</time></trkpt><trkpt lat="44.387305640539935" lon="8.533077827350198"><ele>228.99999999999997</ele><time>2026-04-19T15:24:34.999Z</time></trkpt><trkpt lat="44.387203523289074" lon="8.533106619848855"><ele>229.0</ele><time>2026-04-19T15:24:35.999Z</time></trkpt><trkpt lat="44.38709851201364" lon="8.53318145396235"><ele>229.0</ele><time>2026-04-19T15:24:36.999Z</time></trkpt><trkpt lat="44.386992351298545" lon="8.533292941953286"><ele>226.75</ele><time>2026-04-19T15:24:37.999Z</time></trkpt><trkpt lat="44.38688453668719" lon="8.533419265532016"><ele>224.5</ele><time>2026-04-19T15:24:38.999Z</time></trkpt><trkpt lat="44.38677389969718" lon="8.533525543444084"><ele>222.25</ele><time>2026-04-19T15:24:39.999Z</time></trkpt><trkpt lat="44.38666406250521" lon="8.533627919750689"><ele>220.0</ele><time>2026-04-19T15:24:40.999Z</time></trkpt><trkpt lat="44.3865678348799" lon="8.533742459215869"><ele>220.0</ele><time>2026-04-19T15:24:41.999Z</time></trkpt><trkpt lat="44.38650185941738" lon="8.533858318645057"><ele>220.0</ele><time>2026-04-19T15:24:42.999Z</time></trkpt><trkpt lat="44.38644731163128" lon="8.5339647812475"><ele>220.0</ele><time>2026-04-19T15:24:43.999Z</time></trkpt><trkpt lat="44.38646430358455" lon="8.53410909931533"><ele>220.0</ele><time>2026-04-19T15:24:44.999Z</time></trkpt><trkpt lat="44.38646491229473" lon="8.534259996009377"><ele>220.0</ele><time>2026-04-19T15:24:45.999Z</time></trkpt><trkpt lat="44.38646026773659" lon="8.53441303900092"><ele>220.0</ele><time>2026-04-19T15:24:46.999Z</time></trkpt><trkpt lat="44.38643026632921" lon="8.534595696249381"><ele>220.0</ele><time>2026-04-19T15:24:47.999Z</time></trkpt><trkpt lat="44.386414672412705" lon="8.534782681737212"><ele>220.0</ele><time>2026-04-19T15:24:48.999Z</time></trkpt><trkpt lat="44.386412151782274" lon="8.534953576481346"><ele>220.0</ele><time>2026-04-19T15:24:49.999Z</time></trkpt><trkpt lat="44.386425925860316" lon="8.535100972252467"><ele>220.0</ele><time>2026-04-19T15:24:50.999Z</time></trkpt><trkpt lat="44.38641358484693" lon="8.535239300921493"><ele>220.0</ele><time>2026-04-19T15:24:51.999Z</time></trkpt><trkpt lat="44.38639749072752" lon="8.535366725694148"><ele>220.0</ele><time>2026-04-19T15:24:52.999Z</time></trkpt><trkpt lat="44.38635158636392" lon="8.535476987186078"><ele>220.0</ele><time>2026-04-19T15:24:53.999Z</time></trkpt><trkpt lat="44.38630567232428" lon="8.535584562610104"><ele>220.0</ele><time>2026-04-19T15:24:54.999Z</time></trkpt><trkpt lat="44.38626636247094" lon="8.535696047055898"><ele>217.49999999999997</ele><time>2026-04-19T15:24:55.999Z</time></trkpt><trkpt lat="44.38622733432646" lon="8.535808193491171"><ele>215.0</ele><time>2026-04-19T15:24:56.999Z</time></trkpt><trkpt lat="44.38620616071458" lon="8.53592360120985"><ele>212.5</ele><time>2026-04-19T15:24:57.999Z</time></trkpt><trkpt lat="44.38615719840251" lon="8.53600221055177"><ele>210.0</ele><time>2026-04-19T15:24:58.999Z</time></trkpt><trkpt lat="44.38608298779297" lon="8.536030825333427"><ele>207.49999999999997</ele><time>2026-04-19T15:24:59.999Z</time></trkpt><trkpt lat="44.38601758157394" lon="8.536077494636757"><ele>205.0</ele><time>2026-04-19T15:25:00.999Z</time></trkpt><trkpt lat="44.38594486287731" lon="8.536092445975372"><ele>204.99999999999997</ele><time>2026-04-19T15:25:01.999Z</time></trkpt><trkpt lat="44.38587418828668" lon="8.536119144293718"><ele>205.0</ele><time>2026-04-19T15:25:02.999Z</time></trkpt><trkpt lat="44.38580237065255" lon="8.536158128728191"><ele>205.0</ele><time>2026-04-19T15:25:03.999Z</time></trkpt><trkpt lat="44.385718094984135" lon="8.536178134867072"><ele>205.0</ele><time>2026-04-19T15:25:04.999Z</time></trkpt><trkpt lat="44.385639283967635" lon="8.536231412276138"><ele>204.99999999999997</ele><time>2026-04-19T15:25:05.999Z</time></trkpt><trkpt lat="44.38557304862927" lon="8.536308279538847"><ele>205.0</ele><time>2026-04-19T15:25:06.999Z</time></trkpt><trkpt lat="44.385504380741565" lon="8.53636157201428"><ele>203.71428571428572</ele><time>2026-04-19T15:25:07.999Z</time></trkpt><trkpt lat="44.38544693666341" lon="8.536408884378845"><ele>202.42857142857142</ele><time>2026-04-19T15:25:08.999Z</time></trkpt><trkpt lat="44.38539301130828" lon="8.536470711263773"><ele>201.14285714285714</ele><time>2026-04-19T15:25:09.999Z</time></trkpt><trkpt lat="44.385351558654314" lon="8.536552587968046"><ele>199.85714285714286</ele><time>2026-04-19T15:25:10.999Z</time></trkpt><trkpt lat="44.38532901837417" lon="8.536646419686313"><ele>198.57142857142856</ele><time>2026-04-19T15:25:11.999Z</time></trkpt><trkpt lat="44.38533640143573" lon="8.536745949108864"><ele>197.28571428571428</ele><time>2026-04-19T15:25:12.999Z</time></trkpt><trkpt lat="44.385368131612694" lon="8.536837461652135"><ele>196.0</ele><time>2026-04-19T15:25:13.999Z</time></trkpt><trkpt lat="44.38538946041564" lon="8.536934710746316"><ele>195.99999999999997</ele><time>2026-04-19T15:25:14.999Z</time></trkpt><trkpt lat="44.38542297720082" lon="8.5370141206644"><ele>196.0</ele><time>2026-04-19T15:25:15.999Z</time></trkpt><trkpt lat="44.3854579313993" lon="8.537170480264692"><ele>196.0</ele><time>2026-04-19T15:25:17.999Z</time></trkpt><trkpt lat="44.385423661002584" lon="8.537251693377355"><ele>196.0</ele><time>2026-04-19T15:25:18.999Z</time></trkpt><trkpt lat="44.385366334350195" lon="8.537308556149057"><ele>195.99999999999997</ele><time>2026-04-19T15:25:19.999Z</time></trkpt><trkpt lat="44.38529626195055" lon="8.537334237531558"><ele>196.0</ele><time>2026-04-19T15:25:20.999Z</time></trkpt><trkpt lat="44.38522771365993" lon="8.537353216425366"><ele>195.99999999999997</ele><time>2026-04-19T15:25:21.999Z</time></trkpt><trkpt lat="44.385172940929664" lon="8.53740668225264"><ele>196.0</ele><time>2026-04-19T15:25:22.999Z</time></trkpt><trkpt lat="44.38512990236246" lon="8.537486036712059"><ele>196.0</ele><time>2026-04-19T15:25:23.999Z</time></trkpt><trkpt lat="44.38513014580202" lon="8.537605445860383"><ele>196.0</ele><time>2026-04-19T15:25:24.999Z</time></trkpt><trkpt lat="44.38513935826544" lon="8.537729625669972"><ele>195.99999999999997</ele><time>2026-04-19T15:25:25.999Z</time></trkpt><trkpt lat="44.38515045624933" lon="8.537844214954584"><ele>196.0</ele><time>2026-04-19T15:25:26.999Z</time></trkpt><trkpt lat="44.38515530719856" lon="8.53795444904251"><ele>196.16666666666666</ele><time>2026-04-19T15:25:27.999Z</time></trkpt><trkpt lat="44.38515563660339" lon="8.538055250443751"><ele>196.33333333333331</ele><time>2026-04-19T15:25:28.999Z</time></trkpt><trkpt lat="44.38514484547849" lon="8.538150983658674"><ele>196.5</ele><time>2026-04-19T15:25:29.999Z</time></trkpt><trkpt lat="44.385110531917604" lon="8.53823808910181"><ele>196.66666666666669</ele><time>2026-04-19T15:25:30.999Z</time></trkpt><trkpt lat="44.385059250939456" lon="8.538320511512937"><ele>196.83333333333334</ele><time>2026-04-19T15:25:31.999Z</time></trkpt><trkpt lat="44.38501508740971" lon="8.538420764397067"><ele>197.0</ele><time>2026-04-19T15:25:32.999Z</time></trkpt><trkpt lat="44.3849931526254" lon="8.538531985805879"><ele>197.00000000000003</ele><time>2026-04-19T15:25:33.999Z</time></trkpt><trkpt lat="44.38494496425151" lon="8.538628478848308"><ele>197.0</ele><time>2026-04-19T15:25:34.999Z</time></trkpt><trkpt lat="44.3849156573555" lon="8.538737149959395"><ele>197.0</ele><time>2026-04-19T15:25:35.999Z</time></trkpt><trkpt lat="44.38490601658514" lon="8.538847613117461"><ele>197.0</ele><time>2026-04-19T15:25:36.999Z</time></trkpt><trkpt lat="44.38489434981226" lon="8.538951395168844"><ele>197.00000000000003</ele><time>2026-04-19T15:25:37.999Z</time></trkpt><trkpt lat="44.38489935545831" lon="8.539059837874166"><ele>197.0</ele><time>2026-04-19T15:25:38.999Z</time></trkpt><trkpt lat="44.38490738823969" lon="8.539174470409124"><ele>195.50000000000003</ele><time>2026-04-19T15:25:39.999Z</time></trkpt><trkpt lat="44.38496514582527" lon="8.539268924202165"><ele>194.0</ele><time>2026-04-19T15:25:40.999Z</time></trkpt><trkpt lat="44.3850376588052" lon="8.539325504120631"><ele>192.5</ele><time>2026-04-19T15:25:41.999Z</time></trkpt><trkpt lat="44.38510056410323" lon="8.539369445070955"><ele>191.0</ele><time>2026-04-19T15:25:42.999Z</time></trkpt><trkpt lat="44.385164649489454" lon="8.539412128555478"><ele>189.5</ele><time>2026-04-19T15:25:43.999Z</time></trkpt><trkpt lat="44.38523251400715" lon="8.539447466677423"><ele>188.0</ele><time>2026-04-19T15:25:44.999Z</time></trkpt><trkpt lat="44.38527640037118" lon="8.539517254157182"><ele>189.5</ele><time>2026-04-19T15:25:45.999Z</time></trkpt><trkpt lat="44.385283065615035" lon="8.539606103066415"><ele>191.0</ele><time>2026-04-19T15:25:46.999Z</time></trkpt><trkpt lat="44.38527554364505" lon="8.539781084695266"><ele>192.5</ele><time>2026-04-19T15:25:48.999Z</time></trkpt><trkpt lat="44.385293023574604" lon="8.539884104194408"><ele>194.0</ele><time>2026-04-19T15:25:49.999Z</time></trkpt><trkpt lat="44.385356066900265" lon="8.539971618733361"><ele>195.50000000000003</ele><time>2026-04-19T15:25:50.999Z</time></trkpt><trkpt lat="44.38544510466881" lon="8.539972690103172"><ele>197.0</ele><time>2026-04-19T15:25:51.999Z</time></trkpt><trkpt lat="44.385516266683965" lon="8.539993759980407"><ele>197.00000000000003</ele><time>2026-04-19T15:25:52.999Z</time></trkpt><trkpt lat="44.385583194739716" lon="8.540033064194004"><ele>197.0</ele><time>2026-04-19T15:25:54Z</time></trkpt><trkpt lat="44.385652565413714" lon="8.540051007253803"><ele>197.0</ele><time>2026-04-19T15:25:55Z</time></trkpt><trkpt lat="44.385720047182836" lon="8.540068461738842"><ele>197.0</ele><time>2026-04-19T15:25:56Z</time></trkpt><trkpt lat="44.38578102265073" lon="8.540094293206751"><ele>197.00000000000003</ele><time>2026-04-19T15:25:57Z</time></trkpt><trkpt lat="44.38585611403912" lon="8.540225238564043"><ele>197.0</ele><time>2026-04-19T15:25:59Z</time></trkpt><trkpt lat="44.3859022472394" lon="8.540301825916597"><ele>197.0</ele><time>2026-04-19T15:26:00Z</time></trkpt><trkpt lat="44.385952542916364" lon="8.540372594856168"><ele>197.0</ele><time>2026-04-19T15:26:01Z</time></trkpt><trkpt lat="44.38602979921418" lon="8.540410090049159"><ele>197.0</ele><time>2026-04-19T15:26:02Z</time></trkpt><trkpt lat="44.38614042258121" lon="8.54043885652768"><ele>197.0</ele><time>2026-04-19T15:26:03Z</time></trkpt><trkpt lat="44.386272282984166" lon="8.540422180077947"><ele>197.0</ele><time>2026-04-19T15:26:04Z</time></trkpt><trkpt lat="44.38639512364546" lon="8.54043111415781"><ele>195.2</ele><time>2026-04-19T15:26:05Z</time></trkpt><trkpt lat="44.38650577367118" lon="8.540459777794968"><ele>193.39999999999998</ele><time>2026-04-19T15:26:06Z</time></trkpt><trkpt lat="44.386604955569" lon="8.54049303931059"><ele>191.60000000000002</ele><time>2026-04-19T15:26:07Z</time></trkpt><trkpt lat="44.38668210673629" lon="8.54054468078895"><ele>189.8</ele><time>2026-04-19T15:26:08Z</time></trkpt><trkpt lat="44.38674783929187" lon="8.54061231853161"><ele>188.0</ele><time>2026-04-19T15:26:09Z</time></trkpt><trkpt lat="44.38675064615682" lon="8.540734529325416"><ele>188.0</ele><time>2026-04-19T15:26:10Z</time></trkpt><trkpt lat="44.38675159049388" lon="8.540841148990397"><ele>188.0</ele><time>2026-04-19T15:26:11Z</time></trkpt><trkpt lat="44.38670105259653" lon="8.540929068634652"><ele>188.0</ele><time>2026-04-19T15:26:12Z</time></trkpt><trkpt lat="44.38662619738517" lon="8.54099512356421"><ele>188.0</ele><time>2026-04-19T15:26:13Z</time></trkpt><trkpt lat="44.38652485896195" lon="8.540997878181642"><ele>188.0</ele><time>2026-04-19T15:26:14Z</time></trkpt><trkpt lat="44.38640223424677" lon="8.540989993479782"><ele>184.66666666666666</ele><time>2026-04-19T15:26:15Z</time></trkpt><trkpt lat="44.386263314838715" lon="8.541031618623014"><ele>181.33333333333334</ele><time>2026-04-19T15:26:16Z</time></trkpt><trkpt lat="44.38609887876646" lon="8.541121188399517"><ele>178.0</ele><time>2026-04-19T15:26:17Z</time></trkpt><trkpt lat="44.38593565260948" lon="8.541196882029142"><ele>178.0</ele><time>2026-04-19T15:26:18Z</time></trkpt><trkpt lat="44.38576929674931" lon="8.541186596855969"><ele>178.0</ele><time>2026-04-19T15:26:19Z</time></trkpt><trkpt lat="44.38561263366614" lon="8.541183882117156"><ele>178.0</ele><time>2026-04-19T15:26:20Z</time></trkpt><trkpt lat="44.385482753095445" lon="8.541210445145675"><ele>175.60000000000002</ele><time>2026-04-19T15:26:21Z</time></trkpt><trkpt lat="44.38539336382536" lon="8.54125930443116"><ele>173.20000000000002</ele><time>2026-04-19T15:26:22Z</time></trkpt><trkpt lat="44.385330609568925" lon="8.54134424309628"><ele>170.8</ele><time>2026-04-19T15:26:23Z</time></trkpt><trkpt lat="44.385302784249554" lon="8.541466811008785"><ele>168.4</ele><time>2026-04-19T15:26:24Z</time></trkpt><trkpt lat="44.385307713600824" lon="8.541630263900494"><ele>166.0</ele><time>2026-04-19T15:26:25Z</time></trkpt><trkpt lat="44.3853410465367" lon="8.541805359122757"><ele>166.0</ele><time>2026-04-19T15:26:26Z</time></trkpt><trkpt lat="44.38535464386807" lon="8.54196709445952"><ele>166.0</ele><time>2026-04-19T15:26:27Z</time></trkpt><trkpt lat="44.3853241565367" lon="8.542113433148744"><ele>166.0</ele><time>2026-04-19T15:26:28Z</time></trkpt><trkpt lat="44.38526298609494" lon="8.54223571822472"><ele>166.0</ele><time>2026-04-19T15:26:28.999Z</time></trkpt><trkpt lat="44.38515574556627" lon="8.542320120077463"><ele>169.25</ele><time>2026-04-19T15:26:29.999Z</time></trkpt><trkpt lat="44.38503162710094" lon="8.542406341851276"><ele>172.5</ele><time>2026-04-19T15:26:30.999Z</time></trkpt><trkpt lat="44.384894332808926" lon="8.542481961355008"><ele>175.75</ele><time>2026-04-19T15:26:31.999Z</time></trkpt><trkpt lat="44.38476902446618" lon="8.54253862226795"><ele>179.0</ele><time>2026-04-19T15:26:32.999Z</time></trkpt><trkpt lat="44.38466543623304" lon="8.542628326856232"><ele>174.25</ele><time>2026-04-19T15:26:33.999Z</time></trkpt><trkpt lat="44.38458434550834" lon="8.542752761735601"><ele>169.5</ele><time>2026-04-19T15:26:34.999Z</time></trkpt><trkpt lat="44.38451224268266" lon="8.542911295954799"><ele>164.75</ele><time>2026-04-19T15:26:35.999Z</time></trkpt><trkpt lat="44.38444594769567" lon="8.543067793279734"><ele>160.0</ele><time>2026-04-19T15:26:36.999Z</time></trkpt><trkpt lat="44.38439170880197" lon="8.543220047148157"><ele>160.0</ele><time>2026-04-19T15:26:37.999Z</time></trkpt><trkpt lat="44.38435857222342" lon="8.543416789163603"><ele>160.0</ele><time>2026-04-19T15:26:38.999Z</time></trkpt><trkpt lat="44.384322996283856" lon="8.543609065642812"><ele>160.0</ele><time>2026-04-19T15:26:39.999Z</time></trkpt><trkpt lat="44.3842676003945" lon="8.543773579357952"><ele>160.0</ele><time>2026-04-19T15:26:40.999Z</time></trkpt><trkpt lat="44.38425555174106" lon="8.543953291530155"><ele>161.25</ele><time>2026-04-19T15:26:41.999Z</time></trkpt><trkpt lat="44.38430491323285" lon="8.544135756346437"><ele>162.5</ele><time>2026-04-19T15:26:42.999Z</time></trkpt><trkpt lat="44.38436092605274" lon="8.544317444077233"><ele>163.75</ele><time>2026-04-19T15:26:43.999Z</time></trkpt><trkpt lat="44.38443147635835" lon="8.54446616578481"><ele>165.0</ele><time>2026-04-19T15:26:44.999Z</time></trkpt><trkpt lat="44.38452541896703" lon="8.544600011651855"><ele>166.0</ele><time>2026-04-19T15:26:45.999Z</time></trkpt><trkpt lat="44.384650303024856" lon="8.544728733892853"><ele>167.0</ele><time>2026-04-19T15:26:46.999Z</time></trkpt><trkpt lat="44.384761548227" lon="8.544867943597922"><ele>168.0</ele><time>2026-04-19T15:26:47.999Z</time></trkpt><trkpt lat="44.38487118595949" lon="8.544990498501383"><ele>169.0</ele><time>2026-04-19T15:26:48.999Z</time></trkpt><trkpt lat="44.38499329210731" lon="8.545083084700462"><ele>169.0</ele><time>2026-04-19T15:26:49.999Z</time></trkpt><trkpt lat="44.38513870675132" lon="8.545155180385663"><ele>169.0</ele><time>2026-04-19T15:26:50.999Z</time></trkpt><trkpt lat="44.38528494482511" lon="8.545218118448553"><ele>169.0</ele><time>2026-04-19T15:26:51.999Z</time></trkpt><trkpt lat="44.38541282776972" lon="8.545262372420295"><ele>169.0</ele><time>2026-04-19T15:26:52.999Z</time></trkpt><trkpt lat="44.38551107278204" lon="8.545277439977154"><ele>168.0</ele><time>2026-04-19T15:26:53.999Z</time></trkpt><trkpt lat="44.38558533469668" lon="8.545236649721998"><ele>167.0</ele><time>2026-04-19T15:26:54.999Z</time></trkpt><trkpt lat="44.38564250022437" lon="8.545142008899193"><ele>166.0</ele><time>2026-04-19T15:26:55.999Z</time></trkpt><trkpt lat="44.385702331734855" lon="8.544996547350046"><ele>165.0</ele><time>2026-04-19T15:26:56.999Z</time></trkpt><trkpt lat="44.38579011217579" lon="8.544849892279965"><ele>164.0</ele><time>2026-04-19T15:26:57.999Z</time></trkpt><trkpt lat="44.38589879962939" lon="8.5447215035903"><ele>164.0</ele><time>2026-04-19T15:26:58.999Z</time></trkpt><trkpt lat="44.38600098037413" lon="8.544607464605084"><ele>164.0</ele><time>2026-04-19T15:26:59.999Z</time></trkpt><trkpt lat="44.386080004096584" lon="8.544518256605532"><ele>164.0</ele><time>2026-04-19T15:27:00.999Z</time></trkpt><trkpt lat="44.386145976748104" lon="8.544485136789422"><ele>164.0</ele><time>2026-04-19T15:27:01.999Z</time></trkpt><trkpt lat="44.3862382216377" lon="8.544555288596763"><ele>164.0</ele><time>2026-04-19T15:27:03.999Z</time></trkpt><trkpt lat="44.386218323319646" lon="8.544724268817786"><ele>164.0</ele><time>2026-04-19T15:27:05.999Z</time></trkpt><trkpt lat="44.386141840547516" lon="8.54479955083071"><ele>164.0</ele><time>2026-04-19T15:27:06.999Z</time></trkpt><trkpt lat="44.38604488176952" lon="8.54488306511814"><ele>164.0</ele><time>2026-04-19T15:27:07.999Z</time></trkpt><trkpt lat="44.385947853959706" lon="8.54499053608053"><ele>164.0</ele><time>2026-04-19T15:27:08.999Z</time></trkpt><trkpt lat="44.38587587418282" lon="8.545116402019683"><ele>164.0</ele><time>2026-04-19T15:27:09.999Z</time></trkpt><trkpt lat="44.38583166626908" lon="8.545256232416033"><ele>162.0</ele><time>2026-04-19T15:27:10.999Z</time></trkpt><trkpt lat="44.38582506776687" lon="8.5454080599345"><ele>160.0</ele><time>2026-04-19T15:27:11.999Z</time></trkpt><trkpt lat="44.38584043038561" lon="8.545540677748257"><ele>158.0</ele><time>2026-04-19T15:27:12.999Z</time></trkpt><trkpt lat="44.38587440581566" lon="8.545666360518862"><ele>156.0</ele><time>2026-04-19T15:27:13.999Z</time></trkpt><trkpt lat="44.3859368181858" lon="8.545779265680073"><ele>154.0</ele><time>2026-04-19T15:27:14.999Z</time></trkpt><trkpt lat="44.386026027661586" lon="8.545872669020858"><ele>154.0</ele><time>2026-04-19T15:27:15.999Z</time></trkpt><trkpt lat="44.38614759293071" lon="8.545938915369645"><ele>154.0</ele><time>2026-04-19T15:27:16.999Z</time></trkpt><trkpt lat="44.38628912934932" lon="8.54599041869093"><ele>154.0</ele><time>2026-04-19T15:27:17.999Z</time></trkpt><trkpt lat="44.38643947355483" lon="8.546073505179065"><ele>154.0</ele><time>2026-04-19T15:27:18.999Z</time></trkpt><trkpt lat="44.38660362231914" lon="8.546153082389552"><ele>150.66666666666669</ele><time>2026-04-19T15:27:19.999Z</time></trkpt><trkpt lat="44.386762477388295" lon="8.546233205603132"><ele>147.33333333333334</ele><time>2026-04-19T15:27:20.999Z</time></trkpt><trkpt lat="44.386919541760605" lon="8.546312726889576"><ele>144.0</ele><time>2026-04-19T15:27:21.999Z</time></trkpt><trkpt lat="44.38707421366892" lon="8.546388339743888"><ele>145.25</ele><time>2026-04-19T15:27:22.999Z</time></trkpt><trkpt lat="44.387215519304824" lon="8.546453285861421"><ele>146.5</ele><time>2026-04-19T15:27:23.999Z</time></trkpt><trkpt lat="44.38733965571335" lon="8.546507498911575"><ele>147.75</ele><time>2026-04-19T15:27:24.999Z</time></trkpt><trkpt lat="44.38744360839848" lon="8.546549310433685"><ele>149.0</ele><time>2026-04-19T15:27:25.999Z</time></trkpt><trkpt lat="44.387527145518675" lon="8.546595019240671"><ele>149.0</ele><time>2026-04-19T15:27:26.999Z</time></trkpt><trkpt lat="44.38758811340216" lon="8.546647962488015"><ele>149.0</ele><time>2026-04-19T15:27:27.999Z</time></trkpt><trkpt lat="44.38760209424775" lon="8.546748019882594"><ele>149.0</ele><time>2026-04-19T15:27:28.999Z</time></trkpt><trkpt lat="44.38757570722275" lon="8.546840577982554"><ele>149.0</ele><time>2026-04-19T15:27:29.999Z</time></trkpt><trkpt lat="44.38751688062328" lon="8.546912216238747"><ele>149.0</ele><time>2026-04-19T15:27:30.999Z</time></trkpt><trkpt lat="44.38743328972619" lon="8.546940494190515"><ele>149.0</ele><time>2026-04-19T15:27:31.999Z</time></trkpt><trkpt lat="44.38731593387817" lon="8.5469378282231"><ele>149.0</ele><time>2026-04-19T15:27:32.999Z</time></trkpt><trkpt lat="44.38718347554456" lon="8.546932110521698"><ele>149.0</ele><time>2026-04-19T15:27:33.999Z</time></trkpt><trkpt lat="44.387071113249" lon="8.54693199272516"><ele>149.0</ele><time>2026-04-19T15:27:34.999Z</time></trkpt><trkpt lat="44.38698735541381" lon="8.54695365065947"><ele>149.0</ele><time>2026-04-19T15:27:35.999Z</time></trkpt><trkpt lat="44.38692292082706" lon="8.547017191919089"><ele>149.0</ele><time>2026-04-19T15:27:36.999Z</time></trkpt><trkpt lat="44.386892666087725" lon="8.547106619081859"><ele>147.0</ele><time>2026-04-19T15:27:37.999Z</time></trkpt><trkpt lat="44.38690392519313" lon="8.547200421396942"><ele>145.0</ele><time>2026-04-19T15:27:38.999Z</time></trkpt><trkpt lat="44.386954368625524" lon="8.547275037325214"><ele>143.0</ele><time>2026-04-19T15:27:39.999Z</time></trkpt><trkpt lat="44.38703135701885" lon="8.547307703020929"><ele>141.0</ele><time>2026-04-19T15:27:40.999Z</time></trkpt><trkpt lat="44.38713244979842" lon="8.547287885233134"><ele>139.0</ele><time>2026-04-19T15:27:41.999Z</time></trkpt><trkpt lat="44.387224740076746" lon="8.547245955235486"><ele>137.0</ele><time>2026-04-19T15:27:42.999Z</time></trkpt><trkpt lat="44.387314113245296" lon="8.547249916076986"><ele>137.0</ele><time>2026-04-19T15:27:43.999Z</time></trkpt><trkpt lat="44.387404365332934" lon="8.54732596831837"><ele>137.0</ele><time>2026-04-19T15:27:44.999Z</time></trkpt><trkpt lat="44.38749998925744" lon="8.547362985023089"><ele>137.0</ele><time>2026-04-19T15:27:45.999Z</time></trkpt><trkpt lat="44.38755349239707" lon="8.547455102964785"><ele>137.0</ele><time>2026-04-19T15:27:46.999Z</time></trkpt><trkpt lat="44.38757304828233" lon="8.547588815702264"><ele>137.0</ele><time>2026-04-19T15:27:47.999Z</time></trkpt><trkpt lat="44.387602358804145" lon="8.547752826773468"><ele>133.0</ele><time>2026-04-19T15:27:48.999Z</time></trkpt><trkpt lat="44.387629473495515" lon="8.547946694874778"><ele>129.0</ele><time>2026-04-19T15:27:49.999Z</time></trkpt><trkpt lat="44.387665164325405" lon="8.54811963255899"><ele>125.0</ele><time>2026-04-19T15:27:50.999Z</time></trkpt><trkpt lat="44.38768899608561" lon="8.548291360464919"><ele>121.0</ele><time>2026-04-19T15:27:51.999Z</time></trkpt><trkpt lat="44.3876926373899" lon="8.548463776499442"><ele>121.0</ele><time>2026-04-19T15:27:52.999Z</time></trkpt><trkpt lat="44.38772828572019" lon="8.548627167284353"><ele>121.0</ele><time>2026-04-19T15:27:53.999Z</time></trkpt><trkpt lat="44.387799578043435" lon="8.548761129705525"><ele>121.0</ele><time>2026-04-19T15:27:54.999Z</time></trkpt><trkpt lat="44.38780937189228" lon="8.54890795600497"><ele>121.0</ele><time>2026-04-19T15:27:55.999Z</time></trkpt><trkpt lat="44.38781303566125" lon="8.549046264387655"><ele>121.0</ele><time>2026-04-19T15:27:56.999Z</time></trkpt><trkpt lat="44.387798540546555" lon="8.549173863722375"><ele>120.00000000000001</ele><time>2026-04-19T15:27:57.999Z</time></trkpt><trkpt lat="44.38775301416179" lon="8.549278232500923"><ele>119.0</ele><time>2026-04-19T15:27:58.999Z</time></trkpt><trkpt lat="44.387693763379836" lon="8.549370137975991"><ele>118.0</ele><time>2026-04-19T15:28:00Z</time></trkpt><trkpt lat="44.387621914681084" lon="8.549452716239921"><ele>117.0</ele><time>2026-04-19T15:28:01Z</time></trkpt><trkpt lat="44.387547714830916" lon="8.549522760853257"><ele>116.00000000000001</ele><time>2026-04-19T15:28:02Z</time></trkpt><trkpt lat="44.38745884675886" lon="8.549545431295606"><ele>115.0</ele><time>2026-04-19T15:28:03Z</time></trkpt><trkpt lat="44.38737303365302" lon="8.549556825235445"><ele>117.0</ele><time>2026-04-19T15:28:04Z</time></trkpt><trkpt lat="44.387286794582856" lon="8.549579627742869"><ele>119.0</ele><time>2026-04-19T15:28:05Z</time></trkpt><trkpt lat="44.3871776627476" lon="8.549610018364127"><ele>121.0</ele><time>2026-04-19T15:28:06Z</time></trkpt><trkpt lat="44.387055095139544" lon="8.54965195795579"><ele>123.0</ele><time>2026-04-19T15:28:07Z</time></trkpt><trkpt lat="44.38691920605943" lon="8.549691697614543"><ele>123.0</ele><time>2026-04-19T15:28:08Z</time></trkpt><trkpt lat="44.386773012374" lon="8.54971876376328"><ele>123.0</ele><time>2026-04-19T15:28:09Z</time></trkpt><trkpt lat="44.38663047662302" lon="8.549744484100511"><ele>123.0</ele><time>2026-04-19T15:28:10Z</time></trkpt><trkpt lat="44.38648414952892" lon="8.549767608632404"><ele>123.0</ele><time>2026-04-19T15:28:11Z</time></trkpt><trkpt lat="44.38633777498822" lon="8.549780722348862"><ele>120.75</ele><time>2026-04-19T15:28:12Z</time></trkpt><trkpt lat="44.38619722197419" lon="8.54977092453864"><ele>118.5</ele><time>2026-04-19T15:28:13Z</time></trkpt><trkpt lat="44.38606440847163" lon="8.54974290626683"><ele>116.25</ele><time>2026-04-19T15:28:14Z</time></trkpt><trkpt lat="44.38595210873387" lon="8.54969889650402"><ele>114.0</ele><time>2026-04-19T15:28:15Z</time></trkpt><trkpt lat="44.385850416199965" lon="8.549669838157772"><ele>114.0</ele><time>2026-04-19T15:28:16Z</time></trkpt><trkpt lat="44.385748938332576" lon="8.549677847625697"><ele>114.0</ele><time>2026-04-19T15:28:17Z</time></trkpt><trkpt lat="44.3856608326016" lon="8.549738720655757"><ele>114.0</ele><time>2026-04-19T15:28:18Z</time></trkpt><trkpt lat="44.385571775287126" lon="8.549849962332297"><ele>114.0</ele><time>2026-04-19T15:28:19Z</time></trkpt><trkpt lat="44.38547777733369" lon="8.549976546054914"><ele>109.33333333333334</ele><time>2026-04-19T15:28:20Z</time></trkpt><trkpt lat="44.38538707822193" lon="8.550127345299579"><ele>104.66666666666667</ele><time>2026-04-19T15:28:21Z</time></trkpt><trkpt lat="44.38530881539733" lon="8.550305741558658"><ele>100.0</ele><time>2026-04-19T15:28:22Z</time></trkpt><trkpt lat="44.38523846622662" lon="8.550517241691837"><ele>100.0</ele><time>2026-04-19T15:28:22.999Z</time></trkpt><trkpt lat="44.385163193147974" lon="8.55076542014954"><ele>100.0</ele><time>2026-04-19T15:28:23.999Z</time></trkpt><trkpt lat="44.38508029059897" lon="8.551028451920898"><ele>100.0</ele><time>2026-04-19T15:28:24.999Z</time></trkpt><trkpt lat="44.38497505999398" lon="8.551295355118624"><ele>100.33333333333334</ele><time>2026-04-19T15:28:25.999Z</time></trkpt><trkpt lat="44.38489309032281" lon="8.551588369527122"><ele>100.66666666666666</ele><time>2026-04-19T15:28:26.999Z</time></trkpt><trkpt lat="44.384783536465505" lon="8.551845788537783"><ele>101.0</ele><time>2026-04-19T15:28:27.999Z</time></trkpt><trkpt lat="44.38469387168532" lon="8.552110616913014"><ele>99.0</ele><time>2026-04-19T15:28:28.999Z</time></trkpt><trkpt lat="44.38460837778899" lon="8.552369831712788"><ele>97.0</ele><time>2026-04-19T15:28:29.999Z</time></trkpt><trkpt lat="44.38452602176998" lon="8.552626804724541"><ele>95.0</ele><time>2026-04-19T15:28:30.999Z</time></trkpt><trkpt lat="44.38445691970327" lon="8.552885469899712"><ele>94.0</ele><time>2026-04-19T15:28:31.999Z</time></trkpt><trkpt lat="44.38435864661767" lon="8.553120380870023"><ele>93.0</ele><time>2026-04-19T15:28:32.999Z</time></trkpt><trkpt lat="44.3842766815706" lon="8.553363363237873"><ele>92.0</ele><time>2026-04-19T15:28:33.999Z</time></trkpt><trkpt lat="44.384213298316084" lon="8.553610239576395"><ele>91.66666666666667</ele><time>2026-04-19T15:28:34.999Z</time></trkpt><trkpt lat="44.38413277137483" lon="8.55383994421456"><ele>91.33333333333333</ele><time>2026-04-19T15:28:35.999Z</time></trkpt><trkpt lat="44.38405229024113" lon="8.554059360379435"><ele>91.0</ele><time>2026-04-19T15:28:36.999Z</time></trkpt><trkpt lat="44.3839605971466" lon="8.554261464707281"><ele>91.0</ele><time>2026-04-19T15:28:37.999Z</time></trkpt><trkpt lat="44.38383710569854" lon="8.554443665071139"><ele>91.0</ele><time>2026-04-19T15:28:38.999Z</time></trkpt><trkpt lat="44.38369945643688" lon="8.554635474019959"><ele>91.0</ele><time>2026-04-19T15:28:39.999Z</time></trkpt><trkpt lat="44.3835669579657" lon="8.5548540773152"><ele>91.33333333333333</ele><time>2026-04-19T15:28:40.999Z</time></trkpt><trkpt lat="44.383412831237585" lon="8.555057321144918"><ele>91.66666666666667</ele><time>2026-04-19T15:28:41.999Z</time></trkpt><trkpt lat="44.38326940346437" lon="8.55526485281183"><ele>92.0</ele><time>2026-04-19T15:28:42.999Z</time></trkpt><trkpt lat="44.38313721911771" lon="8.555466386378477"><ele>92.0</ele><time>2026-04-19T15:28:43.999Z</time></trkpt><trkpt lat="44.38301880976103" lon="8.555663373425416"><ele>92.0</ele><time>2026-04-19T15:28:44.999Z</time></trkpt><trkpt lat="44.38291919640469" lon="8.555852464131156"><ele>92.0</ele><time>2026-04-19T15:28:45.999Z</time></trkpt><trkpt lat="44.38281719374517" lon="8.556028477779476"><ele>89.66666666666667</ele><time>2026-04-19T15:28:46.999Z</time></trkpt><trkpt lat="44.3827346121791" lon="8.556225021208519"><ele>87.33333333333333</ele><time>2026-04-19T15:28:47.999Z</time></trkpt><trkpt lat="44.382664392832595" lon="8.556438769572164"><ele>85.0</ele><time>2026-04-19T15:28:48.999Z</time></trkpt><trkpt lat="44.38260087481448" lon="8.556677362186525"><ele>85.0</ele><time>2026-04-19T15:28:49.999Z</time></trkpt><trkpt lat="44.382548368350236" lon="8.556940015588838"><ele>85.0</ele><time>2026-04-19T15:28:50.999Z</time></trkpt><trkpt lat="44.38249533020995" lon="8.557215411239122"><ele>85.0</ele><time>2026-04-19T15:28:51.999Z</time></trkpt><trkpt lat="44.382451676146" lon="8.557503553438043"><ele>84.33333333333333</ele><time>2026-04-19T15:28:52.999Z</time></trkpt><trkpt lat="44.38239140847946" lon="8.557774818517554"><ele>83.66666666666667</ele><time>2026-04-19T15:28:53.999Z</time></trkpt><trkpt lat="44.38233488046047" lon="8.558031988261574"><ele>83.0</ele><time>2026-04-19T15:28:54.999Z</time></trkpt><trkpt lat="44.38228165751703" lon="8.558280432988592"><ele>82.33333333333334</ele><time>2026-04-19T15:28:55.999Z</time></trkpt><trkpt lat="44.382215946009424" lon="8.558510504914777"><ele>81.66666666666667</ele><time>2026-04-19T15:28:56.999Z</time></trkpt><trkpt lat="44.38215838159907" lon="8.558723767841434"><ele>81.0</ele><time>2026-04-19T15:28:57.999Z</time></trkpt><trkpt lat="44.38207692352337" lon="8.558899484714685"><ele>81.0</ele><time>2026-04-19T15:28:58.999Z</time></trkpt><trkpt lat="44.38197749900843" lon="8.559065219756874"><ele>81.0</ele><time>2026-04-19T15:28:59.999Z</time></trkpt><trkpt lat="44.38186528534457" lon="8.559260071138914"><ele>81.0</ele><time>2026-04-19T15:29:00.999Z</time></trkpt><trkpt lat="44.381725140303985" lon="8.559442962504248"><ele>80.33333333333333</ele><time>2026-04-19T15:29:01.999Z</time></trkpt><trkpt lat="44.38157686598417" lon="8.55964322828729"><ele>79.66666666666666</ele><time>2026-04-19T15:29:02.999Z</time></trkpt><trkpt lat="44.38142901267181" lon="8.559837243045383"><ele>79.0</ele><time>2026-04-19T15:29:03.999Z</time></trkpt><trkpt lat="44.381301954630764" lon="8.560061336257162"><ele>79.0</ele><time>2026-04-19T15:29:04.999Z</time></trkpt><trkpt lat="44.38115773259287" lon="8.560210027961968"><ele>79.0</ele><time>2026-04-19T15:29:05.999Z</time></trkpt><trkpt lat="44.381036908037615" lon="8.560378066819595"><ele>79.0</ele><time>2026-04-19T15:29:06.999Z</time></trkpt><trkpt lat="44.38093142807807" lon="8.560526486330462"><ele>79.25</ele><time>2026-04-19T15:29:07.999Z</time></trkpt><trkpt lat="44.38085654263278" lon="8.560693331576603"><ele>79.5</ele><time>2026-04-19T15:29:08.999Z</time></trkpt><trkpt lat="44.38079813068291" lon="8.56087171617261"><ele>79.75</ele><time>2026-04-19T15:29:09.999Z</time></trkpt><trkpt lat="44.380732898739886" lon="8.561067929422135"><ele>80.0</ele><time>2026-04-19T15:29:10.999Z</time></trkpt><trkpt lat="44.38062199284638" lon="8.561219636797128"><ele>80.0</ele><time>2026-04-19T15:29:11.999Z</time></trkpt><trkpt lat="44.380514828665994" lon="8.5613418247116"><ele>80.0</ele><time>2026-04-19T15:29:12.999Z</time></trkpt><trkpt lat="44.38040328653044" lon="8.561442190624607"><ele>80.0</ele><time>2026-04-19T15:29:13.999Z</time></trkpt><trkpt lat="44.380280696961314" lon="8.56154115336948"><ele>80.0</ele><time>2026-04-19T15:29:14.999Z</time></trkpt><trkpt lat="44.380146279051694" lon="8.5616298325417"><ele>80.0</ele><time>2026-04-19T15:29:15.999Z</time></trkpt><trkpt lat="44.38001818522382" lon="8.561706802271459"><ele>80.0</ele><time>2026-04-19T15:29:16.999Z</time></trkpt><trkpt lat="44.37991765207546" lon="8.56180678372112"><ele>80.0</ele><time>2026-04-19T15:29:17.999Z</time></trkpt><trkpt lat="44.37979658442721" lon="8.56191492156715"><ele>80.0</ele><time>2026-04-19T15:29:18.999Z</time></trkpt><trkpt lat="44.37967171700841" lon="8.562075311902289"><ele>78.75</ele><time>2026-04-19T15:29:19.999Z</time></trkpt><trkpt lat="44.37956095130883" lon="8.562225679460502"><ele>77.5</ele><time>2026-04-19T15:29:20.999Z</time></trkpt><trkpt lat="44.379455688705534" lon="8.562361430513523"><ele>76.25</ele><time>2026-04-19T15:29:21.999Z</time></trkpt><trkpt lat="44.37936877639476" lon="8.562496986205836"><ele>75.0</ele><time>2026-04-19T15:29:22.999Z</time></trkpt><trkpt lat="44.379304690708395" lon="8.56265802431567"><ele>75.0</ele><time>2026-04-19T15:29:23.999Z</time></trkpt><trkpt lat="44.37927841043028" lon="8.562845523773282"><ele>75.0</ele><time>2026-04-19T15:29:24.999Z</time></trkpt><trkpt lat="44.379277643668395" lon="8.563069659540364"><ele>75.0</ele><time>2026-04-19T15:29:25.999Z</time></trkpt><trkpt lat="44.37919990789661" lon="8.563261580819873"><ele>74.33333333333333</ele><time>2026-04-19T15:29:26.999Z</time></trkpt><trkpt lat="44.379104423332585" lon="8.563475715001465"><ele>73.66666666666666</ele><time>2026-04-19T15:29:27.999Z</time></trkpt><trkpt lat="44.37900653346498" lon="8.563690669088919"><ele>73.0</ele><time>2026-04-19T15:29:28.999Z</time></trkpt><trkpt lat="44.378903886753584" lon="8.56385170192047"><ele>74.0</ele><time>2026-04-19T15:29:29.999Z</time></trkpt><trkpt lat="44.37879103549412" lon="8.563964650457136"><ele>75.0</ele><time>2026-04-19T15:29:30.998Z</time></trkpt><trkpt lat="44.37866233164676" lon="8.564033417668357"><ele>76.0</ele><time>2026-04-19T15:29:31.998Z</time></trkpt><trkpt lat="44.37850599131649" lon="8.564092704486644"><ele>77.0</ele><time>2026-04-19T15:29:32.998Z</time></trkpt><trkpt lat="44.378346142614355" lon="8.564132346119559"><ele>77.0</ele><time>2026-04-19T15:29:33.998Z</time></trkpt><trkpt lat="44.37820050135968" lon="8.564190680616495"><ele>77.0</ele><time>2026-04-19T15:29:34.998Z</time></trkpt><trkpt lat="44.3780625163624" lon="8.564278021292823"><ele>77.0</ele><time>2026-04-19T15:29:35.998Z</time></trkpt><trkpt lat="44.377942901373174" lon="8.564428100735917"><ele>76.66666666666667</ele><time>2026-04-19T15:29:36.998Z</time></trkpt><trkpt lat="44.37780093492506" lon="8.564602025544525"><ele>76.33333333333333</ele><time>2026-04-19T15:29:37.998Z</time></trkpt><trkpt lat="44.377627629944726" lon="8.564753533636518"><ele>76.0</ele><time>2026-04-19T15:29:38.998Z</time></trkpt><trkpt lat="44.377451181808475" lon="8.564901898618654"><ele>76.0</ele><time>2026-04-19T15:29:39.998Z</time></trkpt><trkpt lat="44.377281699905694" lon="8.56503594356259"><ele>76.0</ele><time>2026-04-19T15:29:40.998Z</time></trkpt><trkpt lat="44.377127726417015" lon="8.565157768927044"><ele>76.0</ele><time>2026-04-19T15:29:41.998Z</time></trkpt><trkpt lat="44.37698464027552" lon="8.565248974203069"><ele>71.33333333333333</ele><time>2026-04-19T15:29:42.998Z</time></trkpt><trkpt lat="44.376839792139435" lon="8.56528582501295"><ele>66.66666666666667</ele><time>2026-04-19T15:29:43.998Z</time></trkpt><trkpt lat="44.376685660003396" lon="8.56528180242719"><ele>62.0</ele><time>2026-04-19T15:29:44.998Z</time></trkpt><trkpt lat="44.376523021456705" lon="8.565277932661582"><ele>62.0</ele><time>2026-04-19T15:29:45.998Z</time></trkpt><trkpt lat="44.37636923753179" lon="8.565276494591084"><ele>62.0</ele><time>2026-04-19T15:29:46.998Z</time></trkpt><trkpt lat="44.37622015968217" lon="8.56527071679725"><ele>62.0</ele><time>2026-04-19T15:29:47.998Z</time></trkpt><trkpt lat="44.376086945960836" lon="8.565296132913899"><ele>62.0</ele><time>2026-04-19T15:29:48.998Z</time></trkpt><trkpt lat="44.37599154797053" lon="8.565390033742112"><ele>60.5</ele><time>2026-04-19T15:29:49.998Z</time></trkpt><trkpt lat="44.375909630604404" lon="8.56549440272268"><ele>59.0</ele><time>2026-04-19T15:29:50.998Z</time></trkpt><trkpt lat="44.37585581245581" lon="8.565623664673065"><ele>57.5</ele><time>2026-04-19T15:29:51.998Z</time></trkpt><trkpt lat="44.37581486302264" lon="8.565798829363702"><ele>56.0</ele><time>2026-04-19T15:29:52.998Z</time></trkpt><trkpt lat="44.37575338495499" lon="8.565991942910339"><ele>56.66666666666667</ele><time>2026-04-19T15:29:53.998Z</time></trkpt><trkpt lat="44.37569504225079" lon="8.566213662008817"><ele>57.33333333333333</ele><time>2026-04-19T15:29:54.998Z</time></trkpt><trkpt lat="44.37564480360948" lon="8.566474464421818"><ele>58.0</ele><time>2026-04-19T15:29:55.998Z</time></trkpt><trkpt lat="44.375609972718735" lon="8.566747243694127"><ele>58.0</ele><time>2026-04-19T15:29:56.998Z</time></trkpt><trkpt lat="44.37557334000578" lon="8.567014515062207"><ele>58.0</ele><time>2026-04-19T15:29:57.998Z</time></trkpt><trkpt lat="44.37553808842442" lon="8.567259858114863"><ele>58.0</ele><time>2026-04-19T15:29:58.998Z</time></trkpt><trkpt lat="44.37549971887183" lon="8.567468814582295"><ele>56.0</ele><time>2026-04-19T15:29:59.998Z</time></trkpt><trkpt lat="44.37545808794627" lon="8.567648940244753"><ele>54.0</ele><time>2026-04-19T15:30:00.998Z</time></trkpt><trkpt lat="44.37540560143061" lon="8.567790882831055"><ele>52.0</ele><time>2026-04-19T15:30:01.998Z</time></trkpt><trkpt lat="44.37532413509506" lon="8.567904870199303"><ele>50.0</ele><time>2026-04-19T15:30:02.998Z</time></trkpt><trkpt lat="44.37521326971028" lon="8.56794719841328"><ele>51.5</ele><time>2026-04-19T15:30:03.998Z</time></trkpt><trkpt lat="44.375100612105136" lon="8.56802952139853"><ele>53.0</ele><time>2026-04-19T15:30:04.998Z</time></trkpt><trkpt lat="44.374949198444334" lon="8.568014868032854"><ele>54.5</ele><time>2026-04-19T15:30:05.999Z</time></trkpt><trkpt lat="44.37478887024425" lon="8.567996528685693"><ele>56.0</ele><time>2026-04-19T15:30:06.999Z</time></trkpt><trkpt lat="44.37461300247497" lon="8.567955878457505"><ele>56.0</ele><time>2026-04-19T15:30:07.999Z</time></trkpt><trkpt lat="44.37442981652677" lon="8.567927083815169"><ele>56.0</ele><time>2026-04-19T15:30:08.999Z</time></trkpt><trkpt lat="44.37425794081566" lon="8.567912155766605"><ele>56.0</ele><time>2026-04-19T15:30:09.999Z</time></trkpt><trkpt lat="44.37410115023936" lon="8.56790948059556"><ele>56.0</ele><time>2026-04-19T15:30:10.999Z</time></trkpt><trkpt lat="44.37395878560822" lon="8.567915991966203"><ele>56.0</ele><time>2026-04-19T15:30:11.999Z</time></trkpt><trkpt lat="44.373824994227036" lon="8.567952256534044"><ele>56.0</ele><time>2026-04-19T15:30:12.999Z</time></trkpt><trkpt lat="44.373704155557085" lon="8.568027017343464"><ele>56.0</ele><time>2026-04-19T15:30:13.999Z</time></trkpt><trkpt lat="44.37360437139822" lon="8.568139605397862"><ele>55.5</ele><time>2026-04-19T15:30:15Z</time></trkpt><trkpt lat="44.37352024958747" lon="8.568292063287187"><ele>55.0</ele><time>2026-04-19T15:30:16Z</time></trkpt><trkpt lat="44.37345311340934" lon="8.568478282450554"><ele>54.5</ele><time>2026-04-19T15:30:17Z</time></trkpt><trkpt lat="44.37340610498712" lon="8.56869613938872"><ele>54.0</ele><time>2026-04-19T15:30:18Z</time></trkpt><trkpt lat="44.37336997662737" lon="8.568937860003336"><ele>52.66666666666667</ele><time>2026-04-19T15:30:19Z</time></trkpt><trkpt lat="44.37332977295029" lon="8.569194036750995"><ele>51.333333333333336</ele><time>2026-04-19T15:30:20Z</time></trkpt><trkpt lat="44.37328951604932" lon="8.56944706880279"><ele>50.0</ele><time>2026-04-19T15:30:21Z</time></trkpt><trkpt lat="44.37326974390288" lon="8.56970164274792"><ele>50.0</ele><time>2026-04-19T15:30:22Z</time></trkpt><trkpt lat="44.3732757742357" lon="8.569971632884942"><ele>50.0</ele><time>2026-04-19T15:30:23Z</time></trkpt><trkpt lat="44.37329317370585" lon="8.570257143543873"><ele>50.0</ele><time>2026-04-19T15:30:24Z</time></trkpt><trkpt lat="44.37330515681102" lon="8.57052318848071"><ele>50.333333333333336</ele><time>2026-04-19T15:30:25Z</time></trkpt><trkpt lat="44.37328611334392" lon="8.570779597663778"><ele>50.66666666666667</ele><time>2026-04-19T15:30:26Z</time></trkpt><trkpt lat="44.37327191485954" lon="8.571022448728314"><ele>51.0</ele><time>2026-04-19T15:30:27Z</time></trkpt><trkpt lat="44.3732447201886" lon="8.571257939882567"><ele>49.666666666666664</ele><time>2026-04-19T15:30:28Z</time></trkpt><trkpt lat="44.37320006911301" lon="8.57147900082799"><ele>48.33333333333333</ele><time>2026-04-19T15:30:29Z</time></trkpt><trkpt lat="44.37312811482499" lon="8.571671942260343"><ele>47.0</ele><time>2026-04-19T15:30:30Z</time></trkpt><trkpt lat="44.373054481981626" lon="8.571861050639287"><ele>45.0</ele><time>2026-04-19T15:30:31Z</time></trkpt><trkpt lat="44.37297936207316" lon="8.572042478557304"><ele>43.0</ele><time>2026-04-19T15:30:32Z</time></trkpt><trkpt lat="44.372905110336454" lon="8.57222044834317"><ele>41.0</ele><time>2026-04-19T15:30:33Z</time></trkpt><trkpt lat="44.37284749490608" lon="8.572402920705201"><ele>39.0</ele><time>2026-04-19T15:30:34Z</time></trkpt><trkpt lat="44.372772446307316" lon="8.572565782683087"><ele>39.0</ele><time>2026-04-19T15:30:35Z</time></trkpt><trkpt lat="44.372702099701" lon="8.572729451642013"><ele>39.0</ele><time>2026-04-19T15:30:36Z</time></trkpt><trkpt lat="44.37261213872313" lon="8.57286869483109"><ele>39.0</ele><time>2026-04-19T15:30:37Z</time></trkpt><trkpt lat="44.37253138169501" lon="8.57302228184818"><ele>39.0</ele><time>2026-04-19T15:30:38Z</time></trkpt><trkpt lat="44.372449436561816" lon="8.573184455253974"><ele>38.25</ele><time>2026-04-19T15:30:39Z</time></trkpt><trkpt lat="44.37236547776417" lon="8.573348985011355"><ele>37.5</ele><time>2026-04-19T15:30:40Z</time></trkpt><trkpt lat="44.37227688121103" lon="8.573514129937559"><ele>36.75</ele><time>2026-04-19T15:30:41Z</time></trkpt><trkpt lat="44.37217249315294" lon="8.573656879917149"><ele>36.0</ele><time>2026-04-19T15:30:42Z</time></trkpt><trkpt lat="44.372054274178765" lon="8.57378907510759"><ele>35.0</ele><time>2026-04-19T15:30:43Z</time></trkpt><trkpt lat="44.3719174008189" lon="8.573894330612426"><ele>34.0</ele><time>2026-04-19T15:30:44Z</time></trkpt><trkpt lat="44.3717675380671" lon="8.57397988809307"><ele>33.0</ele><time>2026-04-19T15:30:45Z</time></trkpt><trkpt lat="44.371611714261654" lon="8.57406271555646"><ele>33.0</ele><time>2026-04-19T15:30:46Z</time></trkpt><trkpt lat="44.37145811074867" lon="8.574161504177582"><ele>33.0</ele><time>2026-04-19T15:30:47Z</time></trkpt><trkpt lat="44.371298252770174" lon="8.574241022133295"><ele>33.0</ele><time>2026-04-19T15:30:47.999Z</time></trkpt><trkpt lat="44.37112975030449" lon="8.574283265566342"><ele>31.333333333333336</ele><time>2026-04-19T15:30:48.999Z</time></trkpt><trkpt lat="44.37095702849815" lon="8.574335500737288"><ele>29.666666666666668</ele><time>2026-04-19T15:30:49.999Z</time></trkpt><trkpt lat="44.370789186032475" lon="8.57441314829416"><ele>28.0</ele><time>2026-04-19T15:30:50.999Z</time></trkpt><trkpt lat="44.370626487129684" lon="8.574417919160217"><ele>27.75</ele><time>2026-04-19T15:30:51.999Z</time></trkpt><trkpt lat="44.37047528617027" lon="8.5743996248129"><ele>27.5</ele><time>2026-04-19T15:30:52.999Z</time></trkpt><trkpt lat="44.37032587731962" lon="8.57438088834972"><ele>27.25</ele><time>2026-04-19T15:30:53.999Z</time></trkpt><trkpt lat="44.37018324548943" lon="8.574365566365364"><ele>27.0</ele><time>2026-04-19T15:30:54.999Z</time></trkpt><trkpt lat="44.37005662939582" lon="8.574368798413433"><ele>27.0</ele><time>2026-04-19T15:30:55.999Z</time></trkpt><trkpt lat="44.3699432906635" lon="8.574358131958329"><ele>27.0</ele><time>2026-04-19T15:30:56.999Z</time></trkpt><trkpt lat="44.36984003139467" lon="8.574318864230682"><ele>27.0</ele><time>2026-04-19T15:30:57.999Z</time></trkpt><trkpt lat="44.369731212179815" lon="8.574277766597774"><ele>27.0</ele><time>2026-04-19T15:30:58.999Z</time></trkpt><trkpt lat="44.369608087889986" lon="8.574211534799566"><ele>26.5</ele><time>2026-04-19T15:30:59.999Z</time></trkpt><trkpt lat="44.369481920764024" lon="8.574139471630401"><ele>26.0</ele><time>2026-04-19T15:31:00.999Z</time></trkpt><trkpt lat="44.36937277972793" lon="8.574070342147477"><ele>25.5</ele><time>2026-04-19T15:31:01.999Z</time></trkpt><trkpt lat="44.36926539537371" lon="8.574021887162045"><ele>25.0</ele><time>2026-04-19T15:31:02.999Z</time></trkpt><trkpt lat="44.369178437684404" lon="8.573929673286985"><ele>25.0</ele><time>2026-04-19T15:31:03.999Z</time></trkpt><trkpt lat="44.36911165563864" lon="8.573781964974055"><ele>25.0</ele><time>2026-04-19T15:31:04.999Z</time></trkpt><trkpt lat="44.36902807278509" lon="8.573648121316936"><ele>25.0</ele><time>2026-04-19T15:31:05.999Z</time></trkpt><trkpt lat="44.368942527811086" lon="8.57352968954948"><ele>25.0</ele><time>2026-04-19T15:31:06.999Z</time></trkpt><trkpt lat="44.368879396188774" lon="8.57339736619951"><ele>25.2</ele><time>2026-04-19T15:31:07.999Z</time></trkpt><trkpt lat="44.36882189000997" lon="8.573264702280978"><ele>25.4</ele><time>2026-04-19T15:31:08.999Z</time></trkpt><trkpt lat="44.36876697471193" lon="8.57313523474056"><ele>25.6</ele><time>2026-04-19T15:31:09.999Z</time></trkpt><trkpt lat="44.3687038161529" lon="8.573020830354423"><ele>25.8</ele><time>2026-04-19T15:31:10.999Z</time></trkpt><trkpt lat="44.36863739967227" lon="8.572934789433857"><ele>26.0</ele><time>2026-04-19T15:31:11.999Z</time></trkpt><trkpt lat="44.368565395574215" lon="8.572883955223634"><ele>25.999999999999996</ele><time>2026-04-19T15:31:12.999Z</time></trkpt><trkpt lat="44.368488795894635" lon="8.572866990032292"><ele>26.0</ele><time>2026-04-19T15:31:13.999Z</time></trkpt><trkpt lat="44.36841676908842" lon="8.572852050496271"><ele>26.0</ele><time>2026-04-19T15:31:14.999Z</time></trkpt><trkpt lat="44.3683458895403" lon="8.572806659347028"><ele>26.0</ele><time>2026-04-19T15:31:15.999Z</time></trkpt><trkpt lat="44.36825478835516" lon="8.572766707160174"><ele>25.999999999999996</ele><time>2026-04-19T15:31:16.999Z</time></trkpt><trkpt lat="44.36817259873417" lon="8.572722348701575"><ele>26.0</ele><time>2026-04-19T15:31:17.999Z</time></trkpt><trkpt lat="44.36809436614682" lon="8.572678539537085"><ele>25.8</ele><time>2026-04-19T15:31:18.999Z</time></trkpt><trkpt lat="44.368018977692984" lon="8.572636238482765"><ele>25.6</ele><time>2026-04-19T15:31:19.999Z</time></trkpt><trkpt lat="44.36794111283921" lon="8.572591321031158"><ele>25.4</ele><time>2026-04-19T15:31:20.999Z</time></trkpt><trkpt lat="44.36786203921586" lon="8.572543732657316"><ele>25.2</ele><time>2026-04-19T15:31:21.999Z</time></trkpt><trkpt lat="44.367774606768705" lon="8.572490553959783"><ele>25.0</ele><time>2026-04-19T15:31:22.999Z</time></trkpt><trkpt lat="44.36767408829738" lon="8.572442373758948"><ele>25.0</ele><time>2026-04-19T15:31:23.999Z</time></trkpt><trkpt lat="44.367579896963775" lon="8.572435741618007"><ele>25.0</ele><time>2026-04-19T15:31:24.999Z</time></trkpt><trkpt lat="44.36746851555445" lon="8.572398794750724"><ele>25.0</ele><time>2026-04-19T15:31:25.999Z</time></trkpt><trkpt lat="44.36736297112833" lon="8.572378431154648"><ele>25.0</ele><time>2026-04-19T15:31:26.999Z</time></trkpt><trkpt lat="44.36724319184635" lon="8.572391359581141"><ele>25.0</ele><time>2026-04-19T15:31:27.999Z</time></trkpt><trkpt lat="44.36715444542877" lon="8.57244651668214"><ele>23.666666666666668</ele><time>2026-04-19T15:31:28.999Z</time></trkpt><trkpt lat="44.36705996326802" lon="8.572461284067298"><ele>22.333333333333336</ele><time>2026-04-19T15:31:29.999Z</time></trkpt><trkpt lat="44.366974873320196" lon="8.572495317172395"><ele>21.0</ele><time>2026-04-19T15:31:30.999Z</time></trkpt><trkpt lat="44.36689206917987" lon="8.57252900236697"><ele>19.666666666666668</ele><time>2026-04-19T15:31:31.999Z</time></trkpt><trkpt lat="44.366810959108456" lon="8.572561415273373"><ele>18.333333333333336</ele><time>2026-04-19T15:31:32.999Z</time></trkpt><trkpt lat="44.366739116142895" lon="8.572609054273972"><ele>17.0</ele><time>2026-04-19T15:31:33.999Z</time></trkpt><trkpt lat="44.36666619746768" lon="8.572633320864623"><ele>17.0</ele><time>2026-04-19T15:31:34.999Z</time></trkpt><trkpt lat="44.36660704825204" lon="8.572666743209712"><ele>17.0</ele><time>2026-04-19T15:31:35.999Z</time></trkpt><trkpt lat="44.366518598233014" lon="8.572779889113514"><ele>17.0</ele><time>2026-04-19T15:31:37.999Z</time></trkpt><trkpt lat="44.366528220459585" lon="8.572938492122397"><ele>17.0</ele><time>2026-04-19T15:31:38.999Z</time></trkpt><trkpt lat="44.366506737592964" lon="8.573066464037545"><ele>17.0</ele><time>2026-04-19T15:31:39.999Z</time></trkpt><trkpt lat="44.36648375495976" lon="8.573201666941682"><ele>17.0</ele><time>2026-04-19T15:31:40.999Z</time></trkpt><trkpt lat="44.366456345325794" lon="8.573350317259731"><ele>17.0</ele><time>2026-04-19T15:31:41.999Z</time></trkpt><trkpt lat="44.36642792821929" lon="8.573508376995036"><ele>17.0</ele><time>2026-04-19T15:31:42.999Z</time></trkpt><trkpt lat="44.36639351547452" lon="8.573660548208457"><ele>17.0</ele><time>2026-04-19T15:31:43.999Z</time></trkpt><trkpt lat="44.36635676883959" lon="8.573805650157052"><ele>15.6</ele><time>2026-04-19T15:31:44.999Z</time></trkpt><trkpt lat="44.36632058987764" lon="8.573946961360443"><ele>14.2</ele><time>2026-04-19T15:31:45.999Z</time></trkpt><trkpt lat="44.36628117256888" lon="8.574082801378694"><ele>12.8</ele><time>2026-04-19T15:31:46.999Z</time></trkpt><trkpt lat="44.36623301252762" lon="8.574208364171822"><ele>11.4</ele><time>2026-04-19T15:31:47.999Z</time></trkpt><trkpt lat="44.36616816017216" lon="8.57432298776422"><ele>10.0</ele><time>2026-04-19T15:31:48.999Z</time></trkpt><trkpt lat="44.36609006641859" lon="8.574422575273118"><ele>10.0</ele><time>2026-04-19T15:31:49.999Z</time></trkpt><trkpt lat="44.36600214471777" lon="8.574494295360166"><ele>10.0</ele><time>2026-04-19T15:31:50.999Z</time></trkpt><trkpt lat="44.36590819239928" lon="8.574534731868917"><ele>10.0</ele><time>2026-04-19T15:31:51.999Z</time></trkpt><trkpt lat="44.36581028337774" lon="8.574542779826846"><ele>10.0</ele><time>2026-04-19T15:31:52.999Z</time></trkpt><trkpt lat="44.36570757704027" lon="8.574550456691647"><ele>10.0</ele><time>2026-04-19T15:31:53.999Z</time></trkpt><trkpt lat="44.365599100338656" lon="8.574564774772787"><ele>10.8</ele><time>2026-04-19T15:31:54.999Z</time></trkpt><trkpt lat="44.36548579395308" lon="8.574581347683347"><ele>11.6</ele><time>2026-04-19T15:31:55.999Z</time></trkpt><trkpt lat="44.365374001774114" lon="8.574594231567676"><ele>12.399999999999999</ele><time>2026-04-19T15:31:56.999Z</time></trkpt><trkpt lat="44.36526643185577" lon="8.574605073543411"><ele>13.2</ele><time>2026-04-19T15:31:57.999Z</time></trkpt><trkpt lat="44.365160441972826" lon="8.574612921151905"><ele>14.0</ele><time>2026-04-19T15:31:58.999Z</time></trkpt><trkpt lat="44.36505524711569" lon="8.57461049051356"><ele>14.0</ele><time>2026-04-19T15:31:59.999Z</time></trkpt><trkpt lat="44.36495304107365" lon="8.574603025634252"><ele>13.999999999999998</ele><time>2026-04-19T15:32:00.999Z</time></trkpt><trkpt lat="44.36484660648251" lon="8.574595555640565"><ele>13.999999999999998</ele><time>2026-04-19T15:32:01.999Z</time></trkpt><trkpt lat="44.36473915856031" lon="8.574584558972807"><ele>14.0</ele><time>2026-04-19T15:32:02.999Z</time></trkpt><trkpt lat="44.364627984835785" lon="8.574569501925895"><ele>14.0</ele><time>2026-04-19T15:32:03.999Z</time></trkpt><trkpt lat="44.36451125367848" lon="8.574557911159346"><ele>14.6</ele><time>2026-04-19T15:32:04.999Z</time></trkpt><trkpt lat="44.364397968719004" lon="8.574547479549246"><ele>15.2</ele><time>2026-04-19T15:32:05.999Z</time></trkpt><trkpt lat="44.364286509573375" lon="8.57453525186981"><ele>15.799999999999999</ele><time>2026-04-19T15:32:06.999Z</time></trkpt><trkpt lat="44.3641833319647" lon="8.57452968983303"><ele>16.4</ele><time>2026-04-19T15:32:07.999Z</time></trkpt><trkpt lat="44.364079082748994" lon="8.57453875730839"><ele>17.0</ele><time>2026-04-19T15:32:08.999Z</time></trkpt><trkpt lat="44.36397606225833" lon="8.574550369856757"><ele>17.0</ele><time>2026-04-19T15:32:09.999Z</time></trkpt><trkpt lat="44.363876181167974" lon="8.574559021616572"><ele>17.0</ele><time>2026-04-19T15:32:10.999Z</time></trkpt><trkpt lat="44.363770785808285" lon="8.574566095619614"><ele>17.0</ele><time>2026-04-19T15:32:12Z</time></trkpt><trkpt lat="44.363662968239154" lon="8.574573777697646"><ele>17.0</ele><time>2026-04-19T15:32:13Z</time></trkpt><trkpt lat="44.36355268447165" lon="8.574578356270933"><ele>17.0</ele><time>2026-04-19T15:32:14Z</time></trkpt><trkpt lat="44.363485855915854" lon="8.574573550288456"><ele>16.6</ele><time>2026-04-19T15:32:15Z</time></trkpt><trkpt lat="44.36339883890592" lon="8.574572127919174"><ele>16.2</ele><time>2026-04-19T15:32:16Z</time></trkpt><trkpt lat="44.36327313181441" lon="8.57458116815675"><ele>15.8</ele><time>2026-04-19T15:32:17Z</time></trkpt><trkpt lat="44.36316178545159" lon="8.574592895512888"><ele>15.4</ele><time>2026-04-19T15:32:18Z</time></trkpt><trkpt lat="44.363049015926364" lon="8.574605233803506"><ele>15.0</ele><time>2026-04-19T15:32:19Z</time></trkpt><trkpt lat="44.36293566479098" lon="8.57461990866389"><ele>13.6</ele><time>2026-04-19T15:32:20Z</time></trkpt><trkpt lat="44.36282892999239" lon="8.574629858667185"><ele>12.2</ele><time>2026-04-19T15:32:21Z</time></trkpt><trkpt lat="44.3627239288571" lon="8.574643048806875"><ele>10.8</ele><time>2026-04-19T15:32:22Z</time></trkpt><trkpt lat="44.36262451980989" lon="8.574653455340538"><ele>9.4</ele><time>2026-04-19T15:32:23Z</time></trkpt><trkpt lat="44.36252585980444" lon="8.574663370045954"><ele>8.0</ele><time>2026-04-19T15:32:24Z</time></trkpt><trkpt lat="44.36243218293466" lon="8.574671847978632"><ele>7.999999999999999</ele><time>2026-04-19T15:32:25Z</time></trkpt><trkpt lat="44.362341776560896" lon="8.574681029608579"><ele>8.0</ele><time>2026-04-19T15:32:26Z</time></trkpt><trkpt lat="44.36225427031705" lon="8.574695855937206"><ele>8.0</ele><time>2026-04-19T15:32:27Z</time></trkpt><trkpt lat="44.36217616815609" lon="8.574709698145792"><ele>8.0</ele><time>2026-04-19T15:32:28Z</time></trkpt><trkpt lat="44.36210659422315" lon="8.574726245424165"><ele>7.999999999999999</ele><time>2026-04-19T15:32:29Z</time></trkpt><trkpt lat="44.36203523402265" lon="8.57474090325085"><ele>8.0</ele><time>2026-04-19T15:32:30Z</time></trkpt><trkpt lat="44.3619682675539" lon="8.574749382325948"><ele>8.600000000000001</ele><time>2026-04-19T15:32:31Z</time></trkpt><trkpt lat="44.36190260869479" lon="8.57475894253504"><ele>9.200000000000001</ele><time>2026-04-19T15:32:32Z</time></trkpt><trkpt lat="44.36183934151174" lon="8.57476936529863"><ele>9.8</ele><time>2026-04-19T15:32:33Z</time></trkpt><trkpt lat="44.3617221921637" lon="8.574798836511219"><ele>10.4</ele><time>2026-04-19T15:32:35Z</time></trkpt><trkpt lat="44.3615960630637" lon="8.574847490607304"><ele>11.0</ele><time>2026-04-19T15:32:37Z</time></trkpt><trkpt lat="44.361529608585876" lon="8.57488513248603"><ele>11.0</ele><time>2026-04-19T15:32:38Z</time></trkpt><trkpt lat="44.36146826205122" lon="8.574924022857472"><ele>11.0</ele><time>2026-04-19T15:32:39Z</time></trkpt><trkpt lat="44.36140434897479" lon="8.574965280690959"><ele>11.0</ele><time>2026-04-19T15:32:40Z</time></trkpt><trkpt lat="44.361339652285984" lon="8.57501217788151"><ele>11.0</ele><time>2026-04-19T15:32:41Z</time></trkpt><trkpt lat="44.36127478009357" lon="8.575062254989158"><ele>11.0</ele><time>2026-04-19T15:32:42Z</time></trkpt><trkpt lat="44.36120730772154" lon="8.575113029259814"><ele>11.0</ele><time>2026-04-19T15:32:43Z</time></trkpt><trkpt lat="44.36113462767636" lon="8.575162269441426"><ele>11.0</ele><time>2026-04-19T15:32:44Z</time></trkpt><trkpt lat="44.36106074406477" lon="8.57521156263703"><ele>11.0</ele><time>2026-04-19T15:32:45Z</time></trkpt><trkpt lat="44.36098652291111" lon="8.575259296018979"><ele>11.0</ele><time>2026-04-19T15:32:46Z</time></trkpt><trkpt lat="44.360914891719084" lon="8.575308254303692"><ele>11.0</ele><time>2026-04-19T15:32:47Z</time></trkpt><trkpt lat="44.360853107925834" lon="8.575356818828517"><ele>11.0</ele><time>2026-04-19T15:32:48Z</time></trkpt><trkpt lat="44.360798959127834" lon="8.575402026108087"><ele>11.0</ele><time>2026-04-19T15:32:49Z</time></trkpt><trkpt lat="44.360715720745766" lon="8.575501989555297"><ele>11.0</ele><time>2026-04-19T15:32:51Z</time></trkpt><trkpt lat="44.36065173832642" lon="8.575579511708805"><ele>11.0</ele><time>2026-04-19T15:32:53Z</time></trkpt><trkpt lat="44.36059955840174" lon="8.575653018140502"><ele>11.0</ele><time>2026-04-19T15:32:55Z</time></trkpt><trkpt lat="44.36053925768529" lon="8.575753122959302"><ele>11.0</ele><time>2026-04-19T15:32:57Z</time></trkpt><trkpt lat="44.36043977613839" lon="8.575860974427995"><ele>11.0</ele><time>2026-04-19T15:32:59Z</time></trkpt><trkpt lat="44.360425692194404" lon="8.575981042418267"><ele>11.0</ele><time>2026-04-19T15:33:00Z</time></trkpt><trkpt lat="44.360394135745004" lon="8.576078291488715"><ele>11.0</ele><time>2026-04-19T15:33:01Z</time></trkpt><trkpt lat="44.360345285156356" lon="8.576176928969987"><ele>11.0</ele><time>2026-04-19T15:33:02Z</time></trkpt><trkpt lat="44.36027954749755" lon="8.57627107234142"><ele>11.0</ele><time>2026-04-19T15:33:03Z</time></trkpt><trkpt lat="44.36020235025745" lon="8.576363765020197"><ele>11.0</ele><time>2026-04-19T15:33:04Z</time></trkpt><trkpt lat="44.36011998451315" lon="8.57646592220359"><ele>11.0</ele><time>2026-04-19T15:33:04.999Z</time></trkpt><trkpt lat="44.360035202964255" lon="8.576576540178468"><ele>10.600000000000001</ele><time>2026-04-19T15:33:05.999Z</time></trkpt><trkpt lat="44.3599457429571" lon="8.57668885653862"><ele>10.200000000000001</ele><time>2026-04-19T15:33:06.999Z</time></trkpt><trkpt lat="44.35985973469565" lon="8.576793178197605"><ele>9.8</ele><time>2026-04-19T15:33:07.999Z</time></trkpt><trkpt lat="44.359776823237546" lon="8.57689341656512"><ele>9.4</ele><time>2026-04-19T15:33:08.999Z</time></trkpt><trkpt lat="44.359701202459355" lon="8.576985105525942"><ele>9.0</ele><time>2026-04-19T15:33:09.999Z</time></trkpt><trkpt lat="44.35963954045613" lon="8.577065499860254"><ele>8.0</ele><time>2026-04-19T15:33:10.999Z</time></trkpt><trkpt lat="44.35955576621739" lon="8.577143490482568"><ele>7.0</ele><time>2026-04-19T15:33:12.999Z</time></trkpt><trkpt lat="44.35947602534447" lon="8.577205998706429"><ele>6.0</ele><time>2026-04-19T15:33:16.999Z</time></trkpt><trkpt lat="44.35940492898362" lon="8.577242122881554"><ele>5.0</ele><time>2026-04-19T15:33:18.999Z</time></trkpt><trkpt lat="44.359330537497314" lon="8.577230665476874"><ele>4.0</ele><time>2026-04-19T15:33:20.999Z</time></trkpt><trkpt lat="44.35924949896663" lon="8.577094497279157"><ele>4.666666666666666</ele><time>2026-04-19T15:33:23.999Z</time></trkpt><trkpt lat="44.359226214302865" lon="8.577006230857663"><ele>5.333333333333333</ele><time>2026-04-19T15:33:24.999Z</time></trkpt><trkpt lat="44.35920295136425" lon="8.576895846619758"><ele>6.0</ele><time>2026-04-19T15:33:25.999Z</time></trkpt><trkpt lat="44.35917759949377" lon="8.576773429162788"><ele>6.666666666666666</ele><time>2026-04-19T15:33:26.999Z</time></trkpt><trkpt lat="44.359151965234716" lon="8.576644277446134"><ele>7.333333333333333</ele><time>2026-04-19T15:33:27.999Z</time></trkpt><trkpt lat="44.359129957071644" lon="8.5765206711973"><ele>8.0</ele><time>2026-04-19T15:33:28.999Z</time></trkpt><trkpt lat="44.359109525752146" lon="8.576401464676122"><ele>7.999999999999999</ele><time>2026-04-19T15:33:29.999Z</time></trkpt><trkpt lat="44.35909005619106" lon="8.57628506877914"><ele>8.0</ele><time>2026-04-19T15:33:30.999Z</time></trkpt><trkpt lat="44.35906966022942" lon="8.57617299533162"><ele>8.0</ele><time>2026-04-19T15:33:31.999Z</time></trkpt><trkpt lat="44.35905012304846" lon="8.5760657365159"><ele>8.0</ele><time>2026-04-19T15:33:32.999Z</time></trkpt><trkpt lat="44.35903106646269" lon="8.57596356535209"><ele>7.999999999999999</ele><time>2026-04-19T15:33:33.999Z</time></trkpt><trkpt lat="44.35901309116373" lon="8.575865950497896"><ele>8.0</ele><time>2026-04-19T15:33:34.999Z</time></trkpt><trkpt lat="44.35899466665906" lon="8.575772001510664"><ele>8.5</ele><time>2026-04-19T15:33:35.999Z</time></trkpt><trkpt lat="44.358976607296725" lon="8.575681448883664"><ele>9.0</ele><time>2026-04-19T15:33:36.999Z</time></trkpt><trkpt lat="44.35895870156395" lon="8.575594190550845"><ele>9.5</ele><time>2026-04-19T15:33:37.999Z</time></trkpt><trkpt lat="44.35892572492428" lon="8.575429789535548"><ele>10.0</ele><time>2026-04-19T15:33:39.999Z</time></trkpt><trkpt lat="44.35889292900489" lon="8.575283529387846"><ele>10.5</ele><time>2026-04-19T15:33:41.999Z</time></trkpt><trkpt lat="44.3588757235068" lon="8.575191466404855"><ele>11.0</ele><time>2026-04-19T15:33:42.999Z</time></trkpt><trkpt lat="44.35886144777999" lon="8.575092000388379"><ele>9.833333333333332</ele><time>2026-04-19T15:33:43.999Z</time></trkpt><trkpt lat="44.35884648934641" lon="8.574978865471701"><ele>8.666666666666666</ele><time>2026-04-19T15:33:44.999Z</time></trkpt><trkpt lat="44.3588277762779" lon="8.574865973316275"><ele>7.5</ele><time>2026-04-19T15:33:45.999Z</time></trkpt><trkpt lat="44.35880636771035" lon="8.574752599795852"><ele>6.333333333333333</ele><time>2026-04-19T15:33:46.999Z</time></trkpt><trkpt lat="44.358784043454854" lon="8.574640225356287"><ele>5.166666666666666</ele><time>2026-04-19T15:33:47.999Z</time></trkpt><trkpt lat="44.35875948622411" lon="8.57451950918418"><ele>4.0</ele><time>2026-04-19T15:33:48.999Z</time></trkpt><trkpt lat="44.35873496762836" lon="8.57440534221557"><ele>3.9999999999999996</ele><time>2026-04-19T15:33:49.999Z</time></trkpt><trkpt lat="44.35871533592884" lon="8.574307730315727"><ele>4.0</ele><time>2026-04-19T15:33:50.999Z</time></trkpt><trkpt lat="44.35869883090695" lon="8.574221357016032"><ele>4.0</ele><time>2026-04-19T15:33:51.999Z</time></trkpt><trkpt lat="44.358670973170085" lon="8.574064353173823"><ele>4.0</ele><time>2026-04-19T15:33:53.999Z</time></trkpt><trkpt lat="44.35865182183311" lon="8.573974160241956"><ele>3.9999999999999996</ele><time>2026-04-19T15:33:54.999Z</time></trkpt><trkpt lat="44.35863113116006" lon="8.573873060101938"><ele>4.0</ele><time>2026-04-19T15:33:55.999Z</time></trkpt><trkpt lat="44.35860703107046" lon="8.57375780650463"><ele>4.800000000000001</ele><time>2026-04-19T15:33:56.999Z</time></trkpt><trkpt lat="44.35857974145353" lon="8.573633152697994"><ele>5.6000000000000005</ele><time>2026-04-19T15:33:57.999Z</time></trkpt><trkpt lat="44.35854596717613" lon="8.573505814130089"><ele>6.4</ele><time>2026-04-19T15:33:58.999Z</time></trkpt><trkpt lat="44.35851221301232" lon="8.57338339410143"><ele>7.2</ele><time>2026-04-19T15:33:59.999Z</time></trkpt><trkpt lat="44.35847874992257" lon="8.573259905193805"><ele>8.0</ele><time>2026-04-19T15:34:00.999Z</time></trkpt><trkpt lat="44.35844569201834" lon="8.5731320435025"><ele>8.0</ele><time>2026-04-19T15:34:01.999Z</time></trkpt><trkpt lat="44.35840694293809" lon="8.573001867341027"><ele>8.0</ele><time>2026-04-19T15:34:02.999Z</time></trkpt><trkpt lat="44.35836249717516" lon="8.572871375296465"><ele>8.0</ele><time>2026-04-19T15:34:03.999Z</time></trkpt><trkpt lat="44.358315789668" lon="8.572733037989316"><ele>8.0</ele><time>2026-04-19T15:34:04.999Z</time></trkpt><trkpt lat="44.35826481577189" lon="8.572589312641929"><ele>8.0</ele><time>2026-04-19T15:34:05.999Z</time></trkpt><trkpt lat="44.358208637651515" lon="8.572450506884989"><ele>7.75</ele><time>2026-04-19T15:34:06.999Z</time></trkpt><trkpt lat="44.35815124859384" lon="8.572310119770176"><ele>7.5</ele><time>2026-04-19T15:34:07.999Z</time></trkpt><trkpt lat="44.35809402524776" lon="8.57217061416154"><ele>7.25</ele><time>2026-04-19T15:34:08.999Z</time></trkpt><trkpt lat="44.3580357606327" lon="8.572030364513234"><ele>7.0</ele><time>2026-04-19T15:34:09.999Z</time></trkpt><trkpt lat="44.357976880831885" lon="8.571891126229774"><ele>7.0</ele><time>2026-04-19T15:34:10.999Z</time></trkpt><trkpt lat="44.3579178017583" lon="8.571751859731455"><ele>7.0</ele><time>2026-04-19T15:34:11.999Z</time></trkpt><trkpt lat="44.357861154523526" lon="8.571611309249562"><ele>7.0</ele><time>2026-04-19T15:34:12.999Z</time></trkpt><trkpt lat="44.35780444530083" lon="8.571469672368156"><ele>7.0</ele><time>2026-04-19T15:34:13.999Z</time></trkpt><trkpt lat="44.357745713577565" lon="8.571336030707892"><ele>7.0</ele><time>2026-04-19T15:34:14.999Z</time></trkpt><trkpt lat="44.35768335652049" lon="8.571208251864919"><ele>6.999999999999999</ele><time>2026-04-19T15:34:15.999Z</time></trkpt><trkpt lat="44.357623438578244" lon="8.571078413763727"><ele>6.999999999999999</ele><time>2026-04-19T15:34:16.999Z</time></trkpt><trkpt lat="44.357566851949834" lon="8.570946614609518"><ele>7.0</ele><time>2026-04-19T15:34:18Z</time></trkpt><trkpt lat="44.35750874431652" lon="8.570815428979438"><ele>7.0</ele><time>2026-04-19T15:34:19Z</time></trkpt><trkpt lat="44.35745084534271" lon="8.570685599593432"><ele>7.199999999999999</ele><time>2026-04-19T15:34:20Z</time></trkpt><trkpt lat="44.35739329284206" lon="8.570557435764961"><ele>7.3999999999999995</ele><time>2026-04-19T15:34:21Z</time></trkpt><trkpt lat="44.35733493325351" lon="8.57042971389112"><ele>7.6000000000000005</ele><time>2026-04-19T15:34:22Z</time></trkpt><trkpt lat="44.35727847478609" lon="8.57030110735275"><ele>7.800000000000001</ele><time>2026-04-19T15:34:23Z</time></trkpt><trkpt lat="44.35722256479147" lon="8.570174492312688"><ele>8.0</ele><time>2026-04-19T15:34:24Z</time></trkpt><trkpt lat="44.3571688517124" lon="8.57005003132848"><ele>7.6000000000000005</ele><time>2026-04-19T15:34:25Z</time></trkpt><trkpt lat="44.35711826140246" lon="8.569932600580966"><ele>7.200000000000001</ele><time>2026-04-19T15:34:26Z</time></trkpt><trkpt lat="44.357068809504476" lon="8.569818188370691"><ele>6.8</ele><time>2026-04-19T15:34:27Z</time></trkpt><trkpt lat="44.35702082279197" lon="8.569708104014152"><ele>6.4</ele><time>2026-04-19T15:34:28Z</time></trkpt><trkpt lat="44.3569762475288" lon="8.569604087375065"><ele>6.0</ele><time>2026-04-19T15:34:29Z</time></trkpt><trkpt lat="44.35693431850339" lon="8.569502300018872"><ele>6.0</ele><time>2026-04-19T15:34:30Z</time></trkpt><trkpt lat="44.35689369111528" lon="8.569403762098185"><ele>6.0</ele><time>2026-04-19T15:34:31Z</time></trkpt><trkpt lat="44.35684807977312" lon="8.56929833166924"><ele>6.0</ele><time>2026-04-19T15:34:32Z</time></trkpt><trkpt lat="44.35679714360746" lon="8.569193066378276"><ele>6.0</ele><time>2026-04-19T15:34:33Z</time></trkpt><trkpt lat="44.35674040942909" lon="8.56908547095205"><ele>6.0</ele><time>2026-04-19T15:34:34Z</time></trkpt><trkpt lat="44.35668064077276" lon="8.568974722637732"><ele>6.0</ele><time>2026-04-19T15:34:35Z</time></trkpt><trkpt lat="44.3566236661072" lon="8.56885722415782"><ele>6.0</ele><time>2026-04-19T15:34:36Z</time></trkpt><trkpt lat="44.356566255184624" lon="8.56873724798649"><ele>6.0</ele><time>2026-04-19T15:34:37Z</time></trkpt><trkpt lat="44.35651361319859" lon="8.568618043350593"><ele>6.0</ele><time>2026-04-19T15:34:38Z</time></trkpt><trkpt lat="44.3564616325287" lon="8.56850616295776"><ele>6.0</ele><time>2026-04-19T15:34:39Z</time></trkpt><trkpt lat="44.35640907337058" lon="8.568394963733196"><ele>5.8</ele><time>2026-04-19T15:34:40Z</time></trkpt><trkpt lat="44.35635476618629" lon="8.568276815762989"><ele>5.6</ele><time>2026-04-19T15:34:41Z</time></trkpt><trkpt lat="44.35629785691561" lon="8.568155218767554"><ele>5.4</ele><time>2026-04-19T15:34:42Z</time></trkpt><trkpt lat="44.35623574938483" lon="8.568031600265682"><ele>5.2</ele><time>2026-04-19T15:34:43Z</time></trkpt><trkpt lat="44.356170115380685" lon="8.567909555275847"><ele>5.0</ele><time>2026-04-19T15:34:44Z</time></trkpt><trkpt lat="44.35610066478209" lon="8.567786624893087"><ele>5.5</ele><time>2026-04-19T15:34:45Z</time></trkpt><trkpt lat="44.356026350111584" lon="8.567666465032776"><ele>6.0</ele><time>2026-04-19T15:34:46Z</time></trkpt><trkpt lat="44.35594799620006" lon="8.567548857230767"><ele>6.5</ele><time>2026-04-19T15:34:47Z</time></trkpt><trkpt lat="44.35587179276251" lon="8.56743325664942"><ele>7.0</ele><time>2026-04-19T15:34:48Z</time></trkpt><trkpt lat="44.35579747390562" lon="8.567317978924061"><ele>7.0</ele><time>2026-04-19T15:34:49Z</time></trkpt><trkpt lat="44.355721710982145" lon="8.567205045256399"><ele>6.999999999999999</ele><time>2026-04-19T15:34:50Z</time></trkpt><trkpt lat="44.35564174373211" lon="8.567098514783027"><ele>6.999999999999999</ele><time>2026-04-19T15:34:51Z</time></trkpt><trkpt lat="44.355560431074345" lon="8.566992527111923"><ele>7.0</ele><time>2026-04-19T15:34:52Z</time></trkpt><trkpt lat="44.35547590094299" lon="8.566890668003715"><ele>7.0</ele><time>2026-04-19T15:34:53Z</time></trkpt><trkpt lat="44.355391874630946" lon="8.566784261899794"><ele>6.5</ele><time>2026-04-19T15:34:54Z</time></trkpt><trkpt lat="44.35530869259058" lon="8.566677570778175"><ele>6.0</ele><time>2026-04-19T15:34:55Z</time></trkpt><trkpt lat="44.355224270306365" lon="8.566573234782318"><ele>5.5</ele><time>2026-04-19T15:34:56Z</time></trkpt><trkpt lat="44.355139264403206" lon="8.566467320196667"><ele>5.0</ele><time>2026-04-19T15:34:57Z</time></trkpt><trkpt lat="44.35505406662902" lon="8.566353914816807"><ele>5.0</ele><time>2026-04-19T15:34:58Z</time></trkpt><trkpt lat="44.354969122086914" lon="8.566237388287648"><ele>5.0</ele><time>2026-04-19T15:34:59Z</time></trkpt><trkpt lat="44.35487799112462" lon="8.566125788094448"><ele>5.0</ele><time>2026-04-19T15:35:00Z</time></trkpt><trkpt lat="44.354786129718974" lon="8.566011258582117"><ele>5.0</ele><time>2026-04-19T15:35:01Z</time></trkpt><trkpt lat="44.354695088579106" lon="8.565899205780267"><ele>5.0</ele><time>2026-04-19T15:35:02Z</time></trkpt><trkpt lat="44.35460909966393" lon="8.565794131864903"><ele>5.0</ele><time>2026-04-19T15:35:03Z</time></trkpt><trkpt lat="44.354527571795835" lon="8.565697426154976"><ele>5.0</ele><time>2026-04-19T15:35:04Z</time></trkpt><trkpt lat="44.354449326870146" lon="8.565607833649265"><ele>5.0</ele><time>2026-04-19T15:35:05Z</time></trkpt><trkpt lat="44.354374024157266" lon="8.565527161500654"><ele>5.0</ele><time>2026-04-19T15:35:06Z</time></trkpt><trkpt lat="44.354303237313886" lon="8.565455136480358"><ele>5.0</ele><time>2026-04-19T15:35:07Z</time></trkpt><trkpt lat="44.35423421583522" lon="8.565389756946132"><ele>5.0</ele><time>2026-04-19T15:35:08Z</time></trkpt><trkpt lat="44.35416383867547" lon="8.56532380911027"><ele>5.0</ele><time>2026-04-19T15:35:09Z</time></trkpt><trkpt lat="44.354082381440804" lon="8.565261963072153"><ele>5.0</ele><time>2026-04-19T15:35:10Z</time></trkpt><trkpt lat="44.35399335414542" lon="8.56520698839132"><ele>5.0</ele><time>2026-04-19T15:35:11Z</time></trkpt><trkpt lat="44.35389651085004" lon="8.565154488647154"><ele>5.25</ele><time>2026-04-19T15:35:12Z</time></trkpt><trkpt lat="44.35379225749113" lon="8.565100436730477"><ele>5.5</ele><time>2026-04-19T15:35:13Z</time></trkpt><trkpt lat="44.35367854143334" lon="8.565048196643616"><ele>5.75</ele><time>2026-04-19T15:35:14Z</time></trkpt><trkpt lat="44.353552546243485" lon="8.56501429294003"><ele>6.0</ele><time>2026-04-19T15:35:14.999Z</time></trkpt><trkpt lat="44.35342752393013" lon="8.56499607459928"><ele>6.0</ele><time>2026-04-19T15:35:15.999Z</time></trkpt><trkpt lat="44.353284924070735" lon="8.564962080778502"><ele>6.0</ele><time>2026-04-19T15:35:16.999Z</time></trkpt><trkpt lat="44.353152296134226" lon="8.564911139716758"><ele>6.0</ele><time>2026-04-19T15:35:17.999Z</time></trkpt><trkpt lat="44.353026683136164" lon="8.564868484999142"><ele>6.0</ele><time>2026-04-19T15:35:18.999Z</time></trkpt><trkpt lat="44.352903868879935" lon="8.564856356855351"><ele>8.5</ele><time>2026-04-19T15:35:19.999Z</time></trkpt><trkpt lat="44.35278751712349" lon="8.564885818464576"><ele>11.0</ele><time>2026-04-19T15:35:20.999Z</time></trkpt><trkpt lat="44.352675132849065" lon="8.564950043449521"><ele>13.5</ele><time>2026-04-19T15:35:21.999Z</time></trkpt><trkpt lat="44.35255924986811" lon="8.565021297357344"><ele>16.0</ele><time>2026-04-19T15:35:22.999Z</time></trkpt><trkpt lat="44.35244099129672" lon="8.565093241075152"><ele>16.0</ele><time>2026-04-19T15:35:23.999Z</time></trkpt><trkpt lat="44.352318745620195" lon="8.565158303115416"><ele>16.0</ele><time>2026-04-19T15:35:24.999Z</time></trkpt><trkpt lat="44.35219386997555" lon="8.565197942530116"><ele>16.0</ele><time>2026-04-19T15:35:25.999Z</time></trkpt><trkpt lat="44.35206491218184" lon="8.565208784850727"><ele>16.0</ele><time>2026-04-19T15:35:26.999Z</time></trkpt><trkpt lat="44.351937411624384" lon="8.565224525282156"><ele>18.4</ele><time>2026-04-19T15:35:27.999Z</time></trkpt><trkpt lat="44.35182111631504" lon="8.565256349924207"><ele>20.8</ele><time>2026-04-19T15:35:28.999Z</time></trkpt><trkpt lat="44.35171709047875" lon="8.565307863153398"><ele>23.199999999999996</ele><time>2026-04-19T15:35:29.999Z</time></trkpt><trkpt lat="44.35161692485902" lon="8.565352471652114"><ele>25.599999999999998</ele><time>2026-04-19T15:35:30.999Z</time></trkpt><trkpt lat="44.35151527593567" lon="8.56533859701"><ele>28.0</ele><time>2026-04-19T15:35:31.999Z</time></trkpt><trkpt lat="44.351420284864375" lon="8.565312581384193"><ele>28.599999999999998</ele><time>2026-04-19T15:35:32.999Z</time></trkpt><trkpt lat="44.3513231860694" lon="8.56531118319681"><ele>29.199999999999996</ele><time>2026-04-19T15:35:33.999Z</time></trkpt><trkpt lat="44.35122615285514" lon="8.565284440969354"><ele>29.8</ele><time>2026-04-19T15:35:34.999Z</time></trkpt><trkpt lat="44.35112604752246" lon="8.56535823423307"><ele>30.4</ele><time>2026-04-19T15:35:35.999Z</time></trkpt><trkpt lat="44.35107342854947" lon="8.565492936419425"><ele>31.0</ele><time>2026-04-19T15:35:36.999Z</time></trkpt><trkpt lat="44.35100904471472" lon="8.565610938360207"><ele>27.25</ele><time>2026-04-19T15:35:37.999Z</time></trkpt><trkpt lat="44.35096349240996" lon="8.565748495842536"><ele>23.5</ele><time>2026-04-19T15:35:38.999Z</time></trkpt><trkpt lat="44.35088886935904" lon="8.565886468084251"><ele>19.75</ele><time>2026-04-19T15:35:39.999Z</time></trkpt><trkpt lat="44.35079627979198" lon="8.566033355123087"><ele>16.0</ele><time>2026-04-19T15:35:40.999Z</time></trkpt><trkpt lat="44.3506980888462" lon="8.56618098667327"><ele>17.5</ele><time>2026-04-19T15:35:41.999Z</time></trkpt><trkpt lat="44.35060344996697" lon="8.566318858314744"><ele>19.0</ele><time>2026-04-19T15:35:42.999Z</time></trkpt><trkpt lat="44.35051117053808" lon="8.566444519241665"><ele>20.5</ele><time>2026-04-19T15:35:43.999Z</time></trkpt><trkpt lat="44.35041687148501" lon="8.566553001665975"><ele>22.0</ele><time>2026-04-19T15:35:44.999Z</time></trkpt><trkpt lat="44.35030905916342" lon="8.566616795478073"><ele>22.0</ele><time>2026-04-19T15:35:45.999Z</time></trkpt><trkpt lat="44.35021037278733" lon="8.56670338677895"><ele>22.0</ele><time>2026-04-19T15:35:46.999Z</time></trkpt><trkpt lat="44.35010018951435" lon="8.566764596684878"><ele>22.0</ele><time>2026-04-19T15:35:47.999Z</time></trkpt><trkpt lat="44.349990770629546" lon="8.566825143470929"><ele>22.0</ele><time>2026-04-19T15:35:48.999Z</time></trkpt><trkpt lat="44.34988977972492" lon="8.566883748976359"><ele>22.0</ele><time>2026-04-19T15:35:49.999Z</time></trkpt><trkpt lat="44.349792725737075" lon="8.566936782336517"><ele>22.0</ele><time>2026-04-19T15:35:50.999Z</time></trkpt><trkpt lat="44.3496956352364" lon="8.566960225174572"><ele>22.0</ele><time>2026-04-19T15:35:51.999Z</time></trkpt><trkpt lat="44.34959851494563" lon="8.56697198525128"><ele>22.0</ele><time>2026-04-19T15:35:52.999Z</time></trkpt><trkpt lat="44.349494193859925" lon="8.56696626608955"><ele>22.0</ele><time>2026-04-19T15:35:53.999Z</time></trkpt><trkpt lat="44.34938828310573" lon="8.566946110002347"><ele>21.8</ele><time>2026-04-19T15:35:54.999Z</time></trkpt><trkpt lat="44.34928389339539" lon="8.566901507983731"><ele>21.6</ele><time>2026-04-19T15:35:55.999Z</time></trkpt><trkpt lat="44.349180890511974" lon="8.566836898989738"><ele>21.400000000000002</ele><time>2026-04-19T15:35:56.999Z</time></trkpt><trkpt lat="44.3490860565626" lon="8.566763505312993"><ele>21.200000000000003</ele><time>2026-04-19T15:35:57.999Z</time></trkpt><trkpt lat="44.349003699930144" lon="8.566700680635986"><ele>21.0</ele><time>2026-04-19T15:35:58.999Z</time></trkpt><trkpt lat="44.348941639235555" lon="8.566625134090902"><ele>21.0</ele><time>2026-04-19T15:35:59.999Z</time></trkpt><trkpt lat="44.348895547764535" lon="8.566524985531164"><ele>21.0</ele><time>2026-04-19T15:36:00.999Z</time></trkpt><trkpt lat="44.34886720427435" lon="8.56641237636007"><ele>21.0</ele><time>2026-04-19T15:36:01.999Z</time></trkpt><trkpt lat="44.34886371316368" lon="8.566288668380148"><ele>21.0</ele><time>2026-04-19T15:36:02.999Z</time></trkpt><trkpt lat="44.348870103478085" lon="8.566151538275873"><ele>21.0</ele><time>2026-04-19T15:36:03.999Z</time></trkpt><trkpt lat="44.348851361129746" lon="8.566010956186343"><ele>18.400000000000002</ele><time>2026-04-19T15:36:04.999Z</time></trkpt><trkpt lat="44.34882335776657" lon="8.565862549772493"><ele>15.8</ele><time>2026-04-19T15:36:05.999Z</time></trkpt><trkpt lat="44.34878851920804" lon="8.565715411870412"><ele>13.200000000000001</ele><time>2026-04-19T15:36:06.999Z</time></trkpt><trkpt lat="44.34875174987377" lon="8.565579836015369"><ele>10.600000000000001</ele><time>2026-04-19T15:36:07.999Z</time></trkpt><trkpt lat="44.348716399221054" lon="8.565452854028518"><ele>8.0</ele><time>2026-04-19T15:36:08.999Z</time></trkpt><trkpt lat="44.34868261867599" lon="8.565322925925935"><ele>8.0</ele><time>2026-04-19T15:36:09.999Z</time></trkpt><trkpt lat="44.34865114889779" lon="8.565191764728821"><ele>8.0</ele><time>2026-04-19T15:36:10.999Z</time></trkpt><trkpt lat="44.34861823501308" lon="8.565060171387758"><ele>8.0</ele><time>2026-04-19T15:36:11.999Z</time></trkpt><trkpt lat="44.34858540125152" lon="8.564931619537878"><ele>8.0</ele><time>2026-04-19T15:36:12.999Z</time></trkpt><trkpt lat="44.34853874147372" lon="8.564814018108573"><ele>8.0</ele><time>2026-04-19T15:36:13.999Z</time></trkpt><trkpt lat="44.34847128055996" lon="8.564712219884226"><ele>8.0</ele><time>2026-04-19T15:36:14.999Z</time></trkpt><trkpt lat="44.34838596324952" lon="8.564627117373252"><ele>8.0</ele><time>2026-04-19T15:36:15.999Z</time></trkpt><trkpt lat="44.3482852198243" lon="8.564569951266524"><ele>8.0</ele><time>2026-04-19T15:36:16.999Z</time></trkpt><trkpt lat="44.348169666267424" lon="8.56453926015207"><ele>8.0</ele><time>2026-04-19T15:36:17.999Z</time></trkpt><trkpt lat="44.348051334185115" lon="8.564535304388677"><ele>8.0</ele><time>2026-04-19T15:36:18.999Z</time></trkpt><trkpt lat="44.34793627578299" lon="8.564543422810054"><ele>8.200000000000001</ele><time>2026-04-19T15:36:19.999Z</time></trkpt><trkpt lat="44.34782676363349" lon="8.564551851188865"><ele>8.4</ele><time>2026-04-19T15:36:20.999Z</time></trkpt><trkpt lat="44.34772161398941" lon="8.56455257880284"><ele>8.600000000000001</ele><time>2026-04-19T15:36:21.999Z</time></trkpt><trkpt lat="44.34762216873773" lon="8.564540563415294"><ele>8.8</ele><time>2026-04-19T15:36:22.999Z</time></trkpt><trkpt lat="44.34753422149335" lon="8.56451352077616"><ele>9.0</ele><time>2026-04-19T15:36:24Z</time></trkpt><trkpt lat="44.347454558559036" lon="8.564480874204666"><ele>10.333333333333334</ele><time>2026-04-19T15:36:25Z</time></trkpt><trkpt lat="44.34737729278623" lon="8.564439615102119"><ele>11.666666666666668</ele><time>2026-04-19T15:36:26Z</time></trkpt><trkpt lat="44.34729559072361" lon="8.56439996100387"><ele>13.0</ele><time>2026-04-19T15:36:27Z</time></trkpt><trkpt lat="44.34721333026194" lon="8.56436361432368"><ele>14.333333333333334</ele><time>2026-04-19T15:36:28Z</time></trkpt><trkpt lat="44.34712851294218" lon="8.564327094200758"><ele>15.666666666666668</ele><time>2026-04-19T15:36:29Z</time></trkpt><trkpt lat="44.34704170448271" lon="8.564287304373499"><ele>17.0</ele><time>2026-04-19T15:36:30Z</time></trkpt><trkpt lat="44.34695480055486" lon="8.564244357380057"><ele>17.0</ele><time>2026-04-19T15:36:31Z</time></trkpt><trkpt lat="44.34686849492358" lon="8.564205226541638"><ele>17.0</ele><time>2026-04-19T15:36:32Z</time></trkpt><trkpt lat="44.346781271436846" lon="8.564165079470135"><ele>17.0</ele><time>2026-04-19T15:36:33Z</time></trkpt><trkpt lat="44.34670034546023" lon="8.564123178994347"><ele>17.0</ele><time>2026-04-19T15:36:34Z</time></trkpt><trkpt lat="44.346634566071" lon="8.564077450043486"><ele>17.0</ele><time>2026-04-19T15:36:35Z</time></trkpt><trkpt lat="44.346585074705146" lon="8.564013160085395"><ele>17.0</ele><time>2026-04-19T15:36:36Z</time></trkpt><trkpt lat="44.34654960064141" lon="8.56391857520099"><ele>17.0</ele><time>2026-04-19T15:36:37Z</time></trkpt><trkpt lat="44.34653757694993" lon="8.563793796307582"><ele>17.0</ele><time>2026-04-19T15:36:38Z</time></trkpt><trkpt lat="44.34652775091486" lon="8.563657074063185"><ele>17.0</ele><time>2026-04-19T15:36:39Z</time></trkpt><trkpt lat="44.346509650725594" lon="8.563514202022096"><ele>17.0</ele><time>2026-04-19T15:36:40Z</time></trkpt><trkpt lat="44.34650112947807" lon="8.563375250486915"><ele>17.0</ele><time>2026-04-19T15:36:41Z</time></trkpt><trkpt lat="44.34651690630469" lon="8.563241497664716"><ele>17.4</ele><time>2026-04-19T15:36:42Z</time></trkpt><trkpt lat="44.34656369122096" lon="8.563100861264191"><ele>17.799999999999997</ele><time>2026-04-19T15:36:43Z</time></trkpt><trkpt lat="44.34663716474479" lon="8.56296900943335"><ele>18.2</ele><time>2026-04-19T15:36:44Z</time></trkpt><trkpt lat="44.34670520254306" lon="8.562855393213303"><ele>18.599999999999998</ele><time>2026-04-19T15:36:45Z</time></trkpt><trkpt lat="44.34676525999733" lon="8.562743550335814"><ele>19.0</ele><time>2026-04-19T15:36:46Z</time></trkpt><trkpt lat="44.34680521943551" lon="8.562625750488968"><ele>19.0</ele><time>2026-04-19T15:36:47Z</time></trkpt><trkpt lat="44.34680974174098" lon="8.56250356918411"><ele>19.0</ele><time>2026-04-19T15:36:48Z</time></trkpt><trkpt lat="44.34679393585797" lon="8.562377694890872"><ele>19.0</ele><time>2026-04-19T15:36:49Z</time></trkpt><trkpt lat="44.34670375806896" lon="8.562282402401339"><ele>19.0</ele><time>2026-04-19T15:36:50Z</time></trkpt><trkpt lat="44.346616646744415" lon="8.562190722970898"><ele>19.0</ele><time>2026-04-19T15:36:51Z</time></trkpt><trkpt lat="44.346533472004175" lon="8.562100390551489"><ele>19.799999999999997</ele><time>2026-04-19T15:36:52Z</time></trkpt><trkpt lat="44.346456546210916" lon="8.562015325583744"><ele>20.599999999999998</ele><time>2026-04-19T15:36:53Z</time></trkpt><trkpt lat="44.34639288886659" lon="8.561921687859709"><ele>21.4</ele><time>2026-04-19T15:36:54Z</time></trkpt><trkpt lat="44.34634069256016" lon="8.561809170228043"><ele>22.2</ele><time>2026-04-19T15:36:55Z</time></trkpt><trkpt lat="44.34629296488422" lon="8.561696200942032"><ele>23.0</ele><time>2026-04-19T15:36:56Z</time></trkpt><trkpt lat="44.34625596510847" lon="8.561577971775645"><ele>21.2</ele><time>2026-04-19T15:36:57Z</time></trkpt><trkpt lat="44.3462327481464" lon="8.561448171046708"><ele>19.4</ele><time>2026-04-19T15:36:58Z</time></trkpt><trkpt lat="44.34621119305974" lon="8.561304740281992"><ele>17.599999999999998</ele><time>2026-04-19T15:36:59Z</time></trkpt><trkpt lat="44.3461871412728" lon="8.56115016637158"><ele>15.799999999999999</ele><time>2026-04-19T15:37:00Z</time></trkpt><trkpt lat="44.346160456391345" lon="8.560987504778822"><ele>14.0</ele><time>2026-04-19T15:37:01Z</time></trkpt><trkpt lat="44.34613306451806" lon="8.560815692511339"><ele>14.0</ele><time>2026-04-19T15:37:02Z</time></trkpt><trkpt lat="44.34610190085802" lon="8.560633070603679"><ele>14.0</ele><time>2026-04-19T15:37:03Z</time></trkpt><trkpt lat="44.3460690595858" lon="8.56044401652803"><ele>14.0</ele><time>2026-04-19T15:37:04Z</time></trkpt><trkpt lat="44.346038643812285" lon="8.56026030004366"><ele>14.0</ele><time>2026-04-19T15:37:05Z</time></trkpt><trkpt lat="44.346011516065246" lon="8.560087964348408"><ele>14.0</ele><time>2026-04-19T15:37:06Z</time></trkpt><trkpt lat="44.345985973954534" lon="8.559923238496765"><ele>14.0</ele><time>2026-04-19T15:37:07Z</time></trkpt><trkpt lat="44.34596550707534" lon="8.559765827238083"><ele>14.0</ele><time>2026-04-19T15:37:08Z</time></trkpt><trkpt lat="44.345949391709205" lon="8.559610853002681"><ele>14.0</ele><time>2026-04-19T15:37:09Z</time></trkpt><trkpt lat="44.34593561718937" lon="8.55945747066173"><ele>14.399999999999999</ele><time>2026-04-19T15:37:10Z</time></trkpt><trkpt lat="44.3459192897907" lon="8.559304131494525"><ele>14.799999999999999</ele><time>2026-04-19T15:37:11Z</time></trkpt><trkpt lat="44.34590183722605" lon="8.559148846951913"><ele>15.200000000000001</ele><time>2026-04-19T15:37:12Z</time></trkpt><trkpt lat="44.34588579451928" lon="8.558994898196815"><ele>15.600000000000001</ele><time>2026-04-19T15:37:13Z</time></trkpt><trkpt lat="44.34586586630119" lon="8.558842038398486"><ele>16.0</ele><time>2026-04-19T15:37:14Z</time></trkpt><trkpt lat="44.34583820790412" lon="8.558688749894301"><ele>16.0</ele><time>2026-04-19T15:37:15Z</time></trkpt><trkpt lat="44.34579407089531" lon="8.558545255055229"><ele>16.0</ele><time>2026-04-19T15:37:16Z</time></trkpt><trkpt lat="44.34572840859687" lon="8.558415399177571"><ele>16.0</ele><time>2026-04-19T15:37:16.999Z</time></trkpt><trkpt lat="44.34563679505937" lon="8.558313432434502"><ele>16.0</ele><time>2026-04-19T15:37:17.999Z</time></trkpt><trkpt lat="44.345529323099385" lon="8.558231103704452"><ele>14.25</ele><time>2026-04-19T15:37:18.999Z</time></trkpt><trkpt lat="44.34542312322397" lon="8.558136073388592"><ele>12.5</ele><time>2026-04-19T15:37:19.999Z</time></trkpt><trkpt lat="44.34531102750724" lon="8.558049939771522"><ele>10.75</ele><time>2026-04-19T15:37:20.999Z</time></trkpt><trkpt lat="44.345203373018144" lon="8.557955106846249"><ele>9.0</ele><time>2026-04-19T15:37:21.999Z</time></trkpt><trkpt lat="44.34510963456227" lon="8.557851243407908"><ele>9.0</ele><time>2026-04-19T15:37:22.999Z</time></trkpt><trkpt lat="44.34503321687917" lon="8.557729617524027"><ele>9.0</ele><time>2026-04-19T15:37:23.999Z</time></trkpt><trkpt lat="44.34498103219801" lon="8.5575777555519"><ele>9.0</ele><time>2026-04-19T15:37:24.999Z</time></trkpt><trkpt lat="44.34495478738694" lon="8.557396543665735"><ele>9.0</ele><time>2026-04-19T15:37:25.999Z</time></trkpt><trkpt lat="44.34494957055486" lon="8.557192850242846"><ele>10.333333333333332</ele><time>2026-04-19T15:37:26.999Z</time></trkpt><trkpt lat="44.34494528766646" lon="8.556953953017528"><ele>11.666666666666666</ele><time>2026-04-19T15:37:27.999Z</time></trkpt><trkpt lat="44.34495122724849" lon="8.556710981286248"><ele>13.0</ele><time>2026-04-19T15:37:28.999Z</time></trkpt><trkpt lat="44.344962972709666" lon="8.556489853979356"><ele>13.0</ele><time>2026-04-19T15:37:29.999Z</time></trkpt><trkpt lat="44.344981145837174" lon="8.556279851151704"><ele>13.0</ele><time>2026-04-19T15:37:30.999Z</time></trkpt><trkpt lat="44.34500048746498" lon="8.556081476383229"><ele>13.0</ele><time>2026-04-19T15:37:31.999Z</time></trkpt><trkpt lat="44.345019815834576" lon="8.55589355755098"><ele>13.0</ele><time>2026-04-19T15:37:32.999Z</time></trkpt><trkpt lat="44.345035810472034" lon="8.555714559653078"><ele>13.0</ele><time>2026-04-19T15:37:33.999Z</time></trkpt><trkpt lat="44.34504556429555" lon="8.55554202006073"><ele>13.0</ele><time>2026-04-19T15:37:34.999Z</time></trkpt><trkpt lat="44.34504765836915" lon="8.555378991347066"><ele>13.0</ele><time>2026-04-19T15:37:35.999Z</time></trkpt><trkpt lat="44.3450395797361" lon="8.555225582683638"><ele>13.0</ele><time>2026-04-19T15:37:36.999Z</time></trkpt><trkpt lat="44.34502621698054" lon="8.555071941333866"><ele>11.75</ele><time>2026-04-19T15:37:37.999Z</time></trkpt><trkpt lat="44.34501807612304" lon="8.554916636972653"><ele>10.5</ele><time>2026-04-19T15:37:38.999Z</time></trkpt><trkpt lat="44.345013951413456" lon="8.554757119604647"><ele>9.25</ele><time>2026-04-19T15:37:39.999Z</time></trkpt><trkpt lat="44.345011367559835" lon="8.554596547832952"><ele>8.0</ele><time>2026-04-19T15:37:40.999Z</time></trkpt><trkpt lat="44.34501253943424" lon="8.554436405767811"><ele>8.0</ele><time>2026-04-19T15:37:41.999Z</time></trkpt><trkpt lat="44.345016295501715" lon="8.554276839312895"><ele>8.0</ele><time>2026-04-19T15:37:42.999Z</time></trkpt><trkpt lat="44.34501931882855" lon="8.554117412738961"><ele>8.0</ele><time>2026-04-19T15:37:43.999Z</time></trkpt><trkpt lat="44.345024599584306" lon="8.553950493648902"><ele>8.0</ele><time>2026-04-19T15:37:44.999Z</time></trkpt><trkpt lat="44.3450325997246" lon="8.553779166507217"><ele>7.75</ele><time>2026-04-19T15:37:45.999Z</time></trkpt><trkpt lat="44.34504756596114" lon="8.553611608383186"><ele>7.5</ele><time>2026-04-19T15:37:46.999Z</time></trkpt><trkpt lat="44.34506072039047" lon="8.553447699408077"><ele>7.25</ele><time>2026-04-19T15:37:47.999Z</time></trkpt><trkpt lat="44.34506653605096" lon="8.553280289596845"><ele>7.0</ele><time>2026-04-19T15:37:48.999Z</time></trkpt><trkpt lat="44.345067419900275" lon="8.553114615959831"><ele>7.0</ele><time>2026-04-19T15:37:49.999Z</time></trkpt><trkpt lat="44.34506313707433" lon="8.552961322984991"><ele>6.999999999999999</ele><time>2026-04-19T15:37:50.999Z</time></trkpt><trkpt lat="44.345055054529475" lon="8.552812223595023"><ele>6.999999999999999</ele><time>2026-04-19T15:37:51.999Z</time></trkpt><trkpt lat="44.34504679757416" lon="8.552658725450085"><ele>7.0</ele><time>2026-04-19T15:37:52.999Z</time></trkpt><trkpt lat="44.34503880741576" lon="8.552510040350963"><ele>7.0</ele><time>2026-04-19T15:37:53.999Z</time></trkpt><trkpt lat="44.34502768501503" lon="8.552386701196031"><ele>7.166666666666667</ele><time>2026-04-19T15:37:54.999Z</time></trkpt><trkpt lat="44.34501769726058" lon="8.552279387158244"><ele>7.333333333333334</ele><time>2026-04-19T15:37:55.999Z</time></trkpt><trkpt lat="44.34500251520464" lon="8.55217244191153"><ele>7.5</ele><time>2026-04-19T15:37:56.999Z</time></trkpt><trkpt lat="44.34498210719295" lon="8.552057594261134"><ele>7.666666666666666</ele><time>2026-04-19T15:37:57.999Z</time></trkpt><trkpt lat="44.34495921404546" lon="8.551936042048025"><ele>7.833333333333333</ele><time>2026-04-19T15:37:58.999Z</time></trkpt><trkpt lat="44.344933053871415" lon="8.551810652429518"><ele>8.0</ele><time>2026-04-19T15:37:59.999Z</time></trkpt><trkpt lat="44.344904799269564" lon="8.551683504456376"><ele>8.200000000000001</ele><time>2026-04-19T15:38:00.999Z</time></trkpt><trkpt lat="44.34487215077413" lon="8.551555583828497"><ele>8.4</ele><time>2026-04-19T15:38:01.999Z</time></trkpt><trkpt lat="44.34483540247415" lon="8.551428354055988"><ele>8.600000000000001</ele><time>2026-04-19T15:38:02.999Z</time></trkpt><trkpt lat="44.344794188592644" lon="8.551301412674178"><ele>8.8</ele><time>2026-04-19T15:38:03.999Z</time></trkpt><trkpt lat="44.344749751828765" lon="8.551172987435674"><ele>9.0</ele><time>2026-04-19T15:38:04.999Z</time></trkpt><trkpt lat="44.34470223563497" lon="8.551045872573415"><ele>8.6</ele><time>2026-04-19T15:38:05.999Z</time></trkpt><trkpt lat="44.344651506900945" lon="8.550920302331914"><ele>8.2</ele><time>2026-04-19T15:38:06.999Z</time></trkpt><trkpt lat="44.34459928634931" lon="8.550795113184238"><ele>7.799999999999999</ele><time>2026-04-19T15:38:07.999Z</time></trkpt><trkpt lat="44.34453838990028" lon="8.550672869943602"><ele>7.3999999999999995</ele><time>2026-04-19T15:38:08.999Z</time></trkpt><trkpt lat="44.34447132161383" lon="8.550553366316045"><ele>7.0</ele><time>2026-04-19T15:38:09.999Z</time></trkpt><trkpt lat="44.34440149614323" lon="8.55043164673338"><ele>9.75</ele><time>2026-04-19T15:38:10.999Z</time></trkpt><trkpt lat="44.344328724252044" lon="8.550308850784697"><ele>12.5</ele><time>2026-04-19T15:38:11.999Z</time></trkpt><trkpt lat="44.344254737317264" lon="8.550183148811552"><ele>15.25</ele><time>2026-04-19T15:38:12.999Z</time></trkpt><trkpt lat="44.34417776890565" lon="8.550055123616545"><ele>18.0</ele><time>2026-04-19T15:38:13.999Z</time></trkpt><trkpt lat="44.344095959659214" lon="8.549927952503525"><ele>18.0</ele><time>2026-04-19T15:38:14.999Z</time></trkpt><trkpt lat="44.344011866201" lon="8.549798607355102"><ele>18.0</ele><time>2026-04-19T15:38:15.999Z</time></trkpt><trkpt lat="44.34392476954681" lon="8.54966898065018"><ele>18.0</ele><time>2026-04-19T15:38:16.999Z</time></trkpt><trkpt lat="44.343836417706136" lon="8.549537321933546"><ele>18.0</ele><time>2026-04-19T15:38:17.999Z</time></trkpt><trkpt lat="44.34375041711406" lon="8.549422174176032"><ele>17.25</ele><time>2026-04-19T15:38:18.999Z</time></trkpt><trkpt lat="44.34366502439434" lon="8.54931446159164"><ele>16.5</ele><time>2026-04-19T15:38:19.999Z</time></trkpt><trkpt lat="44.34357746661888" lon="8.549203067041109"><ele>15.75</ele><time>2026-04-19T15:38:20.999Z</time></trkpt><trkpt lat="44.34348456207978" lon="8.549095084582802"><ele>15.0</ele><time>2026-04-19T15:38:21.999Z</time></trkpt><trkpt lat="44.3433911282864" lon="8.54898503396865"><ele>15.0</ele><time>2026-04-19T15:38:22.999Z</time></trkpt><trkpt lat="44.343293968005085" lon="8.548874865045493"><ele>15.0</ele><time>2026-04-19T15:38:23.999Z</time></trkpt><trkpt lat="44.34319705109134" lon="8.548765609012706"><ele>15.0</ele><time>2026-04-19T15:38:24.999Z</time></trkpt><trkpt lat="44.34310720327277" lon="8.548659988609122"><ele>15.0</ele><time>2026-04-19T15:38:25.999Z</time></trkpt><trkpt lat="44.343025641328055" lon="8.548554458750074"><ele>14.2</ele><time>2026-04-19T15:38:26.999Z</time></trkpt><trkpt lat="44.342952206267235" lon="8.548435960244094"><ele>13.4</ele><time>2026-04-19T15:38:27.999Z</time></trkpt><trkpt lat="44.34289113926235" lon="8.548306206604021"><ele>12.600000000000001</ele><time>2026-04-19T15:38:28.999Z</time></trkpt><trkpt lat="44.34283936859814" lon="8.548176888197705"><ele>11.8</ele><time>2026-04-19T15:38:30Z</time></trkpt><trkpt lat="44.34279833066391" lon="8.548034450642398"><ele>11.0</ele><time>2026-04-19T15:38:31Z</time></trkpt><trkpt lat="44.34278245452784" lon="8.54790491798238"><ele>11.8</ele><time>2026-04-19T15:38:32Z</time></trkpt><trkpt lat="44.342779991951225" lon="8.547771269129884"><ele>12.600000000000001</ele><time>2026-04-19T15:38:33Z</time></trkpt><trkpt lat="44.34277739542136" lon="8.54764204321871"><ele>13.4</ele><time>2026-04-19T15:38:34Z</time></trkpt><trkpt lat="44.34276341934797" lon="8.547517129763612"><ele>14.2</ele><time>2026-04-19T15:38:35Z</time></trkpt><trkpt lat="44.342738209574115" lon="8.547398600649485"><ele>15.0</ele><time>2026-04-19T15:38:36Z</time></trkpt><trkpt lat="44.34270681354918" lon="8.547285285957452"><ele>15.0</ele><time>2026-04-19T15:38:37Z</time></trkpt><trkpt lat="44.342681477710514" lon="8.547169243787026"><ele>15.0</ele><time>2026-04-19T15:38:38Z</time></trkpt><trkpt lat="44.34266721975404" lon="8.547049181284475"><ele>15.0</ele><time>2026-04-19T15:38:39Z</time></trkpt><trkpt lat="44.34267949344054" lon="8.546928836090867"><ele>15.0</ele><time>2026-04-19T15:38:40Z</time></trkpt><trkpt lat="44.34270751788166" lon="8.546813925693225"><ele>15.0</ele><time>2026-04-19T15:38:41Z</time></trkpt><trkpt lat="44.342744197068285" lon="8.546698306816788"><ele>15.0</ele><time>2026-04-19T15:38:42Z</time></trkpt><trkpt lat="44.342781914815035" lon="8.546590420016297"><ele>15.0</ele><time>2026-04-19T15:38:43Z</time></trkpt><trkpt lat="44.34282371158141" lon="8.546478656786913"><ele>15.0</ele><time>2026-04-19T15:38:44Z</time></trkpt><trkpt lat="44.34285791346733" lon="8.546353184240838"><ele>15.0</ele><time>2026-04-19T15:38:45Z</time></trkpt><trkpt lat="44.342878071579996" lon="8.546218679252267"><ele>15.0</ele><time>2026-04-19T15:38:46Z</time></trkpt><trkpt lat="44.34287797241211" lon="8.546080286217101"><ele>15.0</ele><time>2026-04-19T15:38:47Z</time></trkpt><trkpt lat="44.342852226175914" lon="8.545945559794987"><ele>14.2</ele><time>2026-04-19T15:38:48Z</time></trkpt><trkpt lat="44.34281269435236" lon="8.5458200619497"><ele>13.4</ele><time>2026-04-19T15:38:49Z</time></trkpt><trkpt lat="44.34276895790711" lon="8.54570302054565"><ele>12.600000000000001</ele><time>2026-04-19T15:38:50Z</time></trkpt><trkpt lat="44.342723298519275" lon="8.545588205078397"><ele>11.8</ele><time>2026-04-19T15:38:51Z</time></trkpt><trkpt lat="44.342680705307664" lon="8.545475117925479"><ele>11.0</ele><time>2026-04-19T15:38:52Z</time></trkpt><trkpt lat="44.34264108371449" lon="8.545364280010741"><ele>10.5</ele><time>2026-04-19T15:38:53Z</time></trkpt><trkpt lat="44.342598959478494" lon="8.54525759219179"><ele>10.0</ele><time>2026-04-19T15:38:54Z</time></trkpt><trkpt lat="44.342556615307" lon="8.54515363812963"><ele>9.5</ele><time>2026-04-19T15:38:55Z</time></trkpt><trkpt lat="44.34251597357981" lon="8.545049892226734"><ele>9.0</ele><time>2026-04-19T15:38:56Z</time></trkpt><trkpt lat="44.3424817014002" lon="8.54494722592821"><ele>8.5</ele><time>2026-04-19T15:38:57Z</time></trkpt><trkpt lat="44.34244309789051" lon="8.544845386638638"><ele>8.0</ele><time>2026-04-19T15:38:58Z</time></trkpt><trkpt lat="44.34239776201239" lon="8.544737487593455"><ele>8.0</ele><time>2026-04-19T15:38:59Z</time></trkpt><trkpt lat="44.342349102984635" lon="8.544620797170658"><ele>8.0</ele><time>2026-04-19T15:39:00Z</time></trkpt><trkpt lat="44.34229340873818" lon="8.544505455647045"><ele>8.0</ele><time>2026-04-19T15:39:01Z</time></trkpt><trkpt lat="44.34223193796149" lon="8.544388179400462"><ele>8.0</ele><time>2026-04-19T15:39:02Z</time></trkpt><trkpt lat="44.3421658287935" lon="8.544271396022433"><ele>8.0</ele><time>2026-04-19T15:39:03Z</time></trkpt><trkpt lat="44.3421033933677" lon="8.544157326910348"><ele>7.800000000000001</ele><time>2026-04-19T15:39:04Z</time></trkpt><trkpt lat="44.34204590574519" lon="8.544045451326621"><ele>7.6000000000000005</ele><time>2026-04-19T15:39:05Z</time></trkpt><trkpt lat="44.34199077288191" lon="8.543937896448474"><ele>7.3999999999999995</ele><time>2026-04-19T15:39:06Z</time></trkpt><trkpt lat="44.341938640435366" lon="8.543835514068222"><ele>7.199999999999999</ele><time>2026-04-19T15:39:07Z</time></trkpt><trkpt lat="44.341888268420405" lon="8.543738752881817"><ele>7.0</ele><time>2026-04-19T15:39:08Z</time></trkpt><trkpt lat="44.34183831132156" lon="8.543649563345259"><ele>7.500000000000001</ele><time>2026-04-19T15:39:09Z</time></trkpt><trkpt lat="44.34178715267252" lon="8.543568220978237"><ele>8.0</ele><time>2026-04-19T15:39:10Z</time></trkpt><trkpt lat="44.34172312105433" lon="8.543506678172005"><ele>8.5</ele><time>2026-04-19T15:39:11Z</time></trkpt><trkpt lat="44.34165168986963" lon="8.543459993995558"><ele>9.0</ele><time>2026-04-19T15:39:12Z</time></trkpt><trkpt lat="44.341570012839824" lon="8.543435565690428"><ele>9.5</ele><time>2026-04-19T15:39:13Z</time></trkpt><trkpt lat="44.34148436047335" lon="8.54343595692288"><ele>10.0</ele><time>2026-04-19T15:39:14Z</time></trkpt><trkpt lat="44.341395270531656" lon="8.543467413051074"><ele>10.4</ele><time>2026-04-19T15:39:15Z</time></trkpt><trkpt lat="44.34130334363067" lon="8.543497508943018"><ele>10.8</ele><time>2026-04-19T15:39:16Z</time></trkpt><trkpt lat="44.34120551652699" lon="8.543543338490402"><ele>11.2</ele><time>2026-04-19T15:39:17Z</time></trkpt><trkpt lat="44.341108119285856" lon="8.543587877252369"><ele>11.6</ele><time>2026-04-19T15:39:18Z</time></trkpt><trkpt lat="44.341016168634454" lon="8.543612529538478"><ele>12.0</ele><time>2026-04-19T15:39:19Z</time></trkpt><trkpt lat="44.340928753586034" lon="8.54361888846115"><ele>12.0</ele><time>2026-04-19T15:39:19.999Z</time></trkpt><trkpt lat="44.34084120706975" lon="8.543602162242232"><ele>12.0</ele><time>2026-04-19T15:39:20.999Z</time></trkpt><trkpt lat="44.34077055956873" lon="8.543553629300009"><ele>12.0</ele><time>2026-04-19T15:39:21.999Z</time></trkpt><trkpt lat="44.34070250867247" lon="8.543477521437886"><ele>12.0</ele><time>2026-04-19T15:39:22.999Z</time></trkpt><trkpt lat="44.3406238439372" lon="8.54338776457517"><ele>12.0</ele><time>2026-04-19T15:39:23.999Z</time></trkpt><trkpt lat="44.340530975026596" lon="8.543290680124496"><ele>11.0</ele><time>2026-04-19T15:39:24.999Z</time></trkpt><trkpt lat="44.34042944920486" lon="8.543189890017722"><ele>10.0</ele><time>2026-04-19T15:39:25.999Z</time></trkpt><trkpt lat="44.340329931334615" lon="8.5430922458282"><ele>9.0</ele><time>2026-04-19T15:39:26.999Z</time></trkpt><trkpt lat="44.3402403697572" lon="8.542994518571788"><ele>8.0</ele><time>2026-04-19T15:39:27.999Z</time></trkpt><trkpt lat="44.34015399316298" lon="8.542902246570105"><ele>7.999999999999999</ele><time>2026-04-19T15:39:28.999Z</time></trkpt><trkpt lat="44.34007299113049" lon="8.542812779072642"><ele>8.0</ele><time>2026-04-19T15:39:29.999Z</time></trkpt><trkpt lat="44.34000189724958" lon="8.542758447353597"><ele>8.0</ele><time>2026-04-19T15:39:30.999Z</time></trkpt><trkpt lat="44.33993491886399" lon="8.542720687048108"><ele>8.0</ele><time>2026-04-19T15:39:31.999Z</time></trkpt><trkpt lat="44.33986234725411" lon="8.542758439213667"><ele>7.999999999999999</ele><time>2026-04-19T15:39:32.999Z</time></trkpt><trkpt lat="44.33980980482893" lon="8.542857839173276"><ele>8.0</ele><time>2026-04-19T15:39:33.999Z</time></trkpt><trkpt lat="44.3397326555219" lon="8.542932026440848"><ele>9.25</ele><time>2026-04-19T15:39:34.999Z</time></trkpt><trkpt lat="44.339654988664165" lon="8.543032653237537"><ele>10.5</ele><time>2026-04-19T15:39:35.999Z</time></trkpt><trkpt lat="44.33955013644721" lon="8.543086352447952"><ele>11.75</ele><time>2026-04-19T15:39:36.999Z</time></trkpt><trkpt lat="44.339423352939576" lon="8.543123704484001"><ele>13.0</ele><time>2026-04-19T15:39:37.999Z</time></trkpt><trkpt lat="44.339290391948786" lon="8.543122333123732"><ele>13.0</ele><time>2026-04-19T15:39:38.999Z</time></trkpt><trkpt lat="44.33917066682439" lon="8.54308110793595"><ele>13.0</ele><time>2026-04-19T15:39:39.999Z</time></trkpt><trkpt lat="44.33905639768195" lon="8.542993293062922"><ele>13.0</ele><time>2026-04-19T15:39:40.999Z</time></trkpt><trkpt lat="44.33894557905659" lon="8.542869384943275"><ele>13.0</ele><time>2026-04-19T15:39:41.999Z</time></trkpt><trkpt lat="44.33882668258983" lon="8.542759660220346"><ele>14.0</ele><time>2026-04-19T15:39:42.999Z</time></trkpt><trkpt lat="44.338710823297305" lon="8.542641252124492"><ele>15.0</ele><time>2026-04-19T15:39:43.999Z</time></trkpt><trkpt lat="44.33860081382954" lon="8.542525987622675"><ele>16.0</ele><time>2026-04-19T15:39:44.999Z</time></trkpt><trkpt lat="44.33849204629385" lon="8.5424129140735"><ele>17.0</ele><time>2026-04-19T15:39:45.999Z</time></trkpt><trkpt lat="44.338385500893395" lon="8.542297529774075"><ele>17.0</ele><time>2026-04-19T15:39:46.999Z</time></trkpt><trkpt lat="44.338281838195265" lon="8.542180387330715"><ele>17.0</ele><time>2026-04-19T15:39:47.999Z</time></trkpt><trkpt lat="44.33817655043735" lon="8.542069015221571"><ele>17.0</ele><time>2026-04-19T15:39:48.999Z</time></trkpt><trkpt lat="44.33806781287182" lon="8.541972881851082"><ele>17.0</ele><time>2026-04-19T15:39:49.999Z</time></trkpt><trkpt lat="44.33795304245719" lon="8.541900676846351"><ele>19.75</ele><time>2026-04-19T15:39:50.999Z</time></trkpt><trkpt lat="44.33783814794139" lon="8.541861361398809"><ele>22.5</ele><time>2026-04-19T15:39:51.999Z</time></trkpt><trkpt lat="44.33772620867645" lon="8.541854623519797"><ele>25.25</ele><time>2026-04-19T15:39:52.999Z</time></trkpt><trkpt lat="44.33761181240298" lon="8.54187431382001"><ele>28.0</ele><time>2026-04-19T15:39:53.999Z</time></trkpt><trkpt lat="44.33749739312757" lon="8.541917450194845"><ele>28.0</ele><time>2026-04-19T15:39:54.999Z</time></trkpt><trkpt lat="44.33738423356447" lon="8.54198555164645"><ele>28.0</ele><time>2026-04-19T15:39:55.999Z</time></trkpt><trkpt lat="44.3372730793619" lon="8.542071672905251"><ele>28.0</ele><time>2026-04-19T15:39:56.999Z</time></trkpt><trkpt lat="44.337157073162075" lon="8.542153599035677"><ele>28.0</ele><time>2026-04-19T15:39:57.999Z</time></trkpt><trkpt lat="44.33702804572621" lon="8.542213240606085"><ele>22.666666666666668</ele><time>2026-04-19T15:39:58.999Z</time></trkpt><trkpt lat="44.336870045428746" lon="8.542240461825209"><ele>17.333333333333336</ele><time>2026-04-19T15:39:59.999Z</time></trkpt><trkpt lat="44.33671438433101" lon="8.542247215564863"><ele>12.0</ele><time>2026-04-19T15:40:00.999Z</time></trkpt><trkpt lat="44.33657720324771" lon="8.542260665235121"><ele>12.0</ele><time>2026-04-19T15:40:01.999Z</time></trkpt><trkpt lat="44.33644792021637" lon="8.542265132123394"><ele>12.0</ele><time>2026-04-19T15:40:02.999Z</time></trkpt><trkpt lat="44.33632771085185" lon="8.54223997510007"><ele>12.0</ele><time>2026-04-19T15:40:03.999Z</time></trkpt><trkpt lat="44.3362164974321" lon="8.542174918764273"><ele>12.0</ele><time>2026-04-19T15:40:04.999Z</time></trkpt><trkpt lat="44.336121561110225" lon="8.542068040784454"><ele>12.75</ele><time>2026-04-19T15:40:05.999Z</time></trkpt><trkpt lat="44.33604764069958" lon="8.54193429351843"><ele>13.5</ele><time>2026-04-19T15:40:06.999Z</time></trkpt><trkpt lat="44.33599419055993" lon="8.54178174672643"><ele>14.25</ele><time>2026-04-19T15:40:07.999Z</time></trkpt><trkpt lat="44.33593593863367" lon="8.541631757268114"><ele>15.0</ele><time>2026-04-19T15:40:08.999Z</time></trkpt><trkpt lat="44.33589022260112" lon="8.541482617235886"><ele>15.0</ele><time>2026-04-19T15:40:09.999Z</time></trkpt><trkpt lat="44.33584316187276" lon="8.541339655563911"><ele>15.0</ele><time>2026-04-19T15:40:10.999Z</time></trkpt><trkpt lat="44.335795306805224" lon="8.541199178647314"><ele>15.0</ele><time>2026-04-19T15:40:11.999Z</time></trkpt><trkpt lat="44.33575143690101" lon="8.541057329135077"><ele>15.0</ele><time>2026-04-19T15:40:12.999Z</time></trkpt><trkpt lat="44.335711241906516" lon="8.540914087332862"><ele>15.0</ele><time>2026-04-19T15:40:13.999Z</time></trkpt><trkpt lat="44.33567130659193" lon="8.540771864983377"><ele>13.4</ele><time>2026-04-19T15:40:14.999Z</time></trkpt><trkpt lat="44.33563205788735" lon="8.54063077042622"><ele>11.8</ele><time>2026-04-19T15:40:15.999Z</time></trkpt><trkpt lat="44.335592401989594" lon="8.540487203395944"><ele>10.2</ele><time>2026-04-19T15:40:16.999Z</time></trkpt><trkpt lat="44.335550777478666" lon="8.540340221578482"><ele>8.6</ele><time>2026-04-19T15:40:17.999Z</time></trkpt><trkpt lat="44.33551256678592" lon="8.540188349843081"><ele>7.0</ele><time>2026-04-19T15:40:18.999Z</time></trkpt><trkpt lat="44.33547316066129" lon="8.540027485728752"><ele>7.0</ele><time>2026-04-19T15:40:19.999Z</time></trkpt><trkpt lat="44.33543728907728" lon="8.539859164763403"><ele>7.0</ele><time>2026-04-19T15:40:20.999Z</time></trkpt><trkpt lat="44.33537926403257" lon="8.539687548773928"><ele>7.0</ele><time>2026-04-19T15:40:21.999Z</time></trkpt><trkpt lat="44.33534110447104" lon="8.539502538394613"><ele>7.0</ele><time>2026-04-19T15:40:22.999Z</time></trkpt><trkpt lat="44.33530499285499" lon="8.539319121393705"><ele>6.5</ele><time>2026-04-19T15:40:23.999Z</time></trkpt><trkpt lat="44.335272952253284" lon="8.539149663155818"><ele>6.0</ele><time>2026-04-19T15:40:24.999Z</time></trkpt><trkpt lat="44.33524160625117" lon="8.53899045152922"><ele>5.5</ele><time>2026-04-19T15:40:25.999Z</time></trkpt><trkpt lat="44.33521274308427" lon="8.538820263629209"><ele>5.0</ele><time>2026-04-19T15:40:26.999Z</time></trkpt><trkpt lat="44.33517482707477" lon="8.538648236290127"><ele>5.0</ele><time>2026-04-19T15:40:27.999Z</time></trkpt><trkpt lat="44.335135678735526" lon="8.538470293330596"><ele>5.0</ele><time>2026-04-19T15:40:28.999Z</time></trkpt><trkpt lat="44.33509482063715" lon="8.538288722009533"><ele>5.0</ele><time>2026-04-19T15:40:29.999Z</time></trkpt><trkpt lat="44.33505569129532" lon="8.538109647800958"><ele>5.0</ele><time>2026-04-19T15:40:30.999Z</time></trkpt><trkpt lat="44.335014940728406" lon="8.537928325710746"><ele>8.5</ele><time>2026-04-19T15:40:31.999Z</time></trkpt><trkpt lat="44.334972863023296" lon="8.53774956946786"><ele>12.0</ele><time>2026-04-19T15:40:32.999Z</time></trkpt><trkpt lat="44.33493624351049" lon="8.537567722234906"><ele>15.5</ele><time>2026-04-19T15:40:33.999Z</time></trkpt><trkpt lat="44.33489777353583" lon="8.537377345394923"><ele>19.0</ele><time>2026-04-19T15:40:34.999Z</time></trkpt><trkpt lat="44.334857119472815" lon="8.537184481130982"><ele>21.666666666666664</ele><time>2026-04-19T15:40:36Z</time></trkpt><trkpt lat="44.334816624312516" lon="8.536984446977087"><ele>24.333333333333332</ele><time>2026-04-19T15:40:37Z</time></trkpt><trkpt lat="44.334777803929306" lon="8.536776437591477"><ele>27.0</ele><time>2026-04-19T15:40:38Z</time></trkpt><trkpt lat="44.33473999961645" lon="8.536576086497924"><ele>22.0</ele><time>2026-04-19T15:40:39Z</time></trkpt><trkpt lat="44.33470359646715" lon="8.536374670099818"><ele>17.0</ele><time>2026-04-19T15:40:40Z</time></trkpt><trkpt lat="44.33467018271945" lon="8.536170099437577"><ele>12.0</ele><time>2026-04-19T15:40:41Z</time></trkpt><trkpt lat="44.33463874914206" lon="8.535967911217362"><ele>7.0</ele><time>2026-04-19T15:40:42Z</time></trkpt><trkpt lat="44.334610530275334" lon="8.53576892795275"><ele>7.0</ele><time>2026-04-19T15:40:43Z</time></trkpt><trkpt lat="44.3345814452085" lon="8.535569173767856"><ele>7.0</ele><time>2026-04-19T15:40:44Z</time></trkpt><trkpt lat="44.33455363688452" lon="8.535363833915"><ele>7.0</ele><time>2026-04-19T15:40:45Z</time></trkpt><trkpt lat="44.33452587794249" lon="8.535151826445246"><ele>7.0</ele><time>2026-04-19T15:40:46Z</time></trkpt><trkpt lat="44.33450202144645" lon="8.534937222961087"><ele>9.0</ele><time>2026-04-19T15:40:47Z</time></trkpt><trkpt lat="44.33448341105727" lon="8.53472377036815"><ele>11.0</ele><time>2026-04-19T15:40:48Z</time></trkpt><trkpt lat="44.3344610101724" lon="8.534504828042344"><ele>13.0</ele><time>2026-04-19T15:40:49Z</time></trkpt><trkpt lat="44.334441415135245" lon="8.53428234610573"><ele>13.333333333333332</ele><time>2026-04-19T15:40:50Z</time></trkpt><trkpt lat="44.334421338659574" lon="8.534061559529297"><ele>13.666666666666668</ele><time>2026-04-19T15:40:51Z</time></trkpt><trkpt lat="44.3343987379598" lon="8.533841183385166"><ele>14.0</ele><time>2026-04-19T15:40:52Z</time></trkpt><trkpt lat="44.334364245315335" lon="8.533619365208306"><ele>12.333333333333334</ele><time>2026-04-19T15:40:53Z</time></trkpt><trkpt lat="44.33432498688416" lon="8.533405823974201"><ele>10.666666666666668</ele><time>2026-04-19T15:40:54Z</time></trkpt><trkpt lat="44.334275855537406" lon="8.533201074730993"><ele>9.0</ele><time>2026-04-19T15:40:55Z</time></trkpt><trkpt lat="44.33421928347501" lon="8.533009133996321"><ele>11.0</ele><time>2026-04-19T15:40:56Z</time></trkpt><trkpt lat="44.3341594982807" lon="8.532838328057464"><ele>13.0</ele><time>2026-04-19T15:40:57Z</time></trkpt><trkpt lat="44.33409769163873" lon="8.532672286075634"><ele>15.0</ele><time>2026-04-19T15:40:58Z</time></trkpt><trkpt lat="44.33404513211566" lon="8.532510048617555"><ele>17.0</ele><time>2026-04-19T15:40:59Z</time></trkpt><trkpt lat="44.33400315770532" lon="8.53235587126953"><ele>17.0</ele><time>2026-04-19T15:41:00Z</time></trkpt><trkpt lat="44.33395879110665" lon="8.532200913600777"><ele>17.0</ele><time>2026-04-19T15:41:01Z</time></trkpt><trkpt lat="44.333919951268726" lon="8.53202555445607"><ele>17.0</ele><time>2026-04-19T15:41:02Z</time></trkpt><trkpt lat="44.33388008924382" lon="8.531837416407875"><ele>17.0</ele><time>2026-04-19T15:41:03Z</time></trkpt><trkpt lat="44.333835134430814" lon="8.53163496453265"><ele>15.0</ele><time>2026-04-19T15:41:04Z</time></trkpt><trkpt lat="44.33378601998574" lon="8.531423945249783"><ele>13.0</ele><time>2026-04-19T15:41:05Z</time></trkpt><trkpt lat="44.333734221125965" lon="8.531194869116375"><ele>11.0</ele><time>2026-04-19T15:41:06Z</time></trkpt><trkpt lat="44.33367457740661" lon="8.530939621242592"><ele>11.0</ele><time>2026-04-19T15:41:07Z</time></trkpt><trkpt lat="44.333611340029464" lon="8.530673572748636"><ele>11.0</ele><time>2026-04-19T15:41:08Z</time></trkpt><trkpt lat="44.333550453653324" lon="8.530404234031641"><ele>11.0</ele><time>2026-04-19T15:41:09Z</time></trkpt><trkpt lat="44.33349111920575" lon="8.530159248098322"><ele>12.0</ele><time>2026-04-19T15:41:10Z</time></trkpt><trkpt lat="44.33342885236875" lon="8.529933058876797"><ele>13.0</ele><time>2026-04-19T15:41:11Z</time></trkpt><trkpt lat="44.33336342017686" lon="8.529725290986404"><ele>14.0</ele><time>2026-04-19T15:41:12Z</time></trkpt><trkpt lat="44.33328746936553" lon="8.529526994417598"><ele>11.0</ele><time>2026-04-19T15:41:13Z</time></trkpt><trkpt lat="44.33319279371841" lon="8.529330213511479"><ele>8.0</ele><time>2026-04-19T15:41:14Z</time></trkpt><trkpt lat="44.333089566658444" lon="8.529155116421144"><ele>5.0</ele><time>2026-04-19T15:41:15Z</time></trkpt><trkpt lat="44.33298432354176" lon="8.528996559578633"><ele>5.0</ele><time>2026-04-19T15:41:16Z</time></trkpt><trkpt lat="44.33287352633749" lon="8.528850805817685"><ele>5.0</ele><time>2026-04-19T15:41:17Z</time></trkpt><trkpt lat="44.33276231305457" lon="8.528706368577346"><ele>5.0</ele><time>2026-04-19T15:41:18Z</time></trkpt><trkpt lat="44.332660520848805" lon="8.52856527795729"><ele>5.0</ele><time>2026-04-19T15:41:19Z</time></trkpt><trkpt lat="44.332572275846324" lon="8.528428551149728"><ele>7.25</ele><time>2026-04-19T15:41:20Z</time></trkpt><trkpt lat="44.33249881840101" lon="8.528293083887398"><ele>9.5</ele><time>2026-04-19T15:41:21Z</time></trkpt><trkpt lat="44.33244604361048" lon="8.528149781678968"><ele>11.75</ele><time>2026-04-19T15:41:22Z</time></trkpt><trkpt lat="44.33241817694339" lon="8.52799444403412"><ele>14.0</ele><time>2026-04-19T15:41:23Z</time></trkpt><trkpt lat="44.33240989139352" lon="8.527831206060672"><ele>15.0</ele><time>2026-04-19T15:41:24Z</time></trkpt><trkpt lat="44.332417041670816" lon="8.527660431761715"><ele>16.0</ele><time>2026-04-19T15:41:25Z</time></trkpt><trkpt lat="44.3324233395008" lon="8.527473165966658"><ele>17.0</ele><time>2026-04-19T15:41:26Z</time></trkpt><trkpt lat="44.332427669125956" lon="8.52727779363921"><ele>18.0</ele><time>2026-04-19T15:41:27Z</time></trkpt><trkpt lat="44.3324274977185" lon="8.527076947444748"><ele>19.333333333333332</ele><time>2026-04-19T15:41:28Z</time></trkpt><trkpt lat="44.33242439605714" lon="8.526867395535051"><ele>20.666666666666664</ele><time>2026-04-19T15:41:29Z</time></trkpt><trkpt lat="44.332422249376336" lon="8.526650477795007"><ele>22.0</ele><time>2026-04-19T15:41:30Z</time></trkpt><trkpt lat="44.332417906375866" lon="8.526425985190397"><ele>21.333333333333332</ele><time>2026-04-19T15:41:31Z</time></trkpt><trkpt lat="44.33241881681312" lon="8.526202591592027"><ele>20.666666666666668</ele><time>2026-04-19T15:41:32Z</time></trkpt><trkpt lat="44.332418386102724" lon="8.525991178721872"><ele>20.0</ele><time>2026-04-19T15:41:33Z</time></trkpt><trkpt lat="44.332417770643275" lon="8.52578915823737"><ele>20.0</ele><time>2026-04-19T15:41:34Z</time></trkpt><trkpt lat="44.332417389986865" lon="8.525596109291868"><ele>20.0</ele><time>2026-04-19T15:41:35Z</time></trkpt><trkpt lat="44.3324160297516" lon="8.525412973287327"><ele>20.0</ele><time>2026-04-19T15:41:36Z</time></trkpt><trkpt lat="44.33241387144257" lon="8.525234575160336"><ele>20.0</ele><time>2026-04-19T15:41:37Z</time></trkpt><trkpt lat="44.332413287885075" lon="8.52505721402145"><ele>21.5</ele><time>2026-04-19T15:41:38Z</time></trkpt><trkpt lat="44.332414270665815" lon="8.524880776599204"><ele>23.0</ele><time>2026-04-19T15:41:39Z</time></trkpt><trkpt lat="44.332413663211476" lon="8.524703553386395"><ele>24.5</ele><time>2026-04-19T15:41:40Z</time></trkpt><trkpt lat="44.33241133202799" lon="8.52452578640687"><ele>26.0</ele><time>2026-04-19T15:41:41Z</time></trkpt><trkpt lat="44.332417043526675" lon="8.524318704260686"><ele>29.75</ele><time>2026-04-19T15:41:42Z</time></trkpt><trkpt lat="44.33240695562148" lon="8.524121508227818"><ele>33.5</ele><time>2026-04-19T15:41:43Z</time></trkpt><trkpt lat="44.332423330440186" lon="8.523920232375435"><ele>37.25</ele><time>2026-04-19T15:41:44Z</time></trkpt><trkpt lat="44.332426599276594" lon="8.523730985739993"><ele>41.0</ele><time>2026-04-19T15:41:45Z</time></trkpt><trkpt lat="44.33242005719387" lon="8.523555255900947"><ele>45.0</ele><time>2026-04-19T15:41:45.999Z</time></trkpt><trkpt lat="44.33240724175533" lon="8.523325739069804"><ele>49.0</ele><time>2026-04-19T15:41:46.999Z</time></trkpt><trkpt lat="44.33241291807428" lon="8.523112818878584"><ele>53.0</ele><time>2026-04-19T15:41:47.999Z</time></trkpt><trkpt lat="44.33241219457365" lon="8.522913477158541"><ele>53.66666666666667</ele><time>2026-04-19T15:41:48.999Z</time></trkpt><trkpt lat="44.33241147562387" lon="8.522689579291795"><ele>54.33333333333333</ele><time>2026-04-19T15:41:50.071Z</time></trkpt><trkpt lat="44.332410939990446" lon="8.522479825646032"><ele>55.0</ele><time>2026-04-19T15:41:51.056Z</time></trkpt><trkpt lat="44.33240999942027" lon="8.522258797545197"><ele>50.0</ele><time>2026-04-19T15:41:52.04Z</time></trkpt><trkpt lat="44.332392624630145" lon="8.522027391953694"><ele>45.0</ele><time>2026-04-19T15:41:53.041Z</time></trkpt><trkpt lat="44.3324366519231" lon="8.521794174379849"><ele>40.0</ele><time>2026-04-19T15:41:54.036Z</time></trkpt><trkpt lat="44.332338039137575" lon="8.520509118626135"><ele>35.6</ele><time>2026-04-19T15:42:01.999Z</time></trkpt><trkpt lat="44.33233064401248" lon="8.520381332403078"><ele>31.2</ele><time>2026-04-19T15:42:02.999Z</time></trkpt><trkpt lat="44.33238018612359" lon="8.520222946737292"><ele>26.8</ele><time>2026-04-19T15:42:03.999Z</time></trkpt><trkpt lat="44.33240578324698" lon="8.520107735700108"><ele>22.4</ele><time>2026-04-19T15:42:04.999Z</time></trkpt><trkpt lat="44.33244567267644" lon="8.520007593877981"><ele>18.0</ele><time>2026-04-19T15:42:05.999Z</time></trkpt><trkpt lat="44.33248319019434" lon="8.519878085862839"><ele>18.0</ele><time>2026-04-19T15:42:07.999Z</time></trkpt><trkpt lat="44.332384417367415" lon="8.519775920406426"><ele>18.0</ele><time>2026-04-19T15:42:09.999Z</time></trkpt><trkpt lat="44.33232947362185" lon="8.519707511907656"><ele>18.0</ele><time>2026-04-19T15:42:10.999Z</time></trkpt><trkpt lat="44.33229129099605" lon="8.519617086654025"><ele>18.0</ele><time>2026-04-19T15:42:11.999Z</time></trkpt><trkpt lat="44.33226084399265" lon="8.519513986769082"><ele>18.0</ele><time>2026-04-19T15:42:12.999Z</time></trkpt><trkpt lat="44.33222938925676" lon="8.519407023472866"><ele>18.0</ele><time>2026-04-19T15:42:13.999Z</time></trkpt><trkpt lat="44.33219763965556" lon="8.519295626762526"><ele>16.666666666666668</ele><time>2026-04-19T15:42:14.999Z</time></trkpt><trkpt lat="44.33217011534222" lon="8.519189188141711"><ele>15.333333333333334</ele><time>2026-04-19T15:42:15.999Z</time></trkpt><trkpt lat="44.332139623318795" lon="8.519085045252833"><ele>14.0</ele><time>2026-04-19T15:42:16.999Z</time></trkpt><trkpt lat="44.33211248748315" lon="8.518982640873222"><ele>12.666666666666668</ele><time>2026-04-19T15:42:17.999Z</time></trkpt><trkpt lat="44.33208480751024" lon="8.518882378367584"><ele>11.333333333333334</ele><time>2026-04-19T15:42:18.999Z</time></trkpt><trkpt lat="44.33205752703072" lon="8.518783555880427"><ele>10.0</ele><time>2026-04-19T15:42:19.999Z</time></trkpt><trkpt lat="44.33202834650991" lon="8.518687731756382"><ele>10.0</ele><time>2026-04-19T15:42:20.999Z</time></trkpt><trkpt lat="44.331998255849804" lon="8.518592927120073"><ele>10.0</ele><time>2026-04-19T15:42:21.999Z</time></trkpt><trkpt lat="44.331960384778554" lon="8.518444529204887"><ele>10.0</ele><time>2026-04-19T15:42:23.999Z</time></trkpt><trkpt lat="44.33193381350192" lon="8.518339874329817"><ele>10.0</ele><time>2026-04-19T15:42:25.999Z</time></trkpt><trkpt lat="44.33189795796759" lon="8.518256212097597"><ele>10.0</ele><time>2026-04-19T15:42:56Z</time></trkpt><trkpt lat="44.3318675000652" lon="8.518156207362797"><ele>10.0</ele><time>2026-04-19T15:42:58Z</time></trkpt><trkpt lat="44.33184118271758" lon="8.518009202673454"><ele>10.0</ele><time>2026-04-19T15:43:00Z</time></trkpt><trkpt lat="44.33181623824827" lon="8.517922511293197"><ele>10.0</ele><time>2026-04-19T15:43:01Z</time></trkpt><trkpt lat="44.331772761487926" lon="8.517833443226591"><ele>10.0</ele><time>2026-04-19T15:43:02Z</time></trkpt><trkpt lat="44.33174662139899" lon="8.517725588527762"><ele>10.0</ele><time>2026-04-19T15:43:03Z</time></trkpt><trkpt lat="44.331717078032035" lon="8.517614003845384"><ele>10.0</ele><time>2026-04-19T15:43:04Z</time></trkpt><trkpt lat="44.331686693877955" lon="8.51750664646243"><ele>10.0</ele><time>2026-04-19T15:43:05Z</time></trkpt><trkpt lat="44.3316549553224" lon="8.517402707674554"><ele>10.666666666666668</ele><time>2026-04-19T15:43:06Z</time></trkpt><trkpt lat="44.33162393939244" lon="8.517301122068071"><ele>11.333333333333334</ele><time>2026-04-19T15:43:07Z</time></trkpt><trkpt lat="44.33159524221968" lon="8.517203188894156"><ele>12.0</ele><time>2026-04-19T15:43:08Z</time></trkpt><trkpt lat="44.33156656396826" lon="8.517106375015"><ele>12.666666666666668</ele><time>2026-04-19T15:43:09Z</time></trkpt><trkpt lat="44.331539145562985" lon="8.517006854731418"><ele>13.333333333333334</ele><time>2026-04-19T15:43:10Z</time></trkpt><trkpt lat="44.331510200821626" lon="8.516901575132996"><ele>14.0</ele><time>2026-04-19T15:43:11Z</time></trkpt><trkpt lat="44.33148029967886" lon="8.5167934915499"><ele>14.166666666666668</ele><time>2026-04-19T15:43:12Z</time></trkpt><trkpt lat="44.33144766083565" lon="8.516685968251606"><ele>14.333333333333334</ele><time>2026-04-19T15:43:13Z</time></trkpt><trkpt lat="44.33141382562662" lon="8.516575508660688"><ele>14.5</ele><time>2026-04-19T15:43:14Z</time></trkpt><trkpt lat="44.331395360394076" lon="8.516457563744368"><ele>14.666666666666668</ele><time>2026-04-19T15:43:15Z</time></trkpt><trkpt lat="44.33136334836107" lon="8.516346054093626"><ele>14.833333333333334</ele><time>2026-04-19T15:43:16Z</time></trkpt><trkpt lat="44.331316078516984" lon="8.516243286679128"><ele>15.0</ele><time>2026-04-19T15:43:17Z</time></trkpt><trkpt lat="44.33128700907187" lon="8.51613087700313"><ele>14.0</ele><time>2026-04-19T15:43:18Z</time></trkpt><trkpt lat="44.33125644231758" lon="8.516015379646701"><ele>13.0</ele><time>2026-04-19T15:43:19Z</time></trkpt><trkpt lat="44.33122606708171" lon="8.515902275419023"><ele>12.0</ele><time>2026-04-19T15:43:20Z</time></trkpt><trkpt lat="44.33119337032666" lon="8.515793099664009"><ele>11.0</ele><time>2026-04-19T15:43:21Z</time></trkpt><trkpt lat="44.33116309261452" lon="8.515681360864098"><ele>10.0</ele><time>2026-04-19T15:43:22Z</time></trkpt><trkpt lat="44.33113242885473" lon="8.515566601112075"><ele>9.0</ele><time>2026-04-19T15:43:23Z</time></trkpt><trkpt lat="44.33110485595338" lon="8.515452628378734"><ele>9.0</ele><time>2026-04-19T15:43:24Z</time></trkpt><trkpt lat="44.3310773529686" lon="8.515335283110716"><ele>9.0</ele><time>2026-04-19T15:43:25Z</time></trkpt><trkpt lat="44.33104231320179" lon="8.515218864114248"><ele>9.0</ele><time>2026-04-19T15:43:26Z</time></trkpt><trkpt lat="44.33100408866836" lon="8.515100994221056"><ele>9.0</ele><time>2026-04-19T15:43:27Z</time></trkpt><trkpt lat="44.33096633601539" lon="8.51497527779295"><ele>9.0</ele><time>2026-04-19T15:43:28Z</time></trkpt><trkpt lat="44.33092629353701" lon="8.514843929365432"><ele>9.0</ele><time>2026-04-19T15:43:29Z</time></trkpt><trkpt lat="44.33088749344538" lon="8.514707931651996"><ele>9.0</ele><time>2026-04-19T15:43:30Z</time></trkpt><trkpt lat="44.330846780722936" lon="8.514568513720395"><ele>9.0</ele><time>2026-04-19T15:43:31Z</time></trkpt><trkpt lat="44.33080552920307" lon="8.51442708314279"><ele>9.0</ele><time>2026-04-19T15:43:32Z</time></trkpt><trkpt lat="44.33076813135111" lon="8.514288402366097"><ele>9.0</ele><time>2026-04-19T15:43:33Z</time></trkpt><trkpt lat="44.33073220676284" lon="8.514155148367095"><ele>9.0</ele><time>2026-04-19T15:43:34Z</time></trkpt><trkpt lat="44.33069567248895" lon="8.514028278428302"><ele>9.0</ele><time>2026-04-19T15:43:35Z</time></trkpt><trkpt lat="44.33066048347223" lon="8.513905961053974"><ele>9.0</ele><time>2026-04-19T15:43:36Z</time></trkpt><trkpt lat="44.33062979170762" lon="8.513795235957947"><ele>9.0</ele><time>2026-04-19T15:43:37Z</time></trkpt><trkpt lat="44.33060077850022" lon="8.51368906441908"><ele>9.0</ele><time>2026-04-19T15:43:38Z</time></trkpt><trkpt lat="44.33057041978413" lon="8.513588958062563"><ele>9.0</ele><time>2026-04-19T15:43:39Z</time></trkpt><trkpt lat="44.33054106449712" lon="8.51349265618867"><ele>8.666666666666666</ele><time>2026-04-19T15:43:40Z</time></trkpt><trkpt lat="44.33051389292466" lon="8.513400279369511"><ele>8.333333333333334</ele><time>2026-04-19T15:43:41Z</time></trkpt><trkpt lat="44.330500020373826" lon="8.513309507513165"><ele>8.0</ele><time>2026-04-19T15:43:42Z</time></trkpt><trkpt lat="44.33050704403362" lon="8.513151652852793"><ele>7.666666666666667</ele><time>2026-04-19T15:43:44Z</time></trkpt><trkpt lat="44.33049982881593" lon="8.513040010988721"><ele>7.333333333333334</ele><time>2026-04-19T15:43:46Z</time></trkpt><trkpt lat="44.33047418268587" lon="8.512957842410195"><ele>7.0</ele><time>2026-04-19T15:43:48Z</time></trkpt><trkpt lat="44.33041828495716" lon="8.51285945068761"><ele>7.000000000000001</ele><time>2026-04-19T15:43:51Z</time></trkpt><trkpt lat="44.330362986954505" lon="8.51280614860875"><ele>7.0</ele><time>2026-04-19T15:43:52Z</time></trkpt><trkpt lat="44.330318154176005" lon="8.512691297100135"><ele>7.0</ele><time>2026-04-19T15:43:53.999Z</time></trkpt><trkpt lat="44.33029272364399" lon="8.512599595093143"><ele>7.0</ele><time>2026-04-19T15:43:55.999Z</time></trkpt><trkpt lat="44.33025805002396" lon="8.512465309331237"><ele>7.000000000000001</ele><time>2026-04-19T15:43:58.999Z</time></trkpt><trkpt lat="44.33020591125519" lon="8.512325336577069"><ele>7.0</ele><time>2026-04-19T15:44:00.999Z</time></trkpt><trkpt lat="44.33018385814202" lon="8.512208282760627"><ele>6.75</ele><time>2026-04-19T15:44:01.999Z</time></trkpt><trkpt lat="44.330144721299774" lon="8.512069090852941"><ele>6.5</ele><time>2026-04-19T15:44:02.999Z</time></trkpt><trkpt lat="44.33008540941588" lon="8.511916220163155"><ele>6.25</ele><time>2026-04-19T15:44:03.999Z</time></trkpt><trkpt lat="44.33004939133354" lon="8.511748121265633"><ele>6.0</ele><time>2026-04-19T15:44:04.999Z</time></trkpt><trkpt lat="44.3300027052085" lon="8.511596293940698"><ele>6.0</ele><time>2026-04-19T15:44:05.999Z</time></trkpt><trkpt lat="44.32996387270388" lon="8.511455375229094"><ele>6.0</ele><time>2026-04-19T15:44:06.999Z</time></trkpt><trkpt lat="44.3299269069988" lon="8.511345576593673"><ele>6.0</ele><time>2026-04-19T15:44:07.999Z</time></trkpt><trkpt lat="44.32989389756325" lon="8.511240117241945"><ele>6.0</ele><time>2026-04-19T15:44:08.999Z</time></trkpt><trkpt lat="44.32987863432016" lon="8.511126547667716"><ele>6.0</ele><time>2026-04-19T15:44:09.999Z</time></trkpt><trkpt lat="44.32983617443401" lon="8.51103485493655"><ele>6.0</ele><time>2026-04-19T15:44:10.999Z</time></trkpt><trkpt lat="44.32980368771032" lon="8.51092715916568"><ele>5.833333333333333</ele><time>2026-04-19T15:44:11.999Z</time></trkpt><trkpt lat="44.329786870020165" lon="8.51080787954435"><ele>5.666666666666667</ele><time>2026-04-19T15:44:12.999Z</time></trkpt><trkpt lat="44.32975490983101" lon="8.51069701600542"><ele>5.5</ele><time>2026-04-19T15:44:13.999Z</time></trkpt><trkpt lat="44.32971016851825" lon="8.510593762354237"><ele>5.333333333333334</ele><time>2026-04-19T15:44:14.999Z</time></trkpt><trkpt lat="44.32967936313313" lon="8.510479543157127"><ele>5.166666666666667</ele><time>2026-04-19T15:44:15.999Z</time></trkpt><trkpt lat="44.32964605415999" lon="8.51036719152705"><ele>5.0</ele><time>2026-04-19T15:44:16.999Z</time></trkpt><trkpt lat="44.3296142428774" lon="8.510252105977326"><ele>5.0</ele><time>2026-04-19T15:44:17.999Z</time></trkpt><trkpt lat="44.329581137228956" lon="8.510139132682779"><ele>5.0</ele><time>2026-04-19T15:44:18.999Z</time></trkpt><trkpt lat="44.32954798963336" lon="8.51002453031288"><ele>5.0</ele><time>2026-04-19T15:44:19.999Z</time></trkpt><trkpt lat="44.32951536750914" lon="8.509911462799105"><ele>5.0</ele><time>2026-04-19T15:44:20.999Z</time></trkpt><trkpt lat="44.329483267997034" lon="8.509797749107044"><ele>5.0</ele><time>2026-04-19T15:44:21.999Z</time></trkpt><trkpt lat="44.32944976247694" lon="8.509684213004968"><ele>5.0</ele><time>2026-04-19T15:44:22.999Z</time></trkpt><trkpt lat="44.329413887028636" lon="8.509569234508946"><ele>4.428571428571429</ele><time>2026-04-19T15:44:23.999Z</time></trkpt><trkpt lat="44.329382468576206" lon="8.50945673774489"><ele>3.857142857142857</ele><time>2026-04-19T15:44:24.999Z</time></trkpt><trkpt lat="44.32934946929917" lon="8.5093538228715"><ele>3.2857142857142856</ele><time>2026-04-19T15:44:25.999Z</time></trkpt><trkpt lat="44.329321092047344" lon="8.509250536212972"><ele>2.7142857142857144</ele><time>2026-04-19T15:44:26.999Z</time></trkpt><trkpt lat="44.32929452067706" lon="8.509156788559501"><ele>2.142857142857143</ele><time>2026-04-19T15:44:27.999Z</time></trkpt><trkpt lat="44.329268597764" lon="8.509072224400681"><ele>1.5714285714285714</ele><time>2026-04-19T15:44:28.999Z</time></trkpt><trkpt lat="44.32924435177453" lon="8.508990447211565"><ele>1.0</ele><time>2026-04-19T15:44:29.999Z</time></trkpt><trkpt lat="44.32921863729971" lon="8.508899069328816"><ele>0.9999999999999999</ele><time>2026-04-19T15:44:30.999Z</time></trkpt><trkpt lat="44.329192935680936" lon="8.508803603792078"><ele>1.0</ele><time>2026-04-19T15:44:31.999Z</time></trkpt><trkpt lat="44.32916567093095" lon="8.508702576250688"><ele>1.0</ele><time>2026-04-19T15:44:32.999Z</time></trkpt><trkpt lat="44.32913535102784" lon="8.508599273079692"><ele>1.0</ele><time>2026-04-19T15:44:33.999Z</time></trkpt><trkpt lat="44.32910248852357" lon="8.508491317005726"><ele>0.9999999999999999</ele><time>2026-04-19T15:44:34.999Z</time></trkpt><trkpt lat="44.32906771956207" lon="8.508379867053794"><ele>1.0</ele><time>2026-04-19T15:44:35.999Z</time></trkpt><trkpt lat="44.329035488369605" lon="8.508270613781692"><ele>1.1666666666666665</ele><time>2026-04-19T15:44:36.999Z</time></trkpt><trkpt lat="44.32900611792903" lon="8.50816566516066"><ele>1.3333333333333333</ele><time>2026-04-19T15:44:37.999Z</time></trkpt><trkpt lat="44.3289767755416" lon="8.508064975226995"><ele>1.5</ele><time>2026-04-19T15:44:38.999Z</time></trkpt><trkpt lat="44.328947768477356" lon="8.507965539374455"><ele>1.6666666666666665</ele><time>2026-04-19T15:44:39.999Z</time></trkpt><trkpt lat="44.3289210857855" lon="8.507866396559894"><ele>1.8333333333333333</ele><time>2026-04-19T15:44:40.999Z</time></trkpt><trkpt lat="44.32889183996411" lon="8.507765672652594"><ele>2.0</ele><time>2026-04-19T15:44:41.999Z</time></trkpt><trkpt lat="44.32886366743122" lon="8.507677914439073"><ele>2.333333333333333</ele><time>2026-04-19T15:44:42.999Z</time></trkpt><trkpt lat="44.32883599555139" lon="8.507596895690195"><ele>2.6666666666666665</ele><time>2026-04-19T15:44:43.999Z</time></trkpt><trkpt lat="44.328792159683076" lon="8.507447291131946"><ele>3.0</ele><time>2026-04-19T15:44:45.999Z</time></trkpt><trkpt lat="44.32876007517092" lon="8.507318419290224"><ele>3.333333333333333</ele><time>2026-04-19T15:44:48Z</time></trkpt><trkpt lat="44.32871864890942" lon="8.507192646614596"><ele>3.6666666666666665</ele><time>2026-04-19T15:44:50Z</time></trkpt><trkpt lat="44.32868911624324" lon="8.50710814670129"><ele>4.0</ele><time>2026-04-19T15:44:52Z</time></trkpt><trkpt lat="44.32865589601157" lon="8.50703077243974"><ele>4.2</ele><time>2026-04-19T15:44:55Z</time></trkpt><trkpt lat="44.328634173036875" lon="8.50692050054408"><ele>4.4</ele><time>2026-04-19T15:44:58Z</time></trkpt><trkpt lat="44.328609556380876" lon="8.506819513786077"><ele>4.6</ele><time>2026-04-19T15:45:00Z</time></trkpt><trkpt lat="44.32856545865728" lon="8.50668251798384"><ele>4.8</ele><time>2026-04-19T15:45:02Z</time></trkpt><trkpt lat="44.3285215079352" lon="8.506547655310236"><ele>5.0</ele><time>2026-04-19T15:45:04Z</time></trkpt><trkpt lat="44.32849269546652" lon="8.506440549721521"><ele>5.0</ele><time>2026-04-19T15:45:06Z</time></trkpt><trkpt lat="44.328465479318055" lon="8.506340274639875"><ele>5.0</ele><time>2026-04-19T15:45:21Z</time></trkpt><trkpt lat="44.328406492449965" lon="8.506236059412359"><ele>5.0</ele><time>2026-04-19T15:45:23Z</time></trkpt><trkpt lat="44.32837094416591" lon="8.50616260599696"><ele>5.0</ele><time>2026-04-19T15:45:24Z</time></trkpt><trkpt lat="44.32833827357686" lon="8.506083183149988"><ele>5.0</ele><time>2026-04-19T15:45:25Z</time></trkpt><trkpt lat="44.32828514350058" lon="8.505953578846036"><ele>5.0</ele><time>2026-04-19T15:45:27Z</time></trkpt><trkpt lat="44.32820875238049" lon="8.505780777687045"><ele>5.0</ele><time>2026-04-19T15:45:29Z</time></trkpt><trkpt lat="44.32815984684126" lon="8.505662832473192"><ele>5.0</ele><time>2026-04-19T15:45:30Z</time></trkpt><trkpt lat="44.328115884543514" lon="8.50553107088832"><ele>5.0</ele><time>2026-04-19T15:45:31Z</time></trkpt><trkpt lat="44.32808169329076" lon="8.505407427019248"><ele>5.0</ele><time>2026-04-19T15:45:32Z</time></trkpt><trkpt lat="44.328048709734944" lon="8.505304085625387"><ele>5.0</ele><time>2026-04-19T15:45:33Z</time></trkpt><trkpt lat="44.32801453437244" lon="8.505215487193292"><ele>5.0</ele><time>2026-04-19T15:45:34Z</time></trkpt><trkpt lat="44.32798118949116" lon="8.505132999785667"><ele>5.0</ele><time>2026-04-19T15:45:35Z</time></trkpt><trkpt lat="44.32794764386218" lon="8.505049902553612"><ele>5.0</ele><time>2026-04-19T15:45:36Z</time></trkpt><trkpt lat="44.32791008522486" lon="8.504968213407235"><ele>5.0</ele><time>2026-04-19T15:45:37Z</time></trkpt><trkpt lat="44.32786993622355" lon="8.504888709100495"><ele>5.0</ele><time>2026-04-19T15:45:38Z</time></trkpt><trkpt lat="44.327828857781974" lon="8.504816480422953"><ele>5.0</ele><time>2026-04-19T15:45:39Z</time></trkpt><trkpt lat="44.327752615561614" lon="8.504677437190686"><ele>5.0</ele><time>2026-04-19T15:45:41Z</time></trkpt><trkpt lat="44.327718233546854" lon="8.504598231095185"><ele>5.333333333333334</ele><time>2026-04-19T15:45:42Z</time></trkpt><trkpt lat="44.32768526868835" lon="8.50450961434077"><ele>5.666666666666667</ele><time>2026-04-19T15:45:43Z</time></trkpt><trkpt lat="44.32764319933408" lon="8.50441452224498"><ele>6.0</ele><time>2026-04-19T15:45:44Z</time></trkpt><trkpt lat="44.32761177113401" lon="8.504296646032282"><ele>6.333333333333334</ele><time>2026-04-19T15:45:45Z</time></trkpt><trkpt lat="44.32756748518723" lon="8.50418671360583"><ele>6.666666666666667</ele><time>2026-04-19T15:45:46Z</time></trkpt><trkpt lat="44.3275191052981" lon="8.504099816251975"><ele>7.0</ele><time>2026-04-19T15:45:47Z</time></trkpt><trkpt lat="44.32749235402386" lon="8.504009545850293"><ele>7.0</ele><time>2026-04-19T15:45:48Z</time></trkpt><trkpt lat="44.32746051091433" lon="8.503930404332145"><ele>7.0</ele><time>2026-04-19T15:45:49Z</time></trkpt><trkpt lat="44.3274264710857" lon="8.503846445978622"><ele>7.0</ele><time>2026-04-19T15:45:50Z</time></trkpt><trkpt lat="44.327388925444865" lon="8.503758394709724"><ele>7.0</ele><time>2026-04-19T15:45:51Z</time></trkpt><trkpt lat="44.32735378212063" lon="8.503669672200378"><ele>7.0</ele><time>2026-04-19T15:45:52Z</time></trkpt><trkpt lat="44.32731854097346" lon="8.503574146855982"><ele>7.0</ele><time>2026-04-19T15:45:53Z</time></trkpt><trkpt lat="44.327281460986896" lon="8.503480055214553"><ele>7.0</ele><time>2026-04-19T15:45:54Z</time></trkpt><trkpt lat="44.32724645908457" lon="8.503385671430479"><ele>6.833333333333334</ele><time>2026-04-19T15:45:55Z</time></trkpt><trkpt lat="44.327207021365076" lon="8.503292904102539"><ele>6.666666666666667</ele><time>2026-04-19T15:45:56Z</time></trkpt><trkpt lat="44.327165593881425" lon="8.50319758571748"><ele>6.5</ele><time>2026-04-19T15:45:57Z</time></trkpt><trkpt lat="44.327129652335984" lon="8.503101738683085"><ele>6.333333333333334</ele><time>2026-04-19T15:45:58Z</time></trkpt><trkpt lat="44.32709329355206" lon="8.503006843193058"><ele>6.166666666666667</ele><time>2026-04-19T15:45:59Z</time></trkpt><trkpt lat="44.3270513605712" lon="8.502907234384034"><ele>6.0</ele><time>2026-04-19T15:46:00Z</time></trkpt><trkpt lat="44.327013324887126" lon="8.502807847617566"><ele>6.0</ele><time>2026-04-19T15:46:00.999Z</time></trkpt><trkpt lat="44.32697721926713" lon="8.502718028636586"><ele>6.0</ele><time>2026-04-19T15:46:01.999Z</time></trkpt><trkpt lat="44.32693515578598" lon="8.502612031343718"><ele>6.0</ele><time>2026-04-19T15:46:02.999Z</time></trkpt><trkpt lat="44.3269042371177" lon="8.502469257698317"><ele>6.0</ele><time>2026-04-19T15:46:03.999Z</time></trkpt><trkpt lat="44.326858452351445" lon="8.502314876376087"><ele>6.0</ele><time>2026-04-19T15:46:04.999Z</time></trkpt><trkpt lat="44.32680242728056" lon="8.502175862108697"><ele>6.6</ele><time>2026-04-19T15:46:05.999Z</time></trkpt><trkpt lat="44.326769203506366" lon="8.502041592109428"><ele>7.199999999999999</ele><time>2026-04-19T15:46:06.999Z</time></trkpt><trkpt lat="44.326733670562284" lon="8.50191403657535"><ele>7.800000000000001</ele><time>2026-04-19T15:46:07.999Z</time></trkpt><trkpt lat="44.326694019612916" lon="8.501783930825155"><ele>8.4</ele><time>2026-04-19T15:46:08.999Z</time></trkpt><trkpt lat="44.32664782805726" lon="8.501664127764926"><ele>9.0</ele><time>2026-04-19T15:46:09.999Z</time></trkpt><trkpt lat="44.3265998948512" lon="8.50154976147896"><ele>9.0</ele><time>2026-04-19T15:46:10.999Z</time></trkpt><trkpt lat="44.32655036013041" lon="8.501442340168065"><ele>9.0</ele><time>2026-04-19T15:46:11.999Z</time></trkpt><trkpt lat="44.32649541577492" lon="8.501334567739843"><ele>9.0</ele><time>2026-04-19T15:46:12.999Z</time></trkpt><trkpt lat="44.326436129329586" lon="8.501232977156622"><ele>9.0</ele><time>2026-04-19T15:46:13.999Z</time></trkpt><trkpt lat="44.32637441499549" lon="8.501133002570576"><ele>9.0</ele><time>2026-04-19T15:46:14.999Z</time></trkpt><trkpt lat="44.326314297622545" lon="8.501038816099413"><ele>8.666666666666666</ele><time>2026-04-19T15:46:15.999Z</time></trkpt><trkpt lat="44.326253044664185" lon="8.500943035308211"><ele>8.333333333333334</ele><time>2026-04-19T15:46:16.999Z</time></trkpt><trkpt lat="44.326194777587986" lon="8.500855491954866"><ele>8.0</ele><time>2026-04-19T15:46:17.999Z</time></trkpt><trkpt lat="44.32613782829697" lon="8.50077311684905"><ele>7.666666666666667</ele><time>2026-04-19T15:46:18.999Z</time></trkpt><trkpt lat="44.32608067104313" lon="8.500692422854305"><ele>7.333333333333334</ele><time>2026-04-19T15:46:19.999Z</time></trkpt><trkpt lat="44.326020997726204" lon="8.500616521121945"><ele>7.0</ele><time>2026-04-19T15:46:20.999Z</time></trkpt><trkpt lat="44.32595990957611" lon="8.50054414832332"><ele>7.0</ele><time>2026-04-19T15:46:21.999Z</time></trkpt><trkpt lat="44.32590641167604" lon="8.500484988498329"><ele>6.999999999999999</ele><time>2026-04-19T15:46:22.999Z</time></trkpt><trkpt lat="44.32581569477619" lon="8.500383449316145"><ele>6.999999999999999</ele><time>2026-04-19T15:46:24.999Z</time></trkpt><trkpt lat="44.325719313765674" lon="8.500277626474864"><ele>7.0</ele><time>2026-04-19T15:46:26.999Z</time></trkpt><trkpt lat="44.325663356543956" lon="8.50021842901349"><ele>7.0</ele><time>2026-04-19T15:46:27.999Z</time></trkpt><trkpt lat="44.32559587140591" lon="8.50015164492442"><ele>6.6</ele><time>2026-04-19T15:46:28.999Z</time></trkpt><trkpt lat="44.32551941879796" lon="8.500078830349452"><ele>6.199999999999999</ele><time>2026-04-19T15:46:29.999Z</time></trkpt><trkpt lat="44.325427766838985" lon="8.500001765206543"><ele>5.8</ele><time>2026-04-19T15:46:30.999Z</time></trkpt><trkpt lat="44.32532865272227" lon="8.499920544546448"><ele>5.4</ele><time>2026-04-19T15:46:31.999Z</time></trkpt><trkpt lat="44.32522718227518" lon="8.499839929632618"><ele>5.0</ele><time>2026-04-19T15:46:32.999Z</time></trkpt><trkpt lat="44.32512283834392" lon="8.4997643517006"><ele>5.0</ele><time>2026-04-19T15:46:33.999Z</time></trkpt><trkpt lat="44.32501270764369" lon="8.499693020409717"><ele>5.0</ele><time>2026-04-19T15:46:34.999Z</time></trkpt><trkpt lat="44.32489820711179" lon="8.499622255356863"><ele>5.0</ele><time>2026-04-19T15:46:35.999Z</time></trkpt><trkpt lat="44.32477937287885" lon="8.499550197348501"><ele>5.0</ele><time>2026-04-19T15:46:36.999Z</time></trkpt><trkpt lat="44.324658306896154" lon="8.499475449690982"><ele>8.75</ele><time>2026-04-19T15:46:37.999Z</time></trkpt><trkpt lat="44.32453862415414" lon="8.499401745222988"><ele>12.5</ele><time>2026-04-19T15:46:38.999Z</time></trkpt><trkpt lat="44.324429477808465" lon="8.499332014606853"><ele>16.25</ele><time>2026-04-19T15:46:39.999Z</time></trkpt><trkpt lat="44.32432534596536" lon="8.499268261235509"><ele>20.0</ele><time>2026-04-19T15:46:40.999Z</time></trkpt><trkpt lat="44.324222389900854" lon="8.499202765304842"><ele>20.0</ele><time>2026-04-19T15:46:41.999Z</time></trkpt><trkpt lat="44.32411988617208" lon="8.4991349299895"><ele>20.0</ele><time>2026-04-19T15:46:42.999Z</time></trkpt><trkpt lat="44.32401820257304" lon="8.499061887488994"><ele>20.0</ele><time>2026-04-19T15:46:43.999Z</time></trkpt><trkpt lat="44.323919434309296" lon="8.498973878806455"><ele>20.0</ele><time>2026-04-19T15:46:44.999Z</time></trkpt><trkpt lat="44.32381831327885" lon="8.498879370357642"><ele>16.75</ele><time>2026-04-19T15:46:45.999Z</time></trkpt><trkpt lat="44.323717129660196" lon="8.498778425081154"><ele>13.5</ele><time>2026-04-19T15:46:46.999Z</time></trkpt><trkpt lat="44.32361649595842" lon="8.498690561552987"><ele>10.25</ele><time>2026-04-19T15:46:47.999Z</time></trkpt><trkpt lat="44.323505285586656" lon="8.498637176283554"><ele>7.0</ele><time>2026-04-19T15:46:48.999Z</time></trkpt><trkpt lat="44.323404240108815" lon="8.498575649804211"><ele>8.25</ele><time>2026-04-19T15:46:49.999Z</time></trkpt><trkpt lat="44.323241943009506" lon="8.498593430543401"><ele>9.5</ele><time>2026-04-19T15:46:50.999Z</time></trkpt><trkpt lat="44.323133921283215" lon="8.49853949716115"><ele>10.75</ele><time>2026-04-19T15:46:51.999Z</time></trkpt><trkpt lat="44.32302135735714" lon="8.498491836714072"><ele>12.0</ele><time>2026-04-19T15:46:52.999Z</time></trkpt><trkpt lat="44.322909178007656" lon="8.4984478238549"><ele>12.0</ele><time>2026-04-19T15:46:54Z</time></trkpt><trkpt lat="44.322797565946914" lon="8.498407586729595"><ele>12.0</ele><time>2026-04-19T15:46:55Z</time></trkpt><trkpt lat="44.32268258959235" lon="8.498350253881988"><ele>12.0</ele><time>2026-04-19T15:46:56Z</time></trkpt><trkpt lat="44.32256740686751" lon="8.49826854604765"><ele>12.0</ele><time>2026-04-19T15:46:57Z</time></trkpt><trkpt lat="44.32245119425744" lon="8.498174294163146"><ele>12.0</ele><time>2026-04-19T15:46:58Z</time></trkpt><trkpt lat="44.3223562704606" lon="8.49803045342699"><ele>12.0</ele><time>2026-04-19T15:46:59Z</time></trkpt><trkpt lat="44.32225748809814" lon="8.497893976298347"><ele>12.0</ele><time>2026-04-19T15:47:00Z</time></trkpt><trkpt lat="44.32215263203716" lon="8.497756589757282"><ele>12.0</ele><time>2026-04-19T15:47:01Z</time></trkpt><trkpt lat="44.32206473664253" lon="8.497607563551275"><ele>11.25</ele><time>2026-04-19T15:47:02Z</time></trkpt><trkpt lat="44.321983554725904" lon="8.497460473317263"><ele>10.5</ele><time>2026-04-19T15:47:03Z</time></trkpt><trkpt lat="44.32190233510516" lon="8.497316701623228"><ele>9.75</ele><time>2026-04-19T15:47:04Z</time></trkpt><trkpt lat="44.32181502998144" lon="8.497172013749077"><ele>9.0</ele><time>2026-04-19T15:47:05Z</time></trkpt><trkpt lat="44.32172811190952" lon="8.497033997761735"><ele>13.0</ele><time>2026-04-19T15:47:06Z</time></trkpt><trkpt lat="44.32164966896651" lon="8.496900365380554"><ele>17.0</ele><time>2026-04-19T15:47:07Z</time></trkpt><trkpt lat="44.32157946071655" lon="8.49676940740414"><ele>21.0</ele><time>2026-04-19T15:47:08Z</time></trkpt><trkpt lat="44.32152304889684" lon="8.496639025995654"><ele>25.0</ele><time>2026-04-19T15:47:09Z</time></trkpt><trkpt lat="44.321466853365344" lon="8.496500946804519"><ele>25.0</ele><time>2026-04-19T15:47:10Z</time></trkpt><trkpt lat="44.32141576096834" lon="8.496356641194518"><ele>25.0</ele><time>2026-04-19T15:47:11Z</time></trkpt><trkpt lat="44.321360340310996" lon="8.496215927148526"><ele>25.0</ele><time>2026-04-19T15:47:12Z</time></trkpt><trkpt lat="44.321306462821255" lon="8.496070693735557"><ele>25.0</ele><time>2026-04-19T15:47:13Z</time></trkpt><trkpt lat="44.321243911771774" lon="8.495943961266452"><ele>24.8</ele><time>2026-04-19T15:47:14Z</time></trkpt><trkpt lat="44.32118026155181" lon="8.495823562556572"><ele>24.6</ele><time>2026-04-19T15:47:15Z</time></trkpt><trkpt lat="44.32111734306259" lon="8.495706780092256"><ele>24.4</ele><time>2026-04-19T15:47:16Z</time></trkpt><trkpt lat="44.321055502350305" lon="8.495597514879693"><ele>24.2</ele><time>2026-04-19T15:47:17Z</time></trkpt><trkpt lat="44.320994246920755" lon="8.495492637516717"><ele>24.0</ele><time>2026-04-19T15:47:18Z</time></trkpt><trkpt lat="44.32092518121348" lon="8.495405162381326"><ele>24.0</ele><time>2026-04-19T15:47:19Z</time></trkpt><trkpt lat="44.320851461821114" lon="8.495340777195523"><ele>24.0</ele><time>2026-04-19T15:47:20Z</time></trkpt><trkpt lat="44.32076455628336" lon="8.49528897249428"><ele>24.0</ele><time>2026-04-19T15:47:21Z</time></trkpt><trkpt lat="44.32066143449164" lon="8.495244428229988"><ele>24.0</ele><time>2026-04-19T15:47:22Z</time></trkpt><trkpt lat="44.32053946375582" lon="8.495191916568587"><ele>24.0</ele><time>2026-04-19T15:47:23Z</time></trkpt><trkpt lat="44.32040201851087" lon="8.495130778328178"><ele>21.5</ele><time>2026-04-19T15:47:24Z</time></trkpt><trkpt lat="44.32027412317165" lon="8.495068587663367"><ele>19.0</ele><time>2026-04-19T15:47:25Z</time></trkpt><trkpt lat="44.320149196867845" lon="8.495009609465523"><ele>16.5</ele><time>2026-04-19T15:47:26Z</time></trkpt><trkpt lat="44.32003159233143" lon="8.494944097671613"><ele>14.0</ele><time>2026-04-19T15:47:27Z</time></trkpt><trkpt lat="44.31992867669194" lon="8.494874564691244"><ele>14.0</ele><time>2026-04-19T15:47:28Z</time></trkpt><trkpt lat="44.31983821552849" lon="8.49478763651193"><ele>14.0</ele><time>2026-04-19T15:47:29Z</time></trkpt><trkpt lat="44.31974691186364" lon="8.494686495614804"><ele>14.0</ele><time>2026-04-19T15:47:30Z</time></trkpt><trkpt lat="44.319661938167876" lon="8.4945647556529"><ele>14.0</ele><time>2026-04-19T15:47:31Z</time></trkpt><trkpt lat="44.31957364190245" lon="8.494417385223322"><ele>14.666666666666668</ele><time>2026-04-19T15:47:32Z</time></trkpt><trkpt lat="44.319466541475016" lon="8.494251920001073"><ele>15.333333333333332</ele><time>2026-04-19T15:47:33Z</time></trkpt><trkpt lat="44.3193620202996" lon="8.49408904122912"><ele>16.0</ele><time>2026-04-19T15:47:34Z</time></trkpt><trkpt lat="44.31924250347102" lon="8.493931607698153"><ele>16.0</ele><time>2026-04-19T15:47:35Z</time></trkpt><trkpt lat="44.31912686067866" lon="8.493787264070857"><ele>16.0</ele><time>2026-04-19T15:47:36Z</time></trkpt><trkpt lat="44.31900543551939" lon="8.493681067875597"><ele>16.0</ele><time>2026-04-19T15:47:37Z</time></trkpt><trkpt lat="44.318886850261904" lon="8.493584043472085"><ele>16.0</ele><time>2026-04-19T15:47:38Z</time></trkpt><trkpt lat="44.31876267408838" lon="8.493485238987976"><ele>17.75</ele><time>2026-04-19T15:47:39Z</time></trkpt><trkpt lat="44.3186320154121" lon="8.49337878653418"><ele>19.5</ele><time>2026-04-19T15:47:40Z</time></trkpt><trkpt lat="44.318504079917204" lon="8.493272206118695"><ele>21.25</ele><time>2026-04-19T15:47:41Z</time></trkpt><trkpt lat="44.31837807794854" lon="8.493174340148173"><ele>23.0</ele><time>2026-04-19T15:47:42Z</time></trkpt><trkpt lat="44.31825659244308" lon="8.493082537933189"><ele>23.0</ele><time>2026-04-19T15:47:43Z</time></trkpt><trkpt lat="44.31813210010273" lon="8.49298616561979"><ele>23.0</ele><time>2026-04-19T15:47:44Z</time></trkpt><trkpt lat="44.31800827354184" lon="8.492894906648328"><ele>23.0</ele><time>2026-04-19T15:47:45Z</time></trkpt><trkpt lat="44.31788442037281" lon="8.49279999057977"><ele>23.0</ele><time>2026-04-19T15:47:46Z</time></trkpt><trkpt lat="44.317810322449624" lon="8.492712578449433"><ele>21.25</ele><time>2026-04-19T15:47:47Z</time></trkpt><trkpt lat="44.317702212490936" lon="8.492552144842918"><ele>19.5</ele><time>2026-04-19T15:47:48Z</time></trkpt><trkpt lat="44.31759787278484" lon="8.492460659962587"><ele>17.75</ele><time>2026-04-19T15:47:49Z</time></trkpt><trkpt lat="44.31749124489558" lon="8.492351414112564"><ele>16.0</ele><time>2026-04-19T15:47:50Z</time></trkpt><trkpt lat="44.31740098429709" lon="8.492243510265848"><ele>16.0</ele><time>2026-04-19T15:47:51Z</time></trkpt><trkpt lat="44.31731465234599" lon="8.492140623191684"><ele>16.0</ele><time>2026-04-19T15:47:52Z</time></trkpt><trkpt lat="44.31723314755631" lon="8.492045300854503"><ele>16.0</ele><time>2026-04-19T15:47:53Z</time></trkpt><trkpt lat="44.317154277989125" lon="8.491947048982531"><ele>16.0</ele><time>2026-04-19T15:47:54Z</time></trkpt><trkpt lat="44.317069623987614" lon="8.491846639240826"><ele>16.0</ele><time>2026-04-19T15:47:55Z</time></trkpt><trkpt lat="44.31698028986685" lon="8.491746212954533"><ele>14.8</ele><time>2026-04-19T15:47:56Z</time></trkpt><trkpt lat="44.31689094629894" lon="8.491642154713062"><ele>13.600000000000001</ele><time>2026-04-19T15:47:57Z</time></trkpt><trkpt lat="44.31679972913573" lon="8.491543502083688"><ele>12.4</ele><time>2026-04-19T15:47:58Z</time></trkpt><trkpt lat="44.316715154097146" lon="8.491450698498518"><ele>11.2</ele><time>2026-04-19T15:47:59Z</time></trkpt><trkpt lat="44.3166338096186" lon="8.491369781869656"><ele>10.0</ele><time>2026-04-19T15:48:00Z</time></trkpt><trkpt lat="44.31654876376806" lon="8.491268880123647"><ele>10.5</ele><time>2026-04-19T15:48:01Z</time></trkpt><trkpt lat="44.31644797883435" lon="8.491150183585024"><ele>11.0</ele><time>2026-04-19T15:48:02Z</time></trkpt><trkpt lat="44.31633008795634" lon="8.491022101624134"><ele>11.5</ele><time>2026-04-19T15:48:03Z</time></trkpt><trkpt lat="44.31620984655344" lon="8.490883710084207"><ele>12.0</ele><time>2026-04-19T15:48:04Z</time></trkpt><trkpt lat="44.3160820573668" lon="8.49074641226026"><ele>12.0</ele><time>2026-04-19T15:48:05Z</time></trkpt><trkpt lat="44.31594249701063" lon="8.490623138223402"><ele>12.0</ele><time>2026-04-19T15:48:06Z</time></trkpt><trkpt lat="44.31580297637418" lon="8.490527383737989"><ele>12.0</ele><time>2026-04-19T15:48:07Z</time></trkpt><trkpt lat="44.31566863622867" lon="8.490464337775602"><ele>12.75</ele><time>2026-04-19T15:48:07.999Z</time></trkpt><trkpt lat="44.315540424390754" lon="8.490398946602232"><ele>13.5</ele><time>2026-04-19T15:48:08.999Z</time></trkpt><trkpt lat="44.31541747319166" lon="8.490337823410108"><ele>14.25</ele><time>2026-04-19T15:48:09.999Z</time></trkpt><trkpt lat="44.3152978043642" lon="8.490275932706473"><ele>15.0</ele><time>2026-04-19T15:48:10.999Z</time></trkpt><trkpt lat="44.31518372942573" lon="8.490205757493646"><ele>15.0</ele><time>2026-04-19T15:48:11.999Z</time></trkpt><trkpt lat="44.31507699332456" lon="8.490107797498132"><ele>15.0</ele><time>2026-04-19T15:48:12.999Z</time></trkpt><trkpt lat="44.31496301827013" lon="8.489965659283762"><ele>15.0</ele><time>2026-04-19T15:48:13.999Z</time></trkpt><trkpt lat="44.31487079404396" lon="8.489799165232721"><ele>15.0</ele><time>2026-04-19T15:48:14.999Z</time></trkpt><trkpt lat="44.314804329374724" lon="8.489641520338779"><ele>12.6</ele><time>2026-04-19T15:48:15.999Z</time></trkpt><trkpt lat="44.31475047709619" lon="8.489500934724125"><ele>10.2</ele><time>2026-04-19T15:48:16.999Z</time></trkpt><trkpt lat="44.314703099194055" lon="8.489369374946317"><ele>7.8</ele><time>2026-04-19T15:48:17.999Z</time></trkpt><trkpt lat="44.3146540634182" lon="8.489241141102346"><ele>5.4</ele><time>2026-04-19T15:48:18.999Z</time></trkpt><trkpt lat="44.314593476516556" lon="8.48910066888105"><ele>3.0</ele><time>2026-04-19T15:48:19.999Z</time></trkpt><trkpt lat="44.31452166093217" lon="8.488956127172003"><ele>3.0</ele><time>2026-04-19T15:48:20.999Z</time></trkpt><trkpt lat="44.31445002086404" lon="8.488837748375094"><ele>3.0</ele><time>2026-04-19T15:48:21.999Z</time></trkpt><trkpt lat="44.314377025856984" lon="8.488740741517635"><ele>3.0</ele><time>2026-04-19T15:48:22.999Z</time></trkpt><trkpt lat="44.31430461894487" lon="8.488645216229676"><ele>3.0</ele><time>2026-04-19T15:48:23.999Z</time></trkpt><trkpt lat="44.314235230012955" lon="8.488554823778983"><ele>3.0</ele><time>2026-04-19T15:48:24.999Z</time></trkpt><trkpt lat="44.31417116362825" lon="8.488463019800108"><ele>2.6</ele><time>2026-04-19T15:48:25.999Z</time></trkpt><trkpt lat="44.31411116524137" lon="8.48837451549106"><ele>2.1999999999999997</ele><time>2026-04-19T15:48:26.999Z</time></trkpt><trkpt lat="44.31404557922274" lon="8.488281981937186"><ele>1.8</ele><time>2026-04-19T15:48:27.999Z</time></trkpt><trkpt lat="44.313970051686596" lon="8.488172364847033"><ele>1.4</ele><time>2026-04-19T15:48:28.999Z</time></trkpt><trkpt lat="44.3138872463572" lon="8.488050675999956"><ele>1.0</ele><time>2026-04-19T15:48:29.999Z</time></trkpt><trkpt lat="44.31380176800703" lon="8.487935958771224"><ele>7.2</ele><time>2026-04-19T15:48:30.999Z</time></trkpt><trkpt lat="44.313718179073646" lon="8.487839375219554"><ele>13.4</ele><time>2026-04-19T15:48:31.999Z</time></trkpt><trkpt lat="44.31363588040572" lon="8.487768775911515"><ele>19.6</ele><time>2026-04-19T15:48:32.999Z</time></trkpt><trkpt lat="44.31355472986236" lon="8.487722023339138"><ele>25.8</ele><time>2026-04-19T15:48:33.999Z</time></trkpt><trkpt lat="44.31346868236865" lon="8.487691146388617"><ele>32.0</ele><time>2026-04-19T15:48:34.999Z</time></trkpt><trkpt lat="44.31337907467325" lon="8.487666427202498"><ele>32.0</ele><time>2026-04-19T15:48:35.999Z</time></trkpt><trkpt lat="44.313281190609906" lon="8.487652438764433"><ele>32.0</ele><time>2026-04-19T15:48:36.999Z</time></trkpt><trkpt lat="44.31317477881912" lon="8.48764922042643"><ele>32.0</ele><time>2026-04-19T15:48:37.999Z</time></trkpt><trkpt lat="44.3130656432729" lon="8.48765519053004"><ele>32.0</ele><time>2026-04-19T15:48:38.999Z</time></trkpt><trkpt lat="44.31295356980727" lon="8.487663301860906"><ele>32.0</ele><time>2026-04-19T15:48:39.999Z</time></trkpt><trkpt lat="44.31284562991467" lon="8.487666411348968"><ele>29.6</ele><time>2026-04-19T15:48:40.999Z</time></trkpt><trkpt lat="44.312738990279406" lon="8.487671626530386"><ele>27.200000000000003</ele><time>2026-04-19T15:48:41.999Z</time></trkpt><trkpt lat="44.312631333467344" lon="8.487681968730536"><ele>24.8</ele><time>2026-04-19T15:48:42.999Z</time></trkpt><trkpt lat="44.31252720681408" lon="8.487666843563684"><ele>22.4</ele><time>2026-04-19T15:48:43.999Z</time></trkpt><trkpt lat="44.31242841613348" lon="8.48763264560067"><ele>20.0</ele><time>2026-04-19T15:48:44.999Z</time></trkpt><trkpt lat="44.312338146219346" lon="8.48757394694562"><ele>20.0</ele><time>2026-04-19T15:48:45.999Z</time></trkpt><trkpt lat="44.31225656767894" lon="8.48750359857225"><ele>20.0</ele><time>2026-04-19T15:48:46.999Z</time></trkpt><trkpt lat="44.31218890258741" lon="8.487415524943916"><ele>20.0</ele><time>2026-04-19T15:48:47.999Z</time></trkpt><trkpt lat="44.31213361206712" lon="8.487321851536507"><ele>20.0</ele><time>2026-04-19T15:48:48.999Z</time></trkpt><trkpt lat="44.31207829566004" lon="8.48721879152625"><ele>20.0</ele><time>2026-04-19T15:48:49.999Z</time></trkpt><trkpt lat="44.312019832959294" lon="8.487107186992551"><ele>17.8</ele><time>2026-04-19T15:48:50.999Z</time></trkpt><trkpt lat="44.31196137479391" lon="8.48700052270827"><ele>15.6</ele><time>2026-04-19T15:48:51.999Z</time></trkpt><trkpt lat="44.3119011992185" lon="8.486892592572817"><ele>13.4</ele><time>2026-04-19T15:48:52.999Z</time></trkpt><trkpt lat="44.31183881325926" lon="8.486785744060473"><ele>11.2</ele><time>2026-04-19T15:48:53.999Z</time></trkpt><trkpt lat="44.311775644393244" lon="8.486680839528557"><ele>9.0</ele><time>2026-04-19T15:48:54.999Z</time></trkpt><trkpt lat="44.31170905622741" lon="8.486580167834902"><ele>9.0</ele><time>2026-04-19T15:48:55.999Z</time></trkpt><trkpt lat="44.311637192836066" lon="8.486484105257508"><ele>9.0</ele><time>2026-04-19T15:48:56.999Z</time></trkpt><trkpt lat="44.31155975690944" lon="8.486388668803553"><ele>9.0</ele><time>2026-04-19T15:48:57.999Z</time></trkpt><trkpt lat="44.31147744770931" lon="8.486294132874402"><ele>9.0</ele><time>2026-04-19T15:48:58.999Z</time></trkpt><trkpt lat="44.31139189915342" lon="8.486198322400117"><ele>9.0</ele><time>2026-04-19T15:49:00Z</time></trkpt><trkpt lat="44.31130310638668" lon="8.48610357254238"><ele>9.0</ele><time>2026-04-19T15:49:01Z</time></trkpt><trkpt lat="44.31121275718073" lon="8.486011046447985"><ele>9.0</ele><time>2026-04-19T15:49:02Z</time></trkpt><trkpt lat="44.31111688123866" lon="8.485920230683126"><ele>9.0</ele><time>2026-04-19T15:49:03Z</time></trkpt><trkpt lat="44.31101721399156" lon="8.485834283466092"><ele>9.0</ele><time>2026-04-19T15:49:04Z</time></trkpt><trkpt lat="44.31091188512301" lon="8.485750458922652"><ele>9.0</ele><time>2026-04-19T15:49:05Z</time></trkpt><trkpt lat="44.31080577213524" lon="8.485661645849332"><ele>9.0</ele><time>2026-04-19T15:49:06Z</time></trkpt><trkpt lat="44.310697765059096" lon="8.485576155686093"><ele>9.0</ele><time>2026-04-19T15:49:07Z</time></trkpt><trkpt lat="44.310592026540206" lon="8.48549139590451"><ele>9.0</ele><time>2026-04-19T15:49:08Z</time></trkpt><trkpt lat="44.310495622351326" lon="8.485410119475803"><ele>8.666666666666666</ele><time>2026-04-19T15:49:09Z</time></trkpt><trkpt lat="44.31040382879582" lon="8.485332192552704"><ele>8.333333333333334</ele><time>2026-04-19T15:49:10Z</time></trkpt><trkpt lat="44.31032176746019" lon="8.485262784993587"><ele>8.0</ele><time>2026-04-19T15:49:11Z</time></trkpt><trkpt lat="44.31025270858989" lon="8.485202282955045"><ele>7.666666666666667</ele><time>2026-04-19T15:49:12Z</time></trkpt><trkpt lat="44.310190166445004" lon="8.485136862504834"><ele>7.333333333333334</ele><time>2026-04-19T15:49:13Z</time></trkpt><trkpt lat="44.31013680055085" lon="8.485057929759321"><ele>7.0</ele><time>2026-04-19T15:49:14Z</time></trkpt><trkpt lat="44.310084609917126" lon="8.48497738076278"><ele>7.000000000000001</ele><time>2026-04-19T15:49:15Z</time></trkpt><trkpt lat="44.31002373299894" lon="8.484904533041384"><ele>7.0</ele><time>2026-04-19T15:49:16Z</time></trkpt><trkpt lat="44.30994776409454" lon="8.484841902129123"><ele>7.0</ele><time>2026-04-19T15:49:17Z</time></trkpt><trkpt lat="44.30986886759036" lon="8.484789181479984"><ele>7.0</ele><time>2026-04-19T15:49:18Z</time></trkpt><trkpt lat="44.309797951327596" lon="8.484749949226872"><ele>7.000000000000001</ele><time>2026-04-19T15:49:19Z</time></trkpt><trkpt lat="44.309725778347506" lon="8.484744319454279"><ele>7.0</ele><time>2026-04-19T15:49:20Z</time></trkpt><trkpt lat="44.30965671748293" lon="8.48476552876289"><ele>6.666666666666667</ele><time>2026-04-19T15:49:21Z</time></trkpt><trkpt lat="44.309588772897904" lon="8.484784933822612"><ele>6.333333333333334</ele><time>2026-04-19T15:49:22Z</time></trkpt><trkpt lat="44.30952288180924" lon="8.484795879060794"><ele>6.0</ele><time>2026-04-19T15:49:23Z</time></trkpt><trkpt lat="44.30944845095582" lon="8.48479006900695"><ele>5.666666666666667</ele><time>2026-04-19T15:49:24Z</time></trkpt><trkpt lat="44.309382997064056" lon="8.484767642370748"><ele>5.333333333333334</ele><time>2026-04-19T15:49:25Z</time></trkpt><trkpt lat="44.30925946832833" lon="8.484717599273898"><ele>5.0</ele><time>2026-04-19T15:49:27Z</time></trkpt><trkpt lat="44.30918861874265" lon="8.484690506801908"><ele>5.0</ele><time>2026-04-19T15:49:28Z</time></trkpt><trkpt lat="44.30911138940734" lon="8.484665366396024"><ele>5.0</ele><time>2026-04-19T15:49:29Z</time></trkpt><trkpt lat="44.309028718126406" lon="8.484638785331192"><ele>5.0</ele><time>2026-04-19T15:49:30Z</time></trkpt><trkpt lat="44.30894144548749" lon="8.484611621306057"><ele>5.0</ele><time>2026-04-19T15:49:31Z</time></trkpt><trkpt lat="44.308839931353845" lon="8.484587810688211"><ele>5.0</ele><time>2026-04-19T15:49:32Z</time></trkpt><trkpt lat="44.308727915144104" lon="8.48457258190619"><ele>5.0</ele><time>2026-04-19T15:49:33Z</time></trkpt><trkpt lat="44.30862992766017" lon="8.484561661687442"><ele>5.0</ele><time>2026-04-19T15:49:34Z</time></trkpt><trkpt lat="44.30853948168251" lon="8.484551925349972"><ele>5.0</ele><time>2026-04-19T15:49:35Z</time></trkpt><trkpt lat="44.308452971005366" lon="8.484553425150258"><ele>5.0</ele><time>2026-04-19T15:49:36Z</time></trkpt><trkpt lat="44.30837141842036" lon="8.484568836315013"><ele>5.0</ele><time>2026-04-19T15:49:37Z</time></trkpt><trkpt lat="44.308294141426835" lon="8.484590983438434"><ele>5.0</ele><time>2026-04-19T15:49:38Z</time></trkpt><trkpt lat="44.30822169834273" lon="8.484617957066407"><ele>5.0</ele><time>2026-04-19T15:49:39Z</time></trkpt><trkpt lat="44.30815354801182" lon="8.484647803908636"><ele>5.0</ele><time>2026-04-19T15:49:40Z</time></trkpt><trkpt lat="44.308087346110774" lon="8.48467839635675"><ele>5.0</ele><time>2026-04-19T15:49:41Z</time></trkpt><trkpt lat="44.30802172547273" lon="8.48471396429226"><ele>5.0</ele><time>2026-04-19T15:49:42Z</time></trkpt><trkpt lat="44.30795405470893" lon="8.484757727300003"><ele>5.0</ele><time>2026-04-19T15:49:43Z</time></trkpt><trkpt lat="44.30788992723328" lon="8.484803500575788"><ele>5.0</ele><time>2026-04-19T15:49:44Z</time></trkpt><trkpt lat="44.307794318722415" lon="8.484878838628607"><ele>5.333333333333334</ele><time>2026-04-19T15:49:46Z</time></trkpt><trkpt lat="44.307716242654244" lon="8.484947528691375"><ele>5.666666666666667</ele><time>2026-04-19T15:49:48Z</time></trkpt><trkpt lat="44.30763806529043" lon="8.485008520853174"><ele>6.0</ele><time>2026-04-19T15:49:50Z</time></trkpt><trkpt lat="44.30753934750967" lon="8.485089351937326"><ele>6.333333333333334</ele><time>2026-04-19T15:49:52Z</time></trkpt><trkpt lat="44.30747664725749" lon="8.485129570033479"><ele>6.666666666666667</ele><time>2026-04-19T15:49:53Z</time></trkpt><trkpt lat="44.30739994941965" lon="8.485156909223354"><ele>7.0</ele><time>2026-04-19T15:49:54Z</time></trkpt><trkpt lat="44.307312365884805" lon="8.485158301367143"><ele>7.166666666666667</ele><time>2026-04-19T15:49:55Z</time></trkpt><trkpt lat="44.307227637534524" lon="8.485144050290028"><ele>7.333333333333334</ele><time>2026-04-19T15:49:56Z</time></trkpt><trkpt lat="44.307154631873495" lon="8.48510903163522"><ele>7.5</ele><time>2026-04-19T15:49:57Z</time></trkpt><trkpt lat="44.307087713847515" lon="8.485067342164758"><ele>7.666666666666666</ele><time>2026-04-19T15:49:58Z</time></trkpt><trkpt lat="44.307034452467306" lon="8.484998797523895"><ele>7.833333333333333</ele><time>2026-04-19T15:49:59Z</time></trkpt><trkpt lat="44.30699076047215" lon="8.484908700346551"><ele>8.0</ele><time>2026-04-19T15:50:00Z</time></trkpt><trkpt lat="44.30695277583219" lon="8.484801357682597"><ele>7.999999999999999</ele><time>2026-04-19T15:50:01Z</time></trkpt><trkpt lat="44.30691854187654" lon="8.484685115008709"><ele>8.0</ele><time>2026-04-19T15:50:02Z</time></trkpt><trkpt lat="44.30689304844611" lon="8.484571254335028"><ele>8.0</ele><time>2026-04-19T15:50:03Z</time></trkpt><trkpt lat="44.30687112579647" lon="8.484467527583451"><ele>8.0</ele><time>2026-04-19T15:50:04Z</time></trkpt><trkpt lat="44.30684795704389" lon="8.484367450972082"><ele>7.999999999999999</ele><time>2026-04-19T15:50:05Z</time></trkpt><trkpt lat="44.306826547158146" lon="8.484270320407367"><ele>8.0</ele><time>2026-04-19T15:50:06Z</time></trkpt><trkpt lat="44.30680777075023" lon="8.484171748642524"><ele>8.166666666666666</ele><time>2026-04-19T15:50:07Z</time></trkpt><trkpt lat="44.30678946173729" lon="8.484067104719873"><ele>8.333333333333332</ele><time>2026-04-19T15:50:08Z</time></trkpt><trkpt lat="44.30677455231764" lon="8.483959084843615"><ele>8.5</ele><time>2026-04-19T15:50:09Z</time></trkpt><trkpt lat="44.30676123298585" lon="8.483850496664434"><ele>8.666666666666666</ele><time>2026-04-19T15:50:10Z</time></trkpt><trkpt lat="44.30674504387244" lon="8.483745763677783"><ele>8.833333333333334</ele><time>2026-04-19T15:50:11Z</time></trkpt><trkpt lat="44.30672640971268" lon="8.483648455147392"><ele>9.0</ele><time>2026-04-19T15:50:12Z</time></trkpt><trkpt lat="44.30670798291864" lon="8.48355543052092"><ele>9.0</ele><time>2026-04-19T15:50:12.999Z</time></trkpt><trkpt lat="44.30668919743346" lon="8.483467169125035"><ele>9.0</ele><time>2026-04-19T15:50:13.999Z</time></trkpt><trkpt lat="44.30665676285485" lon="8.483311378762753"><ele>9.0</ele><time>2026-04-19T15:50:15.999Z</time></trkpt><trkpt lat="44.30662624325924" lon="8.483138160745487"><ele>9.0</ele><time>2026-04-19T15:50:17.999Z</time></trkpt><trkpt lat="44.30661124111556" lon="8.48304678734069"><ele>9.0</ele><time>2026-04-19T15:50:18.999Z</time></trkpt><trkpt lat="44.30659320102996" lon="8.482951107947732"><ele>9.0</ele><time>2026-04-19T15:50:19.999Z</time></trkpt><trkpt lat="44.306578531194404" lon="8.482865360128894"><ele>9.0</ele><time>2026-04-19T15:50:20.999Z</time></trkpt><trkpt lat="44.306551794092314" lon="8.482712347075665"><ele>9.0</ele><time>2026-04-19T15:50:22.999Z</time></trkpt><trkpt lat="44.30652523900304" lon="8.482556594462837"><ele>9.0</ele><time>2026-04-19T15:50:24.999Z</time></trkpt><trkpt lat="44.306510827954284" lon="8.482467741649039"><ele>9.0</ele><time>2026-04-19T15:50:25.999Z</time></trkpt><trkpt lat="44.306493509432265" lon="8.482379222299981"><ele>9.0</ele><time>2026-04-19T15:50:26.999Z</time></trkpt><trkpt lat="44.30647942120461" lon="8.482284748024083"><ele>9.0</ele><time>2026-04-19T15:50:27.999Z</time></trkpt><trkpt lat="44.30646203958706" lon="8.482189626994549"><ele>9.2</ele><time>2026-04-19T15:50:28.999Z</time></trkpt><trkpt lat="44.30644705963544" lon="8.482096362068793"><ele>9.4</ele><time>2026-04-19T15:50:29.999Z</time></trkpt><trkpt lat="44.306421358118804" lon="8.481936047677566"><ele>9.6</ele><time>2026-04-19T15:50:31.999Z</time></trkpt><trkpt lat="44.306399275568104" lon="8.481803886819701"><ele>9.8</ele><time>2026-04-19T15:50:33.999Z</time></trkpt><trkpt lat="44.306377492707725" lon="8.481694344975612"><ele>10.0</ele><time>2026-04-19T15:50:35.999Z</time></trkpt><trkpt lat="44.30635918068964" lon="8.481576363041045"><ele>10.333333333333334</ele><time>2026-04-19T15:50:37.999Z</time></trkpt><trkpt lat="44.30634294453633" lon="8.481489186498738"><ele>10.666666666666668</ele><time>2026-04-19T15:50:39.999Z</time></trkpt><trkpt lat="44.30632652347252" lon="8.481402166438318"><ele>11.0</ele><time>2026-04-19T15:50:47.999Z</time></trkpt><trkpt lat="44.30629219536988" lon="8.481313142999003"><ele>11.333333333333334</ele><time>2026-04-19T15:50:58.999Z</time></trkpt><trkpt lat="44.30628212236123" lon="8.481209401383751"><ele>11.666666666666666</ele><time>2026-04-19T15:51:01.999Z</time></trkpt><trkpt lat="44.30625899733238" lon="8.481100903333317"><ele>12.0</ele><time>2026-04-19T15:51:03.999Z</time></trkpt><trkpt lat="44.306227122756724" lon="8.480954700332902"><ele>12.166666666666666</ele><time>2026-04-19T15:51:06Z</time></trkpt><trkpt lat="44.306200328613734" lon="8.48083180042135"><ele>12.333333333333332</ele><time>2026-04-19T15:51:08Z</time></trkpt><trkpt lat="44.306179735152234" lon="8.48073734193364"><ele>12.5</ele><time>2026-04-19T15:51:10Z</time></trkpt><trkpt lat="44.30615723394853" lon="8.48062516287265"><ele>12.666666666666666</ele><time>2026-04-19T15:51:13Z</time></trkpt><trkpt lat="44.30614213339176" lon="8.480529544924046"><ele>12.833333333333332</ele><time>2026-04-19T15:51:49Z</time></trkpt><trkpt lat="44.306116818572214" lon="8.480381575657452"><ele>13.0</ele><time>2026-04-19T15:51:51Z</time></trkpt><trkpt lat="44.30610415046476" lon="8.48029309877123"><ele>12.999999999999998</ele><time>2026-04-19T15:51:52Z</time></trkpt><trkpt lat="44.306080951119654" lon="8.480123673797994"><ele>13.0</ele><time>2026-04-19T15:51:54Z</time></trkpt><trkpt lat="44.30606261434208" lon="8.48001452070158"><ele>13.0</ele><time>2026-04-19T15:51:55Z</time></trkpt><trkpt lat="44.306042030050726" lon="8.479905889503046"><ele>13.0</ele><time>2026-04-19T15:51:56Z</time></trkpt><trkpt lat="44.306023101480434" lon="8.479798454174311"><ele>12.999999999999998</ele><time>2026-04-19T15:51:57Z</time></trkpt><trkpt lat="44.30600220781418" lon="8.479690505010653"><ele>13.0</ele><time>2026-04-19T15:51:58Z</time></trkpt><trkpt lat="44.30598310705768" lon="8.479570352285736"><ele>12.999999999999998</ele><time>2026-04-19T15:51:59Z</time></trkpt><trkpt lat="44.30596391759311" lon="8.47944500481181"><ele>13.0</ele><time>2026-04-19T15:52:00Z</time></trkpt><trkpt lat="44.305943830050715" lon="8.479328824179998"><ele>13.0</ele><time>2026-04-19T15:52:01Z</time></trkpt><trkpt lat="44.3059241945209" lon="8.479216621657105"><ele>13.0</ele><time>2026-04-19T15:52:02Z</time></trkpt><trkpt lat="44.30590645837462" lon="8.479109028937096"><ele>12.999999999999998</ele><time>2026-04-19T15:52:03Z</time></trkpt><trkpt lat="44.305892392623406" lon="8.479006143663605"><ele>13.0</ele><time>2026-04-19T15:52:04Z</time></trkpt><trkpt lat="44.30587845090897" lon="8.478909202549866"><ele>12.999999999999998</ele><time>2026-04-19T15:52:05Z</time></trkpt><trkpt lat="44.30586204244401" lon="8.478813321884253"><ele>13.0</ele><time>2026-04-19T15:52:06Z</time></trkpt><trkpt lat="44.30583682630061" lon="8.47870464638367"><ele>13.0</ele><time>2026-04-19T15:52:07Z</time></trkpt><trkpt lat="44.30579516436652" lon="8.478595193083303"><ele>13.0</ele><time>2026-04-19T15:52:08Z</time></trkpt><trkpt lat="44.30574650157485" lon="8.478484771340256"><ele>12.999999999999998</ele><time>2026-04-19T15:52:09Z</time></trkpt><trkpt lat="44.30568986900044" lon="8.478378592369522"><ele>13.0</ele><time>2026-04-19T15:52:10Z</time></trkpt><trkpt lat="44.3056311677664" lon="8.478277525395344"><ele>12.8</ele><time>2026-04-19T15:52:11Z</time></trkpt><trkpt lat="44.30556750669498" lon="8.478185265069294"><ele>12.600000000000001</ele><time>2026-04-19T15:52:12Z</time></trkpt><trkpt lat="44.30550399440518" lon="8.478099877456346"><ele>12.399999999999999</ele><time>2026-04-19T15:52:13Z</time></trkpt><trkpt lat="44.305440601975164" lon="8.478015044824941"><ele>12.2</ele><time>2026-04-19T15:52:14Z</time></trkpt><trkpt lat="44.30537321294899" lon="8.477919785859337"><ele>12.0</ele><time>2026-04-19T15:52:15Z</time></trkpt><trkpt lat="44.305302133793035" lon="8.477819858468967"><ele>11.6</ele><time>2026-04-19T15:52:16Z</time></trkpt><trkpt lat="44.30523106459763" lon="8.4777112651021"><ele>11.2</ele><time>2026-04-19T15:52:17Z</time></trkpt><trkpt lat="44.30516891234807" lon="8.477595220211722"><ele>10.8</ele><time>2026-04-19T15:52:18Z</time></trkpt><trkpt lat="44.3051112711783" lon="8.477478046381915"><ele>10.4</ele><time>2026-04-19T15:52:19Z</time></trkpt><trkpt lat="44.30506243271201" lon="8.47735831156333"><ele>10.0</ele><time>2026-04-19T15:52:20Z</time></trkpt><trkpt lat="44.305018517603806" lon="8.477241767644626"><ele>10.0</ele><time>2026-04-19T15:52:21Z</time></trkpt><trkpt lat="44.30498108474207" lon="8.477124338378404"><ele>10.0</ele><time>2026-04-19T15:52:22Z</time></trkpt><trkpt lat="44.30494776527279" lon="8.477006447150918"><ele>10.0</ele><time>2026-04-19T15:52:22.999Z</time></trkpt><trkpt lat="44.30491677570554" lon="8.47690281654542"><ele>10.0</ele><time>2026-04-19T15:52:23.999Z</time></trkpt><trkpt lat="44.304907903042526" lon="8.476795881489593"><ele>10.0</ele><time>2026-04-19T15:52:24.999Z</time></trkpt><trkpt lat="44.304887292892744" lon="8.476705815204769"><ele>10.0</ele><time>2026-04-19T15:52:25.999Z</time></trkpt><trkpt lat="44.30483548218428" lon="8.476544786163622"><ele>10.0</ele><time>2026-04-19T15:52:27.999Z</time></trkpt><trkpt lat="44.30481407296299" lon="8.4764416359263"><ele>10.0</ele><time>2026-04-19T15:52:28.999Z</time></trkpt><trkpt lat="44.30479889436764" lon="8.476349865365757"><ele>10.0</ele><time>2026-04-19T15:52:29.999Z</time></trkpt><trkpt lat="44.30478642483441" lon="8.476196106574273"><ele>10.0</ele><time>2026-04-19T15:52:31.999Z</time></trkpt><trkpt lat="44.30477354787513" lon="8.476103760149224"><ele>10.0</ele><time>2026-04-19T15:52:33.999Z</time></trkpt><trkpt lat="44.30475173727316" lon="8.47601732818088"><ele>10.0</ele><time>2026-04-19T15:53:36Z</time></trkpt><trkpt lat="44.30473912657808" lon="8.475911260637742"><ele>10.8</ele><time>2026-04-19T15:53:38Z</time></trkpt><trkpt lat="44.30475079175128" lon="8.47581708843645"><ele>11.6</ele><time>2026-04-19T15:53:46Z</time></trkpt><trkpt lat="44.30489089148515" lon="8.475778883631735"><ele>12.399999999999999</ele><time>2026-04-19T15:53:47Z</time></trkpt><trkpt lat="44.30496522459319" lon="8.475754432009724"><ele>13.2</ele><time>2026-04-19T15:53:48Z</time></trkpt><trkpt lat="44.30505649761649" lon="8.475727563692253"><ele>14.0</ele><time>2026-04-19T15:53:49Z</time></trkpt><trkpt lat="44.30516377243989" lon="8.475695035380095"><ele>14.0</ele><time>2026-04-19T15:53:50Z</time></trkpt><trkpt lat="44.30527942103535" lon="8.475654883793721"><ele>14.0</ele><time>2026-04-19T15:53:51Z</time></trkpt><trkpt lat="44.30540246886015" lon="8.47561270339094"><ele>14.0</ele><time>2026-04-19T15:53:52Z</time></trkpt><trkpt lat="44.30553501144746" lon="8.475571762790956"><ele>14.0</ele><time>2026-04-19T15:53:53Z</time></trkpt><trkpt lat="44.305672984424085" lon="8.475535139650836"><ele>14.25</ele><time>2026-04-19T15:53:54Z</time></trkpt><trkpt lat="44.305813370233295" lon="8.475497639085"><ele>14.5</ele><time>2026-04-19T15:53:55Z</time></trkpt><trkpt lat="44.30594496505873" lon="8.475455671018231"><ele>14.75</ele><time>2026-04-19T15:53:56Z</time></trkpt><trkpt lat="44.306073765421935" lon="8.475413764830112"><ele>15.0</ele><time>2026-04-19T15:53:57Z</time></trkpt><trkpt lat="44.30619925917391" lon="8.475372882810259"><ele>15.0</ele><time>2026-04-19T15:53:58Z</time></trkpt><trkpt lat="44.30631851252201" lon="8.475334773488452"><ele>15.0</ele><time>2026-04-19T15:53:59Z</time></trkpt><trkpt lat="44.306431232345716" lon="8.475300373787883"><ele>15.0</ele><time>2026-04-19T15:54:00Z</time></trkpt><trkpt lat="44.30654489216491" lon="8.475266625859604"><ele>15.0</ele><time>2026-04-19T15:54:01Z</time></trkpt><trkpt lat="44.30666452455589" lon="8.475230177498176"><ele>13.5</ele><time>2026-04-19T15:54:02Z</time></trkpt><trkpt lat="44.30678756089068" lon="8.4751921980456"><ele>12.0</ele><time>2026-04-19T15:54:03Z</time></trkpt><trkpt lat="44.30691338423092" lon="8.475151418977317"><ele>10.5</ele><time>2026-04-19T15:54:04Z</time></trkpt><trkpt lat="44.30703828430238" lon="8.47511337526765"><ele>9.0</ele><time>2026-04-19T15:54:05Z</time></trkpt><trkpt lat="44.30716077370744" lon="8.475075590170025"><ele>9.5</ele><time>2026-04-19T15:54:06Z</time></trkpt><trkpt lat="44.30727830586558" lon="8.47504137803823"><ele>10.0</ele><time>2026-04-19T15:54:07Z</time></trkpt><trkpt lat="44.30739032799286" lon="8.475007394925436"><ele>10.5</ele><time>2026-04-19T15:54:08Z</time></trkpt><trkpt lat="44.30749750379065" lon="8.47497576831638"><ele>11.0</ele><time>2026-04-19T15:54:09Z</time></trkpt><trkpt lat="44.30760238336301" lon="8.474942373171476"><ele>11.0</ele><time>2026-04-19T15:54:10Z</time></trkpt><trkpt lat="44.30771059641704" lon="8.474910708797964"><ele>11.0</ele><time>2026-04-19T15:54:11Z</time></trkpt><trkpt lat="44.307822685319294" lon="8.474875732278663"><ele>11.0</ele><time>2026-04-19T15:54:12Z</time></trkpt><trkpt lat="44.30793829916625" lon="8.474836733343253"><ele>11.0</ele><time>2026-04-19T15:54:13Z</time></trkpt><trkpt lat="44.308053780994165" lon="8.474798209436145"><ele>10.8</ele><time>2026-04-19T15:54:14Z</time></trkpt><trkpt lat="44.30816976997393" lon="8.474761169333124"><ele>10.600000000000001</ele><time>2026-04-19T15:54:15Z</time></trkpt><trkpt lat="44.3082810347806" lon="8.474725124732842"><ele>10.4</ele><time>2026-04-19T15:54:16Z</time></trkpt><trkpt lat="44.30838695890114" lon="8.474692288654612"><ele>10.2</ele><time>2026-04-19T15:54:17Z</time></trkpt><trkpt lat="44.3084891437813" lon="8.47466182421191"><ele>10.0</ele><time>2026-04-19T15:54:18Z</time></trkpt><trkpt lat="44.308589512620294" lon="8.47463168172781"><ele>10.0</ele><time>2026-04-19T15:54:19Z</time></trkpt><trkpt lat="44.308674080255095" lon="8.474604595799313"><ele>10.0</ele><time>2026-04-19T15:54:20Z</time></trkpt><trkpt lat="44.30874581912602" lon="8.474583967127058"><ele>10.0</ele><time>2026-04-19T15:54:21Z</time></trkpt><trkpt lat="44.30885283925983" lon="8.474554471219893"><ele>10.0</ele><time>2026-04-19T15:54:23Z</time></trkpt><trkpt lat="44.30891570449906" lon="8.474535049537918"><ele>10.0</ele><time>2026-04-19T15:54:25Z</time></trkpt><trkpt lat="44.30899428653155" lon="8.47451599671838"><ele>10.0</ele><time>2026-04-19T15:55:21Z</time></trkpt><trkpt lat="44.3090801888112" lon="8.474489921379336"><ele>11.6</ele><time>2026-04-19T15:55:23Z</time></trkpt><trkpt lat="44.30922117086139" lon="8.474446360218002"><ele>13.2</ele><time>2026-04-19T15:55:25Z</time></trkpt><trkpt lat="44.309309678864444" lon="8.474417872137604"><ele>14.8</ele><time>2026-04-19T15:55:26Z</time></trkpt><trkpt lat="44.30939719998289" lon="8.474389755562822"><ele>16.4</ele><time>2026-04-19T15:55:27Z</time></trkpt><trkpt lat="44.30947976597114" lon="8.474363983514529"><ele>18.0</ele><time>2026-04-19T15:55:28Z</time></trkpt><trkpt lat="44.30955196285666" lon="8.474341448073025"><ele>18.0</ele><time>2026-04-19T15:55:29Z</time></trkpt><trkpt lat="44.30961779053635" lon="8.474320900722537"><ele>18.0</ele><time>2026-04-19T15:55:30Z</time></trkpt><trkpt lat="44.309682061602565" lon="8.474300839219643"><ele>18.0</ele><time>2026-04-19T15:55:31Z</time></trkpt><trkpt lat="44.30974714329449" lon="8.474280524718852"><ele>18.0</ele><time>2026-04-19T15:55:32Z</time></trkpt><trkpt lat="44.309864065763215" lon="8.474244028686487"><ele>18.0</ele><time>2026-04-19T15:55:34Z</time></trkpt><trkpt lat="44.3099266798187" lon="8.474224484419834"><ele>18.0</ele><time>2026-04-19T15:55:35Z</time></trkpt><trkpt lat="44.309994400172805" lon="8.474203346280497"><ele>17.0</ele><time>2026-04-19T15:55:36Z</time></trkpt><trkpt lat="44.31006586184559" lon="8.474181898819369"><ele>16.0</ele><time>2026-04-19T15:55:37Z</time></trkpt><trkpt lat="44.31014043891369" lon="8.474159987828159"><ele>15.0</ele><time>2026-04-19T15:55:38Z</time></trkpt><trkpt lat="44.31021991888697" lon="8.474135962580824"><ele>14.0</ele><time>2026-04-19T15:55:39Z</time></trkpt><trkpt lat="44.310303553969426" lon="8.47410486081651"><ele>13.0</ele><time>2026-04-19T15:55:40Z</time></trkpt><trkpt lat="44.31039198615698" lon="8.474062298431532"><ele>12.0</ele><time>2026-04-19T15:55:41Z</time></trkpt><trkpt lat="44.310483663599996" lon="8.474004866959849"><ele>11.8</ele><time>2026-04-19T15:55:42Z</time></trkpt><trkpt lat="44.31057885398146" lon="8.473974196009033"><ele>11.6</ele><time>2026-04-19T15:55:43Z</time></trkpt><trkpt lat="44.310679156619784" lon="8.47393990067746"><ele>11.4</ele><time>2026-04-19T15:55:44Z</time></trkpt><trkpt lat="44.31077914173932" lon="8.47390580747259"><ele>11.200000000000001</ele><time>2026-04-19T15:55:45Z</time></trkpt><trkpt lat="44.31087458675642" lon="8.473872175074536"><ele>11.0</ele><time>2026-04-19T15:55:46Z</time></trkpt><trkpt lat="44.31096600492808" lon="8.473842390088986"><ele>11.0</ele><time>2026-04-19T15:55:47Z</time></trkpt><trkpt lat="44.311049212938634" lon="8.4738140979431"><ele>11.0</ele><time>2026-04-19T15:55:48Z</time></trkpt><trkpt lat="44.3111258695352" lon="8.473790813271359"><ele>11.0</ele><time>2026-04-19T15:55:49Z</time></trkpt><trkpt lat="44.3111973198044" lon="8.473770163762984"><ele>11.0</ele><time>2026-04-19T15:55:50Z</time></trkpt><trkpt lat="44.3112666829041" lon="8.473749088024974"><ele>11.0</ele><time>2026-04-19T15:55:51Z</time></trkpt><trkpt lat="44.31133884743799" lon="8.47373056500007"><ele>11.0</ele><time>2026-04-19T15:55:52Z</time></trkpt><trkpt lat="44.31141680474667" lon="8.473708378746887"><ele>11.0</ele><time>2026-04-19T15:55:53Z</time></trkpt><trkpt lat="44.31149583731646" lon="8.473681152987956"><ele>11.0</ele><time>2026-04-19T15:55:54Z</time></trkpt><trkpt lat="44.311580040362706" lon="8.47364959475962"><ele>11.0</ele><time>2026-04-19T15:55:55Z</time></trkpt><trkpt lat="44.31166950060743" lon="8.473612403697974"><ele>11.0</ele><time>2026-04-19T15:55:56Z</time></trkpt><trkpt lat="44.311765722447234" lon="8.473570946625763"><ele>11.0</ele><time>2026-04-19T15:55:57Z</time></trkpt><trkpt lat="44.31186687931307" lon="8.473529861439076"><ele>11.0</ele><time>2026-04-19T15:55:58Z</time></trkpt><trkpt lat="44.311973516972145" lon="8.473487395144653"><ele>11.0</ele><time>2026-04-19T15:55:59Z</time></trkpt><trkpt lat="44.312083273264605" lon="8.47344285070163"><ele>11.0</ele><time>2026-04-19T15:56:00Z</time></trkpt><trkpt lat="44.31218964369668" lon="8.473410524568145"><ele>11.0</ele><time>2026-04-19T15:56:01Z</time></trkpt><trkpt lat="44.31229265777372" lon="8.473380382552508"><ele>11.0</ele><time>2026-04-19T15:56:02Z</time></trkpt><trkpt lat="44.31239086079184" lon="8.473349674744759"><ele>11.200000000000001</ele><time>2026-04-19T15:56:03Z</time></trkpt><trkpt lat="44.31249119360128" lon="8.47331570356858"><ele>11.4</ele><time>2026-04-19T15:56:04Z</time></trkpt><trkpt lat="44.312593964481714" lon="8.473271032166398"><ele>11.6</ele><time>2026-04-19T15:56:05Z</time></trkpt><trkpt lat="44.312700375417414" lon="8.473214689696976"><ele>11.8</ele><time>2026-04-19T15:56:06Z</time></trkpt><trkpt lat="44.31281330318891" lon="8.473151673019517"><ele>12.0</ele><time>2026-04-19T15:56:07Z</time></trkpt><trkpt lat="44.312945056440086" lon="8.473079066748069"><ele>12.5</ele><time>2026-04-19T15:56:08Z</time></trkpt><trkpt lat="44.313082677350195" lon="8.473019697470914"><ele>13.0</ele><time>2026-04-19T15:56:09Z</time></trkpt><trkpt lat="44.31320568216857" lon="8.472947163033124"><ele>13.5</ele><time>2026-04-19T15:56:10Z</time></trkpt><trkpt lat="44.313334939273716" lon="8.472870941775156"><ele>14.0</ele><time>2026-04-19T15:56:11Z</time></trkpt><trkpt lat="44.31347372631409" lon="8.472791885464325"><ele>14.0</ele><time>2026-04-19T15:56:12Z</time></trkpt><trkpt lat="44.31361589248233" lon="8.472710806419247"><ele>14.0</ele><time>2026-04-19T15:56:13Z</time></trkpt><trkpt lat="44.31374680722298" lon="8.472635226645199"><ele>14.0</ele><time>2026-04-19T15:56:14Z</time></trkpt><trkpt lat="44.31387101380978" lon="8.47256381885906"><ele>14.0</ele><time>2026-04-19T15:56:15Z</time></trkpt><trkpt lat="44.31399242274023" lon="8.472493728240106"><ele>14.0</ele><time>2026-04-19T15:56:16Z</time></trkpt><trkpt lat="44.31411726777013" lon="8.472420500502643"><ele>14.0</ele><time>2026-04-19T15:56:17Z</time></trkpt><trkpt lat="44.31424192046621" lon="8.472322527966362"><ele>14.0</ele><time>2026-04-19T15:56:18Z</time></trkpt><trkpt lat="44.31438016824507" lon="8.472245421579329"><ele>14.0</ele><time>2026-04-19T15:56:19Z</time></trkpt><trkpt lat="44.314524186219714" lon="8.472159402287026"><ele>13.666666666666668</ele><time>2026-04-19T15:56:20Z</time></trkpt><trkpt lat="44.31468887048143" lon="8.472065586036905"><ele>13.333333333333332</ele><time>2026-04-19T15:56:21Z</time></trkpt><trkpt lat="44.31487435129004" lon="8.471978214304745"><ele>13.0</ele><time>2026-04-19T15:56:22Z</time></trkpt><trkpt lat="44.31505849881028" lon="8.471863902233446"><ele>14.333333333333332</ele><time>2026-04-19T15:56:23Z</time></trkpt><trkpt lat="44.31524432355006" lon="8.471745732983107"><ele>15.666666666666668</ele><time>2026-04-19T15:56:24Z</time></trkpt><trkpt lat="44.31541368804684" lon="8.47161466472334"><ele>17.0</ele><time>2026-04-19T15:56:25Z</time></trkpt><trkpt lat="44.31558308253591" lon="8.471529581949095"><ele>17.0</ele><time>2026-04-19T15:56:26Z</time></trkpt><trkpt lat="44.31573894070341" lon="8.471424723140958"><ele>17.0</ele><time>2026-04-19T15:56:27Z</time></trkpt><trkpt lat="44.31589087408161" lon="8.471309392089012"><ele>17.0</ele><time>2026-04-19T15:56:28Z</time></trkpt><trkpt lat="44.316045490461775" lon="8.471184323575958"><ele>18.0</ele><time>2026-04-19T15:56:29Z</time></trkpt><trkpt lat="44.31620165535658" lon="8.471054761875132"><ele>19.0</ele><time>2026-04-19T15:56:30Z</time></trkpt><trkpt lat="44.31635637367208" lon="8.47092497867257"><ele>20.0</ele><time>2026-04-19T15:56:31Z</time></trkpt><trkpt lat="44.31650479015454" lon="8.470801005166301"><ele>20.0</ele><time>2026-04-19T15:56:32Z</time></trkpt><trkpt lat="44.31664393482318" lon="8.470685688169134"><ele>20.0</ele><time>2026-04-19T15:56:33Z</time></trkpt><trkpt lat="44.316777358780705" lon="8.470575483936774"><ele>20.0</ele><time>2026-04-19T15:56:34Z</time></trkpt><trkpt lat="44.316909140342" lon="8.47046589904694"><ele>19.333333333333336</ele><time>2026-04-19T15:56:35Z</time></trkpt><trkpt lat="44.3170345876743" lon="8.470333526826504"><ele>18.666666666666668</ele><time>2026-04-19T15:56:36Z</time></trkpt><trkpt lat="44.31716999361867" lon="8.470215923360165"><ele>18.0</ele><time>2026-04-19T15:56:37Z</time></trkpt><trkpt lat="44.31730690405146" lon="8.470105654226927"><ele>18.0</ele><time>2026-04-19T15:56:38Z</time></trkpt><trkpt lat="44.31744669811333" lon="8.469987923409912"><ele>18.0</ele><time>2026-04-19T15:56:39Z</time></trkpt><trkpt lat="44.31758564151828" lon="8.469862820748256"><ele>18.0</ele><time>2026-04-19T15:56:40Z</time></trkpt><trkpt lat="44.31774252265721" lon="8.469762403191886"><ele>18.0</ele><time>2026-04-19T15:56:41Z</time></trkpt><trkpt lat="44.31788778236435" lon="8.469646309747018"><ele>18.0</ele><time>2026-04-19T15:56:42Z</time></trkpt><trkpt lat="44.31802425991862" lon="8.469531083106785"><ele>18.0</ele><time>2026-04-19T15:56:43Z</time></trkpt><trkpt lat="44.31814618608965" lon="8.469404796756526"><ele>17.75</ele><time>2026-04-19T15:56:44Z</time></trkpt><trkpt lat="44.31827207707581" lon="8.469301199949816"><ele>17.5</ele><time>2026-04-19T15:56:45Z</time></trkpt><trkpt lat="44.31839057514633" lon="8.469201592052958"><ele>17.25</ele><time>2026-04-19T15:56:45.999Z</time></trkpt><trkpt lat="44.31850292367905" lon="8.469111979958223"><ele>17.0</ele><time>2026-04-19T15:56:46.999Z</time></trkpt><trkpt lat="44.31861611118713" lon="8.469026563345363"><ele>17.0</ele><time>2026-04-19T15:56:47.999Z</time></trkpt><trkpt lat="44.31873724304306" lon="8.468928670578672"><ele>17.0</ele><time>2026-04-19T15:56:48.999Z</time></trkpt><trkpt lat="44.31886210823129" lon="8.468824358035913"><ele>17.0</ele><time>2026-04-19T15:56:49.999Z</time></trkpt><trkpt lat="44.31899071219095" lon="8.468708352391904"><ele>17.0</ele><time>2026-04-19T15:56:50.999Z</time></trkpt><trkpt lat="44.31911467616423" lon="8.468600225602124"><ele>17.25</ele><time>2026-04-19T15:56:51.999Z</time></trkpt><trkpt lat="44.319230598176276" lon="8.46849622283741"><ele>17.5</ele><time>2026-04-19T15:56:52.999Z</time></trkpt><trkpt lat="44.319341435080204" lon="8.468402332249862"><ele>17.75</ele><time>2026-04-19T15:56:53.999Z</time></trkpt><trkpt lat="44.31945160793735" lon="8.468313544873158"><ele>18.0</ele><time>2026-04-19T15:56:54.999Z</time></trkpt><trkpt lat="44.319558263608066" lon="8.468228155542743"><ele>18.0</ele><time>2026-04-19T15:56:55.999Z</time></trkpt><trkpt lat="44.3196681114209" lon="8.468136187181749"><ele>18.0</ele><time>2026-04-19T15:56:56.999Z</time></trkpt><trkpt lat="44.319778131327496" lon="8.468047174612074"><ele>18.0</ele><time>2026-04-19T15:56:57.999Z</time></trkpt><trkpt lat="44.31988466985437" lon="8.467957903789165"><ele>18.0</ele><time>2026-04-19T15:56:58.999Z</time></trkpt><trkpt lat="44.319989504773915" lon="8.46787138927392"><ele>18.6</ele><time>2026-04-19T15:56:59.999Z</time></trkpt><trkpt lat="44.320090481977104" lon="8.467785494043104"><ele>19.200000000000003</ele><time>2026-04-19T15:57:00.999Z</time></trkpt><trkpt lat="44.320183286625145" lon="8.467706108113786"><ele>19.8</ele><time>2026-04-19T15:57:01.999Z</time></trkpt><trkpt lat="44.32027098136031" lon="8.467628956097476"><ele>20.400000000000002</ele><time>2026-04-19T15:57:02.999Z</time></trkpt><trkpt lat="44.320354323383114" lon="8.46755475174911"><ele>21.0</ele><time>2026-04-19T15:57:03.999Z</time></trkpt><trkpt lat="44.32043162854214" lon="8.467484049947622"><ele>21.0</ele><time>2026-04-19T15:57:04.999Z</time></trkpt><trkpt lat="44.320501905692666" lon="8.46741528639704"><ele>21.0</ele><time>2026-04-19T15:57:05.999Z</time></trkpt><trkpt lat="44.32056910837951" lon="8.467349711405012"><ele>21.0</ele><time>2026-04-19T15:57:06.999Z</time></trkpt><trkpt lat="44.320636614283316" lon="8.46730017166541"><ele>21.0</ele><time>2026-04-19T15:57:07.999Z</time></trkpt><trkpt lat="44.320694850378636" lon="8.467259015176202"><ele>21.0</ele><time>2026-04-19T15:57:08.999Z</time></trkpt><trkpt lat="44.32073001560665" lon="8.467174016624726"><ele>21.0</ele><time>2026-04-19T15:57:09.999Z</time></trkpt><trkpt lat="44.32076420824234" lon="8.467071928423072"><ele>21.666666666666668</ele><time>2026-04-19T15:57:11.999Z</time></trkpt><trkpt lat="44.32069442733618" lon="8.466960175449108"><ele>22.333333333333336</ele><time>2026-04-19T15:57:12.999Z</time></trkpt><trkpt lat="44.32066844495013" lon="8.466863655399198"><ele>23.0</ele><time>2026-04-19T15:57:13.999Z</time></trkpt><trkpt lat="44.320661635338816" lon="8.466755504633996"><ele>23.666666666666668</ele><time>2026-04-19T15:57:14.999Z</time></trkpt><trkpt lat="44.32066756622068" lon="8.466640246103962"><ele>24.333333333333336</ele><time>2026-04-19T15:57:15.999Z</time></trkpt><trkpt lat="44.32068500522954" lon="8.466532715086204"><ele>25.0</ele><time>2026-04-19T15:57:16.999Z</time></trkpt><trkpt lat="44.32069477804234" lon="8.466430634676383"><ele>25.000000000000004</ele><time>2026-04-19T15:57:17.999Z</time></trkpt><trkpt lat="44.32070526894399" lon="8.466331927120605"><ele>25.0</ele><time>2026-04-19T15:57:18.999Z</time></trkpt><trkpt lat="44.32071575449306" lon="8.46623073689671"><ele>25.0</ele><time>2026-04-19T15:57:19.999Z</time></trkpt><trkpt lat="44.32072973337062" lon="8.46611819294381"><ele>25.0</ele><time>2026-04-19T15:57:20.999Z</time></trkpt><trkpt lat="44.320744756730136" lon="8.465997262970344"><ele>25.000000000000004</ele><time>2026-04-19T15:57:21.999Z</time></trkpt><trkpt lat="44.320759396801414" lon="8.465873544968174"><ele>25.0</ele><time>2026-04-19T15:57:22.999Z</time></trkpt><trkpt lat="44.32077245764161" lon="8.465755904675584"><ele>25.000000000000004</ele><time>2026-04-19T15:57:24Z</time></trkpt><trkpt lat="44.32080268105496" lon="8.465649679732858"><ele>25.0</ele><time>2026-04-19T15:57:25Z</time></trkpt><trkpt lat="44.32081574595097" lon="8.465543768761233"><ele>25.0</ele><time>2026-04-19T15:57:26Z</time></trkpt><trkpt lat="44.32082843511641" lon="8.46544090294681"><ele>25.0</ele><time>2026-04-19T15:57:27Z</time></trkpt><trkpt lat="44.32084048588925" lon="8.465343210942027"><ele>25.0</ele><time>2026-04-19T15:57:28Z</time></trkpt><trkpt lat="44.320835908479275" lon="8.465244870471867"><ele>25.000000000000004</ele><time>2026-04-19T15:57:29Z</time></trkpt><trkpt lat="44.32086459139171" lon="8.465148844191166"><ele>25.0</ele><time>2026-04-19T15:57:30Z</time></trkpt><trkpt lat="44.32086163522705" lon="8.465040782255548"><ele>24.833333333333336</ele><time>2026-04-19T15:57:31Z</time></trkpt><trkpt lat="44.32087534226173" lon="8.464930302398297"><ele>24.666666666666668</ele><time>2026-04-19T15:57:32Z</time></trkpt><trkpt lat="44.32089456226838" lon="8.464819890883536"><ele>24.5</ele><time>2026-04-19T15:57:33Z</time></trkpt><trkpt lat="44.32091429191429" lon="8.46470210173796"><ele>24.333333333333336</ele><time>2026-04-19T15:57:34Z</time></trkpt><trkpt lat="44.32092975304894" lon="8.464576126802534"><ele>24.166666666666668</ele><time>2026-04-19T15:57:35Z</time></trkpt><trkpt lat="44.32094480784812" lon="8.464437878748853"><ele>24.0</ele><time>2026-04-19T15:57:36Z</time></trkpt><trkpt lat="44.32096215897649" lon="8.464288549703806"><ele>24.75</ele><time>2026-04-19T15:57:37Z</time></trkpt><trkpt lat="44.32098000019336" lon="8.464131539246821"><ele>25.5</ele><time>2026-04-19T15:57:38Z</time></trkpt><trkpt lat="44.32100038940659" lon="8.463963315370995"><ele>26.25</ele><time>2026-04-19T15:57:39Z</time></trkpt><trkpt lat="44.32102267755959" lon="8.463781140327653"><ele>27.0</ele><time>2026-04-19T15:57:40Z</time></trkpt><trkpt lat="44.32104691320362" lon="8.463583633249856"><ele>29.666666666666664</ele><time>2026-04-19T15:57:41Z</time></trkpt><trkpt lat="44.32107403890259" lon="8.46337204703106"><ele>32.33333333333333</ele><time>2026-04-19T15:57:42Z</time></trkpt><trkpt lat="44.32110097122229" lon="8.463145779858294"><ele>35.0</ele><time>2026-04-19T15:57:43Z</time></trkpt><trkpt lat="44.32112325871789" lon="8.462923186966975"><ele>35.5</ele><time>2026-04-19T15:57:44Z</time></trkpt><trkpt lat="44.32114457170248" lon="8.462719339356235"><ele>36.0</ele><time>2026-04-19T15:57:45Z</time></trkpt><trkpt lat="44.321168366904566" lon="8.462527595771014"><ele>36.5</ele><time>2026-04-19T15:57:46Z</time></trkpt><trkpt lat="44.3211951810314" lon="8.462350618170994"><ele>37.0</ele><time>2026-04-19T15:57:47Z</time></trkpt><trkpt lat="44.32123126947842" lon="8.46219273257224"><ele>38.5</ele><time>2026-04-19T15:57:48Z</time></trkpt><trkpt lat="44.32128779559154" lon="8.46204859447055"><ele>40.0</ele><time>2026-04-19T15:57:49Z</time></trkpt><trkpt lat="44.32139516721497" lon="8.461952835917472"><ele>41.5</ele><time>2026-04-19T15:57:50Z</time></trkpt><trkpt lat="44.32152417133344" lon="8.461842083828605"><ele>43.0</ele><time>2026-04-19T15:57:51Z</time></trkpt><trkpt lat="44.32165787241079" lon="8.461714171497336"><ele>43.0</ele><time>2026-04-19T15:57:52Z</time></trkpt><trkpt lat="44.32181837809031" lon="8.461599200983315"><ele>43.0</ele><time>2026-04-19T15:57:53Z</time></trkpt><trkpt lat="44.32198544233157" lon="8.461471193289631"><ele>43.0</ele><time>2026-04-19T15:57:54Z</time></trkpt><trkpt lat="44.32214453896946" lon="8.461353063263068"><ele>42.0</ele><time>2026-04-19T15:57:55Z</time></trkpt><trkpt lat="44.32228598195767" lon="8.46124443750907"><ele>41.0</ele><time>2026-04-19T15:57:56Z</time></trkpt><trkpt lat="44.322417323038444" lon="8.46114496938446"><ele>40.0</ele><time>2026-04-19T15:57:57Z</time></trkpt><trkpt lat="44.32253251726389" lon="8.461052764979781"><ele>39.0</ele><time>2026-04-19T15:57:58Z</time></trkpt><trkpt lat="44.322621672233076" lon="8.460949302787924"><ele>39.0</ele><time>2026-04-19T15:57:59Z</time></trkpt><trkpt lat="44.32270169599464" lon="8.460847869658972"><ele>39.0</ele><time>2026-04-19T15:58:00Z</time></trkpt><trkpt lat="44.32272351693276" lon="8.460696290460996"><ele>39.0</ele><time>2026-04-19T15:58:01Z</time></trkpt><trkpt lat="44.322693523248894" lon="8.46055027620715"><ele>39.0</ele><time>2026-04-19T15:58:02Z</time></trkpt><trkpt lat="44.32264985042234" lon="8.460400053353032"><ele>39.0</ele><time>2026-04-19T15:58:03Z</time></trkpt><trkpt lat="44.322609051098055" lon="8.460234323357035"><ele>39.75</ele><time>2026-04-19T15:58:04Z</time></trkpt><trkpt lat="44.322574077546356" lon="8.460072086171374"><ele>40.5</ele><time>2026-04-19T15:58:05Z</time></trkpt><trkpt lat="44.32255535052723" lon="8.459920428931033"><ele>41.25</ele><time>2026-04-19T15:58:06Z</time></trkpt><trkpt lat="44.32261298329485" lon="8.459761449738311"><ele>42.0</ele><time>2026-04-19T15:58:07Z</time></trkpt><trkpt lat="44.32267958700615" lon="8.459587876396107"><ele>44.75</ele><time>2026-04-19T15:58:08Z</time></trkpt><trkpt lat="44.322751448618" lon="8.45942085126717"><ele>47.5</ele><time>2026-04-19T15:58:09Z</time></trkpt><trkpt lat="44.322822983730454" lon="8.459282729429942"><ele>50.25</ele><time>2026-04-19T15:58:10Z</time></trkpt><trkpt lat="44.32291227467471" lon="8.45918367052814"><ele>53.0</ele><time>2026-04-19T15:58:11Z</time></trkpt><trkpt lat="44.32302459449155" lon="8.459093205915684"><ele>52.5</ele><time>2026-04-19T15:58:12Z</time></trkpt><trkpt lat="44.323169252855074" lon="8.45909091553495"><ele>52.0</ele><time>2026-04-19T15:58:13Z</time></trkpt><trkpt lat="44.32332327970171" lon="8.459052109324917"><ele>51.5</ele><time>2026-04-19T15:58:14Z</time></trkpt><trkpt lat="44.323464896021974" lon="8.459058186358664"><ele>51.0</ele><time>2026-04-19T15:58:15Z</time></trkpt><trkpt lat="44.32359878253281" lon="8.459043364420689"><ele>51.0</ele><time>2026-04-19T15:58:16Z</time></trkpt><trkpt lat="44.32372298033696" lon="8.4590077636042"><ele>51.0</ele><time>2026-04-19T15:58:17Z</time></trkpt><trkpt lat="44.32383856285377" lon="8.4589975382937"><ele>51.0</ele><time>2026-04-19T15:58:18Z</time></trkpt><trkpt lat="44.32394278059583" lon="8.458987154448618"><ele>51.0</ele><time>2026-04-19T15:58:19Z</time></trkpt><trkpt lat="44.324047828845686" lon="8.458978807114356"><ele>52.8</ele><time>2026-04-19T15:58:20Z</time></trkpt><trkpt lat="44.32415467310974" lon="8.458970189136382"><ele>54.599999999999994</ele><time>2026-04-19T15:58:21Z</time></trkpt><trkpt lat="44.3242607149194" lon="8.458955109661606"><ele>56.4</ele><time>2026-04-19T15:58:22Z</time></trkpt><trkpt lat="44.324357083087826" lon="8.458929349136522"><ele>58.2</ele><time>2026-04-19T15:58:23Z</time></trkpt><trkpt lat="44.32445148728335" lon="8.45889977863532"><ele>60.0</ele><time>2026-04-19T15:58:24Z</time></trkpt><trkpt lat="44.32453710121388" lon="8.45879719092168"><ele>61.33333333333333</ele><time>2026-04-19T15:58:25Z</time></trkpt><trkpt lat="44.324601186861244" lon="8.458628655435863"><ele>62.666666666666664</ele><time>2026-04-19T15:58:26Z</time></trkpt><trkpt lat="44.324664665734275" lon="8.458434634731331"><ele>64.0</ele><time>2026-04-19T15:58:27Z</time></trkpt><trkpt lat="44.32472915959987" lon="8.45821917904607"><ele>65.75</ele><time>2026-04-19T15:58:28Z</time></trkpt><trkpt lat="44.32479302179586" lon="8.458004708969874"><ele>67.5</ele><time>2026-04-19T15:58:29Z</time></trkpt><trkpt lat="44.324837387832446" lon="8.457816904299662"><ele>69.25</ele><time>2026-04-19T15:58:30Z</time></trkpt><trkpt lat="44.32490332279937" lon="8.4576587952105"><ele>71.0</ele><time>2026-04-19T15:58:31Z</time></trkpt><trkpt lat="44.32497291114737" lon="8.457530788822934"><ele>71.0</ele><time>2026-04-19T15:58:32Z</time></trkpt><trkpt lat="44.32504829446662" lon="8.457420085021251"><ele>71.0</ele><time>2026-04-19T15:58:33Z</time></trkpt><trkpt lat="44.325113182671096" lon="8.457288218350227"><ele>71.0</ele><time>2026-04-19T15:58:34Z</time></trkpt><trkpt lat="44.325193254223336" lon="8.457165909370598"><ele>71.0</ele><time>2026-04-19T15:58:35Z</time></trkpt><trkpt lat="44.32522569940591" lon="8.45699407998967"><ele>73.25</ele><time>2026-04-19T15:58:36Z</time></trkpt><trkpt lat="44.325251483920844" lon="8.456831768134117"><ele>75.5</ele><time>2026-04-19T15:58:37Z</time></trkpt><trkpt lat="44.32528478427923" lon="8.45668015952523"><ele>77.75</ele><time>2026-04-19T15:58:38Z</time></trkpt><trkpt lat="44.32530276923883" lon="8.456518572581563"><ele>80.0</ele><time>2026-04-19T15:58:39Z</time></trkpt><trkpt lat="44.325321520068385" lon="8.456350104668443"><ele>82.75</ele><time>2026-04-19T15:58:40Z</time></trkpt><trkpt lat="44.325344016097674" lon="8.456182601276181"><ele>85.5</ele><time>2026-04-19T15:58:41Z</time></trkpt><trkpt lat="44.32536560872451" lon="8.456006279269781"><ele>88.25</ele><time>2026-04-19T15:58:42Z</time></trkpt><trkpt lat="44.325437602107556" lon="8.455836505595432"><ele>91.0</ele><time>2026-04-19T15:58:43Z</time></trkpt><trkpt lat="44.32551127455696" lon="8.45566801366094"><ele>90.0</ele><time>2026-04-19T15:58:44Z</time></trkpt><trkpt lat="44.325579377839986" lon="8.455507053629692"><ele>89.0</ele><time>2026-04-19T15:58:45Z</time></trkpt><trkpt lat="44.32564447167664" lon="8.455353206405883"><ele>88.0</ele><time>2026-04-19T15:58:46Z</time></trkpt><trkpt lat="44.32570825756495" lon="8.455202450451537"><ele>87.0</ele><time>2026-04-19T15:58:47Z</time></trkpt><trkpt lat="44.325772341257355" lon="8.455050990766894"><ele>86.75</ele><time>2026-04-19T15:58:48Z</time></trkpt><trkpt lat="44.32583853789432" lon="8.454895003891908"><ele>86.5</ele><time>2026-04-19T15:58:49Z</time></trkpt><trkpt lat="44.325904968789594" lon="8.454739431698227"><ele>86.25</ele><time>2026-04-19T15:58:50Z</time></trkpt><trkpt lat="44.32597155196282" lon="8.454586527472348"><ele>86.0</ele><time>2026-04-19T15:58:50.999Z</time></trkpt><trkpt lat="44.32602704149389" lon="8.454416394560463"><ele>86.0</ele><time>2026-04-19T15:58:51.999Z</time></trkpt><trkpt lat="44.32611256487801" lon="8.454253240654786"><ele>86.0</ele><time>2026-04-19T15:58:52.999Z</time></trkpt><trkpt lat="44.32616446680493" lon="8.454061904646293"><ele>86.0</ele><time>2026-04-19T15:58:53.999Z</time></trkpt><trkpt lat="44.326198859093616" lon="8.453881069546506"><ele>86.0</ele><time>2026-04-19T15:58:54.999Z</time></trkpt><trkpt lat="44.3262094972332" lon="8.453687720746679"><ele>88.25</ele><time>2026-04-19T15:58:55.999Z</time></trkpt><trkpt lat="44.32623528560399" lon="8.45349450418793"><ele>90.5</ele><time>2026-04-19T15:58:56.999Z</time></trkpt><trkpt lat="44.326276014252066" lon="8.453310675843412"><ele>92.75</ele><time>2026-04-19T15:58:57.999Z</time></trkpt><trkpt lat="44.32630271087408" lon="8.453111038646286"><ele>95.0</ele><time>2026-04-19T15:58:58.999Z</time></trkpt><trkpt lat="44.32633348289535" lon="8.452884057211088"><ele>94.33333333333334</ele><time>2026-04-19T15:58:59.999Z</time></trkpt><trkpt lat="44.32636939335873" lon="8.452618437521775"><ele>93.66666666666667</ele><time>2026-04-19T15:59:00.999Z</time></trkpt><trkpt lat="44.32640909437402" lon="8.452324780096255"><ele>93.0</ele><time>2026-04-19T15:59:01.999Z</time></trkpt><trkpt lat="44.32644424357861" lon="8.45201345626324"><ele>92.66666666666667</ele><time>2026-04-19T15:59:02.999Z</time></trkpt><trkpt lat="44.326492134490195" lon="8.451720438364177"><ele>92.33333333333334</ele><time>2026-04-19T15:59:03.999Z</time></trkpt><trkpt lat="44.32653312440868" lon="8.45145194294066"><ele>92.0</ele><time>2026-04-19T15:59:04.999Z</time></trkpt><trkpt lat="44.32656972660596" lon="8.451200565163855"><ele>92.0</ele><time>2026-04-19T15:59:05.999Z</time></trkpt><trkpt lat="44.32659108548932" lon="8.45096227806213"><ele>92.0</ele><time>2026-04-19T15:59:06.999Z</time></trkpt><trkpt lat="44.32658246310988" lon="8.450725838070236"><ele>92.0</ele><time>2026-04-19T15:59:07.999Z</time></trkpt><trkpt lat="44.3265367297711" lon="8.450477440801825"><ele>93.33333333333334</ele><time>2026-04-19T15:59:08.999Z</time></trkpt><trkpt lat="44.3264575596158" lon="8.450242099754965"><ele>94.66666666666667</ele><time>2026-04-19T15:59:09.999Z</time></trkpt><trkpt lat="44.32638082286257" lon="8.450033273614824"><ele>96.0</ele><time>2026-04-19T15:59:10.999Z</time></trkpt><trkpt lat="44.32634190330573" lon="8.449839751913935"><ele>96.5</ele><time>2026-04-19T15:59:11.999Z</time></trkpt><trkpt lat="44.32634620408988" lon="8.449663873896231"><ele>97.0</ele><time>2026-04-19T15:59:12.999Z</time></trkpt><trkpt lat="44.32640171360106" lon="8.449480879329535"><ele>97.5</ele><time>2026-04-19T15:59:13.999Z</time></trkpt><trkpt lat="44.32647933186322" lon="8.449289175385267"><ele>98.0</ele><time>2026-04-19T15:59:14.999Z</time></trkpt><trkpt lat="44.32655999232046" lon="8.449080884723289"><ele>98.0</ele><time>2026-04-19T15:59:15.999Z</time></trkpt><trkpt lat="44.32664867902223" lon="8.448855273821883"><ele>98.0</ele><time>2026-04-19T15:59:16.999Z</time></trkpt><trkpt lat="44.32674515458745" lon="8.448629131138627"><ele>98.0</ele><time>2026-04-19T15:59:17.999Z</time></trkpt><trkpt lat="44.326826250314156" lon="8.44840648350211"><ele>98.0</ele><time>2026-04-19T15:59:18.999Z</time></trkpt><trkpt lat="44.326901797636694" lon="8.448202808421208"><ele>98.0</ele><time>2026-04-19T15:59:19.999Z</time></trkpt><trkpt lat="44.32696348747935" lon="8.447994420020315"><ele>98.0</ele><time>2026-04-19T15:59:20.999Z</time></trkpt><trkpt lat="44.32700013289584" lon="8.447768520541933"><ele>100.0</ele><time>2026-04-19T15:59:21.999Z</time></trkpt><trkpt lat="44.32700710989856" lon="8.447520400931264"><ele>102.0</ele><time>2026-04-19T15:59:22.999Z</time></trkpt><trkpt lat="44.326994921138976" lon="8.447266996574688"><ele>104.0</ele><time>2026-04-19T15:59:23.999Z</time></trkpt><trkpt lat="44.32697387424579" lon="8.446743767163836"><ele>106.0</ele><time>2026-04-19T15:59:25.999Z</time></trkpt><trkpt lat="44.32697207678479" lon="8.446509038526754"><ele>108.0</ele><time>2026-04-19T15:59:26.999Z</time></trkpt><trkpt lat="44.326988740480324" lon="8.446277410109948"><ele>110.0</ele><time>2026-04-19T15:59:27.999Z</time></trkpt><trkpt lat="44.327035026721795" lon="8.446039295187425"><ele>112.33333333333333</ele><time>2026-04-19T15:59:28.999Z</time></trkpt><trkpt lat="44.32710136291336" lon="8.445799505289736"><ele>114.66666666666666</ele><time>2026-04-19T15:59:30Z</time></trkpt><trkpt lat="44.32717412421344" lon="8.445587776507946"><ele>117.0</ele><time>2026-04-19T15:59:31Z</time></trkpt><trkpt lat="44.327236205369914" lon="8.445392983865993"><ele>117.0</ele><time>2026-04-19T15:59:32Z</time></trkpt><trkpt lat="44.32729432301931" lon="8.445213468920572"><ele>117.0</ele><time>2026-04-19T15:59:33Z</time></trkpt><trkpt lat="44.327349682228395" lon="8.445051762142816"><ele>117.0</ele><time>2026-04-19T15:59:34Z</time></trkpt><trkpt lat="44.3273901854951" lon="8.444899760772685"><ele>117.0</ele><time>2026-04-19T15:59:35Z</time></trkpt><trkpt lat="44.32740879245367" lon="8.444744772256726"><ele>118.75</ele><time>2026-04-19T15:59:36Z</time></trkpt><trkpt lat="44.327393105743226" lon="8.444570766934575"><ele>120.5</ele><time>2026-04-19T15:59:37Z</time></trkpt><trkpt lat="44.327342918518696" lon="8.444395124576012"><ele>122.25</ele><time>2026-04-19T15:59:38Z</time></trkpt><trkpt lat="44.32731311332112" lon="8.444175318255336"><ele>124.0</ele><time>2026-04-19T15:59:39Z</time></trkpt><trkpt lat="44.32726645811855" lon="8.443947291876375"><ele>123.0</ele><time>2026-04-19T15:59:40Z</time></trkpt><trkpt lat="44.327209422445854" lon="8.443746576167435"><ele>122.0</ele><time>2026-04-19T15:59:41Z</time></trkpt><trkpt lat="44.3271908705916" lon="8.443557936466705"><ele>121.0</ele><time>2026-04-19T15:59:42Z</time></trkpt><trkpt lat="44.32713374617284" lon="8.443411311272149"><ele>120.0</ele><time>2026-04-19T15:59:43Z</time></trkpt><trkpt lat="44.3270476237327" lon="8.443306426420396"><ele>120.0</ele><time>2026-04-19T15:59:44Z</time></trkpt><trkpt lat="44.32692046548621" lon="8.443239866704962"><ele>120.0</ele><time>2026-04-19T15:59:45Z</time></trkpt><trkpt lat="44.326778321530426" lon="8.443190632868449"><ele>120.0</ele><time>2026-04-19T15:59:46Z</time></trkpt><trkpt lat="44.32666663981652" lon="8.44314676732461"><ele>120.0</ele><time>2026-04-19T15:59:47Z</time></trkpt><trkpt lat="44.32658107052962" lon="8.443069601766183"><ele>121.0</ele><time>2026-04-19T15:59:48Z</time></trkpt><trkpt lat="44.32653086996085" lon="8.442942775587618"><ele>122.0</ele><time>2026-04-19T15:59:49Z</time></trkpt><trkpt lat="44.32649280910519" lon="8.442831740314507"><ele>123.0</ele><time>2026-04-19T15:59:50Z</time></trkpt><trkpt lat="44.32653180026446" lon="8.442695145001402"><ele>124.0</ele><time>2026-04-19T15:59:51Z</time></trkpt><trkpt lat="44.32659151471236" lon="8.442565594039468"><ele>125.0</ele><time>2026-04-19T15:59:52Z</time></trkpt><trkpt lat="44.32663634333701" lon="8.442411553426979"><ele>125.0</ele><time>2026-04-19T15:59:53Z</time></trkpt><trkpt lat="44.3266643807383" lon="8.442259436152154"><ele>125.0</ele><time>2026-04-19T15:59:54Z</time></trkpt><trkpt lat="44.326690343768306" lon="8.442108538763733"><ele>125.0</ele><time>2026-04-19T15:59:55Z</time></trkpt><trkpt lat="44.32669653671738" lon="8.441948616313239"><ele>125.0</ele><time>2026-04-19T15:59:56Z</time></trkpt><trkpt lat="44.32666838805266" lon="8.44177864786944"><ele>125.0</ele><time>2026-04-19T15:59:57Z</time></trkpt><trkpt lat="44.326600094305746" lon="8.44158702457036"><ele>125.0</ele><time>2026-04-19T15:59:58Z</time></trkpt><trkpt lat="44.32652090296179" lon="8.441372763230174"><ele>125.0</ele><time>2026-04-19T15:59:59Z</time></trkpt><trkpt lat="44.32644424670239" lon="8.441128748538937"><ele>128.66666666666666</ele><time>2026-04-19T16:00:00Z</time></trkpt><trkpt lat="44.32636074620602" lon="8.440855540918445"><ele>132.33333333333334</ele><time>2026-04-19T16:00:01Z</time></trkpt><trkpt lat="44.326261967386095" lon="8.440579203070627"><ele>136.0</ele><time>2026-04-19T16:00:02Z</time></trkpt><trkpt lat="44.32616479700192" lon="8.440307682694081"><ele>136.0</ele><time>2026-04-19T16:00:03Z</time></trkpt><trkpt lat="44.32608402331327" lon="8.440062139186287"><ele>136.0</ele><time>2026-04-19T16:00:04Z</time></trkpt><trkpt lat="44.326036710341626" lon="8.43979698945522"><ele>136.0</ele><time>2026-04-19T16:00:05Z</time></trkpt><trkpt lat="44.32597005285365" lon="8.439529138735164"><ele>136.66666666666669</ele><time>2026-04-19T16:00:06Z</time></trkpt><trkpt lat="44.32591079506911" lon="8.439257771687684"><ele>137.33333333333334</ele><time>2026-04-19T16:00:07Z</time></trkpt><trkpt lat="44.32585286628942" lon="8.439006583872933"><ele>138.0</ele><time>2026-04-19T16:00:08Z</time></trkpt><trkpt lat="44.32580524235039" lon="8.438783973173184"><ele>138.4</ele><time>2026-04-19T16:00:09Z</time></trkpt><trkpt lat="44.32577015627436" lon="8.438630582980442"><ele>138.8</ele><time>2026-04-19T16:00:10Z</time></trkpt><trkpt lat="44.32574726361625" lon="8.438518435846703"><ele>139.2</ele><time>2026-04-19T16:00:11Z</time></trkpt><trkpt lat="44.325721031827186" lon="8.438406451410295"><ele>139.6</ele><time>2026-04-19T16:00:12Z</time></trkpt><trkpt lat="44.32568979124702" lon="8.43827781488346"><ele>140.0</ele><time>2026-04-19T16:00:13Z</time></trkpt><trkpt lat="44.325654483876" lon="8.438133086955013"><ele>140.0</ele><time>2026-04-19T16:00:14Z</time></trkpt><trkpt lat="44.32561767852212" lon="8.437972175337181"><ele>140.0</ele><time>2026-04-19T16:00:15Z</time></trkpt><trkpt lat="44.325577049071974" lon="8.43780117273113"><ele>140.0</ele><time>2026-04-19T16:00:16Z</time></trkpt><trkpt lat="44.3255413032676" lon="8.437615225902448"><ele>140.0</ele><time>2026-04-19T16:00:17Z</time></trkpt><trkpt lat="44.325503907980035" lon="8.437436182830735"><ele>140.0</ele><time>2026-04-19T16:00:18Z</time></trkpt><trkpt lat="44.32546008698831" lon="8.43726338459567"><ele>140.0</ele><time>2026-04-19T16:00:19Z</time></trkpt><trkpt lat="44.325396793921996" lon="8.437110110665659"><ele>140.0</ele><time>2026-04-19T16:00:20Z</time></trkpt><trkpt lat="44.32530616274066" lon="8.436986615768298"><ele>140.0</ele><time>2026-04-19T16:00:21Z</time></trkpt><trkpt lat="44.32519490913855" lon="8.436885520227733"><ele>138.5</ele><time>2026-04-19T16:00:22Z</time></trkpt><trkpt lat="44.325070125135014" lon="8.43679088896071"><ele>137.0</ele><time>2026-04-19T16:00:23Z</time></trkpt><trkpt lat="44.32497325612184" lon="8.436685030893706"><ele>135.5</ele><time>2026-04-19T16:00:24Z</time></trkpt><trkpt lat="44.32492039687849" lon="8.436555496779752"><ele>134.0</ele><time>2026-04-19T16:00:25Z</time></trkpt><trkpt lat="44.32490853224719" lon="8.43640686379157"><ele>134.0</ele><time>2026-04-19T16:00:26Z</time></trkpt><trkpt lat="44.32495651450015" lon="8.436258682630625"><ele>134.0</ele><time>2026-04-19T16:00:27Z</time></trkpt><trkpt lat="44.325018400927206" lon="8.436093423309972"><ele>134.0</ele><time>2026-04-19T16:00:28Z</time></trkpt><trkpt lat="44.325086146189605" lon="8.435892442116131"><ele>134.0</ele><time>2026-04-19T16:00:29Z</time></trkpt><trkpt lat="44.32517092394555" lon="8.435698443623053"><ele>134.0</ele><time>2026-04-19T16:00:30Z</time></trkpt><trkpt lat="44.32522430157283" lon="8.435481420815728"><ele>134.0</ele><time>2026-04-19T16:00:31Z</time></trkpt><trkpt lat="44.32523735323797" lon="8.435267967154418"><ele>134.0</ele><time>2026-04-19T16:00:32Z</time></trkpt><trkpt lat="44.32521485672949" lon="8.43507375980827"><ele>135.33333333333331</ele><time>2026-04-19T16:00:33Z</time></trkpt><trkpt lat="44.325154249915855" lon="8.434898142163703"><ele>136.66666666666666</ele><time>2026-04-19T16:00:34Z</time></trkpt><trkpt lat="44.32505421634484" lon="8.434727117291867"><ele>138.0</ele><time>2026-04-19T16:00:35Z</time></trkpt><trkpt lat="44.3249247277081" lon="8.434561349920685"><ele>141.0</ele><time>2026-04-19T16:00:36Z</time></trkpt><trkpt lat="44.324777847819924" lon="8.434389816234571"><ele>144.0</ele><time>2026-04-19T16:00:37Z</time></trkpt><trkpt lat="44.324646133595905" lon="8.434223184095305"><ele>147.0</ele><time>2026-04-19T16:00:38Z</time></trkpt><trkpt lat="44.32454631742093" lon="8.434077446114866"><ele>147.25</ele><time>2026-04-19T16:00:39Z</time></trkpt><trkpt lat="44.324470376688645" lon="8.433945073183006"><ele>147.5</ele><time>2026-04-19T16:00:40Z</time></trkpt><trkpt lat="44.32442622244823" lon="8.433809201609854"><ele>147.75</ele><time>2026-04-19T16:00:41Z</time></trkpt><trkpt lat="44.324445248528995" lon="8.433643972723877"><ele>148.0</ele><time>2026-04-19T16:00:42Z</time></trkpt><trkpt lat="44.324459583020186" lon="8.433457440859405"><ele>147.33333333333334</ele><time>2026-04-19T16:00:43Z</time></trkpt><trkpt lat="44.32450809961067" lon="8.43327610476311"><ele>146.66666666666666</ele><time>2026-04-19T16:00:44Z</time></trkpt><trkpt lat="44.32460211880512" lon="8.43311624674951"><ele>146.0</ele><time>2026-04-19T16:00:45Z</time></trkpt><trkpt lat="44.32471992022812" lon="8.432932684938013"><ele>144.33333333333331</ele><time>2026-04-19T16:00:46Z</time></trkpt><trkpt lat="44.32484287106563" lon="8.432725208929366"><ele>142.66666666666666</ele><time>2026-04-19T16:00:47Z</time></trkpt><trkpt lat="44.32498076389555" lon="8.432532078460001"><ele>141.0</ele><time>2026-04-19T16:00:48Z</time></trkpt><trkpt lat="44.32509382174757" lon="8.43235078535717"><ele>141.0</ele><time>2026-04-19T16:00:49Z</time></trkpt><trkpt lat="44.32518113263941" lon="8.432161925366444"><ele>141.0</ele><time>2026-04-19T16:00:50Z</time></trkpt><trkpt lat="44.32524326245318" lon="8.431942472119108"><ele>141.0</ele><time>2026-04-19T16:00:51Z</time></trkpt><trkpt lat="44.32528504012918" lon="8.43169368641301"><ele>141.66666666666666</ele><time>2026-04-19T16:00:52Z</time></trkpt><trkpt lat="44.325326797813936" lon="8.431431803986989"><ele>142.33333333333331</ele><time>2026-04-19T16:00:53Z</time></trkpt><trkpt lat="44.32537941206894" lon="8.43117848012462"><ele>143.0</ele><time>2026-04-19T16:00:54Z</time></trkpt><trkpt lat="44.32542550976252" lon="8.430949786028926"><ele>143.0</ele><time>2026-04-19T16:00:55Z</time></trkpt><trkpt lat="44.32545884772767" lon="8.430735388357519"><ele>143.0</ele><time>2026-04-19T16:00:56Z</time></trkpt><trkpt lat="44.32545732490431" lon="8.430524891607902"><ele>143.0</ele><time>2026-04-19T16:00:57Z</time></trkpt><trkpt lat="44.32541916941918" lon="8.430327425234516"><ele>143.0</ele><time>2026-04-19T16:00:58Z</time></trkpt><trkpt lat="44.32533889112511" lon="8.43015763142664"><ele>143.0</ele><time>2026-04-19T16:00:59Z</time></trkpt><trkpt lat="44.32522106221878" lon="8.430004538981864"><ele>143.0</ele><time>2026-04-19T16:01:00Z</time></trkpt><trkpt lat="44.32508294556449" lon="8.4298530051594"><ele>143.0</ele><time>2026-04-19T16:01:01Z</time></trkpt><trkpt lat="44.32492386166008" lon="8.429718651418964"><ele>143.0</ele><time>2026-04-19T16:01:02Z</time></trkpt><trkpt lat="44.32473926202252" lon="8.429627061182847"><ele>143.0</ele><time>2026-04-19T16:01:03Z</time></trkpt><trkpt lat="44.32454289908753" lon="8.429557831195694"><ele>143.66666666666666</ele><time>2026-04-19T16:01:03.999Z</time></trkpt><trkpt lat="44.324359364052754" lon="8.429438932963759"><ele>144.33333333333334</ele><time>2026-04-19T16:01:04.999Z</time></trkpt><trkpt lat="44.32419239717137" lon="8.429308429036766"><ele>145.0</ele><time>2026-04-19T16:01:05.999Z</time></trkpt><trkpt lat="44.324053519875044" lon="8.429138017660563"><ele>145.0</ele><time>2026-04-19T16:01:06.999Z</time></trkpt><trkpt lat="44.32392182831625" lon="8.428929170145013"><ele>145.0</ele><time>2026-04-19T16:01:07.999Z</time></trkpt><trkpt lat="44.32378414490314" lon="8.428703232086333"><ele>145.0</ele><time>2026-04-19T16:01:08.999Z</time></trkpt><trkpt lat="44.32364486031782" lon="8.428495359901468"><ele>147.66666666666669</ele><time>2026-04-19T16:01:09.999Z</time></trkpt><trkpt lat="44.32355657583679" lon="8.428263920436175"><ele>150.33333333333334</ele><time>2026-04-19T16:01:10.999Z</time></trkpt><trkpt lat="44.32348901416754" lon="8.428032892007629"><ele>153.0</ele><time>2026-04-19T16:01:11.999Z</time></trkpt><trkpt lat="44.32344068047941" lon="8.42780283199167"><ele>153.25</ele><time>2026-04-19T16:01:12.999Z</time></trkpt><trkpt lat="44.32340224125983" lon="8.427592272433737"><ele>153.5</ele><time>2026-04-19T16:01:13.999Z</time></trkpt><trkpt lat="44.32336825714118" lon="8.42740336408205"><ele>153.75</ele><time>2026-04-19T16:01:14.999Z</time></trkpt><trkpt lat="44.32339258691107" lon="8.427211569998006"><ele>154.0</ele><time>2026-04-19T16:01:15.999Z</time></trkpt><trkpt lat="44.32348897106756" lon="8.427040212284863"><ele>155.33333333333334</ele><time>2026-04-19T16:01:16.999Z</time></trkpt><trkpt lat="44.32360259744405" lon="8.426850595980545"><ele>156.66666666666666</ele><time>2026-04-19T16:01:17.999Z</time></trkpt><trkpt lat="44.323726394239635" lon="8.426631225523723"><ele>158.0</ele><time>2026-04-19T16:01:18.999Z</time></trkpt><trkpt lat="44.32387645044239" lon="8.426413087445395"><ele>158.0</ele><time>2026-04-19T16:01:19.999Z</time></trkpt><trkpt lat="44.32402978859392" lon="8.426178058088015"><ele>158.0</ele><time>2026-04-19T16:01:20.999Z</time></trkpt><trkpt lat="44.32417263232677" lon="8.425963846648418"><ele>158.0</ele><time>2026-04-19T16:01:21.999Z</time></trkpt><trkpt lat="44.32429185698269" lon="8.42575663555537"><ele>158.0</ele><time>2026-04-19T16:01:22.999Z</time></trkpt><trkpt lat="44.32437751627871" lon="8.425540554620056"><ele>158.0</ele><time>2026-04-19T16:01:23.999Z</time></trkpt><trkpt lat="44.32442125654874" lon="8.425303120795732"><ele>158.0</ele><time>2026-04-19T16:01:24.999Z</time></trkpt><trkpt lat="44.32443373307691" lon="8.42503358600238"><ele>158.33333333333331</ele><time>2026-04-19T16:01:25.999Z</time></trkpt><trkpt lat="44.32443895524439" lon="8.424767549423471"><ele>158.66666666666666</ele><time>2026-04-19T16:01:26.999Z</time></trkpt><trkpt lat="44.32445094357067" lon="8.424536606829175"><ele>159.0</ele><time>2026-04-19T16:01:27.999Z</time></trkpt><trkpt lat="44.324460908322855" lon="8.424331811993923"><ele>159.0</ele><time>2026-04-19T16:01:28.999Z</time></trkpt><trkpt lat="44.32447168596008" lon="8.424138671626089"><ele>159.0</ele><time>2026-04-19T16:01:29.999Z</time></trkpt><trkpt lat="44.32448890147258" lon="8.423957350558574"><ele>159.0</ele><time>2026-04-19T16:01:30.999Z</time></trkpt><trkpt lat="44.32453080415426" lon="8.423796131853987"><ele>159.0</ele><time>2026-04-19T16:01:31.999Z</time></trkpt><trkpt lat="44.32455213857855" lon="8.423629720539184"><ele>160.75</ele><time>2026-04-19T16:01:32.999Z</time></trkpt><trkpt lat="44.324630624073905" lon="8.423491313817097"><ele>162.5</ele><time>2026-04-19T16:01:33.999Z</time></trkpt><trkpt lat="44.32469212817546" lon="8.423338470354565"><ele>164.25</ele><time>2026-04-19T16:01:34.999Z</time></trkpt><trkpt lat="44.32475538696859" lon="8.423182938272353"><ele>166.0</ele><time>2026-04-19T16:01:36.001Z</time></trkpt><trkpt lat="44.32480707931234" lon="8.423014994703527"><ele>165.0</ele><time>2026-04-19T16:01:37.001Z</time></trkpt><trkpt lat="44.324869853002994" lon="8.422868826884043"><ele>164.0</ele><time>2026-04-19T16:01:38.001Z</time></trkpt><trkpt lat="44.32492437335681" lon="8.42273890297746"><ele>163.0</ele><time>2026-04-19T16:01:39.001Z</time></trkpt><trkpt lat="44.3249802395339" lon="8.422603105837076"><ele>162.0</ele><time>2026-04-19T16:01:40.001Z</time></trkpt><trkpt lat="44.32504330135827" lon="8.422455160910788"><ele>162.0</ele><time>2026-04-19T16:01:41.001Z</time></trkpt><trkpt lat="44.32511189171708" lon="8.422297430028298"><ele>162.0</ele><time>2026-04-19T16:01:42.001Z</time></trkpt><trkpt lat="44.325184333772214" lon="8.422124581799876"><ele>162.0</ele><time>2026-04-19T16:01:43.001Z</time></trkpt><trkpt lat="44.325242678304654" lon="8.421909876754945"><ele>162.0</ele><time>2026-04-19T16:01:44.001Z</time></trkpt><trkpt lat="44.32532021371693" lon="8.421672562930357"><ele>163.0</ele><time>2026-04-19T16:01:45.001Z</time></trkpt><trkpt lat="44.32538060564638" lon="8.421432606599465"><ele>164.0</ele><time>2026-04-19T16:01:46.001Z</time></trkpt><trkpt lat="44.325421750097696" lon="8.421220147825801"><ele>165.0</ele><time>2026-04-19T16:01:47.001Z</time></trkpt><trkpt lat="44.32547564040108" lon="8.42103463916284"><ele>166.25</ele><time>2026-04-19T16:01:48.001Z</time></trkpt><trkpt lat="44.325518522377564" lon="8.420863791814563"><ele>167.5</ele><time>2026-04-19T16:01:49.001Z</time></trkpt><trkpt lat="44.325559998016914" lon="8.4207026165707"><ele>168.75</ele><time>2026-04-19T16:01:50.001Z</time></trkpt><trkpt lat="44.325594022380855" lon="8.420541221882502"><ele>170.0</ele><time>2026-04-19T16:01:51.001Z</time></trkpt><trkpt lat="44.325621569553434" lon="8.420366070670894"><ele>174.25</ele><time>2026-04-19T16:01:52Z</time></trkpt><trkpt lat="44.3256317310859" lon="8.42018600117467"><ele>178.5</ele><time>2026-04-19T16:01:53Z</time></trkpt><trkpt lat="44.325619313342244" lon="8.420016445297986"><ele>182.75</ele><time>2026-04-19T16:01:54Z</time></trkpt><trkpt lat="44.325602737734584" lon="8.419852220013059"><ele>187.0</ele><time>2026-04-19T16:01:55Z</time></trkpt><trkpt lat="44.325587194881884" lon="8.419686904848138"><ele>188.0</ele><time>2026-04-19T16:01:56Z</time></trkpt><trkpt lat="44.325579230653574" lon="8.419532982643993"><ele>189.0</ele><time>2026-04-19T16:01:56.999Z</time></trkpt><trkpt lat="44.32557078058462" lon="8.419393650364167"><ele>190.0</ele><time>2026-04-19T16:01:57.999Z</time></trkpt><trkpt lat="44.32554777166972" lon="8.419248304771259"><ele>191.0</ele><time>2026-04-19T16:01:58.999Z</time></trkpt><trkpt lat="44.325504009014864" lon="8.419098092884806"><ele>192.0</ele><time>2026-04-19T16:01:59.999Z</time></trkpt><trkpt lat="44.325436339246565" lon="8.418966167310343"><ele>188.2</ele><time>2026-04-19T16:02:00.999Z</time></trkpt><trkpt lat="44.32536413121372" lon="8.41884914264118"><ele>184.39999999999998</ele><time>2026-04-19T16:02:01.999Z</time></trkpt><trkpt lat="44.32530351678565" lon="8.418728539317698"><ele>180.60000000000002</ele><time>2026-04-19T16:02:02.999Z</time></trkpt><trkpt lat="44.32524901951241" lon="8.418596805852017"><ele>176.8</ele><time>2026-04-19T16:02:03.999Z</time></trkpt><trkpt lat="44.325204463415304" lon="8.418454379256076"><ele>173.0</ele><time>2026-04-19T16:02:04.999Z</time></trkpt><trkpt lat="44.32517842333352" lon="8.418303415023077"><ele>173.0</ele><time>2026-04-19T16:02:05.999Z</time></trkpt><trkpt lat="44.32516771023349" lon="8.418153673455883"><ele>173.0</ele><time>2026-04-19T16:02:06.999Z</time></trkpt><trkpt lat="44.32515651584147" lon="8.418011167667277"><ele>173.0</ele><time>2026-04-19T16:02:07.999Z</time></trkpt><trkpt lat="44.325146693270085" lon="8.417895642072427"><ele>173.0</ele><time>2026-04-19T16:02:08.999Z</time></trkpt><trkpt lat="44.32515090197995" lon="8.417785890949286"><ele>173.0</ele><time>2026-04-19T16:02:09.999Z</time></trkpt><trkpt lat="44.325179326144706" lon="8.4176689174419"><ele>173.60000000000002</ele><time>2026-04-19T16:02:10.999Z</time></trkpt><trkpt lat="44.32523781151968" lon="8.417558252146945"><ele>174.20000000000002</ele><time>2026-04-19T16:02:11.999Z</time></trkpt><trkpt lat="44.32532598723365" lon="8.417473537371656"><ele>174.8</ele><time>2026-04-19T16:02:12.999Z</time></trkpt><trkpt lat="44.32544002799353" lon="8.417461807464713"><ele>175.4</ele><time>2026-04-19T16:02:13.999Z</time></trkpt><trkpt lat="44.32554025415241" lon="8.41740132730746"><ele>176.0</ele><time>2026-04-19T16:02:14.999Z</time></trkpt><trkpt lat="44.32564339253786" lon="8.417305638380578"><ele>178.5</ele><time>2026-04-19T16:02:15.999Z</time></trkpt><trkpt lat="44.32573018405057" lon="8.41719742559898"><ele>181.0</ele><time>2026-04-19T16:02:16.999Z</time></trkpt><trkpt lat="44.32580451997355" lon="8.417048762270952"><ele>183.5</ele><time>2026-04-19T16:02:17.999Z</time></trkpt><trkpt lat="44.32582168190962" lon="8.416850913746746"><ele>186.0</ele><time>2026-04-19T16:02:18.999Z</time></trkpt><trkpt lat="44.32587142897999" lon="8.416654643530732"><ele>186.0</ele><time>2026-04-19T16:02:19.999Z</time></trkpt><trkpt lat="44.32590952556711" lon="8.41642152737758"><ele>186.0</ele><time>2026-04-19T16:02:20.999Z</time></trkpt><trkpt lat="44.325952442457535" lon="8.416171667496261"><ele>186.0</ele><time>2026-04-19T16:02:21.999Z</time></trkpt><trkpt lat="44.32599091230504" lon="8.415947698448113"><ele>184.33333333333334</ele><time>2026-04-19T16:02:22.999Z</time></trkpt><trkpt lat="44.32601313697946" lon="8.415730144720555"><ele>182.66666666666669</ele><time>2026-04-19T16:02:23.999Z</time></trkpt><trkpt lat="44.3260492486214" lon="8.41551965557958"><ele>181.0</ele><time>2026-04-19T16:02:24.999Z</time></trkpt><trkpt lat="44.32608389191652" lon="8.415310341622325"><ele>180.75</ele><time>2026-04-19T16:02:25.999Z</time></trkpt><trkpt lat="44.32611819776732" lon="8.415117647580445"><ele>180.5</ele><time>2026-04-19T16:02:26.999Z</time></trkpt><trkpt lat="44.32614878667552" lon="8.414934923309833"><ele>180.25</ele><time>2026-04-19T16:02:27.999Z</time></trkpt><trkpt lat="44.3261783411972" lon="8.414761784338005"><ele>180.0</ele><time>2026-04-19T16:02:28.999Z</time></trkpt><trkpt lat="44.32620566164911" lon="8.414591502076972"><ele>181.75</ele><time>2026-04-19T16:02:29.999Z</time></trkpt><trkpt lat="44.32623491336094" lon="8.41441412480659"><ele>183.5</ele><time>2026-04-19T16:02:30.999Z</time></trkpt><trkpt lat="44.32626872691798" lon="8.414231246139261"><ele>185.25</ele><time>2026-04-19T16:02:31.999Z</time></trkpt><trkpt lat="44.32631410837695" lon="8.414046078156954"><ele>187.0</ele><time>2026-04-19T16:02:32.999Z</time></trkpt><trkpt lat="44.326397853274905" lon="8.413890416682182"><ele>187.5</ele><time>2026-04-19T16:02:33.999Z</time></trkpt><trkpt lat="44.32648628477339" lon="8.413739902939035"><ele>188.0</ele><time>2026-04-19T16:02:34.999Z</time></trkpt><trkpt lat="44.326609215593436" lon="8.413632806507483"><ele>188.5</ele><time>2026-04-19T16:02:35.999Z</time></trkpt><trkpt lat="44.32673002740929" lon="8.413522140103142"><ele>189.0</ele><time>2026-04-19T16:02:36.999Z</time></trkpt><trkpt lat="44.326840353910804" lon="8.413387408329827"><ele>189.0</ele><time>2026-04-19T16:02:37.999Z</time></trkpt><trkpt lat="44.32692085758735" lon="8.413225903785726"><ele>189.0</ele><time>2026-04-19T16:02:38.999Z</time></trkpt><trkpt lat="44.3269707561406" lon="8.41305654560824"><ele>189.0</ele><time>2026-04-19T16:02:39.999Z</time></trkpt><trkpt lat="44.327024357295066" lon="8.41290640670564"><ele>189.0</ele><time>2026-04-19T16:02:40.999Z</time></trkpt><trkpt lat="44.32706395113587" lon="8.412761388559979"><ele>188.75</ele><time>2026-04-19T16:02:41.999Z</time></trkpt><trkpt lat="44.32717087342363" lon="8.412671210230913"><ele>188.5</ele><time>2026-04-19T16:02:42.999Z</time></trkpt><trkpt lat="44.32728599660409" lon="8.41260379214082"><ele>188.25</ele><time>2026-04-19T16:02:43.999Z</time></trkpt><trkpt lat="44.327405437229416" lon="8.41252770299015"><ele>188.0</ele><time>2026-04-19T16:02:44.999Z</time></trkpt><trkpt lat="44.3275186508683" lon="8.41245932747343"><ele>188.75</ele><time>2026-04-19T16:02:45.999Z</time></trkpt><trkpt lat="44.32762351378899" lon="8.412356648846732"><ele>189.5</ele><time>2026-04-19T16:02:46.999Z</time></trkpt><trkpt lat="44.32774177594819" lon="8.412256409082026"><ele>190.25</ele><time>2026-04-19T16:02:47.999Z</time></trkpt><trkpt lat="44.32784693916127" lon="8.41211531515685"><ele>191.0</ele><time>2026-04-19T16:02:48.999Z</time></trkpt><trkpt lat="44.3279630239077" lon="8.411993851232722"><ele>193.0</ele><time>2026-04-19T16:02:49.999Z</time></trkpt><trkpt lat="44.328081100930966" lon="8.411900214430608"><ele>195.0</ele><time>2026-04-19T16:02:50.999Z</time></trkpt><trkpt lat="44.32818125074721" lon="8.411804008596096"><ele>197.0</ele><time>2026-04-19T16:02:51.999Z</time></trkpt><trkpt lat="44.32826830436181" lon="8.41170224651003"><ele>199.0</ele><time>2026-04-19T16:02:52.999Z</time></trkpt><trkpt lat="44.32836600562884" lon="8.41164025707597"><ele>199.0</ele><time>2026-04-19T16:02:53.999Z</time></trkpt><trkpt lat="44.32846833235699" lon="8.411599318869463"><ele>199.0</ele><time>2026-04-19T16:02:54.999Z</time></trkpt><trkpt lat="44.32856993485468" lon="8.411568388677741"><ele>199.0</ele><time>2026-04-19T16:02:55.999Z</time></trkpt><trkpt lat="44.328669957140086" lon="8.411517741480786"><ele>199.0</ele><time>2026-04-19T16:02:56.999Z</time></trkpt><trkpt lat="44.328765825531285" lon="8.411453718910797"><ele>199.0</ele><time>2026-04-19T16:02:57.999Z</time></trkpt><trkpt lat="44.32884641674097" lon="8.411371461431521"><ele>199.0</ele><time>2026-04-19T16:02:58.999Z</time></trkpt><trkpt lat="44.32890637853341" lon="8.411268358046364"><ele>199.0</ele><time>2026-04-19T16:02:59.999Z</time></trkpt><trkpt lat="44.32893884391844" lon="8.411141732484358"><ele>199.0</ele><time>2026-04-19T16:03:00.999Z</time></trkpt><trkpt lat="44.32894115465112" lon="8.411002287625061"><ele>199.0</ele><time>2026-04-19T16:03:01.999Z</time></trkpt><trkpt lat="44.328913846517054" lon="8.410870480231456"><ele>199.0</ele><time>2026-04-19T16:03:02.999Z</time></trkpt><trkpt lat="44.32885195074652" lon="8.410760565133138"><ele>199.0</ele><time>2026-04-19T16:03:03.999Z</time></trkpt><trkpt lat="44.328786424863594" lon="8.410651482362647"><ele>199.0</ele><time>2026-04-19T16:03:04.999Z</time></trkpt><trkpt lat="44.32871669252869" lon="8.410538146433256"><ele>199.0</ele><time>2026-04-19T16:03:05.999Z</time></trkpt><trkpt lat="44.32865018742546" lon="8.410420736601008"><ele>199.0</ele><time>2026-04-19T16:03:06.999Z</time></trkpt><trkpt lat="44.328584940634954" lon="8.410299166909683"><ele>199.0</ele><time>2026-04-19T16:03:07.999Z</time></trkpt><trkpt lat="44.328524343809015" lon="8.410183788327316"><ele>201.39999999999998</ele><time>2026-04-19T16:03:08.999Z</time></trkpt><trkpt lat="44.32847701794506" lon="8.410074268091002"><ele>203.8</ele><time>2026-04-19T16:03:09.999Z</time></trkpt><trkpt lat="44.328445895156925" lon="8.40996258199813"><ele>206.2</ele><time>2026-04-19T16:03:10.999Z</time></trkpt><trkpt lat="44.3284360557562" lon="8.409847917707177"><ele>208.60000000000002</ele><time>2026-04-19T16:03:11.999Z</time></trkpt><trkpt lat="44.32844765517641" lon="8.409716414783764"><ele>211.0</ele><time>2026-04-19T16:03:12.999Z</time></trkpt><trkpt lat="44.32847831088924" lon="8.40958378086835"><ele>211.8</ele><time>2026-04-19T16:03:13.998Z</time></trkpt><trkpt lat="44.32851461967201" lon="8.409448342557397"><ele>212.60000000000002</ele><time>2026-04-19T16:03:14.998Z</time></trkpt><trkpt lat="44.32855531794744" lon="8.409309218497839"><ele>213.4</ele><time>2026-04-19T16:03:15.998Z</time></trkpt><trkpt lat="44.32859501806836" lon="8.409157747603121"><ele>214.2</ele><time>2026-04-19T16:03:16.998Z</time></trkpt><trkpt lat="44.32861785350646" lon="8.408998600077034"><ele>215.0</ele><time>2026-04-19T16:03:17.998Z</time></trkpt><trkpt lat="44.32861697736525" lon="8.40885272187933"><ele>215.4</ele><time>2026-04-19T16:03:18.998Z</time></trkpt><trkpt lat="44.32862197752055" lon="8.408718406742857"><ele>215.8</ele><time>2026-04-19T16:03:19.998Z</time></trkpt><trkpt lat="44.32861716711677" lon="8.408594038372229"><ele>216.2</ele><time>2026-04-19T16:03:20.998Z</time></trkpt><trkpt lat="44.32861400235525" lon="8.40848061236874"><ele>216.6</ele><time>2026-04-19T16:03:21.998Z</time></trkpt><trkpt lat="44.32860319031345" lon="8.40835654799481"><ele>217.0</ele><time>2026-04-19T16:03:22.998Z</time></trkpt><trkpt lat="44.328625292467784" lon="8.408223288304887"><ele>217.0</ele><time>2026-04-19T16:03:23.998Z</time></trkpt><trkpt lat="44.328687904208834" lon="8.408109479697563"><ele>217.0</ele><time>2026-04-19T16:03:24.998Z</time></trkpt><trkpt lat="44.328746482047286" lon="8.407986411357157"><ele>217.0</ele><time>2026-04-19T16:03:25.998Z</time></trkpt><trkpt lat="44.328837670604116" lon="8.407892565406408"><ele>217.0</ele><time>2026-04-19T16:03:26.998Z</time></trkpt><trkpt lat="44.328933122965175" lon="8.407807054407574"><ele>217.0</ele><time>2026-04-19T16:03:27.998Z</time></trkpt><trkpt lat="44.329048521468486" lon="8.407724400768487"><ele>220.33333333333331</ele><time>2026-04-19T16:03:28.998Z</time></trkpt><trkpt lat="44.32915643985403" lon="8.407576559092025"><ele>223.66666666666669</ele><time>2026-04-19T16:03:29.998Z</time></trkpt><trkpt lat="44.32925258369767" lon="8.407387345052902"><ele>227.0</ele><time>2026-04-19T16:03:30.998Z</time></trkpt><trkpt lat="44.32930417650001" lon="8.407195916721403"><ele>228.39999999999998</ele><time>2026-04-19T16:03:31.998Z</time></trkpt><trkpt lat="44.32933059409338" lon="8.40703168306377"><ele>229.79999999999998</ele><time>2026-04-19T16:03:32.998Z</time></trkpt><trkpt lat="44.329356548562345" lon="8.406865562570419"><ele>231.2</ele><time>2026-04-19T16:03:33.998Z</time></trkpt><trkpt lat="44.329383715251815" lon="8.406752456975044"><ele>232.6</ele><time>2026-04-19T16:03:34.998Z</time></trkpt><trkpt lat="44.32942985414705" lon="8.406638402220887"><ele>234.0</ele><time>2026-04-19T16:03:35.998Z</time></trkpt><trkpt lat="44.32952495129997" lon="8.406608840053591"><ele>234.0</ele><time>2026-04-19T16:03:36.998Z</time></trkpt><trkpt lat="44.3296142011323" lon="8.406598120991777"><ele>233.99999999999997</ele><time>2026-04-19T16:03:37.998Z</time></trkpt><trkpt lat="44.329708917144735" lon="8.406632678577534"><ele>233.99999999999997</ele><time>2026-04-19T16:03:38.998Z</time></trkpt><trkpt lat="44.32981279292802" lon="8.406666910010351"><ele>234.0</ele><time>2026-04-19T16:03:39.998Z</time></trkpt><trkpt lat="44.329916464930676" lon="8.406696125754632"><ele>234.0</ele><time>2026-04-19T16:03:40.998Z</time></trkpt><trkpt lat="44.33000908418255" lon="8.406713246495057"><ele>235.0</ele><time>2026-04-19T16:03:42Z</time></trkpt><trkpt lat="44.33011247961965" lon="8.406694939599063"><ele>236.0</ele><time>2026-04-19T16:03:43Z</time></trkpt><trkpt lat="44.33020702989227" lon="8.406605877323916"><ele>237.0</ele><time>2026-04-19T16:03:44Z</time></trkpt><trkpt lat="44.33029363902464" lon="8.406499000378325"><ele>238.0</ele><time>2026-04-19T16:03:45Z</time></trkpt><trkpt lat="44.330337195494344" lon="8.406284201840052"><ele>238.0</ele><time>2026-04-19T16:03:46Z</time></trkpt><trkpt lat="44.3304452495985" lon="8.406113760259682"><ele>238.0</ele><time>2026-04-19T16:03:47Z</time></trkpt><trkpt lat="44.33054092969473" lon="8.405868625011074"><ele>238.0</ele><time>2026-04-19T16:03:48Z</time></trkpt><trkpt lat="44.33065148773314" lon="8.40558250005332"><ele>236.33333333333331</ele><time>2026-04-19T16:03:49Z</time></trkpt><trkpt lat="44.330776616335335" lon="8.405364243326172"><ele>234.66666666666669</ele><time>2026-04-19T16:03:50Z</time></trkpt><trkpt lat="44.33086637320462" lon="8.405139003345266"><ele>233.0</ele><time>2026-04-19T16:03:51Z</time></trkpt><trkpt lat="44.33095185694923" lon="8.40492636356237"><ele>233.0</ele><time>2026-04-19T16:03:52Z</time></trkpt><trkpt lat="44.33104260417742" lon="8.404712745285922"><ele>233.0</ele><time>2026-04-19T16:03:53Z</time></trkpt><trkpt lat="44.331139736927504" lon="8.4045057261196"><ele>233.0</ele><time>2026-04-19T16:03:54Z</time></trkpt><trkpt lat="44.33123468006285" lon="8.404296204475342"><ele>233.33333333333334</ele><time>2026-04-19T16:03:55Z</time></trkpt><trkpt lat="44.33132593823827" lon="8.404080775197325"><ele>233.66666666666669</ele><time>2026-04-19T16:03:56Z</time></trkpt><trkpt lat="44.33142359289927" lon="8.403861023843326"><ele>234.0</ele><time>2026-04-19T16:03:57Z</time></trkpt><trkpt lat="44.33152604681784" lon="8.403645459368985"><ele>234.0</ele><time>2026-04-19T16:03:58Z</time></trkpt><trkpt lat="44.331628699531684" lon="8.403423349260384"><ele>234.0</ele><time>2026-04-19T16:03:59Z</time></trkpt><trkpt lat="44.33173428646338" lon="8.403207869292512"><ele>234.0</ele><time>2026-04-19T16:04:00Z</time></trkpt><trkpt lat="44.33181935685878" lon="8.403002201840309"><ele>236.0</ele><time>2026-04-19T16:04:01Z</time></trkpt><trkpt lat="44.33189588708886" lon="8.402804408693536"><ele>238.0</ele><time>2026-04-19T16:04:02Z</time></trkpt><trkpt lat="44.33195893659689" lon="8.402592151671298"><ele>240.0</ele><time>2026-04-19T16:04:03Z</time></trkpt><trkpt lat="44.33199400731026" lon="8.402342796380093"><ele>240.66666666666669</ele><time>2026-04-19T16:04:04Z</time></trkpt><trkpt lat="44.33198146528367" lon="8.402087567319857"><ele>241.33333333333334</ele><time>2026-04-19T16:04:05Z</time></trkpt><trkpt lat="44.33192576377187" lon="8.401840545194407"><ele>242.0</ele><time>2026-04-19T16:04:06Z</time></trkpt><trkpt lat="44.33183811656976" lon="8.401597834315618"><ele>242.0</ele><time>2026-04-19T16:04:06.999Z</time></trkpt><trkpt lat="44.33171465954886" lon="8.401367870807588"><ele>242.0</ele><time>2026-04-19T16:04:07.999Z</time></trkpt><trkpt lat="44.33155907063831" lon="8.40114065643876"><ele>242.0</ele><time>2026-04-19T16:04:08.999Z</time></trkpt><trkpt lat="44.33139705139379" lon="8.400907033552649"><ele>247.0</ele><time>2026-04-19T16:04:09.999Z</time></trkpt><trkpt lat="44.33123532354059" lon="8.40066447424259"><ele>252.0</ele><time>2026-04-19T16:04:10.999Z</time></trkpt><trkpt lat="44.331077738360435" lon="8.40044734781054"><ele>252.0</ele><time>2026-04-19T16:04:11.999Z</time></trkpt><trkpt lat="44.33094939972225" lon="8.400245833171173"><ele>252.0</ele><time>2026-04-19T16:04:12.999Z</time></trkpt><trkpt lat="44.330838872129526" lon="8.400046625038422"><ele>252.0</ele><time>2026-04-19T16:04:13.999Z</time></trkpt><trkpt lat="44.33076881505014" lon="8.399845281308206"><ele>253.33333333333331</ele><time>2026-04-19T16:04:14.999Z</time></trkpt><trkpt lat="44.33076043483537" lon="8.399615874010683"><ele>254.66666666666666</ele><time>2026-04-19T16:04:15.999Z</time></trkpt><trkpt lat="44.33072815850657" lon="8.399360997213968"><ele>256.0</ele><time>2026-04-19T16:04:16.999Z</time></trkpt><trkpt lat="44.33071925728899" lon="8.399089469670242"><ele>257.3333333333333</ele><time>2026-04-19T16:04:17.999Z</time></trkpt><trkpt lat="44.3307481618662" lon="8.398813606294153"><ele>258.6666666666667</ele><time>2026-04-19T16:04:18.999Z</time></trkpt><trkpt lat="44.3307893617688" lon="8.398555076411347"><ele>260.0</ele><time>2026-04-19T16:04:19.999Z</time></trkpt><trkpt lat="44.3308280107689" lon="8.398337750275596"><ele>260.0</ele><time>2026-04-19T16:04:20.999Z</time></trkpt><trkpt lat="44.33085587680213" lon="8.398155276647609"><ele>260.0</ele><time>2026-04-19T16:04:21.999Z</time></trkpt><trkpt lat="44.33093007649639" lon="8.39801077817251"><ele>260.0</ele><time>2026-04-19T16:04:22.999Z</time></trkpt><trkpt lat="44.331068087617155" lon="8.397942980996746"><ele>260.0</ele><time>2026-04-19T16:04:23.999Z</time></trkpt><trkpt lat="44.33118712966513" lon="8.397821526245508"><ele>262.0</ele><time>2026-04-19T16:04:24.999Z</time></trkpt><trkpt lat="44.331311649634685" lon="8.397693256350067"><ele>264.0</ele><time>2026-04-19T16:04:25.999Z</time></trkpt><trkpt lat="44.331399911684116" lon="8.397502759898538"><ele>266.0</ele><time>2026-04-19T16:04:26.999Z</time></trkpt><trkpt lat="44.33146138220478" lon="8.397286705056855"><ele>268.0</ele><time>2026-04-19T16:04:27.999Z</time></trkpt><trkpt lat="44.33147978162261" lon="8.397051476346883"><ele>270.0</ele><time>2026-04-19T16:04:28.999Z</time></trkpt><trkpt lat="44.331471814537316" lon="8.396833717918344"><ele>272.0</ele><time>2026-04-19T16:04:29.999Z</time></trkpt><trkpt lat="44.33142831282729" lon="8.39663231685101"><ele>272.25</ele><time>2026-04-19T16:04:30.999Z</time></trkpt><trkpt lat="44.33134116342472" lon="8.396459794303718"><ele>272.5</ele><time>2026-04-19T16:04:31.999Z</time></trkpt><trkpt lat="44.33122459881237" lon="8.39632834905121"><ele>272.75</ele><time>2026-04-19T16:04:32.999Z</time></trkpt><trkpt lat="44.331092659055635" lon="8.396241979522669"><ele>273.0</ele><time>2026-04-19T16:04:33.999Z</time></trkpt><trkpt lat="44.330962213009094" lon="8.396165815980423"><ele>273.0</ele><time>2026-04-19T16:04:34.999Z</time></trkpt><trkpt lat="44.33086417216062" lon="8.39604775945214"><ele>273.0</ele><time>2026-04-19T16:04:35.999Z</time></trkpt><trkpt lat="44.33080875243166" lon="8.395899409205066"><ele>273.0</ele><time>2026-04-19T16:04:36.999Z</time></trkpt><trkpt lat="44.33079479257591" lon="8.395719007413488"><ele>273.0</ele><time>2026-04-19T16:04:37.999Z</time></trkpt><trkpt lat="44.3307855599267" lon="8.395533822056203"><ele>274.6666666666667</ele><time>2026-04-19T16:04:38.999Z</time></trkpt><trkpt lat="44.33080131934091" lon="8.395327866414174"><ele>276.33333333333337</ele><time>2026-04-19T16:04:39.999Z</time></trkpt><trkpt lat="44.33086358839885" lon="8.39513179721614"><ele>278.0</ele><time>2026-04-19T16:04:40.999Z</time></trkpt><trkpt lat="44.33094999939155" lon="8.39492796897347"><ele>278.0</ele><time>2026-04-19T16:04:41.999Z</time></trkpt><trkpt lat="44.331046465555616" lon="8.394710573891858"><ele>278.0</ele><time>2026-04-19T16:04:42.999Z</time></trkpt><trkpt lat="44.33113544795221" lon="8.394474984165964"><ele>278.0</ele><time>2026-04-19T16:04:43.999Z</time></trkpt><trkpt lat="44.33124139961691" lon="8.394232545225739"><ele>279.33333333333337</ele><time>2026-04-19T16:04:44.999Z</time></trkpt><trkpt lat="44.33133349196194" lon="8.393958507605168"><ele>280.6666666666667</ele><time>2026-04-19T16:04:45.999Z</time></trkpt><trkpt lat="44.33139438550601" lon="8.393648660015874"><ele>282.0</ele><time>2026-04-19T16:04:46.999Z</time></trkpt><trkpt lat="44.33145456319312" lon="8.393321252267109"><ele>282.0</ele><time>2026-04-19T16:04:47.999Z</time></trkpt><trkpt lat="44.33151756754444" lon="8.392982108334643"><ele>282.0</ele><time>2026-04-19T16:04:48.999Z</time></trkpt><trkpt lat="44.331584432308766" lon="8.392631442043673"><ele>282.0</ele><time>2026-04-19T16:04:49.999Z</time></trkpt><trkpt lat="44.33165500664687" lon="8.39226889318273"><ele>282.0</ele><time>2026-04-19T16:04:50.999Z</time></trkpt><trkpt lat="44.331731296269304" lon="8.39189994749346"><ele>284.0</ele><time>2026-04-19T16:04:51.999Z</time></trkpt><trkpt lat="44.331804455316416" lon="8.39152667654129"><ele>286.0</ele><time>2026-04-19T16:04:52.999Z</time></trkpt><trkpt lat="44.33187439861525" lon="8.391155516387728"><ele>286.5</ele><time>2026-04-19T16:04:53.999Z</time></trkpt><trkpt lat="44.331940571654464" lon="8.390801980221383"><ele>287.0</ele><time>2026-04-19T16:04:54.999Z</time></trkpt><trkpt lat="44.332004810457505" lon="8.390484135679568"><ele>288.33333333333337</ele><time>2026-04-19T16:04:55.999Z</time></trkpt><trkpt lat="44.33206290205802" lon="8.390195164759499"><ele>289.6666666666667</ele><time>2026-04-19T16:04:56.999Z</time></trkpt><trkpt lat="44.332111477410656" lon="8.3899216377803"><ele>291.0</ele><time>2026-04-19T16:04:57.999Z</time></trkpt><trkpt lat="44.33215128501406" lon="8.389667336832424"><ele>292.3333333333333</ele><time>2026-04-19T16:04:58.999Z</time></trkpt><trkpt lat="44.33218359900415" lon="8.389432323990288"><ele>293.66666666666663</ele><time>2026-04-19T16:04:59.999Z</time></trkpt><trkpt lat="44.33221225479686" lon="8.3892250215722"><ele>295.0</ele><time>2026-04-19T16:05:00.999Z</time></trkpt><trkpt lat="44.332238071561406" lon="8.389028015692734"><ele>300.66666666666663</ele><time>2026-04-19T16:05:01.999Z</time></trkpt><trkpt lat="44.33226515479362" lon="8.388810303167535"><ele>306.3333333333333</ele><time>2026-04-19T16:05:02.999Z</time></trkpt><trkpt lat="44.332289564021494" lon="8.388570199255165"><ele>312.0</ele><time>2026-04-19T16:05:03.999Z</time></trkpt><trkpt lat="44.332329343994594" lon="8.388321126721172"><ele>312.0</ele><time>2026-04-19T16:05:04.999Z</time></trkpt><trkpt lat="44.33234902532929" lon="8.388057675760598"><ele>312.0</ele><time>2026-04-19T16:05:05.999Z</time></trkpt><trkpt lat="44.33235193705044" lon="8.387790992684035"><ele>312.0</ele><time>2026-04-19T16:05:06.999Z</time></trkpt><trkpt lat="44.33237729520499" lon="8.38751876283214"><ele>313.3333333333333</ele><time>2026-04-19T16:05:07.999Z</time></trkpt><trkpt lat="44.33240762892849" lon="8.387249291742856"><ele>314.66666666666663</ele><time>2026-04-19T16:05:08.999Z</time></trkpt><trkpt lat="44.33243423350834" lon="8.3869815779485"><ele>316.0</ele><time>2026-04-19T16:05:09.999Z</time></trkpt><trkpt lat="44.33244729362272" lon="8.38671543568564"><ele>316.66666666666663</ele><time>2026-04-19T16:05:10.999Z</time></trkpt><trkpt lat="44.33244770152177" lon="8.38645837422369"><ele>317.3333333333333</ele><time>2026-04-19T16:05:11.999Z</time></trkpt><trkpt lat="44.33244493618553" lon="8.386223239837284"><ele>318.0</ele><time>2026-04-19T16:05:12.999Z</time></trkpt><trkpt lat="44.332447165962854" lon="8.38600864710242"><ele>318.75</ele><time>2026-04-19T16:05:13.999Z</time></trkpt><trkpt lat="44.332447317990166" lon="8.38580600139867"><ele>319.5</ele><time>2026-04-19T16:05:14.999Z</time></trkpt><trkpt lat="44.332448301184264" lon="8.385605865463855"><ele>320.25</ele><time>2026-04-19T16:05:15.999Z</time></trkpt><trkpt lat="44.33243193816638" lon="8.38539821333457"><ele>321.0</ele><time>2026-04-19T16:05:16.999Z</time></trkpt><trkpt lat="44.33239112292679" lon="8.38520153065739"><ele>321.0</ele><time>2026-04-19T16:05:17.999Z</time></trkpt><trkpt lat="44.332329521289054" lon="8.385016205546108"><ele>321.0</ele><time>2026-04-19T16:05:18.999Z</time></trkpt><trkpt lat="44.33226884871216" lon="8.38485142422697"><ele>321.0</ele><time>2026-04-19T16:05:19.999Z</time></trkpt><trkpt lat="44.33221620936401" lon="8.384715038355695"><ele>321.0</ele><time>2026-04-19T16:05:20.999Z</time></trkpt><trkpt lat="44.33217115331532" lon="8.384594307442224"><ele>321.0</ele><time>2026-04-19T16:05:21.999Z</time></trkpt><trkpt lat="44.33213265513659" lon="8.38448036472875"><ele>321.0</ele><time>2026-04-19T16:05:22.999Z</time></trkpt><trkpt lat="44.33209668930689" lon="8.384353793048028"><ele>321.0</ele><time>2026-04-19T16:05:23.998Z</time></trkpt><trkpt lat="44.332062058459066" lon="8.384203226175686"><ele>321.0</ele><time>2026-04-19T16:05:24.998Z</time></trkpt><trkpt lat="44.33203165606984" lon="8.384039952012762"><ele>321.0</ele><time>2026-04-19T16:05:25.998Z</time></trkpt><trkpt lat="44.332015056362366" lon="8.383894163034103"><ele>321.0</ele><time>2026-04-19T16:05:26.998Z</time></trkpt><trkpt lat="44.3319987485302" lon="8.38376841688917"><ele>321.0</ele><time>2026-04-19T16:05:27.998Z</time></trkpt><trkpt lat="44.33198583537224" lon="8.38365301898554"><ele>321.0</ele><time>2026-04-19T16:05:28.998Z</time></trkpt><trkpt lat="44.331982869044715" lon="8.383535192230557"><ele>321.0</ele><time>2026-04-19T16:05:29.998Z</time></trkpt><trkpt lat="44.332009525717226" lon="8.38341241460861"><ele>321.0</ele><time>2026-04-19T16:05:30.998Z</time></trkpt><trkpt lat="44.33203097373396" lon="8.383274123316165"><ele>321.0</ele><time>2026-04-19T16:05:31.998Z</time></trkpt><trkpt lat="44.33206343449173" lon="8.38312033645406"><ele>321.0</ele><time>2026-04-19T16:05:32.998Z</time></trkpt><trkpt lat="44.33210141367484" lon="8.382951102876552"><ele>321.0</ele><time>2026-04-19T16:05:33.998Z</time></trkpt><trkpt lat="44.33216116530078" lon="8.38279961841078"><ele>321.0</ele><time>2026-04-19T16:05:34.998Z</time></trkpt><trkpt lat="44.3322065011221" lon="8.382655105612765"><ele>320.8</ele><time>2026-04-19T16:05:35.998Z</time></trkpt><trkpt lat="44.33221593533319" lon="8.38250279562923"><ele>320.6</ele><time>2026-04-19T16:05:36.998Z</time></trkpt><trkpt lat="44.33219633058716" lon="8.382340205726807"><ele>320.4</ele><time>2026-04-19T16:05:37.998Z</time></trkpt><trkpt lat="44.332189018895455" lon="8.382172720553593"><ele>320.2</ele><time>2026-04-19T16:05:38.998Z</time></trkpt><trkpt lat="44.332187247973906" lon="8.38203215801012"><ele>320.0</ele><time>2026-04-19T16:05:39.998Z</time></trkpt><trkpt lat="44.33220761160372" lon="8.381903415245032"><ele>325.5</ele><time>2026-04-19T16:05:40.998Z</time></trkpt><trkpt lat="44.33223695861512" lon="8.381775686658772"><ele>331.0</ele><time>2026-04-19T16:05:41.998Z</time></trkpt><trkpt lat="44.332340052945106" lon="8.381711296119116"><ele>336.5</ele><time>2026-04-19T16:05:42.998Z</time></trkpt><trkpt lat="44.33245645586824" lon="8.381671768649296"><ele>342.0</ele><time>2026-04-19T16:05:43.998Z</time></trkpt><trkpt lat="44.332584362352115" lon="8.381636152905312"><ele>342.0</ele><time>2026-04-19T16:05:44.998Z</time></trkpt><trkpt lat="44.33271450106318" lon="8.3816336263695"><ele>342.0</ele><time>2026-04-19T16:05:45.998Z</time></trkpt><trkpt lat="44.33282619648566" lon="8.381624119740335"><ele>342.0</ele><time>2026-04-19T16:05:46.998Z</time></trkpt><trkpt lat="44.332931084530124" lon="8.381630645619612"><ele>342.0</ele><time>2026-04-19T16:05:48Z</time></trkpt><trkpt lat="44.333029559903274" lon="8.381587417014583"><ele>341.75</ele><time>2026-04-19T16:05:49Z</time></trkpt><trkpt lat="44.33312040632987" lon="8.38150642140463"><ele>341.5</ele><time>2026-04-19T16:05:50Z</time></trkpt><trkpt lat="44.33319883163431" lon="8.381390800865734"><ele>341.25</ele><time>2026-04-19T16:05:51Z</time></trkpt><trkpt lat="44.33326229008341" lon="8.3812481022899"><ele>341.0</ele><time>2026-04-19T16:05:52Z</time></trkpt><trkpt lat="44.333319936134366" lon="8.381087814823088"><ele>341.0</ele><time>2026-04-19T16:05:53Z</time></trkpt><trkpt lat="44.33337681878863" lon="8.380918448804708"><ele>341.0</ele><time>2026-04-19T16:05:54Z</time></trkpt><trkpt lat="44.33343475116885" lon="8.380748759408387"><ele>341.0</ele><time>2026-04-19T16:05:55Z</time></trkpt><trkpt lat="44.33350403359909" lon="8.380589941926319"><ele>341.0</ele><time>2026-04-19T16:05:56Z</time></trkpt><trkpt lat="44.3335548042032" lon="8.380436277940284"><ele>337.75</ele><time>2026-04-19T16:05:57Z</time></trkpt><trkpt lat="44.333604130623" lon="8.380292499703268"><ele>334.5</ele><time>2026-04-19T16:05:58Z</time></trkpt><trkpt lat="44.333659558747264" lon="8.380138962545386"><ele>331.25</ele><time>2026-04-19T16:05:59Z</time></trkpt><trkpt lat="44.33371890621264" lon="8.379986777506407"><ele>328.0</ele><time>2026-04-19T16:06:00Z</time></trkpt><trkpt lat="44.33379264253517" lon="8.379849978720822"><ele>330.25</ele><time>2026-04-19T16:06:01Z</time></trkpt><trkpt lat="44.33389429683509" lon="8.379741001954168"><ele>332.5</ele><time>2026-04-19T16:06:02Z</time></trkpt><trkpt lat="44.33403435062912" lon="8.379683347231994"><ele>334.75</ele><time>2026-04-19T16:06:03Z</time></trkpt><trkpt lat="44.334175343179034" lon="8.379618153870004"><ele>337.0</ele><time>2026-04-19T16:06:04Z</time></trkpt><trkpt lat="44.33430402024778" lon="8.379525922638338"><ele>337.0</ele><time>2026-04-19T16:06:05Z</time></trkpt><trkpt lat="44.3344089929971" lon="8.379374684275033"><ele>337.0</ele><time>2026-04-19T16:06:06Z</time></trkpt><trkpt lat="44.334505354499655" lon="8.379178833093622"><ele>337.0</ele><time>2026-04-19T16:06:07Z</time></trkpt><trkpt lat="44.334582994736756" lon="8.378963964542244"><ele>334.0</ele><time>2026-04-19T16:06:08Z</time></trkpt><trkpt lat="44.3346430495289" lon="8.378770115690639"><ele>331.0</ele><time>2026-04-19T16:06:09Z</time></trkpt><trkpt lat="44.334684538305396" lon="8.378584992489442"><ele>328.0</ele><time>2026-04-19T16:06:10Z</time></trkpt><trkpt lat="44.33470212067258" lon="8.378392916232368"><ele>325.0</ele><time>2026-04-19T16:06:11Z</time></trkpt><trkpt lat="44.334683436441566" lon="8.378177435565364"><ele>327.66666666666663</ele><time>2026-04-19T16:06:12Z</time></trkpt><trkpt lat="44.334637995976" lon="8.377935874690603"><ele>330.3333333333333</ele><time>2026-04-19T16:06:13Z</time></trkpt><trkpt lat="44.33461899722651" lon="8.37768618915567"><ele>333.0</ele><time>2026-04-19T16:06:14Z</time></trkpt><trkpt lat="44.33459326559462" lon="8.377468041199485"><ele>333.0</ele><time>2026-04-19T16:06:15Z</time></trkpt><trkpt lat="44.33457556373946" lon="8.377269174307338"><ele>333.0</ele><time>2026-04-19T16:06:15.999Z</time></trkpt><trkpt lat="44.33456309365416" lon="8.377080530875125"><ele>333.0</ele><time>2026-04-19T16:06:16.999Z</time></trkpt><trkpt lat="44.33455676499475" lon="8.376903458096777"><ele>333.0</ele><time>2026-04-19T16:06:17.999Z</time></trkpt><trkpt lat="44.33457091627555" lon="8.376739751856068"><ele>334.5</ele><time>2026-04-19T16:06:18.999Z</time></trkpt><trkpt lat="44.33462078951515" lon="8.376579891182358"><ele>336.0</ele><time>2026-04-19T16:06:19.999Z</time></trkpt><trkpt lat="44.33468659523176" lon="8.376388512430706"><ele>337.5</ele><time>2026-04-19T16:06:20.999Z</time></trkpt><trkpt lat="44.33474059370539" lon="8.376165040830317"><ele>339.0</ele><time>2026-04-19T16:06:21.999Z</time></trkpt><trkpt lat="44.33480205586889" lon="8.375932538926822"><ele>342.6666666666667</ele><time>2026-04-19T16:06:22.999Z</time></trkpt><trkpt lat="44.3348491538801" lon="8.375687876820233"><ele>346.33333333333337</ele><time>2026-04-19T16:06:23.999Z</time></trkpt><trkpt lat="44.334900232499656" lon="8.37546145083707"><ele>350.0</ele><time>2026-04-19T16:06:24.999Z</time></trkpt><trkpt lat="44.33496243531652" lon="8.375251705216774"><ele>350.0</ele><time>2026-04-19T16:06:25.999Z</time></trkpt><trkpt lat="44.33495436335379" lon="8.37503052368055"><ele>350.0</ele><time>2026-04-19T16:06:26.999Z</time></trkpt><trkpt lat="44.334954531498724" lon="8.374828195467975"><ele>350.0</ele><time>2026-04-19T16:06:27.999Z</time></trkpt><trkpt lat="44.33493800394447" lon="8.374648204280103"><ele>350.0</ele><time>2026-04-19T16:06:28.999Z</time></trkpt><trkpt lat="44.33494437923493" lon="8.374487305827627"><ele>350.25</ele><time>2026-04-19T16:06:29.999Z</time></trkpt><trkpt lat="44.33499358897949" lon="8.374349449396266"><ele>350.5</ele><time>2026-04-19T16:06:30.999Z</time></trkpt><trkpt lat="44.33508172446524" lon="8.37423518964911"><ele>350.75</ele><time>2026-04-19T16:06:31.999Z</time></trkpt><trkpt lat="44.33519491727608" lon="8.374161024018111"><ele>351.0</ele><time>2026-04-19T16:06:32.999Z</time></trkpt><trkpt lat="44.33532043625291" lon="8.374142775847115"><ele>351.0</ele><time>2026-04-19T16:06:33.999Z</time></trkpt><trkpt lat="44.335446592289806" lon="8.374154919306624"><ele>351.0</ele><time>2026-04-19T16:06:34.999Z</time></trkpt><trkpt lat="44.33556233150847" lon="8.374135198889539"><ele>351.0</ele><time>2026-04-19T16:06:35.999Z</time></trkpt><trkpt lat="44.335684217719304" lon="8.374076996365106"><ele>351.0</ele><time>2026-04-19T16:06:36.999Z</time></trkpt><trkpt lat="44.33578594893618" lon="8.37393078495679"><ele>349.0</ele><time>2026-04-19T16:06:37.999Z</time></trkpt><trkpt lat="44.33585188801144" lon="8.37373182044854"><ele>347.0</ele><time>2026-04-19T16:06:38.999Z</time></trkpt><trkpt lat="44.3358524755156" lon="8.3734973223128"><ele>345.0</ele><time>2026-04-19T16:06:39.999Z</time></trkpt><trkpt lat="44.33586514400239" lon="8.373253464568087"><ele>343.3333333333333</ele><time>2026-04-19T16:06:40.999Z</time></trkpt><trkpt lat="44.335875569735514" lon="8.373017921964172"><ele>341.66666666666663</ele><time>2026-04-19T16:06:41.999Z</time></trkpt><trkpt lat="44.33591137396334" lon="8.372801051440494"><ele>340.0</ele><time>2026-04-19T16:06:42.999Z</time></trkpt><trkpt lat="44.335931838876775" lon="8.372589002336051"><ele>340.0</ele><time>2026-04-19T16:06:43.999Z</time></trkpt><trkpt lat="44.335936661657264" lon="8.372371868851598"><ele>340.0</ele><time>2026-04-19T16:06:44.999Z</time></trkpt><trkpt lat="44.33597351579888" lon="8.372148466895222"><ele>340.0</ele><time>2026-04-19T16:06:45.999Z</time></trkpt><trkpt lat="44.33601395896265" lon="8.371943237081888"><ele>338.66666666666663</ele><time>2026-04-19T16:06:46.999Z</time></trkpt><trkpt lat="44.336058773678346" lon="8.371742786915112"><ele>337.3333333333333</ele><time>2026-04-19T16:06:47.999Z</time></trkpt><trkpt lat="44.336126738632736" lon="8.371547839570368"><ele>336.0</ele><time>2026-04-19T16:06:48.999Z</time></trkpt><trkpt lat="44.33617907343654" lon="8.371333380963259"><ele>337.3333333333333</ele><time>2026-04-19T16:06:49.999Z</time></trkpt><trkpt lat="44.336262897894834" lon="8.371116980400597"><ele>338.66666666666663</ele><time>2026-04-19T16:06:50.999Z</time></trkpt><trkpt lat="44.33636234822935" lon="8.370897115843936"><ele>340.0</ele><time>2026-04-19T16:06:51.999Z</time></trkpt><trkpt lat="44.33646852027459" lon="8.370691737606439"><ele>342.0</ele><time>2026-04-19T16:06:52.999Z</time></trkpt><trkpt lat="44.33657381618487" lon="8.370505549086698"><ele>344.0</ele><time>2026-04-19T16:06:53.999Z</time></trkpt><trkpt lat="44.33667254439587" lon="8.370325561361783"><ele>346.0</ele><time>2026-04-19T16:06:54.999Z</time></trkpt><trkpt lat="44.33674737352082" lon="8.3701383461973"><ele>346.0</ele><time>2026-04-19T16:06:55.999Z</time></trkpt><trkpt lat="44.3367844093086" lon="8.369937665725073"><ele>346.0</ele><time>2026-04-19T16:06:56.999Z</time></trkpt><trkpt lat="44.33678708231793" lon="8.369728462073741"><ele>346.0</ele><time>2026-04-19T16:06:57.999Z</time></trkpt><trkpt lat="44.336759233530906" lon="8.36951078411879"><ele>347.66666666666663</ele><time>2026-04-19T16:06:58.999Z</time></trkpt><trkpt lat="44.33669552263587" lon="8.369294648922589"><ele>349.3333333333333</ele><time>2026-04-19T16:06:59.999Z</time></trkpt><trkpt lat="44.336606388630244" lon="8.369093265760652"><ele>351.0</ele><time>2026-04-19T16:07:00.999Z</time></trkpt><trkpt lat="44.33649889665709" lon="8.368921945310973"><ele>353.6666666666667</ele><time>2026-04-19T16:07:01.999Z</time></trkpt><trkpt lat="44.33636675177201" lon="8.368781293921"><ele>356.33333333333337</ele><time>2026-04-19T16:07:02.999Z</time></trkpt><trkpt lat="44.336210554612144" lon="8.368683300950112"><ele>359.0</ele><time>2026-04-19T16:07:03.999Z</time></trkpt><trkpt lat="44.33605885211402" lon="8.36857213461896"><ele>359.0</ele><time>2026-04-19T16:07:04.999Z</time></trkpt><trkpt lat="44.3359106420229" lon="8.368470317530488"><ele>359.0</ele><time>2026-04-19T16:07:05.999Z</time></trkpt><trkpt lat="44.33576621795621" lon="8.368334733267286"><ele>359.0</ele><time>2026-04-19T16:07:06.999Z</time></trkpt><trkpt lat="44.33564254398833" lon="8.36816948624139"><ele>354.6666666666667</ele><time>2026-04-19T16:07:07.999Z</time></trkpt><trkpt lat="44.33554047354956" lon="8.367991944150718"><ele>350.3333333333333</ele><time>2026-04-19T16:07:08.999Z</time></trkpt><trkpt lat="44.33545498408962" lon="8.367819365503774"><ele>346.0</ele><time>2026-04-19T16:07:09.999Z</time></trkpt><trkpt lat="44.33540397306018" lon="8.367628613915059"><ele>346.0</ele><time>2026-04-19T16:07:10.999Z</time></trkpt><trkpt lat="44.33536542249375" lon="8.367429325265112"><ele>346.0</ele><time>2026-04-19T16:07:11.999Z</time></trkpt><trkpt lat="44.335346439466804" lon="8.367210348425347"><ele>346.0</ele><time>2026-04-19T16:07:12.999Z</time></trkpt><trkpt lat="44.33534604814959" lon="8.366984964437824"><ele>347.25</ele><time>2026-04-19T16:07:13.999Z</time></trkpt><trkpt lat="44.33535140015592" lon="8.366775624892052"><ele>348.5</ele><time>2026-04-19T16:07:14.999Z</time></trkpt><trkpt lat="44.335352491788434" lon="8.366586031038654"><ele>349.75</ele><time>2026-04-19T16:07:15.999Z</time></trkpt><trkpt lat="44.335352140500966" lon="8.366409555976617"><ele>351.0</ele><time>2026-04-19T16:07:16.999Z</time></trkpt><trkpt lat="44.33534778225225" lon="8.366232537958055"><ele>355.25</ele><time>2026-04-19T16:07:17.999Z</time></trkpt><trkpt lat="44.33532297014538" lon="8.366054050898134"><ele>359.5</ele><time>2026-04-19T16:07:18.999Z</time></trkpt><trkpt lat="44.33526550314426" lon="8.365882047688773"><ele>363.75</ele><time>2026-04-19T16:07:19.999Z</time></trkpt><trkpt lat="44.33518587563773" lon="8.365740308411356"><ele>368.0</ele><time>2026-04-19T16:07:20.999Z</time></trkpt><trkpt lat="44.33511240651882" lon="8.365612315035852"><ele>368.75</ele><time>2026-04-19T16:07:21.999Z</time></trkpt><trkpt lat="44.335049653733854" lon="8.365472109117256"><ele>369.5</ele><time>2026-04-19T16:07:22.999Z</time></trkpt><trkpt lat="44.335012424570834" lon="8.365311005183978"><ele>370.25</ele><time>2026-04-19T16:07:23.999Z</time></trkpt><trkpt lat="44.33500086089342" lon="8.365136004594397"><ele>371.0</ele><time>2026-04-19T16:07:24.999Z</time></trkpt><trkpt lat="44.335014820508746" lon="8.36495995433504"><ele>371.0</ele><time>2026-04-19T16:07:25.999Z</time></trkpt><trkpt lat="44.335046443971954" lon="8.364782983537747"><ele>371.0</ele><time>2026-04-19T16:07:26.999Z</time></trkpt><trkpt lat="44.33508994578623" lon="8.36461142726983"><ele>371.0</ele><time>2026-04-19T16:07:27.999Z</time></trkpt><trkpt lat="44.335135401053414" lon="8.36444564278131"><ele>371.0</ele><time>2026-04-19T16:07:28.999Z</time></trkpt><trkpt lat="44.33518708321738" lon="8.364281741912198"><ele>371.25</ele><time>2026-04-19T16:07:29.999Z</time></trkpt><trkpt lat="44.33523531463832" lon="8.36411773272541"><ele>371.5</ele><time>2026-04-19T16:07:30.998Z</time></trkpt><trkpt lat="44.3352718669017" lon="8.3639521373738"><ele>371.75</ele><time>2026-04-19T16:07:31.998Z</time></trkpt><trkpt lat="44.33530498085812" lon="8.363783268649396"><ele>372.0</ele><time>2026-04-19T16:07:32.998Z</time></trkpt><trkpt lat="44.33527423279398" lon="8.363595437852926"><ele>372.0</ele><time>2026-04-19T16:07:33.998Z</time></trkpt><trkpt lat="44.335254388920575" lon="8.363389844172513"><ele>372.0</ele><time>2026-04-19T16:07:34.998Z</time></trkpt><trkpt lat="44.335207581802514" lon="8.36321006086896"><ele>372.0</ele><time>2026-04-19T16:07:35.998Z</time></trkpt><trkpt lat="44.335156628428294" lon="8.363009704877653"><ele>372.0</ele><time>2026-04-19T16:07:36.998Z</time></trkpt><trkpt lat="44.33510050317043" lon="8.362789012624386"><ele>375.6666666666667</ele><time>2026-04-19T16:07:37.998Z</time></trkpt><trkpt lat="44.335043743738076" lon="8.36256582691278"><ele>379.33333333333337</ele><time>2026-04-19T16:07:38.998Z</time></trkpt><trkpt lat="44.33497552583715" lon="8.36234696543094"><ele>383.0</ele><time>2026-04-19T16:07:39.998Z</time></trkpt><trkpt lat="44.3349296669002" lon="8.36210267074406"><ele>389.0</ele><time>2026-04-19T16:07:40.998Z</time></trkpt><trkpt lat="44.33486823172464" lon="8.361849257128666"><ele>395.0</ele><time>2026-04-19T16:07:41.998Z</time></trkpt><trkpt lat="44.334806371574096" lon="8.361597874744335"><ele>401.0</ele><time>2026-04-19T16:07:42.998Z</time></trkpt><trkpt lat="44.33473900090589" lon="8.361383596882712"><ele>396.75</ele><time>2026-04-19T16:07:43.998Z</time></trkpt><trkpt lat="44.33469668534862" lon="8.361183399795493"><ele>392.5</ele><time>2026-04-19T16:07:44.998Z</time></trkpt><trkpt lat="44.33465593092765" lon="8.36100844662471"><ele>388.25</ele><time>2026-04-19T16:07:45.998Z</time></trkpt><trkpt lat="44.33462759794456" lon="8.360852134051314"><ele>384.0</ele><time>2026-04-19T16:07:46.998Z</time></trkpt><trkpt lat="44.33461434183853" lon="8.36069619584807"><ele>380.75</ele><time>2026-04-19T16:07:47.998Z</time></trkpt><trkpt lat="44.3346110913693" lon="8.360525044105964"><ele>377.5</ele><time>2026-04-19T16:07:48.998Z</time></trkpt><trkpt lat="44.334622590934806" lon="8.36034742997188"><ele>374.25</ele><time>2026-04-19T16:07:49.998Z</time></trkpt><trkpt lat="44.334647050048616" lon="8.360158196056478"><ele>371.0</ele><time>2026-04-19T16:07:50.998Z</time></trkpt><trkpt lat="44.33468265427284" lon="8.359961632810272"><ele>380.6666666666667</ele><time>2026-04-19T16:07:51.998Z</time></trkpt><trkpt lat="44.334730520683905" lon="8.359775585329205"><ele>390.33333333333337</ele><time>2026-04-19T16:07:52.998Z</time></trkpt><trkpt lat="44.33478288000397" lon="8.35957873077552"><ele>400.0</ele><time>2026-04-19T16:07:54Z</time></trkpt><trkpt lat="44.334834051724904" lon="8.359364585300664"><ele>399.6666666666667</ele><time>2026-04-19T16:07:55Z</time></trkpt><trkpt lat="44.334888437611994" lon="8.35913709313333"><ele>399.33333333333337</ele><time>2026-04-19T16:07:56Z</time></trkpt><trkpt lat="44.33494872694257" lon="8.358904423801876"><ele>399.0</ele><time>2026-04-19T16:07:57Z</time></trkpt><trkpt lat="44.33500826386132" lon="8.3586854505902"><ele>399.0</ele><time>2026-04-19T16:07:58Z</time></trkpt><trkpt lat="44.335065862448516" lon="8.358475782929773"><ele>399.0</ele><time>2026-04-19T16:07:59Z</time></trkpt><trkpt lat="44.33511735266892" lon="8.358283070389765"><ele>399.0</ele><time>2026-04-19T16:08:00Z</time></trkpt><trkpt lat="44.335161484741114" lon="8.358103861147294"><ele>399.0</ele><time>2026-04-19T16:08:01Z</time></trkpt><trkpt lat="44.33520383373187" lon="8.357918626886708"><ele>400.0</ele><time>2026-04-19T16:08:02Z</time></trkpt><trkpt lat="44.335247903628456" lon="8.357726551609884"><ele>401.0</ele><time>2026-04-19T16:08:03Z</time></trkpt><trkpt lat="44.33529234381311" lon="8.357531970736993"><ele>402.0</ele><time>2026-04-19T16:08:04Z</time></trkpt><trkpt lat="44.335336575786016" lon="8.357335004761755"><ele>403.0</ele><time>2026-04-19T16:08:05Z</time></trkpt><trkpt lat="44.33538291203677" lon="8.35713669096925"><ele>406.33333333333337</ele><time>2026-04-19T16:08:06Z</time></trkpt><trkpt lat="44.33543415781205" lon="8.356934598031414"><ele>409.66666666666663</ele><time>2026-04-19T16:08:07Z</time></trkpt><trkpt lat="44.33549019224868" lon="8.356728425686255"><ele>413.0</ele><time>2026-04-19T16:08:08Z</time></trkpt><trkpt lat="44.3355503255803" lon="8.356518340566867"><ele>401.3333333333333</ele><time>2026-04-19T16:08:09Z</time></trkpt><trkpt lat="44.33561276819877" lon="8.356302546143182"><ele>389.66666666666663</ele><time>2026-04-19T16:08:10Z</time></trkpt><trkpt lat="44.33569755907172" lon="8.356082762777739"><ele>378.0</ele><time>2026-04-19T16:08:11Z</time></trkpt><trkpt lat="44.335773401582905" lon="8.35584540638993"><ele>378.0</ele><time>2026-04-19T16:08:12Z</time></trkpt><trkpt lat="44.3358559675925" lon="8.355600785578206"><ele>378.0</ele><time>2026-04-19T16:08:13Z</time></trkpt><trkpt lat="44.33594572963163" lon="8.355350252669082"><ele>378.0</ele><time>2026-04-19T16:08:14Z</time></trkpt><trkpt lat="44.33604139269112" lon="8.355092980548568"><ele>378.3333333333333</ele><time>2026-04-19T16:08:15Z</time></trkpt><trkpt lat="44.33614403065871" lon="8.354832539523755"><ele>378.66666666666663</ele><time>2026-04-19T16:08:16Z</time></trkpt><trkpt lat="44.33625083378464" lon="8.354574931052761"><ele>379.0</ele><time>2026-04-19T16:08:17Z</time></trkpt><trkpt lat="44.336345109035726" lon="8.354315136842686"><ele>383.3333333333333</ele><time>2026-04-19T16:08:18Z</time></trkpt><trkpt lat="44.336473237003425" lon="8.354074873598005"><ele>387.66666666666663</ele><time>2026-04-19T16:08:19Z</time></trkpt><trkpt lat="44.33659802809642" lon="8.353818298115716"><ele>392.0</ele><time>2026-04-19T16:08:20Z</time></trkpt><trkpt lat="44.336726366591364" lon="8.353565969288542"><ele>395.3333333333333</ele><time>2026-04-19T16:08:21Z</time></trkpt><trkpt lat="44.33686087652092" lon="8.353309723502838"><ele>398.66666666666663</ele><time>2026-04-19T16:08:22Z</time></trkpt><trkpt lat="44.336979933255115" lon="8.353056354063394"><ele>402.0</ele><time>2026-04-19T16:08:23Z</time></trkpt><trkpt lat="44.33710953396383" lon="8.352841675583186"><ele>407.0</ele><time>2026-04-19T16:08:24Z</time></trkpt><trkpt lat="44.33722535292472" lon="8.352654624002573"><ele>412.0</ele><time>2026-04-19T16:08:24.999Z</time></trkpt><trkpt lat="44.33733324131073" lon="8.35248491053298"><ele>417.0</ele><time>2026-04-19T16:08:25.999Z</time></trkpt><trkpt lat="44.33743966115872" lon="8.3523201408591"><ele>420.0</ele><time>2026-04-19T16:08:26.999Z</time></trkpt><trkpt lat="44.337543896446775" lon="8.35216263085668"><ele>423.0</ele><time>2026-04-19T16:08:27.999Z</time></trkpt><trkpt lat="44.33765399587022" lon="8.352000611128215"><ele>426.0</ele><time>2026-04-19T16:08:28.999Z</time></trkpt><trkpt lat="44.33776903351025" lon="8.351838359259851"><ele>426.0</ele><time>2026-04-19T16:08:29.999Z</time></trkpt><trkpt lat="44.3378860834598" lon="8.351677792968712"><ele>426.0</ele><time>2026-04-19T16:08:30.999Z</time></trkpt><trkpt lat="44.338008300218654" lon="8.351518177475915"><ele>426.0</ele><time>2026-04-19T16:08:31.999Z</time></trkpt><trkpt lat="44.33813346879534" lon="8.351356725188067"><ele>425.33333333333337</ele><time>2026-04-19T16:08:32.999Z</time></trkpt><trkpt lat="44.33825045274221" lon="8.351203220830433"><ele>424.6666666666667</ele><time>2026-04-19T16:08:33.999Z</time></trkpt><trkpt lat="44.33835891096958" lon="8.351059895068461"><ele>424.0</ele><time>2026-04-19T16:08:34.999Z</time></trkpt><trkpt lat="44.33846152277236" lon="8.350920972945332"><ele>424.0</ele><time>2026-04-19T16:08:35.999Z</time></trkpt><trkpt lat="44.33855934176039" lon="8.350786909309111"><ele>424.0</ele><time>2026-04-19T16:08:36.999Z</time></trkpt><trkpt lat="44.338675113708454" lon="8.350664975833492"><ele>424.0</ele><time>2026-04-19T16:08:37.999Z</time></trkpt><trkpt lat="44.338788316992755" lon="8.350516333382975"><ele>424.0</ele><time>2026-04-19T16:08:38.999Z</time></trkpt><trkpt lat="44.33889632491077" lon="8.350346241423203"><ele>429.6666666666667</ele><time>2026-04-19T16:08:39.999Z</time></trkpt><trkpt lat="44.33901676495793" lon="8.350190974451138"><ele>435.33333333333337</ele><time>2026-04-19T16:08:40.999Z</time></trkpt><trkpt lat="44.339135763748295" lon="8.350035818505056"><ele>441.0</ele><time>2026-04-19T16:08:41.999Z</time></trkpt><trkpt lat="44.33925556372641" lon="8.349881518019375"><ele>441.0</ele><time>2026-04-19T16:08:42.999Z</time></trkpt><trkpt lat="44.339377174323566" lon="8.349722840550266"><ele>441.0</ele><time>2026-04-19T16:08:43.999Z</time></trkpt><trkpt lat="44.33950017670884" lon="8.349559449618958"><ele>441.0</ele><time>2026-04-19T16:08:44.999Z</time></trkpt><trkpt lat="44.33962264425545" lon="8.349396179060713"><ele>442.66666666666663</ele><time>2026-04-19T16:08:45.999Z</time></trkpt><trkpt lat="44.339745666874116" lon="8.349236000454656"><ele>444.3333333333333</ele><time>2026-04-19T16:08:46.999Z</time></trkpt><trkpt lat="44.33988061298993" lon="8.349063466533156"><ele>446.0</ele><time>2026-04-19T16:08:48.067Z</time></trkpt><trkpt lat="44.3400126076687" lon="8.348892081248254"><ele>447.3333333333333</ele><time>2026-04-19T16:08:49.058Z</time></trkpt><trkpt lat="44.340149550788944" lon="8.348709434600146"><ele>448.66666666666663</ele><time>2026-04-19T16:08:50.056Z</time></trkpt><trkpt lat="44.34029566368569" lon="8.348540801540148"><ele>450.0</ele><time>2026-04-19T16:08:51.056Z</time></trkpt><trkpt lat="44.34043103440569" lon="8.34835570944735"><ele>451.0</ele><time>2026-04-19T16:08:52.05Z</time></trkpt><trkpt lat="44.341775858919654" lon="8.345358751832721"><ele>473.0</ele><time>2026-04-19T16:08:56.1Z</time></trkpt><trkpt lat="44.34195739491387" lon="8.344517293705902"><ele>480.0</ele><time>2026-04-19T16:08:57.101Z</time></trkpt><trkpt lat="44.3420750792459" lon="8.343656677802313"><ele>484.0</ele><time>2026-04-19T16:08:58.1Z</time></trkpt><trkpt lat="44.342124743760884" lon="8.342783076941851"><ele>482.0</ele><time>2026-04-19T16:08:59.099Z</time></trkpt><trkpt lat="44.34210898402601" lon="8.341906487414017"><ele>482.5</ele><time>2026-04-19T16:09:00.098Z</time></trkpt><trkpt lat="44.34209" lon="8.34137"><ele>483.0</ele><time>2026-04-19T16:09:01.101Z</time></trkpt><trkpt lat="44.343451702695205" lon="8.327682670724544"><ele>474.59999999999997</ele><time>2026-04-19T16:10:19.998Z</time></trkpt><trkpt lat="44.34346285815418" lon="8.327485657901356"><ele>466.19999999999993</ele><time>2026-04-19T16:10:20.998Z</time></trkpt><trkpt lat="44.34349260893132" lon="8.327399261116952"><ele>457.8</ele><time>2026-04-19T16:10:21.998Z</time></trkpt><trkpt lat="44.34358541900194" lon="8.327464952921202"><ele>449.4</ele><time>2026-04-19T16:10:22.998Z</time></trkpt><trkpt lat="44.343636011378294" lon="8.327358284320015"><ele>441.0</ele><time>2026-04-19T16:10:23.998Z</time></trkpt><trkpt lat="44.342278451193366" lon="8.325553813167794"><ele>425.75</ele><time>2026-04-19T16:10:24.998Z</time></trkpt><trkpt lat="44.34217671808486" lon="8.325443122801373"><ele>410.5</ele><time>2026-04-19T16:10:25.998Z</time></trkpt><trkpt lat="44.34208371742299" lon="8.325309178246295"><ele>395.25</ele><time>2026-04-19T16:10:26.998Z</time></trkpt><trkpt lat="44.34205337517982" lon="8.32522194823206"><ele>380.0</ele><time>2026-04-19T16:10:27.998Z</time></trkpt><trkpt lat="44.34210432259714" lon="8.325066587611607"><ele>380.0</ele><time>2026-04-19T16:10:30Z</time></trkpt><trkpt lat="44.3421814880877" lon="8.325037359805544"><ele>380.0</ele><time>2026-04-19T16:10:31Z</time></trkpt><trkpt lat="44.342273046818285" lon="8.325016669009052"><ele>380.0</ele><time>2026-04-19T16:10:32Z</time></trkpt><trkpt lat="44.34237078815797" lon="8.32501958119122"><ele>380.0</ele><time>2026-04-19T16:10:33Z</time></trkpt><trkpt lat="44.34245461137551" lon="8.325033412335156"><ele>380.0</ele><time>2026-04-19T16:10:34Z</time></trkpt><trkpt lat="44.34258740101475" lon="8.324998525500435"><ele>379.5</ele><time>2026-04-19T16:10:36Z</time></trkpt><trkpt lat="44.34268295489248" lon="8.324965299720738"><ele>379.0</ele><time>2026-04-19T16:10:37Z</time></trkpt><trkpt lat="44.34282055470168" lon="8.32490899326366"><ele>378.5</ele><time>2026-04-19T16:10:38Z</time></trkpt><trkpt lat="44.342987127176414" lon="8.324829194250855"><ele>378.0</ele><time>2026-04-19T16:10:39Z</time></trkpt><trkpt lat="44.3431839900578" lon="8.324749290478527"><ele>377.75</ele><time>2026-04-19T16:10:40Z</time></trkpt><trkpt lat="44.34334567555511" lon="8.324688038714916"><ele>377.5</ele><time>2026-04-19T16:10:41Z</time></trkpt><trkpt lat="44.3434743344218" lon="8.324646291337574"><ele>377.25</ele><time>2026-04-19T16:10:42Z</time></trkpt><trkpt lat="44.34356390990499" lon="8.324585950874411"><ele>377.0</ele><time>2026-04-19T16:10:43Z</time></trkpt><trkpt lat="44.343638547954484" lon="8.324492686216812"><ele>377.0</ele><time>2026-04-19T16:10:44Z</time></trkpt><trkpt lat="44.34368349293103" lon="8.324372146527466"><ele>377.0</ele><time>2026-04-19T16:10:45Z</time></trkpt><trkpt lat="44.3437442280224" lon="8.324263264598553"><ele>377.0</ele><time>2026-04-19T16:10:46Z</time></trkpt><trkpt lat="44.343752118440925" lon="8.324119356153977"><ele>377.0</ele><time>2026-04-19T16:10:47Z</time></trkpt><trkpt lat="44.34372864534921" lon="8.323985812832525"><ele>377.0</ele><time>2026-04-19T16:10:48Z</time></trkpt><trkpt lat="44.34368216519741" lon="8.323854044992792"><ele>377.6</ele><time>2026-04-19T16:10:49Z</time></trkpt><trkpt lat="44.34361069120862" lon="8.323730751345522"><ele>378.20000000000005</ele><time>2026-04-19T16:10:50Z</time></trkpt><trkpt lat="44.34354606121655" lon="8.3236211637619"><ele>378.8</ele><time>2026-04-19T16:10:51Z</time></trkpt><trkpt lat="44.343501510172764" lon="8.323509915112687"><ele>379.4</ele><time>2026-04-19T16:10:52Z</time></trkpt><trkpt lat="44.34348385826659" lon="8.323394242054423"><ele>380.0</ele><time>2026-04-19T16:10:53Z</time></trkpt><trkpt lat="44.34349801604831" lon="8.323273333985227"><ele>380.0</ele><time>2026-04-19T16:10:54Z</time></trkpt><trkpt lat="44.34355564771237" lon="8.323142506147116"><ele>380.0</ele><time>2026-04-19T16:10:55Z</time></trkpt><trkpt lat="44.34363016523491" lon="8.323028246629336"><ele>380.0</ele><time>2026-04-19T16:10:56Z</time></trkpt><trkpt lat="44.343729972923605" lon="8.322929547197203"><ele>380.0</ele><time>2026-04-19T16:10:57Z</time></trkpt><trkpt lat="44.343847502219376" lon="8.322827100814656"><ele>380.33333333333337</ele><time>2026-04-19T16:10:58Z</time></trkpt><trkpt lat="44.343978834030075" lon="8.322708218524575"><ele>380.6666666666667</ele><time>2026-04-19T16:10:59Z</time></trkpt><trkpt lat="44.34412204307864" lon="8.322574599330226"><ele>381.0</ele><time>2026-04-19T16:11:00Z</time></trkpt><trkpt lat="44.344275434034955" lon="8.322428591593072"><ele>381.0</ele><time>2026-04-19T16:11:01Z</time></trkpt><trkpt lat="44.34443130058972" lon="8.32227094288615"><ele>381.0</ele><time>2026-04-19T16:11:02Z</time></trkpt><trkpt lat="44.34458750854398" lon="8.322111674939501"><ele>381.0</ele><time>2026-04-19T16:11:03Z</time></trkpt><trkpt lat="44.34473877170262" lon="8.32196621703845"><ele>382.33333333333337</ele><time>2026-04-19T16:11:04Z</time></trkpt><trkpt lat="44.34487885676157" lon="8.321826917280024"><ele>383.6666666666667</ele><time>2026-04-19T16:11:05Z</time></trkpt><trkpt lat="44.3450120670793" lon="8.321696111463917"><ele>385.0</ele><time>2026-04-19T16:11:06Z</time></trkpt><trkpt lat="44.34513380725622" lon="8.321572987385057"><ele>385.0</ele><time>2026-04-19T16:11:07Z</time></trkpt><trkpt lat="44.34524199091921" lon="8.321449283579039"><ele>385.0</ele><time>2026-04-19T16:11:08Z</time></trkpt><trkpt lat="44.345329023870924" lon="8.321328598654437"><ele>385.0</ele><time>2026-04-19T16:11:08.999Z</time></trkpt><trkpt lat="44.34539345037675" lon="8.321221584575957"><ele>385.0</ele><time>2026-04-19T16:11:09.999Z</time></trkpt><trkpt lat="44.34543835333139" lon="8.321128265236979"><ele>385.0</ele><time>2026-04-19T16:11:10.999Z</time></trkpt><trkpt lat="44.34548068579709" lon="8.321038495752216"><ele>384.50000000000006</ele><time>2026-04-19T16:11:11.999Z</time></trkpt><trkpt lat="44.34552385529338" lon="8.3209548733217"><ele>384.0</ele><time>2026-04-19T16:11:12.999Z</time></trkpt><trkpt lat="44.345580326515865" lon="8.320899011102426"><ele>383.5</ele><time>2026-04-19T16:11:13.999Z</time></trkpt><trkpt lat="44.34564411107845" lon="8.320877368096992"><ele>383.0</ele><time>2026-04-19T16:11:14.999Z</time></trkpt><trkpt lat="44.34574570991207" lon="8.320843643807217"><ele>382.5</ele><time>2026-04-19T16:11:16.999Z</time></trkpt><trkpt lat="44.345775412506086" lon="8.320667576340082"><ele>382.0</ele><time>2026-04-19T16:11:18.999Z</time></trkpt><trkpt lat="44.34573255230627" lon="8.320564077697568"><ele>382.0</ele><time>2026-04-19T16:11:19.999Z</time></trkpt><trkpt lat="44.34565990968864" lon="8.320462062010638"><ele>382.0</ele><time>2026-04-19T16:11:20.999Z</time></trkpt><trkpt lat="44.34557890733538" lon="8.320341576679237"><ele>382.0</ele><time>2026-04-19T16:11:21.999Z</time></trkpt><trkpt lat="44.34550615169069" lon="8.32017408844134"><ele>382.0</ele><time>2026-04-19T16:11:22.999Z</time></trkpt><trkpt lat="44.345437836701386" lon="8.319981543149348"><ele>389.3333333333333</ele><time>2026-04-19T16:11:23.999Z</time></trkpt><trkpt lat="44.34536786781665" lon="8.319776499082765"><ele>396.66666666666663</ele><time>2026-04-19T16:11:24.999Z</time></trkpt><trkpt lat="44.34531462890696" lon="8.319563579785445"><ele>404.0</ele><time>2026-04-19T16:11:25.999Z</time></trkpt><trkpt lat="44.3452904102471" lon="8.319338240815396"><ele>404.0</ele><time>2026-04-19T16:11:26.999Z</time></trkpt><trkpt lat="44.345294782704684" lon="8.319093065710415"><ele>404.0</ele><time>2026-04-19T16:11:27.999Z</time></trkpt><trkpt lat="44.345330445399476" lon="8.318833526515684"><ele>404.0</ele><time>2026-04-19T16:11:28.999Z</time></trkpt><trkpt lat="44.34538223806619" lon="8.318566361317858"><ele>404.0</ele><time>2026-04-19T16:11:29.999Z</time></trkpt><trkpt lat="44.34543649716838" lon="8.318282957770634"><ele>404.0</ele><time>2026-04-19T16:11:30.999Z</time></trkpt><trkpt lat="44.34548703815259" lon="8.317986263904592"><ele>404.0</ele><time>2026-04-19T16:11:31.999Z</time></trkpt><trkpt lat="44.34554158122339" lon="8.317680612592289"><ele>392.0</ele><time>2026-04-19T16:11:32.999Z</time></trkpt><trkpt lat="44.34559671730417" lon="8.317362530649566"><ele>380.0</ele><time>2026-04-19T16:11:33.999Z</time></trkpt><trkpt lat="44.34564961717541" lon="8.31703769430306"><ele>379.0</ele><time>2026-04-19T16:11:34.999Z</time></trkpt><trkpt lat="44.34570071151764" lon="8.316701150618016"><ele>378.0</ele><time>2026-04-19T16:11:35.999Z</time></trkpt><trkpt lat="44.34575315099726" lon="8.316373736041733"><ele>379.6666666666667</ele><time>2026-04-19T16:11:36.999Z</time></trkpt><trkpt lat="44.34580246546001" lon="8.316063536452587"><ele>381.33333333333337</ele><time>2026-04-19T16:11:37.999Z</time></trkpt><trkpt lat="44.34585222988586" lon="8.315766332204841"><ele>383.0</ele><time>2026-04-19T16:11:38.999Z</time></trkpt><trkpt lat="44.34590298727278" lon="8.315478391270863"><ele>383.6666666666667</ele><time>2026-04-19T16:11:39.999Z</time></trkpt><trkpt lat="44.345959687756796" lon="8.315186008194056"><ele>384.33333333333337</ele><time>2026-04-19T16:11:40.999Z</time></trkpt><trkpt lat="44.346034895238226" lon="8.31489362736536"><ele>385.0</ele><time>2026-04-19T16:11:41.999Z</time></trkpt><trkpt lat="44.34613372341177" lon="8.314607514673893"><ele>386.33333333333337</ele><time>2026-04-19T16:11:42.999Z</time></trkpt><trkpt lat="44.34625211695394" lon="8.314344158505893"><ele>387.66666666666663</ele><time>2026-04-19T16:11:43.999Z</time></trkpt><trkpt lat="44.34637293285075" lon="8.31410653992895"><ele>389.0</ele><time>2026-04-19T16:11:44.999Z</time></trkpt><trkpt lat="44.34648901064961" lon="8.313886360654505"><ele>386.3333333333333</ele><time>2026-04-19T16:11:45.999Z</time></trkpt><trkpt lat="44.34658879090204" lon="8.313673329672811"><ele>383.66666666666663</ele><time>2026-04-19T16:11:46.999Z</time></trkpt><trkpt lat="44.346665465039656" lon="8.313450810545486"><ele>381.0</ele><time>2026-04-19T16:11:47.999Z</time></trkpt><trkpt lat="44.34673969861498" lon="8.313217714027893"><ele>383.0</ele><time>2026-04-19T16:11:48.999Z</time></trkpt><trkpt lat="44.34680485393364" lon="8.31298899398949"><ele>385.0</ele><time>2026-04-19T16:11:49.999Z</time></trkpt><trkpt lat="44.34685657160044" lon="8.31274561441849"><ele>387.0</ele><time>2026-04-19T16:11:50.999Z</time></trkpt><trkpt lat="44.34689318233876" lon="8.312486765585863"><ele>386.0</ele><time>2026-04-19T16:11:51.999Z</time></trkpt><trkpt lat="44.34690816736261" lon="8.312215514222089"><ele>385.0</ele><time>2026-04-19T16:11:52.999Z</time></trkpt><trkpt lat="44.34690681104799" lon="8.31193497900464"><ele>384.0</ele><time>2026-04-19T16:11:53.999Z</time></trkpt><trkpt lat="44.34692474782606" lon="8.311654866818898"><ele>385.66666666666663</ele><time>2026-04-19T16:11:54.999Z</time></trkpt><trkpt lat="44.34690130741645" lon="8.311376025565933"><ele>387.3333333333333</ele><time>2026-04-19T16:11:55.999Z</time></trkpt><trkpt lat="44.34689946897563" lon="8.311108884943044"><ele>389.0</ele><time>2026-04-19T16:11:56.999Z</time></trkpt><trkpt lat="44.346893709887" lon="8.31086305037762"><ele>389.0</ele><time>2026-04-19T16:11:57.999Z</time></trkpt><trkpt lat="44.34688794399269" lon="8.31063018230804"><ele>389.0</ele><time>2026-04-19T16:11:58.999Z</time></trkpt><trkpt lat="44.346883358147394" lon="8.310413796927186"><ele>389.0</ele><time>2026-04-19T16:11:59.999Z</time></trkpt><trkpt lat="44.34690559850568" lon="8.310214626107548"><ele>389.5</ele><time>2026-04-19T16:12:00.999Z</time></trkpt><trkpt lat="44.34690156053091" lon="8.3100252471588"><ele>390.0</ele><time>2026-04-19T16:12:01.999Z</time></trkpt><trkpt lat="44.34694159338935" lon="8.309851146610848"><ele>390.5</ele><time>2026-04-19T16:12:02.999Z</time></trkpt><trkpt lat="44.346961724356994" lon="8.309669909347786"><ele>391.0</ele><time>2026-04-19T16:12:03.999Z</time></trkpt><trkpt lat="44.34702710556697" lon="8.309498206355336"><ele>391.0</ele><time>2026-04-19T16:12:04.999Z</time></trkpt><trkpt lat="44.34709671100074" lon="8.30932785737842"><ele>391.0</ele><time>2026-04-19T16:12:05.999Z</time></trkpt><trkpt lat="44.3471848855624" lon="8.30916904446709"><ele>391.0</ele><time>2026-04-19T16:12:06.999Z</time></trkpt><trkpt lat="44.34727453981672" lon="8.309022872209885"><ele>391.0</ele><time>2026-04-19T16:12:07.999Z</time></trkpt><trkpt lat="44.347351864806775" lon="8.308875354904101"><ele>392.0</ele><time>2026-04-19T16:12:08.999Z</time></trkpt><trkpt lat="44.34741848533878" lon="8.308729885404137"><ele>393.0</ele><time>2026-04-19T16:12:09.999Z</time></trkpt><trkpt lat="44.347462431717325" lon="8.308563809303246"><ele>394.0</ele><time>2026-04-19T16:12:10.999Z</time></trkpt><trkpt lat="44.34748994121555" lon="8.308389163539253"><ele>395.0</ele><time>2026-04-19T16:12:11.999Z</time></trkpt><trkpt lat="44.34748995816671" lon="8.308206236641578"><ele>396.0</ele><time>2026-04-19T16:12:12.999Z</time></trkpt><trkpt lat="44.34746802899654" lon="8.308030247405982"><ele>397.0</ele><time>2026-04-19T16:12:13.999Z</time></trkpt><trkpt lat="44.34743465136947" lon="8.307863382051131"><ele>398.0</ele><time>2026-04-19T16:12:14.999Z</time></trkpt><trkpt lat="44.34738530905" lon="8.307712203389602"><ele>399.0</ele><time>2026-04-19T16:12:15.999Z</time></trkpt><trkpt lat="44.34732547867237" lon="8.30757830602471"><ele>399.0</ele><time>2026-04-19T16:12:16.999Z</time></trkpt><trkpt lat="44.34726210014072" lon="8.307457138227283"><ele>399.0</ele><time>2026-04-19T16:12:17.999Z</time></trkpt><trkpt lat="44.34720688351694" lon="8.307336734613289"><ele>399.0</ele><time>2026-04-19T16:12:18.999Z</time></trkpt><trkpt lat="44.347154918461406" lon="8.307218178616559"><ele>399.0</ele><time>2026-04-19T16:12:19.999Z</time></trkpt><trkpt lat="44.347110907304014" lon="8.30709935792159"><ele>399.0</ele><time>2026-04-19T16:12:20.998Z</time></trkpt><trkpt lat="44.34706749099834" lon="8.306978258273004"><ele>399.0</ele><time>2026-04-19T16:12:21.998Z</time></trkpt><trkpt lat="44.347030171113495" lon="8.30684131636743"><ele>399.0</ele><time>2026-04-19T16:12:22.998Z</time></trkpt><trkpt lat="44.347006442244435" lon="8.306688015442246"><ele>399.0</ele><time>2026-04-19T16:12:23.998Z</time></trkpt><trkpt lat="44.34698784463719" lon="8.30652096545889"><ele>399.0</ele><time>2026-04-19T16:12:24.998Z</time></trkpt><trkpt lat="44.34697421935306" lon="8.306361139699852"><ele>399.0</ele><time>2026-04-19T16:12:25.998Z</time></trkpt><trkpt lat="44.34696119699658" lon="8.306216274112076"><ele>399.0</ele><time>2026-04-19T16:12:26.998Z</time></trkpt><trkpt lat="44.34695130735948" lon="8.306073733263535"><ele>399.0</ele><time>2026-04-19T16:12:27.998Z</time></trkpt><trkpt lat="44.34694043030798" lon="8.30592717776982"><ele>399.0</ele><time>2026-04-19T16:12:28.998Z</time></trkpt><trkpt lat="44.346927948702614" lon="8.305772720802349"><ele>399.0</ele><time>2026-04-19T16:12:29.998Z</time></trkpt><trkpt lat="44.34691551822048" lon="8.305615317844472"><ele>400.0</ele><time>2026-04-19T16:12:30.998Z</time></trkpt><trkpt lat="44.34690078148186" lon="8.305459138757397"><ele>401.0</ele><time>2026-04-19T16:12:31.998Z</time></trkpt><trkpt lat="44.346882107958024" lon="8.30530127214606"><ele>402.0</ele><time>2026-04-19T16:12:32.998Z</time></trkpt><trkpt lat="44.34686561575123" lon="8.30514158098624"><ele>403.0</ele><time>2026-04-19T16:12:33.998Z</time></trkpt><trkpt lat="44.34684917161328" lon="8.304979201898353"><ele>403.0</ele><time>2026-04-19T16:12:35Z</time></trkpt><trkpt lat="44.34683615544154" lon="8.304822531840225"><ele>403.0</ele><time>2026-04-19T16:12:36Z</time></trkpt><trkpt lat="44.34683249825005" lon="8.30466996478903"><ele>403.0</ele><time>2026-04-19T16:12:37Z</time></trkpt><trkpt lat="44.3468407562416" lon="8.304520635617475"><ele>403.0</ele><time>2026-04-19T16:12:38Z</time></trkpt><trkpt lat="44.34685731799735" lon="8.304367956717401"><ele>403.0</ele><time>2026-04-19T16:12:39Z</time></trkpt><trkpt lat="44.346883768169334" lon="8.304217207562795"><ele>403.2</ele><time>2026-04-19T16:12:40Z</time></trkpt><trkpt lat="44.346920191609776" lon="8.30407040221753"><ele>403.4</ele><time>2026-04-19T16:12:41Z</time></trkpt><trkpt lat="44.34695827653818" lon="8.30393037185738"><ele>403.59999999999997</ele><time>2026-04-19T16:12:42Z</time></trkpt><trkpt lat="44.34699326038061" lon="8.303781786011395"><ele>403.79999999999995</ele><time>2026-04-19T16:12:43Z</time></trkpt><trkpt lat="44.347014425190835" lon="8.303643518335837"><ele>404.0</ele><time>2026-04-19T16:12:44Z</time></trkpt><trkpt lat="44.34705476802835" lon="8.303526399258633"><ele>404.2</ele><time>2026-04-19T16:12:45Z</time></trkpt><trkpt lat="44.3470903321364" lon="8.303393131474872"><ele>404.4</ele><time>2026-04-19T16:12:46Z</time></trkpt><trkpt lat="44.3471227004182" lon="8.30326699058757"><ele>404.6</ele><time>2026-04-19T16:12:47Z</time></trkpt><trkpt lat="44.34715289827762" lon="8.30313966651469"><ele>404.8</ele><time>2026-04-19T16:12:48Z</time></trkpt><trkpt lat="44.347182803764966" lon="8.30301893874929"><ele>405.0</ele><time>2026-04-19T16:12:49Z</time></trkpt><trkpt lat="44.3472096411638" lon="8.302898076646326"><ele>403.6</ele><time>2026-04-19T16:12:50Z</time></trkpt><trkpt lat="44.34723224234623" lon="8.302779268910285"><ele>402.2</ele><time>2026-04-19T16:12:51Z</time></trkpt><trkpt lat="44.34725615540584" lon="8.302662291115594"><ele>400.79999999999995</ele><time>2026-04-19T16:12:52Z</time></trkpt><trkpt lat="44.347286162317" lon="8.3025427605955"><ele>399.4</ele><time>2026-04-19T16:12:53Z</time></trkpt><trkpt lat="44.347325441342115" lon="8.30241038068649"><ele>398.0</ele><time>2026-04-19T16:12:54Z</time></trkpt><trkpt lat="44.347369940299785" lon="8.302265952842909"><ele>397.5</ele><time>2026-04-19T16:12:55Z</time></trkpt><trkpt lat="44.34741867111456" lon="8.302105576487975"><ele>397.0</ele><time>2026-04-19T16:12:56Z</time></trkpt><trkpt lat="44.347472911413675" lon="8.301927148935697"><ele>396.5</ele><time>2026-04-19T16:12:57Z</time></trkpt><trkpt lat="44.34752393676824" lon="8.301747118350454"><ele>396.0</ele><time>2026-04-19T16:12:58Z</time></trkpt><trkpt lat="44.347587152237956" lon="8.301588801308817"><ele>396.0</ele><time>2026-04-19T16:12:59Z</time></trkpt><trkpt lat="44.34763269881534" lon="8.301425949092396"><ele>396.0</ele><time>2026-04-19T16:13:00Z</time></trkpt><trkpt lat="44.34766031824418" lon="8.301262324888514"><ele>396.0</ele><time>2026-04-19T16:13:01Z</time></trkpt><trkpt lat="44.34770480516688" lon="8.301116789432504"><ele>396.0</ele><time>2026-04-19T16:13:02Z</time></trkpt><trkpt lat="44.34775221593694" lon="8.300971320495247"><ele>395.25</ele><time>2026-04-19T16:13:03Z</time></trkpt><trkpt lat="44.347812780297204" lon="8.30082028345883"><ele>394.5</ele><time>2026-04-19T16:13:04Z</time></trkpt><trkpt lat="44.347887728096524" lon="8.300664622181854"><ele>393.75</ele><time>2026-04-19T16:13:05Z</time></trkpt><trkpt lat="44.34796384300382" lon="8.30051521930102"><ele>393.0</ele><time>2026-04-19T16:13:06Z</time></trkpt><trkpt lat="44.3480467316569" lon="8.300380419409557"><ele>391.25</ele><time>2026-04-19T16:13:07Z</time></trkpt><trkpt lat="44.34813290828493" lon="8.300258084318873"><ele>389.5</ele><time>2026-04-19T16:13:08Z</time></trkpt><trkpt lat="44.34822690250003" lon="8.300145067670046"><ele>387.75</ele><time>2026-04-19T16:13:09Z</time></trkpt><trkpt lat="44.34833497598307" lon="8.300026155212295"><ele>386.0</ele><time>2026-04-19T16:13:10Z</time></trkpt><trkpt lat="44.34845633385109" lon="8.299915201216917"><ele>386.0</ele><time>2026-04-19T16:13:11Z</time></trkpt><trkpt lat="44.34858097557402" lon="8.29980050626081"><ele>386.0</ele><time>2026-04-19T16:13:12Z</time></trkpt><trkpt lat="44.34872594818378" lon="8.29968950401906"><ele>386.0</ele><time>2026-04-19T16:13:13Z</time></trkpt><trkpt lat="44.34887196218399" lon="8.299542414266291"><ele>385.0</ele><time>2026-04-19T16:13:14Z</time></trkpt><trkpt lat="44.34902697431232" lon="8.299370809683046"><ele>384.0</ele><time>2026-04-19T16:13:15Z</time></trkpt><trkpt lat="44.34918021935188" lon="8.299175316863934"><ele>383.0</ele><time>2026-04-19T16:13:15.999Z</time></trkpt><trkpt lat="44.34932527968394" lon="8.298978602675405"><ele>380.33333333333337</ele><time>2026-04-19T16:13:16.999Z</time></trkpt><trkpt lat="44.34946382478955" lon="8.298795705859705"><ele>377.6666666666667</ele><time>2026-04-19T16:13:17.999Z</time></trkpt><trkpt lat="44.349583521679655" lon="8.298640588358511"><ele>375.0</ele><time>2026-04-19T16:13:18.999Z</time></trkpt><trkpt lat="44.349700329902824" lon="8.298489214555532"><ele>374.0</ele><time>2026-04-19T16:13:19.999Z</time></trkpt><trkpt lat="44.34981383544159" lon="8.29834043153055"><ele>373.0</ele><time>2026-04-19T16:13:20.999Z</time></trkpt><trkpt lat="44.34992472345895" lon="8.298194336046473"><ele>372.0</ele><time>2026-04-19T16:13:21.999Z</time></trkpt><trkpt lat="44.350021127267425" lon="8.29803329619562"><ele>372.0</ele><time>2026-04-19T16:13:22.999Z</time></trkpt><trkpt lat="44.350127066188996" lon="8.297895075706503"><ele>372.0</ele><time>2026-04-19T16:13:23.999Z</time></trkpt><trkpt lat="44.350229573521496" lon="8.297759103316949"><ele>372.0</ele><time>2026-04-19T16:13:24.999Z</time></trkpt><trkpt lat="44.350329428556954" lon="8.297623393766651"><ele>372.0</ele><time>2026-04-19T16:13:25.999Z</time></trkpt><trkpt lat="44.35045554167198" lon="8.297507746603351"><ele>372.6666666666667</ele><time>2026-04-19T16:13:26.999Z</time></trkpt><trkpt lat="44.35055367018337" lon="8.297331567541177"><ele>373.33333333333337</ele><time>2026-04-19T16:13:27.999Z</time></trkpt><trkpt lat="44.35067195165444" lon="8.297193664784055"><ele>374.0</ele><time>2026-04-19T16:13:28.999Z</time></trkpt><trkpt lat="44.35077968013563" lon="8.297047820164666"><ele>372.33333333333337</ele><time>2026-04-19T16:13:29.999Z</time></trkpt><trkpt lat="44.35087522322433" lon="8.296887948977382"><ele>370.6666666666667</ele><time>2026-04-19T16:13:30.999Z</time></trkpt><trkpt lat="44.35095966074891" lon="8.296706272200854"><ele>369.0</ele><time>2026-04-19T16:13:31.999Z</time></trkpt><trkpt lat="44.35103510253556" lon="8.296507678923092"><ele>368.0</ele><time>2026-04-19T16:13:32.999Z</time></trkpt><trkpt lat="44.35110587291395" lon="8.296314600593067"><ele>367.0</ele><time>2026-04-19T16:13:33.999Z</time></trkpt><trkpt lat="44.35118253028944" lon="8.29613114705307"><ele>366.0</ele><time>2026-04-19T16:13:34.999Z</time></trkpt><trkpt lat="44.35126965240107" lon="8.295966203975354"><ele>366.0</ele><time>2026-04-19T16:13:35.999Z</time></trkpt><trkpt lat="44.3513670034047" lon="8.295813107815395"><ele>366.0</ele><time>2026-04-19T16:13:36.999Z</time></trkpt><trkpt lat="44.351471726612644" lon="8.295658459713835"><ele>366.0</ele><time>2026-04-19T16:13:37.999Z</time></trkpt><trkpt lat="44.351578123712144" lon="8.295504187189431"><ele>365.6666666666667</ele><time>2026-04-19T16:13:38.999Z</time></trkpt><trkpt lat="44.35169319591838" lon="8.295365900961963"><ele>365.33333333333337</ele><time>2026-04-19T16:13:39.999Z</time></trkpt><trkpt lat="44.35179737156483" lon="8.295214762202146"><ele>365.0</ele><time>2026-04-19T16:13:40.999Z</time></trkpt><trkpt lat="44.3519126703115" lon="8.295045392218896"><ele>365.0</ele><time>2026-04-19T16:13:41.999Z</time></trkpt><trkpt lat="44.35203663458483" lon="8.294866264313518"><ele>365.0</ele><time>2026-04-19T16:13:42.999Z</time></trkpt><trkpt lat="44.35215964032038" lon="8.29468840354959"><ele>365.0</ele><time>2026-04-19T16:13:43.999Z</time></trkpt><trkpt lat="44.35226768505238" lon="8.29449628675711"><ele>364.6666666666667</ele><time>2026-04-19T16:13:44.999Z</time></trkpt><trkpt lat="44.352388717179124" lon="8.294326601698684"><ele>364.3333333333333</ele><time>2026-04-19T16:13:45.999Z</time></trkpt><trkpt lat="44.352507533000974" lon="8.294158504165498"><ele>364.0</ele><time>2026-04-19T16:13:46.999Z</time></trkpt><trkpt lat="44.35262099538326" lon="8.293992694572836"><ele>363.25</ele><time>2026-04-19T16:13:47.999Z</time></trkpt><trkpt lat="44.352730920378505" lon="8.293833929009361"><ele>362.5</ele><time>2026-04-19T16:13:48.999Z</time></trkpt><trkpt lat="44.3528363471611" lon="8.293690182204495"><ele>361.75</ele><time>2026-04-19T16:13:49.999Z</time></trkpt><trkpt lat="44.35293668762954" lon="8.293560697053806"><ele>361.0</ele><time>2026-04-19T16:13:50.999Z</time></trkpt><trkpt lat="44.35303831250945" lon="8.293446983071679"><ele>360.75</ele><time>2026-04-19T16:13:51.999Z</time></trkpt><trkpt lat="44.353140642918135" lon="8.293342555364484"><ele>360.5</ele><time>2026-04-19T16:13:52.999Z</time></trkpt><trkpt lat="44.35325025214661" lon="8.293238106913641"><ele>360.25</ele><time>2026-04-19T16:13:53.999Z</time></trkpt><trkpt lat="44.353369652904696" lon="8.29313527739622"><ele>360.0</ele><time>2026-04-19T16:13:54.999Z</time></trkpt><trkpt lat="44.3534975574933" lon="8.29303929811394"><ele>360.0</ele><time>2026-04-19T16:13:55.999Z</time></trkpt><trkpt lat="44.35363374628296" lon="8.292949607766847"><ele>360.0</ele><time>2026-04-19T16:13:56.999Z</time></trkpt><trkpt lat="44.353777573016515" lon="8.292867779212871"><ele>360.0</ele><time>2026-04-19T16:13:57.999Z</time></trkpt><trkpt lat="44.35392134842917" lon="8.292801746209648"><ele>360.75</ele><time>2026-04-19T16:13:58.999Z</time></trkpt><trkpt lat="44.354055138182076" lon="8.292739531712906"><ele>361.5</ele><time>2026-04-19T16:13:59.999Z</time></trkpt><trkpt lat="44.35419060350244" lon="8.292673832851596"><ele>362.25</ele><time>2026-04-19T16:14:00.999Z</time></trkpt><trkpt lat="44.35432936485888" lon="8.292603895950098"><ele>363.0</ele><time>2026-04-19T16:14:01.999Z</time></trkpt><trkpt lat="44.3544703435498" lon="8.292532758454449"><ele>363.0</ele><time>2026-04-19T16:14:02.999Z</time></trkpt><trkpt lat="44.35461134538474" lon="8.292460105242446"><ele>363.0</ele><time>2026-04-19T16:14:03.999Z</time></trkpt><trkpt lat="44.35474287005256" lon="8.292394372463127"><ele>363.0</ele><time>2026-04-19T16:14:04.999Z</time></trkpt><trkpt lat="44.35486827662229" lon="8.29233345468833"><ele>363.0</ele><time>2026-04-19T16:14:05.999Z</time></trkpt><trkpt lat="44.354986234380625" lon="8.292274151097725"><ele>362.75</ele><time>2026-04-19T16:14:06.999Z</time></trkpt><trkpt lat="44.35509747379568" lon="8.292217913255335"><ele>362.5</ele><time>2026-04-19T16:14:07.999Z</time></trkpt><trkpt lat="44.35520339446591" lon="8.29216414792416"><ele>362.25</ele><time>2026-04-19T16:14:08.999Z</time></trkpt><trkpt lat="44.35530742062976" lon="8.292109177086964"><ele>362.0</ele><time>2026-04-19T16:14:09.999Z</time></trkpt><trkpt lat="44.35542378042933" lon="8.29207540346957"><ele>361.75</ele><time>2026-04-19T16:14:10.999Z</time></trkpt><trkpt lat="44.3555371595329" lon="8.29199548259701"><ele>361.5</ele><time>2026-04-19T16:14:11.999Z</time></trkpt><trkpt lat="44.35566331195678" lon="8.291939110172784"><ele>361.25</ele><time>2026-04-19T16:14:12.999Z</time></trkpt><trkpt lat="44.355792800758884" lon="8.291885718111438"><ele>361.0</ele><time>2026-04-19T16:14:13.999Z</time></trkpt><trkpt lat="44.35592746921594" lon="8.29184235617043"><ele>361.0</ele><time>2026-04-19T16:14:14.999Z</time></trkpt><trkpt lat="44.35606807699404" lon="8.291811850613817"><ele>361.0</ele><time>2026-04-19T16:14:15.999Z</time></trkpt><trkpt lat="44.35621135274779" lon="8.291797847910964"><ele>361.0</ele><time>2026-04-19T16:14:16.999Z</time></trkpt><trkpt lat="44.356361071447985" lon="8.291824022299892"><ele>361.0</ele><time>2026-04-19T16:14:17.999Z</time></trkpt><trkpt lat="44.35651004157403" lon="8.291871335465673"><ele>360.66666666666663</ele><time>2026-04-19T16:14:18.999Z</time></trkpt><trkpt lat="44.35665989465219" lon="8.291918169565545"><ele>360.3333333333333</ele><time>2026-04-19T16:14:19.999Z</time></trkpt><trkpt lat="44.35681272717719" lon="8.291966702139323"><ele>360.0</ele><time>2026-04-19T16:14:20.999Z</time></trkpt><trkpt lat="44.35696839886996" lon="8.292017753135505"><ele>360.0</ele><time>2026-04-19T16:14:21.999Z</time></trkpt><trkpt lat="44.35713191330411" lon="8.292058649092905"><ele>360.0</ele><time>2026-04-19T16:14:22.999Z</time></trkpt><trkpt lat="44.35729787711901" lon="8.292078637584988"><ele>360.0</ele><time>2026-04-19T16:14:23.999Z</time></trkpt><trkpt lat="44.3574577225992" lon="8.292092261218205"><ele>358.3333333333333</ele><time>2026-04-19T16:14:24.999Z</time></trkpt><trkpt lat="44.35761260434065" lon="8.292101118733648"><ele>356.66666666666663</ele><time>2026-04-19T16:14:25.999Z</time></trkpt><trkpt lat="44.35776317892516" lon="8.292105443283425"><ele>355.0</ele><time>2026-04-19T16:14:26.998Z</time></trkpt><trkpt lat="44.35791132574908" lon="8.292103151946522"><ele>354.0</ele><time>2026-04-19T16:14:27.998Z</time></trkpt><trkpt lat="44.35806389551361" lon="8.29210052399478"><ele>353.0</ele><time>2026-04-19T16:14:28.998Z</time></trkpt><trkpt lat="44.35822465316104" lon="8.29209871929355"><ele>352.0</ele><time>2026-04-19T16:14:29.998Z</time></trkpt><trkpt lat="44.35839078651842" lon="8.292094917084114"><ele>352.0</ele><time>2026-04-19T16:14:30.998Z</time></trkpt><trkpt lat="44.358567625217184" lon="8.292091009869013"><ele>352.0</ele><time>2026-04-19T16:14:31.998Z</time></trkpt><trkpt lat="44.35876157709907" lon="8.292120303615942"><ele>352.0</ele><time>2026-04-19T16:14:32.998Z</time></trkpt><trkpt lat="44.358968743007466" lon="8.292120303615853"><ele>352.0</ele><time>2026-04-19T16:14:33.998Z</time></trkpt><trkpt lat="44.35918455763941" lon="8.292120303615564"><ele>352.0</ele><time>2026-04-19T16:14:34.998Z</time></trkpt><trkpt lat="44.35938722514119" lon="8.2921203036155"><ele>352.0</ele><time>2026-04-19T16:14:35.998Z</time></trkpt><trkpt lat="44.35957893135589" lon="8.292102531623536"><ele>351.0</ele><time>2026-04-19T16:14:36.998Z</time></trkpt><trkpt lat="44.35976346372685" lon="8.2921049852963"><ele>350.0</ele><time>2026-04-19T16:14:37.998Z</time></trkpt><trkpt lat="44.35994157017774" lon="8.292105648434557"><ele>349.0</ele><time>2026-04-19T16:14:38.998Z</time></trkpt><trkpt lat="44.360111912110106" lon="8.29210294838846"><ele>349.0</ele><time>2026-04-19T16:14:40Z</time></trkpt><trkpt lat="44.360274879089836" lon="8.29210290987554"><ele>349.0</ele><time>2026-04-19T16:14:41Z</time></trkpt><trkpt lat="44.360428883802236" lon="8.292107608571024"><ele>349.0</ele><time>2026-04-19T16:14:42Z</time></trkpt><trkpt lat="44.360578592973695" lon="8.292109104203917"><ele>348.75</ele><time>2026-04-19T16:14:43Z</time></trkpt><trkpt lat="44.360719426707455" lon="8.292109973545953"><ele>348.5</ele><time>2026-04-19T16:14:44Z</time></trkpt><trkpt lat="44.360850208809815" lon="8.292094136912171"><ele>348.25</ele><time>2026-04-19T16:14:45Z</time></trkpt><trkpt lat="44.36097015738856" lon="8.292040175703104"><ele>348.0</ele><time>2026-04-19T16:14:46Z</time></trkpt><trkpt lat="44.36108759931653" lon="8.291942094881565"><ele>348.0</ele><time>2026-04-19T16:14:47Z</time></trkpt><trkpt lat="44.36119701172005" lon="8.291794396272497"><ele>348.0</ele><time>2026-04-19T16:14:48Z</time></trkpt><trkpt lat="44.361301387022024" lon="8.291627985466596"><ele>348.0</ele><time>2026-04-19T16:14:49Z</time></trkpt><trkpt lat="44.361401271702526" lon="8.291462051795431"><ele>348.0</ele><time>2026-04-19T16:14:50Z</time></trkpt><trkpt lat="44.3615097481758" lon="8.291327370940246"><ele>348.0</ele><time>2026-04-19T16:14:51Z</time></trkpt><trkpt lat="44.36160137229123" lon="8.29118524941513"><ele>348.0</ele><time>2026-04-19T16:14:52Z</time></trkpt><trkpt lat="44.36167274329432" lon="8.291040395733491"><ele>348.0</ele><time>2026-04-19T16:14:53Z</time></trkpt><trkpt lat="44.36174846890006" lon="8.290928845306187"><ele>348.0</ele><time>2026-04-19T16:14:54Z</time></trkpt><trkpt lat="44.36182529523252" lon="8.290825867128474"><ele>348.0</ele><time>2026-04-19T16:14:55Z</time></trkpt><trkpt lat="44.36190837588416" lon="8.290739105676485"><ele>348.0</ele><time>2026-04-19T16:14:56Z</time></trkpt><trkpt lat="44.36200284045538" lon="8.290684144116904"><ele>348.0</ele><time>2026-04-19T16:14:57Z</time></trkpt><trkpt lat="44.36210028238174" lon="8.290648619415121"><ele>348.0</ele><time>2026-04-19T16:14:58Z</time></trkpt><trkpt lat="44.362206399220106" lon="8.290624496577058"><ele>347.75</ele><time>2026-04-19T16:14:59Z</time></trkpt><trkpt lat="44.3623274810112" lon="8.290610266006261"><ele>347.5</ele><time>2026-04-19T16:15:00Z</time></trkpt><trkpt lat="44.36245699042415" lon="8.290599743077168"><ele>347.25</ele><time>2026-04-19T16:15:01Z</time></trkpt><trkpt lat="44.36258491988628" lon="8.290588835384199"><ele>347.0</ele><time>2026-04-19T16:15:02Z</time></trkpt><trkpt lat="44.362701666912145" lon="8.290577068119099"><ele>347.0</ele><time>2026-04-19T16:15:03Z</time></trkpt><trkpt lat="44.362810773708105" lon="8.29056159381313"><ele>347.0</ele><time>2026-04-19T16:15:04Z</time></trkpt><trkpt lat="44.36290053878884" lon="8.290548707500292"><ele>347.0</ele><time>2026-04-19T16:15:05Z</time></trkpt><trkpt lat="44.36297419801216" lon="8.290534129200534"><ele>347.0</ele><time>2026-04-19T16:15:06Z</time></trkpt><trkpt lat="44.36305050670445" lon="8.29051004333316"><ele>347.0</ele><time>2026-04-19T16:15:08Z</time></trkpt><trkpt lat="44.36311791414035" lon="8.290496877918754"><ele>347.0</ele><time>2026-04-19T16:15:15.999Z</time></trkpt><trkpt lat="44.363212850750756" lon="8.29046955345074"><ele>347.0</ele><time>2026-04-19T16:15:17.999Z</time></trkpt><trkpt lat="44.36325177401883" lon="8.29036106069756"><ele>347.0</ele><time>2026-04-19T16:15:19.999Z</time></trkpt><trkpt lat="44.36319744606277" lon="8.290216833929014"><ele>347.0</ele><time>2026-04-19T16:15:21.999Z</time></trkpt><trkpt lat="44.36312672262507" lon="8.290186619859803"><ele>347.0</ele><time>2026-04-19T16:15:22.999Z</time></trkpt><trkpt lat="44.36307941693008" lon="8.290058580300801"><ele>347.0</ele><time>2026-04-19T16:15:23.999Z</time></trkpt><trkpt lat="44.36301387884016" lon="8.28995593784431"><ele>347.0</ele><time>2026-04-19T16:15:24.999Z</time></trkpt><trkpt lat="44.362940428059424" lon="8.289839384302253"><ele>347.0</ele><time>2026-04-19T16:15:25.999Z</time></trkpt><trkpt lat="44.362864284980716" lon="8.289717960439935"><ele>347.0</ele><time>2026-04-19T16:15:26.999Z</time></trkpt><trkpt lat="44.36279183625823" lon="8.289585247131773"><ele>347.0</ele><time>2026-04-19T16:15:27.999Z</time></trkpt><trkpt lat="44.36273379842362" lon="8.289453375444314"><ele>347.6</ele><time>2026-04-19T16:15:28.999Z</time></trkpt><trkpt lat="44.36269104179222" lon="8.289321550612106"><ele>348.20000000000005</ele><time>2026-04-19T16:15:29.999Z</time></trkpt><trkpt lat="44.36266010575577" lon="8.289179285289865"><ele>348.8</ele><time>2026-04-19T16:15:30.999Z</time></trkpt><trkpt lat="44.36263908640255" lon="8.289029471603836"><ele>349.4</ele><time>2026-04-19T16:15:31.999Z</time></trkpt><trkpt lat="44.3626276606195" lon="8.288880384389781"><ele>350.0</ele><time>2026-04-19T16:15:32.999Z</time></trkpt><trkpt lat="44.36262980400548" lon="8.288727598771736"><ele>350.0</ele><time>2026-04-19T16:15:33.999Z</time></trkpt><trkpt lat="44.36264539290656" lon="8.288570978398567"><ele>350.0</ele><time>2026-04-19T16:15:34.999Z</time></trkpt><trkpt lat="44.362666930170754" lon="8.288408338760242"><ele>350.0</ele><time>2026-04-19T16:15:35.999Z</time></trkpt><trkpt lat="44.362689304506844" lon="8.288245131369123"><ele>350.0</ele><time>2026-04-19T16:15:36.999Z</time></trkpt><trkpt lat="44.362709556195405" lon="8.288094254912448"><ele>350.6</ele><time>2026-04-19T16:15:37.999Z</time></trkpt><trkpt lat="44.36272941334216" lon="8.28795175467312"><ele>351.2</ele><time>2026-04-19T16:15:38.999Z</time></trkpt><trkpt lat="44.36274724623152" lon="8.287817057267697"><ele>351.79999999999995</ele><time>2026-04-19T16:15:39.999Z</time></trkpt><trkpt lat="44.362763827466" lon="8.28768913704458"><ele>352.4</ele><time>2026-04-19T16:15:40.999Z</time></trkpt><trkpt lat="44.36277941183109" lon="8.287565653406897"><ele>353.0</ele><time>2026-04-19T16:15:41.999Z</time></trkpt><trkpt lat="44.36279726610083" lon="8.287428525884373"><ele>353.0</ele><time>2026-04-19T16:15:42.999Z</time></trkpt><trkpt lat="44.36281850241653" lon="8.28728533785845"><ele>353.0</ele><time>2026-04-19T16:15:43.999Z</time></trkpt><trkpt lat="44.36283925542717" lon="8.287137849451337"><ele>353.0</ele><time>2026-04-19T16:15:44.999Z</time></trkpt><trkpt lat="44.36286193468262" lon="8.28698314924201"><ele>353.0</ele><time>2026-04-19T16:15:45.999Z</time></trkpt><trkpt lat="44.36288411368257" lon="8.28683284639012"><ele>353.0</ele><time>2026-04-19T16:15:46.999Z</time></trkpt><trkpt lat="44.36290351894946" lon="8.28669061357087"><ele>353.5</ele><time>2026-04-19T16:15:47.999Z</time></trkpt><trkpt lat="44.36292413388278" lon="8.28655624296882"><ele>354.0</ele><time>2026-04-19T16:15:48.999Z</time></trkpt><trkpt lat="44.36293893369662" lon="8.286437203865221"><ele>354.5</ele><time>2026-04-19T16:15:49.999Z</time></trkpt><trkpt lat="44.362951581984916" lon="8.286327093371435"><ele>355.0</ele><time>2026-04-19T16:15:50.999Z</time></trkpt><trkpt lat="44.36295990176183" lon="8.286225568516759"><ele>355.5</ele><time>2026-04-19T16:15:51.999Z</time></trkpt><trkpt lat="44.36296399165603" lon="8.28612953360075"><ele>356.0</ele><time>2026-04-19T16:15:52.999Z</time></trkpt><trkpt lat="44.36296564309977" lon="8.286039904740079"><ele>356.20000000000005</ele><time>2026-04-19T16:15:53.999Z</time></trkpt><trkpt lat="44.36296544840113" lon="8.285901762251243"><ele>356.40000000000003</ele><time>2026-04-19T16:15:55.999Z</time></trkpt><trkpt lat="44.3629892851745" lon="8.285723825963919"><ele>356.6</ele><time>2026-04-19T16:15:57.999Z</time></trkpt><trkpt lat="44.36301677071533" lon="8.285587351276096"><ele>356.8</ele><time>2026-04-19T16:15:58.999Z</time></trkpt><trkpt lat="44.36306154933091" lon="8.285444397850796"><ele>357.0</ele><time>2026-04-19T16:15:59.999Z</time></trkpt><trkpt lat="44.36310874886504" lon="8.285243460424434"><ele>357.3333333333333</ele><time>2026-04-19T16:16:00.999Z</time></trkpt><trkpt lat="44.36312039483424" lon="8.285004760834351"><ele>357.66666666666663</ele><time>2026-04-19T16:16:01.999Z</time></trkpt><trkpt lat="44.363170359501545" lon="8.284737610457906"><ele>358.0</ele><time>2026-04-19T16:16:02.999Z</time></trkpt><trkpt lat="44.363206316402625" lon="8.284451385794556"><ele>358.0</ele><time>2026-04-19T16:16:03.999Z</time></trkpt><trkpt lat="44.36324447805525" lon="8.284147386937855"><ele>358.0</ele><time>2026-04-19T16:16:04.999Z</time></trkpt><trkpt lat="44.36328538622317" lon="8.283828022237113"><ele>358.0</ele><time>2026-04-19T16:16:05.999Z</time></trkpt><trkpt lat="44.36333079621596" lon="8.283500314405932"><ele>358.0</ele><time>2026-04-19T16:16:06.999Z</time></trkpt><trkpt lat="44.36337518615698" lon="8.283175424452898"><ele>359.5</ele><time>2026-04-19T16:16:07.999Z</time></trkpt><trkpt lat="44.363423912836794" lon="8.282861570536385"><ele>361.0</ele><time>2026-04-19T16:16:08.999Z</time></trkpt><trkpt lat="44.36346359694463" lon="8.282535959763905"><ele>361.0</ele><time>2026-04-19T16:16:09.999Z</time></trkpt><trkpt lat="44.363506903900415" lon="8.282192933824179"><ele>361.0</ele><time>2026-04-19T16:16:10.999Z</time></trkpt><trkpt lat="44.36355767901743" lon="8.28185821965179"><ele>361.0</ele><time>2026-04-19T16:16:11.999Z</time></trkpt><trkpt lat="44.36360330461469" lon="8.281523164484835"><ele>361.0</ele><time>2026-04-19T16:16:12.999Z</time></trkpt><trkpt lat="44.36363821409232" lon="8.281203647316092"><ele>362.0</ele><time>2026-04-19T16:16:13.999Z</time></trkpt><trkpt lat="44.36368821229628" lon="8.280882702663707"><ele>363.0</ele><time>2026-04-19T16:16:14.999Z</time></trkpt><trkpt lat="44.36373363480625" lon="8.280563483614142"><ele>364.0</ele><time>2026-04-19T16:16:15.999Z</time></trkpt><trkpt lat="44.363772864722" lon="8.280245676703945"><ele>365.0</ele><time>2026-04-19T16:16:16.999Z</time></trkpt><trkpt lat="44.36381847246104" lon="8.27993432429109"><ele>365.6666666666667</ele><time>2026-04-19T16:16:17.999Z</time></trkpt><trkpt lat="44.363859111629814" lon="8.279626207188873"><ele>366.3333333333333</ele><time>2026-04-19T16:16:18.999Z</time></trkpt><trkpt lat="44.36389100548431" lon="8.279330068670392"><ele>367.0</ele><time>2026-04-19T16:16:19.999Z</time></trkpt><trkpt lat="44.363904486371204" lon="8.279052840028847"><ele>369.66666666666663</ele><time>2026-04-19T16:16:20.999Z</time></trkpt><trkpt lat="44.36389369007561" lon="8.278772615951944"><ele>372.3333333333333</ele><time>2026-04-19T16:16:21.999Z</time></trkpt><trkpt lat="44.363884813522134" lon="8.278488318740981"><ele>375.0</ele><time>2026-04-19T16:16:22.998Z</time></trkpt><trkpt lat="44.36386823020376" lon="8.278219613388838"><ele>373.0</ele><time>2026-04-19T16:16:23.998Z</time></trkpt><trkpt lat="44.363851493024036" lon="8.277969688500356"><ele>371.0</ele><time>2026-04-19T16:16:24.998Z</time></trkpt><trkpt lat="44.36383698752255" lon="8.277728711914813"><ele>369.0</ele><time>2026-04-19T16:16:25.998Z</time></trkpt><trkpt lat="44.363822488639606" lon="8.277497808403401"><ele>368.6666666666667</ele><time>2026-04-19T16:16:26.998Z</time></trkpt><trkpt lat="44.363805543898195" lon="8.277249729557413"><ele>368.33333333333337</ele><time>2026-04-19T16:16:27.998Z</time></trkpt><trkpt lat="44.36378945370211" lon="8.276970857588877"><ele>368.0</ele><time>2026-04-19T16:16:28.998Z</time></trkpt><trkpt lat="44.36377196340918" lon="8.276674569646422"><ele>369.0</ele><time>2026-04-19T16:16:29.998Z</time></trkpt><trkpt lat="44.36375398511155" lon="8.27635857714363"><ele>370.0</ele><time>2026-04-19T16:16:30.998Z</time></trkpt><trkpt lat="44.36373505390344" lon="8.276059647420812"><ele>371.0</ele><time>2026-04-19T16:16:31.998Z</time></trkpt><trkpt lat="44.363722077527186" lon="8.2757856264964"><ele>372.6666666666667</ele><time>2026-04-19T16:16:32.998Z</time></trkpt><trkpt lat="44.363760245286485" lon="8.27553591497431"><ele>374.3333333333333</ele><time>2026-04-19T16:16:33.998Z</time></trkpt><trkpt lat="44.36381097513367" lon="8.275277850494197"><ele>376.0</ele><time>2026-04-19T16:16:34.998Z</time></trkpt><trkpt lat="44.36386348285169" lon="8.274981698004096"><ele>378.0</ele><time>2026-04-19T16:16:35.998Z</time></trkpt><trkpt lat="44.36393489945234" lon="8.274706780622365"><ele>380.0</ele><time>2026-04-19T16:16:36.998Z</time></trkpt><trkpt lat="44.36399358008401" lon="8.274440606004525"><ele>382.0</ele><time>2026-04-19T16:16:37.998Z</time></trkpt><trkpt lat="44.36405002948636" lon="8.274180807277723"><ele>381.66666666666663</ele><time>2026-04-19T16:16:38.998Z</time></trkpt><trkpt lat="44.36410766293612" lon="8.273915143869267"><ele>381.3333333333333</ele><time>2026-04-19T16:16:39.998Z</time></trkpt><trkpt lat="44.36416944223643" lon="8.273652365904807"><ele>381.0</ele><time>2026-04-19T16:16:40.998Z</time></trkpt><trkpt lat="44.36422361918737" lon="8.273418640130243"><ele>381.0</ele><time>2026-04-19T16:16:41.998Z</time></trkpt><trkpt lat="44.36426960784162" lon="8.273189049888229"><ele>381.0</ele><time>2026-04-19T16:16:42.998Z</time></trkpt><trkpt lat="44.36431523545392" lon="8.272976362965927"><ele>381.0</ele><time>2026-04-19T16:16:43.998Z</time></trkpt><trkpt lat="44.36436076834323" lon="8.272771929001937"><ele>381.3333333333333</ele><time>2026-04-19T16:16:44.998Z</time></trkpt><trkpt lat="44.364410732519026" lon="8.272552087252029"><ele>381.66666666666663</ele><time>2026-04-19T16:16:46Z</time></trkpt><trkpt lat="44.36445925354289" lon="8.272320998994989"><ele>382.0</ele><time>2026-04-19T16:16:47Z</time></trkpt><trkpt lat="44.36450850437709" lon="8.27208492333573"><ele>382.0</ele><time>2026-04-19T16:16:48Z</time></trkpt><trkpt lat="44.364559905958544" lon="8.27184570029834"><ele>382.0</ele><time>2026-04-19T16:16:49Z</time></trkpt><trkpt lat="44.36460757028462" lon="8.271617465205134"><ele>382.0</ele><time>2026-04-19T16:16:50Z</time></trkpt><trkpt lat="44.364655409570666" lon="8.271398053898267"><ele>383.3333333333333</ele><time>2026-04-19T16:16:51Z</time></trkpt><trkpt lat="44.364703954826986" lon="8.271182776100213"><ele>384.66666666666663</ele><time>2026-04-19T16:16:52Z</time></trkpt><trkpt lat="44.36475355630876" lon="8.27096682176533"><ele>386.0</ele><time>2026-04-19T16:16:53Z</time></trkpt><trkpt lat="44.36480474721406" lon="8.270752222001743"><ele>386.0</ele><time>2026-04-19T16:16:54Z</time></trkpt><trkpt lat="44.36485530487128" lon="8.270536514502457"><ele>386.0</ele><time>2026-04-19T16:16:55Z</time></trkpt><trkpt lat="44.364901690891976" lon="8.270321841030611"><ele>386.0</ele><time>2026-04-19T16:16:56Z</time></trkpt><trkpt lat="44.36494667798263" lon="8.270105825333877"><ele>386.0</ele><time>2026-04-19T16:16:57Z</time></trkpt><trkpt lat="44.36499076868606" lon="8.269891102873446"><ele>386.0</ele><time>2026-04-19T16:16:58Z</time></trkpt><trkpt lat="44.36503695718897" lon="8.269680996042352"><ele>386.0</ele><time>2026-04-19T16:16:59Z</time></trkpt><trkpt lat="44.36508234853034" lon="8.269472508642165"><ele>386.0</ele><time>2026-04-19T16:17:00Z</time></trkpt><trkpt lat="44.36512760998466" lon="8.269264433209234"><ele>386.0</ele><time>2026-04-19T16:17:01Z</time></trkpt><trkpt lat="44.36517224991267" lon="8.26905962074548"><ele>386.0</ele><time>2026-04-19T16:17:02Z</time></trkpt><trkpt lat="44.365216958477625" lon="8.268853491207581"><ele>385.66666666666663</ele><time>2026-04-19T16:17:03Z</time></trkpt><trkpt lat="44.36526280040797" lon="8.268645404557704"><ele>385.33333333333337</ele><time>2026-04-19T16:17:04Z</time></trkpt><trkpt lat="44.36530785361515" lon="8.268436309242809"><ele>385.0</ele><time>2026-04-19T16:17:05Z</time></trkpt><trkpt lat="44.36535493889109" lon="8.268228697703027"><ele>385.75</ele><time>2026-04-19T16:17:06Z</time></trkpt><trkpt lat="44.365396802145206" lon="8.268040239202197"><ele>386.5</ele><time>2026-04-19T16:17:07Z</time></trkpt><trkpt lat="44.365436933799465" lon="8.267861690633657"><ele>387.25</ele><time>2026-04-19T16:17:08Z</time></trkpt><trkpt lat="44.365477326599255" lon="8.267681216831985"><ele>388.0</ele><time>2026-04-19T16:17:09Z</time></trkpt><trkpt lat="44.36551922065098" lon="8.267482856353771"><ele>390.33333333333337</ele><time>2026-04-19T16:17:10Z</time></trkpt><trkpt lat="44.365565092195" lon="8.267277595715518"><ele>392.66666666666663</ele><time>2026-04-19T16:17:11Z</time></trkpt><trkpt lat="44.36561203472048" lon="8.267059685032633"><ele>395.0</ele><time>2026-04-19T16:17:12Z</time></trkpt><trkpt lat="44.365660946577734" lon="8.266834942919905"><ele>395.0</ele><time>2026-04-19T16:17:13Z</time></trkpt><trkpt lat="44.36571282235336" lon="8.26659800710221"><ele>395.0</ele><time>2026-04-19T16:17:14Z</time></trkpt><trkpt lat="44.36576752144125" lon="8.266351646520995"><ele>395.0</ele><time>2026-04-19T16:17:15Z</time></trkpt><trkpt lat="44.36582575436297" lon="8.266102179654919"><ele>394.66666666666663</ele><time>2026-04-19T16:17:16Z</time></trkpt><trkpt lat="44.3658871344399" lon="8.265845131960699"><ele>394.33333333333337</ele><time>2026-04-19T16:17:17Z</time></trkpt><trkpt lat="44.36594380890149" lon="8.265582464708775"><ele>394.0</ele><time>2026-04-19T16:17:18Z</time></trkpt><trkpt lat="44.36600483651585" lon="8.265313570691658"><ele>394.0</ele><time>2026-04-19T16:17:19Z</time></trkpt><trkpt lat="44.366063423875985" lon="8.265049877890931"><ele>394.0</ele><time>2026-04-19T16:17:19.999Z</time></trkpt><trkpt lat="44.366116246730954" lon="8.264803141809306"><ele>394.0</ele><time>2026-04-19T16:17:20.999Z</time></trkpt><trkpt lat="44.36617040200039" lon="8.264560072559615"><ele>395.33333333333337</ele><time>2026-04-19T16:17:21.999Z</time></trkpt><trkpt lat="44.36622414312499" lon="8.264320197212122"><ele>396.66666666666663</ele><time>2026-04-19T16:17:22.999Z</time></trkpt><trkpt lat="44.36627831300943" lon="8.26408378265566"><ele>398.0</ele><time>2026-04-19T16:17:23.999Z</time></trkpt><trkpt lat="44.36632940543456" lon="8.263859132545516"><ele>398.75</ele><time>2026-04-19T16:17:24.999Z</time></trkpt><trkpt lat="44.366368691902345" lon="8.263678318046017"><ele>399.5</ele><time>2026-04-19T16:17:25.999Z</time></trkpt><trkpt lat="44.36640137282133" lon="8.263532481083338"><ele>400.25</ele><time>2026-04-19T16:17:26.999Z</time></trkpt><trkpt lat="44.36644028434525" lon="8.263374004021841"><ele>401.0</ele><time>2026-04-19T16:17:27.999Z</time></trkpt><trkpt lat="44.366479773242695" lon="8.263181098758341"><ele>401.0</ele><time>2026-04-19T16:17:28.999Z</time></trkpt><trkpt lat="44.36652175251033" lon="8.262956377529282"><ele>401.0</ele><time>2026-04-19T16:17:29.999Z</time></trkpt><trkpt lat="44.36656809555413" lon="8.262709896198475"><ele>401.0</ele><time>2026-04-19T16:17:30.999Z</time></trkpt><trkpt lat="44.3666161716585" lon="8.262437598941942"><ele>403.3333333333333</ele><time>2026-04-19T16:17:31.999Z</time></trkpt><trkpt lat="44.36666724224666" lon="8.26214056437972"><ele>405.66666666666663</ele><time>2026-04-19T16:17:32.999Z</time></trkpt><trkpt lat="44.366715487798395" lon="8.261824984798269"><ele>408.0</ele><time>2026-04-19T16:17:33.999Z</time></trkpt><trkpt lat="44.366769053936984" lon="8.261491116374778"><ele>406.5</ele><time>2026-04-19T16:17:34.999Z</time></trkpt><trkpt lat="44.3668223207597" lon="8.261141490988267"><ele>405.0</ele><time>2026-04-19T16:17:35.999Z</time></trkpt><trkpt lat="44.36688035080089" lon="8.260774227564267"><ele>406.0</ele><time>2026-04-19T16:17:36.999Z</time></trkpt><trkpt lat="44.36693672983584" lon="8.260402234637203"><ele>407.0</ele><time>2026-04-19T16:17:37.999Z</time></trkpt><trkpt lat="44.36699416996683" lon="8.26004814493379"><ele>408.0</ele><time>2026-04-19T16:17:38.999Z</time></trkpt><trkpt lat="44.36704576389153" lon="8.259712321457052"><ele>409.0</ele><time>2026-04-19T16:17:39.999Z</time></trkpt><trkpt lat="44.36709872445111" lon="8.259393811808756"><ele>409.0</ele><time>2026-04-19T16:17:40.999Z</time></trkpt><trkpt lat="44.36714659307623" lon="8.259105197390754"><ele>409.0</ele><time>2026-04-19T16:17:41.999Z</time></trkpt><trkpt lat="44.367185139238295" lon="8.258857476397257"><ele>409.0</ele><time>2026-04-19T16:17:42.999Z</time></trkpt><trkpt lat="44.36721492195707" lon="8.258609558767143"><ele>410.6666666666667</ele><time>2026-04-19T16:17:43.999Z</time></trkpt><trkpt lat="44.36721858478495" lon="8.258395956808572"><ele>412.33333333333337</ele><time>2026-04-19T16:17:44.999Z</time></trkpt><trkpt lat="44.367178469490895" lon="8.258170860770969"><ele>414.0</ele><time>2026-04-19T16:17:45.999Z</time></trkpt><trkpt lat="44.36710657101268" lon="8.257945150050947"><ele>415.66666666666663</ele><time>2026-04-19T16:17:46.999Z</time></trkpt><trkpt lat="44.367016172556426" lon="8.257709062638229"><ele>417.3333333333333</ele><time>2026-04-19T16:17:47.999Z</time></trkpt><trkpt lat="44.36690440002762" lon="8.257496884840103"><ele>419.0</ele><time>2026-04-19T16:17:48.999Z</time></trkpt><trkpt lat="44.36677323636254" lon="8.257343199136931"><ele>421.25</ele><time>2026-04-19T16:17:49.999Z</time></trkpt><trkpt lat="44.36663487831677" lon="8.257223903399748"><ele>423.5</ele><time>2026-04-19T16:17:50.999Z</time></trkpt><trkpt lat="44.36651096759047" lon="8.257098382760358"><ele>425.75</ele><time>2026-04-19T16:17:51.999Z</time></trkpt><trkpt lat="44.3664351969085" lon="8.256948476983721"><ele>428.0</ele><time>2026-04-19T16:17:52.999Z</time></trkpt><trkpt lat="44.36642119115837" lon="8.256758603973307"><ele>428.0</ele><time>2026-04-19T16:17:53.999Z</time></trkpt><trkpt lat="44.36639090173114" lon="8.256534619097252"><ele>428.0</ele><time>2026-04-19T16:17:54.999Z</time></trkpt><trkpt lat="44.36636970472028" lon="8.256282811333005"><ele>428.0</ele><time>2026-04-19T16:17:55.999Z</time></trkpt><trkpt lat="44.36633973713239" lon="8.255999532182953"><ele>428.0</ele><time>2026-04-19T16:17:56.999Z</time></trkpt><trkpt lat="44.366295214463136" lon="8.255693585400621"><ele>428.0</ele><time>2026-04-19T16:17:57.999Z</time></trkpt><trkpt lat="44.366249969396" lon="8.25541033166035"><ele>428.0</ele><time>2026-04-19T16:17:58.999Z</time></trkpt><trkpt lat="44.36620085043186" lon="8.255152662711454"><ele>427.3333333333333</ele><time>2026-04-19T16:17:59.999Z</time></trkpt><trkpt lat="44.36611952693207" lon="8.254906674913428"><ele>426.66666666666663</ele><time>2026-04-19T16:18:00.999Z</time></trkpt><trkpt lat="44.3659945722697" lon="8.2546484613686"><ele>426.0</ele><time>2026-04-19T16:18:01.999Z</time></trkpt><trkpt lat="44.365843737896576" lon="8.254383803452974"><ele>430.0</ele><time>2026-04-19T16:18:02.999Z</time></trkpt><trkpt lat="44.36568842822007" lon="8.254111080200024"><ele>434.0</ele><time>2026-04-19T16:18:03.999Z</time></trkpt><trkpt lat="44.36554578599809" lon="8.253833404142702"><ele>430.5</ele><time>2026-04-19T16:18:04.999Z</time></trkpt><trkpt lat="44.365429705316004" lon="8.253562707297576"><ele>427.0</ele><time>2026-04-19T16:18:05.999Z</time></trkpt><trkpt lat="44.365325812208376" lon="8.253284336885821"><ele>428.0</ele><time>2026-04-19T16:18:06.999Z</time></trkpt><trkpt lat="44.365236370371754" lon="8.252984841409647"><ele>429.0</ele><time>2026-04-19T16:18:07.999Z</time></trkpt><trkpt lat="44.36516135612375" lon="8.25265419914822"><ele>429.0</ele><time>2026-04-19T16:18:08.999Z</time></trkpt><trkpt lat="44.36509716560401" lon="8.252301387106712"><ele>429.0</ele><time>2026-04-19T16:18:09.999Z</time></trkpt><trkpt lat="44.36504932404609" lon="8.251921632628603"><ele>431.0</ele><time>2026-04-19T16:18:10.999Z</time></trkpt><trkpt lat="44.365005816173856" lon="8.251539108458525"><ele>433.0</ele><time>2026-04-19T16:18:11.999Z</time></trkpt><trkpt lat="44.3649586289078" lon="8.2511804850586"><ele>435.0</ele><time>2026-04-19T16:18:12.999Z</time></trkpt><trkpt lat="44.36490580595444" lon="8.250826410458844"><ele>437.0</ele><time>2026-04-19T16:18:13.999Z</time></trkpt><trkpt lat="44.36485242727532" lon="8.250463570459495"><ele>439.0</ele><time>2026-04-19T16:18:14.999Z</time></trkpt><trkpt lat="44.36480263750325" lon="8.250101714228508"><ele>441.0</ele><time>2026-04-19T16:18:15.999Z</time></trkpt><trkpt lat="44.364754791003215" lon="8.24976567900667"><ele>439.5</ele><time>2026-04-19T16:18:16.999Z</time></trkpt><trkpt lat="44.364708015867414" lon="8.249450517260128"><ele>438.0</ele><time>2026-04-19T16:18:17.999Z</time></trkpt><trkpt lat="44.364663035866734" lon="8.249144466747913"><ele>437.33333333333337</ele><time>2026-04-19T16:18:18.999Z</time></trkpt><trkpt lat="44.36462210050894" lon="8.24886319595781"><ele>436.6666666666667</ele><time>2026-04-19T16:18:19.999Z</time></trkpt><trkpt lat="44.364583217201535" lon="8.248592742082753"><ele>436.0</ele><time>2026-04-19T16:18:20.999Z</time></trkpt><trkpt lat="44.36454427175026" lon="8.24832573645224"><ele>437.6666666666667</ele><time>2026-04-19T16:18:21.999Z</time></trkpt><trkpt lat="44.36450527798724" lon="8.248046212408214"><ele>439.33333333333337</ele><time>2026-04-19T16:18:22.999Z</time></trkpt><trkpt lat="44.36446620709182" lon="8.247768695521165"><ele>441.0</ele><time>2026-04-19T16:18:23.999Z</time></trkpt><trkpt lat="44.36442699341166" lon="8.24749774585281"><ele>441.66666666666663</ele><time>2026-04-19T16:18:24.999Z</time></trkpt><trkpt lat="44.36439099795039" lon="8.247236929758753"><ele>442.3333333333333</ele><time>2026-04-19T16:18:25.999Z</time></trkpt><trkpt lat="44.36435611236766" lon="8.24699323644793"><ele>443.0</ele><time>2026-04-19T16:18:26.999Z</time></trkpt><trkpt lat="44.36432079778157" lon="8.246748586615963"><ele>443.0</ele><time>2026-04-19T16:18:27.999Z</time></trkpt><trkpt lat="44.364281580611674" lon="8.246481968298944"><ele>443.0</ele><time>2026-04-19T16:18:28.999Z</time></trkpt><trkpt lat="44.36422905713584" lon="8.24618802856437"><ele>443.0</ele><time>2026-04-19T16:18:29.999Z</time></trkpt><trkpt lat="44.36419771989292" lon="8.245869539823575"><ele>445.66666666666663</ele><time>2026-04-19T16:18:30.998Z</time></trkpt><trkpt lat="44.36414233294264" lon="8.245563378626182"><ele>448.33333333333337</ele><time>2026-04-19T16:18:31.998Z</time></trkpt><trkpt lat="44.36411196303561" lon="8.245262873391919"><ele>451.0</ele><time>2026-04-19T16:18:32.998Z</time></trkpt><trkpt lat="44.36407690745709" lon="8.244971244721514"><ele>452.33333333333337</ele><time>2026-04-19T16:18:33.998Z</time></trkpt><trkpt lat="44.36403839560453" lon="8.244701975834545"><ele>453.66666666666663</ele><time>2026-04-19T16:18:34.998Z</time></trkpt><trkpt lat="44.36399955563863" lon="8.244445974630006"><ele>455.0</ele><time>2026-04-19T16:18:35.998Z</time></trkpt><trkpt lat="44.36396177675487" lon="8.244207641324143"><ele>455.0</ele><time>2026-04-19T16:18:36.998Z</time></trkpt><trkpt lat="44.36391691887663" lon="8.243982688865291"><ele>455.0</ele><time>2026-04-19T16:18:37.998Z</time></trkpt><trkpt lat="44.363861331187856" lon="8.243762702163776"><ele>455.0</ele><time>2026-04-19T16:18:38.998Z</time></trkpt><trkpt lat="44.3637940389528" lon="8.243546125258248"><ele>454.0</ele><time>2026-04-19T16:18:39.998Z</time></trkpt><trkpt lat="44.36371131755284" lon="8.243324749101573"><ele>453.0</ele><time>2026-04-19T16:18:40.998Z</time></trkpt><trkpt lat="44.36362015786276" lon="8.243102878708171"><ele>452.0</ele><time>2026-04-19T16:18:41.998Z</time></trkpt><trkpt lat="44.36351783369163" lon="8.24289170514197"><ele>454.66666666666663</ele><time>2026-04-19T16:18:42.998Z</time></trkpt><trkpt lat="44.36340752337361" lon="8.242693389595107"><ele>457.33333333333337</ele><time>2026-04-19T16:18:43.998Z</time></trkpt><trkpt lat="44.36328890364953" lon="8.24250416696034"><ele>460.0</ele><time>2026-04-19T16:18:44.998Z</time></trkpt><trkpt lat="44.36315590123248" lon="8.242324309623244"><ele>460.6666666666667</ele><time>2026-04-19T16:18:45.998Z</time></trkpt><trkpt lat="44.36302354760082" lon="8.242144435448996"><ele>461.33333333333337</ele><time>2026-04-19T16:18:46.998Z</time></trkpt><trkpt lat="44.36289842944357" lon="8.241969050228374"><ele>462.0</ele><time>2026-04-19T16:18:47.998Z</time></trkpt><trkpt lat="44.36278628658834" lon="8.24180399151178"><ele>462.0</ele><time>2026-04-19T16:18:48.998Z</time></trkpt><trkpt lat="44.362681331877624" lon="8.241651176870198"><ele>462.0</ele><time>2026-04-19T16:18:49.998Z</time></trkpt><trkpt lat="44.362582884155756" lon="8.241509492912712"><ele>462.0</ele><time>2026-04-19T16:18:51Z</time></trkpt><trkpt lat="44.362495843199376" lon="8.241389647839357"><ele>462.0</ele><time>2026-04-19T16:18:52Z</time></trkpt><trkpt lat="44.36241896798896" lon="8.241274979932156"><ele>462.6</ele><time>2026-04-19T16:18:53Z</time></trkpt><trkpt lat="44.362353042812195" lon="8.24116258552451"><ele>463.20000000000005</ele><time>2026-04-19T16:18:54Z</time></trkpt><trkpt lat="44.362297312743024" lon="8.241040458210952"><ele>463.8</ele><time>2026-04-19T16:18:55Z</time></trkpt><trkpt lat="44.36227057607068" lon="8.240892698359715"><ele>464.4</ele><time>2026-04-19T16:18:56Z</time></trkpt><trkpt lat="44.36228128075615" lon="8.240738559019276"><ele>465.0</ele><time>2026-04-19T16:18:57Z</time></trkpt><trkpt lat="44.36230502063202" lon="8.24059588699156"><ele>465.0</ele><time>2026-04-19T16:18:58Z</time></trkpt><trkpt lat="44.362324531783074" lon="8.240453569343929"><ele>465.0</ele><time>2026-04-19T16:18:59Z</time></trkpt><trkpt lat="44.36234630398288" lon="8.240312672486034"><ele>465.0</ele><time>2026-04-19T16:19:00Z</time></trkpt><trkpt lat="44.36236451650696" lon="8.240189508974932"><ele>465.0</ele><time>2026-04-19T16:19:01Z</time></trkpt><trkpt lat="44.362379474356686" lon="8.240079478886111"><ele>465.0</ele><time>2026-04-19T16:19:02Z</time></trkpt><trkpt lat="44.36239540852254" lon="8.239979413677455"><ele>465.0</ele><time>2026-04-19T16:19:03Z</time></trkpt><trkpt lat="44.36242212152715" lon="8.239891945288768"><ele>465.0</ele><time>2026-04-19T16:19:04Z</time></trkpt><trkpt lat="44.36246556978291" lon="8.239813048294527"><ele>465.0</ele><time>2026-04-19T16:19:05Z</time></trkpt><trkpt lat="44.36250889134579" lon="8.239726234026293"><ele>465.0</ele><time>2026-04-19T16:19:06Z</time></trkpt><trkpt lat="44.36252925334741" lon="8.239620817859693"><ele>465.0</ele><time>2026-04-19T16:19:07Z</time></trkpt><trkpt lat="44.36252529260167" lon="8.239491199889557"><ele>465.0</ele><time>2026-04-19T16:19:08Z</time></trkpt><trkpt lat="44.362516030526955" lon="8.239336267914515"><ele>464.75</ele><time>2026-04-19T16:19:09Z</time></trkpt><trkpt lat="44.3625261527944" lon="8.239154242815168"><ele>464.5</ele><time>2026-04-19T16:19:10Z</time></trkpt><trkpt lat="44.36255913903275" lon="8.238962584539548"><ele>464.25</ele><time>2026-04-19T16:19:11Z</time></trkpt><trkpt lat="44.362601031375526" lon="8.238772534782438"><ele>464.0</ele><time>2026-04-19T16:19:12Z</time></trkpt><trkpt lat="44.362633370425314" lon="8.238583860913192"><ele>464.0</ele><time>2026-04-19T16:19:13Z</time></trkpt><trkpt lat="44.36265634293052" lon="8.238389030330728"><ele>464.0</ele><time>2026-04-19T16:19:14Z</time></trkpt><trkpt lat="44.362670241396124" lon="8.238157539655873"><ele>464.0</ele><time>2026-04-19T16:19:15Z</time></trkpt><trkpt lat="44.362663738655854" lon="8.237883916011194"><ele>464.3333333333333</ele><time>2026-04-19T16:19:16Z</time></trkpt><trkpt lat="44.36262732866884" lon="8.237581873663771"><ele>464.66666666666663</ele><time>2026-04-19T16:19:17Z</time></trkpt><trkpt lat="44.362565178925934" lon="8.23727177674677"><ele>465.0</ele><time>2026-04-19T16:19:18Z</time></trkpt><trkpt lat="44.36248886260204" lon="8.236940005842623"><ele>467.5</ele><time>2026-04-19T16:19:19Z</time></trkpt><trkpt lat="44.36241335043878" lon="8.236594061448947"><ele>470.0</ele><time>2026-04-19T16:19:20Z</time></trkpt><trkpt lat="44.362338440900366" lon="8.236231000074252"><ele>471.0</ele><time>2026-04-19T16:19:21Z</time></trkpt><trkpt lat="44.36225919004639" lon="8.235853551052296"><ele>472.0</ele><time>2026-04-19T16:19:22Z</time></trkpt><trkpt lat="44.36217953557021" lon="8.235460968571026"><ele>472.0</ele><time>2026-04-19T16:19:23Z</time></trkpt><trkpt lat="44.36210116758779" lon="8.23508728464822"><ele>472.0</ele><time>2026-04-19T16:19:24Z</time></trkpt><trkpt lat="44.362028326649806" lon="8.234745816531456"><ele>475.5</ele><time>2026-04-19T16:19:25Z</time></trkpt><trkpt lat="44.36195409308956" lon="8.234423115875062"><ele>479.0</ele><time>2026-04-19T16:19:26Z</time></trkpt><trkpt lat="44.36186196770774" lon="8.234106092530645"><ele>482.0</ele><time>2026-04-19T16:19:27Z</time></trkpt><trkpt lat="44.361729574105375" lon="8.233807911447164"><ele>485.0</ele><time>2026-04-19T16:19:28Z</time></trkpt><trkpt lat="44.36156854314164" lon="8.233524603162948"><ele>485.0</ele><time>2026-04-19T16:19:28.999Z</time></trkpt><trkpt lat="44.36138541207125" lon="8.233259698681078"><ele>485.0</ele><time>2026-04-19T16:19:29.999Z</time></trkpt><trkpt lat="44.361197893032255" lon="8.232992400636325"><ele>490.5</ele><time>2026-04-19T16:19:30.999Z</time></trkpt><trkpt lat="44.36101716278726" lon="8.232708371472452"><ele>496.0</ele><time>2026-04-19T16:19:31.999Z</time></trkpt><trkpt lat="44.36084419325545" lon="8.232413938799134"><ele>505.0</ele><time>2026-04-19T16:19:32.999Z</time></trkpt><trkpt lat="44.3606839957613" lon="8.232102054731687"><ele>514.0</ele><time>2026-04-19T16:19:33.999Z</time></trkpt><trkpt lat="44.36053746616735" lon="8.231772016797038"><ele>510.0</ele><time>2026-04-19T16:19:34.999Z</time></trkpt><trkpt lat="44.36039678034113" lon="8.231427322603437"><ele>506.0</ele><time>2026-04-19T16:19:35.999Z</time></trkpt><trkpt lat="44.36025719048205" lon="8.231075778044024"><ele>506.0</ele><time>2026-04-19T16:19:36.999Z</time></trkpt><trkpt lat="44.36010948107776" lon="8.230720500558267"><ele>506.0</ele><time>2026-04-19T16:19:37.999Z</time></trkpt><trkpt lat="44.359957545064944" lon="8.230363271954355"><ele>509.5</ele><time>2026-04-19T16:19:38.999Z</time></trkpt><trkpt lat="44.359804544973066" lon="8.230016763327564"><ele>513.0</ele><time>2026-04-19T16:19:39.999Z</time></trkpt><trkpt lat="44.35965962328819" lon="8.229693526555137"><ele>513.5</ele><time>2026-04-19T16:19:40.999Z</time></trkpt><trkpt lat="44.359522852167" lon="8.229392054668377"><ele>514.0</ele><time>2026-04-19T16:19:41.999Z</time></trkpt><trkpt lat="44.359399533186874" lon="8.229138288804473"><ele>516.6666666666667</ele><time>2026-04-19T16:19:42.999Z</time></trkpt><trkpt lat="44.35928428006861" lon="8.228911355399163"><ele>519.3333333333334</ele><time>2026-04-19T16:19:43.999Z</time></trkpt><trkpt lat="44.35917474024255" lon="8.228701040537565"><ele>522.0</ele><time>2026-04-19T16:19:44.999Z</time></trkpt><trkpt lat="44.35906856254415" lon="8.228508938480973"><ele>522.0</ele><time>2026-04-19T16:19:45.999Z</time></trkpt><trkpt lat="44.35896171951902" lon="8.228319540467288"><ele>522.0</ele><time>2026-04-19T16:19:46.999Z</time></trkpt><trkpt lat="44.35884549794775" lon="8.228114943546283"><ele>522.0</ele><time>2026-04-19T16:19:47.999Z</time></trkpt><trkpt lat="44.35872307405676" lon="8.227907192243299"><ele>524.0</ele><time>2026-04-19T16:19:48.999Z</time></trkpt><trkpt lat="44.35859733698867" lon="8.227702841313631"><ele>526.0</ele><time>2026-04-19T16:19:49.999Z</time></trkpt><trkpt lat="44.358467380156796" lon="8.227495072960627"><ele>528.0</ele><time>2026-04-19T16:19:50.999Z</time></trkpt><trkpt lat="44.35834323858065" lon="8.227304741075583"><ele>529.3333333333334</ele><time>2026-04-19T16:19:51.999Z</time></trkpt><trkpt lat="44.35823610726603" lon="8.22713830436055"><ele>530.6666666666667</ele><time>2026-04-19T16:19:52.999Z</time></trkpt><trkpt lat="44.35814235536961" lon="8.226961378208982"><ele>532.0</ele><time>2026-04-19T16:19:53.999Z</time></trkpt><trkpt lat="44.35806675162697" lon="8.226750872290047"><ele>531.3333333333334</ele><time>2026-04-19T16:19:54.999Z</time></trkpt><trkpt lat="44.358013168198454" lon="8.226515457951331"><ele>530.6666666666666</ele><time>2026-04-19T16:19:55.999Z</time></trkpt><trkpt lat="44.35798466728703" lon="8.22625387613859"><ele>530.0</ele><time>2026-04-19T16:19:56.999Z</time></trkpt><trkpt lat="44.35795712595348" lon="8.225962726706188"><ele>528.0</ele><time>2026-04-19T16:19:57.999Z</time></trkpt><trkpt lat="44.35792099682054" lon="8.22565152740539"><ele>526.0</ele><time>2026-04-19T16:19:58.999Z</time></trkpt><trkpt lat="44.35787989125407" lon="8.225332761660226"><ele>524.0</ele><time>2026-04-19T16:19:59.999Z</time></trkpt><trkpt lat="44.35783735250737" lon="8.225025278349541"><ele>522.0</ele><time>2026-04-19T16:20:00.999Z</time></trkpt><trkpt lat="44.357790370135376" lon="8.224714724463274"><ele>519.0</ele><time>2026-04-19T16:20:01.999Z</time></trkpt><trkpt lat="44.357728465155844" lon="8.224397888373757"><ele>516.0</ele><time>2026-04-19T16:20:02.999Z</time></trkpt><trkpt lat="44.35765179222931" lon="8.224077405358026"><ele>514.5</ele><time>2026-04-19T16:20:03.999Z</time></trkpt><trkpt lat="44.35757303158907" lon="8.223762081194671"><ele>513.0</ele><time>2026-04-19T16:20:04.999Z</time></trkpt><trkpt lat="44.35749586528306" lon="8.223454942379197"><ele>513.0</ele><time>2026-04-19T16:20:05.999Z</time></trkpt><trkpt lat="44.357418743239116" lon="8.223156698458652"><ele>513.0</ele><time>2026-04-19T16:20:06.999Z</time></trkpt><trkpt lat="44.35734892546838" lon="8.222859341985899"><ele>511.66666666666663</ele><time>2026-04-19T16:20:07.999Z</time></trkpt><trkpt lat="44.357300085188065" lon="8.222557892300015"><ele>510.3333333333333</ele><time>2026-04-19T16:20:08.999Z</time></trkpt><trkpt lat="44.3572768086226" lon="8.222256360011999"><ele>509.0</ele><time>2026-04-19T16:20:09.999Z</time></trkpt><trkpt lat="44.35727521531379" lon="8.221969766571153"><ele>506.0</ele><time>2026-04-19T16:20:10.999Z</time></trkpt><trkpt lat="44.35727865175381" lon="8.22169212503267"><ele>503.0</ele><time>2026-04-19T16:20:11.999Z</time></trkpt><trkpt lat="44.3572997507391" lon="8.221432565319967"><ele>500.0</ele><time>2026-04-19T16:20:12.999Z</time></trkpt><trkpt lat="44.35733852333414" lon="8.221203757213845"><ele>497.25</ele><time>2026-04-19T16:20:13.999Z</time></trkpt><trkpt lat="44.35738781265783" lon="8.221016220346169"><ele>494.5</ele><time>2026-04-19T16:20:14.999Z</time></trkpt><trkpt lat="44.35744670144773" lon="8.22088211965072"><ele>491.75</ele><time>2026-04-19T16:20:15.999Z</time></trkpt><trkpt lat="44.35753167199158" lon="8.220770943308404"><ele>489.0</ele><time>2026-04-19T16:20:16.999Z</time></trkpt><trkpt lat="44.35764273353742" lon="8.22069450540788"><ele>489.0</ele><time>2026-04-19T16:20:17.999Z</time></trkpt><trkpt lat="44.35778538172613" lon="8.220664447512286"><ele>489.0</ele><time>2026-04-19T16:20:18.999Z</time></trkpt><trkpt lat="44.35795616583012" lon="8.220650712628693"><ele>489.0</ele><time>2026-04-19T16:20:19.999Z</time></trkpt><trkpt lat="44.35813971783987" lon="8.220630495128322"><ele>486.0</ele><time>2026-04-19T16:20:20.999Z</time></trkpt><trkpt lat="44.35830573690557" lon="8.220600859065232"><ele>483.0</ele><time>2026-04-19T16:20:21.999Z</time></trkpt><trkpt lat="44.358454898367576" lon="8.220561018147556"><ele>480.0</ele><time>2026-04-19T16:20:22.999Z</time></trkpt><trkpt lat="44.35858581920755" lon="8.220488361276553"><ele>480.0</ele><time>2026-04-19T16:20:23.999Z</time></trkpt><trkpt lat="44.35869169796861" lon="8.220375792496517"><ele>480.0</ele><time>2026-04-19T16:20:24.999Z</time></trkpt><trkpt lat="44.35875556004744" lon="8.220220798856635"><ele>480.0</ele><time>2026-04-19T16:20:25.999Z</time></trkpt><trkpt lat="44.358788780386156" lon="8.220030554175674"><ele>480.0</ele><time>2026-04-19T16:20:26.999Z</time></trkpt><trkpt lat="44.358792145017134" lon="8.219802521220023"><ele>478.66666666666663</ele><time>2026-04-19T16:20:27.999Z</time></trkpt><trkpt lat="44.358800947514204" lon="8.219544493309622"><ele>477.3333333333333</ele><time>2026-04-19T16:20:28.999Z</time></trkpt><trkpt lat="44.358806759462745" lon="8.219255324470906"><ele>476.0</ele><time>2026-04-19T16:20:29.999Z</time></trkpt><trkpt lat="44.358813518301275" lon="8.218953403413952"><ele>476.0</ele><time>2026-04-19T16:20:30.999Z</time></trkpt><trkpt lat="44.358846331666925" lon="8.218664612606647"><ele>476.0</ele><time>2026-04-19T16:20:31.999Z</time></trkpt><trkpt lat="44.35888058120889" lon="8.2183805052134"><ele>476.0</ele><time>2026-04-19T16:20:32.999Z</time></trkpt><trkpt lat="44.35892816698449" lon="8.218113864901724"><ele>472.66666666666663</ele><time>2026-04-19T16:20:33.999Z</time></trkpt><trkpt lat="44.35900350767121" lon="8.217868639327772"><ele>469.33333333333337</ele><time>2026-04-19T16:20:34.999Z</time></trkpt><trkpt lat="44.35910073700818" lon="8.21764523175773"><ele>466.0</ele><time>2026-04-19T16:20:35.999Z</time></trkpt><trkpt lat="44.35919327041547" lon="8.217438035002957"><ele>466.33333333333337</ele><time>2026-04-19T16:20:36.999Z</time></trkpt><trkpt lat="44.35925611350659" lon="8.217230598854004"><ele>466.66666666666663</ele><time>2026-04-19T16:20:37.999Z</time></trkpt><trkpt lat="44.359282919877515" lon="8.217017577349186"><ele>467.0</ele><time>2026-04-19T16:20:38.999Z</time></trkpt><trkpt lat="44.35926334992545" lon="8.216786395979348"><ele>467.0</ele><time>2026-04-19T16:20:39.998Z</time></trkpt><trkpt lat="44.35921508115442" lon="8.216543599994893"><ele>467.0</ele><time>2026-04-19T16:20:40.998Z</time></trkpt><trkpt lat="44.359143493787904" lon="8.216328568978065"><ele>467.0</ele><time>2026-04-19T16:20:41.998Z</time></trkpt><trkpt lat="44.35907483458675" lon="8.216131757081982"><ele>466.75</ele><time>2026-04-19T16:20:42.998Z</time></trkpt><trkpt lat="44.35901132845691" lon="8.21595691652059"><ele>466.5</ele><time>2026-04-19T16:20:43.998Z</time></trkpt><trkpt lat="44.35895930339171" lon="8.215790965228127"><ele>466.25</ele><time>2026-04-19T16:20:44.998Z</time></trkpt><trkpt lat="44.35893909530173" lon="8.215629248865742"><ele>466.0</ele><time>2026-04-19T16:20:45.998Z</time></trkpt><trkpt lat="44.35895342925959" lon="8.21546628325968"><ele>464.25</ele><time>2026-04-19T16:20:46.998Z</time></trkpt><trkpt lat="44.3589865810358" lon="8.215310860758894"><ele>462.5</ele><time>2026-04-19T16:20:47.998Z</time></trkpt><trkpt lat="44.359047766106094" lon="8.215163937135516"><ele>460.75</ele><time>2026-04-19T16:20:48.998Z</time></trkpt><trkpt lat="44.35914289861676" lon="8.215032312307995"><ele>459.0</ele><time>2026-04-19T16:20:49.998Z</time></trkpt><trkpt lat="44.35926093846958" lon="8.214913622471844"><ele>460.33333333333337</ele><time>2026-04-19T16:20:50.998Z</time></trkpt><trkpt lat="44.359405073697836" lon="8.21479379949445"><ele>461.6666666666667</ele><time>2026-04-19T16:20:51.998Z</time></trkpt><trkpt lat="44.35955919892663" lon="8.214656813941426"><ele>463.0</ele><time>2026-04-19T16:20:52.998Z</time></trkpt><trkpt lat="44.35972121334495" lon="8.214498753749906"><ele>459.0</ele><time>2026-04-19T16:20:53.998Z</time></trkpt><trkpt lat="44.359888640647796" lon="8.214338672660022"><ele>455.0</ele><time>2026-04-19T16:20:54.998Z</time></trkpt><trkpt lat="44.360054079893395" lon="8.214198261358122"><ele>451.0</ele><time>2026-04-19T16:20:55.998Z</time></trkpt><trkpt lat="44.36021010072717" lon="8.214047678828477"><ele>450.33333333333337</ele><time>2026-04-19T16:20:57Z</time></trkpt><trkpt lat="44.360341542086125" lon="8.213868928822693"><ele>449.66666666666663</ele><time>2026-04-19T16:20:58Z</time></trkpt><trkpt lat="44.36045166336953" lon="8.2136699515415"><ele>449.0</ele><time>2026-04-19T16:20:59Z</time></trkpt><trkpt lat="44.36054064434834" lon="8.21345769330196"><ele>449.0</ele><time>2026-04-19T16:21:00Z</time></trkpt><trkpt lat="44.36060484155442" lon="8.213252835166303"><ele>449.0</ele><time>2026-04-19T16:21:01Z</time></trkpt><trkpt lat="44.36065097617026" lon="8.213044749668462"><ele>449.0</ele><time>2026-04-19T16:21:02Z</time></trkpt><trkpt lat="44.36067665239859" lon="8.212844278619407"><ele>448.25</ele><time>2026-04-19T16:21:03Z</time></trkpt><trkpt lat="44.360694668285326" lon="8.212651298075988"><ele>447.5</ele><time>2026-04-19T16:21:04Z</time></trkpt><trkpt lat="44.360705308866756" lon="8.21246844681987"><ele>446.75</ele><time>2026-04-19T16:21:05Z</time></trkpt><trkpt lat="44.36071343285943" lon="8.212292728565924"><ele>446.0</ele><time>2026-04-19T16:21:06Z</time></trkpt><trkpt lat="44.36072961198722" lon="8.212123932569057"><ele>446.0</ele><time>2026-04-19T16:21:07Z</time></trkpt><trkpt lat="44.36075361145041" lon="8.211964793544245"><ele>446.0</ele><time>2026-04-19T16:21:08Z</time></trkpt><trkpt lat="44.36077723115229" lon="8.211816369672551"><ele>446.0</ele><time>2026-04-19T16:21:09Z</time></trkpt><trkpt lat="44.360794330907424" lon="8.211700813091372"><ele>446.0</ele><time>2026-04-19T16:21:10Z</time></trkpt><trkpt lat="44.36081661952309" lon="8.211552019919628"><ele>446.0</ele><time>2026-04-19T16:21:12Z</time></trkpt><trkpt lat="44.360843166728884" lon="8.211400556044737"><ele>445.4</ele><time>2026-04-19T16:21:14Z</time></trkpt><trkpt lat="44.360851622781105" lon="8.211292055093868"><ele>444.8</ele><time>2026-04-19T16:21:16Z</time></trkpt><trkpt lat="44.36075942124274" lon="8.21127982653485"><ele>444.19999999999993</ele><time>2026-04-19T16:21:19Z</time></trkpt><trkpt lat="44.36073414619633" lon="8.211370051289384"><ele>443.59999999999997</ele><time>2026-04-19T16:21:20Z</time></trkpt><trkpt lat="44.36056699740062" lon="8.21132623115445"><ele>443.0</ele><time>2026-04-19T16:21:22Z</time></trkpt><trkpt lat="44.36047919873499" lon="8.211273882436522"><ele>447.75</ele><time>2026-04-19T16:21:23Z</time></trkpt><trkpt lat="44.360381694286545" lon="8.21119878881802"><ele>452.5</ele><time>2026-04-19T16:21:24Z</time></trkpt><trkpt lat="44.360278866029866" lon="8.211094492083557"><ele>457.25</ele><time>2026-04-19T16:21:25Z</time></trkpt><trkpt lat="44.360181699811555" lon="8.210966800015163"><ele>462.0</ele><time>2026-04-19T16:21:26Z</time></trkpt><trkpt lat="44.3601017876473" lon="8.210800741653475"><ele>456.66666666666663</ele><time>2026-04-19T16:21:27Z</time></trkpt><trkpt lat="44.3600480403249" lon="8.210610558572668"><ele>451.3333333333333</ele><time>2026-04-19T16:21:28Z</time></trkpt><trkpt lat="44.36004869274834" lon="8.210392657973987"><ele>446.0</ele><time>2026-04-19T16:21:29Z</time></trkpt><trkpt lat="44.3600149682312" lon="8.210175705541175"><ele>446.0</ele><time>2026-04-19T16:21:30Z</time></trkpt><trkpt lat="44.35993998388566" lon="8.209973695625731"><ele>446.0</ele><time>2026-04-19T16:21:31Z</time></trkpt><trkpt lat="44.359800191103645" lon="8.209799155156034"><ele>446.0</ele><time>2026-04-19T16:21:32Z</time></trkpt><trkpt lat="44.35967713359303" lon="8.209597193915725"><ele>445.5</ele><time>2026-04-19T16:21:33Z</time></trkpt><trkpt lat="44.35960648556924" lon="8.20946637723364"><ele>445.0</ele><time>2026-04-19T16:21:34Z</time></trkpt><trkpt lat="44.35955028480594" lon="8.209312049198934"><ele>444.5</ele><time>2026-04-19T16:21:35Z</time></trkpt><trkpt lat="44.359509737899415" lon="8.209142126240831"><ele>444.0</ele><time>2026-04-19T16:21:36Z</time></trkpt><trkpt lat="44.359474794643894" lon="8.20891493836113"><ele>444.0</ele><time>2026-04-19T16:21:37Z</time></trkpt><trkpt lat="44.35946215389782" lon="8.208667061212239"><ele>444.0</ele><time>2026-04-19T16:21:38Z</time></trkpt><trkpt lat="44.35947965849737" lon="8.20840151880266"><ele>444.0</ele><time>2026-04-19T16:21:38.999Z</time></trkpt><trkpt lat="44.359532090291395" lon="8.208125463387567"><ele>442.0</ele><time>2026-04-19T16:21:39.999Z</time></trkpt><trkpt lat="44.359612237216396" lon="8.207853067823082"><ele>440.0</ele><time>2026-04-19T16:21:40.999Z</time></trkpt><trkpt lat="44.359705393225944" lon="8.207553856352128"><ele>438.0</ele><time>2026-04-19T16:21:41.999Z</time></trkpt><trkpt lat="44.35981129241971" lon="8.2072638197913"><ele>446.0</ele><time>2026-04-19T16:21:42.999Z</time></trkpt><trkpt lat="44.35993395299532" lon="8.206973415357401"><ele>454.0</ele><time>2026-04-19T16:21:43.999Z</time></trkpt><trkpt lat="44.36006971110804" lon="8.206716817328394"><ele>454.0</ele><time>2026-04-19T16:21:44.999Z</time></trkpt><trkpt lat="44.36020949853376" lon="8.206502350173006"><ele>454.0</ele><time>2026-04-19T16:21:45.999Z</time></trkpt><trkpt lat="44.3603704415733" lon="8.206291785238797"><ele>454.0</ele><time>2026-04-19T16:21:46.999Z</time></trkpt><trkpt lat="44.36054163876718" lon="8.206090669627487"><ele>453.6666666666667</ele><time>2026-04-19T16:21:47.999Z</time></trkpt><trkpt lat="44.36071594244071" lon="8.205898556554876"><ele>453.33333333333337</ele><time>2026-04-19T16:21:48.999Z</time></trkpt><trkpt lat="44.360862215889775" lon="8.205746090044206"><ele>453.0</ele><time>2026-04-19T16:21:49.999Z</time></trkpt><trkpt lat="44.361042544968385" lon="8.205559553022901"><ele>451.0</ele><time>2026-04-19T16:21:50.999Z</time></trkpt><trkpt lat="44.36139808097729" lon="8.205187415759513"><ele>449.0</ele><time>2026-04-19T16:21:53.069Z</time></trkpt><trkpt lat="44.36173975860785" lon="8.20482947350919"><ele>445.5</ele><time>2026-04-19T16:21:55.06Z</time></trkpt><trkpt lat="44.36208205174115" lon="8.204470886463172"><ele>442.0</ele><time>2026-04-19T16:21:57.059Z</time></trkpt><trkpt lat="44.362408142139984" lon="8.204230872443002"><ele>445.0</ele><time>2026-04-19T16:21:58.03Z</time></trkpt><trkpt lat="44.36379254952495" lon="8.202347683575187"><ele>454.0</ele><time>2026-04-19T16:22:01.088Z</time></trkpt><trkpt lat="44.36300207342733" lon="8.203325927993113"><ele>451.0</ele><time>2026-04-19T16:22:02.999Z</time></trkpt><trkpt lat="44.36313843623584" lon="8.203168270564312"><ele>448.0</ele><time>2026-04-19T16:22:03.999Z</time></trkpt><trkpt lat="44.36334495709336" lon="8.203083736999647"><ele>445.0</ele><time>2026-04-19T16:22:04.999Z</time></trkpt><trkpt lat="44.363482092826274" lon="8.202891879813174"><ele>445.0</ele><time>2026-04-19T16:22:05.999Z</time></trkpt><trkpt lat="44.36362168188884" lon="8.202675343711277"><ele>445.0</ele><time>2026-04-19T16:22:06.999Z</time></trkpt><trkpt lat="44.363750828476626" lon="8.202459172727737"><ele>445.0</ele><time>2026-04-19T16:22:07.999Z</time></trkpt><trkpt lat="44.36387007972516" lon="8.202239375658854"><ele>440.33333333333337</ele><time>2026-04-19T16:22:08.999Z</time></trkpt><trkpt lat="44.36400124395871" lon="8.202036259961535"><ele>435.66666666666663</ele><time>2026-04-19T16:22:09.999Z</time></trkpt><trkpt lat="44.364116596406646" lon="8.2018316048377"><ele>431.0</ele><time>2026-04-19T16:22:10.999Z</time></trkpt><trkpt lat="44.364235495745525" lon="8.201615401982938"><ele>432.0</ele><time>2026-04-19T16:22:11.999Z</time></trkpt><trkpt lat="44.36425230427789" lon="8.20142469960275"><ele>433.0</ele><time>2026-04-19T16:22:13.999Z</time></trkpt><trkpt lat="44.364312474396314" lon="8.201289942001596"><ele>434.0</ele><time>2026-04-19T16:22:14.999Z</time></trkpt><trkpt lat="44.36435169404498" lon="8.201142166326152"><ele>435.0</ele><time>2026-04-19T16:22:15.999Z</time></trkpt><trkpt lat="44.36438863327033" lon="8.200972618045702"><ele>435.0</ele><time>2026-04-19T16:22:16.999Z</time></trkpt><trkpt lat="44.364438286800144" lon="8.20077998470646"><ele>435.0</ele><time>2026-04-19T16:22:17.999Z</time></trkpt><trkpt lat="44.36450888780531" lon="8.20058848584883"><ele>435.0</ele><time>2026-04-19T16:22:18.999Z</time></trkpt><trkpt lat="44.3645809200083" lon="8.20038349698316"><ele>435.0</ele><time>2026-04-19T16:22:19.999Z</time></trkpt><trkpt lat="44.36464963000067" lon="8.200171473805485"><ele>435.0</ele><time>2026-04-19T16:22:20.999Z</time></trkpt><trkpt lat="44.36471503419109" lon="8.199974357634197"><ele>435.0</ele><time>2026-04-19T16:22:21.999Z</time></trkpt><trkpt lat="44.36477428516099" lon="8.199794162793308"><ele>435.0</ele><time>2026-04-19T16:22:22.999Z</time></trkpt><trkpt lat="44.36483024339899" lon="8.19961092573544"><ele>435.0</ele><time>2026-04-19T16:22:23.999Z</time></trkpt><trkpt lat="44.36489385031295" lon="8.19943056003765"><ele>435.0</ele><time>2026-04-19T16:22:24.999Z</time></trkpt><trkpt lat="44.364967507121705" lon="8.199260714212361"><ele>435.0</ele><time>2026-04-19T16:22:25.999Z</time></trkpt><trkpt lat="44.365048745900964" lon="8.19909578142912"><ele>437.33333333333337</ele><time>2026-04-19T16:22:26.999Z</time></trkpt><trkpt lat="44.36515135066674" lon="8.198939004902433"><ele>439.6666666666667</ele><time>2026-04-19T16:22:27.999Z</time></trkpt><trkpt lat="44.36526430196704" lon="8.198782181392623"><ele>442.0</ele><time>2026-04-19T16:22:28.999Z</time></trkpt><trkpt lat="44.3653803768417" lon="8.198638236622086"><ele>442.0</ele><time>2026-04-19T16:22:29.999Z</time></trkpt><trkpt lat="44.36549183291409" lon="8.198492492649155"><ele>442.0</ele><time>2026-04-19T16:22:30.999Z</time></trkpt><trkpt lat="44.36558382926204" lon="8.198330370376983"><ele>442.0</ele><time>2026-04-19T16:22:31.999Z</time></trkpt><trkpt lat="44.36564661530904" lon="8.198137673796417"><ele>440.33333333333337</ele><time>2026-04-19T16:22:32.999Z</time></trkpt><trkpt lat="44.36569162527585" lon="8.197921625553567"><ele>438.66666666666663</ele><time>2026-04-19T16:22:33.999Z</time></trkpt><trkpt lat="44.36571350788292" lon="8.197691759587613"><ele>437.0</ele><time>2026-04-19T16:22:34.999Z</time></trkpt><trkpt lat="44.36573586039912" lon="8.19747384150737"><ele>436.75</ele><time>2026-04-19T16:22:35.999Z</time></trkpt><trkpt lat="44.36576043731905" lon="8.197274258214952"><ele>436.5</ele><time>2026-04-19T16:22:36.999Z</time></trkpt><trkpt lat="44.365779660137655" lon="8.19709083435354"><ele>436.25</ele><time>2026-04-19T16:22:37.999Z</time></trkpt><trkpt lat="44.36579165245065" lon="8.196911541487117"><ele>436.0</ele><time>2026-04-19T16:22:38.999Z</time></trkpt><trkpt lat="44.36578613518868" lon="8.196722360454217"><ele>436.0</ele><time>2026-04-19T16:22:39.999Z</time></trkpt><trkpt lat="44.365754520739344" lon="8.196513624996564"><ele>436.0</ele><time>2026-04-19T16:22:40.999Z</time></trkpt><trkpt lat="44.36570051502994" lon="8.196283697934568"><ele>436.0</ele><time>2026-04-19T16:22:41.999Z</time></trkpt><trkpt lat="44.36564169161394" lon="8.196044792570477"><ele>434.33333333333337</ele><time>2026-04-19T16:22:42.999Z</time></trkpt><trkpt lat="44.36557107958972" lon="8.195798015252441"><ele>432.66666666666663</ele><time>2026-04-19T16:22:43.999Z</time></trkpt><trkpt lat="44.36548309379733" lon="8.195556440440745"><ele>431.0</ele><time>2026-04-19T16:22:44.999Z</time></trkpt><trkpt lat="44.3653676703207" lon="8.19532372456698"><ele>433.3333333333333</ele><time>2026-04-19T16:22:45.999Z</time></trkpt><trkpt lat="44.365230212554664" lon="8.195095047264147"><ele>435.66666666666663</ele><time>2026-04-19T16:22:46.999Z</time></trkpt><trkpt lat="44.36510498230591" lon="8.194837163965108"><ele>438.0</ele><time>2026-04-19T16:22:47.999Z</time></trkpt><trkpt lat="44.36495719084013" lon="8.194571981055107"><ele>438.0</ele><time>2026-04-19T16:22:48.999Z</time></trkpt><trkpt lat="44.36481326252338" lon="8.194313742312847"><ele>438.0</ele><time>2026-04-19T16:22:49.998Z</time></trkpt><trkpt lat="44.36465200921431" lon="8.194098856187138"><ele>438.33333333333337</ele><time>2026-04-19T16:22:50.998Z</time></trkpt><trkpt lat="44.364522999731" lon="8.193872860408339"><ele>438.6666666666667</ele><time>2026-04-19T16:22:51.998Z</time></trkpt><trkpt lat="44.364400668796335" lon="8.193663956561702"><ele>439.0</ele><time>2026-04-19T16:22:52.998Z</time></trkpt><trkpt lat="44.36427168802125" lon="8.193487931388331"><ele>439.0</ele><time>2026-04-19T16:22:53.998Z</time></trkpt><trkpt lat="44.36411902548643" lon="8.193349986334699"><ele>439.0</ele><time>2026-04-19T16:22:54.998Z</time></trkpt><trkpt lat="44.3639447875059" lon="8.193252204871266"><ele>439.0</ele><time>2026-04-19T16:22:55.998Z</time></trkpt><trkpt lat="44.36374764990865" lon="8.193194437689131"><ele>439.6666666666667</ele><time>2026-04-19T16:22:56.998Z</time></trkpt><trkpt lat="44.36354114958322" lon="8.193138887679876"><ele>440.33333333333337</ele><time>2026-04-19T16:22:57.998Z</time></trkpt><trkpt lat="44.36333946821349" lon="8.193089186924285"><ele>441.0</ele><time>2026-04-19T16:22:58.998Z</time></trkpt><trkpt lat="44.36314501915965" lon="8.193056288214242"><ele>439.33333333333337</ele><time>2026-04-19T16:22:59.998Z</time></trkpt><trkpt lat="44.362937678360446" lon="8.193051213623738"><ele>437.6666666666667</ele><time>2026-04-19T16:23:00.998Z</time></trkpt><trkpt lat="44.362729263015275" lon="8.193073746882657"><ele>436.0</ele><time>2026-04-19T16:23:01.998Z</time></trkpt><trkpt lat="44.36253626809463" lon="8.193105859624506"><ele>436.0</ele><time>2026-04-19T16:23:03Z</time></trkpt><trkpt lat="44.362357000656395" lon="8.193129137604519"><ele>436.0</ele><time>2026-04-19T16:23:04Z</time></trkpt><trkpt lat="44.362192608726595" lon="8.193141229323327"><ele>436.0</ele><time>2026-04-19T16:23:05Z</time></trkpt><trkpt lat="44.36204464885219" lon="8.193144811435427"><ele>437.0</ele><time>2026-04-19T16:23:06Z</time></trkpt><trkpt lat="44.361916198095834" lon="8.193119024222026"><ele>438.0</ele><time>2026-04-19T16:23:07Z</time></trkpt><trkpt lat="44.3618046038302" lon="8.193054565125541"><ele>439.0</ele><time>2026-04-19T16:23:08Z</time></trkpt><trkpt lat="44.361729631234205" lon="8.192918288673793"><ele>440.0</ele><time>2026-04-19T16:23:09Z</time></trkpt><trkpt lat="44.36165439644128" lon="8.192788884829406"><ele>440.0</ele><time>2026-04-19T16:23:10Z</time></trkpt><trkpt lat="44.361605839766675" lon="8.192636972879775"><ele>440.0</ele><time>2026-04-19T16:23:11Z</time></trkpt><trkpt lat="44.361590466962674" lon="8.192487945404917"><ele>440.0</ele><time>2026-04-19T16:23:12Z</time></trkpt><trkpt lat="44.36160658339899" lon="8.192353631453754"><ele>440.0</ele><time>2026-04-19T16:23:13Z</time></trkpt><trkpt lat="44.361624500703314" lon="8.192241716691404"><ele>440.0</ele><time>2026-04-19T16:23:14Z</time></trkpt><trkpt lat="44.36163469350684" lon="8.192124057353645"><ele>440.8333333333333</ele><time>2026-04-19T16:23:15Z</time></trkpt><trkpt lat="44.36166627770736" lon="8.192008855110778"><ele>441.66666666666663</ele><time>2026-04-19T16:23:16Z</time></trkpt><trkpt lat="44.361692360760905" lon="8.191922473900627"><ele>442.5</ele><time>2026-04-19T16:23:17Z</time></trkpt><trkpt lat="44.36171808197214" lon="8.191801661799886"><ele>443.33333333333337</ele><time>2026-04-19T16:23:19Z</time></trkpt><trkpt lat="44.361735357247554" lon="8.191716914314496"><ele>444.1666666666667</ele><time>2026-04-19T16:23:20Z</time></trkpt><trkpt lat="44.361761702452675" lon="8.191594450263707"><ele>445.0</ele><time>2026-04-19T16:23:21Z</time></trkpt><trkpt lat="44.36179397870812" lon="8.191457697140674"><ele>446.8</ele><time>2026-04-19T16:23:22Z</time></trkpt><trkpt lat="44.36181596362791" lon="8.191320284360838"><ele>448.6</ele><time>2026-04-19T16:23:23Z</time></trkpt><trkpt lat="44.36181786047033" lon="8.191204086774452"><ele>450.4</ele><time>2026-04-19T16:23:24Z</time></trkpt><trkpt lat="44.36179353856663" lon="8.19109428884449"><ele>452.2</ele><time>2026-04-19T16:23:25Z</time></trkpt><trkpt lat="44.361742393894275" lon="8.190983790364628"><ele>454.0</ele><time>2026-04-19T16:23:26Z</time></trkpt><trkpt lat="44.36166373046103" lon="8.190875844921441"><ele>454.00000000000006</ele><time>2026-04-19T16:23:27Z</time></trkpt><trkpt lat="44.36158095311461" lon="8.190788700372247"><ele>454.0</ele><time>2026-04-19T16:23:28Z</time></trkpt><trkpt lat="44.36151834079375" lon="8.190718581762594"><ele>454.0</ele><time>2026-04-19T16:23:29Z</time></trkpt><trkpt lat="44.36146006935779" lon="8.19065243415627"><ele>454.0</ele><time>2026-04-19T16:23:30Z</time></trkpt><trkpt lat="44.36139019149672" lon="8.190594902946588"><ele>454.00000000000006</ele><time>2026-04-19T16:23:31Z</time></trkpt><trkpt lat="44.361309130921136" lon="8.190584080785019"><ele>454.0</ele><time>2026-04-19T16:23:32Z</time></trkpt><trkpt lat="44.36122633254757" lon="8.190635570017248"><ele>453.4</ele><time>2026-04-19T16:23:33Z</time></trkpt><trkpt lat="44.36114964075573" lon="8.190724521124547"><ele>452.79999999999995</ele><time>2026-04-19T16:23:34Z</time></trkpt><trkpt lat="44.36106845916689" lon="8.190796142690708"><ele>452.20000000000005</ele><time>2026-04-19T16:23:35Z</time></trkpt><trkpt lat="44.3609734696326" lon="8.190801585652771"><ele>451.6</ele><time>2026-04-19T16:23:36Z</time></trkpt><trkpt lat="44.36088362698628" lon="8.19073084749853"><ele>451.0</ele><time>2026-04-19T16:23:37Z</time></trkpt><trkpt lat="44.36080999791655" lon="8.190638111702595"><ele>453.25</ele><time>2026-04-19T16:23:38Z</time></trkpt><trkpt lat="44.360739397000124" lon="8.190534923892779"><ele>455.5</ele><time>2026-04-19T16:23:39Z</time></trkpt><trkpt lat="44.36070897423064" lon="8.190390660792358"><ele>457.75</ele><time>2026-04-19T16:23:40Z</time></trkpt><trkpt lat="44.360738535071604" lon="8.190209485448502"><ele>460.0</ele><time>2026-04-19T16:23:41Z</time></trkpt><trkpt lat="44.36075355722848" lon="8.190006940469969"><ele>462.6666666666667</ele><time>2026-04-19T16:23:42Z</time></trkpt><trkpt lat="44.36073511947725" lon="8.189767133218332"><ele>465.33333333333337</ele><time>2026-04-19T16:23:43Z</time></trkpt><trkpt lat="44.36066731215366" lon="8.189508025391422"><ele>468.0</ele><time>2026-04-19T16:23:44Z</time></trkpt><trkpt lat="44.36062088184766" lon="8.18921957832636"><ele>470.0</ele><time>2026-04-19T16:23:45Z</time></trkpt><trkpt lat="44.360599902637375" lon="8.188945505707272"><ele>472.0</ele><time>2026-04-19T16:23:46Z</time></trkpt><trkpt lat="44.36058333710568" lon="8.188706092468381"><ele>474.0</ele><time>2026-04-19T16:23:47Z</time></trkpt><trkpt lat="44.3605596202515" lon="8.188494605848446"><ele>474.0</ele><time>2026-04-19T16:23:48Z</time></trkpt><trkpt lat="44.36054967454472" lon="8.188298199675245"><ele>474.0</ele><time>2026-04-19T16:23:49Z</time></trkpt><trkpt lat="44.36058999235995" lon="8.188124164506073"><ele>474.0</ele><time>2026-04-19T16:23:49.999Z</time></trkpt><trkpt lat="44.36068524037036" lon="8.187993868776918"><ele>474.0</ele><time>2026-04-19T16:23:50.999Z</time></trkpt><trkpt lat="44.36079548994204" lon="8.187859508898596"><ele>474.33333333333337</ele><time>2026-04-19T16:23:51.999Z</time></trkpt><trkpt lat="44.360898264030695" lon="8.187704920953387"><ele>474.6666666666667</ele><time>2026-04-19T16:23:52.999Z</time></trkpt><trkpt lat="44.36098581762539" lon="8.187514475510762"><ele>475.0</ele><time>2026-04-19T16:23:53.999Z</time></trkpt><trkpt lat="44.36103566867304" lon="8.187271942562832"><ele>475.0</ele><time>2026-04-19T16:23:54.999Z</time></trkpt><trkpt lat="44.3610567841029" lon="8.186993434212875"><ele>475.0</ele><time>2026-04-19T16:23:55.999Z</time></trkpt><trkpt lat="44.361065200467316" lon="8.186728465789841"><ele>475.0</ele><time>2026-04-19T16:23:56.999Z</time></trkpt><trkpt lat="44.36105544607765" lon="8.186493483240554"><ele>478.6666666666667</ele><time>2026-04-19T16:23:57.999Z</time></trkpt><trkpt lat="44.361014441151326" lon="8.186285018268554"><ele>482.33333333333337</ele><time>2026-04-19T16:23:58.999Z</time></trkpt><trkpt lat="44.36093199399354" lon="8.186087330218047"><ele>486.0</ele><time>2026-04-19T16:23:59.999Z</time></trkpt><trkpt lat="44.360823913209394" lon="8.185899130339653"><ele>486.0</ele><time>2026-04-19T16:24:00.999Z</time></trkpt><trkpt lat="44.36069118599618" lon="8.185724246273345"><ele>486.0</ele><time>2026-04-19T16:24:01.999Z</time></trkpt><trkpt lat="44.36056363346634" lon="8.185527946054949"><ele>486.0</ele><time>2026-04-19T16:24:02.999Z</time></trkpt><trkpt lat="44.36046917983071" lon="8.185282062081944"><ele>484.66666666666663</ele><time>2026-04-19T16:24:03.999Z</time></trkpt><trkpt lat="44.36039286281207" lon="8.185040060918528"><ele>483.3333333333333</ele><time>2026-04-19T16:24:04.999Z</time></trkpt><trkpt lat="44.36033085822939" lon="8.184830372372312"><ele>482.0</ele><time>2026-04-19T16:24:05.999Z</time></trkpt><trkpt lat="44.360291238686635" lon="8.184637188318465"><ele>482.0</ele><time>2026-04-19T16:24:06.999Z</time></trkpt><trkpt lat="44.360301141520125" lon="8.18445672857719"><ele>482.0</ele><time>2026-04-19T16:24:07.999Z</time></trkpt><trkpt lat="44.360339996453796" lon="8.184257747769681"><ele>482.0</ele><time>2026-04-19T16:24:08.999Z</time></trkpt><trkpt lat="44.36040498435988" lon="8.184048371749789"><ele>482.0</ele><time>2026-04-19T16:24:09.999Z</time></trkpt><trkpt lat="44.36047928005474" lon="8.183815600861042"><ele>490.66666666666663</ele><time>2026-04-19T16:24:10.999Z</time></trkpt><trkpt lat="44.36054920116353" lon="8.18355474764876"><ele>499.33333333333337</ele><time>2026-04-19T16:24:11.999Z</time></trkpt><trkpt lat="44.360623419479296" lon="8.183278935404605"><ele>508.0</ele><time>2026-04-19T16:24:12.999Z</time></trkpt><trkpt lat="44.360685360639366" lon="8.18298416367325"><ele>509.5</ele><time>2026-04-19T16:24:13.999Z</time></trkpt><trkpt lat="44.360726209463266" lon="8.182670374182194"><ele>511.0</ele><time>2026-04-19T16:24:14.999Z</time></trkpt><trkpt lat="44.36075801309246" lon="8.182358550649033"><ele>512.0</ele><time>2026-04-19T16:24:15.999Z</time></trkpt><trkpt lat="44.36077658124367" lon="8.182074283162509"><ele>513.0</ele><time>2026-04-19T16:24:16.999Z</time></trkpt><trkpt lat="44.36079126656432" lon="8.181811268031101"><ele>514.0</ele><time>2026-04-19T16:24:17.999Z</time></trkpt><trkpt lat="44.36079972350888" lon="8.181563656268398"><ele>517.3333333333334</ele><time>2026-04-19T16:24:18.999Z</time></trkpt><trkpt lat="44.3607936678214" lon="8.181333619022228"><ele>520.6666666666666</ele><time>2026-04-19T16:24:19.999Z</time></trkpt><trkpt lat="44.360769322429036" lon="8.181119981475097"><ele>524.0</ele><time>2026-04-19T16:24:20.999Z</time></trkpt><trkpt lat="44.36072762694994" lon="8.180921447003312"><ele>524.0</ele><time>2026-04-19T16:24:21.999Z</time></trkpt><trkpt lat="44.36067208619818" lon="8.180745316576596"><ele>524.0</ele><time>2026-04-19T16:24:22.999Z</time></trkpt><trkpt lat="44.360618828859685" lon="8.180582539047121"><ele>524.0</ele><time>2026-04-19T16:24:23.999Z</time></trkpt><trkpt lat="44.360569679041056" lon="8.180399978143775"><ele>524.0</ele><time>2026-04-19T16:24:24.999Z</time></trkpt><trkpt lat="44.36053276157473" lon="8.180203704017856"><ele>515.0</ele><time>2026-04-19T16:24:25.999Z</time></trkpt><trkpt lat="44.360515267687205" lon="8.179999491846102"><ele>506.0</ele><time>2026-04-19T16:24:26.999Z</time></trkpt><trkpt lat="44.36050916823284" lon="8.179768462523395"><ele>497.0</ele><time>2026-04-19T16:24:27.999Z</time></trkpt><trkpt lat="44.36051467691606" lon="8.179525299819858"><ele>497.0</ele><time>2026-04-19T16:24:28.999Z</time></trkpt><trkpt lat="44.36052811957886" lon="8.179271555020767"><ele>497.0</ele><time>2026-04-19T16:24:29.999Z</time></trkpt><trkpt lat="44.360538959926515" lon="8.179007005385554"><ele>497.0</ele><time>2026-04-19T16:24:30.999Z</time></trkpt><trkpt lat="44.360552876366995" lon="8.178740747727337"><ele>499.3333333333333</ele><time>2026-04-19T16:24:31.999Z</time></trkpt><trkpt lat="44.36057436290608" lon="8.178499268633752"><ele>501.66666666666663</ele><time>2026-04-19T16:24:32.999Z</time></trkpt><trkpt lat="44.36060099440484" lon="8.178273176454487"><ele>504.0</ele><time>2026-04-19T16:24:33.999Z</time></trkpt><trkpt lat="44.360521555797426" lon="8.178011122336084"><ele>504.0</ele><time>2026-04-19T16:24:34.999Z</time></trkpt><trkpt lat="44.36046983204199" lon="8.177793090098932"><ele>504.0</ele><time>2026-04-19T16:24:35.999Z</time></trkpt><trkpt lat="44.360398951950025" lon="8.177591503385214"><ele>504.0</ele><time>2026-04-19T16:24:36.999Z</time></trkpt><trkpt lat="44.36037944737663" lon="8.17739459105532"><ele>505.0</ele><time>2026-04-19T16:24:37.999Z</time></trkpt><trkpt lat="44.3604097903467" lon="8.177184809015525"><ele>506.0</ele><time>2026-04-19T16:24:38.999Z</time></trkpt><trkpt lat="44.36045127489193" lon="8.176943157103288"><ele>507.0</ele><time>2026-04-19T16:24:39.999Z</time></trkpt><trkpt lat="44.360506989241" lon="8.17669254685565"><ele>518.3333333333334</ele><time>2026-04-19T16:24:40.999Z</time></trkpt><trkpt lat="44.36059022346998" lon="8.176436611967047"><ele>529.6666666666667</ele><time>2026-04-19T16:24:41.999Z</time></trkpt><trkpt lat="44.36062745837039" lon="8.176178918125624"><ele>541.0</ele><time>2026-04-19T16:24:42.999Z</time></trkpt><trkpt lat="44.36067288261267" lon="8.175928361601294"><ele>539.3333333333334</ele><time>2026-04-19T16:24:43.999Z</time></trkpt><trkpt lat="44.36070547713796" lon="8.175671927301334"><ele>537.6666666666666</ele><time>2026-04-19T16:24:44.999Z</time></trkpt><trkpt lat="44.360755005307304" lon="8.175452973328213"><ele>536.0</ele><time>2026-04-19T16:24:45.999Z</time></trkpt><trkpt lat="44.36083637517422" lon="8.175262233674191"><ele>536.0</ele><time>2026-04-19T16:24:46.999Z</time></trkpt><trkpt lat="44.360932489716305" lon="8.175060168620286"><ele>536.0</ele><time>2026-04-19T16:24:47.999Z</time></trkpt><trkpt lat="44.361030113432406" lon="8.174848430045882"><ele>536.0</ele><time>2026-04-19T16:24:48.999Z</time></trkpt><trkpt lat="44.361129161727995" lon="8.174631988332358"><ele>532.3333333333333</ele><time>2026-04-19T16:24:49.999Z</time></trkpt><trkpt lat="44.3612219186495" lon="8.17444555609407"><ele>528.6666666666666</ele><time>2026-04-19T16:24:50.999Z</time></trkpt><trkpt lat="44.36131120466188" lon="8.174272784596406"><ele>525.0</ele><time>2026-04-19T16:24:51.999Z</time></trkpt><trkpt lat="44.36141211531855" lon="8.174109819057902"><ele>529.3333333333334</ele><time>2026-04-19T16:24:52.999Z</time></trkpt><trkpt lat="44.361528410617886" lon="8.173954371023335"><ele>533.6666666666667</ele><time>2026-04-19T16:24:53.999Z</time></trkpt><trkpt lat="44.36165236236736" lon="8.173834330477305"><ele>538.0</ele><time>2026-04-19T16:24:54.999Z</time></trkpt><trkpt lat="44.361777495045445" lon="8.17371725539518"><ele>538.0</ele><time>2026-04-19T16:24:55.999Z</time></trkpt><trkpt lat="44.361916886814505" lon="8.173588209441931"><ele>538.0</ele><time>2026-04-19T16:24:56.999Z</time></trkpt><trkpt lat="44.36206856104513" lon="8.173480578441929"><ele>538.0</ele><time>2026-04-19T16:24:57.999Z</time></trkpt><trkpt lat="44.36223532532768" lon="8.17337195737958"><ele>539.6666666666667</ele><time>2026-04-19T16:24:58.999Z</time></trkpt><trkpt lat="44.36240902388876" lon="8.173258525613562"><ele>541.3333333333334</ele><time>2026-04-19T16:24:59.999Z</time></trkpt><trkpt lat="44.36259253867504" lon="8.173134732411402"><ele>543.0</ele><time>2026-04-19T16:25:00.998Z</time></trkpt><trkpt lat="44.36277886997688" lon="8.172990512923702"><ele>548.0</ele><time>2026-04-19T16:25:01.998Z</time></trkpt><trkpt lat="44.36296659407169" lon="8.172815143577152"><ele>553.0</ele><time>2026-04-19T16:25:02.998Z</time></trkpt><trkpt lat="44.36315171048388" lon="8.172621592312177"><ele>559.0</ele><time>2026-04-19T16:25:03.998Z</time></trkpt><trkpt lat="44.36333175336506" lon="8.172396322856718"><ele>565.0</ele><time>2026-04-19T16:25:04.998Z</time></trkpt><trkpt lat="44.363502900237606" lon="8.17214865750423"><ele>567.0</ele><time>2026-04-19T16:25:05.998Z</time></trkpt><trkpt lat="44.363665871432325" lon="8.171890278777832"><ele>569.0</ele><time>2026-04-19T16:25:06.998Z</time></trkpt><trkpt lat="44.36381474123201" lon="8.171607360377921"><ele>573.0</ele><time>2026-04-19T16:25:07.998Z</time></trkpt><trkpt lat="44.36395283223646" lon="8.171304634384628"><ele>577.0</ele><time>2026-04-19T16:25:09Z</time></trkpt><trkpt lat="44.36407086512709" lon="8.170979195857049"><ele>583.0</ele><time>2026-04-19T16:25:10Z</time></trkpt><trkpt lat="44.36416757294213" lon="8.170635240242746"><ele>589.0</ele><time>2026-04-19T16:25:11Z</time></trkpt><trkpt lat="44.364242084001766" lon="8.170281983965896"><ele>589.0</ele><time>2026-04-19T16:25:12Z</time></trkpt><trkpt lat="44.36429637147423" lon="8.16992059318013"><ele>589.0</ele><time>2026-04-19T16:25:13Z</time></trkpt><trkpt lat="44.36433562377088" lon="8.169553659151576"><ele>592.0</ele><time>2026-04-19T16:25:14Z</time></trkpt><trkpt lat="44.36435136944642" lon="8.169173351704712"><ele>595.0</ele><time>2026-04-19T16:25:15Z</time></trkpt><trkpt lat="44.36434803366707" lon="8.168786551610006"><ele>595.0</ele><time>2026-04-19T16:25:16Z</time></trkpt><trkpt lat="44.364326276940325" lon="8.168395769888678"><ele>595.0</ele><time>2026-04-19T16:25:17Z</time></trkpt><trkpt lat="44.36429416015985" lon="8.168000622987964"><ele>598.5</ele><time>2026-04-19T16:25:18Z</time></trkpt><trkpt lat="44.36425965909828" lon="8.167603967991896"><ele>602.0</ele><time>2026-04-19T16:25:19Z</time></trkpt><trkpt lat="44.36423034478898" lon="8.167229267748572"><ele>605.5</ele><time>2026-04-19T16:25:20Z</time></trkpt><trkpt lat="44.364201271750154" lon="8.166882349923899"><ele>609.0</ele><time>2026-04-19T16:25:21Z</time></trkpt><trkpt lat="44.36417670697844" lon="8.166559546959894"><ele>610.3333333333334</ele><time>2026-04-19T16:25:22Z</time></trkpt><trkpt lat="44.36414937266102" lon="8.166244279651027"><ele>611.6666666666667</ele><time>2026-04-19T16:25:23Z</time></trkpt><trkpt lat="44.3641282485336" lon="8.165956480504825"><ele>613.0</ele><time>2026-04-19T16:25:24Z</time></trkpt><trkpt lat="44.364106544938934" lon="8.165681733770224"><ele>615.3333333333334</ele><time>2026-04-19T16:25:25Z</time></trkpt><trkpt lat="44.36408760293414" lon="8.165413920342887"><ele>617.6666666666666</ele><time>2026-04-19T16:25:26Z</time></trkpt><trkpt lat="44.36407456718715" lon="8.165138232188923"><ele>620.0</ele><time>2026-04-19T16:25:27Z</time></trkpt><trkpt lat="44.364052511678544" lon="8.164867895272137"><ele>620.6666666666666</ele><time>2026-04-19T16:25:28Z</time></trkpt><trkpt lat="44.36403496263911" lon="8.164593629250913"><ele>621.3333333333334</ele><time>2026-04-19T16:25:29Z</time></trkpt><trkpt lat="44.36401581994038" lon="8.164314253039072"><ele>622.0</ele><time>2026-04-19T16:25:30Z</time></trkpt><trkpt lat="44.36399532671216" lon="8.16402961386516"><ele>624.6666666666667</ele><time>2026-04-19T16:25:31Z</time></trkpt><trkpt lat="44.36397714821109" lon="8.163761748889316"><ele>627.3333333333334</ele><time>2026-04-19T16:25:32Z</time></trkpt><trkpt lat="44.36395731328847" lon="8.163510034743508"><ele>630.0</ele><time>2026-04-19T16:25:33Z</time></trkpt><trkpt lat="44.36393884584954" lon="8.163273073282895"><ele>635.3333333333334</ele><time>2026-04-19T16:25:34Z</time></trkpt><trkpt lat="44.36392506540467" lon="8.163049325649022"><ele>640.6666666666667</ele><time>2026-04-19T16:25:35Z</time></trkpt><trkpt lat="44.363914455693305" lon="8.162843864055954"><ele>646.0</ele><time>2026-04-19T16:25:36Z</time></trkpt><trkpt lat="44.363918242542006" lon="8.162620590009915"><ele>646.0</ele><time>2026-04-19T16:25:37Z</time></trkpt><trkpt lat="44.3639127611475" lon="8.16239623296832"><ele>646.0</ele><time>2026-04-19T16:25:38Z</time></trkpt><trkpt lat="44.363909788949826" lon="8.16217129479274"><ele>646.0</ele><time>2026-04-19T16:25:39Z</time></trkpt><trkpt lat="44.3639101453517" lon="8.161947613642086"><ele>649.6666666666667</ele><time>2026-04-19T16:25:40Z</time></trkpt><trkpt lat="44.36391586995339" lon="8.161724522868731"><ele>653.3333333333334</ele><time>2026-04-19T16:25:41Z</time></trkpt><trkpt lat="44.36392456841514" lon="8.161483392937736"><ele>657.0</ele><time>2026-04-19T16:25:42.07Z</time></trkpt><trkpt lat="44.36393620550835" lon="8.16126393113186"><ele>684.0</ele><time>2026-04-19T16:25:43.059Z</time></trkpt><trkpt lat="44.3641495731991" lon="8.159400051068815"><ele>700.0</ele><time>2026-04-19T16:25:46.082Z</time></trkpt><trkpt lat="44.364277919405566" lon="8.158796207459616"><ele>700.0</ele><time>2026-04-19T16:25:47.087Z</time></trkpt><trkpt lat="44.364430752296805" lon="8.158206374596652"><ele>700.0</ele><time>2026-04-19T16:25:48.087Z</time></trkpt><trkpt lat="44.36460757634294" lon="8.157632402199464"><ele>701.0</ele><time>2026-04-19T16:25:49.083Z</time></trkpt><trkpt lat="44.36480844324457" lon="8.15707167876993"><ele>702.0</ele><time>2026-04-19T16:25:50.082Z</time></trkpt><trkpt lat="44.365034303525285" lon="8.156528250982067"><ele>702.0</ele><time>2026-04-19T16:25:51.083Z</time></trkpt><trkpt lat="44.36528205318808" lon="8.156005617113065"><ele>702.0</ele><time>2026-04-19T16:25:52.082Z</time></trkpt><trkpt lat="44.365551664062245" lon="8.155503700568117"><ele>713.0</ele><time>2026-04-19T16:25:53.082Z</time></trkpt><trkpt lat="44.36584269678803" lon="8.155021862170326"><ele>711.0</ele><time>2026-04-19T16:25:54.086Z</time></trkpt><trkpt lat="44.36615378012998" lon="8.154571317361667"><ele>709.0</ele><time>2026-04-19T16:25:55.084Z</time></trkpt><trkpt lat="44.36648112793759" lon="8.154141832693952"><ele>691.0</ele><time>2026-04-19T16:25:56.083Z</time></trkpt><trkpt lat="44.36682885029194" lon="8.15374187604202"><ele>691.0</ele><time>2026-04-19T16:25:57.085Z</time></trkpt><trkpt lat="44.367190279692245" lon="8.153368399370024"><ele>691.0</ele><time>2026-04-19T16:25:58.085Z</time></trkpt><trkpt lat="44.36756883395051" lon="8.153027667718659"><ele>672.5</ele><time>2026-04-19T16:25:59.086Z</time></trkpt><trkpt lat="44.36795954935454" lon="8.152720362556236"><ele>654.0</ele><time>2026-04-19T16:26:00.084Z</time></trkpt><trkpt lat="44.3681815" lon="8.1525623"><ele>632.0</ele><time>2026-04-19T16:26:01.085Z</time></trkpt><trkpt lat="44.36886597254145" lon="8.152144779272454"><ele>632.0</ele><time>2026-04-19T16:26:20.999Z</time></trkpt><trkpt lat="44.3691315127464" lon="8.151967739220376"><ele>632.0</ele><time>2026-04-19T16:26:21.999Z</time></trkpt><trkpt lat="44.369411890912815" lon="8.151742002058574"><ele>632.0</ele><time>2026-04-19T16:26:22.999Z</time></trkpt><trkpt lat="44.3696738677072" lon="8.151589405675985"><ele>632.0</ele><time>2026-04-19T16:26:23.999Z</time></trkpt><trkpt lat="44.3699210634525" lon="8.151404427165701"><ele>637.0</ele><time>2026-04-19T16:26:24.999Z</time></trkpt><trkpt lat="44.37019080796561" lon="8.151247590964322"><ele>642.0</ele><time>2026-04-19T16:26:25.999Z</time></trkpt><trkpt lat="44.370455245618736" lon="8.151073460110966"><ele>649.5</ele><time>2026-04-19T16:26:26.999Z</time></trkpt><trkpt lat="44.37070827977837" lon="8.150881757056426"><ele>657.0</ele><time>2026-04-19T16:26:27.999Z</time></trkpt><trkpt lat="44.37093971045539" lon="8.150752542904968"><ele>662.5</ele><time>2026-04-19T16:26:28.999Z</time></trkpt><trkpt lat="44.371167525893284" lon="8.150600674065041"><ele>668.0</ele><time>2026-04-19T16:26:29.999Z</time></trkpt><trkpt lat="44.371401999486885" lon="8.15042105358216"><ele>668.0</ele><time>2026-04-19T16:26:30.999Z</time></trkpt><trkpt lat="44.37165396846348" lon="8.150255731026627"><ele>668.0</ele><time>2026-04-19T16:26:31.999Z</time></trkpt><trkpt lat="44.37190827376026" lon="8.150114951382996"><ele>668.0</ele><time>2026-04-19T16:26:32.999Z</time></trkpt><trkpt lat="44.3721316957886" lon="8.14994468697482"><ele>668.0</ele><time>2026-04-19T16:26:33.999Z</time></trkpt><trkpt lat="44.37235339571787" lon="8.149800480730034"><ele>669.5</ele><time>2026-04-19T16:26:34.999Z</time></trkpt><trkpt lat="44.37258518895269" lon="8.149645544424514"><ele>671.0</ele><time>2026-04-19T16:26:35.999Z</time></trkpt><trkpt lat="44.372799170689284" lon="8.149498592107038"><ele>671.0</ele><time>2026-04-19T16:26:36.999Z</time></trkpt><trkpt lat="44.373014821531775" lon="8.14936259861673"><ele>671.0</ele><time>2026-04-19T16:26:37.999Z</time></trkpt><trkpt lat="44.373215064508166" lon="8.149231787082826"><ele>670.5</ele><time>2026-04-19T16:26:38.999Z</time></trkpt><trkpt lat="44.37342441250677" lon="8.149093221535834"><ele>670.0</ele><time>2026-04-19T16:26:39.999Z</time></trkpt><trkpt lat="44.3736358168117" lon="8.14895283153392"><ele>672.5</ele><time>2026-04-19T16:26:40.999Z</time></trkpt><trkpt lat="44.37384447320119" lon="8.148807760295089"><ele>675.0</ele><time>2026-04-19T16:26:41.999Z</time></trkpt><trkpt lat="44.37405404505481" lon="8.148655809312514"><ele>675.0</ele><time>2026-04-19T16:26:42.999Z</time></trkpt><trkpt lat="44.374256696254875" lon="8.14848307009604"><ele>675.0</ele><time>2026-04-19T16:26:43.999Z</time></trkpt><trkpt lat="44.37444560797644" lon="8.148287835255138"><ele>676.0</ele><time>2026-04-19T16:26:44.999Z</time></trkpt><trkpt lat="44.3746329196298" lon="8.148089143754861"><ele>677.0</ele><time>2026-04-19T16:26:45.999Z</time></trkpt><trkpt lat="44.37481654945207" lon="8.147833500325218"><ele>677.0</ele><time>2026-04-19T16:26:46.999Z</time></trkpt><trkpt lat="44.374999496528886" lon="8.147566143533767"><ele>677.0</ele><time>2026-04-19T16:26:47.999Z</time></trkpt><trkpt lat="44.375174197745615" lon="8.14729632417404"><ele>677.0</ele><time>2026-04-19T16:26:48.999Z</time></trkpt><trkpt lat="44.3753276388876" lon="8.147022181240375"><ele>677.0</ele><time>2026-04-19T16:26:49.999Z</time></trkpt><trkpt lat="44.37546482062221" lon="8.14672646596244"><ele>687.0</ele><time>2026-04-19T16:26:50.999Z</time></trkpt><trkpt lat="44.37557288574958" lon="8.146406670577951"><ele>697.0</ele><time>2026-04-19T16:26:51.999Z</time></trkpt><trkpt lat="44.37567438631191" lon="8.146077657363058"><ele>697.0</ele><time>2026-04-19T16:26:52.999Z</time></trkpt><trkpt lat="44.37576137011217" lon="8.145736169439985"><ele>697.0</ele><time>2026-04-19T16:26:53.999Z</time></trkpt><trkpt lat="44.37582547284665" lon="8.14538280269231"><ele>697.5</ele><time>2026-04-19T16:26:54.999Z</time></trkpt><trkpt lat="44.37587271530819" lon="8.145014479379403"><ele>698.0</ele><time>2026-04-19T16:26:55.999Z</time></trkpt><trkpt lat="44.37589878196831" lon="8.14463485748872"><ele>700.0</ele><time>2026-04-19T16:26:56.999Z</time></trkpt><trkpt lat="44.37591099493713" lon="8.144254165604881"><ele>702.0</ele><time>2026-04-19T16:26:57.999Z</time></trkpt><trkpt lat="44.37590118880347" lon="8.143882288880508"><ele>702.0</ele><time>2026-04-19T16:26:58.999Z</time></trkpt><trkpt lat="44.37587690113316" lon="8.143543413834319"><ele>702.0</ele><time>2026-04-19T16:26:59.999Z</time></trkpt><trkpt lat="44.37583338192932" lon="8.143221963138657"><ele>707.5</ele><time>2026-04-19T16:27:00.999Z</time></trkpt><trkpt lat="44.3757711690038" lon="8.142887768779165"><ele>713.0</ele><time>2026-04-19T16:27:01.999Z</time></trkpt><trkpt lat="44.375688491406" lon="8.142552778346774"><ele>712.5</ele><time>2026-04-19T16:27:02.999Z</time></trkpt><trkpt lat="44.37558793997953" lon="8.142220732881935"><ele>712.0</ele><time>2026-04-19T16:27:03.999Z</time></trkpt><trkpt lat="44.37547069349463" lon="8.141905607357764"><ele>712.0</ele><time>2026-04-19T16:27:04.999Z</time></trkpt><trkpt lat="44.375350609686905" lon="8.141607287333128"><ele>712.0</ele><time>2026-04-19T16:27:05.999Z</time></trkpt><trkpt lat="44.37524062886091" lon="8.14133819730335"><ele>716.3333333333334</ele><time>2026-04-19T16:27:06.999Z</time></trkpt><trkpt lat="44.37514472294945" lon="8.141092562956173"><ele>720.6666666666666</ele><time>2026-04-19T16:27:07.998Z</time></trkpt><trkpt lat="44.37506680769831" lon="8.140875415588617"><ele>725.0</ele><time>2026-04-19T16:27:08.998Z</time></trkpt><trkpt lat="44.37500410407578" lon="8.14067890367672"><ele>726.2</ele><time>2026-04-19T16:27:09.998Z</time></trkpt><trkpt lat="44.37495562819098" lon="8.140500829150763"><ele>727.4</ele><time>2026-04-19T16:27:10.998Z</time></trkpt><trkpt lat="44.37492235805718" lon="8.1403498815465"><ele>728.5999999999999</ele><time>2026-04-19T16:27:11.998Z</time></trkpt><trkpt lat="44.37489929919722" lon="8.140233482799468"><ele>729.8</ele><time>2026-04-19T16:27:12.998Z</time></trkpt><trkpt lat="44.374895348001054" lon="8.140114222104259"><ele>731.0</ele><time>2026-04-19T16:27:13.998Z</time></trkpt><trkpt lat="44.37491282252883" lon="8.140016996711692"><ele>731.0</ele><time>2026-04-19T16:27:15Z</time></trkpt><trkpt lat="44.374939519267414" lon="8.139933310434667"><ele>731.0</ele><time>2026-04-19T16:27:16Z</time></trkpt><trkpt lat="44.3750047626111" lon="8.139818270957695"><ele>731.0</ele><time>2026-04-19T16:27:18Z</time></trkpt><trkpt lat="44.37505929315677" lon="8.139724879561905"><ele>731.0</ele><time>2026-04-19T16:27:20Z</time></trkpt><trkpt lat="44.3751074701421" lon="8.139592998478141"><ele>731.0</ele><time>2026-04-19T16:27:22Z</time></trkpt><trkpt lat="44.37508677545704" lon="8.139484290696409"><ele>731.0</ele><time>2026-04-19T16:27:24Z</time></trkpt><trkpt lat="44.37500995112937" lon="8.139404066754624"><ele>730.3333333333333</ele><time>2026-04-19T16:27:26Z</time></trkpt><trkpt lat="44.37492563934307" lon="8.139371617593476"><ele>729.6666666666666</ele><time>2026-04-19T16:27:28Z</time></trkpt><trkpt lat="44.37491488507368" lon="8.139502748150411"><ele>729.0</ele><time>2026-04-19T16:27:33Z</time></trkpt><trkpt lat="44.3748975580726" lon="8.139615123013902"><ele>728.3333333333334</ele><time>2026-04-19T16:28:27.999Z</time></trkpt><trkpt lat="44.37489271883283" lon="8.139743303876244"><ele>727.6666666666667</ele><time>2026-04-19T16:28:29.999Z</time></trkpt><trkpt lat="44.37493317051969" lon="8.139818496515089"><ele>727.0</ele><time>2026-04-19T16:28:31.999Z</time></trkpt><trkpt lat="44.37502230999823" lon="8.139789627237965"><ele>727.0</ele><time>2026-04-19T16:28:33.999Z</time></trkpt><trkpt lat="44.37507856002278" lon="8.139650146966458"><ele>727.0</ele><time>2026-04-19T16:28:35.999Z</time></trkpt><trkpt lat="44.37508132411865" lon="8.139530137069777"><ele>727.0</ele><time>2026-04-19T16:28:37.999Z</time></trkpt><trkpt lat="44.37499769494211" lon="8.139424494678186"><ele>727.0</ele><time>2026-04-19T16:28:39.999Z</time></trkpt><trkpt lat="44.374917719609215" lon="8.139394295345463"><ele>727.0</ele><time>2026-04-19T16:28:41.999Z</time></trkpt><trkpt lat="44.37492013153359" lon="8.139526823339446"><ele>727.0</ele><time>2026-04-19T16:28:43.999Z</time></trkpt><trkpt lat="44.37487709935027" lon="8.139611830698746"><ele>727.0</ele><time>2026-04-19T16:33:19.999Z</time></trkpt><trkpt lat="44.37487265671738" lon="8.139745646132805"><ele>727.0</ele><time>2026-04-19T16:33:21.999Z</time></trkpt><trkpt lat="44.37495896851048" lon="8.139842527888742"><ele>727.0</ele><time>2026-04-19T16:33:23.999Z</time></trkpt><trkpt lat="44.37504169942114" lon="8.13987301349306"><ele>727.0</ele><time>2026-04-19T16:33:24.999Z</time></trkpt><trkpt lat="44.375138254347675" lon="8.13993043367894"><ele>728.3333333333334</ele><time>2026-04-19T16:33:25.999Z</time></trkpt><trkpt lat="44.37525529118455" lon="8.140019325458326"><ele>729.6666666666666</ele><time>2026-04-19T16:33:26.999Z</time></trkpt><trkpt lat="44.37538575355569" lon="8.140133532130678"><ele>731.0</ele><time>2026-04-19T16:33:27.999Z</time></trkpt><trkpt lat="44.375525214140175" lon="8.140264348530005"><ele>731.6666666666666</ele><time>2026-04-19T16:33:28.999Z</time></trkpt><trkpt lat="44.37566529790624" lon="8.140400161723344"><ele>732.3333333333334</ele><time>2026-04-19T16:33:29.999Z</time></trkpt><trkpt lat="44.37580451767115" lon="8.140538606571045"><ele>733.0</ele><time>2026-04-19T16:33:30.999Z</time></trkpt><trkpt lat="44.37593023811196" lon="8.140665390762855"><ele>733.25</ele><time>2026-04-19T16:33:32Z</time></trkpt><trkpt lat="44.37604810091766" lon="8.14078043773031"><ele>733.5</ele><time>2026-04-19T16:33:33Z</time></trkpt><trkpt lat="44.37617310805588" lon="8.140889605807383"><ele>733.75</ele><time>2026-04-19T16:33:34Z</time></trkpt><trkpt lat="44.376309174179646" lon="8.140990272589127"><ele>734.0</ele><time>2026-04-19T16:33:35Z</time></trkpt><trkpt lat="44.37645374187285" lon="8.141084329055698"><ele>734.0</ele><time>2026-04-19T16:33:36Z</time></trkpt><trkpt lat="44.3766058644183" lon="8.141175704532671"><ele>734.0</ele><time>2026-04-19T16:33:37Z</time></trkpt><trkpt lat="44.37676330453678" lon="8.141256944286514"><ele>734.0</ele><time>2026-04-19T16:33:38Z</time></trkpt><trkpt lat="44.37692006172393" lon="8.141347868337458"><ele>734.0</ele><time>2026-04-19T16:33:39Z</time></trkpt><trkpt lat="44.377058850437884" lon="8.141419134734676"><ele>734.0</ele><time>2026-04-19T16:33:40Z</time></trkpt><trkpt lat="44.37717781582775" lon="8.141482395329847"><ele>734.0</ele><time>2026-04-19T16:33:41Z</time></trkpt><trkpt lat="44.3772921967375" lon="8.14152885918187"><ele>734.0</ele><time>2026-04-19T16:33:42Z</time></trkpt><trkpt lat="44.37740970908283" lon="8.141547902561852"><ele>733.75</ele><time>2026-04-19T16:33:43Z</time></trkpt><trkpt lat="44.37753695308705" lon="8.14154980424983"><ele>733.5</ele><time>2026-04-19T16:33:44Z</time></trkpt><trkpt lat="44.37766461268761" lon="8.141525022055347"><ele>733.25</ele><time>2026-04-19T16:33:45Z</time></trkpt><trkpt lat="44.377778704025324" lon="8.141506393943947"><ele>733.0</ele><time>2026-04-19T16:33:46Z</time></trkpt><trkpt lat="44.37789061167689" lon="8.141485913306672"><ele>733.0</ele><time>2026-04-19T16:33:47Z</time></trkpt><trkpt lat="44.37799594822823" lon="8.141457160996938"><ele>733.0</ele><time>2026-04-19T16:33:48Z</time></trkpt><trkpt lat="44.378092829423885" lon="8.141444539026446"><ele>733.0</ele><time>2026-04-19T16:33:49Z</time></trkpt><trkpt lat="44.378183170244235" lon="8.141418103743867"><ele>733.0</ele><time>2026-04-19T16:33:50Z</time></trkpt><trkpt lat="44.378270198813176" lon="8.141348631946904"><ele>733.0</ele><time>2026-04-19T16:33:51Z</time></trkpt><trkpt lat="44.37834838430207" lon="8.141243184288848"><ele>732.0</ele><time>2026-04-19T16:33:52Z</time></trkpt><trkpt lat="44.378430754837105" lon="8.141087802049691"><ele>731.0</ele><time>2026-04-19T16:33:53Z</time></trkpt><trkpt lat="44.37852474289119" lon="8.14089704860331"><ele>730.0</ele><time>2026-04-19T16:33:54Z</time></trkpt><trkpt lat="44.378609351856554" lon="8.140673879032123"><ele>730.0</ele><time>2026-04-19T16:33:55Z</time></trkpt><trkpt lat="44.37867808642928" lon="8.140422888401805"><ele>730.0</ele><time>2026-04-19T16:33:56Z</time></trkpt><trkpt lat="44.37870224218465" lon="8.14018775029642"><ele>730.0</ele><time>2026-04-19T16:33:57Z</time></trkpt><trkpt lat="44.37872324037193" lon="8.139968100263939"><ele>728.3333333333334</ele><time>2026-04-19T16:33:58Z</time></trkpt><trkpt lat="44.37874534832571" lon="8.139739976182788"><ele>726.6666666666666</ele><time>2026-04-19T16:33:59Z</time></trkpt><trkpt lat="44.37879050697312" lon="8.139503392979398"><ele>725.0</ele><time>2026-04-19T16:34:00Z</time></trkpt><trkpt lat="44.37887508146446" lon="8.139277777676282"><ele>726.6666666666666</ele><time>2026-04-19T16:34:01Z</time></trkpt><trkpt lat="44.37896651241985" lon="8.139071050005477"><ele>728.3333333333334</ele><time>2026-04-19T16:34:02Z</time></trkpt><trkpt lat="44.37905652433583" lon="8.138894090953853"><ele>730.0</ele><time>2026-04-19T16:34:03Z</time></trkpt><trkpt lat="44.379155035850125" lon="8.138758622929174"><ele>730.0</ele><time>2026-04-19T16:34:04Z</time></trkpt><trkpt lat="44.37927183480047" lon="8.138652887904696"><ele>730.0</ele><time>2026-04-19T16:34:05Z</time></trkpt><trkpt lat="44.3794155578052" lon="8.138583123122908"><ele>730.0</ele><time>2026-04-19T16:34:06Z</time></trkpt><trkpt lat="44.37957132910949" lon="8.138534176781747"><ele>735.6666666666667</ele><time>2026-04-19T16:34:07Z</time></trkpt><trkpt lat="44.37972316344035" lon="8.138468490153064"><ele>741.3333333333334</ele><time>2026-04-19T16:34:08Z</time></trkpt><trkpt lat="44.37985633344421" lon="8.138370043085608"><ele>747.0</ele><time>2026-04-19T16:34:09Z</time></trkpt><trkpt lat="44.379978090718616" lon="8.138239024772737"><ele>742.0</ele><time>2026-04-19T16:34:10Z</time></trkpt><trkpt lat="44.380076495073844" lon="8.138063312735893"><ele>737.0</ele><time>2026-04-19T16:34:11Z</time></trkpt><trkpt lat="44.38015876396996" lon="8.137863171859863"><ele>732.0</ele><time>2026-04-19T16:34:12Z</time></trkpt><trkpt lat="44.38021758396925" lon="8.137653171166505"><ele>732.0</ele><time>2026-04-19T16:34:13Z</time></trkpt><trkpt lat="44.380265408758866" lon="8.137466429742338"><ele>732.0</ele><time>2026-04-19T16:34:14Z</time></trkpt><trkpt lat="44.38032021742678" lon="8.137271894926116"><ele>732.0</ele><time>2026-04-19T16:34:15Z</time></trkpt><trkpt lat="44.3803840039712" lon="8.137082321459232"><ele>732.0</ele><time>2026-04-19T16:34:16Z</time></trkpt><trkpt lat="44.380474187622156" lon="8.136929792712163"><ele>734.25</ele><time>2026-04-19T16:34:17Z</time></trkpt><trkpt lat="44.380526565057245" lon="8.136757867820473"><ele>736.5</ele><time>2026-04-19T16:34:18Z</time></trkpt><trkpt lat="44.38058836823176" lon="8.136604801967987"><ele>738.75</ele><time>2026-04-19T16:34:19Z</time></trkpt><trkpt lat="44.38062555648463" lon="8.136437007116"><ele>741.0</ele><time>2026-04-19T16:34:20Z</time></trkpt><trkpt lat="44.380633130686526" lon="8.136263507574636"><ele>741.0</ele><time>2026-04-19T16:34:21Z</time></trkpt><trkpt lat="44.38063941624442" lon="8.13610105006322"><ele>741.0</ele><time>2026-04-19T16:34:22Z</time></trkpt><trkpt lat="44.38064315958915" lon="8.135944466615221"><ele>741.0</ele><time>2026-04-19T16:34:23Z</time></trkpt><trkpt lat="44.38064889385098" lon="8.135808702846884"><ele>741.0</ele><time>2026-04-19T16:34:24Z</time></trkpt><trkpt lat="44.380660119032704" lon="8.135671773803205"><ele>741.0</ele><time>2026-04-19T16:34:25Z</time></trkpt><trkpt lat="44.38067170919571" lon="8.135501828046227"><ele>739.0</ele><time>2026-04-19T16:34:26Z</time></trkpt><trkpt lat="44.38068562984852" lon="8.135330835100298"><ele>737.0</ele><time>2026-04-19T16:34:27Z</time></trkpt><trkpt lat="44.38072863330056" lon="8.135178066904905"><ele>735.0</ele><time>2026-04-19T16:34:28Z</time></trkpt><trkpt lat="44.38077672686175" lon="8.135017495457866"><ele>733.0</ele><time>2026-04-19T16:34:29Z</time></trkpt><trkpt lat="44.38082024153393" lon="8.134841980096567"><ele>730.5</ele><time>2026-04-19T16:34:30Z</time></trkpt><trkpt lat="44.38089249901179" lon="8.134695465025846"><ele>728.0</ele><time>2026-04-19T16:34:31Z</time></trkpt><trkpt lat="44.380979432155705" lon="8.134559499140867"><ele>725.5</ele><time>2026-04-19T16:34:32Z</time></trkpt><trkpt lat="44.381090578868736" lon="8.134427535042208"><ele>723.0</ele><time>2026-04-19T16:34:33Z</time></trkpt><trkpt lat="44.38122240417473" lon="8.134298972969114"><ele>723.3333333333334</ele><time>2026-04-19T16:34:33.999Z</time></trkpt><trkpt lat="44.38135583040493" lon="8.13417593114863"><ele>723.6666666666667</ele><time>2026-04-19T16:34:34.999Z</time></trkpt><trkpt lat="44.38148344434411" lon="8.134059593238169"><ele>724.0</ele><time>2026-04-19T16:34:35.999Z</time></trkpt><trkpt lat="44.38161485068915" lon="8.133965930529403"><ele>724.0</ele><time>2026-04-19T16:34:36.999Z</time></trkpt><trkpt lat="44.3817229563095" lon="8.133825581216772"><ele>724.0</ele><time>2026-04-19T16:34:37.999Z</time></trkpt><trkpt lat="44.38182763084882" lon="8.133694444085625"><ele>724.0</ele><time>2026-04-19T16:34:38.999Z</time></trkpt><trkpt lat="44.381922815030144" lon="8.133536935770909"><ele>724.0</ele><time>2026-04-19T16:34:39.999Z</time></trkpt><trkpt lat="44.382035894444165" lon="8.133398805604857"><ele>724.0</ele><time>2026-04-19T16:34:40.999Z</time></trkpt><trkpt lat="44.38213011377974" lon="8.133266977154538"><ele>724.0</ele><time>2026-04-19T16:34:41.999Z</time></trkpt><trkpt lat="44.382211162861495" lon="8.133124555557714"><ele>724.0</ele><time>2026-04-19T16:34:42.999Z</time></trkpt><trkpt lat="44.38230063932339" lon="8.132992555173004"><ele>724.0</ele><time>2026-04-19T16:34:43.999Z</time></trkpt><trkpt lat="44.3823812931833" lon="8.13284718856922"><ele>725.25</ele><time>2026-04-19T16:34:44.999Z</time></trkpt><trkpt lat="44.38245720437888" lon="8.132702426375435"><ele>726.5</ele><time>2026-04-19T16:34:45.999Z</time></trkpt><trkpt lat="44.38252957183667" lon="8.13257619963531"><ele>727.75</ele><time>2026-04-19T16:34:46.999Z</time></trkpt><trkpt lat="44.38261788985494" lon="8.132482838805883"><ele>729.0</ele><time>2026-04-19T16:34:47.999Z</time></trkpt><trkpt lat="44.382708920148126" lon="8.132378143680723"><ele>729.0</ele><time>2026-04-19T16:34:48.999Z</time></trkpt><trkpt lat="44.38280386707581" lon="8.132256891471616"><ele>729.0</ele><time>2026-04-19T16:34:49.999Z</time></trkpt><trkpt lat="44.38291360723469" lon="8.132184734913128"><ele>729.0</ele><time>2026-04-19T16:34:50.999Z</time></trkpt><trkpt lat="44.38301342002482" lon="8.132098719551498"><ele>729.0</ele><time>2026-04-19T16:34:51.999Z</time></trkpt><trkpt lat="44.383113191884746" lon="8.131998006983837"><ele>729.0</ele><time>2026-04-19T16:34:52.999Z</time></trkpt><trkpt lat="44.38324725232704" lon="8.131964349915163"><ele>729.0</ele><time>2026-04-19T16:34:53.999Z</time></trkpt><trkpt lat="44.38339926142599" lon="8.13192118784757"><ele>729.0</ele><time>2026-04-19T16:34:54.999Z</time></trkpt><trkpt lat="44.38356193212331" lon="8.131849437960215"><ele>729.0</ele><time>2026-04-19T16:34:55.999Z</time></trkpt><trkpt lat="44.383738226185166" lon="8.131747599964312"><ele>729.0</ele><time>2026-04-19T16:34:56.999Z</time></trkpt><trkpt lat="44.38392505295795" lon="8.131639451743537"><ele>729.0</ele><time>2026-04-19T16:34:57.999Z</time></trkpt><trkpt lat="44.38412932850128" lon="8.131558963100561"><ele>729.6666666666666</ele><time>2026-04-19T16:34:58.999Z</time></trkpt><trkpt lat="44.38435157705814" lon="8.131506943033141"><ele>730.3333333333333</ele><time>2026-04-19T16:34:59.999Z</time></trkpt><trkpt lat="44.3845700545053" lon="8.131443926092517"><ele>731.0</ele><time>2026-04-19T16:35:00.999Z</time></trkpt><trkpt lat="44.384781086392366" lon="8.131404146523552"><ele>731.0</ele><time>2026-04-19T16:35:01.999Z</time></trkpt><trkpt lat="44.38498352286656" lon="8.131359423235708"><ele>731.0</ele><time>2026-04-19T16:35:02.999Z</time></trkpt><trkpt lat="44.385182979966714" lon="8.131322226790427"><ele>731.0</ele><time>2026-04-19T16:35:03.999Z</time></trkpt><trkpt lat="44.385377464344565" lon="8.131304751617007"><ele>727.6666666666666</ele><time>2026-04-19T16:35:04.999Z</time></trkpt><trkpt lat="44.38556294826216" lon="8.131298296169698"><ele>724.3333333333334</ele><time>2026-04-19T16:35:05.999Z</time></trkpt><trkpt lat="44.38572966868091" lon="8.131293731899499"><ele>721.0</ele><time>2026-04-19T16:35:06.999Z</time></trkpt><trkpt lat="44.3858938065571" lon="8.131285570675091"><ele>721.0</ele><time>2026-04-19T16:35:07.999Z</time></trkpt><trkpt lat="44.386054930276366" lon="8.131291509304807"><ele>721.0</ele><time>2026-04-19T16:35:08.999Z</time></trkpt><trkpt lat="44.386364446678755" lon="8.131413809273248"><ele>719.6666666666667</ele><time>2026-04-19T16:35:10.999Z</time></trkpt><trkpt lat="44.38650975972154" lon="8.131545023566662"><ele>718.3333333333334</ele><time>2026-04-19T16:35:11.999Z</time></trkpt><trkpt lat="44.3866509571279" lon="8.131688911421977"><ele>717.0</ele><time>2026-04-19T16:35:12.999Z</time></trkpt><trkpt lat="44.38681193381074" lon="8.131792705746275"><ele>717.0</ele><time>2026-04-19T16:35:13.999Z</time></trkpt><trkpt lat="44.38700570781207" lon="8.131846354489246"><ele>717.0</ele><time>2026-04-19T16:35:14.999Z</time></trkpt><trkpt lat="44.387227939749636" lon="8.131873061424463"><ele>717.0</ele><time>2026-04-19T16:35:15.999Z</time></trkpt><trkpt lat="44.38745816485711" lon="8.131912670408752"><ele>717.0</ele><time>2026-04-19T16:35:16.999Z</time></trkpt><trkpt lat="44.38767895413552" lon="8.131978829254477"><ele>717.0</ele><time>2026-04-19T16:35:17.999Z</time></trkpt><trkpt lat="44.387872862695296" lon="8.13206343983842"><ele>717.0</ele><time>2026-04-19T16:35:18.999Z</time></trkpt><trkpt lat="44.3880430927338" lon="8.13214895216943"><ele>717.0</ele><time>2026-04-19T16:35:19.999Z</time></trkpt><trkpt lat="44.38821121807596" lon="8.13221201029513"><ele>717.0</ele><time>2026-04-19T16:35:20.999Z</time></trkpt><trkpt lat="44.38837981194058" lon="8.132251894618946"><ele>717.0</ele><time>2026-04-19T16:35:21.999Z</time></trkpt><trkpt lat="44.38854161552509" lon="8.13223891903518"><ele>717.0</ele><time>2026-04-19T16:35:22.999Z</time></trkpt><trkpt lat="44.38869885552195" lon="8.132169139481528"><ele>717.0</ele><time>2026-04-19T16:35:23.999Z</time></trkpt><trkpt lat="44.38887051458561" lon="8.13205799214493"><ele>717.0</ele><time>2026-04-19T16:35:24.999Z</time></trkpt><trkpt lat="44.38905890367834" lon="8.131950946629733"><ele>714.0</ele><time>2026-04-19T16:35:25.999Z</time></trkpt><trkpt lat="44.38926570883661" lon="8.131844782212763"><ele>711.0</ele><time>2026-04-19T16:35:26.999Z</time></trkpt><trkpt lat="44.38947608868237" lon="8.131738902671495"><ele>708.0</ele><time>2026-04-19T16:35:27.999Z</time></trkpt><trkpt lat="44.389669541952486" lon="8.131638142373003"><ele>705.6666666666666</ele><time>2026-04-19T16:35:28.999Z</time></trkpt><trkpt lat="44.38985427834275" lon="8.131519783684212"><ele>703.3333333333333</ele><time>2026-04-19T16:35:29.999Z</time></trkpt><trkpt lat="44.3900326502098" lon="8.131364075076903"><ele>701.0</ele><time>2026-04-19T16:35:30.999Z</time></trkpt><trkpt lat="44.390203268843116" lon="8.131185518427111"><ele>701.0</ele><time>2026-04-19T16:35:31.999Z</time></trkpt><trkpt lat="44.39036020496564" lon="8.130998483295123"><ele>701.0</ele><time>2026-04-19T16:35:32.999Z</time></trkpt><trkpt lat="44.390495374789396" lon="8.130801194468816"><ele>701.0</ele><time>2026-04-19T16:35:33.999Z</time></trkpt><trkpt lat="44.390626134320236" lon="8.13060971827411"><ele>700.0</ele><time>2026-04-19T16:35:34.999Z</time></trkpt><trkpt lat="44.39069765266483" lon="8.130404382097606"><ele>699.0</ele><time>2026-04-19T16:35:35.999Z</time></trkpt><trkpt lat="44.390768402440195" lon="8.13025994453923"><ele>698.0</ele><time>2026-04-19T16:35:36.999Z</time></trkpt><trkpt lat="44.39085076730132" lon="8.130148603732604"><ele>697.0</ele><time>2026-04-19T16:35:38Z</time></trkpt><trkpt lat="44.39095579036632" lon="8.130064533949659"><ele>697.0</ele><time>2026-04-19T16:35:39Z</time></trkpt><trkpt lat="44.39108110536568" lon="8.130028210914013"><ele>697.0</ele><time>2026-04-19T16:35:40Z</time></trkpt><trkpt lat="44.39122012793563" lon="8.13004648568291"><ele>697.0</ele><time>2026-04-19T16:35:41Z</time></trkpt><trkpt lat="44.391366873078404" lon="8.130125546711362"><ele>697.0</ele><time>2026-04-19T16:35:42Z</time></trkpt><trkpt lat="44.39152174106242" lon="8.130250406722908"><ele>695.6666666666667</ele><time>2026-04-19T16:35:43Z</time></trkpt><trkpt lat="44.391680033743505" lon="8.130381216419346"><ele>694.3333333333334</ele><time>2026-04-19T16:35:44Z</time></trkpt><trkpt lat="44.39184837131207" lon="8.130466087324068"><ele>693.0</ele><time>2026-04-19T16:35:45Z</time></trkpt><trkpt lat="44.392022091542024" lon="8.1304888141251"><ele>690.6666666666666</ele><time>2026-04-19T16:35:46Z</time></trkpt><trkpt lat="44.39220383433501" lon="8.130456328868808"><ele>688.3333333333333</ele><time>2026-04-19T16:35:47Z</time></trkpt><trkpt lat="44.39239242173298" lon="8.130360097538022"><ele>686.0</ele><time>2026-04-19T16:35:48Z</time></trkpt><trkpt lat="44.39258640419182" lon="8.13022315168355"><ele>686.0</ele><time>2026-04-19T16:35:49Z</time></trkpt><trkpt lat="44.39278551421821" lon="8.130037173800181"><ele>686.0</ele><time>2026-04-19T16:35:50Z</time></trkpt><trkpt lat="44.39297882942337" lon="8.129827226773196"><ele>681.0</ele><time>2026-04-19T16:35:51Z</time></trkpt><trkpt lat="44.393162587810274" lon="8.129618435391878"><ele>676.0</ele><time>2026-04-19T16:35:52Z</time></trkpt><trkpt lat="44.39331609878608" lon="8.129384563745644"><ele>676.0</ele><time>2026-04-19T16:35:53Z</time></trkpt><trkpt lat="44.393474583658104" lon="8.129178324166539"><ele>676.0</ele><time>2026-04-19T16:35:54Z</time></trkpt><trkpt lat="44.393651650566575" lon="8.129018187579222"><ele>676.0</ele><time>2026-04-19T16:35:55Z</time></trkpt><trkpt lat="44.393826438412795" lon="8.12888438793501"><ele>674.0</ele><time>2026-04-19T16:35:56Z</time></trkpt><trkpt lat="44.39399622533371" lon="8.128788723598754"><ele>672.0</ele><time>2026-04-19T16:35:57Z</time></trkpt><trkpt lat="44.39418933301253" lon="8.128741461123964"><ele>670.0</ele><time>2026-04-19T16:35:58Z</time></trkpt><trkpt lat="44.39440802385751" lon="8.12868994534671"><ele>670.0</ele><time>2026-04-19T16:35:59Z</time></trkpt><trkpt lat="44.3946385042569" lon="8.128675216461028"><ele>670.0</ele><time>2026-04-19T16:36:00Z</time></trkpt><trkpt lat="44.3948744217774" lon="8.128614752303063"><ele>668.5</ele><time>2026-04-19T16:36:01Z</time></trkpt><trkpt lat="44.39510439870849" lon="8.128508115963337"><ele>667.0</ele><time>2026-04-19T16:36:02Z</time></trkpt><trkpt lat="44.39531859757613" lon="8.12836557266451"><ele>670.6666666666667</ele><time>2026-04-19T16:36:03Z</time></trkpt><trkpt lat="44.395516299293206" lon="8.128223963625894"><ele>674.3333333333334</ele><time>2026-04-19T16:36:04Z</time></trkpt><trkpt lat="44.395698176612804" lon="8.128069280518108"><ele>678.0</ele><time>2026-04-19T16:36:05Z</time></trkpt><trkpt lat="44.39586439990727" lon="8.127889717618174"><ele>678.0</ele><time>2026-04-19T16:36:06Z</time></trkpt><trkpt lat="44.39599493551274" lon="8.127688185217536"><ele>678.0</ele><time>2026-04-19T16:36:07Z</time></trkpt><trkpt lat="44.39610157659457" lon="8.127468697015367"><ele>678.0</ele><time>2026-04-19T16:36:08Z</time></trkpt><trkpt lat="44.396189124472436" lon="8.127214941092012"><ele>678.3333333333334</ele><time>2026-04-19T16:36:09Z</time></trkpt><trkpt lat="44.39626253857025" lon="8.126936249910491"><ele>678.6666666666667</ele><time>2026-04-19T16:36:10Z</time></trkpt><trkpt lat="44.39631617094252" lon="8.126644616810784"><ele>679.0</ele><time>2026-04-19T16:36:11Z</time></trkpt><trkpt lat="44.39634112203425" lon="8.126354278409627"><ele>679.0</ele><time>2026-04-19T16:36:12Z</time></trkpt><trkpt lat="44.39638524335719" lon="8.126106200303395"><ele>679.0</ele><time>2026-04-19T16:36:13Z</time></trkpt><trkpt lat="44.396442405745184" lon="8.125880241909256"><ele>679.0</ele><time>2026-04-19T16:36:14Z</time></trkpt><trkpt lat="44.39653062193424" lon="8.12567602223469"><ele>680.0</ele><time>2026-04-19T16:36:15Z</time></trkpt><trkpt lat="44.39666391696536" lon="8.12547927098976"><ele>681.0</ele><time>2026-04-19T16:36:16Z</time></trkpt><trkpt lat="44.396830782937734" lon="8.125306479460555"><ele>682.0</ele><time>2026-04-19T16:36:17Z</time></trkpt><trkpt lat="44.39702497244149" lon="8.125144863357455"><ele>683.0</ele><time>2026-04-19T16:36:18Z</time></trkpt><trkpt lat="44.39722231975609" lon="8.124992217308357"><ele>684.0</ele><time>2026-04-19T16:36:19Z</time></trkpt><trkpt lat="44.39739398880371" lon="8.124844401677981"><ele>685.0</ele><time>2026-04-19T16:36:20Z</time></trkpt><trkpt lat="44.39753135864139" lon="8.124682771659334"><ele>686.0</ele><time>2026-04-19T16:36:21Z</time></trkpt><trkpt lat="44.39763547304562" lon="8.124500496237381"><ele>687.0</ele><time>2026-04-19T16:36:22Z</time></trkpt><trkpt lat="44.397698388532326" lon="8.124305649061167"><ele>688.0</ele><time>2026-04-19T16:36:23Z</time></trkpt><trkpt lat="44.39772763691051" lon="8.12408478823414"><ele>689.0</ele><time>2026-04-19T16:36:24Z</time></trkpt><trkpt lat="44.39771843396695" lon="8.123846347440645"><ele>690.0</ele><time>2026-04-19T16:36:25Z</time></trkpt><trkpt lat="44.39771088303266" lon="8.123616408371635"><ele>691.0</ele><time>2026-04-19T16:36:26Z</time></trkpt><trkpt lat="44.397741187742405" lon="8.123413510208854"><ele>688.3333333333334</ele><time>2026-04-19T16:36:27Z</time></trkpt><trkpt lat="44.39781271112676" lon="8.12320943482419"><ele>685.6666666666666</ele><time>2026-04-19T16:36:28Z</time></trkpt><trkpt lat="44.39794643462001" lon="8.123049023694353"><ele>683.0</ele><time>2026-04-19T16:36:29Z</time></trkpt><trkpt lat="44.39810269809001" lon="8.122899188130459"><ele>691.5</ele><time>2026-04-19T16:36:30Z</time></trkpt><trkpt lat="44.39827914981692" lon="8.12272353486256"><ele>700.0</ele><time>2026-04-19T16:36:31Z</time></trkpt><trkpt lat="44.39848796920372" lon="8.122548002644086"><ele>704.0</ele><time>2026-04-19T16:36:32Z</time></trkpt><trkpt lat="44.39870477924436" lon="8.122346503167376"><ele>708.0</ele><time>2026-04-19T16:36:33Z</time></trkpt><trkpt lat="44.398910540581504" lon="8.122157668712207"><ele>708.0</ele><time>2026-04-19T16:36:34Z</time></trkpt><trkpt lat="44.39909407595784" lon="8.121982842265208"><ele>708.0</ele><time>2026-04-19T16:36:35Z</time></trkpt><trkpt lat="44.39926845219613" lon="8.121798231511393"><ele>708.0</ele><time>2026-04-19T16:36:36Z</time></trkpt><trkpt lat="44.39944101524708" lon="8.12157934636194"><ele>709.3333333333334</ele><time>2026-04-19T16:36:37Z</time></trkpt><trkpt lat="44.399598314459325" lon="8.121351500378548"><ele>710.6666666666667</ele><time>2026-04-19T16:36:38Z</time></trkpt><trkpt lat="44.39973929893824" lon="8.12115244010658"><ele>712.0</ele><time>2026-04-19T16:36:39Z</time></trkpt><trkpt lat="44.399865060384975" lon="8.120977168002469"><ele>712.0</ele><time>2026-04-19T16:36:40Z</time></trkpt><trkpt lat="44.39997469245798" lon="8.120788978691452"><ele>712.0</ele><time>2026-04-19T16:36:41Z</time></trkpt><trkpt lat="44.40006571729193" lon="8.120548878549661"><ele>712.0</ele><time>2026-04-19T16:36:42Z</time></trkpt><trkpt lat="44.40013393345288" lon="8.120248191939343"><ele>712.0</ele><time>2026-04-19T16:36:43Z</time></trkpt><trkpt lat="44.400197832989804" lon="8.119917343925133"><ele>712.0</ele><time>2026-04-19T16:36:44Z</time></trkpt><trkpt lat="44.40027047969904" lon="8.119584415519721"><ele>712.6666666666667</ele><time>2026-04-19T16:36:45Z</time></trkpt><trkpt lat="44.400342306573116" lon="8.11928121111845"><ele>713.3333333333334</ele><time>2026-04-19T16:36:46Z</time></trkpt><trkpt lat="44.400420218296304" lon="8.118994343453233"><ele>714.0</ele><time>2026-04-19T16:36:47Z</time></trkpt><trkpt lat="44.400511027158416" lon="8.118735513119681"><ele>711.6666666666666</ele><time>2026-04-19T16:36:47.999Z</time></trkpt><trkpt lat="44.400620094235705" lon="8.118507502862839"><ele>709.3333333333333</ele><time>2026-04-19T16:36:48.999Z</time></trkpt><trkpt lat="44.40075125567875" lon="8.11829157624268"><ele>707.0</ele><time>2026-04-19T16:36:49.999Z</time></trkpt><trkpt lat="44.400901100225816" lon="8.118098535562401"><ele>707.0</ele><time>2026-04-19T16:36:50.999Z</time></trkpt><trkpt lat="44.40103472116132" lon="8.117951108489443"><ele>707.0</ele><time>2026-04-19T16:36:51.999Z</time></trkpt><trkpt lat="44.40114913065324" lon="8.117847490312807"><ele>707.0</ele><time>2026-04-19T16:36:52.999Z</time></trkpt><trkpt lat="44.40125825265844" lon="8.11777121915411"><ele>707.0</ele><time>2026-04-19T16:36:53.999Z</time></trkpt><trkpt lat="44.40135541400591" lon="8.117713245317805"><ele>706.1666666666666</ele><time>2026-04-19T16:36:54.999Z</time></trkpt><trkpt lat="44.40144490988998" lon="8.117683320840456"><ele>705.3333333333333</ele><time>2026-04-19T16:36:55.999Z</time></trkpt><trkpt lat="44.40152988968135" lon="8.117672580079244"><ele>704.5</ele><time>2026-04-19T16:36:56.999Z</time></trkpt><trkpt lat="44.40160365609479" lon="8.11764139013087"><ele>703.6666666666666</ele><time>2026-04-19T16:36:57.999Z</time></trkpt><trkpt lat="44.40165892527985" lon="8.117575897004823"><ele>702.8333333333334</ele><time>2026-04-19T16:36:58.999Z</time></trkpt><trkpt lat="44.401719808571876" lon="8.11746544277002"><ele>702.0</ele><time>2026-04-19T16:36:59.999Z</time></trkpt><trkpt lat="44.40180001667606" lon="8.117333476813236"><ele>701.0</ele><time>2026-04-19T16:37:00.999Z</time></trkpt><trkpt lat="44.40189710537771" lon="8.11717535620957"><ele>700.0</ele><time>2026-04-19T16:37:01.999Z</time></trkpt><trkpt lat="44.40204613396551" lon="8.117016817248535"><ele>699.0</ele><time>2026-04-19T16:37:02.999Z</time></trkpt><trkpt lat="44.40219382208812" lon="8.1168241465696"><ele>699.0</ele><time>2026-04-19T16:37:03.999Z</time></trkpt><trkpt lat="44.40234530879527" lon="8.116601486330781"><ele>699.0</ele><time>2026-04-19T16:37:04.999Z</time></trkpt><trkpt lat="44.40247627275817" lon="8.116354604252106"><ele>699.0</ele><time>2026-04-19T16:37:05.999Z</time></trkpt><trkpt lat="44.402591935565994" lon="8.11612057895182"><ele>699.0</ele><time>2026-04-19T16:37:06.999Z</time></trkpt><trkpt lat="44.40272278633342" lon="8.115906341452838"><ele>699.0</ele><time>2026-04-19T16:37:07.999Z</time></trkpt><trkpt lat="44.402879880589204" lon="8.115711118245082"><ele>699.0</ele><time>2026-04-19T16:37:08.999Z</time></trkpt><trkpt lat="44.40303703169466" lon="8.115548648420884"><ele>699.0</ele><time>2026-04-19T16:37:09.999Z</time></trkpt><trkpt lat="44.403170359012506" lon="8.115384904598322"><ele>699.0</ele><time>2026-04-19T16:37:10.999Z</time></trkpt><trkpt lat="44.40326400087396" lon="8.115209077274104"><ele>699.0</ele><time>2026-04-19T16:37:11.999Z</time></trkpt><trkpt lat="44.4033253132844" lon="8.115003845936851"><ele>699.0</ele><time>2026-04-19T16:37:12.999Z</time></trkpt><trkpt lat="44.403356903704214" lon="8.114740851796917"><ele>699.0</ele><time>2026-04-19T16:37:13.999Z</time></trkpt><trkpt lat="44.40337724377331" lon="8.11443478860908"><ele>699.0</ele><time>2026-04-19T16:37:14.999Z</time></trkpt><trkpt lat="44.403404555992545" lon="8.114091319440524"><ele>700.0</ele><time>2026-04-19T16:37:15.999Z</time></trkpt><trkpt lat="44.403453333426775" lon="8.113719551759038"><ele>701.0</ele><time>2026-04-19T16:37:16.999Z</time></trkpt><trkpt lat="44.40350404280076" lon="8.113391224224326"><ele>699.0</ele><time>2026-04-19T16:37:17.999Z</time></trkpt><trkpt lat="44.40355475791006" lon="8.113112691480719"><ele>697.0</ele><time>2026-04-19T16:37:18.999Z</time></trkpt><trkpt lat="44.403619456656436" lon="8.11286727476689"><ele>695.0</ele><time>2026-04-19T16:37:19.999Z</time></trkpt><trkpt lat="44.403707304353404" lon="8.112653342232427"><ele>695.3333333333333</ele><time>2026-04-19T16:37:20.999Z</time></trkpt><trkpt lat="44.403841304414534" lon="8.112442619563033"><ele>695.6666666666666</ele><time>2026-04-19T16:37:21.999Z</time></trkpt><trkpt lat="44.40400429437684" lon="8.112234180551289"><ele>696.0</ele><time>2026-04-19T16:37:22.999Z</time></trkpt><trkpt lat="44.40417202345134" lon="8.1120100056243"><ele>695.0</ele><time>2026-04-19T16:37:23.999Z</time></trkpt><trkpt lat="44.40432592697448" lon="8.11174626333471"><ele>694.0</ele><time>2026-04-19T16:37:24.999Z</time></trkpt><trkpt lat="44.40446464149025" lon="8.111494164217826"><ele>694.0</ele><time>2026-04-19T16:37:25.999Z</time></trkpt><trkpt lat="44.40459601092029" lon="8.11125689278927"><ele>694.0</ele><time>2026-04-19T16:37:26.999Z</time></trkpt><trkpt lat="44.40473038325084" lon="8.111004610080187"><ele>694.0</ele><time>2026-04-19T16:37:27.999Z</time></trkpt><trkpt lat="44.40485535213221" lon="8.110742072897587"><ele>698.6666666666667</ele><time>2026-04-19T16:37:28.999Z</time></trkpt><trkpt lat="44.40495690964747" lon="8.110489555747757"><ele>703.3333333333334</ele><time>2026-04-19T16:37:29.999Z</time></trkpt><trkpt lat="44.40505156512275" lon="8.110249503749621"><ele>708.0</ele><time>2026-04-19T16:37:30.999Z</time></trkpt><trkpt lat="44.4051485782536" lon="8.110027554904969"><ele>709.3333333333334</ele><time>2026-04-19T16:37:31.999Z</time></trkpt><trkpt lat="44.40527139467478" lon="8.109813345273572"><ele>710.6666666666667</ele><time>2026-04-19T16:37:32.999Z</time></trkpt><trkpt lat="44.40543803620006" lon="8.109620017614281"><ele>712.0</ele><time>2026-04-19T16:37:33.999Z</time></trkpt><trkpt lat="44.405623993368" lon="8.109428397697977"><ele>712.0</ele><time>2026-04-19T16:37:34.999Z</time></trkpt><trkpt lat="44.40581258166071" lon="8.109202291276416"><ele>712.0</ele><time>2026-04-19T16:37:35.999Z</time></trkpt><trkpt lat="44.40600387691746" lon="8.108939286085386"><ele>712.0</ele><time>2026-04-19T16:37:36.999Z</time></trkpt><trkpt lat="44.40619585054413" lon="8.108647482175252"><ele>712.0</ele><time>2026-04-19T16:37:37.999Z</time></trkpt><trkpt lat="44.40637842635271" lon="8.108341089001165"><ele>711.5</ele><time>2026-04-19T16:37:38.999Z</time></trkpt><trkpt lat="44.406541134811164" lon="8.10806774774078"><ele>711.0</ele><time>2026-04-19T16:37:39.999Z</time></trkpt><trkpt lat="44.40668913988704" lon="8.107822428482947"><ele>711.0</ele><time>2026-04-19T16:37:40.999Z</time></trkpt><trkpt lat="44.406833619852755" lon="8.10758863682486"><ele>711.0</ele><time>2026-04-19T16:37:41.999Z</time></trkpt><trkpt lat="44.406981091007566" lon="8.107392520277575"><ele>711.0</ele><time>2026-04-19T16:37:42.999Z</time></trkpt><trkpt lat="44.407139988744525" lon="8.107228647946544"><ele>710.6666666666666</ele><time>2026-04-19T16:37:44Z</time></trkpt><trkpt lat="44.40732873109357" lon="8.107095152738637"><ele>710.3333333333333</ele><time>2026-04-19T16:37:45Z</time></trkpt><trkpt lat="44.4075374142874" lon="8.106966799819263"><ele>710.0</ele><time>2026-04-19T16:37:46Z</time></trkpt><trkpt lat="44.40772542063862" lon="8.106845356877269"><ele>710.0</ele><time>2026-04-19T16:37:47Z</time></trkpt><trkpt lat="44.40790006642016" lon="8.106715146259019"><ele>710.0</ele><time>2026-04-19T16:37:48Z</time></trkpt><trkpt lat="44.408035063323844" lon="8.10653254463058"><ele>710.0</ele><time>2026-04-19T16:37:49Z</time></trkpt><trkpt lat="44.408156205675525" lon="8.106356620161218"><ele>711.0</ele><time>2026-04-19T16:37:50Z</time></trkpt><trkpt lat="44.408270350882646" lon="8.106182146489557"><ele>712.0</ele><time>2026-04-19T16:37:51Z</time></trkpt><trkpt lat="44.408427428119445" lon="8.10607157884359"><ele>713.0</ele><time>2026-04-19T16:37:52Z</time></trkpt><trkpt lat="44.40858452882483" lon="8.106006053984192"><ele>713.0</ele><time>2026-04-19T16:37:53Z</time></trkpt><trkpt lat="44.40872442665836" lon="8.105956437747931"><ele>713.0</ele><time>2026-04-19T16:37:54Z</time></trkpt><trkpt lat="44.40884592430786" lon="8.105861815144168"><ele>713.0</ele><time>2026-04-19T16:37:55Z</time></trkpt><trkpt lat="44.4089497902949" lon="8.105720095021544"><ele>713.0</ele><time>2026-04-19T16:37:56Z</time></trkpt><trkpt lat="44.40903890037491" lon="8.105533827186372"><ele>715.3333333333333</ele><time>2026-04-19T16:37:57Z</time></trkpt><trkpt lat="44.409117128593444" lon="8.105325759283566"><ele>717.6666666666666</ele><time>2026-04-19T16:37:58Z</time></trkpt><trkpt lat="44.40920378110388" lon="8.105142310899044"><ele>720.0</ele><time>2026-04-19T16:37:59Z</time></trkpt><trkpt lat="44.409293079257594" lon="8.104986213765903"><ele>718.6666666666666</ele><time>2026-04-19T16:38:00Z</time></trkpt><trkpt lat="44.4093622780099" lon="8.104819786608813"><ele>717.3333333333333</ele><time>2026-04-19T16:38:01Z</time></trkpt><trkpt lat="44.409408980366415" lon="8.1046036313634"><ele>716.0</ele><time>2026-04-19T16:38:02Z</time></trkpt><trkpt lat="44.409436925678484" lon="8.104345849486126"><ele>714.3333333333333</ele><time>2026-04-19T16:38:03Z</time></trkpt><trkpt lat="44.409450273332716" lon="8.104051271967215"><ele>712.6666666666666</ele><time>2026-04-19T16:38:04Z</time></trkpt><trkpt lat="44.40947078352464" lon="8.103729548143832"><ele>711.0</ele><time>2026-04-19T16:38:05Z</time></trkpt><trkpt lat="44.40954552930115" lon="8.10339766750181"><ele>709.5</ele><time>2026-04-19T16:38:06Z</time></trkpt><trkpt lat="44.40958488290291" lon="8.103026094810117"><ele>708.0</ele><time>2026-04-19T16:38:07Z</time></trkpt><trkpt lat="44.409632014085595" lon="8.102638492504862"><ele>715.5</ele><time>2026-04-19T16:38:08Z</time></trkpt><trkpt lat="44.40968252945482" lon="8.102279338716686"><ele>723.0</ele><time>2026-04-19T16:38:09Z</time></trkpt><trkpt lat="44.40973845212372" lon="8.101954674593127"><ele>723.0</ele><time>2026-04-19T16:38:10Z</time></trkpt><trkpt lat="44.409799997957045" lon="8.101654001536602"><ele>723.0</ele><time>2026-04-19T16:38:11Z</time></trkpt><trkpt lat="44.40988896064543" lon="8.101372606528168"><ele>723.0</ele><time>2026-04-19T16:38:12Z</time></trkpt><trkpt lat="44.41002453899887" lon="8.101123926366782"><ele>722.6666666666666</ele><time>2026-04-19T16:38:13Z</time></trkpt><trkpt lat="44.41014265093611" lon="8.100884233082066"><ele>722.3333333333333</ele><time>2026-04-19T16:38:14Z</time></trkpt><trkpt lat="44.41026941461918" lon="8.100616054243392"><ele>722.0</ele><time>2026-04-19T16:38:15Z</time></trkpt><trkpt lat="44.41037467094374" lon="8.100302386749549"><ele>723.6666666666666</ele><time>2026-04-19T16:38:16Z</time></trkpt><trkpt lat="44.410466835474594" lon="8.10001867887158"><ele>725.3333333333334</ele><time>2026-04-19T16:38:17Z</time></trkpt><trkpt lat="44.41054749414713" lon="8.099774956230819"><ele>727.0</ele><time>2026-04-19T16:38:18Z</time></trkpt><trkpt lat="44.410611111189844" lon="8.099555654672963"><ele>727.0</ele><time>2026-04-19T16:38:19Z</time></trkpt><trkpt lat="44.410642586753816" lon="8.099339305074501"><ele>727.0</ele><time>2026-04-19T16:38:20Z</time></trkpt><trkpt lat="44.41063524612592" lon="8.09910639838655"><ele>727.0</ele><time>2026-04-19T16:38:21Z</time></trkpt><trkpt lat="44.410579880888285" lon="8.098859550387477"><ele>726.3333333333334</ele><time>2026-04-19T16:38:22Z</time></trkpt><trkpt lat="44.41047335512431" lon="8.098601695994686"><ele>725.6666666666666</ele><time>2026-04-19T16:38:23Z</time></trkpt><trkpt lat="44.41036188616829" lon="8.098315802681997"><ele>725.0</ele><time>2026-04-19T16:38:24Z</time></trkpt><trkpt lat="44.41024521733373" lon="8.098026917748804"><ele>725.0</ele><time>2026-04-19T16:38:25Z</time></trkpt><trkpt lat="44.41014928454014" lon="8.097747942268102"><ele>725.0</ele><time>2026-04-19T16:38:26Z</time></trkpt><trkpt lat="44.41006177948124" lon="8.09747597620151"><ele>725.0</ele><time>2026-04-19T16:38:27Z</time></trkpt><trkpt lat="44.40998228651881" lon="8.097209472881206"><ele>723.6666666666666</ele><time>2026-04-19T16:38:28Z</time></trkpt><trkpt lat="44.4099456919883" lon="8.09692788579217"><ele>722.3333333333334</ele><time>2026-04-19T16:38:29Z</time></trkpt><trkpt lat="44.409950574631495" lon="8.096636956950602"><ele>721.0</ele><time>2026-04-19T16:38:30Z</time></trkpt><trkpt lat="44.41002041700985" lon="8.096360031299746"><ele>717.0</ele><time>2026-04-19T16:38:31Z</time></trkpt><trkpt lat="44.41008956681272" lon="8.096049708007776"><ele>713.0</ele><time>2026-04-19T16:38:32Z</time></trkpt><trkpt lat="44.41020366645905" lon="8.095728382557432"><ele>707.5</ele><time>2026-04-19T16:38:33Z</time></trkpt><trkpt lat="44.41034018762229" lon="8.095390413665628"><ele>702.0</ele><time>2026-04-19T16:38:34Z</time></trkpt><trkpt lat="44.41050875935188" lon="8.09504802387563"><ele>701.0</ele><time>2026-04-19T16:38:35Z</time></trkpt><trkpt lat="44.410697908243506" lon="8.094697859211568"><ele>700.0</ele><time>2026-04-19T16:38:36Z</time></trkpt><trkpt lat="44.410883983845864" lon="8.09434281174321"><ele>696.0</ele><time>2026-04-19T16:38:37Z</time></trkpt><trkpt lat="44.41105627290766" lon="8.094005722471609"><ele>692.0</ele><time>2026-04-19T16:38:38Z</time></trkpt><trkpt lat="44.411219891883356" lon="8.093680599726403"><ele>698.0</ele><time>2026-04-19T16:38:39Z</time></trkpt><trkpt lat="44.41136288161886" lon="8.093374598321772"><ele>704.0</ele><time>2026-04-19T16:38:40Z</time></trkpt><trkpt lat="44.4114955407956" lon="8.093086631282842"><ele>704.6666666666666</ele><time>2026-04-19T16:38:41Z</time></trkpt><trkpt lat="44.411575833931416" lon="8.092788388341543"><ele>705.3333333333334</ele><time>2026-04-19T16:38:42Z</time></trkpt><trkpt lat="44.41162357238113" lon="8.092520669220049"><ele>706.0</ele><time>2026-04-19T16:38:43Z</time></trkpt><trkpt lat="44.41170669883487" lon="8.092300488118184"><ele>707.3333333333334</ele><time>2026-04-19T16:38:44Z</time></trkpt><trkpt lat="44.41182515076713" lon="8.092128607430512"><ele>708.6666666666666</ele><time>2026-04-19T16:38:45Z</time></trkpt><trkpt lat="44.41198521987497" lon="8.09197582241247"><ele>710.0</ele><time>2026-04-19T16:38:46Z</time></trkpt><trkpt lat="44.412176220765026" lon="8.091855369265632"><ele>710.0</ele><time>2026-04-19T16:38:47Z</time></trkpt><trkpt lat="44.41238895457095" lon="8.09177051668741"><ele>710.0</ele><time>2026-04-19T16:38:48Z</time></trkpt><trkpt lat="44.41259316626257" lon="8.091712291986083"><ele>710.0</ele><time>2026-04-19T16:38:49Z</time></trkpt><trkpt lat="44.4127777581826" lon="8.091639038746909"><ele>710.3333333333333</ele><time>2026-04-19T16:38:50Z</time></trkpt><trkpt lat="44.41295069641882" lon="8.091532538780298"><ele>710.6666666666666</ele><time>2026-04-19T16:38:51Z</time></trkpt><trkpt lat="44.413110772976424" lon="8.091381556136453"><ele>711.0</ele><time>2026-04-19T16:38:52Z</time></trkpt><trkpt lat="44.413248933683796" lon="8.091200449260489"><ele>711.0</ele><time>2026-04-19T16:38:53Z</time></trkpt><trkpt lat="44.413372467524866" lon="8.091025195509351"><ele>711.0</ele><time>2026-04-19T16:38:53.999Z</time></trkpt><trkpt lat="44.413518601561115" lon="8.090875450012529"><ele>711.0</ele><time>2026-04-19T16:38:54.999Z</time></trkpt><trkpt lat="44.41369995096885" lon="8.090757452924406"><ele>709.3333333333334</ele><time>2026-04-19T16:38:55.999Z</time></trkpt><trkpt lat="44.41390336251367" lon="8.09065589627752"><ele>707.6666666666667</ele><time>2026-04-19T16:38:56.999Z</time></trkpt><trkpt lat="44.4141034386429" lon="8.090539485996185"><ele>706.0</ele><time>2026-04-19T16:38:57.999Z</time></trkpt><trkpt lat="44.414282083087194" lon="8.09038203426882"><ele>706.0</ele><time>2026-04-19T16:38:58.999Z</time></trkpt><trkpt lat="44.414440156946625" lon="8.090213893052548"><ele>706.0</ele><time>2026-04-19T16:38:59.999Z</time></trkpt><trkpt lat="44.414566934099874" lon="8.090031462183795"><ele>706.0</ele><time>2026-04-19T16:39:00.999Z</time></trkpt><trkpt lat="44.41468890623362" lon="8.089864228379616"><ele>704.0</ele><time>2026-04-19T16:39:01.999Z</time></trkpt><trkpt lat="44.414860141808305" lon="8.089798500189422"><ele>702.0</ele><time>2026-04-19T16:39:02.999Z</time></trkpt><trkpt lat="44.41506171858012" lon="8.089749989849237"><ele>700.0</ele><time>2026-04-19T16:39:03.999Z</time></trkpt><trkpt lat="44.41526579682059" lon="8.089696066307317"><ele>700.0</ele><time>2026-04-19T16:39:04.999Z</time></trkpt><trkpt lat="44.4154498794549" lon="8.08963930361183"><ele>700.0</ele><time>2026-04-19T16:39:05.999Z</time></trkpt><trkpt lat="44.41562237751871" lon="8.089554389837714"><ele>700.0</ele><time>2026-04-19T16:39:06.999Z</time></trkpt><trkpt lat="44.415786200223735" lon="8.089424323041289"><ele>700.3333333333334</ele><time>2026-04-19T16:39:07.999Z</time></trkpt><trkpt lat="44.415939201860276" lon="8.089244202664199"><ele>700.6666666666666</ele><time>2026-04-19T16:39:08.999Z</time></trkpt><trkpt lat="44.41610073721412" lon="8.089037494436846"><ele>701.0</ele><time>2026-04-19T16:39:09.999Z</time></trkpt><trkpt lat="44.41628277206992" lon="8.08886692050355"><ele>706.0</ele><time>2026-04-19T16:39:10.999Z</time></trkpt><trkpt lat="44.41644810411424" lon="8.088726797618316"><ele>711.0</ele><time>2026-04-19T16:39:11.999Z</time></trkpt><trkpt lat="44.4165905080482" lon="8.088580282928161"><ele>716.0</ele><time>2026-04-19T16:39:12.999Z</time></trkpt><trkpt lat="44.4167122224762" lon="8.088451742125322"><ele>716.0</ele><time>2026-04-19T16:39:13.999Z</time></trkpt><trkpt lat="44.41681557683508" lon="8.088386970344528"><ele>716.0</ele><time>2026-04-19T16:39:14.999Z</time></trkpt><trkpt lat="44.41692429434882" lon="8.08836976501307"><ele>716.0</ele><time>2026-04-19T16:39:15.999Z</time></trkpt><trkpt lat="44.41703761656479" lon="8.088397517452838"><ele>716.0</ele><time>2026-04-19T16:39:16.999Z</time></trkpt><trkpt lat="44.41715639775729" lon="8.088476206820888"><ele>715.3333333333333</ele><time>2026-04-19T16:39:17.999Z</time></trkpt><trkpt lat="44.41727846105661" lon="8.088606487056182"><ele>714.6666666666666</ele><time>2026-04-19T16:39:18.999Z</time></trkpt><trkpt lat="44.41740182700446" lon="8.088773405086261"><ele>714.0</ele><time>2026-04-19T16:39:19.999Z</time></trkpt><trkpt lat="44.4175190645977" lon="8.088951194732342"><ele>717.75</ele><time>2026-04-19T16:39:20.999Z</time></trkpt><trkpt lat="44.41762831494531" lon="8.089110432915367"><ele>721.5</ele><time>2026-04-19T16:39:21.999Z</time></trkpt><trkpt lat="44.41773824355738" lon="8.089238791476859"><ele>725.25</ele><time>2026-04-19T16:39:22.999Z</time></trkpt><trkpt lat="44.41784872384921" lon="8.089338753685961"><ele>729.0</ele><time>2026-04-19T16:39:23.999Z</time></trkpt><trkpt lat="44.41794763905078" lon="8.089439028721054"><ele>726.5</ele><time>2026-04-19T16:39:24.999Z</time></trkpt><trkpt lat="44.41803212394242" lon="8.08956996656088"><ele>724.0</ele><time>2026-04-19T16:39:25.999Z</time></trkpt><trkpt lat="44.4180907483805" lon="8.08974943511657"><ele>721.5</ele><time>2026-04-19T16:39:26.999Z</time></trkpt><trkpt lat="44.41811830421307" lon="8.089961497935313"><ele>719.0</ele><time>2026-04-19T16:39:27.999Z</time></trkpt><trkpt lat="44.418110248011864" lon="8.09020086789226"><ele>719.0</ele><time>2026-04-19T16:39:28.999Z</time></trkpt><trkpt lat="44.4180863082258" lon="8.090444045127331"><ele>719.0</ele><time>2026-04-19T16:39:29.999Z</time></trkpt><trkpt lat="44.418087601441655" lon="8.090682697852024"><ele>719.0</ele><time>2026-04-19T16:39:30.999Z</time></trkpt><trkpt lat="44.41813247688682" lon="8.09091209127991"><ele>720.3333333333333</ele><time>2026-04-19T16:39:31.999Z</time></trkpt><trkpt lat="44.41821185880868" lon="8.091128019413357"><ele>721.6666666666666</ele><time>2026-04-19T16:39:32.999Z</time></trkpt><trkpt lat="44.41832150757192" lon="8.091346089281712"><ele>723.0</ele><time>2026-04-19T16:39:33.999Z</time></trkpt><trkpt lat="44.418447020633074" lon="8.091558034363024"><ele>721.6666666666666</ele><time>2026-04-19T16:39:34.999Z</time></trkpt><trkpt lat="44.41857113276312" lon="8.091754829419319"><ele>720.3333333333333</ele><time>2026-04-19T16:39:35.999Z</time></trkpt><trkpt lat="44.4187246887735" lon="8.091920707861435"><ele>719.0</ele><time>2026-04-19T16:39:36.999Z</time></trkpt><trkpt lat="44.41891127942182" lon="8.092052951313848"><ele>719.0</ele><time>2026-04-19T16:39:37.999Z</time></trkpt><trkpt lat="44.419107938615845" lon="8.0921621063833"><ele>719.0</ele><time>2026-04-19T16:39:38.999Z</time></trkpt><trkpt lat="44.419291626681385" lon="8.0922534008562"><ele>719.0</ele><time>2026-04-19T16:39:39.999Z</time></trkpt><trkpt lat="44.419471108090946" lon="8.092295562649717"><ele>719.0</ele><time>2026-04-19T16:39:40.999Z</time></trkpt><trkpt lat="44.419652106138656" lon="8.092278828857472"><ele>719.0</ele><time>2026-04-19T16:39:41.999Z</time></trkpt><trkpt lat="44.41985129211557" lon="8.092201871061047"><ele>719.0</ele><time>2026-04-19T16:39:42.999Z</time></trkpt><trkpt lat="44.420063929352374" lon="8.092101344643476"><ele>719.0</ele><time>2026-04-19T16:39:43.999Z</time></trkpt><trkpt lat="44.42028452869107" lon="8.091993671310513"><ele>719.0</ele><time>2026-04-19T16:39:44.999Z</time></trkpt><trkpt lat="44.42047591574533" lon="8.091900752034828"><ele>719.0</ele><time>2026-04-19T16:39:45.999Z</time></trkpt><trkpt lat="44.420648577768965" lon="8.091832536113547"><ele>721.0</ele><time>2026-04-19T16:39:46.999Z</time></trkpt><trkpt lat="44.42080756351504" lon="8.091813021233556"><ele>723.0</ele><time>2026-04-19T16:39:47.999Z</time></trkpt><trkpt lat="44.42094458747463" lon="8.091845287099419"><ele>725.0</ele><time>2026-04-19T16:39:48.999Z</time></trkpt><trkpt lat="44.42105509949786" lon="8.091928691956072"><ele>727.0</ele><time>2026-04-19T16:39:50Z</time></trkpt><trkpt lat="44.42113285971105" lon="8.092058240059643"><ele>727.0</ele><time>2026-04-19T16:39:51Z</time></trkpt><trkpt lat="44.421191571989574" lon="8.092246453809139"><ele>727.0</ele><time>2026-04-19T16:39:52Z</time></trkpt><trkpt lat="44.42123086967927" lon="8.092476020030432"><ele>727.0</ele><time>2026-04-19T16:39:53Z</time></trkpt><trkpt lat="44.421269690987295" lon="8.092713511750334"><ele>726.0</ele><time>2026-04-19T16:39:54Z</time></trkpt><trkpt lat="44.42134274656791" lon="8.092925756426043"><ele>725.0</ele><time>2026-04-19T16:39:55Z</time></trkpt><trkpt lat="44.42145498869458" lon="8.093123242195718"><ele>724.0</ele><time>2026-04-19T16:39:56Z</time></trkpt><trkpt lat="44.421594657617064" lon="8.093277317622892"><ele>724.6666666666667</ele><time>2026-04-19T16:39:57Z</time></trkpt><trkpt lat="44.42175834230383" lon="8.093387052456452"><ele>725.3333333333334</ele><time>2026-04-19T16:39:58Z</time></trkpt><trkpt lat="44.42194686808485" lon="8.093457071991955"><ele>726.0</ele><time>2026-04-19T16:39:59Z</time></trkpt><trkpt lat="44.42216031771394" lon="8.09348770292131"><ele>726.0</ele><time>2026-04-19T16:40:00Z</time></trkpt><trkpt lat="44.42236173672291" lon="8.093555117953056"><ele>726.0</ele><time>2026-04-19T16:40:01Z</time></trkpt><trkpt lat="44.42254605388616" lon="8.093602793871788"><ele>726.0</ele><time>2026-04-19T16:40:02Z</time></trkpt><trkpt lat="44.422704805057045" lon="8.093725778151404"><ele>726.0</ele><time>2026-04-19T16:40:03Z</time></trkpt><trkpt lat="44.422852860042966" lon="8.093897112560125"><ele>726.0</ele><time>2026-04-19T16:40:04Z</time></trkpt><trkpt lat="44.42298973802267" lon="8.094124163494365"><ele>726.0</ele><time>2026-04-19T16:40:05Z</time></trkpt><trkpt lat="44.4231312482534" lon="8.094372311904277"><ele>726.5</ele><time>2026-04-19T16:40:06Z</time></trkpt><trkpt lat="44.42328449377944" lon="8.094610015553476"><ele>727.0</ele><time>2026-04-19T16:40:07Z</time></trkpt><trkpt lat="44.4234518902712" lon="8.094836357939398"><ele>727.5</ele><time>2026-04-19T16:40:08Z</time></trkpt><trkpt lat="44.42364495743734" lon="8.095042134255502"><ele>728.0</ele><time>2026-04-19T16:40:09Z</time></trkpt><trkpt lat="44.42385453477494" lon="8.095217600423101"><ele>728.0</ele><time>2026-04-19T16:40:10Z</time></trkpt><trkpt lat="44.42405239147767" lon="8.09537790875232"><ele>728.0</ele><time>2026-04-19T16:40:11Z</time></trkpt><trkpt lat="44.42424114122287" lon="8.095519072838647"><ele>728.0</ele><time>2026-04-19T16:40:12Z</time></trkpt><trkpt lat="44.424416547691415" lon="8.095632374217582"><ele>728.0</ele><time>2026-04-19T16:40:13Z</time></trkpt><trkpt lat="44.42458148969948" lon="8.095721826843588"><ele>728.0</ele><time>2026-04-19T16:40:14Z</time></trkpt><trkpt lat="44.424730195529015" lon="8.095789562197401"><ele>728.0</ele><time>2026-04-19T16:40:15Z</time></trkpt><trkpt lat="44.42486724368254" lon="8.095851203645164"><ele>729.0</ele><time>2026-04-19T16:40:16Z</time></trkpt><trkpt lat="44.424985438246985" lon="8.095908915932279"><ele>730.0</ele><time>2026-04-19T16:40:17Z</time></trkpt><trkpt lat="44.42507977495798" lon="8.095963357492355"><ele>731.0</ele><time>2026-04-19T16:40:18Z</time></trkpt><trkpt lat="44.42516690345341" lon="8.096026545509"><ele>732.0</ele><time>2026-04-19T16:40:19Z</time></trkpt><trkpt lat="44.42524771190525" lon="8.096106821038353"><ele>733.0</ele><time>2026-04-19T16:40:20Z</time></trkpt><trkpt lat="44.42533652534734" lon="8.096208934240561"><ele>733.0</ele><time>2026-04-19T16:40:21Z</time></trkpt><trkpt lat="44.425452190644855" lon="8.096316085079826"><ele>733.0</ele><time>2026-04-19T16:40:22Z</time></trkpt><trkpt lat="44.425597749411736" lon="8.09643251284896"><ele>733.0</ele><time>2026-04-19T16:40:23Z</time></trkpt><trkpt lat="44.42577074112322" lon="8.096572710462123"><ele>733.3333333333334</ele><time>2026-04-19T16:40:24Z</time></trkpt><trkpt lat="44.425940088829456" lon="8.096723161912513"><ele>733.6666666666666</ele><time>2026-04-19T16:40:25Z</time></trkpt><trkpt lat="44.426117524783876" lon="8.096863947853349"><ele>734.0</ele><time>2026-04-19T16:40:26Z</time></trkpt><trkpt lat="44.42631658734515" lon="8.096977072164599"><ele>733.3333333333333</ele><time>2026-04-19T16:40:27Z</time></trkpt><trkpt lat="44.42653972751933" lon="8.097056024190756"><ele>732.6666666666666</ele><time>2026-04-19T16:40:28Z</time></trkpt><trkpt lat="44.4267532754833" lon="8.097102378988875"><ele>732.0</ele><time>2026-04-19T16:40:29Z</time></trkpt><trkpt lat="44.42694694274776" lon="8.097130606158927"><ele>732.0</ele><time>2026-04-19T16:40:30Z</time></trkpt><trkpt lat="44.42712555428114" lon="8.097150268801697"><ele>732.0</ele><time>2026-04-19T16:40:31Z</time></trkpt><trkpt lat="44.427304892926834" lon="8.097182874365068"><ele>732.0</ele><time>2026-04-19T16:40:32Z</time></trkpt><trkpt lat="44.42748516313374" lon="8.097233699442352"><ele>730.6666666666666</ele><time>2026-04-19T16:40:33Z</time></trkpt><trkpt lat="44.427657738853206" lon="8.097301495001304"><ele>729.3333333333333</ele><time>2026-04-19T16:40:34Z</time></trkpt><trkpt lat="44.427824378819714" lon="8.097406525935257"><ele>728.0</ele><time>2026-04-19T16:40:35Z</time></trkpt><trkpt lat="44.42799333005445" lon="8.097560190246652"><ele>728.0</ele><time>2026-04-19T16:40:36Z</time></trkpt><trkpt lat="44.428165516183164" lon="8.097760690894486"><ele>728.0</ele><time>2026-04-19T16:40:37Z</time></trkpt><trkpt lat="44.428345179738955" lon="8.097991555053435"><ele>728.0</ele><time>2026-04-19T16:40:38Z</time></trkpt><trkpt lat="44.428536755533536" lon="8.09821863424448"><ele>728.0</ele><time>2026-04-19T16:40:39Z</time></trkpt><trkpt lat="44.42872005275956" lon="8.098412638108885"><ele>727.6666666666666</ele><time>2026-04-19T16:40:40Z</time></trkpt><trkpt lat="44.428903153068845" lon="8.098583367133282"><ele>727.3333333333334</ele><time>2026-04-19T16:40:41Z</time></trkpt><trkpt lat="44.429071652997614" lon="8.098720337609711"><ele>727.0</ele><time>2026-04-19T16:40:42Z</time></trkpt><trkpt lat="44.42922933622433" lon="8.098815430209495"><ele>727.0</ele><time>2026-04-19T16:40:43Z</time></trkpt><trkpt lat="44.429393538448025" lon="8.098859323631293"><ele>727.0</ele><time>2026-04-19T16:40:44Z</time></trkpt><trkpt lat="44.42956813970758" lon="8.098842176120105"><ele>727.0</ele><time>2026-04-19T16:40:45Z</time></trkpt><trkpt lat="44.42975097602336" lon="8.09878730477742"><ele>727.3333333333334</ele><time>2026-04-19T16:40:46Z</time></trkpt><trkpt lat="44.42995687763717" lon="8.098728828724076"><ele>727.6666666666666</ele><time>2026-04-19T16:40:47Z</time></trkpt><trkpt lat="44.430177003455654" lon="8.098725910689161"><ele>728.0</ele><time>2026-04-19T16:40:48Z</time></trkpt><trkpt lat="44.4303904231504" lon="8.098773900842449"><ele>726.6666666666666</ele><time>2026-04-19T16:40:49Z</time></trkpt><trkpt lat="44.43058408377178" lon="8.098830177346187"><ele>725.3333333333334</ele><time>2026-04-19T16:40:50Z</time></trkpt><trkpt lat="44.430760668969555" lon="8.098863313087177"><ele>724.0</ele><time>2026-04-19T16:40:51Z</time></trkpt><trkpt lat="44.43092536570065" lon="8.098848669152616"><ele>724.0</ele><time>2026-04-19T16:40:52Z</time></trkpt><trkpt lat="44.431095832914714" lon="8.098775031741418"><ele>724.0</ele><time>2026-04-19T16:40:53Z</time></trkpt><trkpt lat="44.43127125640019" lon="8.098630576342833"><ele>724.0</ele><time>2026-04-19T16:40:54Z</time></trkpt><trkpt lat="44.4314607700114" lon="8.098456702210415"><ele>726.5</ele><time>2026-04-19T16:40:55Z</time></trkpt><trkpt lat="44.431667403711764" lon="8.098270204503738"><ele>729.0</ele><time>2026-04-19T16:40:56Z</time></trkpt><trkpt lat="44.431859681857844" lon="8.098098761302333"><ele>726.6666666666666</ele><time>2026-04-19T16:40:56.999Z</time></trkpt><trkpt lat="44.43203996583362" lon="8.09794925483363"><ele>724.3333333333333</ele><time>2026-04-19T16:40:57.999Z</time></trkpt><trkpt lat="44.4322081697991" lon="8.097849577221718"><ele>722.0</ele><time>2026-04-19T16:40:58.999Z</time></trkpt><trkpt lat="44.43238899780532" lon="8.097794774271977"><ele>722.0</ele><time>2026-04-19T16:40:59.999Z</time></trkpt><trkpt lat="44.432568175992365" lon="8.097810744497687"><ele>722.0</ele><time>2026-04-19T16:41:00.999Z</time></trkpt><trkpt lat="44.432738023704786" lon="8.097866518402869"><ele>722.0</ele><time>2026-04-19T16:41:01.999Z</time></trkpt><trkpt lat="44.43291885124949" lon="8.097907695447889"><ele>723.0</ele><time>2026-04-19T16:41:02.999Z</time></trkpt><trkpt lat="44.4331183461255" lon="8.09789494969263"><ele>724.0</ele><time>2026-04-19T16:41:03.999Z</time></trkpt><trkpt lat="44.43331704579615" lon="8.097830973840175"><ele>725.0</ele><time>2026-04-19T16:41:04.999Z</time></trkpt><trkpt lat="44.43349099760888" lon="8.09776021612345"><ele>725.0</ele><time>2026-04-19T16:41:05.999Z</time></trkpt><trkpt lat="44.43364551741997" lon="8.097649174228296"><ele>725.0</ele><time>2026-04-19T16:41:06.999Z</time></trkpt><trkpt lat="44.433805923889864" lon="8.097505898597774"><ele>725.0</ele><time>2026-04-19T16:41:07.999Z</time></trkpt><trkpt lat="44.433931776372326" lon="8.097272142312814"><ele>728.0</ele><time>2026-04-19T16:41:08.999Z</time></trkpt><trkpt lat="44.43406284482906" lon="8.097014859507151"><ele>731.0</ele><time>2026-04-19T16:41:09.999Z</time></trkpt><trkpt lat="44.43421813884996" lon="8.096755900833262"><ele>727.3333333333333</ele><time>2026-04-19T16:41:10.999Z</time></trkpt><trkpt lat="44.43435547467339" lon="8.096500505941133"><ele>723.6666666666666</ele><time>2026-04-19T16:41:11.999Z</time></trkpt><trkpt lat="44.43447540414987" lon="8.096280277351777"><ele>720.0</ele><time>2026-04-19T16:41:12.999Z</time></trkpt><trkpt lat="44.434583004237666" lon="8.096090329458772"><ele>720.0</ele><time>2026-04-19T16:41:13.999Z</time></trkpt><trkpt lat="44.43468533009721" lon="8.095914944067367"><ele>720.0</ele><time>2026-04-19T16:41:14.999Z</time></trkpt><trkpt lat="44.43483522103862" lon="8.095800074780842"><ele>720.0</ele><time>2026-04-19T16:41:15.999Z</time></trkpt><trkpt lat="44.43501916580904" lon="8.09572349031212"><ele>720.0</ele><time>2026-04-19T16:41:16.999Z</time></trkpt><trkpt lat="44.435206598033304" lon="8.095669423529909"><ele>720.0</ele><time>2026-04-19T16:41:17.999Z</time></trkpt><trkpt lat="44.43536692130044" lon="8.09559706487642"><ele>720.0</ele><time>2026-04-19T16:41:18.999Z</time></trkpt><trkpt lat="44.43551646135429" lon="8.095473173624546"><ele>722.0</ele><time>2026-04-19T16:41:19.999Z</time></trkpt><trkpt lat="44.435648607714434" lon="8.095304936930733"><ele>724.0</ele><time>2026-04-19T16:41:20.999Z</time></trkpt><trkpt lat="44.435744248425884" lon="8.0950972375659"><ele>726.0</ele><time>2026-04-19T16:41:21.999Z</time></trkpt><trkpt lat="44.435837662777544" lon="8.094907142304422"><ele>726.0</ele><time>2026-04-19T16:41:22.999Z</time></trkpt><trkpt lat="44.43592155549999" lon="8.094737180724115"><ele>726.0</ele><time>2026-04-19T16:41:23.999Z</time></trkpt><trkpt lat="44.4360173876393" lon="8.094588495955868"><ele>726.0</ele><time>2026-04-19T16:41:24.999Z</time></trkpt><trkpt lat="44.43613517339603" lon="8.094463417303027"><ele>726.0</ele><time>2026-04-19T16:41:25.999Z</time></trkpt><trkpt lat="44.436282493747974" lon="8.094407672640228"><ele>727.3333333333334</ele><time>2026-04-19T16:41:26.999Z</time></trkpt><trkpt lat="44.43644289503667" lon="8.09441215820523"><ele>728.6666666666667</ele><time>2026-04-19T16:41:27.999Z</time></trkpt><trkpt lat="44.43662269452854" lon="8.094473874772012"><ele>730.0</ele><time>2026-04-19T16:41:28.999Z</time></trkpt><trkpt lat="44.4368120124577" lon="8.094550776317382"><ele>730.0</ele><time>2026-04-19T16:41:29.999Z</time></trkpt><trkpt lat="44.4370270119391" lon="8.09460325134435"><ele>730.0</ele><time>2026-04-19T16:41:30.999Z</time></trkpt><trkpt lat="44.437261956466585" lon="8.094624945141792"><ele>730.5</ele><time>2026-04-19T16:41:31.999Z</time></trkpt><trkpt lat="44.43749941407159" lon="8.094642498894059"><ele>731.0</ele><time>2026-04-19T16:41:32.999Z</time></trkpt><trkpt lat="44.43771661272138" lon="8.09465680677666"><ele>731.0</ele><time>2026-04-19T16:41:33.999Z</time></trkpt><trkpt lat="44.437919743914776" lon="8.094666940198847"><ele>731.0</ele><time>2026-04-19T16:41:34.999Z</time></trkpt><trkpt lat="44.4381129562633" lon="8.094647755594709"><ele>731.0</ele><time>2026-04-19T16:41:35.999Z</time></trkpt><trkpt lat="44.43830051515577" lon="8.094579502809676"><ele>733.0</ele><time>2026-04-19T16:41:36.999Z</time></trkpt><trkpt lat="44.43848494963758" lon="8.094450490864176"><ele>735.0</ele><time>2026-04-19T16:41:37.999Z</time></trkpt><trkpt lat="44.438664635179926" lon="8.094277206174292"><ele>737.0</ele><time>2026-04-19T16:41:38.999Z</time></trkpt><trkpt lat="44.438844682700015" lon="8.094065006663639"><ele>737.0</ele><time>2026-04-19T16:41:39.999Z</time></trkpt><trkpt lat="44.43903194107174" lon="8.09385064039953"><ele>737.0</ele><time>2026-04-19T16:41:40.999Z</time></trkpt><trkpt lat="44.43921061446868" lon="8.093656613291161"><ele>737.0</ele><time>2026-04-19T16:41:41.999Z</time></trkpt><trkpt lat="44.439376515535024" lon="8.0934687026194"><ele>737.0</ele><time>2026-04-19T16:41:42.999Z</time></trkpt><trkpt lat="44.43953132952554" lon="8.093245017369291"><ele>737.0</ele><time>2026-04-19T16:41:43.999Z</time></trkpt><trkpt lat="44.43966832331101" lon="8.092978381708802"><ele>740.0</ele><time>2026-04-19T16:41:44.999Z</time></trkpt><trkpt lat="44.43979035177011" lon="8.092725774406857"><ele>743.0</ele><time>2026-04-19T16:41:45.999Z</time></trkpt><trkpt lat="44.43988910263949" lon="8.092489447248132"><ele>746.0</ele><time>2026-04-19T16:41:46.999Z</time></trkpt><trkpt lat="44.43994498461198" lon="8.092244890741716"><ele>746.6666666666666</ele><time>2026-04-19T16:41:47.999Z</time></trkpt><trkpt lat="44.439961324578206" lon="8.091969266365643"><ele>747.3333333333334</ele><time>2026-04-19T16:41:48.999Z</time></trkpt><trkpt lat="44.43998552336622" lon="8.0916641187494"><ele>748.0</ele><time>2026-04-19T16:41:49.999Z</time></trkpt><trkpt lat="44.43999337143707" lon="8.091368080369906"><ele>749.6666666666667</ele><time>2026-04-19T16:41:50.999Z</time></trkpt><trkpt lat="44.44000464321091" lon="8.091102063705174"><ele>751.3333333333334</ele><time>2026-04-19T16:41:51.999Z</time></trkpt><trkpt lat="44.44002385008955" lon="8.090871758069227"><ele>753.0</ele><time>2026-04-19T16:41:52.999Z</time></trkpt><trkpt lat="44.44007885406304" lon="8.090668449626486"><ele>749.6666666666666</ele><time>2026-04-19T16:41:53.999Z</time></trkpt><trkpt lat="44.44018237965352" lon="8.090476012066807"><ele>746.3333333333333</ele><time>2026-04-19T16:41:54.999Z</time></trkpt><trkpt lat="44.44030906069567" lon="8.090257446952416"><ele>743.0</ele><time>2026-04-19T16:41:56Z</time></trkpt><trkpt lat="44.440445267889906" lon="8.090029207527202"><ele>749.5</ele><time>2026-04-19T16:41:57Z</time></trkpt><trkpt lat="44.44055619304117" lon="8.089752466068239"><ele>756.0</ele><time>2026-04-19T16:41:58Z</time></trkpt><trkpt lat="44.44064727359817" lon="8.089445065709375"><ele>756.0</ele><time>2026-04-19T16:41:59Z</time></trkpt><trkpt lat="44.44075728266823" lon="8.089136538847404"><ele>756.0</ele><time>2026-04-19T16:42:00Z</time></trkpt><trkpt lat="44.440861901664846" lon="8.08881305530334"><ele>754.0</ele><time>2026-04-19T16:42:01Z</time></trkpt><trkpt lat="44.4409625793311" lon="8.08847739327424"><ele>752.0</ele><time>2026-04-19T16:42:02Z</time></trkpt><trkpt lat="44.441038909691805" lon="8.088123781335607"><ele>749.0</ele><time>2026-04-19T16:42:03Z</time></trkpt><trkpt lat="44.44113653794412" lon="8.08779034310746"><ele>746.0</ele><time>2026-04-19T16:42:04Z</time></trkpt><trkpt lat="44.441266317093955" lon="8.087492335075165"><ele>756.5</ele><time>2026-04-19T16:42:05Z</time></trkpt><trkpt lat="44.441357695576585" lon="8.087178875346751"><ele>767.0</ele><time>2026-04-19T16:42:06Z</time></trkpt><trkpt lat="44.4414726993392" lon="8.086907742949393"><ele>767.0</ele><time>2026-04-19T16:42:07Z</time></trkpt><trkpt lat="44.44156814563381" lon="8.086657455711734"><ele>767.0</ele><time>2026-04-19T16:42:08Z</time></trkpt><trkpt lat="44.44165401113636" lon="8.086432715120653"><ele>767.0</ele><time>2026-04-19T16:42:09Z</time></trkpt><trkpt lat="44.441727751767075" lon="8.086242078026581"><ele>763.6666666666666</ele><time>2026-04-19T16:42:10Z</time></trkpt><trkpt lat="44.44180950943349" lon="8.086072625007295"><ele>760.3333333333334</ele><time>2026-04-19T16:42:11Z</time></trkpt><trkpt lat="44.44193653690953" lon="8.085945849581424"><ele>757.0</ele><time>2026-04-19T16:42:12Z</time></trkpt><trkpt lat="44.442110820975465" lon="8.085871780017536"><ele>755.3333333333334</ele><time>2026-04-19T16:42:13Z</time></trkpt><trkpt lat="44.44229815539934" lon="8.085777389585488"><ele>753.6666666666666</ele><time>2026-04-19T16:42:14Z</time></trkpt><trkpt lat="44.44249413609185" lon="8.085684366923811"><ele>752.0</ele><time>2026-04-19T16:42:15Z</time></trkpt><trkpt lat="44.44268306415001" lon="8.085604257125897"><ele>752.0</ele><time>2026-04-19T16:42:16Z</time></trkpt><trkpt lat="44.44287165411101" lon="8.085499606377667"><ele>752.0</ele><time>2026-04-19T16:42:17Z</time></trkpt><trkpt lat="44.44308023793049" lon="8.08545869345612"><ele>752.0</ele><time>2026-04-19T16:42:18Z</time></trkpt><trkpt lat="44.44328905712086" lon="8.085440065633117"><ele>754.6666666666666</ele><time>2026-04-19T16:42:19Z</time></trkpt><trkpt lat="44.44348040251078" lon="8.085427771055306"><ele>757.3333333333334</ele><time>2026-04-19T16:42:20Z</time></trkpt><trkpt lat="44.44365700463814" lon="8.085411014860297"><ele>760.0</ele><time>2026-04-19T16:42:21Z</time></trkpt><trkpt lat="44.44381776035116" lon="8.085389123955816"><ele>760.3333333333334</ele><time>2026-04-19T16:42:22Z</time></trkpt><trkpt lat="44.44395205692285" lon="8.085267260350083"><ele>760.6666666666666</ele><time>2026-04-19T16:42:23Z</time></trkpt><trkpt lat="44.444083326341534" lon="8.085115981982378"><ele>761.0</ele><time>2026-04-19T16:42:24Z</time></trkpt><trkpt lat="44.444209685530225" lon="8.084919726402845"><ele>761.0</ele><time>2026-04-19T16:42:25Z</time></trkpt><trkpt lat="44.44436064980116" lon="8.084737744278529"><ele>761.0</ele><time>2026-04-19T16:42:26Z</time></trkpt><trkpt lat="44.444497318310226" lon="8.084542114552551"><ele>761.0</ele><time>2026-04-19T16:42:27Z</time></trkpt><trkpt lat="44.44464986562058" lon="8.08440607876948"><ele>766.3333333333333</ele><time>2026-04-19T16:42:28Z</time></trkpt><trkpt lat="44.444788017709435" lon="8.084267024405102"><ele>771.6666666666666</ele><time>2026-04-19T16:42:29Z</time></trkpt><trkpt lat="44.44489350837826" lon="8.084102581727072"><ele>777.0</ele><time>2026-04-19T16:42:30Z</time></trkpt><trkpt lat="44.4449716995172" lon="8.083886096257235"><ele>777.0</ele><time>2026-04-19T16:42:31Z</time></trkpt><trkpt lat="44.445007855624766" lon="8.083628580807092"><ele>777.0</ele><time>2026-04-19T16:42:32Z</time></trkpt><trkpt lat="44.44502520525603" lon="8.083338874744982"><ele>777.0</ele><time>2026-04-19T16:42:33Z</time></trkpt><trkpt lat="44.44506104360541" lon="8.083030329179165"><ele>775.5</ele><time>2026-04-19T16:42:34Z</time></trkpt><trkpt lat="44.44508865895781" lon="8.082693178323058"><ele>774.0</ele><time>2026-04-19T16:42:35Z</time></trkpt><trkpt lat="44.44510417763421" lon="8.082347384082368"><ele>772.3333333333333</ele><time>2026-04-19T16:42:36Z</time></trkpt><trkpt lat="44.44513670774464" lon="8.082035927990434"><ele>770.6666666666666</ele><time>2026-04-19T16:42:37Z</time></trkpt><trkpt lat="44.44518581779692" lon="8.081742588488575"><ele>769.0</ele><time>2026-04-19T16:42:38Z</time></trkpt><trkpt lat="44.44527761110658" lon="8.081477036964602"><ele>765.0</ele><time>2026-04-19T16:42:39Z</time></trkpt><trkpt lat="44.44538803366826" lon="8.081204414732447"><ele>761.0</ele><time>2026-04-19T16:42:40Z</time></trkpt><trkpt lat="44.44550026804444" lon="8.080905058111693"><ele>769.5</ele><time>2026-04-19T16:42:41Z</time></trkpt><trkpt lat="44.44563991990954" lon="8.080604349424092"><ele>778.0</ele><time>2026-04-19T16:42:42Z</time></trkpt><trkpt lat="44.445776971716825" lon="8.080286375626457"><ele>778.0</ele><time>2026-04-19T16:42:43Z</time></trkpt><trkpt lat="44.445912189056905" lon="8.079968255098427"><ele>778.0</ele><time>2026-04-19T16:42:44Z</time></trkpt><trkpt lat="44.44603927696871" lon="8.07965685220908"><ele>773.0</ele><time>2026-04-19T16:42:45Z</time></trkpt><trkpt lat="44.44615677306087" lon="8.079359887163513"><ele>768.0</ele><time>2026-04-19T16:42:46Z</time></trkpt><trkpt lat="44.44625929442736" lon="8.079085577812885"><ele>776.0</ele><time>2026-04-19T16:42:47Z</time></trkpt><trkpt lat="44.44633861922264" lon="8.078815687927307"><ele>784.0</ele><time>2026-04-19T16:42:48Z</time></trkpt><trkpt lat="44.44637504334815" lon="8.078524984419603"><ele>792.0</ele><time>2026-04-19T16:42:49Z</time></trkpt><trkpt lat="44.446385770761815" lon="8.078189287793318"><ele>792.0</ele><time>2026-04-19T16:42:50Z</time></trkpt><trkpt lat="44.44642552217537" lon="8.077837711040983"><ele>792.0</ele><time>2026-04-19T16:42:51Z</time></trkpt><trkpt lat="44.44643577918363" lon="8.077482608480642"><ele>787.5</ele><time>2026-04-19T16:42:52Z</time></trkpt><trkpt lat="44.446480568817194" lon="8.077137208449644"><ele>783.0</ele><time>2026-04-19T16:42:53Z</time></trkpt><trkpt lat="44.44655743854784" lon="8.076813856024916"><ele>780.3333333333333</ele><time>2026-04-19T16:42:54Z</time></trkpt><trkpt lat="44.446590958248564" lon="8.07650279982164"><ele>777.6666666666666</ele><time>2026-04-19T16:42:55Z</time></trkpt><trkpt lat="44.446604849584745" lon="8.076225452666188"><ele>775.0</ele><time>2026-04-19T16:42:56Z</time></trkpt><trkpt lat="44.446690101269375" lon="8.075977692916817"><ele>772.0</ele><time>2026-04-19T16:42:57Z</time></trkpt><trkpt lat="44.44680621887179" lon="8.075722289087958"><ele>769.0</ele><time>2026-04-19T16:42:58Z</time></trkpt><trkpt lat="44.44691833928631" lon="8.075474815233646"><ele>766.0</ele><time>2026-04-19T16:42:59Z</time></trkpt><trkpt lat="44.44701875173479" lon="8.075238159818397"><ele>766.0</ele><time>2026-04-19T16:43:00Z</time></trkpt><trkpt lat="44.44709977870617" lon="8.07499509013643"><ele>766.0</ele><time>2026-04-19T16:43:01Z</time></trkpt><trkpt lat="44.447112063814124" lon="8.074703003112864"><ele>766.0</ele><time>2026-04-19T16:43:02Z</time></trkpt><trkpt lat="44.44707691054077" lon="8.074410343638842"><ele>767.0</ele><time>2026-04-19T16:43:03Z</time></trkpt><trkpt lat="44.44703451159461" lon="8.074089597261693"><ele>768.0</ele><time>2026-04-19T16:43:04Z</time></trkpt><trkpt lat="44.44699029535965" lon="8.073748439516576"><ele>768.0</ele><time>2026-04-19T16:43:04.999Z</time></trkpt><trkpt lat="44.44694858353659" lon="8.073394629216427"><ele>768.0</ele><time>2026-04-19T16:43:05.999Z</time></trkpt><trkpt lat="44.44689840995789" lon="8.07303496077605"><ele>771.5</ele><time>2026-04-19T16:43:06.999Z</time></trkpt><trkpt lat="44.446848641341205" lon="8.072661004451199"><ele>775.0</ele><time>2026-04-19T16:43:07.999Z</time></trkpt><trkpt lat="44.44674733588144" lon="8.072301911707738"><ele>776.5</ele><time>2026-04-19T16:43:08.999Z</time></trkpt><trkpt lat="44.44666464207923" lon="8.07195507239438"><ele>778.0</ele><time>2026-04-19T16:43:09.999Z</time></trkpt><trkpt lat="44.446591760440185" lon="8.071609236490906"><ele>780.0</ele><time>2026-04-19T16:43:10.999Z</time></trkpt><trkpt lat="44.44652853897481" lon="8.07123870977866"><ele>782.0</ele><time>2026-04-19T16:43:11.999Z</time></trkpt><trkpt lat="44.44647377014704" lon="8.070850580257408"><ele>782.0</ele><time>2026-04-19T16:43:12.999Z</time></trkpt><trkpt lat="44.44642226994094" lon="8.070446509227073"><ele>782.0</ele><time>2026-04-19T16:43:13.999Z</time></trkpt><trkpt lat="44.4463690900748" lon="8.07006159111158"><ele>782.5</ele><time>2026-04-19T16:43:14.999Z</time></trkpt><trkpt lat="44.44631566624368" lon="8.069697667744364"><ele>783.0</ele><time>2026-04-19T16:43:15.999Z</time></trkpt><trkpt lat="44.44626977687581" lon="8.069346651647665"><ele>774.5</ele><time>2026-04-19T16:43:16.999Z</time></trkpt><trkpt lat="44.44623739349886" lon="8.069012740168485"><ele>766.0</ele><time>2026-04-19T16:43:17.999Z</time></trkpt><trkpt lat="44.44622650905269" lon="8.068697655684852"><ele>766.0</ele><time>2026-04-19T16:43:18.999Z</time></trkpt><trkpt lat="44.44625620388046" lon="8.068421902605728"><ele>766.0</ele><time>2026-04-19T16:43:19.999Z</time></trkpt><trkpt lat="44.446319885305286" lon="8.06816750495262"><ele>766.0</ele><time>2026-04-19T16:43:20.999Z</time></trkpt><trkpt lat="44.44642560530883" lon="8.067951292132859"><ele>769.6666666666667</ele><time>2026-04-19T16:43:21.999Z</time></trkpt><trkpt lat="44.44652658516498" lon="8.067728291837144"><ele>773.3333333333334</ele><time>2026-04-19T16:43:22.999Z</time></trkpt><trkpt lat="44.44660430874788" lon="8.067454400450238"><ele>777.0</ele><time>2026-04-19T16:43:23.999Z</time></trkpt><trkpt lat="44.44665055160059" lon="8.06714460621061"><ele>777.0</ele><time>2026-04-19T16:43:24.999Z</time></trkpt><trkpt lat="44.44666496980447" lon="8.066811989600785"><ele>777.0</ele><time>2026-04-19T16:43:25.999Z</time></trkpt><trkpt lat="44.44664885207732" lon="8.066475917985272"><ele>777.6666666666667</ele><time>2026-04-19T16:43:26.999Z</time></trkpt><trkpt lat="44.44663369799539" lon="8.066163939810238"><ele>778.3333333333334</ele><time>2026-04-19T16:43:27.999Z</time></trkpt><trkpt lat="44.446629882886334" lon="8.06586654588484"><ele>779.0</ele><time>2026-04-19T16:43:28.999Z</time></trkpt><trkpt lat="44.44664920466037" lon="8.065564633142442"><ele>779.0</ele><time>2026-04-19T16:43:29.999Z</time></trkpt><trkpt lat="44.44670593324364" lon="8.065258516958997"><ele>779.0</ele><time>2026-04-19T16:43:30.999Z</time></trkpt><trkpt lat="44.44680111956405" lon="8.064955072976467"><ele>776.6666666666667</ele><time>2026-04-19T16:43:31.999Z</time></trkpt><trkpt lat="44.44691992304342" lon="8.064711489687786"><ele>774.3333333333333</ele><time>2026-04-19T16:43:32.999Z</time></trkpt><trkpt lat="44.44701287841848" lon="8.064486732424601"><ele>772.0</ele><time>2026-04-19T16:43:33.999Z</time></trkpt><trkpt lat="44.447073436876224" lon="8.064208270523684"><ele>769.5</ele><time>2026-04-19T16:43:34.999Z</time></trkpt><trkpt lat="44.44709561114377" lon="8.063880983707985"><ele>767.0</ele><time>2026-04-19T16:43:35.999Z</time></trkpt><trkpt lat="44.44711100942027" lon="8.063522973689484"><ele>775.0</ele><time>2026-04-19T16:43:36.999Z</time></trkpt><trkpt lat="44.44713464179237" lon="8.063144057011378"><ele>783.0</ele><time>2026-04-19T16:43:37.999Z</time></trkpt><trkpt lat="44.447162272071566" lon="8.062751664666738"><ele>784.0</ele><time>2026-04-19T16:43:38.999Z</time></trkpt><trkpt lat="44.44718642410779" lon="8.062389507380441"><ele>785.0</ele><time>2026-04-19T16:43:39.999Z</time></trkpt><trkpt lat="44.447209105314606" lon="8.062067182690141"><ele>785.0</ele><time>2026-04-19T16:43:40.999Z</time></trkpt><trkpt lat="44.44722786459922" lon="8.061784799730031"><ele>785.0</ele><time>2026-04-19T16:43:41.999Z</time></trkpt><trkpt lat="44.44723702604514" lon="8.061539260831472"><ele>785.0</ele><time>2026-04-19T16:43:42.999Z</time></trkpt><trkpt lat="44.44722317874587" lon="8.061329912718108"><ele>785.5</ele><time>2026-04-19T16:43:43.999Z</time></trkpt><trkpt lat="44.44718277039085" lon="8.061139199244975"><ele>786.0</ele><time>2026-04-19T16:43:44.999Z</time></trkpt><trkpt lat="44.44711449023426" lon="8.060978612864512"><ele>786.5</ele><time>2026-04-19T16:43:45.999Z</time></trkpt><trkpt lat="44.44703867046668" lon="8.060844850839363"><ele>787.0</ele><time>2026-04-19T16:43:46.999Z</time></trkpt><trkpt lat="44.446975419936116" lon="8.060720679681332"><ele>787.0</ele><time>2026-04-19T16:43:47.999Z</time></trkpt><trkpt lat="44.44692432879091" lon="8.060592022513948"><ele>787.0</ele><time>2026-04-19T16:43:48.999Z</time></trkpt><trkpt lat="44.446877578269074" lon="8.06042673883773"><ele>787.0</ele><time>2026-04-19T16:43:49.999Z</time></trkpt><trkpt lat="44.44684329344473" lon="8.060230452641594"><ele>787.0</ele><time>2026-04-19T16:43:50.999Z</time></trkpt><trkpt lat="44.4468128276562" lon="8.060016255318605"><ele>788.6666666666666</ele><time>2026-04-19T16:43:51.999Z</time></trkpt><trkpt lat="44.44678714052974" lon="8.059792372481377"><ele>790.3333333333333</ele><time>2026-04-19T16:43:52.999Z</time></trkpt><trkpt lat="44.4467658003374" lon="8.059575371758427"><ele>792.0</ele><time>2026-04-19T16:43:53.999Z</time></trkpt><trkpt lat="44.44674739536512" lon="8.05937806786265"><ele>792.0</ele><time>2026-04-19T16:43:54.999Z</time></trkpt><trkpt lat="44.44673990199254" lon="8.059195389898703"><ele>792.0</ele><time>2026-04-19T16:43:55.999Z</time></trkpt><trkpt lat="44.44675071889411" lon="8.059025362687366"><ele>792.0</ele><time>2026-04-19T16:43:56.999Z</time></trkpt><trkpt lat="44.446778252820195" lon="8.058870304393377"><ele>792.0</ele><time>2026-04-19T16:43:57.999Z</time></trkpt><trkpt lat="44.44682643289021" lon="8.058712542966358"><ele>791.3333333333333</ele><time>2026-04-19T16:43:58.999Z</time></trkpt><trkpt lat="44.446899819011435" lon="8.058555837085994"><ele>790.6666666666666</ele><time>2026-04-19T16:43:59.999Z</time></trkpt><trkpt lat="44.44701126660657" lon="8.0583913104073"><ele>790.0</ele><time>2026-04-19T16:44:01Z</time></trkpt><trkpt lat="44.44715943745707" lon="8.058220594536163"><ele>784.0</ele><time>2026-04-19T16:44:02Z</time></trkpt><trkpt lat="44.44733989844192" lon="8.058048865462974"><ele>778.0</ele><time>2026-04-19T16:44:03Z</time></trkpt><trkpt lat="44.447535407649355" lon="8.05785995184545"><ele>778.0</ele><time>2026-04-19T16:44:04Z</time></trkpt><trkpt lat="44.447736746158135" lon="8.057636657139755"><ele>778.0</ele><time>2026-04-19T16:44:05Z</time></trkpt><trkpt lat="44.44792275475683" lon="8.05739478986804"><ele>773.0</ele><time>2026-04-19T16:44:06Z</time></trkpt><trkpt lat="44.448099085229394" lon="8.057160564189111"><ele>768.0</ele><time>2026-04-19T16:44:07Z</time></trkpt><trkpt lat="44.44828322042112" lon="8.056944989496802"><ele>768.0</ele><time>2026-04-19T16:44:08Z</time></trkpt><trkpt lat="44.44847085075255" lon="8.056762725587708"><ele>768.0</ele><time>2026-04-19T16:44:09Z</time></trkpt><trkpt lat="44.44865648349834" lon="8.056618590581603"><ele>768.0</ele><time>2026-04-19T16:44:10Z</time></trkpt><trkpt lat="44.44885907824661" lon="8.05649909909"><ele>762.5</ele><time>2026-04-19T16:44:11Z</time></trkpt><trkpt lat="44.44908471995184" lon="8.056411255968783"><ele>757.0</ele><time>2026-04-19T16:44:12Z</time></trkpt><trkpt lat="44.44932245304977" lon="8.056330205053897"><ele>757.0</ele><time>2026-04-19T16:44:13Z</time></trkpt><trkpt lat="44.44956118132776" lon="8.056226632917936"><ele>757.0</ele><time>2026-04-19T16:44:14Z</time></trkpt><trkpt lat="44.449787996441735" lon="8.05610138163742"><ele>758.5</ele><time>2026-04-19T16:44:15Z</time></trkpt><trkpt lat="44.45000343276163" lon="8.055976817606064"><ele>760.0</ele><time>2026-04-19T16:44:16Z</time></trkpt><trkpt lat="44.45021056923713" lon="8.055849545460818"><ele>759.3333333333334</ele><time>2026-04-19T16:44:17Z</time></trkpt><trkpt lat="44.45039639154281" lon="8.055690677508107"><ele>758.6666666666666</ele><time>2026-04-19T16:44:18Z</time></trkpt><trkpt lat="44.45056861911576" lon="8.05548635856077"><ele>758.0</ele><time>2026-04-19T16:44:19Z</time></trkpt><trkpt lat="44.45072611994876" lon="8.055240617757198"><ele>758.0</ele><time>2026-04-19T16:44:20Z</time></trkpt><trkpt lat="44.45086375270252" lon="8.054970233522349"><ele>758.0</ele><time>2026-04-19T16:44:21Z</time></trkpt><trkpt lat="44.45097415299164" lon="8.054676320340993"><ele>756.6666666666666</ele><time>2026-04-19T16:44:22Z</time></trkpt><trkpt lat="44.451054617699164" lon="8.054385948152023"><ele>755.3333333333334</ele><time>2026-04-19T16:44:23Z</time></trkpt><trkpt lat="44.45111163889516" lon="8.054105259610989"><ele>754.0</ele><time>2026-04-19T16:44:24Z</time></trkpt><trkpt lat="44.45114429764443" lon="8.053832995201567"><ele>753.0</ele><time>2026-04-19T16:44:25Z</time></trkpt><trkpt lat="44.451184494177475" lon="8.053579438387171"><ele>752.0</ele><time>2026-04-19T16:44:26Z</time></trkpt><trkpt lat="44.45126187796068" lon="8.053316910912343"><ele>751.0</ele><time>2026-04-19T16:44:27Z</time></trkpt><trkpt lat="44.45140108798133" lon="8.053070410115364"><ele>759.5</ele><time>2026-04-19T16:44:28Z</time></trkpt><trkpt lat="44.451528861026496" lon="8.052803069373411"><ele>768.0</ele><time>2026-04-19T16:44:29Z</time></trkpt><trkpt lat="44.4516771745557" lon="8.052547248203757"><ele>763.0</ele><time>2026-04-19T16:44:30Z</time></trkpt><trkpt lat="44.45178383368395" lon="8.05225188221433"><ele>758.0</ele><time>2026-04-19T16:44:31Z</time></trkpt><trkpt lat="44.45184591030214" lon="8.051960853607042"><ele>758.0</ele><time>2026-04-19T16:44:32Z</time></trkpt><trkpt lat="44.451913864144366" lon="8.051701914901274"><ele>758.0</ele><time>2026-04-19T16:44:33Z</time></trkpt><trkpt lat="44.451991076977905" lon="8.051475443835"><ele>758.0</ele><time>2026-04-19T16:44:34Z</time></trkpt><trkpt lat="44.45208848282678" lon="8.051290903187002"><ele>760.6666666666666</ele><time>2026-04-19T16:44:35Z</time></trkpt><trkpt lat="44.452214588925195" lon="8.051145955698296"><ele>763.3333333333334</ele><time>2026-04-19T16:44:36Z</time></trkpt><trkpt lat="44.45237639529348" lon="8.051040747520906"><ele>766.0</ele><time>2026-04-19T16:44:37Z</time></trkpt><trkpt lat="44.45256225152238" lon="8.050983252644341"><ele>766.0</ele><time>2026-04-19T16:44:38Z</time></trkpt><trkpt lat="44.45275885985522" lon="8.050963335122585"><ele>766.0</ele><time>2026-04-19T16:44:39Z</time></trkpt><trkpt lat="44.45294537651414" lon="8.050957342900107"><ele>766.0</ele><time>2026-04-19T16:44:40Z</time></trkpt><trkpt lat="44.453122279600194" lon="8.050922126129473"><ele>763.6666666666667</ele><time>2026-04-19T16:44:41Z</time></trkpt><trkpt lat="44.45330689904278" lon="8.050827399541513"><ele>761.3333333333334</ele><time>2026-04-19T16:44:42Z</time></trkpt><trkpt lat="44.45347864329728" lon="8.050717860948708"><ele>759.0</ele><time>2026-04-19T16:44:43Z</time></trkpt><trkpt lat="44.45363439238116" lon="8.050608835867749"><ele>759.0</ele><time>2026-04-19T16:44:44Z</time></trkpt><trkpt lat="44.45377665110808" lon="8.050468556546095"><ele>759.0</ele><time>2026-04-19T16:44:45Z</time></trkpt><trkpt lat="44.4538904449471" lon="8.050315053266685"><ele>759.0</ele><time>2026-04-19T16:44:46Z</time></trkpt><trkpt lat="44.4539861818053" lon="8.050161444390069"><ele>760.6666666666666</ele><time>2026-04-19T16:44:47Z</time></trkpt><trkpt lat="44.45407178701815" lon="8.04999031525987"><ele>762.3333333333333</ele><time>2026-04-19T16:44:48Z</time></trkpt><trkpt lat="44.454148182783165" lon="8.049801020162906"><ele>764.0</ele><time>2026-04-19T16:44:49Z</time></trkpt><trkpt lat="44.454221768333774" lon="8.049592643283697"><ele>764.0</ele><time>2026-04-19T16:44:50Z</time></trkpt><trkpt lat="44.45431667033318" lon="8.049367530468594"><ele>764.0</ele><time>2026-04-19T16:44:51Z</time></trkpt><trkpt lat="44.45440603759232" lon="8.049106641490026"><ele>764.0</ele><time>2026-04-19T16:44:52Z</time></trkpt><trkpt lat="44.45449316255799" lon="8.048843083276463"><ele>764.3333333333333</ele><time>2026-04-19T16:44:53Z</time></trkpt><trkpt lat="44.45461102175773" lon="8.048606628265148"><ele>764.6666666666666</ele><time>2026-04-19T16:44:54Z</time></trkpt><trkpt lat="44.454734804493235" lon="8.048366473855305"><ele>765.0</ele><time>2026-04-19T16:44:55Z</time></trkpt><trkpt lat="44.45483615463685" lon="8.048102435474839"><ele>765.0</ele><time>2026-04-19T16:44:56Z</time></trkpt><trkpt lat="44.45490089977045" lon="8.047821059538663"><ele>765.0</ele><time>2026-04-19T16:44:57Z</time></trkpt><trkpt lat="44.45495395138691" lon="8.04755001448224"><ele>765.0</ele><time>2026-04-19T16:44:58Z</time></trkpt><trkpt lat="44.45501294942325" lon="8.047299998681902"><ele>763.0</ele><time>2026-04-19T16:44:59Z</time></trkpt><trkpt lat="44.45505193883032" lon="8.047060558966688"><ele>761.0</ele><time>2026-04-19T16:45:00Z</time></trkpt><trkpt lat="44.45510296586313" lon="8.046842042451624"><ele>759.0</ele><time>2026-04-19T16:45:01Z</time></trkpt><trkpt lat="44.455210276067824" lon="8.046669214202494"><ele>759.0</ele><time>2026-04-19T16:45:02Z</time></trkpt><trkpt lat="44.455345927321616" lon="8.046527328066377"><ele>759.0</ele><time>2026-04-19T16:45:03Z</time></trkpt><trkpt lat="44.45550457327239" lon="8.046405088377417"><ele>759.0</ele><time>2026-04-19T16:45:04Z</time></trkpt><trkpt lat="44.455669572717355" lon="8.046256143128298"><ele>759.0</ele><time>2026-04-19T16:45:05Z</time></trkpt><trkpt lat="44.4558177619849" lon="8.046034714715667"><ele>759.0</ele><time>2026-04-19T16:45:06Z</time></trkpt><trkpt lat="44.455950138062946" lon="8.045766249966348"><ele>754.5</ele><time>2026-04-19T16:45:07Z</time></trkpt><trkpt lat="44.45608026528496" lon="8.045475300771365"><ele>750.0</ele><time>2026-04-19T16:45:08Z</time></trkpt><trkpt lat="44.45622691868163" lon="8.045180310178809"><ele>756.0</ele><time>2026-04-19T16:45:09Z</time></trkpt><trkpt lat="44.45638881875904" lon="8.044885033887818"><ele>762.0</ele><time>2026-04-19T16:45:10Z</time></trkpt><trkpt lat="44.456545301701944" lon="8.044607795209537"><ele>762.0</ele><time>2026-04-19T16:45:11Z</time></trkpt><trkpt lat="44.45668424057814" lon="8.044350719273707"><ele>762.0</ele><time>2026-04-19T16:45:12Z</time></trkpt><trkpt lat="44.45679816156139" lon="8.044097280246671"><ele>762.0</ele><time>2026-04-19T16:45:13Z</time></trkpt><trkpt lat="44.45687873568384" lon="8.04383529564624"><ele>759.6666666666666</ele><time>2026-04-19T16:45:14Z</time></trkpt><trkpt lat="44.4569319103889" lon="8.043577607817797"><ele>757.3333333333333</ele><time>2026-04-19T16:45:15Z</time></trkpt><trkpt lat="44.45700450546848" lon="8.043344726439678"><ele>755.0</ele><time>2026-04-19T16:45:16Z</time></trkpt><trkpt lat="44.45710931486844" lon="8.043117288814107"><ele>759.0</ele><time>2026-04-19T16:45:16.999Z</time></trkpt><trkpt lat="44.45723951762834" lon="8.042897052181754"><ele>763.0</ele><time>2026-04-19T16:45:17.999Z</time></trkpt><trkpt lat="44.45738734465023" lon="8.042680435516914"><ele>767.0</ele><time>2026-04-19T16:45:18.999Z</time></trkpt><trkpt lat="44.45753542461528" lon="8.042500104250543"><ele>764.3333333333333</ele><time>2026-04-19T16:45:19.999Z</time></trkpt><trkpt lat="44.45767697295564" lon="8.042337457963463"><ele>761.6666666666666</ele><time>2026-04-19T16:45:20.999Z</time></trkpt><trkpt lat="44.45780644914406" lon="8.042181159329925"><ele>759.0</ele><time>2026-04-19T16:45:21.999Z</time></trkpt><trkpt lat="44.457931373002936" lon="8.042016671859296"><ele>764.0</ele><time>2026-04-19T16:45:22.999Z</time></trkpt><trkpt lat="44.45805266310472" lon="8.041824107813616"><ele>769.0</ele><time>2026-04-19T16:45:23.999Z</time></trkpt><trkpt lat="44.458159281098474" lon="8.041598482919504"><ele>774.0</ele><time>2026-04-19T16:45:24.999Z</time></trkpt><trkpt lat="44.458250306387164" lon="8.041354310094816"><ele>775.0</ele><time>2026-04-19T16:45:25.999Z</time></trkpt><trkpt lat="44.45832270996361" lon="8.041090404490197"><ele>776.0</ele><time>2026-04-19T16:45:26.999Z</time></trkpt><trkpt lat="44.45836892275076" lon="8.040815333555912"><ele>777.0</ele><time>2026-04-19T16:45:27.999Z</time></trkpt><trkpt lat="44.458398888764016" lon="8.040552512926139"><ele>778.0</ele><time>2026-04-19T16:45:28.999Z</time></trkpt><trkpt lat="44.45842145490551" lon="8.040307304365827"><ele>779.0</ele><time>2026-04-19T16:45:29.999Z</time></trkpt><trkpt lat="44.458416615822735" lon="8.040053024506292"><ele>780.0</ele><time>2026-04-19T16:45:30.999Z</time></trkpt><trkpt lat="44.45838105654734" lon="8.039784865294616"><ele>783.0</ele><time>2026-04-19T16:45:31.999Z</time></trkpt><trkpt lat="44.458310090850745" lon="8.039512472030456"><ele>786.0</ele><time>2026-04-19T16:45:32.999Z</time></trkpt><trkpt lat="44.458238394918595" lon="8.039239827480868"><ele>789.0</ele><time>2026-04-19T16:45:33.999Z</time></trkpt><trkpt lat="44.458168791882876" lon="8.039006291286904"><ele>789.5</ele><time>2026-04-19T16:45:34.999Z</time></trkpt><trkpt lat="44.45810074721255" lon="8.038801742048301"><ele>790.0</ele><time>2026-04-19T16:45:35.999Z</time></trkpt><trkpt lat="44.458090603924916" lon="8.038591883627697"><ele>790.5</ele><time>2026-04-19T16:45:36.999Z</time></trkpt><trkpt lat="44.4581221055428" lon="8.038410538009549"><ele>791.0</ele><time>2026-04-19T16:45:37.999Z</time></trkpt><trkpt lat="44.458190329649796" lon="8.038269221806894"><ele>787.75</ele><time>2026-04-19T16:45:38.999Z</time></trkpt><trkpt lat="44.45828956603102" lon="8.038168088031684"><ele>784.5</ele><time>2026-04-19T16:45:39.999Z</time></trkpt><trkpt lat="44.45841779626813" lon="8.038103552223737"><ele>781.25</ele><time>2026-04-19T16:45:40.999Z</time></trkpt><trkpt lat="44.45857041088924" lon="8.038088757195375"><ele>778.0</ele><time>2026-04-19T16:45:41.999Z</time></trkpt><trkpt lat="44.45874058893933" lon="8.038115285838412"><ele>778.6666666666666</ele><time>2026-04-19T16:45:42.999Z</time></trkpt><trkpt lat="44.458926547426216" lon="8.03817138960941"><ele>779.3333333333333</ele><time>2026-04-19T16:45:43.999Z</time></trkpt><trkpt lat="44.45909812921476" lon="8.038201828533847"><ele>780.0</ele><time>2026-04-19T16:45:44.999Z</time></trkpt><trkpt lat="44.45933307266372" lon="8.038222712956705"><ele>780.0</ele><time>2026-04-19T16:45:45.999Z</time></trkpt><trkpt lat="44.459580198944124" lon="8.038177639647708"><ele>780.0</ele><time>2026-04-19T16:45:46.999Z</time></trkpt><trkpt lat="44.45982047909446" lon="8.038089105716345"><ele>783.0</ele><time>2026-04-19T16:45:47.999Z</time></trkpt><trkpt lat="44.460029312391185" lon="8.037987045370182"><ele>786.0</ele><time>2026-04-19T16:45:48.999Z</time></trkpt><trkpt lat="44.46021466752302" lon="8.037849142010772"><ele>789.0</ele><time>2026-04-19T16:45:49.999Z</time></trkpt><trkpt lat="44.46038587175694" lon="8.0376572510853"><ele>791.0</ele><time>2026-04-19T16:45:50.999Z</time></trkpt><trkpt lat="44.46053697466132" lon="8.037455670777625"><ele>793.0</ele><time>2026-04-19T16:45:51.999Z</time></trkpt><trkpt lat="44.460657991976376" lon="8.037253068639512"><ele>795.0</ele><time>2026-04-19T16:45:52.999Z</time></trkpt><trkpt lat="44.460742303167514" lon="8.03704445429079"><ele>795.0</ele><time>2026-04-19T16:45:53.999Z</time></trkpt><trkpt lat="44.46080728797811" lon="8.036839978120861"><ele>795.0</ele><time>2026-04-19T16:45:54.999Z</time></trkpt><trkpt lat="44.46089811027803" lon="8.036694804124439"><ele>795.0</ele><time>2026-04-19T16:45:55.999Z</time></trkpt><trkpt lat="44.460997129517686" lon="8.03658963217875"><ele>795.0</ele><time>2026-04-19T16:45:56.999Z</time></trkpt><trkpt lat="44.461131986151514" lon="8.036554083935801"><ele>790.6666666666667</ele><time>2026-04-19T16:45:57.999Z</time></trkpt><trkpt lat="44.46131277164155" lon="8.036485886972647"><ele>786.3333333333334</ele><time>2026-04-19T16:45:58.999Z</time></trkpt><trkpt lat="44.461517742210034" lon="8.03641018383674"><ele>782.0</ele><time>2026-04-19T16:45:59.999Z</time></trkpt><trkpt lat="44.461733186433655" lon="8.03631015832901"><ele>782.0</ele><time>2026-04-19T16:46:00.999Z</time></trkpt><trkpt lat="44.46195526937533" lon="8.03622503969977"><ele>782.0</ele><time>2026-04-19T16:46:01.999Z</time></trkpt><trkpt lat="44.46217707776425" lon="8.036111947314662"><ele>783.0</ele><time>2026-04-19T16:46:02.999Z</time></trkpt><trkpt lat="44.46239950167069" lon="8.0359856790136"><ele>784.0</ele><time>2026-04-19T16:46:03.999Z</time></trkpt><trkpt lat="44.46261988698007" lon="8.035898790704465"><ele>784.0</ele><time>2026-04-19T16:46:04.999Z</time></trkpt><trkpt lat="44.46283449840894" lon="8.0358300111828"><ele>784.0</ele><time>2026-04-19T16:46:05.999Z</time></trkpt><trkpt lat="44.463054210487975" lon="8.035808727240815"><ele>784.0</ele><time>2026-04-19T16:46:07Z</time></trkpt><trkpt lat="44.463274975710746" lon="8.035784508203822"><ele>779.0</ele><time>2026-04-19T16:46:08Z</time></trkpt><trkpt lat="44.463480696841266" lon="8.035719051146074"><ele>774.0</ele><time>2026-04-19T16:46:09Z</time></trkpt><trkpt lat="44.46366431765055" lon="8.035624739308606"><ele>769.0</ele><time>2026-04-19T16:46:10Z</time></trkpt><trkpt lat="44.46383094450339" lon="8.035477855858934"><ele>769.0</ele><time>2026-04-19T16:46:11Z</time></trkpt><trkpt lat="44.46398660556615" lon="8.035300570856071"><ele>769.0</ele><time>2026-04-19T16:46:12Z</time></trkpt><trkpt lat="44.46414460019222" lon="8.035133922253992"><ele>769.0</ele><time>2026-04-19T16:46:13Z</time></trkpt><trkpt lat="44.46432185481591" lon="8.03496690881806"><ele>765.5</ele><time>2026-04-19T16:46:14Z</time></trkpt><trkpt lat="44.464510757631516" lon="8.03479578340711"><ele>762.0</ele><time>2026-04-19T16:46:15Z</time></trkpt><trkpt lat="44.46471467879277" lon="8.03461067680362"><ele>762.0</ele><time>2026-04-19T16:46:16Z</time></trkpt><trkpt lat="44.46490417317595" lon="8.034427432451958"><ele>762.0</ele><time>2026-04-19T16:46:17Z</time></trkpt><trkpt lat="44.4650862324299" lon="8.03423962929786"><ele>762.3333333333334</ele><time>2026-04-19T16:46:18Z</time></trkpt><trkpt lat="44.465254558925295" lon="8.034037663995361"><ele>762.6666666666667</ele><time>2026-04-19T16:46:19Z</time></trkpt><trkpt lat="44.465407585424806" lon="8.03381852612346"><ele>763.0</ele><time>2026-04-19T16:46:20.001Z</time></trkpt><trkpt lat="44.465543731753264" lon="8.033592815012403"><ele>763.0</ele><time>2026-04-19T16:46:21Z</time></trkpt><trkpt lat="44.465661608027425" lon="8.033368221435868"><ele>763.0</ele><time>2026-04-19T16:46:22Z</time></trkpt><trkpt lat="44.46575351106852" lon="8.033162268920062"><ele>763.0</ele><time>2026-04-19T16:46:23Z</time></trkpt><trkpt lat="44.465858992927245" lon="8.032997028135943"><ele>764.0</ele><time>2026-04-19T16:46:24Z</time></trkpt><trkpt lat="44.46596919929437" lon="8.03286477494476"><ele>765.0</ele><time>2026-04-19T16:46:25Z</time></trkpt><trkpt lat="44.466095054929454" lon="8.032764287718114"><ele>766.0</ele><time>2026-04-19T16:46:26Z</time></trkpt><trkpt lat="44.466205377881714" lon="8.032660022278199"><ele>767.0</ele><time>2026-04-19T16:46:27Z</time></trkpt><trkpt lat="44.466310134415785" lon="8.032573119804328"><ele>766.2</ele><time>2026-04-19T16:46:28Z</time></trkpt><trkpt lat="44.46638107344422" lon="8.032468643219964"><ele>765.4000000000001</ele><time>2026-04-19T16:46:29Z</time></trkpt><trkpt lat="44.46643073731565" lon="8.032347555914933"><ele>764.5999999999999</ele><time>2026-04-19T16:46:30Z</time></trkpt><trkpt lat="44.466462975119676" lon="8.03220699230838"><ele>763.8</ele><time>2026-04-19T16:46:31Z</time></trkpt><trkpt lat="44.46647265509265" lon="8.0320750301213"><ele>763.0</ele><time>2026-04-19T16:46:32Z</time></trkpt><trkpt lat="44.46646285678823" lon="8.031947107428559"><ele>763.0</ele><time>2026-04-19T16:46:33Z</time></trkpt><trkpt lat="44.466453518225904" lon="8.031789902228043"><ele>763.0</ele><time>2026-04-19T16:46:34Z</time></trkpt><trkpt lat="44.466404956804574" lon="8.031573824804969"><ele>763.0</ele><time>2026-04-19T16:46:35Z</time></trkpt><trkpt lat="44.46634546617098" lon="8.031336566782096"><ele>753.3333333333334</ele><time>2026-04-19T16:46:36Z</time></trkpt><trkpt lat="44.46627681214564" lon="8.031065056695365"><ele>743.6666666666666</ele><time>2026-04-19T16:46:37Z</time></trkpt><trkpt lat="44.46620047754506" lon="8.030822471014584"><ele>734.0</ele><time>2026-04-19T16:46:38Z</time></trkpt><trkpt lat="44.46615253440761" lon="8.03059244424439"><ele>734.0</ele><time>2026-04-19T16:46:39Z</time></trkpt><trkpt lat="44.46614505405556" lon="8.030387237012786"><ele>734.0</ele><time>2026-04-19T16:46:40Z</time></trkpt><trkpt lat="44.46616656002498" lon="8.030214892412795"><ele>734.0</ele><time>2026-04-19T16:46:41Z</time></trkpt><trkpt lat="44.46622082856373" lon="8.030067499129608"><ele>734.0</ele><time>2026-04-19T16:46:42Z</time></trkpt><trkpt lat="44.466306171582076" lon="8.029978098747803"><ele>733.25</ele><time>2026-04-19T16:46:43Z</time></trkpt><trkpt lat="44.466403331745255" lon="8.029920212693174"><ele>732.5</ele><time>2026-04-19T16:46:44Z</time></trkpt><trkpt lat="44.466520701869996" lon="8.029843237739025"><ele>731.75</ele><time>2026-04-19T16:46:45Z</time></trkpt><trkpt lat="44.46667594288751" lon="8.029818447802219"><ele>731.0</ele><time>2026-04-19T16:46:46Z</time></trkpt><trkpt lat="44.46684807937919" lon="8.029797478144514"><ele>731.0</ele><time>2026-04-19T16:46:47Z</time></trkpt><trkpt lat="44.467034559418984" lon="8.029790227491873"><ele>731.0</ele><time>2026-04-19T16:46:48Z</time></trkpt><trkpt lat="44.46720902799584" lon="8.029791625491775"><ele>731.0</ele><time>2026-04-19T16:46:49Z</time></trkpt><trkpt lat="44.46737254729362" lon="8.029780808030504"><ele>730.0</ele><time>2026-04-19T16:46:50Z</time></trkpt><trkpt lat="44.4675193609456" lon="8.029738386048061"><ele>729.0</ele><time>2026-04-19T16:46:51Z</time></trkpt><trkpt lat="44.46764270895171" lon="8.029651858993173"><ele>728.0</ele><time>2026-04-19T16:46:52Z</time></trkpt><trkpt lat="44.46773988937545" lon="8.029526374957426"><ele>727.0</ele><time>2026-04-19T16:46:53Z</time></trkpt><trkpt lat="44.46787071007571" lon="8.029460034114235"><ele>727.0</ele><time>2026-04-19T16:46:54Z</time></trkpt><trkpt lat="44.46787695945701" lon="8.029209096132039"><ele>727.0</ele><time>2026-04-19T16:46:55Z</time></trkpt><trkpt lat="44.46795149382976" lon="8.029053677085459"><ele>727.0</ele><time>2026-04-19T16:46:56Z</time></trkpt><trkpt lat="44.46805751139108" lon="8.02893793318083"><ele>727.0</ele><time>2026-04-19T16:46:57Z</time></trkpt><trkpt lat="44.468178420606584" lon="8.02884627446777"><ele>724.75</ele><time>2026-04-19T16:46:58Z</time></trkpt><trkpt lat="44.46830990561394" lon="8.028797513787183"><ele>722.5</ele><time>2026-04-19T16:46:59Z</time></trkpt><trkpt lat="44.46843799014716" lon="8.028757256304726"><ele>720.25</ele><time>2026-04-19T16:47:00Z</time></trkpt><trkpt lat="44.46856485361704" lon="8.028768057133046"><ele>718.0</ele><time>2026-04-19T16:47:01Z</time></trkpt><trkpt lat="44.468696437827205" lon="8.028787750915154"><ele>719.0</ele><time>2026-04-19T16:47:02Z</time></trkpt><trkpt lat="44.46880977011855" lon="8.028824680278182"><ele>720.0</ele><time>2026-04-19T16:47:03Z</time></trkpt><trkpt lat="44.46892218869927" lon="8.02881717862735"><ele>721.0</ele><time>2026-04-19T16:47:04Z</time></trkpt><trkpt lat="44.469026376325154" lon="8.028741258712405"><ele>722.0</ele><time>2026-04-19T16:47:05Z</time></trkpt><trkpt lat="44.46911150681857" lon="8.028604255645558"><ele>722.0</ele><time>2026-04-19T16:47:06Z</time></trkpt><trkpt lat="44.46916974312815" lon="8.028450390246347"><ele>722.0</ele><time>2026-04-19T16:47:07Z</time></trkpt><trkpt lat="44.46918952652612" lon="8.028275206673145"><ele>722.0</ele><time>2026-04-19T16:47:08Z</time></trkpt><trkpt lat="44.469186053390686" lon="8.028092354444967"><ele>722.0</ele><time>2026-04-19T16:47:09Z</time></trkpt><trkpt lat="44.46918786012011" lon="8.027891511571957"><ele>720.25</ele><time>2026-04-19T16:47:10Z</time></trkpt><trkpt lat="44.469217809737785" lon="8.027701698553901"><ele>718.5</ele><time>2026-04-19T16:47:11Z</time></trkpt><trkpt lat="44.4692553692454" lon="8.027512309378485"><ele>716.75</ele><time>2026-04-19T16:47:12Z</time></trkpt><trkpt lat="44.4692991062832" lon="8.027328686589073"><ele>715.0</ele><time>2026-04-19T16:47:13Z</time></trkpt><trkpt lat="44.46935830401985" lon="8.02714987700447"><ele>714.25</ele><time>2026-04-19T16:47:14Z</time></trkpt><trkpt lat="44.4694357387669" lon="8.026980302887967"><ele>713.5</ele><time>2026-04-19T16:47:15Z</time></trkpt><trkpt lat="44.46952972599602" lon="8.02682584259172"><ele>712.75</ele><time>2026-04-19T16:47:16Z</time></trkpt><trkpt lat="44.46963373988638" lon="8.02667834521144"><ele>712.0</ele><time>2026-04-19T16:47:17Z</time></trkpt><trkpt lat="44.46974649315769" lon="8.026533610989654"><ele>709.25</ele><time>2026-04-19T16:47:18Z</time></trkpt><trkpt lat="44.46986123237069" lon="8.026403083424537"><ele>706.5</ele><time>2026-04-19T16:47:19Z</time></trkpt><trkpt lat="44.46997108307111" lon="8.026279725598988"><ele>703.75</ele><time>2026-04-19T16:47:20Z</time></trkpt><trkpt lat="44.470075807479006" lon="8.026147940193585"><ele>701.0</ele><time>2026-04-19T16:47:21Z</time></trkpt><trkpt lat="44.47016578110205" lon="8.025994145587932"><ele>701.0</ele><time>2026-04-19T16:47:22Z</time></trkpt><trkpt lat="44.47023180296855" lon="8.025812570472068"><ele>701.0</ele><time>2026-04-19T16:47:23Z</time></trkpt><trkpt lat="44.47028172960069" lon="8.025621071478076"><ele>701.0</ele><time>2026-04-19T16:47:24Z</time></trkpt><trkpt lat="44.47032459716678" lon="8.025425986631708"><ele>701.0</ele><time>2026-04-19T16:47:24.999Z</time></trkpt><trkpt lat="44.47036982387252" lon="8.025232148641235"><ele>701.75</ele><time>2026-04-19T16:47:25.999Z</time></trkpt><trkpt lat="44.470419519601876" lon="8.025039628601043"><ele>702.5</ele><time>2026-04-19T16:47:26.999Z</time></trkpt><trkpt lat="44.4704678599917" lon="8.024845449194158"><ele>703.25</ele><time>2026-04-19T16:47:27.999Z</time></trkpt><trkpt lat="44.47051353820011" lon="8.024647484818576"><ele>704.0</ele><time>2026-04-19T16:47:28.999Z</time></trkpt><trkpt lat="44.4705614377644" lon="8.02445097384107"><ele>704.0</ele><time>2026-04-19T16:47:29.999Z</time></trkpt><trkpt lat="44.47061249045354" lon="8.024256037820432"><ele>704.0</ele><time>2026-04-19T16:47:30.999Z</time></trkpt><trkpt lat="44.470668343776" lon="8.024064505846084"><ele>704.0</ele><time>2026-04-19T16:47:31.999Z</time></trkpt><trkpt lat="44.47073511621414" lon="8.023880869313624"><ele>704.0</ele><time>2026-04-19T16:47:32.999Z</time></trkpt><trkpt lat="44.47081800395628" lon="8.023708549203334"><ele>702.3333333333333</ele><time>2026-04-19T16:47:33.999Z</time></trkpt><trkpt lat="44.47093471350615" lon="8.02355283993956"><ele>700.6666666666666</ele><time>2026-04-19T16:47:34.999Z</time></trkpt><trkpt lat="44.471041924841295" lon="8.023368533038523"><ele>699.0</ele><time>2026-04-19T16:47:35.999Z</time></trkpt><trkpt lat="44.471166589988634" lon="8.023194238872115"><ele>700.3333333333334</ele><time>2026-04-19T16:47:36.999Z</time></trkpt><trkpt lat="44.471287789807995" lon="8.023009132445033"><ele>701.6666666666667</ele><time>2026-04-19T16:47:37.999Z</time></trkpt><trkpt lat="44.47140367409179" lon="8.022820917259123"><ele>703.0</ele><time>2026-04-19T16:47:38.999Z</time></trkpt><trkpt lat="44.47151901390715" lon="8.022639615515322"><ele>700.0</ele><time>2026-04-19T16:47:39.999Z</time></trkpt><trkpt lat="44.47163248041785" lon="8.02246507634377"><ele>697.0</ele><time>2026-04-19T16:47:40.999Z</time></trkpt><trkpt lat="44.47174292771609" lon="8.022297809236566"><ele>694.0</ele><time>2026-04-19T16:47:41.999Z</time></trkpt><trkpt lat="44.47185137215587" lon="8.022141701782253"><ele>694.0</ele><time>2026-04-19T16:47:42.999Z</time></trkpt><trkpt lat="44.47195558379345" lon="8.021986701130405"><ele>694.0</ele><time>2026-04-19T16:47:43.999Z</time></trkpt><trkpt lat="44.47206008429467" lon="8.021831274247987"><ele>694.0</ele><time>2026-04-19T16:47:44.999Z</time></trkpt><trkpt lat="44.47216525080394" lon="8.021674045646268"><ele>698.3333333333334</ele><time>2026-04-19T16:47:45.999Z</time></trkpt><trkpt lat="44.47227484133194" lon="8.021508798187778"><ele>702.6666666666666</ele><time>2026-04-19T16:47:46.999Z</time></trkpt><trkpt lat="44.472388845084836" lon="8.021338710222532"><ele>707.0</ele><time>2026-04-19T16:47:47.999Z</time></trkpt><trkpt lat="44.47250348219639" lon="8.021168301663183"><ele>707.0</ele><time>2026-04-19T16:47:48.999Z</time></trkpt><trkpt lat="44.47261649183219" lon="8.02100165953804"><ele>707.0</ele><time>2026-04-19T16:47:49.999Z</time></trkpt><trkpt lat="44.472721099306625" lon="8.020839169818128"><ele>707.0</ele><time>2026-04-19T16:47:50.999Z</time></trkpt><trkpt lat="44.47279714157034" lon="8.020667059535356"><ele>707.25</ele><time>2026-04-19T16:47:51.999Z</time></trkpt><trkpt lat="44.47283770103608" lon="8.020477168650393"><ele>707.5</ele><time>2026-04-19T16:47:52.999Z</time></trkpt><trkpt lat="44.47282762054377" lon="8.020270046187091"><ele>707.75</ele><time>2026-04-19T16:47:53.999Z</time></trkpt><trkpt lat="44.47278476449169" lon="8.020074143515398"><ele>708.0</ele><time>2026-04-19T16:47:54.999Z</time></trkpt><trkpt lat="44.47270725967668" lon="8.0199066259881"><ele>709.25</ele><time>2026-04-19T16:47:55.999Z</time></trkpt><trkpt lat="44.47260584455655" lon="8.019760561650592"><ele>710.5</ele><time>2026-04-19T16:47:56.999Z</time></trkpt><trkpt lat="44.47249601292445" lon="8.019652135489098"><ele>711.75</ele><time>2026-04-19T16:47:57.999Z</time></trkpt><trkpt lat="44.4724000027173" lon="8.019536295158401"><ele>713.0</ele><time>2026-04-19T16:47:58.999Z</time></trkpt><trkpt lat="44.472344563568555" lon="8.019399825972103"><ele>713.0</ele><time>2026-04-19T16:47:59.999Z</time></trkpt><trkpt lat="44.47232152660152" lon="8.01924444976978"><ele>713.0</ele><time>2026-04-19T16:48:00.999Z</time></trkpt><trkpt lat="44.472336362552845" lon="8.019087127943953"><ele>713.0</ele><time>2026-04-19T16:48:01.999Z</time></trkpt><trkpt lat="44.472388572744045" lon="8.018939260848528"><ele>713.0</ele><time>2026-04-19T16:48:02.999Z</time></trkpt><trkpt lat="44.472465943784655" lon="8.018795533544385"><ele>708.6666666666666</ele><time>2026-04-19T16:48:03.999Z</time></trkpt><trkpt lat="44.47257774860188" lon="8.018652899237535"><ele>704.3333333333334</ele><time>2026-04-19T16:48:04.999Z</time></trkpt><trkpt lat="44.47269730776678" lon="8.018495842363818"><ele>700.0</ele><time>2026-04-19T16:48:05.999Z</time></trkpt><trkpt lat="44.472815975603496" lon="8.018323965341224"><ele>704.0</ele><time>2026-04-19T16:48:06.999Z</time></trkpt><trkpt lat="44.47290832021829" lon="8.018140448902441"><ele>708.0</ele><time>2026-04-19T16:48:07.999Z</time></trkpt><trkpt lat="44.47297932210275" lon="8.017946048256986"><ele>712.0</ele><time>2026-04-19T16:48:08.999Z</time></trkpt><trkpt lat="44.473027630831034" lon="8.01772971074629"><ele>712.0</ele><time>2026-04-19T16:48:09.999Z</time></trkpt><trkpt lat="44.473064887114894" lon="8.01750585036757"><ele>712.0</ele><time>2026-04-19T16:48:10.999Z</time></trkpt><trkpt lat="44.47309252767731" lon="8.017266961573716"><ele>712.0</ele><time>2026-04-19T16:48:11.999Z</time></trkpt><trkpt lat="44.47311845027163" lon="8.01701305323633"><ele>711.3333333333334</ele><time>2026-04-19T16:48:13Z</time></trkpt><trkpt lat="44.47314827174971" lon="8.016753625827771"><ele>710.6666666666666</ele><time>2026-04-19T16:48:14Z</time></trkpt><trkpt lat="44.47317903432503" lon="8.01650918061337"><ele>710.0</ele><time>2026-04-19T16:48:15Z</time></trkpt><trkpt lat="44.47320735422723" lon="8.016278455329564"><ele>710.0</ele><time>2026-04-19T16:48:16Z</time></trkpt><trkpt lat="44.47323556415908" lon="8.01605573661408"><ele>710.0</ele><time>2026-04-19T16:48:17Z</time></trkpt><trkpt lat="44.47326361295386" lon="8.015840727179567"><ele>710.0</ele><time>2026-04-19T16:48:18Z</time></trkpt><trkpt lat="44.4733003170872" lon="8.015636028102199"><ele>709.75</ele><time>2026-04-19T16:48:19Z</time></trkpt><trkpt lat="44.473346578153695" lon="8.015442509345148"><ele>709.5</ele><time>2026-04-19T16:48:20Z</time></trkpt><trkpt lat="44.473404096596" lon="8.015261840097754"><ele>709.25</ele><time>2026-04-19T16:48:21Z</time></trkpt><trkpt lat="44.4734727562407" lon="8.015099135723226"><ele>709.0</ele><time>2026-04-19T16:48:22Z</time></trkpt><trkpt lat="44.47353950561142" lon="8.014960188339451"><ele>709.8000000000001</ele><time>2026-04-19T16:48:23Z</time></trkpt><trkpt lat="44.47359464568311" lon="8.014840874312354"><ele>710.6</ele><time>2026-04-19T16:48:24Z</time></trkpt><trkpt lat="44.4736415257439" lon="8.014736576427067"><ele>711.4</ele><time>2026-04-19T16:48:25Z</time></trkpt><trkpt lat="44.47367671301161" lon="8.014653665442923"><ele>712.2</ele><time>2026-04-19T16:48:26Z</time></trkpt><trkpt lat="44.473744718228666" lon="8.01452703045876"><ele>713.0</ele><time>2026-04-19T16:48:28Z</time></trkpt><trkpt lat="44.47383277226988" lon="8.014455296150407"><ele>713.0</ele><time>2026-04-19T16:48:30Z</time></trkpt><trkpt lat="44.47393203594648" lon="8.01431884866391"><ele>713.0</ele><time>2026-04-19T16:48:32Z</time></trkpt><trkpt lat="44.473959698377485" lon="8.014178882119271"><ele>713.0</ele><time>2026-04-19T16:48:33Z</time></trkpt><trkpt lat="44.473990797196876" lon="8.01400993404805"><ele>713.0</ele><time>2026-04-19T16:48:34Z</time></trkpt><trkpt lat="44.474042904626074" lon="8.013816200952839"><ele>712.5</ele><time>2026-04-19T16:48:35Z</time></trkpt><trkpt lat="44.474110566028806" lon="8.013607171694982"><ele>712.0</ele><time>2026-04-19T16:48:36Z</time></trkpt><trkpt lat="44.47427654703724" lon="8.013136261812422"><ele>711.3333333333334</ele><time>2026-04-19T16:48:38Z</time></trkpt><trkpt lat="44.47436961339438" lon="8.01287886859899"><ele>710.6666666666666</ele><time>2026-04-19T16:48:39Z</time></trkpt><trkpt lat="44.47446710104188" lon="8.012624511655051"><ele>710.0</ele><time>2026-04-19T16:48:40Z</time></trkpt><trkpt lat="44.474561355298576" lon="8.012385573712589"><ele>709.3333333333333</ele><time>2026-04-19T16:48:41Z</time></trkpt><trkpt lat="44.47465439053451" lon="8.012145460427083"><ele>708.6666666666666</ele><time>2026-04-19T16:48:42Z</time></trkpt><trkpt lat="44.47474566160117" lon="8.011900587282724"><ele>708.0</ele><time>2026-04-19T16:48:43Z</time></trkpt><trkpt lat="44.47483786989878" lon="8.011653511715975"><ele>708.0</ele><time>2026-04-19T16:48:44Z</time></trkpt><trkpt lat="44.47492821217634" lon="8.011403623425766"><ele>708.0</ele><time>2026-04-19T16:48:45Z</time></trkpt><trkpt lat="44.47500815457945" lon="8.01114430765081"><ele>708.0</ele><time>2026-04-19T16:48:46Z</time></trkpt><trkpt lat="44.47507630687864" lon="8.010868571271482"><ele>707.6666666666666</ele><time>2026-04-19T16:48:47Z</time></trkpt><trkpt lat="44.475136283362055" lon="8.010584379292967"><ele>707.3333333333333</ele><time>2026-04-19T16:48:48Z</time></trkpt><trkpt lat="44.47519453012972" lon="8.010303756375205"><ele>707.0</ele><time>2026-04-19T16:48:49Z</time></trkpt><trkpt lat="44.47525005093534" lon="8.010023443771829"><ele>706.3333333333333</ele><time>2026-04-19T16:48:50Z</time></trkpt><trkpt lat="44.47530887719861" lon="8.009736143078612"><ele>705.6666666666666</ele><time>2026-04-19T16:48:51Z</time></trkpt><trkpt lat="44.475375233654056" lon="8.009456108609744"><ele>705.0</ele><time>2026-04-19T16:48:52Z</time></trkpt><trkpt lat="44.475450779128494" lon="8.00918242902381"><ele>704.6666666666666</ele><time>2026-04-19T16:48:53Z</time></trkpt><trkpt lat="44.47553669591851" lon="8.008916466353325"><ele>704.3333333333333</ele><time>2026-04-19T16:48:54Z</time></trkpt><trkpt lat="44.475626036919344" lon="8.008661876342765"><ele>704.0</ele><time>2026-04-19T16:48:55Z</time></trkpt><trkpt lat="44.47569614397862" lon="8.008386981535125"><ele>705.0</ele><time>2026-04-19T16:48:56Z</time></trkpt><trkpt lat="44.47573983042508" lon="8.008080594387893"><ele>706.0</ele><time>2026-04-19T16:48:57Z</time></trkpt><trkpt lat="44.47576966544228" lon="8.00776164343036"><ele>702.5</ele><time>2026-04-19T16:48:58Z</time></trkpt><trkpt lat="44.475814778662084" lon="8.007436877101872"><ele>699.0</ele><time>2026-04-19T16:48:59Z</time></trkpt><trkpt lat="44.47588720718597" lon="8.007100509863038"><ele>699.0</ele><time>2026-04-19T16:49:00Z</time></trkpt><trkpt lat="44.47597718307393" lon="8.006759256297205"><ele>699.0</ele><time>2026-04-19T16:49:01Z</time></trkpt><trkpt lat="44.47607235903014" lon="8.00643782464061"><ele>699.0</ele><time>2026-04-19T16:49:02Z</time></trkpt><trkpt lat="44.47614576906082" lon="8.006115155959794"><ele>699.0</ele><time>2026-04-19T16:49:03Z</time></trkpt><trkpt lat="44.47617979366413" lon="8.0057585025814"><ele>699.0</ele><time>2026-04-19T16:49:04Z</time></trkpt><trkpt lat="44.476247288030045" lon="8.00545370627781"><ele>699.0</ele><time>2026-04-19T16:49:05Z</time></trkpt><trkpt lat="44.476313030402885" lon="8.005149994242622"><ele>698.0</ele><time>2026-04-19T16:49:06Z</time></trkpt><trkpt lat="44.47637470068306" lon="8.004820425659586"><ele>697.0</ele><time>2026-04-19T16:49:07Z</time></trkpt><trkpt lat="44.47641925179839" lon="8.004477650584217"><ele>699.5</ele><time>2026-04-19T16:49:08Z</time></trkpt><trkpt lat="44.47645280144534" lon="8.004115623839459"><ele>702.0</ele><time>2026-04-19T16:49:09Z</time></trkpt><trkpt lat="44.47648597419259" lon="8.003748036839529"><ele>702.0</ele><time>2026-04-19T16:49:10Z</time></trkpt><trkpt lat="44.476521156081276" lon="8.003401712309325"><ele>702.0</ele><time>2026-04-19T16:49:11Z</time></trkpt><trkpt lat="44.4765566355383" lon="8.003091440631334"><ele>704.3333333333334</ele><time>2026-04-19T16:49:12Z</time></trkpt><trkpt lat="44.4766010853832" lon="8.002800541491261"><ele>706.6666666666667</ele><time>2026-04-19T16:49:13Z</time></trkpt><trkpt lat="44.47669261654802" lon="8.002515649333281"><ele>709.0</ele><time>2026-04-19T16:49:14Z</time></trkpt><trkpt lat="44.476809371264785" lon="8.002236581023071"><ele>710.0</ele><time>2026-04-19T16:49:15Z</time></trkpt><trkpt lat="44.47694589937883" lon="8.00195791738262"><ele>711.0</ele><time>2026-04-19T16:49:16Z</time></trkpt><trkpt lat="44.47708713861609" lon="8.001676386158712"><ele>711.5</ele><time>2026-04-19T16:49:17Z</time></trkpt><trkpt lat="44.477230524970565" lon="8.00137900731376"><ele>712.0</ele><time>2026-04-19T16:49:18Z</time></trkpt><trkpt lat="44.477378699221205" lon="8.001085182200594"><ele>715.5</ele><time>2026-04-19T16:49:19Z</time></trkpt><trkpt lat="44.47751069321276" lon="8.000805510274235"><ele>719.0</ele><time>2026-04-19T16:49:20Z</time></trkpt><trkpt lat="44.47762834688297" lon="8.000548802416853"><ele>719.0</ele><time>2026-04-19T16:49:21Z</time></trkpt><trkpt lat="44.477735031295765" lon="8.00033006232766"><ele>719.0</ele><time>2026-04-19T16:49:22Z</time></trkpt><trkpt lat="44.477830576296775" lon="8.000165092833905"><ele>719.0</ele><time>2026-04-19T16:49:23Z</time></trkpt><trkpt lat="44.477898845259496" lon="8.000025326047734"><ele>719.0</ele><time>2026-04-19T16:49:24Z</time></trkpt><trkpt lat="44.47794121457165" lon="7.999893037451324"><ele>719.0</ele><time>2026-04-19T16:49:25Z</time></trkpt><trkpt lat="44.47792972682969" lon="7.999750185962668"><ele>719.0</ele><time>2026-04-19T16:49:26Z</time></trkpt><trkpt lat="44.477879452371795" lon="7.999588426597895"><ele>719.0</ele><time>2026-04-19T16:49:27Z</time></trkpt><trkpt lat="44.477794436924505" lon="7.999437004544079"><ele>719.0</ele><time>2026-04-19T16:49:28Z</time></trkpt><trkpt lat="44.47766180482805" lon="7.999320237833543"><ele>719.0</ele><time>2026-04-19T16:49:28.999Z</time></trkpt><trkpt lat="44.47752905806892" lon="7.99924614806123"><ele>719.0</ele><time>2026-04-19T16:49:29.999Z</time></trkpt><trkpt lat="44.4774449618405" lon="7.999148484944084"><ele>719.0</ele><time>2026-04-19T16:49:30.999Z</time></trkpt><trkpt lat="44.47738146396514" lon="7.999086358435231"><ele>717.0</ele><time>2026-04-19T16:49:31.999Z</time></trkpt><trkpt lat="44.4773279005032" lon="7.998942531793583"><ele>715.0</ele><time>2026-04-19T16:49:33.999Z</time></trkpt><trkpt lat="44.477379142957425" lon="7.998854771897142"><ele>713.0</ele><time>2026-04-19T16:49:34.999Z</time></trkpt><trkpt lat="44.47745863296107" lon="7.998789280069129"><ele>711.0</ele><time>2026-04-19T16:49:35.999Z</time></trkpt><trkpt lat="44.47758632250566" lon="7.998792077414339"><ele>709.0</ele><time>2026-04-19T16:49:36.999Z</time></trkpt><trkpt lat="44.47773760802519" lon="7.998762274842369"><ele>709.0</ele><time>2026-04-19T16:49:37.999Z</time></trkpt><trkpt lat="44.47791569714412" lon="7.998717604030022"><ele>709.0</ele><time>2026-04-19T16:49:38.999Z</time></trkpt><trkpt lat="44.478131589130044" lon="7.998680721449974"><ele>709.0</ele><time>2026-04-19T16:49:39.999Z</time></trkpt><trkpt lat="44.47836379189257" lon="7.998607523934574"><ele>706.5</ele><time>2026-04-19T16:49:40.999Z</time></trkpt><trkpt lat="44.47860203040266" lon="7.998524684480826"><ele>704.0</ele><time>2026-04-19T16:49:41.999Z</time></trkpt><trkpt lat="44.478829968716234" lon="7.998454416377967"><ele>704.0</ele><time>2026-04-19T16:49:42.999Z</time></trkpt><trkpt lat="44.47904882997369" lon="7.998389265604662"><ele>704.0</ele><time>2026-04-19T16:49:43.999Z</time></trkpt><trkpt lat="44.47925331935551" lon="7.998323266075802"><ele>704.0</ele><time>2026-04-19T16:49:44.999Z</time></trkpt><trkpt lat="44.47944218091923" lon="7.998239784937425"><ele>699.3333333333333</ele><time>2026-04-19T16:49:45.999Z</time></trkpt><trkpt lat="44.479618677609906" lon="7.998119147247189"><ele>694.6666666666666</ele><time>2026-04-19T16:49:46.999Z</time></trkpt><trkpt lat="44.47979866267683" lon="7.997931761153475"><ele>690.0</ele><time>2026-04-19T16:49:47.999Z</time></trkpt><trkpt lat="44.479994538081066" lon="7.9977253049667985"><ele>690.0</ele><time>2026-04-19T16:49:48.999Z</time></trkpt><trkpt lat="44.4802053789524" lon="7.997509581881076"><ele>690.0</ele><time>2026-04-19T16:49:49.999Z</time></trkpt><trkpt lat="44.48042098281812" lon="7.997296542743336"><ele>684.5</ele><time>2026-04-19T16:49:50.999Z</time></trkpt><trkpt lat="44.480628026574564" lon="7.997093945925204"><ele>679.0</ele><time>2026-04-19T16:49:51.999Z</time></trkpt><trkpt lat="44.48083137856536" lon="7.996894638091471"><ele>679.0</ele><time>2026-04-19T16:49:52.999Z</time></trkpt><trkpt lat="44.48103294221118" lon="7.996702062902491"><ele>679.0</ele><time>2026-04-19T16:49:53.999Z</time></trkpt><trkpt lat="44.48122933906081" lon="7.9965167875393295"><ele>675.0</ele><time>2026-04-19T16:49:54.999Z</time></trkpt><trkpt lat="44.48142166780649" lon="7.996333376975267"><ele>671.0</ele><time>2026-04-19T16:49:55.999Z</time></trkpt><trkpt lat="44.481608912470904" lon="7.996146404319795"><ele>671.0</ele><time>2026-04-19T16:49:56.999Z</time></trkpt><trkpt lat="44.48179116507042" lon="7.995943233859343"><ele>671.0</ele><time>2026-04-19T16:49:57.999Z</time></trkpt><trkpt lat="44.48196203258288" lon="7.9957062080168395"><ele>674.0</ele><time>2026-04-19T16:49:58.999Z</time></trkpt><trkpt lat="44.48212179713247" lon="7.995452397881106"><ele>677.0</ele><time>2026-04-19T16:49:59.999Z</time></trkpt><trkpt lat="44.48226545316533" lon="7.995204898613038"><ele>678.6666666666666</ele><time>2026-04-19T16:50:00.999Z</time></trkpt><trkpt lat="44.48240193771337" lon="7.994979100195964"><ele>680.3333333333334</ele><time>2026-04-19T16:50:01.999Z</time></trkpt><trkpt lat="44.4825321113426" lon="7.994764487670996"><ele>682.0</ele><time>2026-04-19T16:50:02.999Z</time></trkpt><trkpt lat="44.4826390225638" lon="7.994534483615314"><ele>682.0</ele><time>2026-04-19T16:50:03.999Z</time></trkpt><trkpt lat="44.482718963495344" lon="7.9942608307990595"><ele>682.0</ele><time>2026-04-19T16:50:04.999Z</time></trkpt><trkpt lat="44.482764094871925" lon="7.993944732052131"><ele>682.0</ele><time>2026-04-19T16:50:05.999Z</time></trkpt><trkpt lat="44.48277692471349" lon="7.993597373808743"><ele>676.0</ele><time>2026-04-19T16:50:06.999Z</time></trkpt><trkpt lat="44.48279529258645" lon="7.993238177221807"><ele>670.0</ele><time>2026-04-19T16:50:07.999Z</time></trkpt><trkpt lat="44.48280885345737" lon="7.992859955046469"><ele>670.0</ele><time>2026-04-19T16:50:08.999Z</time></trkpt><trkpt lat="44.482827730619164" lon="7.992510375638061"><ele>670.0</ele><time>2026-04-19T16:50:09.999Z</time></trkpt><trkpt lat="44.48285080974249" lon="7.992188448639884"><ele>669.6666666666667</ele><time>2026-04-19T16:50:10.999Z</time></trkpt><trkpt lat="44.482875020871255" lon="7.991888405335702"><ele>669.3333333333334</ele><time>2026-04-19T16:50:11.999Z</time></trkpt><trkpt lat="44.48291581526264" lon="7.991605859712161"><ele>669.0</ele><time>2026-04-19T16:50:12.999Z</time></trkpt><trkpt lat="44.48294054732599" lon="7.991334770570168"><ele>674.0</ele><time>2026-04-19T16:50:13.999Z</time></trkpt><trkpt lat="44.48300259398063" lon="7.991080419661958"><ele>679.0</ele><time>2026-04-19T16:50:14.999Z</time></trkpt><trkpt lat="44.48308516612996" lon="7.990837769761977"><ele>684.0</ele><time>2026-04-19T16:50:15.999Z</time></trkpt><trkpt lat="44.48318104234879" lon="7.990636284042214"><ele>684.0</ele><time>2026-04-19T16:50:16.999Z</time></trkpt><trkpt lat="44.483247494807365" lon="7.990474967409205"><ele>684.0</ele><time>2026-04-19T16:50:17.999Z</time></trkpt><trkpt lat="44.48329759630728" lon="7.9903264134327"><ele>684.0</ele><time>2026-04-19T16:50:19Z</time></trkpt><trkpt lat="44.483341151481525" lon="7.9901594456081355"><ele>684.0</ele><time>2026-04-19T16:50:19.999Z</time></trkpt><trkpt lat="44.48338230293555" lon="7.989972962040828"><ele>683.25</ele><time>2026-04-19T16:50:20.999Z</time></trkpt><trkpt lat="44.48341660563037" lon="7.989779941403242"><ele>682.5</ele><time>2026-04-19T16:50:21.999Z</time></trkpt><trkpt lat="44.4834466801829" lon="7.989575335847253"><ele>681.75</ele><time>2026-04-19T16:50:22.999Z</time></trkpt><trkpt lat="44.4834787505058" lon="7.989365763422721"><ele>681.0</ele><time>2026-04-19T16:50:23.999Z</time></trkpt><trkpt lat="44.483514847122564" lon="7.989155211004083"><ele>679.0</ele><time>2026-04-19T16:50:24.999Z</time></trkpt><trkpt lat="44.48355817038909" lon="7.988934635869422"><ele>677.0</ele><time>2026-04-19T16:50:25.999Z</time></trkpt><trkpt lat="44.48360181604956" lon="7.988699549722357"><ele>675.0</ele><time>2026-04-19T16:50:26.999Z</time></trkpt><trkpt lat="44.48364833693786" lon="7.988429521848257"><ele>672.6666666666666</ele><time>2026-04-19T16:50:27.999Z</time></trkpt><trkpt lat="44.483698898470195" lon="7.988140757749009"><ele>670.3333333333333</ele><time>2026-04-19T16:50:28.999Z</time></trkpt><trkpt lat="44.48375651801181" lon="7.987825964963213"><ele>668.0</ele><time>2026-04-19T16:50:29.999Z</time></trkpt><trkpt lat="44.483816714526135" lon="7.987481660421408"><ele>659.5</ele><time>2026-04-19T16:50:30.999Z</time></trkpt><trkpt lat="44.48387395924942" lon="7.987110733716638"><ele>651.0</ele><time>2026-04-19T16:50:31.999Z</time></trkpt><trkpt lat="44.483933188730944" lon="7.98674005295916"><ele>653.0</ele><time>2026-04-19T16:50:32.999Z</time></trkpt><trkpt lat="44.48398940994711" lon="7.9863848400815"><ele>655.0</ele><time>2026-04-19T16:50:33.999Z</time></trkpt><trkpt lat="44.48403852325423" lon="7.986049647573111"><ele>657.3333333333334</ele><time>2026-04-19T16:50:34.999Z</time></trkpt><trkpt lat="44.48406435768055" lon="7.9857291588541734"><ele>659.6666666666666</ele><time>2026-04-19T16:50:35.999Z</time></trkpt><trkpt lat="44.48406809516974" lon="7.985424584768817"><ele>662.0</ele><time>2026-04-19T16:50:36.999Z</time></trkpt><trkpt lat="44.48406906704212" lon="7.985150697985299"><ele>662.6666666666666</ele><time>2026-04-19T16:50:37.999Z</time></trkpt><trkpt lat="44.484092095800875" lon="7.984929628277412"><ele>663.3333333333334</ele><time>2026-04-19T16:50:38.999Z</time></trkpt><trkpt lat="44.48414662435157" lon="7.984739613375489"><ele>664.0</ele><time>2026-04-19T16:50:39.999Z</time></trkpt><trkpt lat="44.48423811684491" lon="7.984553462241965"><ele>664.0</ele><time>2026-04-19T16:50:40.999Z</time></trkpt><trkpt lat="44.484360527044565" lon="7.984352892334902"><ele>664.0</ele><time>2026-04-19T16:50:41.999Z</time></trkpt><trkpt lat="44.48449288753175" lon="7.984126251280913"><ele>664.0</ele><time>2026-04-19T16:50:42.999Z</time></trkpt><trkpt lat="44.48463422717353" lon="7.983879724058008"><ele>660.0</ele><time>2026-04-19T16:50:43.999Z</time></trkpt><trkpt lat="44.48478335592859" lon="7.983614803608732"><ele>656.0</ele><time>2026-04-19T16:50:44.999Z</time></trkpt><trkpt lat="44.48494851929901" lon="7.983351000090623"><ele>655.5</ele><time>2026-04-19T16:50:45.999Z</time></trkpt><trkpt lat="44.485127050518216" lon="7.98309004756531"><ele>655.0</ele><time>2026-04-19T16:50:46.999Z</time></trkpt><trkpt lat="44.48530394455788" lon="7.982854818704214"><ele>652.6666666666667</ele><time>2026-04-19T16:50:47.999Z</time></trkpt><trkpt lat="44.48547133966822" lon="7.982643730362829"><ele>650.3333333333334</ele><time>2026-04-19T16:50:48.999Z</time></trkpt><trkpt lat="44.485623527573914" lon="7.982434402260395"><ele>648.0</ele><time>2026-04-19T16:50:49.999Z</time></trkpt><trkpt lat="44.48575632420783" lon="7.982193458519606"><ele>648.0</ele><time>2026-04-19T16:50:50.999Z</time></trkpt><trkpt lat="44.48586674323321" lon="7.981913937344623"><ele>648.0</ele><time>2026-04-19T16:50:51.999Z</time></trkpt><trkpt lat="44.48596390088368" lon="7.981594483507967"><ele>649.5</ele><time>2026-04-19T16:50:52.999Z</time></trkpt><trkpt lat="44.48606317486309" lon="7.981247810833431"><ele>651.0</ele><time>2026-04-19T16:50:53.999Z</time></trkpt><trkpt lat="44.4861751734141" lon="7.980890778385253"><ele>646.5</ele><time>2026-04-19T16:50:54.999Z</time></trkpt><trkpt lat="44.486292840807145" lon="7.980517107160946"><ele>642.0</ele><time>2026-04-19T16:50:55.999Z</time></trkpt><trkpt lat="44.48640742357338" lon="7.980120221165606"><ele>642.0</ele><time>2026-04-19T16:50:56.999Z</time></trkpt><trkpt lat="44.486516104738314" lon="7.9797229363402185"><ele>642.0</ele><time>2026-04-19T16:50:57.999Z</time></trkpt><trkpt lat="44.486611001721876" lon="7.97934442016306"><ele>639.5</ele><time>2026-04-19T16:50:58.999Z</time></trkpt><trkpt lat="44.48669890514692" lon="7.9789786436536865"><ele>637.0</ele><time>2026-04-19T16:50:59.999Z</time></trkpt><trkpt lat="44.4867848447473" lon="7.978627940960426"><ele>635.5</ele><time>2026-04-19T16:51:00.999Z</time></trkpt><trkpt lat="44.486866449068636" lon="7.978306128010298"><ele>634.0</ele><time>2026-04-19T16:51:01.999Z</time></trkpt><trkpt lat="44.48694068745578" lon="7.978013851223967"><ele>634.0</ele><time>2026-04-19T16:51:02.999Z</time></trkpt><trkpt lat="44.48701031010595" lon="7.977741011449444"><ele>634.0</ele><time>2026-04-19T16:51:03.999Z</time></trkpt><trkpt lat="44.48707706594917" lon="7.977486986587761"><ele>634.0</ele><time>2026-04-19T16:51:04.999Z</time></trkpt><trkpt lat="44.48713444209634" lon="7.977260429917362"><ele>637.0</ele><time>2026-04-19T16:51:05.999Z</time></trkpt><trkpt lat="44.48717916190474" lon="7.977078929287328"><ele>640.0</ele><time>2026-04-19T16:51:06.999Z</time></trkpt><trkpt lat="44.48722326237519" lon="7.976926181786853"><ele>643.0</ele><time>2026-04-19T16:51:07.999Z</time></trkpt><trkpt lat="44.4872787299896" lon="7.976794147081791"><ele>646.0</ele><time>2026-04-19T16:51:08.999Z</time></trkpt><trkpt lat="44.487355456548414" lon="7.976687420931747"><ele>644.25</ele><time>2026-04-19T16:51:09.999Z</time></trkpt><trkpt lat="44.48744819648414" lon="7.976596810404731"><ele>642.5</ele><time>2026-04-19T16:51:10.999Z</time></trkpt><trkpt lat="44.48757839848554" lon="7.976544341017677"><ele>640.75</ele><time>2026-04-19T16:51:11.999Z</time></trkpt><trkpt lat="44.4877334491672" lon="7.976449733504162"><ele>639.0</ele><time>2026-04-19T16:51:12.999Z</time></trkpt><trkpt lat="44.48792159079175" lon="7.976399452575784"><ele>637.6666666666666</ele><time>2026-04-19T16:51:13.999Z</time></trkpt><trkpt lat="44.48811123507183" lon="7.976336730500192"><ele>636.3333333333333</ele><time>2026-04-19T16:51:14.999Z</time></trkpt><trkpt lat="44.48828808359929" lon="7.976260783188251"><ele>635.0</ele><time>2026-04-19T16:51:15.999Z</time></trkpt><trkpt lat="44.488458894545545" lon="7.97617535073785"><ele>635.0</ele><time>2026-04-19T16:51:16.999Z</time></trkpt><trkpt lat="44.48862748285974" lon="7.976096408961744"><ele>635.0</ele><time>2026-04-19T16:51:17.999Z</time></trkpt><trkpt lat="44.48879613314832" lon="7.976023231505638"><ele>635.0</ele><time>2026-04-19T16:51:18.999Z</time></trkpt><trkpt lat="44.488967987911316" lon="7.975949002385989"><ele>635.6666666666666</ele><time>2026-04-19T16:51:19.999Z</time></trkpt><trkpt lat="44.48913697658727" lon="7.975874850930194"><ele>636.3333333333334</ele><time>2026-04-19T16:51:20.999Z</time></trkpt><trkpt lat="44.48930332995062" lon="7.975805163175873"><ele>637.0</ele><time>2026-04-19T16:51:21.999Z</time></trkpt><trkpt lat="44.48946173958414" lon="7.975737388283993"><ele>635.3333333333334</ele><time>2026-04-19T16:51:22.999Z</time></trkpt><trkpt lat="44.489612254498844" lon="7.975671588597012"><ele>633.6666666666666</ele><time>2026-04-19T16:51:23.999Z</time></trkpt><trkpt lat="44.489759830045955" lon="7.975607352692308"><ele>632.0</ele><time>2026-04-19T16:51:24.999Z</time></trkpt><trkpt lat="44.48990219606271" lon="7.975548325125101"><ele>632.0</ele><time>2026-04-19T16:51:25.999Z</time></trkpt><trkpt lat="44.490038761309755" lon="7.975491945627249"><ele>632.0</ele><time>2026-04-19T16:51:26.999Z</time></trkpt><trkpt lat="44.490169505765316" lon="7.9754355621786335"><ele>632.0</ele><time>2026-04-19T16:51:27.999Z</time></trkpt><trkpt lat="44.49029411571231" lon="7.975382869181844"><ele>632.0</ele><time>2026-04-19T16:51:28.999Z</time></trkpt><trkpt lat="44.49041785309664" lon="7.975336933567"><ele>632.25</ele><time>2026-04-19T16:51:29.999Z</time></trkpt><trkpt lat="44.49054014261525" lon="7.975285577945741"><ele>632.5</ele><time>2026-04-19T16:51:30.999Z</time></trkpt><trkpt lat="44.490669046579434" lon="7.975229118765933"><ele>632.75</ele><time>2026-04-19T16:51:31.999Z</time></trkpt><trkpt lat="44.490796229717745" lon="7.975171155010295"><ele>633.0</ele><time>2026-04-19T16:51:32.999Z</time></trkpt><trkpt lat="44.49092175411316" lon="7.975122071697219"><ele>633.0</ele><time>2026-04-19T16:51:33.999Z</time></trkpt><trkpt lat="44.49104065918219" lon="7.9750722798484155"><ele>633.0</ele><time>2026-04-19T16:51:34.999Z</time></trkpt><trkpt lat="44.491155722375964" lon="7.975024514535602"><ele>633.0</ele><time>2026-04-19T16:51:35.999Z</time></trkpt><trkpt lat="44.49126520359695" lon="7.974970877792219"><ele>633.0</ele><time>2026-04-19T16:51:36.999Z</time></trkpt><trkpt lat="44.49136255525064" lon="7.974889999378547"><ele>632.25</ele><time>2026-04-19T16:51:37.999Z</time></trkpt><trkpt lat="44.49144454038777" lon="7.974783143119012"><ele>631.5</ele><time>2026-04-19T16:51:38.999Z</time></trkpt><trkpt lat="44.491519035275324" lon="7.974641529435139"><ele>630.75</ele><time>2026-04-19T16:51:39.998Z</time></trkpt><trkpt lat="44.49159046140656" lon="7.974471416214517"><ele>630.0</ele><time>2026-04-19T16:51:40.998Z</time></trkpt><trkpt lat="44.49166155861625" lon="7.974287441318926"><ele>628.6666666666666</ele><time>2026-04-19T16:51:41.998Z</time></trkpt><trkpt lat="44.491727394353546" lon="7.974096900281384"><ele>627.3333333333333</ele><time>2026-04-19T16:51:42.998Z</time></trkpt><trkpt lat="44.49178908280312" lon="7.973897874167053"><ele>626.0</ele><time>2026-04-19T16:51:43.998Z</time></trkpt><trkpt lat="44.49184874529403" lon="7.973694122439272"><ele>626.0</ele><time>2026-04-19T16:51:44.998Z</time></trkpt><trkpt lat="44.49190108492626" lon="7.973488053668862"><ele>626.0</ele><time>2026-04-19T16:51:45.998Z</time></trkpt><trkpt lat="44.49193692608661" lon="7.973280954730399"><ele>626.0</ele><time>2026-04-19T16:51:46.998Z</time></trkpt><trkpt lat="44.4919792246606" lon="7.973086041547284"><ele>624.0</ele><time>2026-04-19T16:51:47.998Z</time></trkpt><trkpt lat="44.49198666003515" lon="7.972897731976156"><ele>622.0</ele><time>2026-04-19T16:51:48.998Z</time></trkpt><trkpt lat="44.4920274081925" lon="7.972736193337991"><ele>620.0</ele><time>2026-04-19T16:51:49.998Z</time></trkpt><trkpt lat="44.49208833721616" lon="7.972591159560366"><ele>618.0</ele><time>2026-04-19T16:51:50.998Z</time></trkpt><trkpt lat="44.49217729737347" lon="7.972477494958201"><ele>618.0</ele><time>2026-04-19T16:51:51.998Z</time></trkpt><trkpt lat="44.492286423357136" lon="7.972401100694957"><ele>618.0</ele><time>2026-04-19T16:51:52.998Z</time></trkpt><trkpt lat="44.49241587984669" lon="7.9723643128777795"><ele>618.0</ele><time>2026-04-19T16:51:53.998Z</time></trkpt><trkpt lat="44.49255992249839" lon="7.972348065341632"><ele>618.0</ele><time>2026-04-19T16:51:54.998Z</time></trkpt><trkpt lat="44.492703359700045" lon="7.972354902441752"><ele>618.0</ele><time>2026-04-19T16:51:55.998Z</time></trkpt><trkpt lat="44.49284128347497" lon="7.972383751542094"><ele>618.0</ele><time>2026-04-19T16:51:56.998Z</time></trkpt><trkpt lat="44.49297400383935" lon="7.972441316180587"><ele>618.0</ele><time>2026-04-19T16:51:57.998Z</time></trkpt><trkpt lat="44.49310044820523" lon="7.972497535355178"><ele>618.0</ele><time>2026-04-19T16:51:58.998Z</time></trkpt><trkpt lat="44.4932174943435" lon="7.972500684564301"><ele>617.75</ele><time>2026-04-19T16:51:59.998Z</time></trkpt><trkpt lat="44.49332525735694" lon="7.972433287627562"><ele>617.5</ele><time>2026-04-19T16:52:00.998Z</time></trkpt><trkpt lat="44.49343823323394" lon="7.972324233315386"><ele>617.25</ele><time>2026-04-19T16:52:01.998Z</time></trkpt><trkpt lat="44.4935575781959" lon="7.972191492929244"><ele>617.0</ele><time>2026-04-19T16:52:02.998Z</time></trkpt><trkpt lat="44.49369937411403" lon="7.972062015163532"><ele>619.3333333333333</ele><time>2026-04-19T16:52:03.998Z</time></trkpt><trkpt lat="44.49386362566202" lon="7.971931117469394"><ele>621.6666666666666</ele><time>2026-04-19T16:52:04.998Z</time></trkpt><trkpt lat="44.49402072503029" lon="7.971813165406635"><ele>624.0</ele><time>2026-04-19T16:52:05.998Z</time></trkpt><trkpt lat="44.49417314676948" lon="7.971696444767547"><ele>619.0</ele><time>2026-04-19T16:52:06.998Z</time></trkpt><trkpt lat="44.49431818568765" lon="7.971576520608861"><ele>614.0</ele><time>2026-04-19T16:52:07.998Z</time></trkpt><trkpt lat="44.494453629438034" lon="7.97144558963608"><ele>609.0</ele><time>2026-04-19T16:52:08.998Z</time></trkpt><trkpt lat="44.49458063108115" lon="7.971295171076652"><ele>608.3333333333334</ele><time>2026-04-19T16:52:09.998Z</time></trkpt><trkpt lat="44.49470014165944" lon="7.971114740080894"><ele>607.6666666666667</ele><time>2026-04-19T16:52:10.998Z</time></trkpt><trkpt lat="44.494822579024294" lon="7.970932025813015"><ele>607.0</ele><time>2026-04-19T16:52:11.998Z</time></trkpt><trkpt lat="44.49493846314885" lon="7.970754631194373"><ele>605.3333333333334</ele><time>2026-04-19T16:52:12.998Z</time></trkpt><trkpt lat="44.49504787066799" lon="7.970577383916143"><ele>603.6666666666666</ele><time>2026-04-19T16:52:13.998Z</time></trkpt><trkpt lat="44.495154729502964" lon="7.970404032280314"><ele>602.0</ele><time>2026-04-19T16:52:14.998Z</time></trkpt><trkpt lat="44.49526001080938" lon="7.970235360326177"><ele>602.0</ele><time>2026-04-19T16:52:15.998Z</time></trkpt><trkpt lat="44.495370863293694" lon="7.9700780937350055"><ele>602.0</ele><time>2026-04-19T16:52:16.998Z</time></trkpt><trkpt lat="44.49549765735843" lon="7.969940207967646"><ele>602.0</ele><time>2026-04-19T16:52:17.998Z</time></trkpt><trkpt lat="44.495643365153235" lon="7.96981569654809"><ele>599.3333333333333</ele><time>2026-04-19T16:52:18.998Z</time></trkpt><trkpt lat="44.495801766224034" lon="7.969687526594034"><ele>596.6666666666666</ele><time>2026-04-19T16:52:19.998Z</time></trkpt><trkpt lat="44.49596848833316" lon="7.969550482402671"><ele>594.0</ele><time>2026-04-19T16:52:20.998Z</time></trkpt><trkpt lat="44.49613042385588" lon="7.9694124728550895"><ele>593.0</ele><time>2026-04-19T16:52:21.998Z</time></trkpt><trkpt lat="44.496282255949495" lon="7.969278005164753"><ele>592.0</ele><time>2026-04-19T16:52:22.998Z</time></trkpt><trkpt lat="44.49643272204413" lon="7.969146646292706"><ele>591.0</ele><time>2026-04-19T16:52:23.999Z</time></trkpt><trkpt lat="44.49658915805952" lon="7.969011843629506"><ele>591.0</ele><time>2026-04-19T16:52:25Z</time></trkpt><trkpt lat="44.49675177049194" lon="7.968874274706474"><ele>591.0</ele><time>2026-04-19T16:52:25.999Z</time></trkpt><trkpt lat="44.496911259172485" lon="7.968737372917159"><ele>591.0</ele><time>2026-04-19T16:52:26.999Z</time></trkpt><trkpt lat="44.49707128117553" lon="7.9685963332866505"><ele>591.0</ele><time>2026-04-19T16:52:28Z</time></trkpt><trkpt lat="44.49723378607536" lon="7.968441747973849"><ele>591.0</ele><time>2026-04-19T16:52:28.999Z</time></trkpt><trkpt lat="44.49739459373839" lon="7.968270434502737"><ele>591.0</ele><time>2026-04-19T16:52:29.999Z</time></trkpt><trkpt lat="44.49755467925012" lon="7.968085096019094"><ele>591.3333333333334</ele><time>2026-04-19T16:52:30.999Z</time></trkpt><trkpt lat="44.497715419774615" lon="7.967893250765588"><ele>591.6666666666667</ele><time>2026-04-19T16:52:31.999Z</time></trkpt><trkpt lat="44.497872505927326" lon="7.967707504127591"><ele>592.0</ele><time>2026-04-19T16:52:32.999Z</time></trkpt><trkpt lat="44.49802612053084" lon="7.967524421093077"><ele>592.0</ele><time>2026-04-19T16:52:33.999Z</time></trkpt><trkpt lat="44.498175401168425" lon="7.96734502312154"><ele>592.0</ele><time>2026-04-19T16:52:34.999Z</time></trkpt><trkpt lat="44.498323805408724" lon="7.9671755814687195"><ele>592.0</ele><time>2026-04-19T16:52:35.999Z</time></trkpt><trkpt lat="44.49847213331406" lon="7.967017698248623"><ele>592.0</ele><time>2026-04-19T16:52:36.999Z</time></trkpt><trkpt lat="44.49861458500853" lon="7.966871433142321"><ele>592.0</ele><time>2026-04-19T16:52:37.999Z</time></trkpt><trkpt lat="44.49874351811213" lon="7.966747482667164"><ele>592.0</ele><time>2026-04-19T16:52:38.999Z</time></trkpt><trkpt lat="44.49885861100016" lon="7.966621924428142"><ele>592.0</ele><time>2026-04-19T16:52:39.999Z</time></trkpt><trkpt lat="44.49896429722611" lon="7.9664868341982835"><ele>592.0</ele><time>2026-04-19T16:52:40.999Z</time></trkpt><trkpt lat="44.499064535191906" lon="7.966347567617859"><ele>592.0</ele><time>2026-04-19T16:52:41.999Z</time></trkpt><trkpt lat="44.49916101423532" lon="7.966209627991802"><ele>592.0</ele><time>2026-04-19T16:52:42.999Z</time></trkpt><trkpt lat="44.49925634635478" lon="7.966077649321825"><ele>592.0</ele><time>2026-04-19T16:52:43.999Z</time></trkpt><trkpt lat="44.49935036492469" lon="7.965951167756976"><ele>592.0</ele><time>2026-04-19T16:52:44.999Z</time></trkpt><trkpt lat="44.49944249598065" lon="7.965828634072239"><ele>592.0</ele><time>2026-04-19T16:52:45.999Z</time></trkpt><trkpt lat="44.49952173127495" lon="7.965713230100517"><ele>592.0</ele><time>2026-04-19T16:52:46.999Z</time></trkpt><trkpt lat="44.49957875970519" lon="7.965586279383158"><ele>593.0</ele><time>2026-04-19T16:52:47.999Z</time></trkpt><trkpt lat="44.4995963464198" lon="7.965446926638307"><ele>594.0</ele><time>2026-04-19T16:52:48.999Z</time></trkpt><trkpt lat="44.49958219090587" lon="7.965310314191413"><ele>595.0</ele><time>2026-04-19T16:52:49.999Z</time></trkpt><trkpt lat="44.4995552396922" lon="7.965180756599692"><ele>596.0</ele><time>2026-04-19T16:52:50.999Z</time></trkpt><trkpt lat="44.499518575660716" lon="7.965059860726221"><ele>597.0</ele><time>2026-04-19T16:52:51.999Z</time></trkpt><trkpt lat="44.499489509645436" lon="7.964939887928686"><ele>592.4</ele><time>2026-04-19T16:52:52.999Z</time></trkpt><trkpt lat="44.49946184526046" lon="7.964821741290226"><ele>587.8000000000001</ele><time>2026-04-19T16:52:53.999Z</time></trkpt><trkpt lat="44.499437615062604" lon="7.964698744973615"><ele>583.2</ele><time>2026-04-19T16:52:54.999Z</time></trkpt><trkpt lat="44.49940829615788" lon="7.964575386750718"><ele>578.6</ele><time>2026-04-19T16:52:55.999Z</time></trkpt><trkpt lat="44.49937940206779" lon="7.9644452067065075"><ele>574.0</ele><time>2026-04-19T16:52:56.999Z</time></trkpt><trkpt lat="44.49935666592815" lon="7.964310688992719"><ele>574.6</ele><time>2026-04-19T16:52:57.999Z</time></trkpt><trkpt lat="44.49934626198846" lon="7.964170729583599"><ele>575.2</ele><time>2026-04-19T16:52:58.999Z</time></trkpt><trkpt lat="44.49934959122365" lon="7.9640219029384305"><ele>575.8000000000001</ele><time>2026-04-19T16:52:59.999Z</time></trkpt><trkpt lat="44.49934246653332" lon="7.963874842500965"><ele>576.4</ele><time>2026-04-19T16:53:00.999Z</time></trkpt><trkpt lat="44.499315140389264" lon="7.96372819314267"><ele>577.0</ele><time>2026-04-19T16:53:01.999Z</time></trkpt><trkpt lat="44.49929106567525" lon="7.963585054234773"><ele>577.0</ele><time>2026-04-19T16:53:02.999Z</time></trkpt><trkpt lat="44.49926041018294" lon="7.9634567486080545"><ele>577.0</ele><time>2026-04-19T16:53:03.999Z</time></trkpt><trkpt lat="44.499223011962854" lon="7.963366491071962"><ele>577.0</ele><time>2026-04-19T16:53:04.999Z</time></trkpt><trkpt lat="44.499295936563286" lon="7.963241611204751"><ele>577.0</ele><time>2026-04-19T16:53:06.999Z</time></trkpt><trkpt lat="44.49942317749938" lon="7.96326220467696"><ele>577.0</ele><time>2026-04-19T16:53:08.999Z</time></trkpt><trkpt lat="44.49951014441448" lon="7.963339931089517"><ele>577.3333333333334</ele><time>2026-04-19T16:53:09.999Z</time></trkpt><trkpt lat="44.49962391385198" lon="7.963444162659284"><ele>577.6666666666666</ele><time>2026-04-19T16:53:10.999Z</time></trkpt><trkpt lat="44.49976119481545" lon="7.963551532769045"><ele>578.0</ele><time>2026-04-19T16:53:11.999Z</time></trkpt><trkpt lat="44.499922672772534" lon="7.963650335156183"><ele>578.0</ele><time>2026-04-19T16:53:12.999Z</time></trkpt><trkpt lat="44.50007793999805" lon="7.963720807135524"><ele>578.0</ele><time>2026-04-19T16:53:13.999Z</time></trkpt><trkpt lat="44.50023346787599" lon="7.963762450021809"><ele>578.0</ele><time>2026-04-19T16:53:14.999Z</time></trkpt><trkpt lat="44.500420047181905" lon="7.9637545298859385"><ele>576.3333333333333</ele><time>2026-04-19T16:53:15.999Z</time></trkpt><trkpt lat="44.50062862742243" lon="7.96370621435539"><ele>574.6666666666666</ele><time>2026-04-19T16:53:16.999Z</time></trkpt><trkpt lat="44.50084527482238" lon="7.963640176732201"><ele>573.0</ele><time>2026-04-19T16:53:17.999Z</time></trkpt><trkpt lat="44.501048727080075" lon="7.9635821393159025"><ele>573.0</ele><time>2026-04-19T16:53:18.999Z</time></trkpt><trkpt lat="44.501239044195096" lon="7.963533043731757"><ele>573.0</ele><time>2026-04-19T16:53:19.999Z</time></trkpt><trkpt lat="44.501421090201234" lon="7.963473518943018"><ele>573.0</ele><time>2026-04-19T16:53:20.999Z</time></trkpt><trkpt lat="44.50158400044029" lon="7.963412964210792"><ele>568.0</ele><time>2026-04-19T16:53:21.999Z</time></trkpt><trkpt lat="44.50175855327576" lon="7.9633531510274755"><ele>563.0</ele><time>2026-04-19T16:53:22.999Z</time></trkpt><trkpt lat="44.50194348880205" lon="7.963262997490832"><ele>558.0</ele><time>2026-04-19T16:53:23.999Z</time></trkpt><trkpt lat="44.50214825364447" lon="7.963130070049772"><ele>550.5</ele><time>2026-04-19T16:53:24.999Z</time></trkpt><trkpt lat="44.50237087731312" lon="7.962971111708129"><ele>543.0</ele><time>2026-04-19T16:53:25.999Z</time></trkpt><trkpt lat="44.50260438591976" lon="7.962801535692102"><ele>543.0</ele><time>2026-04-19T16:53:26.999Z</time></trkpt><trkpt lat="44.502835506797176" lon="7.962628007121728"><ele>543.0</ele><time>2026-04-19T16:53:27.999Z</time></trkpt><trkpt lat="44.503070905077976" lon="7.96251758378285"><ele>543.5</ele><time>2026-04-19T16:53:28.999Z</time></trkpt><trkpt lat="44.50331446163879" lon="7.9624276040072735"><ele>544.0</ele><time>2026-04-19T16:53:29.999Z</time></trkpt><trkpt lat="44.5035836137235" lon="7.962361041355507"><ele>539.0</ele><time>2026-04-19T16:53:30.999Z</time></trkpt><trkpt lat="44.50384927414657" lon="7.962301615857592"><ele>534.0</ele><time>2026-04-19T16:53:31.999Z</time></trkpt><trkpt lat="44.504095612132836" lon="7.962237442051836"><ele>534.0</ele><time>2026-04-19T16:53:32.999Z</time></trkpt><trkpt lat="44.50433713999579" lon="7.9621951102005335"><ele>534.0</ele><time>2026-04-19T16:53:33.999Z</time></trkpt><trkpt lat="44.50456546541152" lon="7.962164422851067"><ele>534.6666666666666</ele><time>2026-04-19T16:53:34.999Z</time></trkpt><trkpt lat="44.504784869420945" lon="7.962167681443415"><ele>535.3333333333333</ele><time>2026-04-19T16:53:35.999Z</time></trkpt><trkpt lat="44.50499207160834" lon="7.96224544644176"><ele>536.0</ele><time>2026-04-19T16:53:36.999Z</time></trkpt><trkpt lat="44.505196737278276" lon="7.962260819283706"><ele>536.0</ele><time>2026-04-19T16:53:37.999Z</time></trkpt><trkpt lat="44.505387309776886" lon="7.962283820872594"><ele>536.0</ele><time>2026-04-19T16:53:38.999Z</time></trkpt><trkpt lat="44.505595077850934" lon="7.962248680523939"><ele>536.0</ele><time>2026-04-19T16:53:39.999Z</time></trkpt><trkpt lat="44.50581622608654" lon="7.962179288341277"><ele>534.5</ele><time>2026-04-19T16:53:40.999Z</time></trkpt><trkpt lat="44.506054601117825" lon="7.962107330994627"><ele>533.0</ele><time>2026-04-19T16:53:41.999Z</time></trkpt><trkpt lat="44.50630799533879" lon="7.9620344186091065"><ele>529.0</ele><time>2026-04-19T16:53:42.999Z</time></trkpt><trkpt lat="44.50657016698142" lon="7.961977097772618"><ele>525.0</ele><time>2026-04-19T16:53:43.999Z</time></trkpt><trkpt lat="44.50684404574097" lon="7.961912846275053"><ele>522.0</ele><time>2026-04-19T16:53:44.999Z</time></trkpt><trkpt lat="44.507125961917744" lon="7.961839890290509"><ele>519.0</ele><time>2026-04-19T16:53:45.999Z</time></trkpt><trkpt lat="44.50741546021002" lon="7.961765007002866"><ele>526.0</ele><time>2026-04-19T16:53:46.998Z</time></trkpt><trkpt lat="44.507691776761725" lon="7.961695215861066"><ele>533.0</ele><time>2026-04-19T16:53:47.998Z</time></trkpt><trkpt lat="44.50794950491524" lon="7.961632813847304"><ele>535.5</ele><time>2026-04-19T16:53:48.998Z</time></trkpt><trkpt lat="44.50819977804275" lon="7.961570011319835"><ele>538.0</ele><time>2026-04-19T16:53:49.998Z</time></trkpt><trkpt lat="44.50843474017376" lon="7.961517044335112"><ele>538.0</ele><time>2026-04-19T16:53:50.998Z</time></trkpt><trkpt lat="44.508658669049346" lon="7.9614767310342085"><ele>538.0</ele><time>2026-04-19T16:53:51.998Z</time></trkpt><trkpt lat="44.50887493575676" lon="7.961449789362755"><ele>538.0</ele><time>2026-04-19T16:53:52.998Z</time></trkpt><trkpt lat="44.50907981103268" lon="7.9614207544029485"><ele>539.5</ele><time>2026-04-19T16:53:53.998Z</time></trkpt><trkpt lat="44.509301419659664" lon="7.961386058552318"><ele>541.0</ele><time>2026-04-19T16:53:54.998Z</time></trkpt><trkpt lat="44.509530984422845" lon="7.961345293766006"><ele>541.5</ele><time>2026-04-19T16:53:55.998Z</time></trkpt><trkpt lat="44.50977419690804" lon="7.961305330440094"><ele>542.0</ele><time>2026-04-19T16:53:56.998Z</time></trkpt><trkpt lat="44.51002253609366" lon="7.961264991675408"><ele>542.0</ele><time>2026-04-19T16:53:57.998Z</time></trkpt><trkpt lat="44.51027758715056" lon="7.961226779469307"><ele>542.0</ele><time>2026-04-19T16:53:58.998Z</time></trkpt><trkpt lat="44.51053457422495" lon="7.961171855484953"><ele>535.5</ele><time>2026-04-19T16:53:59.998Z</time></trkpt><trkpt lat="44.510791569243025" lon="7.961109676395816"><ele>529.0</ele><time>2026-04-19T16:54:00.998Z</time></trkpt><trkpt lat="44.51103481306999" lon="7.9610362251928874"><ele>526.5</ele><time>2026-04-19T16:54:01.998Z</time></trkpt><trkpt lat="44.51126953653965" lon="7.960958181974969"><ele>524.0</ele><time>2026-04-19T16:54:02.998Z</time></trkpt><trkpt lat="44.51149301518836" lon="7.960865017213581"><ele>529.0</ele><time>2026-04-19T16:54:03.998Z</time></trkpt><trkpt lat="44.51172977872454" lon="7.96077933221043"><ele>534.0</ele><time>2026-04-19T16:54:04.998Z</time></trkpt><trkpt lat="44.511970071171504" lon="7.960695794316718"><ele>534.5</ele><time>2026-04-19T16:54:05.998Z</time></trkpt><trkpt lat="44.51220219745064" lon="7.960611939124894"><ele>535.0</ele><time>2026-04-19T16:54:06.998Z</time></trkpt><trkpt lat="44.51242607201859" lon="7.96053237186238"><ele>535.0</ele><time>2026-04-19T16:54:07.998Z</time></trkpt><trkpt lat="44.51264411162757" lon="7.960458650523366"><ele>535.0</ele><time>2026-04-19T16:54:08.998Z</time></trkpt><trkpt lat="44.51285529896801" lon="7.960386761604417"><ele>535.0</ele><time>2026-04-19T16:54:09.998Z</time></trkpt><trkpt lat="44.51305476525977" lon="7.960320069129208"><ele>536.0</ele><time>2026-04-19T16:54:10.998Z</time></trkpt><trkpt lat="44.513241259171814" lon="7.960253726359016"><ele>537.0</ele><time>2026-04-19T16:54:11.998Z</time></trkpt><trkpt lat="44.513410941241695" lon="7.960198164663437"><ele>538.0</ele><time>2026-04-19T16:54:12.998Z</time></trkpt><trkpt lat="44.51356128278305" lon="7.960144863102704"><ele>538.0</ele><time>2026-04-19T16:54:13.998Z</time></trkpt><trkpt lat="44.51369784759835" lon="7.960105173763686"><ele>538.0</ele><time>2026-04-19T16:54:14.998Z</time></trkpt><trkpt lat="44.513826013936274" lon="7.960084942674937"><ele>538.0</ele><time>2026-04-19T16:54:15.998Z</time></trkpt><trkpt lat="44.513946628123705" lon="7.960100866347098"><ele>538.0</ele><time>2026-04-19T16:54:16.998Z</time></trkpt><trkpt lat="44.51406945267594" lon="7.96017324193048"><ele>535.3333333333334</ele><time>2026-04-19T16:54:17.998Z</time></trkpt><trkpt lat="44.51416789178164" lon="7.960307828453211"><ele>532.6666666666666</ele><time>2026-04-19T16:54:18.998Z</time></trkpt><trkpt lat="44.514279198019494" lon="7.960451327440347"><ele>530.0</ele><time>2026-04-19T16:54:19.998Z</time></trkpt><trkpt lat="44.51438299445309" lon="7.960650339858517"><ele>530.0</ele><time>2026-04-19T16:54:20.998Z</time></trkpt><trkpt lat="44.514501843705" lon="7.960865206012606"><ele>530.0</ele><time>2026-04-19T16:54:21.998Z</time></trkpt><trkpt lat="44.51462373305552" lon="7.9610695635254185"><ele>530.0</ele><time>2026-04-19T16:54:22.998Z</time></trkpt><trkpt lat="44.51474545501657" lon="7.961249898428083"><ele>527.0</ele><time>2026-04-19T16:54:23.998Z</time></trkpt><trkpt lat="44.514871227951836" lon="7.961409745483333"><ele>524.0</ele><time>2026-04-19T16:54:24.998Z</time></trkpt><trkpt lat="44.51499418069007" lon="7.961546478894586"><ele>521.0</ele><time>2026-04-19T16:54:25.998Z</time></trkpt><trkpt lat="44.51511487536354" lon="7.961651872553355"><ele>521.25</ele><time>2026-04-19T16:54:26.998Z</time></trkpt><trkpt lat="44.515240831956675" lon="7.961714611375687"><ele>521.5</ele><time>2026-04-19T16:54:27.998Z</time></trkpt><trkpt lat="44.515377130970016" lon="7.96173509424426"><ele>521.75</ele><time>2026-04-19T16:54:28.999Z</time></trkpt><trkpt lat="44.515514474506105" lon="7.961711181253593"><ele>522.0</ele><time>2026-04-19T16:54:29.999Z</time></trkpt><trkpt lat="44.515646928548605" lon="7.961651181760998"><ele>520.0</ele><time>2026-04-19T16:54:30.999Z</time></trkpt><trkpt lat="44.515769617653255" lon="7.961565304217381"><ele>518.0</ele><time>2026-04-19T16:54:31.999Z</time></trkpt><trkpt lat="44.51586903737081" lon="7.961442047776104"><ele>516.0</ele><time>2026-04-19T16:54:33Z</time></trkpt><trkpt lat="44.51596467454719" lon="7.961332214094372"><ele>514.0</ele><time>2026-04-19T16:54:33.999Z</time></trkpt><trkpt lat="44.51607331527862" lon="7.9612757147428335"><ele>514.0</ele><time>2026-04-19T16:54:34.999Z</time></trkpt><trkpt lat="44.516196442891626" lon="7.961267224436798"><ele>514.0</ele><time>2026-04-19T16:54:36Z</time></trkpt><trkpt lat="44.51634757547589" lon="7.9612860550560525"><ele>514.0</ele><time>2026-04-19T16:54:36.999Z</time></trkpt><trkpt lat="44.51650663709992" lon="7.9613019573205435"><ele>514.0</ele><time>2026-04-19T16:54:38Z</time></trkpt><trkpt lat="44.51665683362933" lon="7.961287400939888"><ele>512.25</ele><time>2026-04-19T16:54:39Z</time></trkpt><trkpt lat="44.51679998645442" lon="7.961253390939232"><ele>510.5</ele><time>2026-04-19T16:54:39.999Z</time></trkpt><trkpt lat="44.51693871502896" lon="7.961202323695236"><ele>508.75</ele><time>2026-04-19T16:54:41Z</time></trkpt><trkpt lat="44.51706590703332" lon="7.961138357394875"><ele>507.0</ele><time>2026-04-19T16:54:42Z</time></trkpt><trkpt lat="44.517171327198206" lon="7.961040062444685"><ele>505.75</ele><time>2026-04-19T16:54:42.999Z</time></trkpt><trkpt lat="44.51725916432249" lon="7.96091067851875"><ele>504.5</ele><time>2026-04-19T16:54:43.999Z</time></trkpt><trkpt lat="44.51733342794701" lon="7.960763804271296"><ele>503.25</ele><time>2026-04-19T16:54:44.999Z</time></trkpt><trkpt lat="44.51738966744058" lon="7.960601818025135"><ele>502.0</ele><time>2026-04-19T16:54:45.999Z</time></trkpt><trkpt lat="44.51742869514939" lon="7.9604273644202275"><ele>501.8</ele><time>2026-04-19T16:54:46.999Z</time></trkpt><trkpt lat="44.51745195236974" lon="7.960262191201734"><ele>501.6</ele><time>2026-04-19T16:54:47.999Z</time></trkpt><trkpt lat="44.5174733886003" lon="7.960113227305498"><ele>501.40000000000003</ele><time>2026-04-19T16:54:48.999Z</time></trkpt><trkpt lat="44.517500066593776" lon="7.959979669691413"><ele>501.20000000000005</ele><time>2026-04-19T16:54:49.999Z</time></trkpt><trkpt lat="44.5175372818895" lon="7.959841504917827"><ele>501.0</ele><time>2026-04-19T16:54:50.999Z</time></trkpt><trkpt lat="44.5175888626585" lon="7.9597021433036215"><ele>498.8</ele><time>2026-04-19T16:54:51.999Z</time></trkpt><trkpt lat="44.51765152403331" lon="7.9595523105734"><ele>496.6</ele><time>2026-04-19T16:54:52.999Z</time></trkpt><trkpt lat="44.517704908953796" lon="7.959436679052573"><ele>494.4</ele><time>2026-04-19T16:54:53.999Z</time></trkpt><trkpt lat="44.51774223277611" lon="7.95933787668091"><ele>492.2</ele><time>2026-04-19T16:54:54.999Z</time></trkpt><trkpt lat="44.517773647538775" lon="7.959198798827447"><ele>490.0</ele><time>2026-04-19T16:54:56.999Z</time></trkpt><trkpt lat="44.517801179894825" lon="7.959021700870728"><ele>490.6</ele><time>2026-04-19T16:54:58.999Z</time></trkpt><trkpt lat="44.51782023318945" lon="7.95887808908022"><ele>491.2</ele><time>2026-04-19T16:54:59.999Z</time></trkpt><trkpt lat="44.517844842229664" lon="7.958727533038889"><ele>491.79999999999995</ele><time>2026-04-19T16:55:00.999Z</time></trkpt><trkpt lat="44.517878382966835" lon="7.958584549730423"><ele>492.4</ele><time>2026-04-19T16:55:01.999Z</time></trkpt><trkpt lat="44.517909107214294" lon="7.9584295822101785"><ele>493.0</ele><time>2026-04-19T16:55:02.999Z</time></trkpt><trkpt lat="44.517946767474655" lon="7.958258738665604"><ele>491.0</ele><time>2026-04-19T16:55:03.999Z</time></trkpt><trkpt lat="44.518007049199106" lon="7.958073994309559"><ele>489.0</ele><time>2026-04-19T16:55:04.999Z</time></trkpt><trkpt lat="44.51803496915849" lon="7.957872896917809"><ele>487.0</ele><time>2026-04-19T16:55:05.999Z</time></trkpt><trkpt lat="44.518076486917614" lon="7.957688768899628"><ele>485.0</ele><time>2026-04-19T16:55:06.999Z</time></trkpt><trkpt lat="44.51811142031386" lon="7.957512272583583"><ele>483.0</ele><time>2026-04-19T16:55:07.999Z</time></trkpt><trkpt lat="44.51813902771717" lon="7.957334723939136"><ele>481.0</ele><time>2026-04-19T16:55:08.999Z</time></trkpt><trkpt lat="44.518159759566586" lon="7.957163458769751"><ele>479.0</ele><time>2026-04-19T16:55:09.999Z</time></trkpt><trkpt lat="44.51818239905754" lon="7.957018082520553"><ele>477.0</ele><time>2026-04-19T16:55:10.999Z</time></trkpt><trkpt lat="44.51821820670739" lon="7.9568996569873045"><ele>477.0</ele><time>2026-04-19T16:55:11.999Z</time></trkpt><trkpt lat="44.51827449440802" lon="7.956791047903606"><ele>477.00000000000006</ele><time>2026-04-19T16:55:12.999Z</time></trkpt><trkpt lat="44.51836206826407" lon="7.956718402541737"><ele>477.00000000000006</ele><time>2026-04-19T16:55:13.999Z</time></trkpt><trkpt lat="44.51846629359735" lon="7.956673622887127"><ele>477.0</ele><time>2026-04-19T16:55:14.999Z</time></trkpt><trkpt lat="44.51856117168337" lon="7.956630304478107"><ele>477.0</ele><time>2026-04-19T16:55:15.999Z</time></trkpt><trkpt lat="44.51864382572761" lon="7.956541292918568"><ele>474.33333333333337</ele><time>2026-04-19T16:55:16.999Z</time></trkpt><trkpt lat="44.518697514625835" lon="7.956377791985426"><ele>471.6666666666667</ele><time>2026-04-19T16:55:17.999Z</time></trkpt><trkpt lat="44.51872672083595" lon="7.956170607738024"><ele>469.0</ele><time>2026-04-19T16:55:18.999Z</time></trkpt><trkpt lat="44.51874032483059" lon="7.9559092411732655"><ele>463.6666666666667</ele><time>2026-04-19T16:55:19.999Z</time></trkpt><trkpt lat="44.51879974033623" lon="7.95563532116319"><ele>458.33333333333337</ele><time>2026-04-19T16:55:20.999Z</time></trkpt><trkpt lat="44.518862357917435" lon="7.955324613794041"><ele>453.0</ele><time>2026-04-19T16:55:21.999Z</time></trkpt><trkpt lat="44.518910167117866" lon="7.954994187850514"><ele>453.0</ele><time>2026-04-19T16:55:22.999Z</time></trkpt><trkpt lat="44.51896845448086" lon="7.954686670736707"><ele>453.0</ele><time>2026-04-19T16:55:23.999Z</time></trkpt><trkpt lat="44.51903029770578" lon="7.954388876971525"><ele>453.0</ele><time>2026-04-19T16:55:24.999Z</time></trkpt><trkpt lat="44.51909215993603" lon="7.954100961903716"><ele>452.66666666666663</ele><time>2026-04-19T16:55:25.999Z</time></trkpt><trkpt lat="44.51913728363765" lon="7.953834553729872"><ele>452.3333333333333</ele><time>2026-04-19T16:55:26.999Z</time></trkpt><trkpt lat="44.51920977315967" lon="7.9536061045948925"><ele>452.0</ele><time>2026-04-19T16:55:27.999Z</time></trkpt><trkpt lat="44.51931445037989" lon="7.9534063110962085"><ele>452.3333333333333</ele><time>2026-04-19T16:55:28.999Z</time></trkpt><trkpt lat="44.519430202116055" lon="7.953210507972519"><ele>452.66666666666663</ele><time>2026-04-19T16:55:29.999Z</time></trkpt><trkpt lat="44.51953685865718" lon="7.953012809820942"><ele>453.0</ele><time>2026-04-19T16:55:30.999Z</time></trkpt><trkpt lat="44.51965298314439" lon="7.952834826686766"><ele>449.66666666666663</ele><time>2026-04-19T16:55:31.999Z</time></trkpt><trkpt lat="44.51975784670938" lon="7.952651363040186"><ele>446.3333333333333</ele><time>2026-04-19T16:55:32.999Z</time></trkpt><trkpt lat="44.51985586540319" lon="7.952475082057619"><ele>443.0</ele><time>2026-04-19T16:55:33.999Z</time></trkpt><trkpt lat="44.51996137007751" lon="7.952311436886841"><ele>443.0</ele><time>2026-04-19T16:55:34.999Z</time></trkpt><trkpt lat="44.520085779010195" lon="7.9521772743998485"><ele>443.0</ele><time>2026-04-19T16:55:35.999Z</time></trkpt><trkpt lat="44.52022466220612" lon="7.9520610133781275"><ele>443.0</ele><time>2026-04-19T16:55:36.999Z</time></trkpt><trkpt lat="44.520366217539475" lon="7.951954356857166"><ele>440.66666666666663</ele><time>2026-04-19T16:55:37.999Z</time></trkpt><trkpt lat="44.52050802914562" lon="7.951851822004423"><ele>438.33333333333337</ele><time>2026-04-19T16:55:38.999Z</time></trkpt><trkpt lat="44.52064845169764" lon="7.951750110686206"><ele>436.0</ele><time>2026-04-19T16:55:39.999Z</time></trkpt><trkpt lat="44.520781992651415" lon="7.951650600867521"><ele>436.0</ele><time>2026-04-19T16:55:40.999Z</time></trkpt><trkpt lat="44.520905297898764" lon="7.951556943226451"><ele>436.0</ele><time>2026-04-19T16:55:41.999Z</time></trkpt><trkpt lat="44.5210238216722" lon="7.951465339760105"><ele>436.0</ele><time>2026-04-19T16:55:42.999Z</time></trkpt><trkpt lat="44.52113705061388" lon="7.951384285269713"><ele>436.0</ele><time>2026-04-19T16:55:43.999Z</time></trkpt><trkpt lat="44.5212392754317" lon="7.951315131970939"><ele>432.8</ele><time>2026-04-19T16:55:44.999Z</time></trkpt><trkpt lat="44.521316202265645" lon="7.951246802225824"><ele>429.6</ele><time>2026-04-19T16:55:45.999Z</time></trkpt><trkpt lat="44.52136708539245" lon="7.951146980858303"><ele>426.4</ele><time>2026-04-19T16:55:46.999Z</time></trkpt><trkpt lat="44.521390538437785" lon="7.951011254369755"><ele>423.2</ele><time>2026-04-19T16:55:47.999Z</time></trkpt><trkpt lat="44.52137257362015" lon="7.95084772061188"><ele>420.0</ele><time>2026-04-19T16:55:48.999Z</time></trkpt><trkpt lat="44.521328477217736" lon="7.950647684433054"><ele>419.33333333333337</ele><time>2026-04-19T16:55:49.999Z</time></trkpt><trkpt lat="44.52130349214195" lon="7.950407941049623"><ele>418.6666666666667</ele><time>2026-04-19T16:55:50.999Z</time></trkpt><trkpt lat="44.52134270689764" lon="7.950136144136494"><ele>418.0</ele><time>2026-04-19T16:55:51.999Z</time></trkpt><trkpt lat="44.52138340605049" lon="7.949851735749136"><ele>416.6666666666667</ele><time>2026-04-19T16:55:52.999Z</time></trkpt><trkpt lat="44.5214409953645" lon="7.949595144687168"><ele>415.33333333333337</ele><time>2026-04-19T16:55:53.999Z</time></trkpt><trkpt lat="44.52148113476549" lon="7.949345815435549"><ele>414.0</ele><time>2026-04-19T16:55:54.999Z</time></trkpt><trkpt lat="44.52150246628755" lon="7.949106429525736"><ele>413.33333333333337</ele><time>2026-04-19T16:55:55.999Z</time></trkpt><trkpt lat="44.52151476881593" lon="7.9488808161355085"><ele>412.6666666666667</ele><time>2026-04-19T16:55:56.998Z</time></trkpt><trkpt lat="44.521531060026" lon="7.948664580148748"><ele>412.0</ele><time>2026-04-19T16:55:57.998Z</time></trkpt><trkpt lat="44.52156770253368" lon="7.948459974400099"><ele>411.0</ele><time>2026-04-19T16:55:58.998Z</time></trkpt><trkpt lat="44.52163750709367" lon="7.9482751940427026"><ele>410.0</ele><time>2026-04-19T16:55:59.998Z</time></trkpt><trkpt lat="44.52173631502651" lon="7.9480967533742675"><ele>409.0</ele><time>2026-04-19T16:56:00.998Z</time></trkpt><trkpt lat="44.52186266446001" lon="7.9479021197185"><ele>409.0</ele><time>2026-04-19T16:56:01.998Z</time></trkpt><trkpt lat="44.52202570951209" lon="7.947709748631758"><ele>409.0</ele><time>2026-04-19T16:56:02.998Z</time></trkpt><trkpt lat="44.52218396534605" lon="7.947533905443966"><ele>409.0</ele><time>2026-04-19T16:56:03.998Z</time></trkpt><trkpt lat="44.52232033243019" lon="7.947354449342414"><ele>406.25</ele><time>2026-04-19T16:56:04.998Z</time></trkpt><trkpt lat="44.522434827560026" lon="7.947187104718848"><ele>403.5</ele><time>2026-04-19T16:56:05.998Z</time></trkpt><trkpt lat="44.52252770129464" lon="7.947045107066268"><ele>400.75</ele><time>2026-04-19T16:56:06.998Z</time></trkpt><trkpt lat="44.52259871398695" lon="7.946905100321098"><ele>398.0</ele><time>2026-04-19T16:56:07.998Z</time></trkpt><trkpt lat="44.52264064004521" lon="7.9467518677973175"><ele>399.5</ele><time>2026-04-19T16:56:08.998Z</time></trkpt><trkpt lat="44.52264306407949" lon="7.946585827944875"><ele>401.0</ele><time>2026-04-19T16:56:09.998Z</time></trkpt><trkpt lat="44.522598176102726" lon="7.946403260043971"><ele>402.5</ele><time>2026-04-19T16:56:10.998Z</time></trkpt><trkpt lat="44.52251192213296" lon="7.946195981283177"><ele>404.0</ele><time>2026-04-19T16:56:11.998Z</time></trkpt><trkpt lat="44.52241321368739" lon="7.945970483857207"><ele>400.66666666666663</ele><time>2026-04-19T16:56:12.998Z</time></trkpt><trkpt lat="44.52232048436781" lon="7.9457106291595085"><ele>397.33333333333337</ele><time>2026-04-19T16:56:13.998Z</time></trkpt><trkpt lat="44.52223296165398" lon="7.945484214693329"><ele>394.0</ele><time>2026-04-19T16:56:14.998Z</time></trkpt><trkpt lat="44.52214832924014" lon="7.945275042716169"><ele>394.0</ele><time>2026-04-19T16:56:15.998Z</time></trkpt><trkpt lat="44.52206498412741" lon="7.945084408932236"><ele>394.0</ele><time>2026-04-19T16:56:16.998Z</time></trkpt><trkpt lat="44.521987039172124" lon="7.944905158880273"><ele>394.0</ele><time>2026-04-19T16:56:17.998Z</time></trkpt><trkpt lat="44.521913574264275" lon="7.944734146934692"><ele>394.0</ele><time>2026-04-19T16:56:18.998Z</time></trkpt><trkpt lat="44.52184550253715" lon="7.944578376648155"><ele>394.0</ele><time>2026-04-19T16:56:19.998Z</time></trkpt><trkpt lat="44.521789524517814" lon="7.944452284797937"><ele>394.0</ele><time>2026-04-19T16:56:20.998Z</time></trkpt><trkpt lat="44.52174503919716" lon="7.94435119266007"><ele>394.0</ele><time>2026-04-19T16:56:21.998Z</time></trkpt><trkpt lat="44.52171041206929" lon="7.9442752057589265"><ele>394.0</ele><time>2026-04-19T16:56:22.998Z</time></trkpt><trkpt lat="44.521673140446744" lon="7.944199750161974"><ele>394.0</ele><time>2026-04-19T16:56:23.998Z</time></trkpt><trkpt lat="44.521640943173104" lon="7.944121779801445"><ele>394.0</ele><time>2026-04-19T16:56:24.998Z</time></trkpt><trkpt lat="44.52147066346829" lon="7.944115701318199"><ele>394.0</ele><time>2026-04-19T16:56:26.998Z</time></trkpt><trkpt lat="44.521369902720565" lon="7.944166996976199"><ele>394.0</ele><time>2026-04-19T16:56:27.998Z</time></trkpt><trkpt lat="44.52125817898141" lon="7.944231781102234"><ele>394.6666666666667</ele><time>2026-04-19T16:56:28.998Z</time></trkpt><trkpt lat="44.52113475924806" lon="7.944305239373835"><ele>395.33333333333337</ele><time>2026-04-19T16:56:29.998Z</time></trkpt><trkpt lat="44.52098708361249" lon="7.9443915246953125"><ele>396.0</ele><time>2026-04-19T16:56:30.998Z</time></trkpt><trkpt lat="44.52080357223871" lon="7.9444090455694525"><ele>396.0</ele><time>2026-04-19T16:56:31.998Z</time></trkpt><trkpt lat="44.52063638544205" lon="7.94448627209623"><ele>396.0</ele><time>2026-04-19T16:56:32.998Z</time></trkpt><trkpt lat="44.520484918484" lon="7.944556871789386"><ele>396.0</ele><time>2026-04-19T16:56:34Z</time></trkpt><trkpt lat="44.52034513465914" lon="7.944604724132204"><ele>391.6666666666667</ele><time>2026-04-19T16:56:35Z</time></trkpt><trkpt lat="44.52020892927994" lon="7.94460340520309"><ele>387.33333333333337</ele><time>2026-04-19T16:56:36Z</time></trkpt><trkpt lat="44.52005904611152" lon="7.944547714517062"><ele>383.0</ele><time>2026-04-19T16:56:37Z</time></trkpt><trkpt lat="44.5198970481963" lon="7.944464091117089"><ele>383.0</ele><time>2026-04-19T16:56:38Z</time></trkpt><trkpt lat="44.519720096886466" lon="7.9443642467715625"><ele>383.0</ele><time>2026-04-19T16:56:39Z</time></trkpt><trkpt lat="44.519532828269114" lon="7.9442576951019"><ele>383.0</ele><time>2026-04-19T16:56:40Z</time></trkpt><trkpt lat="44.51933290970722" lon="7.944140415366757"><ele>381.5</ele><time>2026-04-19T16:56:41Z</time></trkpt><trkpt lat="44.51912546060585" lon="7.9440187670084494"><ele>380.0</ele><time>2026-04-19T16:56:42Z</time></trkpt><trkpt lat="44.51892048698017" lon="7.943877201031269"><ele>377.5</ele><time>2026-04-19T16:56:43Z</time></trkpt><trkpt lat="44.51871059434813" lon="7.943704629746665"><ele>375.0</ele><time>2026-04-19T16:56:44Z</time></trkpt><trkpt lat="44.518501079965205" lon="7.943492903571827"><ele>374.0</ele><time>2026-04-19T16:56:45Z</time></trkpt><trkpt lat="44.51829471954264" lon="7.943253906982622"><ele>373.0</ele><time>2026-04-19T16:56:46Z</time></trkpt><trkpt lat="44.51810009327573" lon="7.943028985411596"><ele>371.0</ele><time>2026-04-19T16:56:47Z</time></trkpt><trkpt lat="44.51788303325004" lon="7.942781107090141"><ele>369.0</ele><time>2026-04-19T16:56:48Z</time></trkpt><trkpt lat="44.51765430226419" lon="7.942542274729186"><ele>368.0</ele><time>2026-04-19T16:56:49Z</time></trkpt><trkpt lat="44.517436869583065" lon="7.942294824896003"><ele>367.0</ele><time>2026-04-19T16:56:50Z</time></trkpt><trkpt lat="44.51722638713117" lon="7.942059977912532"><ele>367.0</ele><time>2026-04-19T16:56:50.999Z</time></trkpt><trkpt lat="44.51703408279257" lon="7.941808993070226"><ele>367.0</ele><time>2026-04-19T16:56:51.999Z</time></trkpt><trkpt lat="44.51682665007576" lon="7.941598154063578"><ele>364.0</ele><time>2026-04-19T16:56:52.999Z</time></trkpt><trkpt lat="44.51663280447128" lon="7.941370775896626"><ele>361.0</ele><time>2026-04-19T16:56:53.999Z</time></trkpt><trkpt lat="44.51644266639586" lon="7.9411523846396435"><ele>361.0</ele><time>2026-04-19T16:56:54.999Z</time></trkpt><trkpt lat="44.51625395988944" lon="7.940939755861264"><ele>361.0</ele><time>2026-04-19T16:56:55.999Z</time></trkpt><trkpt lat="44.51607036507455" lon="7.9407275319918815"><ele>357.5</ele><time>2026-04-19T16:56:56.999Z</time></trkpt><trkpt lat="44.51589207188954" lon="7.940518164439841"><ele>354.0</ele><time>2026-04-19T16:56:57.999Z</time></trkpt><trkpt lat="44.5157425892935" lon="7.940268191904984"><ele>354.5</ele><time>2026-04-19T16:56:58.999Z</time></trkpt><trkpt lat="44.51558884581159" lon="7.939999200464447"><ele>355.0</ele><time>2026-04-19T16:56:59.999Z</time></trkpt><trkpt lat="44.51544532467049" lon="7.939692847094511"><ele>352.0</ele><time>2026-04-19T16:57:00.999Z</time></trkpt><trkpt lat="44.51531520209091" lon="7.939366674797393"><ele>349.0</ele><time>2026-04-19T16:57:01.999Z</time></trkpt><trkpt lat="44.51519582953164" lon="7.939060002146256"><ele>348.5</ele><time>2026-04-19T16:57:02.999Z</time></trkpt><trkpt lat="44.51507976818788" lon="7.93876614809253"><ele>348.0</ele><time>2026-04-19T16:57:03.999Z</time></trkpt><trkpt lat="44.51495415846895" lon="7.938494424160197"><ele>347.5</ele><time>2026-04-19T16:57:04.999Z</time></trkpt><trkpt lat="44.5148776718157" lon="7.9381954568143875"><ele>347.0</ele><time>2026-04-19T16:57:05.999Z</time></trkpt><trkpt lat="44.51482001197514" lon="7.9378802117252665"><ele>347.5</ele><time>2026-04-19T16:57:06.999Z</time></trkpt><trkpt lat="44.514777099493074" lon="7.937526998628495"><ele>348.0</ele><time>2026-04-19T16:57:07.999Z</time></trkpt><trkpt lat="44.51472880804382" lon="7.937139729488481"><ele>348.0</ele><time>2026-04-19T16:57:08.999Z</time></trkpt><trkpt lat="44.5146962402961" lon="7.936767696292153"><ele>348.0</ele><time>2026-04-19T16:57:09.999Z</time></trkpt><trkpt lat="44.51465747685364" lon="7.936413368895087"><ele>349.5</ele><time>2026-04-19T16:57:10.999Z</time></trkpt><trkpt lat="44.5146159601604" lon="7.936073093659881"><ele>351.0</ele><time>2026-04-19T16:57:11.999Z</time></trkpt><trkpt lat="44.514569286598025" lon="7.935744208805515"><ele>345.5</ele><time>2026-04-19T16:57:12.999Z</time></trkpt><trkpt lat="44.514505905473875" lon="7.935424653989125"><ele>340.0</ele><time>2026-04-19T16:57:13.999Z</time></trkpt><trkpt lat="44.51442132710186" lon="7.935106882725907"><ele>340.0</ele><time>2026-04-19T16:57:14.999Z</time></trkpt><trkpt lat="44.514319483515614" lon="7.934790478703255"><ele>340.0</ele><time>2026-04-19T16:57:15.999Z</time></trkpt><trkpt lat="44.51420323954692" lon="7.934482131306641"><ele>340.0</ele><time>2026-04-19T16:57:16.999Z</time></trkpt><trkpt lat="44.51407843841215" lon="7.934190087585066"><ele>340.0</ele><time>2026-04-19T16:57:17.999Z</time></trkpt><trkpt lat="44.51395094909436" lon="7.933916500988072"><ele>340.0</ele><time>2026-04-19T16:57:18.999Z</time></trkpt><trkpt lat="44.5138450842185" lon="7.93364388176509"><ele>340.0</ele><time>2026-04-19T16:57:19.999Z</time></trkpt><trkpt lat="44.51373829163281" lon="7.933403756816702"><ele>340.0</ele><time>2026-04-19T16:57:20.999Z</time></trkpt><trkpt lat="44.5136417063257" lon="7.933176058793017"><ele>339.0</ele><time>2026-04-19T16:57:21.999Z</time></trkpt><trkpt lat="44.513570484823916" lon="7.93293647473474"><ele>338.0</ele><time>2026-04-19T16:57:22.999Z</time></trkpt><trkpt lat="44.51351624482511" lon="7.932678427119461"><ele>337.0</ele><time>2026-04-19T16:57:23.999Z</time></trkpt><trkpt lat="44.513510201325225" lon="7.932372750257687"><ele>334.5</ele><time>2026-04-19T16:57:24.999Z</time></trkpt><trkpt lat="44.51353364495738" lon="7.932041004932352"><ele>332.0</ele><time>2026-04-19T16:57:25.999Z</time></trkpt><trkpt lat="44.51356577275571" lon="7.931701459673202"><ele>331.0</ele><time>2026-04-19T16:57:26.999Z</time></trkpt><trkpt lat="44.51357132859401" lon="7.931351134158208"><ele>330.0</ele><time>2026-04-19T16:57:27.999Z</time></trkpt><trkpt lat="44.513542438069265" lon="7.930998691592528"><ele>331.5</ele><time>2026-04-19T16:57:28.999Z</time></trkpt><trkpt lat="44.51348461075108" lon="7.9306406326720715"><ele>333.0</ele><time>2026-04-19T16:57:29.999Z</time></trkpt><trkpt lat="44.5134171761649" lon="7.9302776211518315"><ele>334.0</ele><time>2026-04-19T16:57:30.999Z</time></trkpt><trkpt lat="44.51335741961014" lon="7.929927773932073"><ele>335.0</ele><time>2026-04-19T16:57:31.999Z</time></trkpt><trkpt lat="44.513309326967715" lon="7.929596750005182"><ele>335.0</ele><time>2026-04-19T16:57:32.999Z</time></trkpt><trkpt lat="44.51326412132556" lon="7.9292615539101305"><ele>335.0</ele><time>2026-04-19T16:57:33.999Z</time></trkpt><trkpt lat="44.513216987238046" lon="7.928906849101217"><ele>335.0</ele><time>2026-04-19T16:57:34.999Z</time></trkpt><trkpt lat="44.51316374461124" lon="7.928536398046936"><ele>335.0</ele><time>2026-04-19T16:57:35.999Z</time></trkpt><trkpt lat="44.51310781854138" lon="7.928155972543785"><ele>335.5</ele><time>2026-04-19T16:57:36.999Z</time></trkpt><trkpt lat="44.51304969274243" lon="7.927767094513841"><ele>336.0</ele><time>2026-04-19T16:57:37.999Z</time></trkpt><trkpt lat="44.51299083942895" lon="7.927391136138079"><ele>336.0</ele><time>2026-04-19T16:57:38.999Z</time></trkpt><trkpt lat="44.51293373650763" lon="7.927036995707179"><ele>336.0</ele><time>2026-04-19T16:57:39.999Z</time></trkpt><trkpt lat="44.512879429436836" lon="7.926700164737939"><ele>336.5</ele><time>2026-04-19T16:57:40.999Z</time></trkpt><trkpt lat="44.5128351630977" lon="7.926375529980604"><ele>337.0</ele><time>2026-04-19T16:57:41.999Z</time></trkpt><trkpt lat="44.51280352363587" lon="7.926060444039975"><ele>337.0</ele><time>2026-04-19T16:57:42.999Z</time></trkpt><trkpt lat="44.51279946276461" lon="7.925746101307714"><ele>337.0</ele><time>2026-04-19T16:57:43.999Z</time></trkpt><trkpt lat="44.512818844265965" lon="7.925415609779235"><ele>337.0</ele><time>2026-04-19T16:57:44.999Z</time></trkpt><trkpt lat="44.51285735434968" lon="7.925067119511983"><ele>337.0</ele><time>2026-04-19T16:57:45.999Z</time></trkpt><trkpt lat="44.51292593887057" lon="7.924704180754712"><ele>335.5</ele><time>2026-04-19T16:57:46.999Z</time></trkpt><trkpt lat="44.51300318899805" lon="7.924333152593912"><ele>334.0</ele><time>2026-04-19T16:57:47.999Z</time></trkpt><trkpt lat="44.51308051246976" lon="7.9239608154472885"><ele>334.0</ele><time>2026-04-19T16:57:48.999Z</time></trkpt><trkpt lat="44.51314617223957" lon="7.923608404267431"><ele>334.0</ele><time>2026-04-19T16:57:49.999Z</time></trkpt><trkpt lat="44.513205888350605" lon="7.923267886326493"><ele>334.5</ele><time>2026-04-19T16:57:50.999Z</time></trkpt><trkpt lat="44.513267741744095" lon="7.922932398172631"><ele>335.0</ele><time>2026-04-19T16:57:51.999Z</time></trkpt><trkpt lat="44.51333351190783" lon="7.922593014983465"><ele>333.5</ele><time>2026-04-19T16:57:52.999Z</time></trkpt><trkpt lat="44.51339976807167" lon="7.922256434422369"><ele>332.0</ele><time>2026-04-19T16:57:53.999Z</time></trkpt><trkpt lat="44.513460963751776" lon="7.921932789511816"><ele>332.5</ele><time>2026-04-19T16:57:54.999Z</time></trkpt><trkpt lat="44.51351872085577" lon="7.921616199611827"><ele>333.0</ele><time>2026-04-19T16:57:55.999Z</time></trkpt><trkpt lat="44.51357378188937" lon="7.9213104187432615"><ele>333.0</ele><time>2026-04-19T16:57:56.999Z</time></trkpt><trkpt lat="44.513629871154215" lon="7.9210153396300305"><ele>333.0</ele><time>2026-04-19T16:57:57.999Z</time></trkpt><trkpt lat="44.51369672759772" lon="7.920734605088439"><ele>333.0</ele><time>2026-04-19T16:57:58.999Z</time></trkpt><trkpt lat="44.51377619684526" lon="7.920474187935009"><ele>332.6666666666667</ele><time>2026-04-19T16:57:59.999Z</time></trkpt><trkpt lat="44.51386722681802" lon="7.920253907399028"><ele>332.33333333333337</ele><time>2026-04-19T16:58:00.999Z</time></trkpt><trkpt lat="44.513975217471334" lon="7.920055281557593"><ele>332.0</ele><time>2026-04-19T16:58:01.999Z</time></trkpt><trkpt lat="44.51409385306395" lon="7.919874939117885"><ele>331.0</ele><time>2026-04-19T16:58:02.999Z</time></trkpt><trkpt lat="44.51422350251215" lon="7.9197200829852195"><ele>330.0</ele><time>2026-04-19T16:58:03.998Z</time></trkpt><trkpt lat="44.514368095209406" lon="7.919591627217093"><ele>329.0</ele><time>2026-04-19T16:58:04.998Z</time></trkpt><trkpt lat="44.51450053216274" lon="7.919453543015719"><ele>329.33333333333337</ele><time>2026-04-19T16:58:05.998Z</time></trkpt><trkpt lat="44.514608615124565" lon="7.919279976305723"><ele>329.6666666666667</ele><time>2026-04-19T16:58:06.998Z</time></trkpt><trkpt lat="44.51468655347074" lon="7.919075986457966"><ele>330.0</ele><time>2026-04-19T16:58:07.998Z</time></trkpt><trkpt lat="44.51473139294597" lon="7.918859876967908"><ele>328.3333333333333</ele><time>2026-04-19T16:58:08.998Z</time></trkpt><trkpt lat="44.51476342698404" lon="7.918643423351079"><ele>326.66666666666663</ele><time>2026-04-19T16:58:09.998Z</time></trkpt><trkpt lat="44.514799990679236" lon="7.918435941580565"><ele>325.0</ele><time>2026-04-19T16:58:10.998Z</time></trkpt><trkpt lat="44.51486292821322" lon="7.918243522140853"><ele>323.0</ele><time>2026-04-19T16:58:11.998Z</time></trkpt><trkpt lat="44.51494367789673" lon="7.9180679072727465"><ele>321.0</ele><time>2026-04-19T16:58:12.998Z</time></trkpt><trkpt lat="44.515049992337616" lon="7.917922355234761"><ele>319.0</ele><time>2026-04-19T16:58:13.998Z</time></trkpt><trkpt lat="44.51516476487378" lon="7.917804757747481"><ele>317.0</ele><time>2026-04-19T16:58:14.998Z</time></trkpt><trkpt lat="44.51527467443859" lon="7.9177234534336325"><ele>317.0</ele><time>2026-04-19T16:58:15.998Z</time></trkpt><trkpt lat="44.51537689437579" lon="7.91765985802971"><ele>317.0</ele><time>2026-04-19T16:58:16.998Z</time></trkpt><trkpt lat="44.515464582112905" lon="7.917603351102666"><ele>317.0</ele><time>2026-04-19T16:58:17.998Z</time></trkpt><trkpt lat="44.51552986128536" lon="7.917538363906627"><ele>317.0</ele><time>2026-04-19T16:58:18.998Z</time></trkpt><trkpt lat="44.515552921237685" lon="7.917452422804817"><ele>317.0</ele><time>2026-04-19T16:58:19.998Z</time></trkpt><trkpt lat="44.51554231250054" lon="7.917363066841211"><ele>317.0</ele><time>2026-04-19T16:58:20.998Z</time></trkpt><trkpt lat="44.51545130034457" lon="7.9172594844261"><ele>313.0</ele><time>2026-04-19T16:58:22.998Z</time></trkpt><trkpt lat="44.51537980681249" lon="7.917258866560589"><ele>309.0</ele><time>2026-04-19T16:58:23.998Z</time></trkpt><trkpt lat="44.515280842829554" lon="7.917275426894795"><ele>305.0</ele><time>2026-04-19T16:58:24.998Z</time></trkpt><trkpt lat="44.51517667200181" lon="7.917387702431397"><ele>301.0</ele><time>2026-04-19T16:58:25.998Z</time></trkpt><trkpt lat="44.5150353931711" lon="7.917475235443057"><ele>306.3333333333333</ele><time>2026-04-19T16:58:26.998Z</time></trkpt><trkpt lat="44.51489518420017" lon="7.917588994647194"><ele>311.6666666666667</ele><time>2026-04-19T16:58:27.998Z</time></trkpt><trkpt lat="44.51476115417203" lon="7.9176977408937885"><ele>317.0</ele><time>2026-04-19T16:58:28.998Z</time></trkpt><trkpt lat="44.51463927274817" lon="7.917790327955428"><ele>315.25</ele><time>2026-04-19T16:58:29.998Z</time></trkpt><trkpt lat="44.51452587141026" lon="7.917851347286411"><ele>313.5</ele><time>2026-04-19T16:58:30.998Z</time></trkpt><trkpt lat="44.514418638406426" lon="7.917849218369907"><ele>311.75</ele><time>2026-04-19T16:58:31.998Z</time></trkpt><trkpt lat="44.514316635626415" lon="7.91777712465781"><ele>310.0</ele><time>2026-04-19T16:58:32.998Z</time></trkpt><trkpt lat="44.51422920901167" lon="7.917657473092239"><ele>304.66666666666663</ele><time>2026-04-19T16:58:33.998Z</time></trkpt><trkpt lat="44.514117971749336" lon="7.917532569052028"><ele>299.3333333333333</ele><time>2026-04-19T16:58:34.998Z</time></trkpt><trkpt lat="44.51396411846392" lon="7.91744926658668"><ele>294.0</ele><time>2026-04-19T16:58:35.998Z</time></trkpt><trkpt lat="44.513778554452706" lon="7.917384904318167"><ele>293.0</ele><time>2026-04-19T16:58:36.998Z</time></trkpt><trkpt lat="44.513580641011735" lon="7.917348766898505"><ele>292.0</ele><time>2026-04-19T16:58:37.998Z</time></trkpt><trkpt lat="44.513390978301175" lon="7.917305006483753"><ele>291.0</ele><time>2026-04-19T16:58:39Z</time></trkpt><trkpt lat="44.51320726372933" lon="7.917289712662463"><ele>291.0</ele><time>2026-04-19T16:58:40Z</time></trkpt><trkpt lat="44.51302838869972" lon="7.917284633122456"><ele>291.0</ele><time>2026-04-19T16:58:41Z</time></trkpt><trkpt lat="44.51285781299228" lon="7.9173016184206775"><ele>291.0</ele><time>2026-04-19T16:58:42Z</time></trkpt><trkpt lat="44.51269552098783" lon="7.917358913369295"><ele>288.6666666666667</ele><time>2026-04-19T16:58:43Z</time></trkpt><trkpt lat="44.512539701313095" lon="7.917439985220954"><ele>286.33333333333337</ele><time>2026-04-19T16:58:44Z</time></trkpt><trkpt lat="44.512390504629806" lon="7.917526592909881"><ele>284.0</ele><time>2026-04-19T16:58:45Z</time></trkpt><trkpt lat="44.51224602838114" lon="7.91758683115025"><ele>283.5</ele><time>2026-04-19T16:58:46Z</time></trkpt><trkpt lat="44.51211022706463" lon="7.917631223727823"><ele>283.0</ele><time>2026-04-19T16:58:47Z</time></trkpt><trkpt lat="44.511992691988574" lon="7.917664624506988"><ele>282.5</ele><time>2026-04-19T16:58:48Z</time></trkpt><trkpt lat="44.51188672033423" lon="7.917672006634259"><ele>282.0</ele><time>2026-04-19T16:58:49Z</time></trkpt><trkpt lat="44.511784120782615" lon="7.91766891637725"><ele>282.0</ele><time>2026-04-19T16:58:50Z</time></trkpt><trkpt lat="44.51169186530463" lon="7.917635378749427"><ele>282.0</ele><time>2026-04-19T16:58:51Z</time></trkpt><trkpt lat="44.511599898068845" lon="7.91758078608434"><ele>282.0</ele><time>2026-04-19T16:58:52Z</time></trkpt><trkpt lat="44.511527545752415" lon="7.917483578056205"><ele>282.0</ele><time>2026-04-19T16:58:53Z</time></trkpt><trkpt lat="44.511454579780505" lon="7.917376186353596"><ele>282.0</ele><time>2026-04-19T16:58:54Z</time></trkpt><trkpt lat="44.51142046833574" lon="7.917233653151801"><ele>280.8</ele><time>2026-04-19T16:58:55Z</time></trkpt><trkpt lat="44.51139760148554" lon="7.917088857550731"><ele>279.6</ele><time>2026-04-19T16:58:56Z</time></trkpt><trkpt lat="44.511377100834316" lon="7.91694418068191"><ele>278.40000000000003</ele><time>2026-04-19T16:58:57Z</time></trkpt><trkpt lat="44.51135369281633" lon="7.916804696249244"><ele>277.2</ele><time>2026-04-19T16:58:58Z</time></trkpt><trkpt lat="44.511329806081555" lon="7.916674236767885"><ele>276.0</ele><time>2026-04-19T16:58:59Z</time></trkpt><trkpt lat="44.511306512853665" lon="7.916543282391692"><ele>276.0</ele><time>2026-04-19T16:58:59.999Z</time></trkpt><trkpt lat="44.51128435863315" lon="7.916412301457687"><ele>276.0</ele><time>2026-04-19T16:59:00.999Z</time></trkpt><trkpt lat="44.51126165112972" lon="7.916284079417743"><ele>276.0</ele><time>2026-04-19T16:59:01.999Z</time></trkpt><trkpt lat="44.511239542726805" lon="7.916154176409718"><ele>276.0</ele><time>2026-04-19T16:59:02.999Z</time></trkpt><trkpt lat="44.511219812064176" lon="7.91602489257331"><ele>276.0</ele><time>2026-04-19T16:59:03.999Z</time></trkpt><trkpt lat="44.51120010843392" lon="7.91589507374297"><ele>275.2</ele><time>2026-04-19T16:59:04.999Z</time></trkpt><trkpt lat="44.511179805378056" lon="7.915767396426226"><ele>274.40000000000003</ele><time>2026-04-19T16:59:05.999Z</time></trkpt><trkpt lat="44.51115563221548" lon="7.915641675338034"><ele>273.6</ele><time>2026-04-19T16:59:06.999Z</time></trkpt><trkpt lat="44.51112218082875" lon="7.915521970047704"><ele>272.8</ele><time>2026-04-19T16:59:07.999Z</time></trkpt><trkpt lat="44.51107621839561" lon="7.91541630044279"><ele>272.0</ele><time>2026-04-19T16:59:08.999Z</time></trkpt><trkpt lat="44.51101431819261" lon="7.9153257243432025"><ele>272.0</ele><time>2026-04-19T16:59:09.999Z</time></trkpt><trkpt lat="44.5109452540446" lon="7.915239648143273"><ele>272.0</ele><time>2026-04-19T16:59:10.999Z</time></trkpt><trkpt lat="44.51086439542932" lon="7.915138794216694"><ele>272.0</ele><time>2026-04-19T16:59:11.999Z</time></trkpt><trkpt lat="44.510775348904964" lon="7.915018617575373"><ele>272.0</ele><time>2026-04-19T16:59:12.999Z</time></trkpt><trkpt lat="44.51068470792718" lon="7.914897669800968"><ele>272.0</ele><time>2026-04-19T16:59:13.999Z</time></trkpt><trkpt lat="44.51061726507377" lon="7.914755528286664"><ele>270.75</ele><time>2026-04-19T16:59:14.999Z</time></trkpt><trkpt lat="44.51053844087767" lon="7.914630674042272"><ele>269.5</ele><time>2026-04-19T16:59:15.999Z</time></trkpt><trkpt lat="44.51051065846911" lon="7.914465954507648"><ele>268.25</ele><time>2026-04-19T16:59:16.999Z</time></trkpt><trkpt lat="44.510511847279716" lon="7.9142990770141175"><ele>267.0</ele><time>2026-04-19T16:59:17.999Z</time></trkpt><trkpt lat="44.51054898028318" lon="7.914140400238492"><ele>266.0</ele><time>2026-04-19T16:59:18.999Z</time></trkpt><trkpt lat="44.510588157536375" lon="7.913961112656557"><ele>265.0</ele><time>2026-04-19T16:59:19.999Z</time></trkpt><trkpt lat="44.51063176322024" lon="7.913777792465628"><ele>264.0</ele><time>2026-04-19T16:59:20.999Z</time></trkpt><trkpt lat="44.51068141313375" lon="7.913585562448809"><ele>263.0</ele><time>2026-04-19T16:59:21.999Z</time></trkpt><trkpt lat="44.51073538603656" lon="7.913394513083275"><ele>261.25</ele><time>2026-04-19T16:59:22.999Z</time></trkpt><trkpt lat="44.51079209410519" lon="7.913210836665395"><ele>259.5</ele><time>2026-04-19T16:59:23.999Z</time></trkpt><trkpt lat="44.51084773927728" lon="7.913029243306234"><ele>257.75</ele><time>2026-04-19T16:59:24.999Z</time></trkpt><trkpt lat="44.51090141965975" lon="7.912853478226526"><ele>256.0</ele><time>2026-04-19T16:59:25.999Z</time></trkpt><trkpt lat="44.51095370679914" lon="7.912680596048246"><ele>254.75</ele><time>2026-04-19T16:59:26.999Z</time></trkpt><trkpt lat="44.51100154582422" lon="7.9125096714226855"><ele>253.5</ele><time>2026-04-19T16:59:27.999Z</time></trkpt><trkpt lat="44.5110491289076" lon="7.91234171626566"><ele>252.25</ele><time>2026-04-19T16:59:28.999Z</time></trkpt><trkpt lat="44.51109693389147" lon="7.9121718419994975"><ele>251.0</ele><time>2026-04-19T16:59:29.999Z</time></trkpt><trkpt lat="44.51114507678329" lon="7.912004360815929"><ele>251.0</ele><time>2026-04-19T16:59:30.999Z</time></trkpt><trkpt lat="44.511191187364545" lon="7.9118350320106625"><ele>251.0</ele><time>2026-04-19T16:59:31.999Z</time></trkpt><trkpt lat="44.511229703699556" lon="7.911662665566134"><ele>251.0</ele><time>2026-04-19T16:59:32.999Z</time></trkpt><trkpt lat="44.511252231756664" lon="7.911490156763949"><ele>251.0</ele><time>2026-04-19T16:59:33.999Z</time></trkpt><trkpt lat="44.511258502472955" lon="7.911326210248806"><ele>250.5</ele><time>2026-04-19T16:59:34.999Z</time></trkpt><trkpt lat="44.511242050538634" lon="7.911180548925136"><ele>250.0</ele><time>2026-04-19T16:59:35.999Z</time></trkpt><trkpt lat="44.51118468183378" lon="7.911038216169408"><ele>249.5</ele><time>2026-04-19T16:59:36.999Z</time></trkpt><trkpt lat="44.51109298945977" lon="7.910906089859026"><ele>249.0</ele><time>2026-04-19T16:59:37.999Z</time></trkpt><trkpt lat="44.510971480403406" lon="7.910783546679252"><ele>248.0</ele><time>2026-04-19T16:59:38.999Z</time></trkpt><trkpt lat="44.510828357768446" lon="7.910664490225337"><ele>247.0</ele><time>2026-04-19T16:59:39.999Z</time></trkpt><trkpt lat="44.51067139497884" lon="7.910540607523141"><ele>246.0</ele><time>2026-04-19T16:59:40.999Z</time></trkpt><trkpt lat="44.51051262401534" lon="7.910401446510854"><ele>244.33333333333331</ele><time>2026-04-19T16:59:41.999Z</time></trkpt><trkpt lat="44.510359293692765" lon="7.910263540266003"><ele>242.66666666666666</ele><time>2026-04-19T16:59:42.999Z</time></trkpt><trkpt lat="44.51021216568918" lon="7.910131361602844"><ele>241.0</ele><time>2026-04-19T16:59:43.999Z</time></trkpt><trkpt lat="44.51006509814192" lon="7.910008203466258"><ele>241.0</ele><time>2026-04-19T16:59:44.999Z</time></trkpt><trkpt lat="44.5099302311178" lon="7.909869047766902"><ele>241.0</ele><time>2026-04-19T16:59:45.999Z</time></trkpt><trkpt lat="44.50979148338496" lon="7.9097460204842145"><ele>241.0</ele><time>2026-04-19T16:59:46.999Z</time></trkpt><trkpt lat="44.50965122753685" lon="7.909626847706769"><ele>242.33333333333331</ele><time>2026-04-19T16:59:47.999Z</time></trkpt><trkpt lat="44.50951347542997" lon="7.909507852669608"><ele>243.66666666666669</ele><time>2026-04-19T16:59:48.999Z</time></trkpt><trkpt lat="44.50938498151865" lon="7.909380096649764"><ele>245.0</ele><time>2026-04-19T16:59:49.999Z</time></trkpt><trkpt lat="44.50926519505402" lon="7.909250618594502"><ele>245.25</ele><time>2026-04-19T16:59:50.999Z</time></trkpt><trkpt lat="44.50919548244511" lon="7.9090655628707145"><ele>245.5</ele><time>2026-04-19T16:59:51.999Z</time></trkpt><trkpt lat="44.509098215288944" lon="7.908920156098337"><ele>245.75</ele><time>2026-04-19T16:59:52.999Z</time></trkpt><trkpt lat="44.50897904291911" lon="7.908829849010013"><ele>246.0</ele><time>2026-04-19T16:59:53.999Z</time></trkpt><trkpt lat="44.50884962835167" lon="7.90873780486913"><ele>246.33333333333331</ele><time>2026-04-19T16:59:54.999Z</time></trkpt><trkpt lat="44.508703152718105" lon="7.908651121059397"><ele>246.66666666666666</ele><time>2026-04-19T16:59:55.999Z</time></trkpt><trkpt lat="44.50854919733794" lon="7.908557466178223"><ele>247.0</ele><time>2026-04-19T16:59:56.999Z</time></trkpt><trkpt lat="44.50838537308756" lon="7.908454448102078"><ele>248.0</ele><time>2026-04-19T16:59:57.999Z</time></trkpt><trkpt lat="44.50820992013387" lon="7.908337004896016"><ele>249.0</ele><time>2026-04-19T16:59:58.999Z</time></trkpt><trkpt lat="44.50802898381012" lon="7.908203801731958"><ele>250.0</ele><time>2026-04-19T16:59:59.999Z</time></trkpt><trkpt lat="44.50784296552072" lon="7.908056595081315"><ele>253.33333333333331</ele><time>2026-04-19T17:00:00.999Z</time></trkpt><trkpt lat="44.507674006100856" lon="7.907918051064605"><ele>256.6666666666667</ele><time>2026-04-19T17:00:01.999Z</time></trkpt><trkpt lat="44.50752617695721" lon="7.907777214223311"><ele>260.0</ele><time>2026-04-19T17:00:02.999Z</time></trkpt><trkpt lat="44.50738787359518" lon="7.907617379991027"><ele>260.6666666666667</ele><time>2026-04-19T17:00:03.999Z</time></trkpt><trkpt lat="44.507258780401024" lon="7.907430105673512"><ele>261.3333333333333</ele><time>2026-04-19T17:00:04.999Z</time></trkpt><trkpt lat="44.507143692281055" lon="7.9072122961434195"><ele>262.0</ele><time>2026-04-19T17:00:05.999Z</time></trkpt><trkpt lat="44.507043044856765" lon="7.90697998566971"><ele>261.66666666666663</ele><time>2026-04-19T17:00:06.999Z</time></trkpt><trkpt lat="44.506963518978175" lon="7.906737861331673"><ele>261.3333333333333</ele><time>2026-04-19T17:00:07.999Z</time></trkpt><trkpt lat="44.50690372704133" lon="7.9064812182871185"><ele>261.0</ele><time>2026-04-19T17:00:08.999Z</time></trkpt><trkpt lat="44.50685207111783" lon="7.906204204493048"><ele>260.3333333333333</ele><time>2026-04-19T17:00:09.999Z</time></trkpt><trkpt lat="44.506797954909175" lon="7.905908120283926"><ele>259.66666666666663</ele><time>2026-04-19T17:00:10.999Z</time></trkpt><trkpt lat="44.506747226310104" lon="7.905594584126924"><ele>259.0</ele><time>2026-04-19T17:00:11.999Z</time></trkpt><trkpt lat="44.50670196779279" lon="7.905268158364266"><ele>259.0</ele><time>2026-04-19T17:00:12.999Z</time></trkpt><trkpt lat="44.506689047638496" lon="7.904932206670347"><ele>259.0</ele><time>2026-04-19T17:00:13.999Z</time></trkpt><trkpt lat="44.506691593856715" lon="7.904575704163984"><ele>259.5</ele><time>2026-04-19T17:00:14.999Z</time></trkpt><trkpt lat="44.506694788491785" lon="7.904212949173429"><ele>260.0</ele><time>2026-04-19T17:00:15.998Z</time></trkpt><trkpt lat="44.506697772588545" lon="7.90384574290202"><ele>260.0</ele><time>2026-04-19T17:00:16.998Z</time></trkpt><trkpt lat="44.50670114196148" lon="7.903484174012278"><ele>260.0</ele><time>2026-04-19T17:00:17.998Z</time></trkpt><trkpt lat="44.50670425124855" lon="7.9031315615111035"><ele>260.0</ele><time>2026-04-19T17:00:18.998Z</time></trkpt><trkpt lat="44.50670648595031" lon="7.9027789939975035"><ele>260.0</ele><time>2026-04-19T17:00:19.998Z</time></trkpt><trkpt lat="44.50669790674658" lon="7.9024424390626935"><ele>260.0</ele><time>2026-04-19T17:00:20.998Z</time></trkpt><trkpt lat="44.50669534376272" lon="7.902121121940982"><ele>260.0</ele><time>2026-04-19T17:00:21.998Z</time></trkpt><trkpt lat="44.50668629444462" lon="7.9017930394106255"><ele>262.5</ele><time>2026-04-19T17:00:22.998Z</time></trkpt><trkpt lat="44.50666423259047" lon="7.901455458289355"><ele>265.0</ele><time>2026-04-19T17:00:23.998Z</time></trkpt><trkpt lat="44.50663290737672" lon="7.901136705851749"><ele>267.0</ele><time>2026-04-19T17:00:24.998Z</time></trkpt><trkpt lat="44.50660130365725" lon="7.900848511911031"><ele>269.0</ele><time>2026-04-19T17:00:25.998Z</time></trkpt><trkpt lat="44.506577760286774" lon="7.900579771723544"><ele>271.0</ele><time>2026-04-19T17:00:26.998Z</time></trkpt><trkpt lat="44.50653415583862" lon="7.900327093606763"><ele>273.3333333333333</ele><time>2026-04-19T17:00:27.998Z</time></trkpt><trkpt lat="44.506451540797535" lon="7.900068049644917"><ele>275.6666666666667</ele><time>2026-04-19T17:00:28.998Z</time></trkpt><trkpt lat="44.50630937100209" lon="7.8998230822441045"><ele>278.0</ele><time>2026-04-19T17:00:29.998Z</time></trkpt><trkpt lat="44.50620119997414" lon="7.8995533805745115"><ele>276.0</ele><time>2026-04-19T17:00:30.998Z</time></trkpt><trkpt lat="44.506094751361736" lon="7.899286193905058"><ele>274.0</ele><time>2026-04-19T17:00:31.998Z</time></trkpt><trkpt lat="44.50599703376711" lon="7.898982895675358"><ele>274.0</ele><time>2026-04-19T17:00:32.998Z</time></trkpt><trkpt lat="44.505888651326885" lon="7.89865724162283"><ele>274.0</ele><time>2026-04-19T17:00:33.998Z</time></trkpt><trkpt lat="44.505794572959694" lon="7.898304692810542"><ele>278.0</ele><time>2026-04-19T17:00:34.998Z</time></trkpt><trkpt lat="44.50569611648761" lon="7.897946714817126"><ele>282.0</ele><time>2026-04-19T17:00:35.998Z</time></trkpt><trkpt lat="44.50559924291741" lon="7.8976012374568"><ele>282.5</ele><time>2026-04-19T17:00:36.998Z</time></trkpt><trkpt lat="44.50550967795417" lon="7.897274863144941"><ele>283.0</ele><time>2026-04-19T17:00:37.998Z</time></trkpt><trkpt lat="44.5054277424707" lon="7.896960827566121"><ele>280.66666666666663</ele><time>2026-04-19T17:00:38.998Z</time></trkpt><trkpt lat="44.505348125653406" lon="7.8966607009257626"><ele>278.3333333333333</ele><time>2026-04-19T17:00:39.998Z</time></trkpt><trkpt lat="44.505269730494945" lon="7.896374650408141"><ele>276.0</ele><time>2026-04-19T17:00:40.998Z</time></trkpt><trkpt lat="44.50519664629947" lon="7.896101079260661"><ele>277.6666666666667</ele><time>2026-04-19T17:00:41.998Z</time></trkpt><trkpt lat="44.505124476555764" lon="7.89584039817861"><ele>279.33333333333337</ele><time>2026-04-19T17:00:42.998Z</time></trkpt><trkpt lat="44.50504130996187" lon="7.895594660931047"><ele>281.0</ele><time>2026-04-19T17:00:43.998Z</time></trkpt><trkpt lat="44.50493044007909" lon="7.895357302394037"><ele>281.0</ele><time>2026-04-19T17:00:45Z</time></trkpt><trkpt lat="44.504787495226104" lon="7.895135623902224"><ele>281.0</ele><time>2026-04-19T17:00:46Z</time></trkpt><trkpt lat="44.50461112607479" lon="7.89493863761654"><ele>281.0</ele><time>2026-04-19T17:00:47Z</time></trkpt><trkpt lat="44.50440848251159" lon="7.894783833633041"><ele>283.5</ele><time>2026-04-19T17:00:48Z</time></trkpt><trkpt lat="44.504185616680566" lon="7.894657725647699"><ele>286.0</ele><time>2026-04-19T17:00:49Z</time></trkpt><trkpt lat="44.50395076654423" lon="7.894532256034144"><ele>285.0</ele><time>2026-04-19T17:00:50Z</time></trkpt><trkpt lat="44.503713966216026" lon="7.894400687403524"><ele>284.0</ele><time>2026-04-19T17:00:51Z</time></trkpt><trkpt lat="44.503470854311274" lon="7.894282872128381"><ele>292.0</ele><time>2026-04-19T17:00:52Z</time></trkpt><trkpt lat="44.503216731232996" lon="7.8941941472384185"><ele>300.0</ele><time>2026-04-19T17:00:53Z</time></trkpt><trkpt lat="44.50295326604563" lon="7.894132154690402"><ele>301.0</ele><time>2026-04-19T17:00:54Z</time></trkpt><trkpt lat="44.50268426125371" lon="7.894086379450262"><ele>302.0</ele><time>2026-04-19T17:00:55Z</time></trkpt><trkpt lat="44.50241072905137" lon="7.89403669332375"><ele>302.0</ele><time>2026-04-19T17:00:56Z</time></trkpt><trkpt lat="44.50213219546023" lon="7.893987726325572"><ele>302.0</ele><time>2026-04-19T17:00:57Z</time></trkpt><trkpt lat="44.50184962499466" lon="7.893949820411905"><ele>302.5</ele><time>2026-04-19T17:00:58Z</time></trkpt><trkpt lat="44.50156228938197" lon="7.893932432488988"><ele>303.0</ele><time>2026-04-19T17:00:59Z</time></trkpt><trkpt lat="44.50127349367019" lon="7.893935017888643"><ele>305.5</ele><time>2026-04-19T17:01:00Z</time></trkpt><trkpt lat="44.50099269489708" lon="7.893966064851378"><ele>308.0</ele><time>2026-04-19T17:01:01Z</time></trkpt><trkpt lat="44.500732698296574" lon="7.893996852498096"><ele>308.0</ele><time>2026-04-19T17:01:02Z</time></trkpt><trkpt lat="44.50049494843786" lon="7.894011641542128"><ele>308.0</ele><time>2026-04-19T17:01:03Z</time></trkpt><trkpt lat="44.500268568439715" lon="7.894011840282435"><ele>311.0</ele><time>2026-04-19T17:01:04Z</time></trkpt><trkpt lat="44.50005459260961" lon="7.8940073110675995"><ele>314.0</ele><time>2026-04-19T17:01:05Z</time></trkpt><trkpt lat="44.49985047230427" lon="7.8940082158042"><ele>317.0</ele><time>2026-04-19T17:01:06Z</time></trkpt><trkpt lat="44.499636050362504" lon="7.8940383242418335"><ele>320.5</ele><time>2026-04-19T17:01:07Z</time></trkpt><trkpt lat="44.49941639767899" lon="7.894104128104757"><ele>324.0</ele><time>2026-04-19T17:01:08Z</time></trkpt><trkpt lat="44.49919318385582" lon="7.8941868659122765"><ele>323.6666666666667</ele><time>2026-04-19T17:01:08.999Z</time></trkpt><trkpt lat="44.498984411847985" lon="7.894279216530427"><ele>323.33333333333337</ele><time>2026-04-19T17:01:09.999Z</time></trkpt><trkpt lat="44.49879746585009" lon="7.89436942725545"><ele>323.0</ele><time>2026-04-19T17:01:10.999Z</time></trkpt><trkpt lat="44.49862212435936" lon="7.894440809679802"><ele>323.0</ele><time>2026-04-19T17:01:11.999Z</time></trkpt><trkpt lat="44.49845845312988" lon="7.8945060641160385"><ele>323.0</ele><time>2026-04-19T17:01:12.999Z</time></trkpt><trkpt lat="44.49829612884649" lon="7.894549508366761"><ele>323.0</ele><time>2026-04-19T17:01:13.999Z</time></trkpt><trkpt lat="44.49812595208617" lon="7.894568661415614"><ele>323.0</ele><time>2026-04-19T17:01:14.999Z</time></trkpt><trkpt lat="44.49796242583664" lon="7.894558299421863"><ele>323.0</ele><time>2026-04-19T17:01:15.999Z</time></trkpt><trkpt lat="44.497803242568665" lon="7.894514717221526"><ele>323.0</ele><time>2026-04-19T17:01:16.999Z</time></trkpt><trkpt lat="44.49763723158754" lon="7.89444138954989"><ele>325.6666666666667</ele><time>2026-04-19T17:01:17.999Z</time></trkpt><trkpt lat="44.49744822439821" lon="7.894353611315414"><ele>328.3333333333333</ele><time>2026-04-19T17:01:18.999Z</time></trkpt><trkpt lat="44.49724127664072" lon="7.8942635308772005"><ele>331.0</ele><time>2026-04-19T17:01:19.999Z</time></trkpt><trkpt lat="44.49701249499334" lon="7.894169160218524"><ele>332.5</ele><time>2026-04-19T17:01:20.999Z</time></trkpt><trkpt lat="44.49675973288617" lon="7.894063401208091"><ele>334.0</ele><time>2026-04-19T17:01:21.999Z</time></trkpt><trkpt lat="44.496492333662864" lon="7.893954798177357"><ele>334.0</ele><time>2026-04-19T17:01:22.999Z</time></trkpt><trkpt lat="44.49621689981035" lon="7.893843516519039"><ele>334.0</ele><time>2026-04-19T17:01:23.999Z</time></trkpt><trkpt lat="44.4959557948333" lon="7.893737463217221"><ele>334.0</ele><time>2026-04-19T17:01:24.999Z</time></trkpt><trkpt lat="44.49571273791127" lon="7.89363736799682"><ele>334.0</ele><time>2026-04-19T17:01:25.999Z</time></trkpt><trkpt lat="44.495481839793634" lon="7.893541668431118"><ele>334.0</ele><time>2026-04-19T17:01:26.999Z</time></trkpt><trkpt lat="44.49525899763438" lon="7.893447715010237"><ele>334.0</ele><time>2026-04-19T17:01:27.999Z</time></trkpt><trkpt lat="44.49504992849838" lon="7.893323959335541"><ele>334.0</ele><time>2026-04-19T17:01:28.999Z</time></trkpt><trkpt lat="44.494837358867464" lon="7.893195098052737"><ele>334.0</ele><time>2026-04-19T17:01:29.999Z</time></trkpt><trkpt lat="44.49463611582994" lon="7.893070675045559"><ele>334.3333333333333</ele><time>2026-04-19T17:01:30.999Z</time></trkpt><trkpt lat="44.494442380891485" lon="7.892972036913449"><ele>334.6666666666667</ele><time>2026-04-19T17:01:31.999Z</time></trkpt><trkpt lat="44.49425861667284" lon="7.892853013490935"><ele>335.0</ele><time>2026-04-19T17:01:32.999Z</time></trkpt><trkpt lat="44.49406465348436" lon="7.892731899320135"><ele>335.0</ele><time>2026-04-19T17:01:33.999Z</time></trkpt><trkpt lat="44.49385905329527" lon="7.8926085669823385"><ele>335.0</ele><time>2026-04-19T17:01:34.999Z</time></trkpt><trkpt lat="44.49365518697776" lon="7.892486224789141"><ele>335.0</ele><time>2026-04-19T17:01:35.999Z</time></trkpt><trkpt lat="44.493465415828794" lon="7.892367822343579"><ele>335.0</ele><time>2026-04-19T17:01:36.999Z</time></trkpt><trkpt lat="44.49327415957672" lon="7.892245553491011"><ele>335.0</ele><time>2026-04-19T17:01:37.999Z</time></trkpt><trkpt lat="44.49307181434708" lon="7.892118042751818"><ele>335.0</ele><time>2026-04-19T17:01:38.999Z</time></trkpt><trkpt lat="44.4928525033112" lon="7.891993922400986"><ele>335.0</ele><time>2026-04-19T17:01:39.999Z</time></trkpt><trkpt lat="44.492624150059896" lon="7.891887853016894"><ele>335.0</ele><time>2026-04-19T17:01:40.999Z</time></trkpt><trkpt lat="44.49239098160644" lon="7.8918047086961955"><ele>335.0</ele><time>2026-04-19T17:01:41.999Z</time></trkpt><trkpt lat="44.492141907265484" lon="7.8917459495768725"><ele>335.0</ele><time>2026-04-19T17:01:42.999Z</time></trkpt><trkpt lat="44.49187232374058" lon="7.891693463425583"><ele>336.0</ele><time>2026-04-19T17:01:43.999Z</time></trkpt><trkpt lat="44.4915921616991" lon="7.891637231090702"><ele>337.0</ele><time>2026-04-19T17:01:44.999Z</time></trkpt><trkpt lat="44.491299167451764" lon="7.891572884424841"><ele>336.0</ele><time>2026-04-19T17:01:45.999Z</time></trkpt><trkpt lat="44.49101030960589" lon="7.891506082163482"><ele>335.0</ele><time>2026-04-19T17:01:46.999Z</time></trkpt><trkpt lat="44.49073623180518" lon="7.8914434950129815"><ele>335.0</ele><time>2026-04-19T17:01:47.999Z</time></trkpt><trkpt lat="44.49047744915427" lon="7.891391093815486"><ele>335.0</ele><time>2026-04-19T17:01:48.999Z</time></trkpt><trkpt lat="44.49022787102783" lon="7.891338280566879"><ele>335.0</ele><time>2026-04-19T17:01:49.999Z</time></trkpt><trkpt lat="44.48998844530415" lon="7.891284262772767"><ele>335.0</ele><time>2026-04-19T17:01:50.999Z</time></trkpt><trkpt lat="44.48975685335176" lon="7.891233644461071"><ele>335.0</ele><time>2026-04-19T17:01:51.999Z</time></trkpt><trkpt lat="44.48953624501685" lon="7.891186842015869"><ele>335.0</ele><time>2026-04-19T17:01:52.999Z</time></trkpt><trkpt lat="44.48932247363077" lon="7.891136204107965"><ele>335.0</ele><time>2026-04-19T17:01:53.999Z</time></trkpt><trkpt lat="44.489119478366824" lon="7.89108626989184"><ele>335.0</ele><time>2026-04-19T17:01:54.999Z</time></trkpt><trkpt lat="44.48892002896806" lon="7.891044284396147"><ele>335.0</ele><time>2026-04-19T17:01:55.999Z</time></trkpt><trkpt lat="44.48871729259587" lon="7.890998807529175"><ele>335.0</ele><time>2026-04-19T17:01:56.999Z</time></trkpt><trkpt lat="44.48851284908815" lon="7.890926418755193"><ele>335.6666666666667</ele><time>2026-04-19T17:01:57.999Z</time></trkpt><trkpt lat="44.488312218907076" lon="7.890824734950947"><ele>336.3333333333333</ele><time>2026-04-19T17:01:58.999Z</time></trkpt><trkpt lat="44.48812569055248" lon="7.89067914175562"><ele>337.0</ele><time>2026-04-19T17:01:59.999Z</time></trkpt><trkpt lat="44.48791732670644" lon="7.890558484908919"><ele>337.0</ele><time>2026-04-19T17:02:00.999Z</time></trkpt><trkpt lat="44.487709552989784" lon="7.890406542459005"><ele>337.0</ele><time>2026-04-19T17:02:01.999Z</time></trkpt><trkpt lat="44.487496535665464" lon="7.89025503764462"><ele>337.0</ele><time>2026-04-19T17:02:02.999Z</time></trkpt><trkpt lat="44.487282979215365" lon="7.890085140520711"><ele>337.0</ele><time>2026-04-19T17:02:03.999Z</time></trkpt><trkpt lat="44.487056065186785" lon="7.889923861827069"><ele>337.0</ele><time>2026-04-19T17:02:04.999Z</time></trkpt><trkpt lat="44.48682663189702" lon="7.889760773792435"><ele>337.0</ele><time>2026-04-19T17:02:05.999Z</time></trkpt><trkpt lat="44.4865942557163" lon="7.889610396903397"><ele>337.0</ele><time>2026-04-19T17:02:06.999Z</time></trkpt><trkpt lat="44.48636806841357" lon="7.889434520194044"><ele>337.0</ele><time>2026-04-19T17:02:07.999Z</time></trkpt><trkpt lat="44.48613576797987" lon="7.889276165609802"><ele>336.5</ele><time>2026-04-19T17:02:08.999Z</time></trkpt><trkpt lat="44.48591617186933" lon="7.8891284329097715"><ele>336.0</ele><time>2026-04-19T17:02:09.999Z</time></trkpt><trkpt lat="44.48570993513749" lon="7.888980290096191"><ele>336.0</ele><time>2026-04-19T17:02:10.999Z</time></trkpt><trkpt lat="44.4855108519112" lon="7.8888384535259295"><ele>336.0</ele><time>2026-04-19T17:02:11.999Z</time></trkpt><trkpt lat="44.48531793906506" lon="7.888711005687337"><ele>336.0</ele><time>2026-04-19T17:02:12.999Z</time></trkpt><trkpt lat="44.4851348287557" lon="7.888585956168986"><ele>336.0</ele><time>2026-04-19T17:02:13.999Z</time></trkpt><trkpt lat="44.48496466915836" lon="7.888450791038172"><ele>336.0</ele><time>2026-04-19T17:02:14.999Z</time></trkpt><trkpt lat="44.48481302355277" lon="7.888300219922255"><ele>336.0</ele><time>2026-04-19T17:02:15.999Z</time></trkpt><trkpt lat="44.484676560936144" lon="7.88813986589503"><ele>336.6666666666667</ele><time>2026-04-19T17:02:16.999Z</time></trkpt><trkpt lat="44.484552166704184" lon="7.887979327100876"><ele>337.33333333333337</ele><time>2026-04-19T17:02:17.999Z</time></trkpt><trkpt lat="44.484443781907785" lon="7.887823117992673"><ele>338.0</ele><time>2026-04-19T17:02:18.999Z</time></trkpt><trkpt lat="44.48435466130162" lon="7.887681914607426"><ele>338.0</ele><time>2026-04-19T17:02:19.999Z</time></trkpt><trkpt lat="44.48428080789719" lon="7.88754078403987"><ele>338.0</ele><time>2026-04-19T17:02:20.999Z</time></trkpt><trkpt lat="44.484223175084395" lon="7.887386462787871"><ele>338.0</ele><time>2026-04-19T17:02:21.999Z</time></trkpt><trkpt lat="44.484173194576684" lon="7.887194988225916"><ele>338.0</ele><time>2026-04-19T17:02:22.999Z</time></trkpt><trkpt lat="44.48414029774498" lon="7.8869648947367255"><ele>337.6666666666667</ele><time>2026-04-19T17:02:23.999Z</time></trkpt><trkpt lat="44.48414452388079" lon="7.886694359553889"><ele>337.3333333333333</ele><time>2026-04-19T17:02:24.998Z</time></trkpt><trkpt lat="44.4841180991053" lon="7.886394318818867"><ele>337.0</ele><time>2026-04-19T17:02:25.998Z</time></trkpt><trkpt lat="44.484120602272434" lon="7.886061407414112"><ele>337.5</ele><time>2026-04-19T17:02:26.998Z</time></trkpt><trkpt lat="44.48413171006837" lon="7.88570164034213"><ele>338.0</ele><time>2026-04-19T17:02:27.998Z</time></trkpt><trkpt lat="44.484151187171165" lon="7.885323461205626"><ele>338.5</ele><time>2026-04-19T17:02:28.998Z</time></trkpt><trkpt lat="44.484175811555986" lon="7.884929145606164"><ele>339.0</ele><time>2026-04-19T17:02:29.998Z</time></trkpt><trkpt lat="44.48419958705838" lon="7.884518595385036"><ele>340.5</ele><time>2026-04-19T17:02:30.998Z</time></trkpt><trkpt lat="44.48421798118042" lon="7.884098996717819"><ele>342.0</ele><time>2026-04-19T17:02:31.998Z</time></trkpt><trkpt lat="44.484234806753754" lon="7.883681165611339"><ele>345.0</ele><time>2026-04-19T17:02:32.998Z</time></trkpt><trkpt lat="44.4842504959964" lon="7.883285581875166"><ele>348.0</ele><time>2026-04-19T17:02:33.998Z</time></trkpt><trkpt lat="44.48426944635171" lon="7.882893313164657"><ele>349.5</ele><time>2026-04-19T17:02:34.998Z</time></trkpt><trkpt lat="44.484288057309556" lon="7.8824905961569955"><ele>351.0</ele><time>2026-04-19T17:02:35.998Z</time></trkpt><trkpt lat="44.48430700495675" lon="7.882082928385543"><ele>352.5</ele><time>2026-04-19T17:02:36.998Z</time></trkpt><trkpt lat="44.4843255354197" lon="7.881687222709441"><ele>354.0</ele><time>2026-04-19T17:02:37.998Z</time></trkpt><trkpt lat="44.484342953960656" lon="7.881316807665735"><ele>354.0</ele><time>2026-04-19T17:02:38.998Z</time></trkpt><trkpt lat="44.484356408817" lon="7.880977737010263"><ele>354.0</ele><time>2026-04-19T17:02:39.998Z</time></trkpt><trkpt lat="44.484370342996655" lon="7.88064712394053"><ele>354.5</ele><time>2026-04-19T17:02:40.998Z</time></trkpt><trkpt lat="44.48438251580816" lon="7.8803255573426165"><ele>355.0</ele><time>2026-04-19T17:02:41.998Z</time></trkpt><trkpt lat="44.484399122868055" lon="7.879997077012874"><ele>355.5</ele><time>2026-04-19T17:02:42.998Z</time></trkpt><trkpt lat="44.484417399752694" lon="7.879666560693112"><ele>356.0</ele><time>2026-04-19T17:02:43.998Z</time></trkpt><trkpt lat="44.484434888984445" lon="7.8793350442525005"><ele>356.0</ele><time>2026-04-19T17:02:44.998Z</time></trkpt><trkpt lat="44.48444853183983" lon="7.879021580448272"><ele>356.0</ele><time>2026-04-19T17:02:45.998Z</time></trkpt><trkpt lat="44.48446038904652" lon="7.878720502055396"><ele>356.0</ele><time>2026-04-19T17:02:46.998Z</time></trkpt><trkpt lat="44.48446598772444" lon="7.878436557669433"><ele>356.6666666666667</ele><time>2026-04-19T17:02:47.998Z</time></trkpt><trkpt lat="44.48446179689769" lon="7.878175460303186"><ele>357.3333333333333</ele><time>2026-04-19T17:02:48.998Z</time></trkpt><trkpt lat="44.484452399790335" lon="7.877944933423265"><ele>358.0</ele><time>2026-04-19T17:02:50Z</time></trkpt><trkpt lat="44.48443956602197" lon="7.8777390156494045"><ele>358.0</ele><time>2026-04-19T17:02:51Z</time></trkpt><trkpt lat="44.48443402554454" lon="7.877570635713956"><ele>358.0</ele><time>2026-04-19T17:02:52Z</time></trkpt><trkpt lat="44.48444694007774" lon="7.87741684582056"><ele>358.0</ele><time>2026-04-19T17:02:53Z</time></trkpt><trkpt lat="44.48446744669789" lon="7.877259792578386"><ele>358.0</ele><time>2026-04-19T17:02:54Z</time></trkpt><trkpt lat="44.48449372841086" lon="7.877128305075197"><ele>358.0</ele><time>2026-04-19T17:02:55Z</time></trkpt><trkpt lat="44.48447713125048" lon="7.876998089338859"><ele>358.0</ele><time>2026-04-19T17:02:56Z</time></trkpt><trkpt lat="44.48442707734478" lon="7.876828545036445"><ele>358.0</ele><time>2026-04-19T17:02:57Z</time></trkpt><trkpt lat="44.48434768105394" lon="7.876635157497878"><ele>358.0</ele><time>2026-04-19T17:02:58Z</time></trkpt><trkpt lat="44.48426880861015" lon="7.876411872183586"><ele>358.3333333333333</ele><time>2026-04-19T17:02:59Z</time></trkpt><trkpt lat="44.48419247012072" lon="7.8761511301581875"><ele>358.6666666666667</ele><time>2026-04-19T17:03:00Z</time></trkpt><trkpt lat="44.48411732820519" lon="7.87586601863084"><ele>359.0</ele><time>2026-04-19T17:03:01Z</time></trkpt><trkpt lat="44.48402998152751" lon="7.875572165274177"><ele>359.0</ele><time>2026-04-19T17:03:02Z</time></trkpt><trkpt lat="44.483924808678545" lon="7.875266259464844"><ele>359.0</ele><time>2026-04-19T17:03:03Z</time></trkpt><trkpt lat="44.483802878904754" lon="7.874957464068825"><ele>359.0</ele><time>2026-04-19T17:03:04Z</time></trkpt><trkpt lat="44.4836756371234" lon="7.874676957180711"><ele>359.0</ele><time>2026-04-19T17:03:05Z</time></trkpt><trkpt lat="44.48354262701342" lon="7.874416863669811"><ele>359.6666666666667</ele><time>2026-04-19T17:03:06Z</time></trkpt><trkpt lat="44.4834085967376" lon="7.874177685837443"><ele>360.3333333333333</ele><time>2026-04-19T17:03:07Z</time></trkpt><trkpt lat="44.48327683779282" lon="7.873950695480481"><ele>361.0</ele><time>2026-04-19T17:03:08Z</time></trkpt><trkpt lat="44.48314963638692" lon="7.87373794027364"><ele>361.0</ele><time>2026-04-19T17:03:09Z</time></trkpt><trkpt lat="44.48302779587362" lon="7.873531859755385"><ele>361.0</ele><time>2026-04-19T17:03:10Z</time></trkpt><trkpt lat="44.48291203883185" lon="7.87333465855765"><ele>361.0</ele><time>2026-04-19T17:03:11Z</time></trkpt><trkpt lat="44.482803738937754" lon="7.873133652567538"><ele>361.0</ele><time>2026-04-19T17:03:12Z</time></trkpt><trkpt lat="44.48268348421498" lon="7.872925015609925"><ele>361.0</ele><time>2026-04-19T17:03:13Z</time></trkpt><trkpt lat="44.482557044647244" lon="7.872698606345341"><ele>361.0</ele><time>2026-04-19T17:03:14Z</time></trkpt><trkpt lat="44.482422174921055" lon="7.872457848929128"><ele>361.0</ele><time>2026-04-19T17:03:15Z</time></trkpt><trkpt lat="44.48227666974753" lon="7.872206079518413"><ele>361.0</ele><time>2026-04-19T17:03:16Z</time></trkpt><trkpt lat="44.482127961499884" lon="7.871942569916082"><ele>362.5</ele><time>2026-04-19T17:03:16.999Z</time></trkpt><trkpt lat="44.48197066703861" lon="7.8716776536183275"><ele>364.0</ele><time>2026-04-19T17:03:17.999Z</time></trkpt><trkpt lat="44.48182303399293" lon="7.871425649924156"><ele>364.0</ele><time>2026-04-19T17:03:18.999Z</time></trkpt><trkpt lat="44.481684773720794" lon="7.871181457556539"><ele>364.0</ele><time>2026-04-19T17:03:19.999Z</time></trkpt><trkpt lat="44.481542150907444" lon="7.870934535414435"><ele>364.0</ele><time>2026-04-19T17:03:20.999Z</time></trkpt><trkpt lat="44.48140571261794" lon="7.870689170413226"><ele>364.0</ele><time>2026-04-19T17:03:21.999Z</time></trkpt><trkpt lat="44.481267344717736" lon="7.870457368800306"><ele>364.0</ele><time>2026-04-19T17:03:22.999Z</time></trkpt><trkpt lat="44.481128624496975" lon="7.870229619647179"><ele>364.0</ele><time>2026-04-19T17:03:23.999Z</time></trkpt><trkpt lat="44.48098573685464" lon="7.870017217064717"><ele>364.0</ele><time>2026-04-19T17:03:24.999Z</time></trkpt><trkpt lat="44.48083769664391" lon="7.869814804529261"><ele>364.0</ele><time>2026-04-19T17:03:25.999Z</time></trkpt><trkpt lat="44.480689177928234" lon="7.869619415116323"><ele>364.0</ele><time>2026-04-19T17:03:26.999Z</time></trkpt><trkpt lat="44.48054807954497" lon="7.86943435667029"><ele>363.66666666666663</ele><time>2026-04-19T17:03:27.999Z</time></trkpt><trkpt lat="44.480411334757704" lon="7.869257938937972"><ele>363.3333333333333</ele><time>2026-04-19T17:03:28.999Z</time></trkpt><trkpt lat="44.48028462253324" lon="7.869094898913526"><ele>363.0</ele><time>2026-04-19T17:03:29.999Z</time></trkpt><trkpt lat="44.480166510371575" lon="7.868937702578369"><ele>363.0</ele><time>2026-04-19T17:03:30.999Z</time></trkpt><trkpt lat="44.48005676938933" lon="7.868790860956971"><ele>363.0</ele><time>2026-04-19T17:03:31.999Z</time></trkpt><trkpt lat="44.47995916747138" lon="7.868649863307923"><ele>363.0</ele><time>2026-04-19T17:03:32.999Z</time></trkpt><trkpt lat="44.479883082323546" lon="7.868496132818352"><ele>363.0</ele><time>2026-04-19T17:03:33.999Z</time></trkpt><trkpt lat="44.47980622835961" lon="7.868346439483832"><ele>362.6666666666667</ele><time>2026-04-19T17:03:34.999Z</time></trkpt><trkpt lat="44.47969519590688" lon="7.868213452981931"><ele>362.33333333333337</ele><time>2026-04-19T17:03:35.999Z</time></trkpt><trkpt lat="44.479553417810415" lon="7.868101222106049"><ele>362.0</ele><time>2026-04-19T17:03:36.999Z</time></trkpt><trkpt lat="44.47940740025135" lon="7.86796419568915"><ele>362.0</ele><time>2026-04-19T17:03:37.999Z</time></trkpt><trkpt lat="44.47926459119019" lon="7.867786676794458"><ele>362.0</ele><time>2026-04-19T17:03:38.999Z</time></trkpt><trkpt lat="44.479117157544216" lon="7.867593877910519"><ele>362.0</ele><time>2026-04-19T17:03:39.999Z</time></trkpt><trkpt lat="44.47896177183239" lon="7.867390084522717"><ele>362.0</ele><time>2026-04-19T17:03:40.999Z</time></trkpt><trkpt lat="44.478797909691785" lon="7.867180542848151"><ele>362.0</ele><time>2026-04-19T17:03:41.999Z</time></trkpt><trkpt lat="44.47863365770691" lon="7.866969898569812"><ele>362.0</ele><time>2026-04-19T17:03:42.999Z</time></trkpt><trkpt lat="44.47847867480229" lon="7.866773365100389"><ele>362.0</ele><time>2026-04-19T17:03:43.999Z</time></trkpt><trkpt lat="44.4783308673609" lon="7.866587864408017"><ele>362.0</ele><time>2026-04-19T17:03:44.999Z</time></trkpt><trkpt lat="44.478189358113575" lon="7.866409165748999"><ele>362.0</ele><time>2026-04-19T17:03:45.999Z</time></trkpt><trkpt lat="44.47805381110892" lon="7.8662371731689875"><ele>362.6666666666667</ele><time>2026-04-19T17:03:46.999Z</time></trkpt><trkpt lat="44.47792436576818" lon="7.866069628225152"><ele>363.3333333333333</ele><time>2026-04-19T17:03:47.999Z</time></trkpt><trkpt lat="44.47780109635079" lon="7.865910642889461"><ele>364.0</ele><time>2026-04-19T17:03:48.999Z</time></trkpt><trkpt lat="44.47768457522949" lon="7.86575895562335"><ele>364.0</ele><time>2026-04-19T17:03:49.999Z</time></trkpt><trkpt lat="44.47757091609269" lon="7.865611860007912"><ele>364.0</ele><time>2026-04-19T17:03:50.999Z</time></trkpt><trkpt lat="44.477462632711934" lon="7.865475345650617"><ele>364.0</ele><time>2026-04-19T17:03:51.999Z</time></trkpt><trkpt lat="44.4773580135196" lon="7.865343408682064"><ele>364.0</ele><time>2026-04-19T17:03:52.999Z</time></trkpt><trkpt lat="44.4772579635959" lon="7.865214938815394"><ele>364.0</ele><time>2026-04-19T17:03:53.999Z</time></trkpt><trkpt lat="44.4771683867081" lon="7.865093762107577"><ele>364.0</ele><time>2026-04-19T17:03:54.999Z</time></trkpt><trkpt lat="44.47709425553153" lon="7.8649861443796025"><ele>364.0</ele><time>2026-04-19T17:03:55.999Z</time></trkpt><trkpt lat="44.47702570827498" lon="7.864889698977631"><ele>364.0</ele><time>2026-04-19T17:03:56.999Z</time></trkpt><trkpt lat="44.47697076209645" lon="7.86480765054736"><ele>364.0</ele><time>2026-04-19T17:03:57.999Z</time></trkpt><trkpt lat="44.47692989347477" lon="7.864739658687603"><ele>363.75</ele><time>2026-04-19T17:03:58.999Z</time></trkpt><trkpt lat="44.47684586533851" lon="7.864593860466181"><ele>363.5</ele><time>2026-04-19T17:04:00.999Z</time></trkpt><trkpt lat="44.47677584650712" lon="7.864497963225949"><ele>363.25</ele><time>2026-04-19T17:04:01.999Z</time></trkpt><trkpt lat="44.47668282850568" lon="7.864374667036171"><ele>363.0</ele><time>2026-04-19T17:04:02.999Z</time></trkpt><trkpt lat="44.47657539226745" lon="7.864223822346273"><ele>363.6666666666667</ele><time>2026-04-19T17:04:03.999Z</time></trkpt><trkpt lat="44.47645977994253" lon="7.864050052168392"><ele>364.33333333333337</ele><time>2026-04-19T17:04:04.999Z</time></trkpt><trkpt lat="44.47633078716413" lon="7.863856807230455"><ele>365.0</ele><time>2026-04-19T17:04:05.999Z</time></trkpt><trkpt lat="44.47619339935709" lon="7.863650488698888"><ele>365.0</ele><time>2026-04-19T17:04:06.999Z</time></trkpt><trkpt lat="44.4760490748571" lon="7.863430008555113"><ele>365.0</ele><time>2026-04-19T17:04:07.999Z</time></trkpt><trkpt lat="44.47589609941348" lon="7.863199523004174"><ele>365.0</ele><time>2026-04-19T17:04:08.999Z</time></trkpt><trkpt lat="44.47574156278951" lon="7.862973374011671"><ele>365.0</ele><time>2026-04-19T17:04:09.999Z</time></trkpt><trkpt lat="44.4755957441386" lon="7.862763194512272"><ele>365.0</ele><time>2026-04-19T17:04:10.999Z</time></trkpt><trkpt lat="44.47544835545415" lon="7.862550793970616"><ele>365.0</ele><time>2026-04-19T17:04:11.999Z</time></trkpt><trkpt lat="44.475299665703346" lon="7.8623347478635175"><ele>364.6666666666667</ele><time>2026-04-19T17:04:12.999Z</time></trkpt><trkpt lat="44.475152752470315" lon="7.8621147738144295"><ele>364.3333333333333</ele><time>2026-04-19T17:04:13.999Z</time></trkpt><trkpt lat="44.47500597038673" lon="7.861883693264118"><ele>364.0</ele><time>2026-04-19T17:04:14.999Z</time></trkpt><trkpt lat="44.47485415183891" lon="7.861648066031227"><ele>364.0</ele><time>2026-04-19T17:04:15.999Z</time></trkpt><trkpt lat="44.47470488933624" lon="7.861406496608854"><ele>364.0</ele><time>2026-04-19T17:04:16.999Z</time></trkpt><trkpt lat="44.47457115779756" lon="7.861136313731355"><ele>364.0</ele><time>2026-04-19T17:04:17.999Z</time></trkpt><trkpt lat="44.47446443034869" lon="7.860838825160199"><ele>364.0</ele><time>2026-04-19T17:04:18.999Z</time></trkpt><trkpt lat="44.47434367569493" lon="7.8605431179177065"><ele>364.0</ele><time>2026-04-19T17:04:19.999Z</time></trkpt><trkpt lat="44.47424866623465" lon="7.8602257286129085"><ele>364.0</ele><time>2026-04-19T17:04:20.999Z</time></trkpt><trkpt lat="44.474172857327936" lon="7.8598930312152815"><ele>364.5</ele><time>2026-04-19T17:04:21.999Z</time></trkpt><trkpt lat="44.47411578254732" lon="7.859552747974621"><ele>365.0</ele><time>2026-04-19T17:04:22.999Z</time></trkpt><trkpt lat="44.474077537794024" lon="7.859195919066662"><ele>365.0</ele><time>2026-04-19T17:04:23.999Z</time></trkpt><trkpt lat="44.47405198423095" lon="7.858819012584483"><ele>365.0</ele><time>2026-04-19T17:04:24.999Z</time></trkpt><trkpt lat="44.4740358671251" lon="7.858430039141291"><ele>365.0</ele><time>2026-04-19T17:04:25.999Z</time></trkpt><trkpt lat="44.47402261243406" lon="7.858031748435103"><ele>365.0</ele><time>2026-04-19T17:04:26.999Z</time></trkpt><trkpt lat="44.47400861564005" lon="7.8576242567987915"><ele>365.5</ele><time>2026-04-19T17:04:27.999Z</time></trkpt><trkpt lat="44.47398915881869" lon="7.857210711876855"><ele>366.0</ele><time>2026-04-19T17:04:28.999Z</time></trkpt><trkpt lat="44.473970516194136" lon="7.856791860360942"><ele>366.5</ele><time>2026-04-19T17:04:29.999Z</time></trkpt><trkpt lat="44.4739528432451" lon="7.856365936960688"><ele>367.0</ele><time>2026-04-19T17:04:30.999Z</time></trkpt><trkpt lat="44.47393338201963" lon="7.8559400024902235"><ele>367.5</ele><time>2026-04-19T17:04:31.999Z</time></trkpt><trkpt lat="44.47391536730029" lon="7.8555088085305975"><ele>368.0</ele><time>2026-04-19T17:04:32.999Z</time></trkpt><trkpt lat="44.47389900625562" lon="7.8550826796507005"><ele>368.0</ele><time>2026-04-19T17:04:33.998Z</time></trkpt><trkpt lat="44.47388403716214" lon="7.854673143513725"><ele>368.0</ele><time>2026-04-19T17:04:34.998Z</time></trkpt><trkpt lat="44.473867657404604" lon="7.854287342371019"><ele>368.0</ele><time>2026-04-19T17:04:35.998Z</time></trkpt><trkpt lat="44.4738437995951" lon="7.853901377416298"><ele>368.0</ele><time>2026-04-19T17:04:36.998Z</time></trkpt><trkpt lat="44.473808453742684" lon="7.853509856057686"><ele>368.0</ele><time>2026-04-19T17:04:37.998Z</time></trkpt><trkpt lat="44.47377827632925" lon="7.853106060486581"><ele>368.0</ele><time>2026-04-19T17:04:38.998Z</time></trkpt><trkpt lat="44.47370431066704" lon="7.852700306019399"><ele>368.0</ele><time>2026-04-19T17:04:39.998Z</time></trkpt><trkpt lat="44.473641897798686" lon="7.852302193092767"><ele>368.0</ele><time>2026-04-19T17:04:40.998Z</time></trkpt><trkpt lat="44.473582030415024" lon="7.851925005167834"><ele>369.0</ele><time>2026-04-19T17:04:41.998Z</time></trkpt><trkpt lat="44.47352610312666" lon="7.8515716117806615"><ele>370.0</ele><time>2026-04-19T17:04:42.998Z</time></trkpt><trkpt lat="44.47347345344172" lon="7.8512286243680665"><ele>370.5</ele><time>2026-04-19T17:04:43.998Z</time></trkpt><trkpt lat="44.473417096284926" lon="7.850896367737185"><ele>371.0</ele><time>2026-04-19T17:04:44.998Z</time></trkpt><trkpt lat="44.473358923893336" lon="7.850581643616629"><ele>371.0</ele><time>2026-04-19T17:04:45.998Z</time></trkpt><trkpt lat="44.473300048640674" lon="7.850272002668821"><ele>371.0</ele><time>2026-04-19T17:04:46.998Z</time></trkpt><trkpt lat="44.4732418106681" lon="7.849972580690191"><ele>371.0</ele><time>2026-04-19T17:04:47.998Z</time></trkpt><trkpt lat="44.47311480457405" lon="7.849397020844437"><ele>371.0</ele><time>2026-04-19T17:04:49.998Z</time></trkpt><trkpt lat="44.473045721249754" lon="7.849123702442284"><ele>371.0</ele><time>2026-04-19T17:04:50.998Z</time></trkpt><trkpt lat="44.47297723590956" lon="7.848858098936693"><ele>371.0</ele><time>2026-04-19T17:04:51.998Z</time></trkpt><trkpt lat="44.47290973623493" lon="7.8485951020181135"><ele>371.0</ele><time>2026-04-19T17:04:52.998Z</time></trkpt><trkpt lat="44.472843034619856" lon="7.848326438597401"><ele>370.33333333333337</ele><time>2026-04-19T17:04:53.998Z</time></trkpt><trkpt lat="44.47277928991738" lon="7.8480564918898414"><ele>369.6666666666667</ele><time>2026-04-19T17:04:54.998Z</time></trkpt><trkpt lat="44.472718823505865" lon="7.8477940298395605"><ele>369.0</ele><time>2026-04-19T17:04:56Z</time></trkpt><trkpt lat="44.472654602491026" lon="7.847540853836725"><ele>368.3333333333333</ele><time>2026-04-19T17:04:57Z</time></trkpt><trkpt lat="44.47259133481902" lon="7.847290332327361"><ele>367.66666666666663</ele><time>2026-04-19T17:04:58Z</time></trkpt><trkpt lat="44.472511863399156" lon="7.847035973846869"><ele>367.0</ele><time>2026-04-19T17:04:59Z</time></trkpt><trkpt lat="44.47241218017501" lon="7.8467687978900065"><ele>366.0</ele><time>2026-04-19T17:05:00Z</time></trkpt><trkpt lat="44.47229029251257" lon="7.84649621325798"><ele>365.0</ele><time>2026-04-19T17:05:01Z</time></trkpt><trkpt lat="44.47215460503182" lon="7.846219126412796"><ele>366.0</ele><time>2026-04-19T17:05:02Z</time></trkpt><trkpt lat="44.47201295834565" lon="7.845929701708364"><ele>367.0</ele><time>2026-04-19T17:05:03Z</time></trkpt><trkpt lat="44.4718817216877" lon="7.845628699879381"><ele>367.0</ele><time>2026-04-19T17:05:04Z</time></trkpt><trkpt lat="44.471745953631" lon="7.845335993382642"><ele>367.0</ele><time>2026-04-19T17:05:05Z</time></trkpt><trkpt lat="44.47162672111446" lon="7.845062922803869"><ele>367.3333333333333</ele><time>2026-04-19T17:05:06Z</time></trkpt><trkpt lat="44.471520863048944" lon="7.844800404398536"><ele>367.6666666666667</ele><time>2026-04-19T17:05:07Z</time></trkpt><trkpt lat="44.47143694511716" lon="7.844533537528941"><ele>368.0</ele><time>2026-04-19T17:05:08Z</time></trkpt><trkpt lat="44.47137525731259" lon="7.8442420169877805"><ele>368.5</ele><time>2026-04-19T17:05:09Z</time></trkpt><trkpt lat="44.471326977400786" lon="7.843923191853796"><ele>369.0</ele><time>2026-04-19T17:05:10Z</time></trkpt><trkpt lat="44.47129173233731" lon="7.84358983558698"><ele>368.5</ele><time>2026-04-19T17:05:11Z</time></trkpt><trkpt lat="44.471254662271775" lon="7.843241839324077"><ele>368.0</ele><time>2026-04-19T17:05:12Z</time></trkpt><trkpt lat="44.47121170204369" lon="7.842881213798875"><ele>368.5</ele><time>2026-04-19T17:05:13Z</time></trkpt><trkpt lat="44.471170703485555" lon="7.842512524551051"><ele>369.0</ele><time>2026-04-19T17:05:14Z</time></trkpt><trkpt lat="44.47113175166462" lon="7.8421484574655285"><ele>369.0</ele><time>2026-04-19T17:05:15Z</time></trkpt><trkpt lat="44.47108946148824" lon="7.841795805345203"><ele>369.0</ele><time>2026-04-19T17:05:16Z</time></trkpt><trkpt lat="44.471034079413464" lon="7.841447510676445"><ele>369.0</ele><time>2026-04-19T17:05:17Z</time></trkpt><trkpt lat="44.47095961331354" lon="7.841093913550597"><ele>369.0</ele><time>2026-04-19T17:05:18Z</time></trkpt><trkpt lat="44.47087306466277" lon="7.840740449598045"><ele>369.5</ele><time>2026-04-19T17:05:18.999Z</time></trkpt><trkpt lat="44.470772813074156" lon="7.840383056458507"><ele>370.0</ele><time>2026-04-19T17:05:19.999Z</time></trkpt><trkpt lat="44.47065690929483" lon="7.840018551037949"><ele>370.5</ele><time>2026-04-19T17:05:20.999Z</time></trkpt><trkpt lat="44.4705275792715" lon="7.839653252076341"><ele>371.0</ele><time>2026-04-19T17:05:21.999Z</time></trkpt><trkpt lat="44.470381582298614" lon="7.839290150750139"><ele>371.0</ele><time>2026-04-19T17:05:22.999Z</time></trkpt><trkpt lat="44.470219966944576" lon="7.838931386051299"><ele>371.0</ele><time>2026-04-19T17:05:23.999Z</time></trkpt><trkpt lat="44.47003993219144" lon="7.838580678899804"><ele>371.0</ele><time>2026-04-19T17:05:24.999Z</time></trkpt><trkpt lat="44.46984423465731" lon="7.838248508769991"><ele>371.0</ele><time>2026-04-19T17:05:25.999Z</time></trkpt><trkpt lat="44.46964447219386" lon="7.837936290868461"><ele>371.0</ele><time>2026-04-19T17:05:26.999Z</time></trkpt><trkpt lat="44.469448864867" lon="7.837631776186859"><ele>371.0</ele><time>2026-04-19T17:05:27.999Z</time></trkpt><trkpt lat="44.46925118873411" lon="7.8373201205034295"><ele>371.0</ele><time>2026-04-19T17:05:28.999Z</time></trkpt><trkpt lat="44.469053290926595" lon="7.836999297193535"><ele>371.0</ele><time>2026-04-19T17:05:29.999Z</time></trkpt><trkpt lat="44.46885434209486" lon="7.836674571523187"><ele>372.0</ele><time>2026-04-19T17:05:30.999Z</time></trkpt><trkpt lat="44.46865041758001" lon="7.83634514094628"><ele>373.0</ele><time>2026-04-19T17:05:31.999Z</time></trkpt><trkpt lat="44.46844073728962" lon="7.836009909512823"><ele>372.5</ele><time>2026-04-19T17:05:32.999Z</time></trkpt><trkpt lat="44.468245147832974" lon="7.8356964240172635"><ele>372.0</ele><time>2026-04-19T17:05:33.999Z</time></trkpt><trkpt lat="44.46805803357913" lon="7.8353919174157705"><ele>372.5</ele><time>2026-04-19T17:05:34.999Z</time></trkpt><trkpt lat="44.46787192855352" lon="7.835085013650304"><ele>373.0</ele><time>2026-04-19T17:05:35.999Z</time></trkpt><trkpt lat="44.467677642722926" lon="7.834763064079929"><ele>373.0</ele><time>2026-04-19T17:05:36.999Z</time></trkpt><trkpt lat="44.46747900985643" lon="7.834434152566067"><ele>373.0</ele><time>2026-04-19T17:05:37.999Z</time></trkpt><trkpt lat="44.467272721929525" lon="7.834098443578797"><ele>373.0</ele><time>2026-04-19T17:05:38.999Z</time></trkpt><trkpt lat="44.46705979812375" lon="7.833757491641679"><ele>373.0</ele><time>2026-04-19T17:05:39.999Z</time></trkpt><trkpt lat="44.46685679712187" lon="7.833425812653027"><ele>373.0</ele><time>2026-04-19T17:05:40.999Z</time></trkpt><trkpt lat="44.466660093929384" lon="7.833116290967611"><ele>373.0</ele><time>2026-04-19T17:05:41.999Z</time></trkpt><trkpt lat="44.466469311448556" lon="7.832815830861498"><ele>373.5</ele><time>2026-04-19T17:05:42.999Z</time></trkpt><trkpt lat="44.46628705009465" lon="7.832530431969305"><ele>374.0</ele><time>2026-04-19T17:05:43.999Z</time></trkpt><trkpt lat="44.46611066549571" lon="7.832255381763251"><ele>374.5</ele><time>2026-04-19T17:05:44.999Z</time></trkpt><trkpt lat="44.4659360812066" lon="7.831979822362126"><ele>375.0</ele><time>2026-04-19T17:05:45.999Z</time></trkpt><trkpt lat="44.46575865090914" lon="7.831704242810036"><ele>375.5</ele><time>2026-04-19T17:05:46.999Z</time></trkpt><trkpt lat="44.46558487262457" lon="7.831441888352591"><ele>376.0</ele><time>2026-04-19T17:05:47.999Z</time></trkpt><trkpt lat="44.465418605461586" lon="7.83117830269486"><ele>375.0</ele><time>2026-04-19T17:05:48.999Z</time></trkpt><trkpt lat="44.46525435809831" lon="7.830919625179088"><ele>374.0</ele><time>2026-04-19T17:05:49.999Z</time></trkpt><trkpt lat="44.465086724304236" lon="7.830655862722982"><ele>374.0</ele><time>2026-04-19T17:05:50.999Z</time></trkpt><trkpt lat="44.46492658453042" lon="7.830405617506833"><ele>374.0</ele><time>2026-04-19T17:05:51.999Z</time></trkpt><trkpt lat="44.46477723182008" lon="7.830168259185353"><ele>374.0</ele><time>2026-04-19T17:05:52.999Z</time></trkpt><trkpt lat="44.46463941736593" lon="7.829950190524429"><ele>374.0</ele><time>2026-04-19T17:05:53.999Z</time></trkpt><trkpt lat="44.46451206245086" lon="7.829752412584371"><ele>374.0</ele><time>2026-04-19T17:05:54.999Z</time></trkpt><trkpt lat="44.46439930401167" lon="7.82957106108386"><ele>374.6666666666667</ele><time>2026-04-19T17:05:55.999Z</time></trkpt><trkpt lat="44.46429611532061" lon="7.829402552567909"><ele>375.3333333333333</ele><time>2026-04-19T17:05:56.999Z</time></trkpt><trkpt lat="44.46419621701851" lon="7.829240180147611"><ele>376.0</ele><time>2026-04-19T17:05:57.999Z</time></trkpt><trkpt lat="44.46410171235896" lon="7.829087994387194"><ele>376.0</ele><time>2026-04-19T17:05:58.999Z</time></trkpt><trkpt lat="44.464024979364844" lon="7.82893239036994"><ele>376.0</ele><time>2026-04-19T17:05:59.999Z</time></trkpt><trkpt lat="44.463942703354185" lon="7.828800623629369"><ele>376.0</ele><time>2026-04-19T17:06:00.999Z</time></trkpt><trkpt lat="44.463845905759314" lon="7.828645601322552"><ele>376.0</ele><time>2026-04-19T17:06:01.999Z</time></trkpt><trkpt lat="44.46373684847026" lon="7.8284706296921405"><ele>376.0</ele><time>2026-04-19T17:06:02.999Z</time></trkpt><trkpt lat="44.46361443150374" lon="7.828274334347688"><ele>376.0</ele><time>2026-04-19T17:06:03.999Z</time></trkpt><trkpt lat="44.46345410306107" lon="7.828085251524171"><ele>376.0</ele><time>2026-04-19T17:06:04.999Z</time></trkpt><trkpt lat="44.46330703217927" lon="7.8278425998114916"><ele>376.0</ele><time>2026-04-19T17:06:05.999Z</time></trkpt><trkpt lat="44.46315752476975" lon="7.8275880107741145"><ele>376.0</ele><time>2026-04-19T17:06:06.999Z</time></trkpt><trkpt lat="44.46300280862315" lon="7.8273251676498115"><ele>376.0</ele><time>2026-04-19T17:06:07.999Z</time></trkpt><trkpt lat="44.46284288355341" lon="7.827067567797951"><ele>376.0</ele><time>2026-04-19T17:06:08.999Z</time></trkpt><trkpt lat="44.462681919616415" lon="7.826817729326654"><ele>374.5</ele><time>2026-04-19T17:06:09.999Z</time></trkpt><trkpt lat="44.46254284987907" lon="7.826553318830862"><ele>373.0</ele><time>2026-04-19T17:06:10.999Z</time></trkpt><trkpt lat="44.462401126550525" lon="7.826304544522442"><ele>373.0</ele><time>2026-04-19T17:06:11.999Z</time></trkpt><trkpt lat="44.46227065358053" lon="7.826056685754477"><ele>373.0</ele><time>2026-04-19T17:06:12.999Z</time></trkpt><trkpt lat="44.46213621127678" lon="7.825827011027448"><ele>373.0</ele><time>2026-04-19T17:06:13.999Z</time></trkpt><trkpt lat="44.46202459861629" lon="7.825587339586096"><ele>373.66666666666663</ele><time>2026-04-19T17:06:14.999Z</time></trkpt><trkpt lat="44.46191902088316" lon="7.825355192799563"><ele>374.3333333333333</ele><time>2026-04-19T17:06:15.999Z</time></trkpt><trkpt lat="44.46182367574457" lon="7.825132180407424"><ele>375.0</ele><time>2026-04-19T17:06:16.999Z</time></trkpt><trkpt lat="44.46173682868007" lon="7.8249209805045075"><ele>375.6666666666667</ele><time>2026-04-19T17:06:17.999Z</time></trkpt><trkpt lat="44.46165480335365" lon="7.824721370693212"><ele>376.33333333333337</ele><time>2026-04-19T17:06:18.999Z</time></trkpt><trkpt lat="44.46158050246634" lon="7.824537448999583"><ele>377.0</ele><time>2026-04-19T17:06:19.999Z</time></trkpt><trkpt lat="44.46151204400775" lon="7.824360466222736"><ele>377.25</ele><time>2026-04-19T17:06:20.999Z</time></trkpt><trkpt lat="44.461451198324184" lon="7.824198671934295"><ele>377.5</ele><time>2026-04-19T17:06:21.999Z</time></trkpt><trkpt lat="44.46140336591777" lon="7.8240422054217"><ele>377.75</ele><time>2026-04-19T17:06:22.999Z</time></trkpt><trkpt lat="44.461372316285576" lon="7.8238784318262455"><ele>378.0</ele><time>2026-04-19T17:06:23.999Z</time></trkpt><trkpt lat="44.46133697306425" lon="7.823712588077767"><ele>378.3333333333333</ele><time>2026-04-19T17:06:24.999Z</time></trkpt><trkpt lat="44.461263484731276" lon="7.823550485389838"><ele>378.66666666666663</ele><time>2026-04-19T17:06:25.999Z</time></trkpt><trkpt lat="44.46116144144396" lon="7.823380110581405"><ele>379.0</ele><time>2026-04-19T17:06:26.999Z</time></trkpt><trkpt lat="44.4610520573063" lon="7.8231768869964275"><ele>379.0</ele><time>2026-04-19T17:06:27.999Z</time></trkpt><trkpt lat="44.46094108203836" lon="7.822934277883966"><ele>379.0</ele><time>2026-04-19T17:06:28.999Z</time></trkpt><trkpt lat="44.46082108000148" lon="7.8226627972784915"><ele>379.0</ele><time>2026-04-19T17:06:29.999Z</time></trkpt><trkpt lat="44.4606877821393" lon="7.8223648178977285"><ele>379.0</ele><time>2026-04-19T17:06:30.999Z</time></trkpt><trkpt lat="44.460549037126015" lon="7.822040727225121"><ele>379.0</ele><time>2026-04-19T17:06:31.999Z</time></trkpt><trkpt lat="44.4604087867522" lon="7.821697130444615"><ele>379.0</ele><time>2026-04-19T17:06:32.999Z</time></trkpt><trkpt lat="44.4602592402295" lon="7.821336253086634"><ele>379.0</ele><time>2026-04-19T17:06:33.998Z</time></trkpt><trkpt lat="44.460118483749525" lon="7.820947626185486"><ele>379.0</ele><time>2026-04-19T17:06:34.998Z</time></trkpt><trkpt lat="44.4599419894374" lon="7.820566568054466"><ele>379.0</ele><time>2026-04-19T17:06:35.998Z</time></trkpt><trkpt lat="44.459779046688425" lon="7.820165955664791"><ele>379.5</ele><time>2026-04-19T17:06:36.998Z</time></trkpt><trkpt lat="44.45961193144668" lon="7.819757918837652"><ele>380.0</ele><time>2026-04-19T17:06:37.998Z</time></trkpt><trkpt lat="44.45945054515453" lon="7.819330237941055"><ele>380.5</ele><time>2026-04-19T17:06:38.998Z</time></trkpt><trkpt lat="44.45927383738545" lon="7.818902257826969"><ele>381.0</ele><time>2026-04-19T17:06:39.998Z</time></trkpt><trkpt lat="44.45909471925714" lon="7.818467460483687"><ele>381.0</ele><time>2026-04-19T17:06:40.998Z</time></trkpt><trkpt lat="44.45891201735493" lon="7.818024436610178"><ele>381.0</ele><time>2026-04-19T17:06:41.998Z</time></trkpt><trkpt lat="44.458731060327196" lon="7.817585743270115"><ele>380.5</ele><time>2026-04-19T17:06:42.998Z</time></trkpt><trkpt lat="44.458544021706366" lon="7.81717390776413"><ele>380.0</ele><time>2026-04-19T17:06:43.998Z</time></trkpt><trkpt lat="44.45837657041526" lon="7.816758709442885"><ele>380.0</ele><time>2026-04-19T17:06:44.998Z</time></trkpt><trkpt lat="44.4582122176015" lon="7.816363726364645"><ele>380.0</ele><time>2026-04-19T17:06:45.998Z</time></trkpt><trkpt lat="44.458049713664664" lon="7.8159680863418615"><ele>380.5</ele><time>2026-04-19T17:06:46.998Z</time></trkpt><trkpt lat="44.45788859979124" lon="7.815578929404068"><ele>381.0</ele><time>2026-04-19T17:06:47.998Z</time></trkpt><trkpt lat="44.45773229860755" lon="7.815196438704743"><ele>380.5</ele><time>2026-04-19T17:06:48.998Z</time></trkpt><trkpt lat="44.45757568133636" lon="7.814812862691133"><ele>380.0</ele><time>2026-04-19T17:06:49.998Z</time></trkpt><trkpt lat="44.457414453223414" lon="7.814418525456233"><ele>380.5</ele><time>2026-04-19T17:06:50.998Z</time></trkpt><trkpt lat="44.45724787597108" lon="7.814022655046412"><ele>381.0</ele><time>2026-04-19T17:06:51.998Z</time></trkpt><trkpt lat="44.45708389341994" lon="7.813636781940004"><ele>381.0</ele><time>2026-04-19T17:06:52.998Z</time></trkpt><trkpt lat="44.45694457592282" lon="7.813258437349561"><ele>381.0</ele><time>2026-04-19T17:06:53.998Z</time></trkpt><trkpt lat="44.45680052413402" lon="7.812909942524706"><ele>381.0</ele><time>2026-04-19T17:06:54.998Z</time></trkpt><trkpt lat="44.45664710796663" lon="7.812584174440744"><ele>381.0</ele><time>2026-04-19T17:06:55.998Z</time></trkpt><trkpt lat="44.456511863711874" lon="7.812252199286662"><ele>381.0</ele><time>2026-04-19T17:06:56.998Z</time></trkpt><trkpt lat="44.456372756736485" lon="7.811908003981764"><ele>381.0</ele><time>2026-04-19T17:06:57.998Z</time></trkpt><trkpt lat="44.45623084409323" lon="7.811562116414141"><ele>382.0</ele><time>2026-04-19T17:06:58.998Z</time></trkpt><trkpt lat="44.45609093605235" lon="7.811221254772942"><ele>383.0</ele><time>2026-04-19T17:06:59.998Z</time></trkpt><trkpt lat="44.455950232618505" lon="7.8108803309866515"><ele>383.0</ele><time>2026-04-19T17:07:00.998Z</time></trkpt><trkpt lat="44.45580770610858" lon="7.810536210537244"><ele>383.0</ele><time>2026-04-19T17:07:01.999Z</time></trkpt><trkpt lat="44.455666551289035" lon="7.810195272656125"><ele>383.0</ele><time>2026-04-19T17:07:02.999Z</time></trkpt><trkpt lat="44.45552521909816" lon="7.8098545264398265"><ele>383.0</ele><time>2026-04-19T17:07:03.999Z</time></trkpt><trkpt lat="44.4553840548968" lon="7.8095122252373415"><ele>384.0</ele><time>2026-04-19T17:07:04.999Z</time></trkpt><trkpt lat="44.45523998934513" lon="7.809166959538253"><ele>385.0</ele><time>2026-04-19T17:07:05.999Z</time></trkpt><trkpt lat="44.45509571889799" lon="7.8088215220804"><ele>386.0</ele><time>2026-04-19T17:07:06.999Z</time></trkpt><trkpt lat="44.45496755816789" lon="7.808464080087281"><ele>387.0</ele><time>2026-04-19T17:07:07.999Z</time></trkpt><trkpt lat="44.454825542867695" lon="7.808122091068918"><ele>387.0</ele><time>2026-04-19T17:07:08.999Z</time></trkpt><trkpt lat="44.45468411473058" lon="7.807781516015571"><ele>387.0</ele><time>2026-04-19T17:07:09.999Z</time></trkpt><trkpt lat="44.45454570491539" lon="7.807446757495474"><ele>386.5</ele><time>2026-04-19T17:07:10.999Z</time></trkpt><trkpt lat="44.45440183764179" lon="7.80712709705883"><ele>386.0</ele><time>2026-04-19T17:07:11.999Z</time></trkpt><trkpt lat="44.4542672788896" lon="7.806797831273609"><ele>386.0</ele><time>2026-04-19T17:07:12.999Z</time></trkpt><trkpt lat="44.454113904372534" lon="7.806488115767236"><ele>386.0</ele><time>2026-04-19T17:07:13.999Z</time></trkpt><trkpt lat="44.45398277471357" lon="7.806160702368113"><ele>385.5</ele><time>2026-04-19T17:07:14.999Z</time></trkpt><trkpt lat="44.45387016454787" lon="7.805815073290034"><ele>385.0</ele><time>2026-04-19T17:07:15.999Z</time></trkpt><trkpt lat="44.45373589596848" lon="7.805490630359503"><ele>385.5</ele><time>2026-04-19T17:07:16.999Z</time></trkpt><trkpt lat="44.45358798946504" lon="7.805179150617803"><ele>386.0</ele><time>2026-04-19T17:07:17.999Z</time></trkpt><trkpt lat="44.45345710632781" lon="7.804855329238954"><ele>386.0</ele><time>2026-04-19T17:07:18.999Z</time></trkpt><trkpt lat="44.453324740354944" lon="7.804535251730367"><ele>386.0</ele><time>2026-04-19T17:07:19.999Z</time></trkpt><trkpt lat="44.45319182637032" lon="7.8042136713973616"><ele>386.0</ele><time>2026-04-19T17:07:20.999Z</time></trkpt><trkpt lat="44.453060926046824" lon="7.803892103622893"><ele>386.0</ele><time>2026-04-19T17:07:21.999Z</time></trkpt><trkpt lat="44.45293109049435" lon="7.803569466642298"><ele>386.0</ele><time>2026-04-19T17:07:22.999Z</time></trkpt><trkpt lat="44.45279673923118" lon="7.803238935484597"><ele>386.0</ele><time>2026-04-19T17:07:23.999Z</time></trkpt><trkpt lat="44.4526612824938" lon="7.802906443269658"><ele>386.0</ele><time>2026-04-19T17:07:24.999Z</time></trkpt><trkpt lat="44.45252359231159" lon="7.802571061440881"><ele>386.0</ele><time>2026-04-19T17:07:25.999Z</time></trkpt><trkpt lat="44.45238246445019" lon="7.802231076737298"><ele>386.0</ele><time>2026-04-19T17:07:26.999Z</time></trkpt><trkpt lat="44.45223374053323" lon="7.8018806898308855"><ele>386.0</ele><time>2026-04-19T17:07:27.999Z</time></trkpt><trkpt lat="44.452086147848995" lon="7.801531450750125"><ele>387.0</ele><time>2026-04-19T17:07:28.999Z</time></trkpt><trkpt lat="44.451956857475764" lon="7.801171537236724"><ele>388.0</ele><time>2026-04-19T17:07:29.999Z</time></trkpt><trkpt lat="44.451811372951795" lon="7.800818669285305"><ele>388.0</ele><time>2026-04-19T17:07:30.999Z</time></trkpt><trkpt lat="44.45166434919518" lon="7.800462067997959"><ele>388.0</ele><time>2026-04-19T17:07:31.999Z</time></trkpt><trkpt lat="44.45151587490712" lon="7.800100390340571"><ele>388.5</ele><time>2026-04-19T17:07:32.999Z</time></trkpt><trkpt lat="44.4513516850816" lon="7.7997477954768"><ele>389.0</ele><time>2026-04-19T17:07:33.999Z</time></trkpt><trkpt lat="44.45119983319987" lon="7.7993903886335785"><ele>389.0</ele><time>2026-04-19T17:07:34.999Z</time></trkpt><trkpt lat="44.4510364713513" lon="7.799034215696749"><ele>389.0</ele><time>2026-04-19T17:07:35.999Z</time></trkpt><trkpt lat="44.45087442420344" lon="7.798664945106187"><ele>389.0</ele><time>2026-04-19T17:07:36.999Z</time></trkpt><trkpt lat="44.45068632815526" lon="7.7983111510441105"><ele>389.0</ele><time>2026-04-19T17:07:37.999Z</time></trkpt><trkpt lat="44.45049026791916" lon="7.797966531220266"><ele>389.0</ele><time>2026-04-19T17:07:38.999Z</time></trkpt><trkpt lat="44.45028941525996" lon="7.797638923152936"><ele>389.0</ele><time>2026-04-19T17:07:39.999Z</time></trkpt><trkpt lat="44.450070926163356" lon="7.797342637438931"><ele>389.0</ele><time>2026-04-19T17:07:40.999Z</time></trkpt><trkpt lat="44.449872959744624" lon="7.797029953106626"><ele>389.0</ele><time>2026-04-19T17:07:41.999Z</time></trkpt><trkpt lat="44.44966249538421" lon="7.796753378909277"><ele>387.5</ele><time>2026-04-19T17:07:42.999Z</time></trkpt><trkpt lat="44.44944045250586" lon="7.79650379668602"><ele>386.0</ele><time>2026-04-19T17:07:43.999Z</time></trkpt><trkpt lat="44.44922314964505" lon="7.796230625638204"><ele>386.5</ele><time>2026-04-19T17:07:44.999Z</time></trkpt><trkpt lat="44.44899436570471" lon="7.795987098239291"><ele>387.0</ele><time>2026-04-19T17:07:45.999Z</time></trkpt><trkpt lat="44.44881081351974" lon="7.795748923141782"><ele>386.5</ele><time>2026-04-19T17:07:46.999Z</time></trkpt><trkpt lat="44.448614018445404" lon="7.795546169459813"><ele>386.0</ele><time>2026-04-19T17:07:47.999Z</time></trkpt><trkpt lat="44.448435800240105" lon="7.795336209189161"><ele>385.5</ele><time>2026-04-19T17:07:48.999Z</time></trkpt><trkpt lat="44.448262799098124" lon="7.795136298600252"><ele>385.0</ele><time>2026-04-19T17:07:49.999Z</time></trkpt><trkpt lat="44.44808684762527" lon="7.7948997226316"><ele>384.5</ele><time>2026-04-19T17:07:50.999Z</time></trkpt><trkpt lat="44.4478781827225" lon="7.794655278730075"><ele>384.0</ele><time>2026-04-19T17:07:51.999Z</time></trkpt><trkpt lat="44.44765527135425" lon="7.794395397340673"><ele>385.0</ele><time>2026-04-19T17:07:52.999Z</time></trkpt><trkpt lat="44.447417784112844" lon="7.794118522504999"><ele>386.0</ele><time>2026-04-19T17:07:53.999Z</time></trkpt><trkpt lat="44.44716395306876" lon="7.7938425952192"><ele>386.0</ele><time>2026-04-19T17:07:54.999Z</time></trkpt><trkpt lat="44.446911416198844" lon="7.7935400726092565"><ele>386.0</ele><time>2026-04-19T17:07:55.999Z</time></trkpt><trkpt lat="44.446666306747616" lon="7.793256495084383"><ele>386.0</ele><time>2026-04-19T17:07:56.999Z</time></trkpt><trkpt lat="44.44643384227258" lon="7.7929849833983145"><ele>386.0</ele><time>2026-04-19T17:07:57.999Z</time></trkpt><trkpt lat="44.4462120328069" lon="7.7927178864997835"><ele>385.5</ele><time>2026-04-19T17:07:58.999Z</time></trkpt><trkpt lat="44.44601860935807" lon="7.792432051261598"><ele>385.0</ele><time>2026-04-19T17:07:59.999Z</time></trkpt><trkpt lat="44.44582456469394" lon="7.792177006711182"><ele>385.0</ele><time>2026-04-19T17:08:00.999Z</time></trkpt><trkpt lat="44.445658443450085" lon="7.791903260081363"><ele>385.0</ele><time>2026-04-19T17:08:01.999Z</time></trkpt><trkpt lat="44.445497310039954" lon="7.791620432075121"><ele>386.5</ele><time>2026-04-19T17:08:02.999Z</time></trkpt><trkpt lat="44.44534136432768" lon="7.791323963840891"><ele>388.0</ele><time>2026-04-19T17:08:03.999Z</time></trkpt><trkpt lat="44.44519857308475" lon="7.791026259059344"><ele>388.5</ele><time>2026-04-19T17:08:04.999Z</time></trkpt><trkpt lat="44.44507224243584" lon="7.790735137309022"><ele>389.0</ele><time>2026-04-19T17:08:05.999Z</time></trkpt><trkpt lat="44.44495685278706" lon="7.79044979337826"><ele>388.66666666666663</ele><time>2026-04-19T17:08:06.999Z</time></trkpt><trkpt lat="44.44485505842687" lon="7.790172451332968"><ele>388.33333333333337</ele><time>2026-04-19T17:08:07.999Z</time></trkpt><trkpt lat="44.44476413343567" lon="7.789905121946744"><ele>388.0</ele><time>2026-04-19T17:08:08.999Z</time></trkpt><trkpt lat="44.44468273551061" lon="7.789654914075342"><ele>388.0</ele><time>2026-04-19T17:08:09.999Z</time></trkpt><trkpt lat="44.44461120002394" lon="7.789429253391912"><ele>388.0</ele><time>2026-04-19T17:08:10.999Z</time></trkpt><trkpt lat="44.444546630770745" lon="7.7892209075803445"><ele>388.0</ele><time>2026-04-19T17:08:11.999Z</time></trkpt><trkpt lat="44.444486957479455" lon="7.789030714157716"><ele>388.25</ele><time>2026-04-19T17:08:12.999Z</time></trkpt><trkpt lat="44.44443065415326" lon="7.788852631023577"><ele>388.5</ele><time>2026-04-19T17:08:13.999Z</time></trkpt><trkpt lat="44.44437851042114" lon="7.78868569290581"><ele>388.75</ele><time>2026-04-19T17:08:14.999Z</time></trkpt><trkpt lat="44.44433073913354" lon="7.788530475320996"><ele>389.0</ele><time>2026-04-19T17:08:15.999Z</time></trkpt><trkpt lat="44.44429020886567" lon="7.788384522422073"><ele>389.2</ele><time>2026-04-19T17:08:16.999Z</time></trkpt><trkpt lat="44.44426415945534" lon="7.788247813074185"><ele>389.4</ele><time>2026-04-19T17:08:17.999Z</time></trkpt><trkpt lat="44.44425434503657" lon="7.788113590390854"><ele>389.6</ele><time>2026-04-19T17:08:18.999Z</time></trkpt><trkpt lat="44.44426133487729" lon="7.787972470667642"><ele>389.8</ele><time>2026-04-19T17:08:19.999Z</time></trkpt><trkpt lat="44.444255996927275" lon="7.78784419598575"><ele>390.0</ele><time>2026-04-19T17:08:20.999Z</time></trkpt><trkpt lat="44.444213678222646" lon="7.787705371389204"><ele>390.25</ele><time>2026-04-19T17:08:21.999Z</time></trkpt><trkpt lat="44.44413354635756" lon="7.787564554653732"><ele>390.5</ele><time>2026-04-19T17:08:22.999Z</time></trkpt><trkpt lat="44.444024654397595" lon="7.7874202203920575"><ele>390.75</ele><time>2026-04-19T17:08:23.999Z</time></trkpt><trkpt lat="44.44391935555646" lon="7.787239435019197"><ele>391.0</ele><time>2026-04-19T17:08:24.999Z</time></trkpt><trkpt lat="44.443831092894655" lon="7.787010088279315"><ele>391.6666666666667</ele><time>2026-04-19T17:08:25.999Z</time></trkpt><trkpt lat="44.44374756478923" lon="7.786741905130389"><ele>392.33333333333337</ele><time>2026-04-19T17:08:26.999Z</time></trkpt><trkpt lat="44.4436588863104" lon="7.786445818609181"><ele>393.0</ele><time>2026-04-19T17:08:27.999Z</time></trkpt><trkpt lat="44.44355824471611" lon="7.786122715180051"><ele>392.0</ele><time>2026-04-19T17:08:28.999Z</time></trkpt><trkpt lat="44.44346348333368" lon="7.785765812473365"><ele>391.0</ele><time>2026-04-19T17:08:29.999Z</time></trkpt><trkpt lat="44.44334685107947" lon="7.785396203497836"><ele>390.5</ele><time>2026-04-19T17:08:30.999Z</time></trkpt><trkpt lat="44.44323062522212" lon="7.7850090599832065"><ele>390.0</ele><time>2026-04-19T17:08:31.999Z</time></trkpt><trkpt lat="44.44311309647555" lon="7.784600475190597"><ele>390.0</ele><time>2026-04-19T17:08:32.999Z</time></trkpt><trkpt lat="44.442990625532886" lon="7.784174346525401"><ele>390.0</ele><time>2026-04-19T17:08:33.999Z</time></trkpt><trkpt lat="44.4428647520449" lon="7.783736294418975"><ele>391.5</ele><time>2026-04-19T17:08:34.999Z</time></trkpt><trkpt lat="44.44273722193606" lon="7.783292477116116"><ele>393.0</ele><time>2026-04-19T17:08:35.999Z</time></trkpt><trkpt lat="44.442612003029794" lon="7.7828566291688865"><ele>393.5</ele><time>2026-04-19T17:08:36.999Z</time></trkpt><trkpt lat="44.442494762568636" lon="7.782448499770647"><ele>394.0</ele><time>2026-04-19T17:08:37.999Z</time></trkpt><trkpt lat="44.44238267274501" lon="7.782058300446938"><ele>395.0</ele><time>2026-04-19T17:08:38.999Z</time></trkpt><trkpt lat="44.44227576761252" lon="7.7816861492359815"><ele>396.0</ele><time>2026-04-19T17:08:39.999Z</time></trkpt><trkpt lat="44.44215931388959" lon="7.781338975999142"><ele>396.5</ele><time>2026-04-19T17:08:40.999Z</time></trkpt><trkpt lat="44.44206410858302" lon="7.781000639619823"><ele>397.0</ele><time>2026-04-19T17:08:41.999Z</time></trkpt><trkpt lat="44.44197154678638" lon="7.780676973644103"><ele>397.0</ele><time>2026-04-19T17:08:42.999Z</time></trkpt><trkpt lat="44.44188119835909" lon="7.780367818835279"><ele>397.0</ele><time>2026-04-19T17:08:43.999Z</time></trkpt><trkpt lat="44.4418105839181" lon="7.78006678414439"><ele>397.0</ele><time>2026-04-19T17:08:44.999Z</time></trkpt><trkpt lat="44.441730654480494" lon="7.779786610475049"><ele>397.0</ele><time>2026-04-19T17:08:45.999Z</time></trkpt><trkpt lat="44.44163981906344" lon="7.7795261106442934"><ele>397.0</ele><time>2026-04-19T17:08:46.999Z</time></trkpt><trkpt lat="44.4415620774747" lon="7.779270408180223"><ele>397.0</ele><time>2026-04-19T17:08:47.999Z</time></trkpt><trkpt lat="44.441481727349256" lon="7.779014901163431"><ele>397.0</ele><time>2026-04-19T17:08:48.999Z</time></trkpt><trkpt lat="44.44137298637354" lon="7.778739768343622"><ele>397.0</ele><time>2026-04-19T17:08:49.999Z</time></trkpt><trkpt lat="44.44125528070781" lon="7.778444774527123"><ele>397.0</ele><time>2026-04-19T17:08:50.999Z</time></trkpt><trkpt lat="44.44113886629671" lon="7.778159373335976"><ele>397.0</ele><time>2026-04-19T17:08:51.999Z</time></trkpt><trkpt lat="44.44102729041861" lon="7.777887532926028"><ele>397.33333333333337</ele><time>2026-04-19T17:08:52.999Z</time></trkpt><trkpt lat="44.440918834210144" lon="7.77762421768914"><ele>397.66666666666663</ele><time>2026-04-19T17:08:53.999Z</time></trkpt><trkpt lat="44.44081749092567" lon="7.777365470596775"><ele>398.0</ele><time>2026-04-19T17:08:54.999Z</time></trkpt><trkpt lat="44.440709602374795" lon="7.777117323675547"><ele>398.0</ele><time>2026-04-19T17:08:55.999Z</time></trkpt><trkpt lat="44.440624180126775" lon="7.776856095903582"><ele>398.0</ele><time>2026-04-19T17:08:56.999Z</time></trkpt><trkpt lat="44.440543569754446" lon="7.7766069820462755"><ele>398.0</ele><time>2026-04-19T17:08:57.999Z</time></trkpt><trkpt lat="44.44046783226663" lon="7.776373326408627"><ele>398.0</ele><time>2026-04-19T17:08:58.999Z</time></trkpt><trkpt lat="44.44039741292585" lon="7.776149758905511"><ele>398.0</ele><time>2026-04-19T17:08:59.998Z</time></trkpt><trkpt lat="44.44032054137612" lon="7.775913863695048"><ele>398.0</ele><time>2026-04-19T17:09:00.998Z</time></trkpt><trkpt lat="44.44024950051134" lon="7.775638721420583"><ele>398.5</ele><time>2026-04-19T17:09:01.998Z</time></trkpt><trkpt lat="44.44015573609977" lon="7.7753430721682015"><ele>399.0</ele><time>2026-04-19T17:09:02.998Z</time></trkpt><trkpt lat="44.44005446225798" lon="7.775022695035621"><ele>399.0</ele><time>2026-04-19T17:09:03.998Z</time></trkpt><trkpt lat="44.4399454973809" lon="7.77467794698547"><ele>399.0</ele><time>2026-04-19T17:09:04.998Z</time></trkpt><trkpt lat="44.439819874269155" lon="7.7743213204819845"><ele>399.5</ele><time>2026-04-19T17:09:05.998Z</time></trkpt><trkpt lat="44.43970341491242" lon="7.773939656603178"><ele>400.0</ele><time>2026-04-19T17:09:06.998Z</time></trkpt><trkpt lat="44.439577997195926" lon="7.773539963166462"><ele>400.0</ele><time>2026-04-19T17:09:08Z</time></trkpt><trkpt lat="44.43944805854822" lon="7.7731287655490675"><ele>400.0</ele><time>2026-04-19T17:09:09Z</time></trkpt><trkpt lat="44.439313838171245" lon="7.7727082337081805"><ele>400.0</ele><time>2026-04-19T17:09:10Z</time></trkpt><trkpt lat="44.43917726058671" lon="7.772277867917049"><ele>400.0</ele><time>2026-04-19T17:09:11Z</time></trkpt><trkpt lat="44.439038656992174" lon="7.771840061506799"><ele>400.5</ele><time>2026-04-19T17:09:12Z</time></trkpt><trkpt lat="44.438896884886596" lon="7.771393067209809"><ele>401.0</ele><time>2026-04-19T17:09:13Z</time></trkpt><trkpt lat="44.438752417991424" lon="7.770939844393002"><ele>401.0</ele><time>2026-04-19T17:09:14Z</time></trkpt><trkpt lat="44.4386046503934" lon="7.770475493736149"><ele>401.0</ele><time>2026-04-19T17:09:15Z</time></trkpt><trkpt lat="44.438455928227576" lon="7.770003953043604"><ele>401.5</ele><time>2026-04-19T17:09:16Z</time></trkpt><trkpt lat="44.43830552259162" lon="7.769527733611664"><ele>402.0</ele><time>2026-04-19T17:09:17Z</time></trkpt><trkpt lat="44.43815266129508" lon="7.769044045180444"><ele>402.5</ele><time>2026-04-19T17:09:18Z</time></trkpt><trkpt lat="44.43799555034202" lon="7.768553681502778"><ele>403.0</ele><time>2026-04-19T17:09:19Z</time></trkpt><trkpt lat="44.437836259937725" lon="7.768059624559825"><ele>403.0</ele><time>2026-04-19T17:09:20Z</time></trkpt><trkpt lat="44.43767665726844" lon="7.767559875120643"><ele>403.0</ele><time>2026-04-19T17:09:21Z</time></trkpt><trkpt lat="44.437523708500436" lon="7.767073768660361"><ele>403.0</ele><time>2026-04-19T17:09:22Z</time></trkpt><trkpt lat="44.43736928268097" lon="7.766582146499126"><ele>403.0</ele><time>2026-04-19T17:09:23Z</time></trkpt><trkpt lat="44.43721206741342" lon="7.7660847565846485"><ele>403.5</ele><time>2026-04-19T17:09:24Z</time></trkpt><trkpt lat="44.43705379806106" lon="7.765583040579672"><ele>404.0</ele><time>2026-04-19T17:09:25Z</time></trkpt><trkpt lat="44.436895190620085" lon="7.765076975209691"><ele>404.0</ele><time>2026-04-19T17:09:26Z</time></trkpt><trkpt lat="44.436733748913056" lon="7.764568948609019"><ele>404.0</ele><time>2026-04-19T17:09:27Z</time></trkpt><trkpt lat="44.43657164269602" lon="7.764062480686786"><ele>404.0</ele><time>2026-04-19T17:09:28Z</time></trkpt><trkpt lat="44.436415635242476" lon="7.763572320445227"><ele>404.0</ele><time>2026-04-19T17:09:29Z</time></trkpt><trkpt lat="44.43626558280799" lon="7.7631002186837526"><ele>404.0</ele><time>2026-04-19T17:09:30Z</time></trkpt><trkpt lat="44.43612401654766" lon="7.762650758839823"><ele>404.0</ele><time>2026-04-19T17:09:31Z</time></trkpt><trkpt lat="44.43598501431476" lon="7.762215201430828"><ele>404.5</ele><time>2026-04-19T17:09:32Z</time></trkpt><trkpt lat="44.43584810051577" lon="7.761780031596838"><ele>405.0</ele><time>2026-04-19T17:09:33Z</time></trkpt><trkpt lat="44.435708902760645" lon="7.761342578684447"><ele>405.5</ele><time>2026-04-19T17:09:34Z</time></trkpt><trkpt lat="44.43558141445835" lon="7.760896376064853"><ele>406.0</ele><time>2026-04-19T17:09:35Z</time></trkpt><trkpt lat="44.435442656475374" lon="7.760460239489144"><ele>406.0</ele><time>2026-04-19T17:09:36Z</time></trkpt><trkpt lat="44.43530256567114" lon="7.760019913661922"><ele>406.0</ele><time>2026-04-19T17:09:37Z</time></trkpt><trkpt lat="44.43516114160507" lon="7.759575397198734"><ele>406.0</ele><time>2026-04-19T17:09:38Z</time></trkpt><trkpt lat="44.435019962889854" lon="7.759131651908587"><ele>406.0</ele><time>2026-04-19T17:09:39Z</time></trkpt><trkpt lat="44.4348675870162" lon="7.7586908374228685"><ele>406.5</ele><time>2026-04-19T17:09:40Z</time></trkpt><trkpt lat="44.43472604025469" lon="7.758235548604591"><ele>407.0</ele><time>2026-04-19T17:09:41Z</time></trkpt><trkpt lat="44.43458141892957" lon="7.757779910306352"><ele>406.5</ele><time>2026-04-19T17:09:42Z</time></trkpt><trkpt lat="44.434433355413624" lon="7.757323532821312"><ele>406.0</ele><time>2026-04-19T17:09:43Z</time></trkpt><trkpt lat="44.43429212463429" lon="7.756877192224156"><ele>406.5</ele><time>2026-04-19T17:09:44Z</time></trkpt><trkpt lat="44.43415637340689" lon="7.756438241802875"><ele>407.0</ele><time>2026-04-19T17:09:45Z</time></trkpt><trkpt lat="44.43402033777456" lon="7.756006462279201"><ele>407.0</ele><time>2026-04-19T17:09:46Z</time></trkpt><trkpt lat="44.43388171486723" lon="7.755572756061297"><ele>407.0</ele><time>2026-04-19T17:09:47Z</time></trkpt><trkpt lat="44.433740694228874" lon="7.755139964321175"><ele>407.0</ele><time>2026-04-19T17:09:48Z</time></trkpt><trkpt lat="44.43361707214306" lon="7.75470123014778"><ele>407.0</ele><time>2026-04-19T17:09:49Z</time></trkpt><trkpt lat="44.433487720545195" lon="7.754294817186322"><ele>408.5</ele><time>2026-04-19T17:09:50Z</time></trkpt><trkpt lat="44.43335017374624" lon="7.7538918339223"><ele>410.0</ele><time>2026-04-19T17:09:51Z</time></trkpt><trkpt lat="44.43322887146414" lon="7.753472288099898"><ele>410.0</ele><time>2026-04-19T17:09:52Z</time></trkpt><trkpt lat="44.433108612810415" lon="7.7530519936913"><ele>410.0</ele><time>2026-04-19T17:09:52.999Z</time></trkpt><trkpt lat="44.4329527588586" lon="7.7526014245068575"><ele>409.5</ele><time>2026-04-19T17:09:53.999Z</time></trkpt><trkpt lat="44.43282494692155" lon="7.752195916378423"><ele>409.0</ele><time>2026-04-19T17:09:54.999Z</time></trkpt><trkpt lat="44.432701360636266" lon="7.751807541233915"><ele>409.0</ele><time>2026-04-19T17:09:55.999Z</time></trkpt><trkpt lat="44.432578540721174" lon="7.751427070925595"><ele>409.0</ele><time>2026-04-19T17:09:56.999Z</time></trkpt><trkpt lat="44.4324548237972" lon="7.751035379969165"><ele>409.5</ele><time>2026-04-19T17:09:57.999Z</time></trkpt><trkpt lat="44.4323241520997" lon="7.750650663616519"><ele>410.0</ele><time>2026-04-19T17:09:58.999Z</time></trkpt><trkpt lat="44.432211195374386" lon="7.750285530093891"><ele>410.5</ele><time>2026-04-19T17:09:59.999Z</time></trkpt><trkpt lat="44.43209831426932" lon="7.749939169089624"><ele>411.0</ele><time>2026-04-19T17:10:00.999Z</time></trkpt><trkpt lat="44.43199755813087" lon="7.749609380965859"><ele>410.5</ele><time>2026-04-19T17:10:01.999Z</time></trkpt><trkpt lat="44.43189576508046" lon="7.749289267753304"><ele>410.0</ele><time>2026-04-19T17:10:02.999Z</time></trkpt><trkpt lat="44.431797565683034" lon="7.748990031647564"><ele>410.0</ele><time>2026-04-19T17:10:03.999Z</time></trkpt><trkpt lat="44.43170605333852" lon="7.748698095296456"><ele>410.0</ele><time>2026-04-19T17:10:04.999Z</time></trkpt><trkpt lat="44.4316199725545" lon="7.748423054479414"><ele>410.0</ele><time>2026-04-19T17:10:05.999Z</time></trkpt><trkpt lat="44.4315359050558" lon="7.748159196854816"><ele>410.66666666666663</ele><time>2026-04-19T17:10:06.999Z</time></trkpt><trkpt lat="44.43145759663163" lon="7.747909675754087"><ele>411.33333333333337</ele><time>2026-04-19T17:10:07.999Z</time></trkpt><trkpt lat="44.43138075278999" lon="7.747676765202745"><ele>412.0</ele><time>2026-04-19T17:10:08.999Z</time></trkpt><trkpt lat="44.431309189401844" lon="7.747451857709144"><ele>411.6666666666667</ele><time>2026-04-19T17:10:09.999Z</time></trkpt><trkpt lat="44.431241305998356" lon="7.74723659123101"><ele>411.33333333333337</ele><time>2026-04-19T17:10:10.999Z</time></trkpt><trkpt lat="44.4311732502224" lon="7.747039932131351"><ele>411.0</ele><time>2026-04-19T17:10:11.999Z</time></trkpt><trkpt lat="44.43111427077034" lon="7.746841476502499"><ele>411.0</ele><time>2026-04-19T17:10:12.999Z</time></trkpt><trkpt lat="44.43105858441532" lon="7.746659416124458"><ele>411.0</ele><time>2026-04-19T17:10:13.999Z</time></trkpt><trkpt lat="44.430994689994506" lon="7.746482630228341"><ele>411.0</ele><time>2026-04-19T17:10:14.999Z</time></trkpt><trkpt lat="44.430930243680166" lon="7.746301306467454"><ele>411.0</ele><time>2026-04-19T17:10:15.999Z</time></trkpt><trkpt lat="44.43086561101598" lon="7.746118643629401"><ele>412.0</ele><time>2026-04-19T17:10:16.999Z</time></trkpt><trkpt lat="44.430811878011575" lon="7.745940637691178"><ele>413.0</ele><time>2026-04-19T17:10:17.999Z</time></trkpt><trkpt lat="44.430764121387334" lon="7.745772469368833"><ele>414.0</ele><time>2026-04-19T17:10:18.999Z</time></trkpt><trkpt lat="44.430722171657315" lon="7.7456217405518215"><ele>415.0</ele><time>2026-04-19T17:10:19.999Z</time></trkpt><trkpt lat="44.430684661862344" lon="7.7454732369563155"><ele>415.0</ele><time>2026-04-19T17:10:20.999Z</time></trkpt><trkpt lat="44.430628420427915" lon="7.74528606717352"><ele>415.0</ele><time>2026-04-19T17:10:21.999Z</time></trkpt><trkpt lat="44.43057643536978" lon="7.745071579791124"><ele>415.0</ele><time>2026-04-19T17:10:22.999Z</time></trkpt><trkpt lat="44.430517297742554" lon="7.7448233610281845"><ele>415.0</ele><time>2026-04-19T17:10:23.999Z</time></trkpt><trkpt lat="44.43045794937093" lon="7.744553875333029"><ele>415.0</ele><time>2026-04-19T17:10:24.999Z</time></trkpt><trkpt lat="44.43038569237796" lon="7.744263928672596"><ele>415.0</ele><time>2026-04-19T17:10:25.999Z</time></trkpt><trkpt lat="44.43030448056559" lon="7.743939435436275"><ele>415.0</ele><time>2026-04-19T17:10:26.999Z</time></trkpt><trkpt lat="44.43021762506216" lon="7.743581210827882"><ele>415.0</ele><time>2026-04-19T17:10:27.999Z</time></trkpt><trkpt lat="44.43015503439324" lon="7.743222414023904"><ele>415.0</ele><time>2026-04-19T17:10:28.999Z</time></trkpt><trkpt lat="44.43008431114126" lon="7.742872561334409"><ele>415.0</ele><time>2026-04-19T17:10:29.999Z</time></trkpt><trkpt lat="44.430023558267536" lon="7.742550890868529"><ele>415.6666666666667</ele><time>2026-04-19T17:10:30.999Z</time></trkpt><trkpt lat="44.42996555484223" lon="7.742243057484728"><ele>416.33333333333337</ele><time>2026-04-19T17:10:31.999Z</time></trkpt><trkpt lat="44.42991079910747" lon="7.741945338784517"><ele>417.0</ele><time>2026-04-19T17:10:32.999Z</time></trkpt><trkpt lat="44.42985828059307" lon="7.741656813471822"><ele>417.0</ele><time>2026-04-19T17:10:33.999Z</time></trkpt><trkpt lat="44.4298064414521" lon="7.7413806148656565"><ele>417.0</ele><time>2026-04-19T17:10:34.999Z</time></trkpt><trkpt lat="44.42975535284038" lon="7.741115758003251"><ele>417.0</ele><time>2026-04-19T17:10:35.999Z</time></trkpt><trkpt lat="44.42970870558261" lon="7.740865392155439"><ele>416.66666666666663</ele><time>2026-04-19T17:10:36.999Z</time></trkpt><trkpt lat="44.42966379759524" lon="7.740622147288562"><ele>416.3333333333333</ele><time>2026-04-19T17:10:37.999Z</time></trkpt><trkpt lat="44.429620360763245" lon="7.740388413774267"><ele>416.0</ele><time>2026-04-19T17:10:38.999Z</time></trkpt><trkpt lat="44.42957377594572" lon="7.740140893468919"><ele>415.66666666666663</ele><time>2026-04-19T17:10:39.999Z</time></trkpt><trkpt lat="44.42952498919622" lon="7.739878529113426"><ele>415.33333333333337</ele><time>2026-04-19T17:10:40.999Z</time></trkpt><trkpt lat="44.42947379541149" lon="7.739600562858323"><ele>415.0</ele><time>2026-04-19T17:10:41.999Z</time></trkpt><trkpt lat="44.42942148242426" lon="7.739316519678714"><ele>415.0</ele><time>2026-04-19T17:10:42.999Z</time></trkpt><trkpt lat="44.429366628892204" lon="7.7390254921998345"><ele>415.0</ele><time>2026-04-19T17:10:43.999Z</time></trkpt><trkpt lat="44.42930731537262" lon="7.738733108957875"><ele>415.0</ele><time>2026-04-19T17:10:44.999Z</time></trkpt><trkpt lat="44.42922930552207" lon="7.738443302133128"><ele>415.6666666666667</ele><time>2026-04-19T17:10:45.999Z</time></trkpt><trkpt lat="44.42916702612424" lon="7.7381531987154695"><ele>416.33333333333337</ele><time>2026-04-19T17:10:46.999Z</time></trkpt><trkpt lat="44.429104856882866" lon="7.737862066268508"><ele>417.0</ele><time>2026-04-19T17:10:47.999Z</time></trkpt><trkpt lat="44.42903893071732" lon="7.737573501292489"><ele>417.33333333333337</ele><time>2026-04-19T17:10:48.999Z</time></trkpt><trkpt lat="44.4289717640322" lon="7.737285350901653"><ele>417.6666666666667</ele><time>2026-04-19T17:10:49.999Z</time></trkpt><trkpt lat="44.42890289936155" lon="7.7369891254853975"><ele>418.0</ele><time>2026-04-19T17:10:50.999Z</time></trkpt><trkpt lat="44.42884352994623" lon="7.736664796726602"><ele>417.5</ele><time>2026-04-19T17:10:51.999Z</time></trkpt><trkpt lat="44.42876356302771" lon="7.736322752200356"><ele>417.0</ele><time>2026-04-19T17:10:52.999Z</time></trkpt><trkpt lat="44.42868016724163" lon="7.735953449135563"><ele>417.0</ele><time>2026-04-19T17:10:53.999Z</time></trkpt><trkpt lat="44.428589543112246" lon="7.735568474610995"><ele>417.0</ele><time>2026-04-19T17:10:54.999Z</time></trkpt><trkpt lat="44.42848429092694" lon="7.7351717832971865"><ele>417.5</ele><time>2026-04-19T17:10:55.999Z</time></trkpt><trkpt lat="44.42838774970262" lon="7.734752906394871"><ele>418.0</ele><time>2026-04-19T17:10:56.999Z</time></trkpt><trkpt lat="44.42827935139772" lon="7.734325591497067"><ele>418.0</ele><time>2026-04-19T17:10:57.999Z</time></trkpt><trkpt lat="44.42816488712997" lon="7.733892642488329"><ele>418.0</ele><time>2026-04-19T17:10:58.999Z</time></trkpt><trkpt lat="44.42804606694256" lon="7.733451217550427"><ele>418.0</ele><time>2026-04-19T17:10:59.999Z</time></trkpt><trkpt lat="44.427924453216" lon="7.7330044566060145"><ele>418.0</ele><time>2026-04-19T17:11:00.999Z</time></trkpt><trkpt lat="44.42779475630609" lon="7.732559864340952"><ele>418.0</ele><time>2026-04-19T17:11:01.999Z</time></trkpt><trkpt lat="44.427665006852315" lon="7.732124489232641"><ele>418.0</ele><time>2026-04-19T17:11:02.999Z</time></trkpt><trkpt lat="44.42754003245364" lon="7.731718284724811"><ele>419.0</ele><time>2026-04-19T17:11:03.999Z</time></trkpt><trkpt lat="44.42742271656865" lon="7.731325472581153"><ele>420.0</ele><time>2026-04-19T17:11:04.999Z</time></trkpt><trkpt lat="44.427308611031606" lon="7.730951104788794"><ele>420.0</ele><time>2026-04-19T17:11:05.999Z</time></trkpt><trkpt lat="44.427200481161606" lon="7.730585476527542"><ele>420.0</ele><time>2026-04-19T17:11:06.999Z</time></trkpt><trkpt lat="44.42709685993565" lon="7.730227375935926"><ele>419.5</ele><time>2026-04-19T17:11:07.999Z</time></trkpt><trkpt lat="44.426994803743604" lon="7.729875574547724"><ele>419.0</ele><time>2026-04-19T17:11:08.999Z</time></trkpt><trkpt lat="44.42689708391019" lon="7.729529987406055"><ele>419.0</ele><time>2026-04-19T17:11:09.999Z</time></trkpt><trkpt lat="44.4268015106029" lon="7.729182625602679"><ele>419.0</ele><time>2026-04-19T17:11:10.999Z</time></trkpt><trkpt lat="44.42670859962879" lon="7.728832893964924"><ele>419.0</ele><time>2026-04-19T17:11:11.999Z</time></trkpt><trkpt lat="44.42661465012788" lon="7.728485370981056"><ele>419.0</ele><time>2026-04-19T17:11:12.999Z</time></trkpt><trkpt lat="44.42651616973536" lon="7.728139481015854"><ele>419.0</ele><time>2026-04-19T17:11:14Z</time></trkpt><trkpt lat="44.426422181596486" lon="7.72780841454392"><ele>419.0</ele><time>2026-04-19T17:11:15Z</time></trkpt><trkpt lat="44.42633421317563" lon="7.727481292788611"><ele>418.5</ele><time>2026-04-19T17:11:16Z</time></trkpt><trkpt lat="44.42624664493816" lon="7.7271491078944905"><ele>418.0</ele><time>2026-04-19T17:11:17Z</time></trkpt><trkpt lat="44.42615643003317" lon="7.726810214589079"><ele>419.0</ele><time>2026-04-19T17:11:18Z</time></trkpt><trkpt lat="44.42606742116069" lon="7.72647395161357"><ele>420.0</ele><time>2026-04-19T17:11:19Z</time></trkpt><trkpt lat="44.42598247742979" lon="7.726151604542367"><ele>420.5</ele><time>2026-04-19T17:11:20Z</time></trkpt><trkpt lat="44.42590017948468" lon="7.725844767978269"><ele>421.0</ele><time>2026-04-19T17:11:21Z</time></trkpt><trkpt lat="44.42582090263817" lon="7.725547429237999"><ele>421.0</ele><time>2026-04-19T17:11:22Z</time></trkpt><trkpt lat="44.425740967528064" lon="7.725247276344419"><ele>421.0</ele><time>2026-04-19T17:11:23Z</time></trkpt><trkpt lat="44.425658657753615" lon="7.724940784798831"><ele>422.0</ele><time>2026-04-19T17:11:24Z</time></trkpt><trkpt lat="44.425575152566566" lon="7.7246270839308835"><ele>423.0</ele><time>2026-04-19T17:11:25Z</time></trkpt><trkpt lat="44.42549046127552" lon="7.724309815747334"><ele>423.0</ele><time>2026-04-19T17:11:26Z</time></trkpt><trkpt lat="44.4254048386002" lon="7.723986128936804"><ele>423.0</ele><time>2026-04-19T17:11:27Z</time></trkpt><trkpt lat="44.42531786151903" lon="7.723661567445613"><ele>424.0</ele><time>2026-04-19T17:11:28Z</time></trkpt><trkpt lat="44.42523130041827" lon="7.723339676366637"><ele>425.0</ele><time>2026-04-19T17:11:29Z</time></trkpt><trkpt lat="44.42514907221641" lon="7.723033545152263"><ele>425.0</ele><time>2026-04-19T17:11:30Z</time></trkpt><trkpt lat="44.42507308521924" lon="7.722746305170212"><ele>425.0</ele><time>2026-04-19T17:11:31Z</time></trkpt><trkpt lat="44.42500044549994" lon="7.7224708956344426"><ele>425.0</ele><time>2026-04-19T17:11:32Z</time></trkpt><trkpt lat="44.42492902175093" lon="7.722206375841366"><ele>424.66666666666663</ele><time>2026-04-19T17:11:33Z</time></trkpt><trkpt lat="44.42486086867369" lon="7.721954712824022"><ele>424.33333333333337</ele><time>2026-04-19T17:11:34Z</time></trkpt><trkpt lat="44.42479686428213" lon="7.721707967813562"><ele>424.0</ele><time>2026-04-19T17:11:35Z</time></trkpt><trkpt lat="44.42473110737351" lon="7.721455924739365"><ele>424.0</ele><time>2026-04-19T17:11:36Z</time></trkpt><trkpt lat="44.42465902465052" lon="7.721188618938728"><ele>424.0</ele><time>2026-04-19T17:11:37Z</time></trkpt><trkpt lat="44.424585429461445" lon="7.720913470354652"><ele>424.0</ele><time>2026-04-19T17:11:38Z</time></trkpt><trkpt lat="44.42451324712148" lon="7.720632636989851"><ele>423.6666666666667</ele><time>2026-04-19T17:11:39Z</time></trkpt><trkpt lat="44.424444332069605" lon="7.720370914450045"><ele>423.33333333333337</ele><time>2026-04-19T17:11:40Z</time></trkpt><trkpt lat="44.424377702439905" lon="7.720124205815197"><ele>423.0</ele><time>2026-04-19T17:11:41Z</time></trkpt><trkpt lat="44.42431542146124" lon="7.719887028976433"><ele>423.66666666666663</ele><time>2026-04-19T17:11:42Z</time></trkpt><trkpt lat="44.42425596538269" lon="7.719651641300735"><ele>424.3333333333333</ele><time>2026-04-19T17:11:43Z</time></trkpt><trkpt lat="44.42419359415409" lon="7.719409055330177"><ele>425.0</ele><time>2026-04-19T17:11:44Z</time></trkpt><trkpt lat="44.424130779719015" lon="7.719165320492314"><ele>425.0</ele><time>2026-04-19T17:11:45Z</time></trkpt><trkpt lat="44.42406548263897" lon="7.718928073405936"><ele>425.0</ele><time>2026-04-19T17:11:46Z</time></trkpt><trkpt lat="44.424003208225884" lon="7.718707708714642"><ele>425.0</ele><time>2026-04-19T17:11:47Z</time></trkpt><trkpt lat="44.423944083004464" lon="7.71850249596444"><ele>425.25</ele><time>2026-04-19T17:11:48Z</time></trkpt><trkpt lat="44.42389099267326" lon="7.718315172224707"><ele>425.5</ele><time>2026-04-19T17:11:49Z</time></trkpt><trkpt lat="44.42384668101722" lon="7.718147275743916"><ele>425.75</ele><time>2026-04-19T17:11:50Z</time></trkpt><trkpt lat="44.42381047714985" lon="7.7179904590268205"><ele>426.0</ele><time>2026-04-19T17:11:51Z</time></trkpt><trkpt lat="44.42379193599073" lon="7.717836153737493"><ele>426.20000000000005</ele><time>2026-04-19T17:11:52Z</time></trkpt><trkpt lat="44.423791982788515" lon="7.717688504452423"><ele>426.40000000000003</ele><time>2026-04-19T17:11:53Z</time></trkpt><trkpt lat="44.42378868773586" lon="7.717549995724564"><ele>426.6</ele><time>2026-04-19T17:11:54Z</time></trkpt><trkpt lat="44.42375314849531" lon="7.717425290577598"><ele>426.8</ele><time>2026-04-19T17:11:55Z</time></trkpt><trkpt lat="44.423685347091265" lon="7.717304063906705"><ele>427.0</ele><time>2026-04-19T17:11:56Z</time></trkpt><trkpt lat="44.42359472736466" lon="7.717162837648577"><ele>427.0</ele><time>2026-04-19T17:11:57Z</time></trkpt><trkpt lat="44.42354574790911" lon="7.716966646743222"><ele>427.0</ele><time>2026-04-19T17:11:58Z</time></trkpt><trkpt lat="44.423477865195686" lon="7.7167420222095675"><ele>427.0</ele><time>2026-04-19T17:11:59Z</time></trkpt><trkpt lat="44.4234305999922" lon="7.716496391919994"><ele>428.0</ele><time>2026-04-19T17:12:00Z</time></trkpt><trkpt lat="44.42338118274164" lon="7.716279456589225"><ele>429.0</ele><time>2026-04-19T17:12:01Z</time></trkpt><trkpt lat="44.42334183872727" lon="7.716077351882781"><ele>430.0</ele><time>2026-04-19T17:12:02Z</time></trkpt><trkpt lat="44.42331380701863" lon="7.715855740570475"><ele>430.0</ele><time>2026-04-19T17:12:03Z</time></trkpt><trkpt lat="44.42329840629578" lon="7.715604960412151"><ele>430.0</ele><time>2026-04-19T17:12:04Z</time></trkpt><trkpt lat="44.4232959757862" lon="7.715339710419873"><ele>430.0</ele><time>2026-04-19T17:12:05Z</time></trkpt><trkpt lat="44.42330582816531" lon="7.715065737961814"><ele>430.0</ele><time>2026-04-19T17:12:06Z</time></trkpt><trkpt lat="44.423328534775564" lon="7.714784964890408"><ele>430.0</ele><time>2026-04-19T17:12:07Z</time></trkpt><trkpt lat="44.42336526613547" lon="7.7144973520516915"><ele>430.0</ele><time>2026-04-19T17:12:08Z</time></trkpt><trkpt lat="44.4234157787977" lon="7.714211309569202"><ele>430.0</ele><time>2026-04-19T17:12:08.999Z</time></trkpt><trkpt lat="44.42347069925125" lon="7.713948968171637"><ele>430.0</ele><time>2026-04-19T17:12:09.999Z</time></trkpt><trkpt lat="44.42352361798215" lon="7.71370153245821"><ele>430.0</ele><time>2026-04-19T17:12:10.999Z</time></trkpt><trkpt lat="44.42357131051839" lon="7.713464562089178"><ele>429.33333333333337</ele><time>2026-04-19T17:12:11.999Z</time></trkpt><trkpt lat="44.42361357516009" lon="7.713237506649626"><ele>428.66666666666663</ele><time>2026-04-19T17:12:12.999Z</time></trkpt><trkpt lat="44.42364153280902" lon="7.713011643404873"><ele>428.0</ele><time>2026-04-19T17:12:13.999Z</time></trkpt><trkpt lat="44.42364131872554" lon="7.712774111677422"><ele>427.0</ele><time>2026-04-19T17:12:14.999Z</time></trkpt><trkpt lat="44.423613370778796" lon="7.712517840137459"><ele>426.0</ele><time>2026-04-19T17:12:15.999Z</time></trkpt><trkpt lat="44.42355171895871" lon="7.712244289297457"><ele>425.0</ele><time>2026-04-19T17:12:16.999Z</time></trkpt><trkpt lat="44.42348260577166" lon="7.711970326309441"><ele>425.3333333333333</ele><time>2026-04-19T17:12:17.999Z</time></trkpt><trkpt lat="44.423414555703424" lon="7.711710188154572"><ele>425.66666666666663</ele><time>2026-04-19T17:12:18.999Z</time></trkpt><trkpt lat="44.423357428620065" lon="7.71146817961057"><ele>426.0</ele><time>2026-04-19T17:12:19.999Z</time></trkpt><trkpt lat="44.42330628668874" lon="7.711234979054499"><ele>427.33333333333337</ele><time>2026-04-19T17:12:20.999Z</time></trkpt><trkpt lat="44.4232577227888" lon="7.711011474627336"><ele>428.6666666666667</ele><time>2026-04-19T17:12:21.999Z</time></trkpt><trkpt lat="44.42322706125076" lon="7.7107970819311635"><ele>430.0</ele><time>2026-04-19T17:12:22.999Z</time></trkpt><trkpt lat="44.423213875647455" lon="7.710584217255876"><ele>430.0</ele><time>2026-04-19T17:12:23.999Z</time></trkpt><trkpt lat="44.42321984584728" lon="7.7103685130098345"><ele>430.0</ele><time>2026-04-19T17:12:24.999Z</time></trkpt><trkpt lat="44.42322468113236" lon="7.71015631519771"><ele>430.0</ele><time>2026-04-19T17:12:25.999Z</time></trkpt><trkpt lat="44.42322834249732" lon="7.709947950286601"><ele>430.0</ele><time>2026-04-19T17:12:26.999Z</time></trkpt><trkpt lat="44.42315983063999" lon="7.709727834997488"><ele>430.0</ele><time>2026-04-19T17:12:27.999Z</time></trkpt><trkpt lat="44.423091531089234" lon="7.7094857152045595"><ele>430.0</ele><time>2026-04-19T17:12:28.999Z</time></trkpt><trkpt lat="44.42300877251561" lon="7.709223093279713"><ele>430.6666666666667</ele><time>2026-04-19T17:12:29.999Z</time></trkpt><trkpt lat="44.422924061744204" lon="7.708951077074121"><ele>431.33333333333337</ele><time>2026-04-19T17:12:30.999Z</time></trkpt><trkpt lat="44.422839057011" lon="7.7086813897530595"><ele>432.0</ele><time>2026-04-19T17:12:31.999Z</time></trkpt><trkpt lat="44.42276706685242" lon="7.70843609294239"><ele>432.33333333333337</ele><time>2026-04-19T17:12:32.999Z</time></trkpt><trkpt lat="44.42269661035385" lon="7.708199275017322"><ele>432.6666666666667</ele><time>2026-04-19T17:12:33.999Z</time></trkpt><trkpt lat="44.42262841000124" lon="7.707976847860221"><ele>433.0</ele><time>2026-04-19T17:12:34.999Z</time></trkpt><trkpt lat="44.42256126586224" lon="7.707766149175713"><ele>432.33333333333337</ele><time>2026-04-19T17:12:35.999Z</time></trkpt><trkpt lat="44.42249004038184" lon="7.707570711441855"><ele>431.66666666666663</ele><time>2026-04-19T17:12:36.999Z</time></trkpt><trkpt lat="44.42239612220413" lon="7.707383031015574"><ele>431.0</ele><time>2026-04-19T17:12:37.999Z</time></trkpt><trkpt lat="44.42227426703129" lon="7.707197289873035"><ele>431.0</ele><time>2026-04-19T17:12:38.999Z</time></trkpt><trkpt lat="44.422142278018654" lon="7.707003520639577"><ele>431.0</ele><time>2026-04-19T17:12:39.999Z</time></trkpt><trkpt lat="44.421998906836116" lon="7.706798863215767"><ele>431.0</ele><time>2026-04-19T17:12:40.999Z</time></trkpt><trkpt lat="44.42184727582622" lon="7.7065876073198565"><ele>431.3333333333333</ele><time>2026-04-19T17:12:41.999Z</time></trkpt><trkpt lat="44.42169691801512" lon="7.706370069885159"><ele>431.66666666666663</ele><time>2026-04-19T17:12:42.999Z</time></trkpt><trkpt lat="44.421539998146116" lon="7.706152128997127"><ele>432.0</ele><time>2026-04-19T17:12:43.999Z</time></trkpt><trkpt lat="44.42136633391132" lon="7.705914260353161"><ele>432.33333333333337</ele><time>2026-04-19T17:12:44.999Z</time></trkpt><trkpt lat="44.421210219508055" lon="7.70567498916563"><ele>432.6666666666667</ele><time>2026-04-19T17:12:45.999Z</time></trkpt><trkpt lat="44.42105848589849" lon="7.705459030960297"><ele>433.0</ele><time>2026-04-19T17:12:46.999Z</time></trkpt><trkpt lat="44.42090630246337" lon="7.705248119702119"><ele>433.33333333333337</ele><time>2026-04-19T17:12:47.999Z</time></trkpt><trkpt lat="44.42075030407927" lon="7.705043898191612"><ele>433.66666666666663</ele><time>2026-04-19T17:12:48.999Z</time></trkpt><trkpt lat="44.420566969060935" lon="7.704874178074455"><ele>434.0</ele><time>2026-04-19T17:12:49.999Z</time></trkpt><trkpt lat="44.42036887027285" lon="7.704708572679391"><ele>434.0</ele><time>2026-04-19T17:12:50.999Z</time></trkpt><trkpt lat="44.42014799234504" lon="7.704562191174095"><ele>434.0</ele><time>2026-04-19T17:12:51.999Z</time></trkpt><trkpt lat="44.419909547260154" lon="7.70442255105425"><ele>434.0</ele><time>2026-04-19T17:12:52.999Z</time></trkpt><trkpt lat="44.41964961017243" lon="7.704274035577719"><ele>434.0</ele><time>2026-04-19T17:12:53.999Z</time></trkpt><trkpt lat="44.41938181958098" lon="7.704106487639854"><ele>434.0</ele><time>2026-04-19T17:12:54.999Z</time></trkpt><trkpt lat="44.41910828566436" lon="7.703924515357716"><ele>434.0</ele><time>2026-04-19T17:12:55.999Z</time></trkpt><trkpt lat="44.418822627002214" lon="7.703751810760537"><ele>434.0</ele><time>2026-04-19T17:12:56.999Z</time></trkpt><trkpt lat="44.41854804637901" lon="7.703582528653953"><ele>434.0</ele><time>2026-04-19T17:12:57.999Z</time></trkpt><trkpt lat="44.418292366409474" lon="7.7034204232313925"><ele>434.0</ele><time>2026-04-19T17:12:58.999Z</time></trkpt><trkpt lat="44.41804034410905" lon="7.7032696392136115"><ele>434.0</ele><time>2026-04-19T17:12:59.999Z</time></trkpt><trkpt lat="44.41780079624963" lon="7.703123101438101"><ele>434.5</ele><time>2026-04-19T17:13:00.999Z</time></trkpt><trkpt lat="44.417555071250604" lon="7.70297157800054"><ele>435.0</ele><time>2026-04-19T17:13:01.999Z</time></trkpt><trkpt lat="44.41730849396285" lon="7.702807202597597"><ele>435.0</ele><time>2026-04-19T17:13:02.999Z</time></trkpt><trkpt lat="44.41706243753121" lon="7.702643509141895"><ele>435.0</ele><time>2026-04-19T17:13:03.999Z</time></trkpt><trkpt lat="44.41681642485115" lon="7.702472342174577"><ele>435.0</ele><time>2026-04-19T17:13:04.999Z</time></trkpt><trkpt lat="44.41658189218916" lon="7.702294351285951"><ele>435.0</ele><time>2026-04-19T17:13:05.999Z</time></trkpt><trkpt lat="44.416353660484596" lon="7.702103413994484"><ele>435.0</ele><time>2026-04-19T17:13:06.999Z</time></trkpt><trkpt lat="44.41612166739852" lon="7.701884697023426"><ele>435.0</ele><time>2026-04-19T17:13:07.999Z</time></trkpt><trkpt lat="44.41589208650738" lon="7.701639490115894"><ele>435.0</ele><time>2026-04-19T17:13:08.999Z</time></trkpt><trkpt lat="44.415661043158174" lon="7.701380234852019"><ele>435.0</ele><time>2026-04-19T17:13:09.999Z</time></trkpt><trkpt lat="44.41544593958687" lon="7.701102349264325"><ele>435.0</ele><time>2026-04-19T17:13:10.999Z</time></trkpt><trkpt lat="44.41523474935897" lon="7.700854267283907"><ele>435.0</ele><time>2026-04-19T17:13:11.999Z</time></trkpt><trkpt lat="44.41502981929673" lon="7.700613539001023"><ele>435.0</ele><time>2026-04-19T17:13:12.999Z</time></trkpt><trkpt lat="44.41482088655711" lon="7.700368108173682"><ele>435.0</ele><time>2026-04-19T17:13:13.999Z</time></trkpt><trkpt lat="44.41458470811421" lon="7.7001459353773765"><ele>436.0</ele><time>2026-04-19T17:13:14.999Z</time></trkpt><trkpt lat="44.41436894111491" lon="7.6998744420537255"><ele>437.0</ele><time>2026-04-19T17:13:15.999Z</time></trkpt><trkpt lat="44.41415509973204" lon="7.699594443558846"><ele>437.0</ele><time>2026-04-19T17:13:16.999Z</time></trkpt><trkpt lat="44.4139473509079" lon="7.699301332987881"><ele>437.0</ele><time>2026-04-19T17:13:17.999Z</time></trkpt><trkpt lat="44.41374784300382" lon="7.698980406461508"><ele>437.0</ele><time>2026-04-19T17:13:19Z</time></trkpt><trkpt lat="44.41355161186915" lon="7.698641755133935"><ele>437.0</ele><time>2026-04-19T17:13:20Z</time></trkpt><trkpt lat="44.41335251723759" lon="7.698292786983859"><ele>436.5</ele><time>2026-04-19T17:13:21Z</time></trkpt><trkpt lat="44.413153346827485" lon="7.697954524159357"><ele>436.0</ele><time>2026-04-19T17:13:22Z</time></trkpt><trkpt lat="44.41295967649376" lon="7.697627675078396"><ele>437.0</ele><time>2026-04-19T17:13:23Z</time></trkpt><trkpt lat="44.41277548895321" lon="7.697316866281623"><ele>438.0</ele><time>2026-04-19T17:13:24Z</time></trkpt><trkpt lat="44.41259470135339" lon="7.697017522243225"><ele>439.0</ele><time>2026-04-19T17:13:25Z</time></trkpt><trkpt lat="44.41239637789959" lon="7.696741531141043"><ele>440.0</ele><time>2026-04-19T17:13:26Z</time></trkpt><trkpt lat="44.41216691936762" lon="7.696491561838503"><ele>440.0</ele><time>2026-04-19T17:13:27Z</time></trkpt><trkpt lat="44.41190916683459" lon="7.6962694126335"><ele>440.0</ele><time>2026-04-19T17:13:28Z</time></trkpt><trkpt lat="44.41164426282572" lon="7.696061934965889"><ele>440.0</ele><time>2026-04-19T17:13:29Z</time></trkpt><trkpt lat="44.41140756677597" lon="7.695836230323125"><ele>440.0</ele><time>2026-04-19T17:13:30Z</time></trkpt><trkpt lat="44.41117343474704" lon="7.695631408729725"><ele>440.0</ele><time>2026-04-19T17:13:31Z</time></trkpt><trkpt lat="44.4109351152061" lon="7.695426458991062"><ele>440.0</ele><time>2026-04-19T17:13:32Z</time></trkpt><trkpt lat="44.410734441692895" lon="7.695144115019398"><ele>440.0</ele><time>2026-04-19T17:13:33Z</time></trkpt><trkpt lat="44.41053606762951" lon="7.6948553179404"><ele>440.0</ele><time>2026-04-19T17:13:34Z</time></trkpt><trkpt lat="44.410347485650114" lon="7.694541497257559"><ele>440.0</ele><time>2026-04-19T17:13:35Z</time></trkpt><trkpt lat="44.4101516587621" lon="7.694220197493607"><ele>440.0</ele><time>2026-04-19T17:13:36Z</time></trkpt><trkpt lat="44.40997902132627" lon="7.693876858671305"><ele>440.5</ele><time>2026-04-19T17:13:37Z</time></trkpt><trkpt lat="44.409817903946696" lon="7.693516955848143"><ele>441.0</ele><time>2026-04-19T17:13:38Z</time></trkpt><trkpt lat="44.40966845836406" lon="7.693144796789294"><ele>441.0</ele><time>2026-04-19T17:13:39Z</time></trkpt><trkpt lat="44.40952477843066" lon="7.692775047359426"><ele>441.0</ele><time>2026-04-19T17:13:40Z</time></trkpt><trkpt lat="44.40936783177211" lon="7.69241536011079"><ele>441.0</ele><time>2026-04-19T17:13:41Z</time></trkpt><trkpt lat="44.409190066935714" lon="7.692065954970801"><ele>441.0</ele><time>2026-04-19T17:13:42Z</time></trkpt><trkpt lat="44.40900877225957" lon="7.691740442698859"><ele>442.0</ele><time>2026-04-19T17:13:43Z</time></trkpt><trkpt lat="44.408833189869405" lon="7.691434874877216"><ele>443.0</ele><time>2026-04-19T17:13:44Z</time></trkpt><trkpt lat="44.4086649367748" lon="7.691143612056815"><ele>443.0</ele><time>2026-04-19T17:13:45Z</time></trkpt><trkpt lat="44.40850067088213" lon="7.690861314099981"><ele>443.0</ele><time>2026-04-19T17:13:46Z</time></trkpt><trkpt lat="44.40834536725455" lon="7.690590110835027"><ele>443.0</ele><time>2026-04-19T17:13:47Z</time></trkpt><trkpt lat="44.40819573935965" lon="7.690326907553312"><ele>443.0</ele><time>2026-04-19T17:13:48Z</time></trkpt><trkpt lat="44.40804644299517" lon="7.690063464069777"><ele>443.5</ele><time>2026-04-19T17:13:49Z</time></trkpt><trkpt lat="44.40789394539689" lon="7.689796587374494"><ele>444.0</ele><time>2026-04-19T17:13:50Z</time></trkpt><trkpt lat="44.40774470391336" lon="7.689537808408248"><ele>444.66666666666663</ele><time>2026-04-19T17:13:51Z</time></trkpt><trkpt lat="44.407601513071675" lon="7.689288924303356"><ele>445.3333333333333</ele><time>2026-04-19T17:13:52Z</time></trkpt><trkpt lat="44.40746005216188" lon="7.689052009686467"><ele>446.0</ele><time>2026-04-19T17:13:53Z</time></trkpt><trkpt lat="44.407324695445965" lon="7.688824697502948"><ele>446.0</ele><time>2026-04-19T17:13:54Z</time></trkpt><trkpt lat="44.4071938802114" lon="7.688603288231837"><ele>446.0</ele><time>2026-04-19T17:13:55Z</time></trkpt><trkpt lat="44.40706247854826" lon="7.68837218843896"><ele>446.0</ele><time>2026-04-19T17:13:56Z</time></trkpt><trkpt lat="44.40692756779482" lon="7.688147079266165"><ele>446.0</ele><time>2026-04-19T17:13:57Z</time></trkpt><trkpt lat="44.406793380952685" lon="7.687944132086382"><ele>446.0</ele><time>2026-04-19T17:13:58Z</time></trkpt><trkpt lat="44.40664383379106" lon="7.6877533740399775"><ele>446.0</ele><time>2026-04-19T17:13:59Z</time></trkpt><trkpt lat="44.40648237466884" lon="7.687567993599703"><ele>446.0</ele><time>2026-04-19T17:14:00Z</time></trkpt><trkpt lat="44.40633953225034" lon="7.687363979947644"><ele>446.0</ele><time>2026-04-19T17:14:01Z</time></trkpt><trkpt lat="44.40618460389545" lon="7.687205646962741"><ele>446.0</ele><time>2026-04-19T17:14:02Z</time></trkpt><trkpt lat="44.40605299790821" lon="7.687033941699971"><ele>447.0</ele><time>2026-04-19T17:14:03Z</time></trkpt><trkpt lat="44.4059210238087" lon="7.68686646563318"><ele>448.0</ele><time>2026-04-19T17:14:04Z</time></trkpt><trkpt lat="44.40579103908216" lon="7.686703383759113"><ele>449.0</ele><time>2026-04-19T17:14:05Z</time></trkpt><trkpt lat="44.40568326776967" lon="7.68652510216559"><ele>449.0</ele><time>2026-04-19T17:14:06Z</time></trkpt><trkpt lat="44.405574252092634" lon="7.686368999629863"><ele>449.0</ele><time>2026-04-19T17:14:07Z</time></trkpt><trkpt lat="44.40547341299249" lon="7.686218139404693"><ele>449.0</ele><time>2026-04-19T17:14:08Z</time></trkpt><trkpt lat="44.40537912724087" lon="7.686071182307502"><ele>449.0</ele><time>2026-04-19T17:14:09Z</time></trkpt><trkpt lat="44.40528117908029" lon="7.685941125759738"><ele>448.75</ele><time>2026-04-19T17:14:10Z</time></trkpt><trkpt lat="44.40519743754024" lon="7.685806627254294"><ele>448.5</ele><time>2026-04-19T17:14:11Z</time></trkpt><trkpt lat="44.40510838735709" lon="7.685683624175386"><ele>448.25</ele><time>2026-04-19T17:14:12Z</time></trkpt><trkpt lat="44.40501290698657" lon="7.68557473660593"><ele>448.0</ele><time>2026-04-19T17:14:13Z</time></trkpt><trkpt lat="44.40491152715941" lon="7.685476987020251"><ele>448.0</ele><time>2026-04-19T17:14:14Z</time></trkpt><trkpt lat="44.404808180139774" lon="7.685387258126886"><ele>448.0</ele><time>2026-04-19T17:14:15Z</time></trkpt><trkpt lat="44.404705905757986" lon="7.685298730792274"><ele>448.0</ele><time>2026-04-19T17:14:16Z</time></trkpt><trkpt lat="44.40460268617846" lon="7.685210463107524"><ele>448.0</ele><time>2026-04-19T17:14:17Z</time></trkpt><trkpt lat="44.404499527873696" lon="7.685129847257237"><ele>447.75</ele><time>2026-04-19T17:14:17.999Z</time></trkpt><trkpt lat="44.40439258563319" lon="7.685063337331191"><ele>447.5</ele><time>2026-04-19T17:14:18.999Z</time></trkpt><trkpt lat="44.40428309006186" lon="7.685009797720921"><ele>447.25</ele><time>2026-04-19T17:14:19.999Z</time></trkpt><trkpt lat="44.40417930856362" lon="7.6849578136926455"><ele>447.0</ele><time>2026-04-19T17:14:20.999Z</time></trkpt><trkpt lat="44.40407031796753" lon="7.68496442788127"><ele>447.0</ele><time>2026-04-19T17:14:21.999Z</time></trkpt><trkpt lat="44.40397537437121" lon="7.684966622950397"><ele>447.0</ele><time>2026-04-19T17:14:22.999Z</time></trkpt><trkpt lat="44.40388741806021" lon="7.684981027235062"><ele>447.0</ele><time>2026-04-19T17:14:23.999Z</time></trkpt><trkpt lat="44.40381682025848" lon="7.685005615911885"><ele>447.0</ele><time>2026-04-19T17:14:24.999Z</time></trkpt><trkpt lat="44.403719861985984" lon="7.68504196128306"><ele>447.0</ele><time>2026-04-19T17:14:26.999Z</time></trkpt><trkpt lat="44.40363821186682" lon="7.685058046989653"><ele>447.0</ele><time>2026-04-19T17:14:28.999Z</time></trkpt><trkpt lat="44.403555042569806" lon="7.685094175814164"><ele>447.40000000000003</ele><time>2026-04-19T17:14:31.999Z</time></trkpt><trkpt lat="44.40346473167691" lon="7.685092530981553"><ele>447.80000000000007</ele><time>2026-04-19T17:14:33.999Z</time></trkpt><trkpt lat="44.40339209253625" lon="7.685109995302717"><ele>448.2</ele><time>2026-04-19T17:14:36.999Z</time></trkpt><trkpt lat="44.40330063424311" lon="7.685124786162858"><ele>448.6</ele><time>2026-04-19T17:14:40.999Z</time></trkpt><trkpt lat="44.40318538456709" lon="7.685160245967895"><ele>449.0</ele><time>2026-04-19T17:14:42.999Z</time></trkpt><trkpt lat="44.40309952375436" lon="7.685169224954513"><ele>449.0</ele><time>2026-04-19T17:14:43.999Z</time></trkpt><trkpt lat="44.402999704258235" lon="7.685188682447373"><ele>449.0</ele><time>2026-04-19T17:14:44.999Z</time></trkpt><trkpt lat="44.40291659462948" lon="7.685219126964322"><ele>449.0</ele><time>2026-04-19T17:14:45.999Z</time></trkpt><trkpt lat="44.4028512106739" lon="7.6852347998324095"><ele>449.0</ele><time>2026-04-19T17:14:46.999Z</time></trkpt><trkpt lat="44.40275289900989" lon="7.685186498550066"><ele>449.0</ele><time>2026-04-19T17:14:48.999Z</time></trkpt><trkpt lat="44.40266274808232" lon="7.685034177819119"><ele>449.6</ele><time>2026-04-19T17:14:50.999Z</time></trkpt><trkpt lat="44.402629965801" lon="7.684919292594223"><ele>450.2</ele><time>2026-04-19T17:14:51.999Z</time></trkpt><trkpt lat="44.40259966747421" lon="7.684781490214357"><ele>450.80000000000007</ele><time>2026-04-19T17:14:52.999Z</time></trkpt><trkpt lat="44.402565384600265" lon="7.6846202217606345"><ele>451.40000000000003</ele><time>2026-04-19T17:14:53.999Z</time></trkpt><trkpt lat="44.4025311259098" lon="7.684437720571219"><ele>452.0</ele><time>2026-04-19T17:14:54.999Z</time></trkpt><trkpt lat="44.402489835159535" lon="7.684246236356367"><ele>452.0</ele><time>2026-04-19T17:14:55.999Z</time></trkpt><trkpt lat="44.402434739393364" lon="7.684044656776954"><ele>452.0</ele><time>2026-04-19T17:14:56.999Z</time></trkpt><trkpt lat="44.40236971497342" lon="7.68384075225426"><ele>452.0</ele><time>2026-04-19T17:14:57.999Z</time></trkpt><trkpt lat="44.40229003552305" lon="7.683632386038406"><ele>451.66666666666663</ele><time>2026-04-19T17:14:58.999Z</time></trkpt><trkpt lat="44.402205895603366" lon="7.683426788109668"><ele>451.33333333333337</ele><time>2026-04-19T17:14:59.999Z</time></trkpt><trkpt lat="44.402128574831394" lon="7.683232054724358"><ele>451.0</ele><time>2026-04-19T17:15:00.999Z</time></trkpt><trkpt lat="44.40205328498761" lon="7.683053485300575"><ele>451.0</ele><time>2026-04-19T17:15:01.999Z</time></trkpt><trkpt lat="44.401967739175674" lon="7.682881025924181"><ele>451.0</ele><time>2026-04-19T17:15:02.999Z</time></trkpt><trkpt lat="44.40186724454079" lon="7.68270885147241"><ele>451.0</ele><time>2026-04-19T17:15:03.999Z</time></trkpt><trkpt lat="44.401749942972444" lon="7.682543782668499"><ele>451.0</ele><time>2026-04-19T17:15:04.999Z</time></trkpt><trkpt lat="44.401622058948014" lon="7.682380164030766"><ele>451.0</ele><time>2026-04-19T17:15:05.999Z</time></trkpt><trkpt lat="44.40149164970465" lon="7.6822095315236325"><ele>451.0</ele><time>2026-04-19T17:15:06.999Z</time></trkpt><trkpt lat="44.40136489942497" lon="7.682040633368277"><ele>451.0</ele><time>2026-04-19T17:15:07.999Z</time></trkpt><trkpt lat="44.401247044056895" lon="7.681875348881279"><ele>451.0</ele><time>2026-04-19T17:15:08.999Z</time></trkpt><trkpt lat="44.40114225889545" lon="7.681712724212232"><ele>451.0</ele><time>2026-04-19T17:15:09.999Z</time></trkpt><trkpt lat="44.401050423104024" lon="7.681551442914664"><ele>451.0</ele><time>2026-04-19T17:15:10.999Z</time></trkpt><trkpt lat="44.40096178450007" lon="7.681394212988211"><ele>451.0</ele><time>2026-04-19T17:15:11.999Z</time></trkpt><trkpt lat="44.40087660267952" lon="7.68123941752301"><ele>451.0</ele><time>2026-04-19T17:15:12.999Z</time></trkpt><trkpt lat="44.4007938023149" lon="7.681091155727262"><ele>451.0</ele><time>2026-04-19T17:15:13.999Z</time></trkpt><trkpt lat="44.40072325072603" lon="7.680965970909948"><ele>451.1666666666667</ele><time>2026-04-19T17:15:14.999Z</time></trkpt><trkpt lat="44.400666873321676" lon="7.680865042390217"><ele>451.33333333333337</ele><time>2026-04-19T17:15:15.999Z</time></trkpt><trkpt lat="44.40061992152168" lon="7.680784747238774"><ele>451.5</ele><time>2026-04-19T17:15:16.999Z</time></trkpt><trkpt lat="44.40057921902094" lon="7.680715944400763"><ele>451.66666666666663</ele><time>2026-04-19T17:15:17.999Z</time></trkpt><trkpt lat="44.400497837999374" lon="7.680583473992828"><ele>451.8333333333333</ele><time>2026-04-19T17:15:19.999Z</time></trkpt><trkpt lat="44.40044386656279" lon="7.6804979663578035"><ele>452.0</ele><time>2026-04-19T17:15:20.999Z</time></trkpt><trkpt lat="44.40039531639235" lon="7.680382551889855"><ele>452.0</ele><time>2026-04-19T17:15:21.999Z</time></trkpt><trkpt lat="44.4003287282809" lon="7.6802673548805585"><ele>452.0</ele><time>2026-04-19T17:15:22.999Z</time></trkpt><trkpt lat="44.40025928728366" lon="7.68014722236879"><ele>452.0</ele><time>2026-04-19T17:15:23.999Z</time></trkpt><trkpt lat="44.40017483205507" lon="7.680034464480471"><ele>452.0</ele><time>2026-04-19T17:15:25Z</time></trkpt><trkpt lat="44.40009665166656" lon="7.679895018346564"><ele>452.5</ele><time>2026-04-19T17:15:26Z</time></trkpt><trkpt lat="44.40001235963497" lon="7.679744571795609"><ele>453.0</ele><time>2026-04-19T17:15:27Z</time></trkpt><trkpt lat="44.39992280917142" lon="7.679588591885481"><ele>453.5</ele><time>2026-04-19T17:15:28Z</time></trkpt><trkpt lat="44.399829431087404" lon="7.679424038846415"><ele>454.0</ele><time>2026-04-19T17:15:29Z</time></trkpt><trkpt lat="44.39973367844932" lon="7.679252077006026"><ele>454.33333333333337</ele><time>2026-04-19T17:15:30Z</time></trkpt><trkpt lat="44.39963966080952" lon="7.679068022816277"><ele>454.66666666666663</ele><time>2026-04-19T17:15:31Z</time></trkpt><trkpt lat="44.399549742136024" lon="7.67887375402158"><ele>455.0</ele><time>2026-04-19T17:15:32Z</time></trkpt><trkpt lat="44.39946499567882" lon="7.678681391866731"><ele>455.3333333333333</ele><time>2026-04-19T17:15:33Z</time></trkpt><trkpt lat="44.399386836864004" lon="7.678490937573615"><ele>455.66666666666663</ele><time>2026-04-19T17:15:34Z</time></trkpt><trkpt lat="44.399308331056886" lon="7.678300297180215"><ele>456.0</ele><time>2026-04-19T17:15:35Z</time></trkpt><trkpt lat="44.399222146883105" lon="7.678099190584446"><ele>456.0</ele><time>2026-04-19T17:15:36Z</time></trkpt><trkpt lat="44.39913487322698" lon="7.677887854292008"><ele>456.0</ele><time>2026-04-19T17:15:37Z</time></trkpt><trkpt lat="44.39905057122877" lon="7.6776733516245494"><ele>456.0</ele><time>2026-04-19T17:15:38Z</time></trkpt><trkpt lat="44.398970679927984" lon="7.67747502201415"><ele>456.0</ele><time>2026-04-19T17:15:39Z</time></trkpt><trkpt lat="44.39889545097042" lon="7.677286247983535"><ele>456.0</ele><time>2026-04-19T17:15:40Z</time></trkpt><trkpt lat="44.398810749995924" lon="7.6770849371899015"><ele>456.0</ele><time>2026-04-19T17:15:41Z</time></trkpt><trkpt lat="44.39872195596478" lon="7.676861655987073"><ele>456.0</ele><time>2026-04-19T17:15:42Z</time></trkpt><trkpt lat="44.39863244702157" lon="7.676637415724423"><ele>456.0</ele><time>2026-04-19T17:15:43Z</time></trkpt><trkpt lat="44.39853494916829" lon="7.676398464118102"><ele>456.0</ele><time>2026-04-19T17:15:44Z</time></trkpt><trkpt lat="44.39842715705362" lon="7.676142399334399"><ele>456.5</ele><time>2026-04-19T17:15:45Z</time></trkpt><trkpt lat="44.398309154942375" lon="7.675867855112376"><ele>457.0</ele><time>2026-04-19T17:15:46Z</time></trkpt><trkpt lat="44.39818515129428" lon="7.6755700547609775"><ele>457.5</ele><time>2026-04-19T17:15:47Z</time></trkpt><trkpt lat="44.398053067759456" lon="7.675257314134982"><ele>458.0</ele><time>2026-04-19T17:15:48Z</time></trkpt><trkpt lat="44.397914843893666" lon="7.674925801760656"><ele>458.0</ele><time>2026-04-19T17:15:49Z</time></trkpt><trkpt lat="44.397771282794025" lon="7.674579301975527"><ele>458.0</ele><time>2026-04-19T17:15:50Z</time></trkpt><trkpt lat="44.39763389329381" lon="7.674246975128034"><ele>458.0</ele><time>2026-04-19T17:15:51Z</time></trkpt><trkpt lat="44.39750733109147" lon="7.673892009780008"><ele>458.0</ele><time>2026-04-19T17:15:52Z</time></trkpt><trkpt lat="44.39736087234568" lon="7.673537288203349"><ele>458.0</ele><time>2026-04-19T17:15:53Z</time></trkpt><trkpt lat="44.397207585134964" lon="7.673166028330029"><ele>458.0</ele><time>2026-04-19T17:15:54Z</time></trkpt><trkpt lat="44.39704781505615" lon="7.672778763032086"><ele>457.5</ele><time>2026-04-19T17:15:55Z</time></trkpt><trkpt lat="44.396898334103604" lon="7.672416377348566"><ele>457.0</ele><time>2026-04-19T17:15:56Z</time></trkpt><trkpt lat="44.396734244127266" lon="7.672018574205942"><ele>457.5</ele><time>2026-04-19T17:15:56.999Z</time></trkpt><trkpt lat="44.39657463989287" lon="7.671655118161089"><ele>458.0</ele><time>2026-04-19T17:15:57.999Z</time></trkpt><trkpt lat="44.39644425544839" lon="7.671289497943749"><ele>458.5</ele><time>2026-04-19T17:15:58.999Z</time></trkpt><trkpt lat="44.39637918868306" lon="7.670904856617686"><ele>459.0</ele><time>2026-04-19T17:15:59.999Z</time></trkpt><trkpt lat="44.39631446161391" lon="7.670519692585292"><ele>459.5</ele><time>2026-04-19T17:16:00.999Z</time></trkpt><trkpt lat="44.3962468807267" lon="7.670114064331949"><ele>460.0</ele><time>2026-04-19T17:16:01.999Z</time></trkpt><trkpt lat="44.39616991411073" lon="7.669704007469191"><ele>460.0</ele><time>2026-04-19T17:16:02.999Z</time></trkpt><trkpt lat="44.39610063141316" lon="7.669277980962282"><ele>460.0</ele><time>2026-04-19T17:16:03.999Z</time></trkpt><trkpt lat="44.396026845812465" lon="7.668849948677698"><ele>460.0</ele><time>2026-04-19T17:16:04.999Z</time></trkpt><trkpt lat="44.39595409165008" lon="7.668446488053216"><ele>460.0</ele><time>2026-04-19T17:16:05.999Z</time></trkpt><trkpt lat="44.39588186646579" lon="7.668069254757455"><ele>460.0</ele><time>2026-04-19T17:16:06.999Z</time></trkpt><trkpt lat="44.39580628968377" lon="7.667710610690239"><ele>460.0</ele><time>2026-04-19T17:16:07.999Z</time></trkpt><trkpt lat="44.39570881167685" lon="7.667361806344667"><ele>460.0</ele><time>2026-04-19T17:16:08.999Z</time></trkpt><trkpt lat="44.39557714333826" lon="7.667034085928038"><ele>460.0</ele><time>2026-04-19T17:16:09.999Z</time></trkpt><trkpt lat="44.39541288416205" lon="7.666706525565243"><ele>460.0</ele><time>2026-04-19T17:16:10.999Z</time></trkpt><trkpt lat="44.395244520173605" lon="7.666373026751466"><ele>460.0</ele><time>2026-04-19T17:16:11.999Z</time></trkpt><trkpt lat="44.395078458940766" lon="7.666026177569072"><ele>462.0</ele><time>2026-04-19T17:16:12.999Z</time></trkpt><trkpt lat="44.394910715078574" lon="7.6656639720752215"><ele>464.0</ele><time>2026-04-19T17:16:13.999Z</time></trkpt><trkpt lat="44.39474153952291" lon="7.665294423923069"><ele>464.5</ele><time>2026-04-19T17:16:14.999Z</time></trkpt><trkpt lat="44.39457537897022" lon="7.664934329689887"><ele>465.0</ele><time>2026-04-19T17:16:15.999Z</time></trkpt><trkpt lat="44.39441861793863" lon="7.66458309548453"><ele>464.5</ele><time>2026-04-19T17:16:16.999Z</time></trkpt><trkpt lat="44.39426837923713" lon="7.664255586634105"><ele>464.0</ele><time>2026-04-19T17:16:17.999Z</time></trkpt><trkpt lat="44.39412045108002" lon="7.663936326308005"><ele>464.0</ele><time>2026-04-19T17:16:18.999Z</time></trkpt><trkpt lat="44.3939643958705" lon="7.663595619166936"><ele>464.0</ele><time>2026-04-19T17:16:19.999Z</time></trkpt><trkpt lat="44.39380794688154" lon="7.663241803545991"><ele>464.5</ele><time>2026-04-19T17:16:20.999Z</time></trkpt><trkpt lat="44.39364286990904" lon="7.662881007108773"><ele>465.0</ele><time>2026-04-19T17:16:21.999Z</time></trkpt><trkpt lat="44.39347777376058" lon="7.662524907305961"><ele>465.5</ele><time>2026-04-19T17:16:22.999Z</time></trkpt><trkpt lat="44.39331668979078" lon="7.6621815724554105"><ele>466.0</ele><time>2026-04-19T17:16:23.999Z</time></trkpt><trkpt lat="44.39316339103537" lon="7.661849975870605"><ele>466.0</ele><time>2026-04-19T17:16:24.999Z</time></trkpt><trkpt lat="44.39301962083156" lon="7.661534600174282"><ele>466.0</ele><time>2026-04-19T17:16:25.999Z</time></trkpt><trkpt lat="44.392880599975825" lon="7.661230533854488"><ele>467.0</ele><time>2026-04-19T17:16:26.999Z</time></trkpt><trkpt lat="44.39276217084228" lon="7.660926578351079"><ele>468.0</ele><time>2026-04-19T17:16:27.999Z</time></trkpt><trkpt lat="44.392638486615134" lon="7.6606446887651005"><ele>468.0</ele><time>2026-04-19T17:16:28.999Z</time></trkpt><trkpt lat="44.392524871615244" lon="7.660370823936367"><ele>468.0</ele><time>2026-04-19T17:16:29.999Z</time></trkpt><trkpt lat="44.3924201208123" lon="7.660099003787014"><ele>468.0</ele><time>2026-04-19T17:16:30.999Z</time></trkpt><trkpt lat="44.39237288212381" lon="7.659805746210459"><ele>468.0</ele><time>2026-04-19T17:16:31.999Z</time></trkpt><trkpt lat="44.39231675759924" lon="7.659510365153847"><ele>468.0</ele><time>2026-04-19T17:16:32.999Z</time></trkpt><trkpt lat="44.39230073106199" lon="7.6591912134897555"><ele>468.0</ele><time>2026-04-19T17:16:33.999Z</time></trkpt><trkpt lat="44.39233499005286" lon="7.658861505816014"><ele>468.5</ele><time>2026-04-19T17:16:34.999Z</time></trkpt><trkpt lat="44.39236563778592" lon="7.658513297870446"><ele>469.0</ele><time>2026-04-19T17:16:35.999Z</time></trkpt><trkpt lat="44.3923985432337" lon="7.65814732475958"><ele>469.5</ele><time>2026-04-19T17:16:36.999Z</time></trkpt><trkpt lat="44.39242426689217" lon="7.657760969196877"><ele>470.0</ele><time>2026-04-19T17:16:37.999Z</time></trkpt><trkpt lat="44.392465577545856" lon="7.657364717266504"><ele>470.0</ele><time>2026-04-19T17:16:38.999Z</time></trkpt><trkpt lat="44.39250326209568" lon="7.656957269949574"><ele>470.0</ele><time>2026-04-19T17:16:39.999Z</time></trkpt><trkpt lat="44.392542406625395" lon="7.656541741567676"><ele>469.5</ele><time>2026-04-19T17:16:40.999Z</time></trkpt><trkpt lat="44.39258091968386" lon="7.656115858122848"><ele>469.0</ele><time>2026-04-19T17:16:41.999Z</time></trkpt><trkpt lat="44.392620170671925" lon="7.6556797615207"><ele>470.0</ele><time>2026-04-19T17:16:42.999Z</time></trkpt><trkpt lat="44.39266212655653" lon="7.655244880103363"><ele>471.0</ele><time>2026-04-19T17:16:43.999Z</time></trkpt><trkpt lat="44.3927017517961" lon="7.654834006030721"><ele>471.5</ele><time>2026-04-19T17:16:44.999Z</time></trkpt><trkpt lat="44.39273919976529" lon="7.654444906369754"><ele>472.0</ele><time>2026-04-19T17:16:45.999Z</time></trkpt><trkpt lat="44.39277630310345" lon="7.654060624415078"><ele>472.0</ele><time>2026-04-19T17:16:46.999Z</time></trkpt><trkpt lat="44.392811400832365" lon="7.65366541106015"><ele>472.0</ele><time>2026-04-19T17:16:47.999Z</time></trkpt><trkpt lat="44.392841747914375" lon="7.653280427437328"><ele>473.0</ele><time>2026-04-19T17:16:48.999Z</time></trkpt><trkpt lat="44.39288936203842" lon="7.65291112558469"><ele>474.0</ele><time>2026-04-19T17:16:49.999Z</time></trkpt><trkpt lat="44.39292407806238" lon="7.652539041373605"><ele>476.0</ele><time>2026-04-19T17:16:50.999Z</time></trkpt><trkpt lat="44.39295966506327" lon="7.652157622516914"><ele>478.0</ele><time>2026-04-19T17:16:51.999Z</time></trkpt><trkpt lat="44.3929953254211" lon="7.651775417295615"><ele>477.0</ele><time>2026-04-19T17:16:52.999Z</time></trkpt><trkpt lat="44.393031776123436" lon="7.651384741155908"><ele>476.0</ele><time>2026-04-19T17:16:53.999Z</time></trkpt><trkpt lat="44.3930589307711" lon="7.650979586513583"><ele>476.0</ele><time>2026-04-19T17:16:54.999Z</time></trkpt><trkpt lat="44.39310348642569" lon="7.650586802075249"><ele>476.0</ele><time>2026-04-19T17:16:55.999Z</time></trkpt><trkpt lat="44.39313880466574" lon="7.6501997189770945"><ele>475.5</ele><time>2026-04-19T17:16:56.999Z</time></trkpt><trkpt lat="44.39316972184149" lon="7.64982494530228"><ele>475.0</ele><time>2026-04-19T17:16:57.998Z</time></trkpt><trkpt lat="44.393204247745054" lon="7.649453233657486"><ele>476.0</ele><time>2026-04-19T17:16:58.998Z</time></trkpt><trkpt lat="44.393238918298394" lon="7.649074381317175"><ele>477.0</ele><time>2026-04-19T17:16:59.998Z</time></trkpt><trkpt lat="44.39326935329284" lon="7.648691374120943"><ele>477.0</ele><time>2026-04-19T17:17:00.998Z</time></trkpt><trkpt lat="44.39328405034261" lon="7.648304578179659"><ele>477.0</ele><time>2026-04-19T17:17:01.998Z</time></trkpt><trkpt lat="44.39328238922311" lon="7.647927275834574"><ele>476.0</ele><time>2026-04-19T17:17:02.998Z</time></trkpt><trkpt lat="44.393280601214684" lon="7.647539949459944"><ele>475.0</ele><time>2026-04-19T17:17:03.998Z</time></trkpt><trkpt lat="44.393281087580995" lon="7.647137936892797"><ele>475.5</ele><time>2026-04-19T17:17:04.998Z</time></trkpt><trkpt lat="44.3932777549359" lon="7.646718925795862"><ele>476.0</ele><time>2026-04-19T17:17:05.998Z</time></trkpt><trkpt lat="44.39327215798475" lon="7.646294791726356"><ele>477.0</ele><time>2026-04-19T17:17:06.998Z</time></trkpt><trkpt lat="44.39326526361667" lon="7.645877580496149"><ele>478.0</ele><time>2026-04-19T17:17:07.998Z</time></trkpt><trkpt lat="44.393261265486004" lon="7.645486057034827"><ele>478.0</ele><time>2026-04-19T17:17:08.998Z</time></trkpt><trkpt lat="44.39325899658011" lon="7.645110763881589"><ele>478.0</ele><time>2026-04-19T17:17:09.998Z</time></trkpt><trkpt lat="44.39325807836059" lon="7.644754699624579"><ele>478.0</ele><time>2026-04-19T17:17:10.998Z</time></trkpt><trkpt lat="44.39325814299636" lon="7.644406094159798"><ele>478.0</ele><time>2026-04-19T17:17:11.998Z</time></trkpt><trkpt lat="44.393256631999726" lon="7.644048847823339"><ele>478.0</ele><time>2026-04-19T17:17:12.998Z</time></trkpt><trkpt lat="44.39325277879355" lon="7.643679893326179"><ele>478.0</ele><time>2026-04-19T17:17:13.998Z</time></trkpt><trkpt lat="44.39324931885157" lon="7.6433239593202424"><ele>477.5</ele><time>2026-04-19T17:17:14.998Z</time></trkpt><trkpt lat="44.3932470996848" lon="7.6429882908062385"><ele>477.0</ele><time>2026-04-19T17:17:15.998Z</time></trkpt><trkpt lat="44.39324677067066" lon="7.642667175338206"><ele>477.66666666666663</ele><time>2026-04-19T17:17:16.998Z</time></trkpt><trkpt lat="44.3932470195075" lon="7.642369891663197"><ele>478.3333333333333</ele><time>2026-04-19T17:17:17.998Z</time></trkpt><trkpt lat="44.393246290094474" lon="7.642115077785359"><ele>479.0</ele><time>2026-04-19T17:17:18.998Z</time></trkpt><trkpt lat="44.393243971175465" lon="7.641891764310263"><ele>479.5</ele><time>2026-04-19T17:17:19.998Z</time></trkpt><trkpt lat="44.39324237920109" lon="7.64169346624272"><ele>480.0</ele><time>2026-04-19T17:17:20.998Z</time></trkpt><trkpt lat="44.39324388718335" lon="7.6415158827114"><ele>480.5</ele><time>2026-04-19T17:17:21.998Z</time></trkpt><trkpt lat="44.39324457560462" lon="7.641349768251817"><ele>481.0</ele><time>2026-04-19T17:17:22.998Z</time></trkpt><trkpt lat="44.39324376822793" lon="7.641189316034725"><ele>481.20000000000005</ele><time>2026-04-19T17:17:23.998Z</time></trkpt><trkpt lat="44.393243011679345" lon="7.641039296030884"><ele>481.40000000000003</ele><time>2026-04-19T17:17:24.998Z</time></trkpt><trkpt lat="44.393242523158015" lon="7.640891827549526"><ele>481.6</ele><time>2026-04-19T17:17:25.998Z</time></trkpt><trkpt lat="44.39324158545364" lon="7.640748042210176"><ele>481.8</ele><time>2026-04-19T17:17:26.998Z</time></trkpt><trkpt lat="44.393246239919556" lon="7.640602833372563"><ele>482.0</ele><time>2026-04-19T17:17:27.998Z</time></trkpt><trkpt lat="44.393251970119394" lon="7.640448212199802"><ele>481.8</ele><time>2026-04-19T17:17:28.998Z</time></trkpt><trkpt lat="44.39324961547447" lon="7.64029501632822"><ele>481.6</ele><time>2026-04-19T17:17:29.998Z</time></trkpt><trkpt lat="44.393240831234856" lon="7.640141467421263"><ele>481.40000000000003</ele><time>2026-04-19T17:17:31Z</time></trkpt><trkpt lat="44.393237481651454" lon="7.639986553290441"><ele>481.20000000000005</ele><time>2026-04-19T17:17:32Z</time></trkpt><trkpt lat="44.39323273217936" lon="7.639831272126227"><ele>481.0</ele><time>2026-04-19T17:17:33Z</time></trkpt><trkpt lat="44.39322847379258" lon="7.639681951923533"><ele>481.0</ele><time>2026-04-19T17:17:34Z</time></trkpt><trkpt lat="44.39321930616463" lon="7.639540923407986"><ele>481.0</ele><time>2026-04-19T17:17:35Z</time></trkpt><trkpt lat="44.39320360899404" lon="7.639395164241668"><ele>481.0</ele><time>2026-04-19T17:17:36Z</time></trkpt><trkpt lat="44.39319384416481" lon="7.639244251983927"><ele>481.0</ele><time>2026-04-19T17:17:37Z</time></trkpt><trkpt lat="44.39318771412577" lon="7.639101013630331"><ele>481.0</ele><time>2026-04-19T17:17:38Z</time></trkpt><trkpt lat="44.393235751974736" lon="7.638919745059415"><ele>481.6666666666667</ele><time>2026-04-19T17:17:39Z</time></trkpt><trkpt lat="44.39327236994435" lon="7.6387242655564025"><ele>482.33333333333337</ele><time>2026-04-19T17:17:40Z</time></trkpt><trkpt lat="44.393281467407085" lon="7.638509797770887"><ele>483.0</ele><time>2026-04-19T17:17:41Z</time></trkpt><trkpt lat="44.393311589795864" lon="7.638274166878088"><ele>483.0</ele><time>2026-04-19T17:17:42Z</time></trkpt><trkpt lat="44.39333255878731" lon="7.6380014559169656"><ele>483.0</ele><time>2026-04-19T17:17:43Z</time></trkpt><trkpt lat="44.393350834792656" lon="7.637745450952836"><ele>483.0</ele><time>2026-04-19T17:17:44Z</time></trkpt><trkpt lat="44.39337097407322" lon="7.637511678986543"><ele>483.0</ele><time>2026-04-19T17:17:45Z</time></trkpt><trkpt lat="44.39338893645497" lon="7.637297183713396"><ele>483.0</ele><time>2026-04-19T17:17:46Z</time></trkpt><trkpt lat="44.39340557781836" lon="7.637091802566951"><ele>483.0</ele><time>2026-04-19T17:17:47Z</time></trkpt><trkpt lat="44.39341857528775" lon="7.636893529937194"><ele>483.0</ele><time>2026-04-19T17:17:48Z</time></trkpt><trkpt lat="44.39345055107969" lon="7.6366970962963565"><ele>483.0</ele><time>2026-04-19T17:17:49Z</time></trkpt><trkpt lat="44.39346888027678" lon="7.636496228875423"><ele>483.0</ele><time>2026-04-19T17:17:50Z</time></trkpt><trkpt lat="44.39347429840268" lon="7.636290141327716"><ele>483.0</ele><time>2026-04-19T17:17:51Z</time></trkpt><trkpt lat="44.393498530669376" lon="7.63608800749916"><ele>483.0</ele><time>2026-04-19T17:17:52Z</time></trkpt><trkpt lat="44.39351355100127" lon="7.635872180166059"><ele>483.33333333333337</ele><time>2026-04-19T17:17:53Z</time></trkpt><trkpt lat="44.39351280383183" lon="7.635629430831596"><ele>483.6666666666667</ele><time>2026-04-19T17:17:54Z</time></trkpt><trkpt lat="44.39349247217996" lon="7.635358461752826"><ele>484.0</ele><time>2026-04-19T17:17:55Z</time></trkpt><trkpt lat="44.3934832539771" lon="7.635052493731626"><ele>484.0</ele><time>2026-04-19T17:17:56Z</time></trkpt><trkpt lat="44.39345597729878" lon="7.634723746966422"><ele>484.0</ele><time>2026-04-19T17:17:57Z</time></trkpt><trkpt lat="44.39342711428296" lon="7.634377992651019"><ele>484.0</ele><time>2026-04-19T17:17:58Z</time></trkpt><trkpt lat="44.393397228391244" lon="7.6340199852952555"><ele>484.0</ele><time>2026-04-19T17:17:59Z</time></trkpt><trkpt lat="44.39336659393359" lon="7.6336530103670155"><ele>484.0</ele><time>2026-04-19T17:18:00Z</time></trkpt><trkpt lat="44.39333475383142" lon="7.633275897392763"><ele>484.0</ele><time>2026-04-19T17:18:01Z</time></trkpt><trkpt lat="44.393301640791336" lon="7.6328882930404465"><ele>485.0</ele><time>2026-04-19T17:18:02Z</time></trkpt><trkpt lat="44.39325841042885" lon="7.632492058709063"><ele>486.0</ele><time>2026-04-19T17:18:03Z</time></trkpt><trkpt lat="44.39324059613929" lon="7.6320822679403815"><ele>485.5</ele><time>2026-04-19T17:18:04Z</time></trkpt><trkpt lat="44.39322640282233" lon="7.6316637584321585"><ele>485.0</ele><time>2026-04-19T17:18:05Z</time></trkpt><trkpt lat="44.39321707149237" lon="7.631246469269213"><ele>486.0</ele><time>2026-04-19T17:18:06Z</time></trkpt><trkpt lat="44.39320709291629" lon="7.630840593642812"><ele>487.0</ele><time>2026-04-19T17:18:07Z</time></trkpt><trkpt lat="44.39319718391178" lon="7.630455994623263"><ele>486.5</ele><time>2026-04-19T17:18:08Z</time></trkpt><trkpt lat="44.39318780515405" lon="7.630088483736609"><ele>486.0</ele><time>2026-04-19T17:18:09Z</time></trkpt><trkpt lat="44.393184639039994" lon="7.6297129358378895"><ele>486.0</ele><time>2026-04-19T17:18:10Z</time></trkpt><trkpt lat="44.39320554739644" lon="7.629315840391317"><ele>486.0</ele><time>2026-04-19T17:18:11Z</time></trkpt><trkpt lat="44.3931930780766" lon="7.628900167632719"><ele>486.0</ele><time>2026-04-19T17:18:12Z</time></trkpt><trkpt lat="44.39319803367743" lon="7.628472868423942"><ele>486.0</ele><time>2026-04-19T17:18:13Z</time></trkpt><trkpt lat="44.39320463289972" lon="7.628027299158891"><ele>486.0</ele><time>2026-04-19T17:18:14Z</time></trkpt><trkpt lat="44.39321555488554" lon="7.627560659005477"><ele>486.0</ele><time>2026-04-19T17:18:15Z</time></trkpt><trkpt lat="44.393231123318934" lon="7.627078805832727"><ele>487.0</ele><time>2026-04-19T17:18:16Z</time></trkpt><trkpt lat="44.393252460473484" lon="7.626583217076456"><ele>488.0</ele><time>2026-04-19T17:18:17Z</time></trkpt><trkpt lat="44.39327298134172" lon="7.626072789265789"><ele>488.0</ele><time>2026-04-19T17:18:18Z</time></trkpt><trkpt lat="44.39329077398743" lon="7.625554950135653"><ele>488.0</ele><time>2026-04-19T17:18:19Z</time></trkpt><trkpt lat="44.393309798874625" lon="7.625030695394307"><ele>488.0</ele><time>2026-04-19T17:18:20Z</time></trkpt><trkpt lat="44.3933295025255" lon="7.62450047837975"><ele>488.0</ele><time>2026-04-19T17:18:21Z</time></trkpt><trkpt lat="44.39334758197419" lon="7.623963577168573"><ele>489.0</ele><time>2026-04-19T17:18:22Z</time></trkpt><trkpt lat="44.393362759303564" lon="7.623420647945644"><ele>490.0</ele><time>2026-04-19T17:18:23Z</time></trkpt><trkpt lat="44.39337606393148" lon="7.622887674327416"><ele>490.0</ele><time>2026-04-19T17:18:24Z</time></trkpt><trkpt lat="44.39339079386705" lon="7.622388500435923"><ele>490.0</ele><time>2026-04-19T17:18:25Z</time></trkpt><trkpt lat="44.393406431829916" lon="7.621911497905515"><ele>490.0</ele><time>2026-04-19T17:18:26Z</time></trkpt><trkpt lat="44.39342217373868" lon="7.621454321968057"><ele>490.0</ele><time>2026-04-19T17:18:27Z</time></trkpt><trkpt lat="44.393438663775996" lon="7.62101521342365"><ele>490.0</ele><time>2026-04-19T17:18:28Z</time></trkpt><trkpt lat="44.39345319380392" lon="7.620587923968473"><ele>490.0</ele><time>2026-04-19T17:18:29Z</time></trkpt><trkpt lat="44.3934662626142" lon="7.620155286108225"><ele>490.0</ele><time>2026-04-19T17:18:30Z</time></trkpt><trkpt lat="44.39347805271177" lon="7.619712701621048"><ele>490.0</ele><time>2026-04-19T17:18:31Z</time></trkpt><trkpt lat="44.39348473453133" lon="7.61928052765023"><ele>490.0</ele><time>2026-04-19T17:18:32Z</time></trkpt><trkpt lat="44.39351372603475" lon="7.618873978268127"><ele>490.0</ele><time>2026-04-19T17:18:33Z</time></trkpt><trkpt lat="44.39351251721879" lon="7.618483030711622"><ele>491.0</ele><time>2026-04-19T17:18:34Z</time></trkpt><trkpt lat="44.393529976847944" lon="7.618114244468278"><ele>492.0</ele><time>2026-04-19T17:18:35Z</time></trkpt><trkpt lat="44.39354096965193" lon="7.617771475868921"><ele>492.0</ele><time>2026-04-19T17:18:36Z</time></trkpt><trkpt lat="44.393547837051685" lon="7.617444014014449"><ele>492.0</ele><time>2026-04-19T17:18:37Z</time></trkpt><trkpt lat="44.39355556055285" lon="7.617130348388378"><ele>492.33333333333337</ele><time>2026-04-19T17:18:38Z</time></trkpt><trkpt lat="44.39356812480017" lon="7.61683344773824"><ele>492.6666666666667</ele><time>2026-04-19T17:18:39Z</time></trkpt><trkpt lat="44.39358082517129" lon="7.6165468385495"><ele>493.0</ele><time>2026-04-19T17:18:39.999Z</time></trkpt><trkpt lat="44.39358972789671" lon="7.616255413068087"><ele>493.0</ele><time>2026-04-19T17:18:40.999Z</time></trkpt><trkpt lat="44.39359562767262" lon="7.615959021688381"><ele>493.0</ele><time>2026-04-19T17:18:41.999Z</time></trkpt><trkpt lat="44.39360194820369" lon="7.615660086218984"><ele>493.0</ele><time>2026-04-19T17:18:42.999Z</time></trkpt><trkpt lat="44.39362638260945" lon="7.615348137049453"><ele>493.5</ele><time>2026-04-19T17:18:43.999Z</time></trkpt><trkpt lat="44.393638036785966" lon="7.615009742835224"><ele>494.0</ele><time>2026-04-19T17:18:44.999Z</time></trkpt><trkpt lat="44.393650661516595" lon="7.614643167073396"><ele>494.5</ele><time>2026-04-19T17:18:45.999Z</time></trkpt><trkpt lat="44.39366427662502" lon="7.6142478348994675"><ele>495.0</ele><time>2026-04-19T17:18:46.999Z</time></trkpt><trkpt lat="44.39367749397957" lon="7.61384213365476"><ele>495.0</ele><time>2026-04-19T17:18:47.999Z</time></trkpt><trkpt lat="44.3936749902674" lon="7.613427433539739"><ele>495.0</ele><time>2026-04-19T17:18:48.999Z</time></trkpt><trkpt lat="44.39368878843824" lon="7.613012259263555"><ele>495.5</ele><time>2026-04-19T17:18:49.999Z</time></trkpt><trkpt lat="44.39369711256874" lon="7.612593371189952"><ele>496.0</ele><time>2026-04-19T17:18:50.999Z</time></trkpt><trkpt lat="44.39370249506194" lon="7.612168725544962"><ele>496.5</ele><time>2026-04-19T17:18:51.999Z</time></trkpt><trkpt lat="44.393709321954894" lon="7.611739580875616"><ele>497.0</ele><time>2026-04-19T17:18:52.999Z</time></trkpt><trkpt lat="44.393720014286956" lon="7.6113048789117554"><ele>497.5</ele><time>2026-04-19T17:18:53.999Z</time></trkpt><trkpt lat="44.39373386864377" lon="7.6108629919225645"><ele>498.0</ele><time>2026-04-19T17:18:54.999Z</time></trkpt><trkpt lat="44.39374799270873" lon="7.610415474844186"><ele>498.0</ele><time>2026-04-19T17:18:55.999Z</time></trkpt><trkpt lat="44.39376222193931" lon="7.609972658107883"><ele>498.0</ele><time>2026-04-19T17:18:56.999Z</time></trkpt><trkpt lat="44.393776684152485" lon="7.609554477575945"><ele>498.0</ele><time>2026-04-19T17:18:57.999Z</time></trkpt><trkpt lat="44.39379111220942" lon="7.609152055155296"><ele>498.0</ele><time>2026-04-19T17:18:58.999Z</time></trkpt><trkpt lat="44.39380409506818" lon="7.608753077871508"><ele>498.0</ele><time>2026-04-19T17:18:59.999Z</time></trkpt><trkpt lat="44.39381775051099" lon="7.6083381832004555"><ele>498.0</ele><time>2026-04-19T17:19:00.999Z</time></trkpt><trkpt lat="44.3938344884683" lon="7.607917435156367"><ele>498.0</ele><time>2026-04-19T17:19:01.999Z</time></trkpt><trkpt lat="44.39385935498702" lon="7.607489318842347"><ele>498.0</ele><time>2026-04-19T17:19:02.999Z</time></trkpt><trkpt lat="44.39390010176739" lon="7.6070544995403795"><ele>498.0</ele><time>2026-04-19T17:19:03.999Z</time></trkpt><trkpt lat="44.39395531939627" lon="7.6066111974251855"><ele>498.0</ele><time>2026-04-19T17:19:04.999Z</time></trkpt><trkpt lat="44.394016940402516" lon="7.606160849365996"><ele>498.0</ele><time>2026-04-19T17:19:05.999Z</time></trkpt><trkpt lat="44.39408013511556" lon="7.605701858472239"><ele>498.0</ele><time>2026-04-19T17:19:06.999Z</time></trkpt><trkpt lat="44.39414093034446" lon="7.60523383183845"><ele>498.0</ele><time>2026-04-19T17:19:07.999Z</time></trkpt><trkpt lat="44.3941973804325" lon="7.604768846057106"><ele>498.0</ele><time>2026-04-19T17:19:08.999Z</time></trkpt><trkpt lat="44.39424801199458" lon="7.604310779096263"><ele>499.0</ele><time>2026-04-19T17:19:09.999Z</time></trkpt><trkpt lat="44.39429405195743" lon="7.603857986246891"><ele>500.0</ele><time>2026-04-19T17:19:10.999Z</time></trkpt><trkpt lat="44.394337723310635" lon="7.603413148071438"><ele>500.5</ele><time>2026-04-19T17:19:11.999Z</time></trkpt><trkpt lat="44.39438041942192" lon="7.602970139187563"><ele>501.0</ele><time>2026-04-19T17:19:12.999Z</time></trkpt><trkpt lat="44.39442302963499" lon="7.602529991510401"><ele>501.0</ele><time>2026-04-19T17:19:13.999Z</time></trkpt><trkpt lat="44.394465089329614" lon="7.60208692593655"><ele>501.0</ele><time>2026-04-19T17:19:14.999Z</time></trkpt><trkpt lat="44.39450744782106" lon="7.601640513279315"><ele>501.0</ele><time>2026-04-19T17:19:15.999Z</time></trkpt><trkpt lat="44.3945500023735" lon="7.601189178317537"><ele>501.0</ele><time>2026-04-19T17:19:16.999Z</time></trkpt><trkpt lat="44.394593254853916" lon="7.60073401832025"><ele>502.0</ele><time>2026-04-19T17:19:17.999Z</time></trkpt><trkpt lat="44.394636960814445" lon="7.600275915371979"><ele>503.0</ele><time>2026-04-19T17:19:18.999Z</time></trkpt><trkpt lat="44.394682318915" lon="7.599813708311251"><ele>502.5</ele><time>2026-04-19T17:19:19.999Z</time></trkpt><trkpt lat="44.394732456439115" lon="7.599347835045814"><ele>502.0</ele><time>2026-04-19T17:19:20.999Z</time></trkpt><trkpt lat="44.39479051254635" lon="7.598873700682075"><ele>502.5</ele><time>2026-04-19T17:19:21.999Z</time></trkpt><trkpt lat="44.3948578275367" lon="7.598393026229327"><ele>503.0</ele><time>2026-04-19T17:19:22.999Z</time></trkpt><trkpt lat="44.394927264678664" lon="7.597905840256025"><ele>504.0</ele><time>2026-04-19T17:19:23.999Z</time></trkpt><trkpt lat="44.39499075559531" lon="7.5974085232184"><ele>505.0</ele><time>2026-04-19T17:19:24.999Z</time></trkpt><trkpt lat="44.395042495432776" lon="7.596899899084652"><ele>505.0</ele><time>2026-04-19T17:19:25.999Z</time></trkpt><trkpt lat="44.39508690624889" lon="7.596383437427462"><ele>505.0</ele><time>2026-04-19T17:19:26.999Z</time></trkpt><trkpt lat="44.39513133564936" lon="7.595859936567253"><ele>504.5</ele><time>2026-04-19T17:19:27.999Z</time></trkpt><trkpt lat="44.39517827506001" lon="7.595332473359737"><ele>504.0</ele><time>2026-04-19T17:19:28.999Z</time></trkpt><trkpt lat="44.39522683050757" lon="7.594828714553369"><ele>504.5</ele><time>2026-04-19T17:19:29.999Z</time></trkpt><trkpt lat="44.3952783719077" lon="7.594350208691321"><ele>505.0</ele><time>2026-04-19T17:19:30.999Z</time></trkpt><trkpt lat="44.395331728358215" lon="7.593887001629261"><ele>505.5</ele><time>2026-04-19T17:19:31.999Z</time></trkpt><trkpt lat="44.3953875433053" lon="7.593425513494835"><ele>506.0</ele><time>2026-04-19T17:19:32.999Z</time></trkpt><trkpt lat="44.395442949196905" lon="7.592987399490422"><ele>506.0</ele><time>2026-04-19T17:19:33.999Z</time></trkpt><trkpt lat="44.39549771231637" lon="7.5925668739836905"><ele>506.0</ele><time>2026-04-19T17:19:34.999Z</time></trkpt><trkpt lat="44.39555105781117" lon="7.592167323632722"><ele>505.5</ele><time>2026-04-19T17:19:35.999Z</time></trkpt><trkpt lat="44.3956014646568" lon="7.591782755040765"><ele>505.0</ele><time>2026-04-19T17:19:37Z</time></trkpt><trkpt lat="44.39564869037732" lon="7.5914157466218155"><ele>505.5</ele><time>2026-04-19T17:19:38Z</time></trkpt><trkpt lat="44.395695287835636" lon="7.591063434061482"><ele>506.0</ele><time>2026-04-19T17:19:39Z</time></trkpt><trkpt lat="44.395742067435926" lon="7.59072536002653"><ele>506.0</ele><time>2026-04-19T17:19:40Z</time></trkpt><trkpt lat="44.395788726069306" lon="7.590403832825092"><ele>506.0</ele><time>2026-04-19T17:19:41Z</time></trkpt><trkpt lat="44.395828234729834" lon="7.590097085684483"><ele>506.3333333333333</ele><time>2026-04-19T17:19:42Z</time></trkpt><trkpt lat="44.39585557970916" lon="7.58980446127477"><ele>506.66666666666663</ele><time>2026-04-19T17:19:43Z</time></trkpt><trkpt lat="44.395867667132016" lon="7.589524954220431"><ele>507.0</ele><time>2026-04-19T17:19:44Z</time></trkpt><trkpt lat="44.395869999261855" lon="7.589258469105229"><ele>507.0</ele><time>2026-04-19T17:19:45Z</time></trkpt><trkpt lat="44.395872562709584" lon="7.589008530879778"><ele>507.0</ele><time>2026-04-19T17:19:46Z</time></trkpt><trkpt lat="44.395890316669444" lon="7.588779801189956"><ele>507.0</ele><time>2026-04-19T17:19:47Z</time></trkpt><trkpt lat="44.39593063295564" lon="7.58857289288533"><ele>507.25</ele><time>2026-04-19T17:19:48Z</time></trkpt><trkpt lat="44.39601241387765" lon="7.588391422896126"><ele>507.5</ele><time>2026-04-19T17:19:49Z</time></trkpt><trkpt lat="44.39605380126956" lon="7.588193746382173"><ele>507.75</ele><time>2026-04-19T17:19:50Z</time></trkpt><trkpt lat="44.39602819581733" lon="7.587997766700688"><ele>508.0</ele><time>2026-04-19T17:19:51Z</time></trkpt><trkpt lat="44.39602695241447" lon="7.587809333026262"><ele>508.33333333333337</ele><time>2026-04-19T17:19:52Z</time></trkpt><trkpt lat="44.3960417240838" lon="7.5875731362958465"><ele>508.66666666666663</ele><time>2026-04-19T17:19:53Z</time></trkpt><trkpt lat="44.39608552992773" lon="7.587299935761391"><ele>509.0</ele><time>2026-04-19T17:19:54Z</time></trkpt><trkpt lat="44.39615515841465" lon="7.5869939632854155"><ele>509.0</ele><time>2026-04-19T17:19:55Z</time></trkpt><trkpt lat="44.396241327172234" lon="7.586654626732736"><ele>509.0</ele><time>2026-04-19T17:19:56Z</time></trkpt><trkpt lat="44.396333769636094" lon="7.586279623880524"><ele>509.0</ele><time>2026-04-19T17:19:57Z</time></trkpt><trkpt lat="44.39643069413292" lon="7.58587272677976"><ele>509.0</ele><time>2026-04-19T17:19:58Z</time></trkpt><trkpt lat="44.396532860021914" lon="7.5854427470626975"><ele>509.0</ele><time>2026-04-19T17:19:59Z</time></trkpt><trkpt lat="44.39664183287387" lon="7.584992318998538"><ele>509.0</ele><time>2026-04-19T17:20:00Z</time></trkpt><trkpt lat="44.39675207993357" lon="7.5845293537193"><ele>509.0</ele><time>2026-04-19T17:20:01Z</time></trkpt><trkpt lat="44.39685742065794" lon="7.584094488940801"><ele>509.0</ele><time>2026-04-19T17:20:02Z</time></trkpt><trkpt lat="44.39695978856207" lon="7.583684646003434"><ele>510.0</ele><time>2026-04-19T17:20:03Z</time></trkpt><trkpt lat="44.39705409511815" lon="7.583291978193771"><ele>511.0</ele><time>2026-04-19T17:20:04Z</time></trkpt><trkpt lat="44.397142812052856" lon="7.582919462262731"><ele>511.0</ele><time>2026-04-19T17:20:05Z</time></trkpt><trkpt lat="44.39722332736034" lon="7.582586358362906"><ele>511.0</ele><time>2026-04-19T17:20:06Z</time></trkpt><trkpt lat="44.39729099544532" lon="7.582309551799884"><ele>511.0</ele><time>2026-04-19T17:20:07Z</time></trkpt><trkpt lat="44.397349099490256" lon="7.58207710598657"><ele>511.0</ele><time>2026-04-19T17:20:08Z</time></trkpt><trkpt lat="44.39740340035918" lon="7.581889595171452"><ele>511.0</ele><time>2026-04-19T17:20:09Z</time></trkpt><trkpt lat="44.39746532467617" lon="7.581742857121852"><ele>511.0</ele><time>2026-04-19T17:20:10Z</time></trkpt><trkpt lat="44.397544264119794" lon="7.581630825135182"><ele>510.8</ele><time>2026-04-19T17:20:11Z</time></trkpt><trkpt lat="44.39762540536826" lon="7.581535385731449"><ele>510.6</ele><time>2026-04-19T17:20:12Z</time></trkpt><trkpt lat="44.39767861697928" lon="7.58142750515427"><ele>510.4</ele><time>2026-04-19T17:20:13Z</time></trkpt><trkpt lat="44.397714026221735" lon="7.581311431659656"><ele>510.2</ele><time>2026-04-19T17:20:14Z</time></trkpt><trkpt lat="44.39769231105469" lon="7.581184528802379"><ele>510.0</ele><time>2026-04-19T17:20:15Z</time></trkpt><trkpt lat="44.39762410997544" lon="7.581096797297437"><ele>510.0</ele><time>2026-04-19T17:20:16Z</time></trkpt><trkpt lat="44.397552252132094" lon="7.581014188183784"><ele>510.0</ele><time>2026-04-19T17:20:17Z</time></trkpt><trkpt lat="44.39743244131093" lon="7.581015991280594"><ele>510.0</ele><time>2026-04-19T17:20:18Z</time></trkpt><trkpt lat="44.397305244994705" lon="7.581050523930928"><ele>510.0</ele><time>2026-04-19T17:20:19Z</time></trkpt><trkpt lat="44.397142134297866" lon="7.581011370581014"><ele>510.66666666666663</ele><time>2026-04-19T17:20:20Z</time></trkpt><trkpt lat="44.396981391239635" lon="7.5809243889931235"><ele>511.3333333333333</ele><time>2026-04-19T17:20:21Z</time></trkpt><trkpt lat="44.39681863913667" lon="7.580755705819339"><ele>512.0</ele><time>2026-04-19T17:20:22Z</time></trkpt><trkpt lat="44.39661564870011" lon="7.580593836420607"><ele>512.0</ele><time>2026-04-19T17:20:23Z</time></trkpt><trkpt lat="44.39640879627943" lon="7.5803897955187285"><ele>512.0</ele><time>2026-04-19T17:20:24Z</time></trkpt><trkpt lat="44.39618546649332" lon="7.58017817344491"><ele>513.0</ele><time>2026-04-19T17:20:25Z</time></trkpt><trkpt lat="44.39595868913793" lon="7.579965270388142"><ele>514.0</ele><time>2026-04-19T17:20:26Z</time></trkpt><trkpt lat="44.39575089093584" lon="7.579769987899331"><ele>514.0</ele><time>2026-04-19T17:20:27Z</time></trkpt><trkpt lat="44.39554986201896" lon="7.579587704654055"><ele>514.0</ele><time>2026-04-19T17:20:28Z</time></trkpt><trkpt lat="44.39535794120945" lon="7.579412047556747"><ele>514.3333333333334</ele><time>2026-04-19T17:20:29Z</time></trkpt><trkpt lat="44.39517526989182" lon="7.57924105970631"><ele>514.6666666666666</ele><time>2026-04-19T17:20:30Z</time></trkpt><trkpt lat="44.395004453578" lon="7.579071842022401"><ele>515.0</ele><time>2026-04-19T17:20:31Z</time></trkpt><trkpt lat="44.39482719925816" lon="7.5788884340314695"><ele>515.0</ele><time>2026-04-19T17:20:32Z</time></trkpt><trkpt lat="44.39465025249061" lon="7.57868973055445"><ele>515.0</ele><time>2026-04-19T17:20:33Z</time></trkpt><trkpt lat="44.39447485380048" lon="7.578482557941061"><ele>516.0</ele><time>2026-04-19T17:20:34Z</time></trkpt><trkpt lat="44.39429882060857" lon="7.578269363039298"><ele>517.0</ele><time>2026-04-19T17:20:35Z</time></trkpt><trkpt lat="44.39412314594005" lon="7.57805616043728"><ele>516.0</ele><time>2026-04-19T17:20:36Z</time></trkpt><trkpt lat="44.393948782770444" lon="7.577843871290022"><ele>515.0</ele><time>2026-04-19T17:20:37Z</time></trkpt><trkpt lat="44.39378136741106" lon="7.577643531080879"><ele>515.0</ele><time>2026-04-19T17:20:38Z</time></trkpt><trkpt lat="44.39362139768092" lon="7.577452727683166"><ele>515.0</ele><time>2026-04-19T17:20:39Z</time></trkpt><trkpt lat="44.39346854224286" lon="7.577270975622645"><ele>515.0</ele><time>2026-04-19T17:20:40Z</time></trkpt><trkpt lat="44.393322604360065" lon="7.577098897368812"><ele>514.0</ele><time>2026-04-19T17:20:41Z</time></trkpt><trkpt lat="44.39318418961305" lon="7.576932878155898"><ele>513.0</ele><time>2026-04-19T17:20:42Z</time></trkpt><trkpt lat="44.393053243539725" lon="7.576773477275138"><ele>512.0</ele><time>2026-04-19T17:20:43Z</time></trkpt><trkpt lat="44.39292762381662" lon="7.576627369621437"><ele>514.0</ele><time>2026-04-19T17:20:44Z</time></trkpt><trkpt lat="44.392804266314144" lon="7.576484900375766"><ele>516.0</ele><time>2026-04-19T17:20:45Z</time></trkpt><trkpt lat="44.3926838765795" lon="7.576340203415101"><ele>518.0</ele><time>2026-04-19T17:20:46Z</time></trkpt><trkpt lat="44.39256084592088" lon="7.576196530852429"><ele>517.3333333333333</ele><time>2026-04-19T17:20:46.999Z</time></trkpt><trkpt lat="44.39243147764633" lon="7.576049105223526"><ele>516.6666666666666</ele><time>2026-04-19T17:20:47.999Z</time></trkpt><trkpt lat="44.392298857864056" lon="7.575906056100544"><ele>516.0</ele><time>2026-04-19T17:20:48.999Z</time></trkpt><trkpt lat="44.392160882520855" lon="7.575767261360773"><ele>517.3333333333334</ele><time>2026-04-19T17:20:49.999Z</time></trkpt><trkpt lat="44.392025066246745" lon="7.575635875476663"><ele>518.6666666666667</ele><time>2026-04-19T17:20:50.999Z</time></trkpt><trkpt lat="44.39189601937775" lon="7.5755151533320815"><ele>520.0</ele><time>2026-04-19T17:20:51.999Z</time></trkpt><trkpt lat="44.39177201782418" lon="7.575398872921607"><ele>519.75</ele><time>2026-04-19T17:20:52.999Z</time></trkpt><trkpt lat="44.39165549782739" lon="7.575283751699261"><ele>519.5</ele><time>2026-04-19T17:20:53.999Z</time></trkpt><trkpt lat="44.39154212770988" lon="7.575167075037915"><ele>519.25</ele><time>2026-04-19T17:20:54.999Z</time></trkpt><trkpt lat="44.39143109988089" lon="7.575053811088827"><ele>519.0</ele><time>2026-04-19T17:20:55.999Z</time></trkpt><trkpt lat="44.39132573085994" lon="7.574938027123057"><ele>519.0</ele><time>2026-04-19T17:20:56.999Z</time></trkpt><trkpt lat="44.39122961057736" lon="7.574834074797813"><ele>519.0</ele><time>2026-04-19T17:20:57.999Z</time></trkpt><trkpt lat="44.39114810961472" lon="7.57473952305309"><ele>519.0</ele><time>2026-04-19T17:20:58.999Z</time></trkpt><trkpt lat="44.39108088056913" lon="7.574643934107211"><ele>519.0</ele><time>2026-04-19T17:20:59.999Z</time></trkpt><trkpt lat="44.39102602583189" lon="7.574536851903463"><ele>519.0</ele><time>2026-04-19T17:21:00.999Z</time></trkpt><trkpt lat="44.39098689013706" lon="7.574417731212852"><ele>518.5</ele><time>2026-04-19T17:21:01.999Z</time></trkpt><trkpt lat="44.390965100533506" lon="7.574281606153238"><ele>518.0</ele><time>2026-04-19T17:21:02.999Z</time></trkpt><trkpt lat="44.390939823781586" lon="7.574121452373502"><ele>517.5</ele><time>2026-04-19T17:21:03.999Z</time></trkpt><trkpt lat="44.39090789574919" lon="7.573945885977584"><ele>517.0</ele><time>2026-04-19T17:21:04.999Z</time></trkpt><trkpt lat="44.39089431650985" lon="7.5737768215907115"><ele>516.0</ele><time>2026-04-19T17:21:05.999Z</time></trkpt><trkpt lat="44.39091648612851" lon="7.573607223991914"><ele>515.0</ele><time>2026-04-19T17:21:06.999Z</time></trkpt><trkpt lat="44.39097133635222" lon="7.573428760800231"><ele>514.0</ele><time>2026-04-19T17:21:07.999Z</time></trkpt><trkpt lat="44.39104431043264" lon="7.5732336893260825"><ele>513.0</ele><time>2026-04-19T17:21:08.999Z</time></trkpt><trkpt lat="44.39110540196014" lon="7.573008904883875"><ele>512.6666666666666</ele><time>2026-04-19T17:21:09.999Z</time></trkpt><trkpt lat="44.39114812279794" lon="7.572756107089344"><ele>512.3333333333333</ele><time>2026-04-19T17:21:10.999Z</time></trkpt><trkpt lat="44.39118096710306" lon="7.572481208014915"><ele>512.0</ele><time>2026-04-19T17:21:11.999Z</time></trkpt><trkpt lat="44.39120241876377" lon="7.572185533571971"><ele>512.3333333333333</ele><time>2026-04-19T17:21:12.999Z</time></trkpt><trkpt lat="44.391210071451354" lon="7.571873523104442"><ele>512.6666666666666</ele><time>2026-04-19T17:21:13.999Z</time></trkpt><trkpt lat="44.39121636411336" lon="7.571569580800327"><ele>513.0</ele><time>2026-04-19T17:21:14.999Z</time></trkpt><trkpt lat="44.39122883031535" lon="7.571278342405836"><ele>513.0</ele><time>2026-04-19T17:21:15.999Z</time></trkpt><trkpt lat="44.39124012394244" lon="7.57099116711396"><ele>513.0</ele><time>2026-04-19T17:21:16.999Z</time></trkpt><trkpt lat="44.39124809356393" lon="7.570711049157775"><ele>513.0</ele><time>2026-04-19T17:21:17.999Z</time></trkpt><trkpt lat="44.39125680405095" lon="7.570441101714004"><ele>511.33333333333337</ele><time>2026-04-19T17:21:18.999Z</time></trkpt><trkpt lat="44.39126861791686" lon="7.570186413194221"><ele>509.6666666666667</ele><time>2026-04-19T17:21:19.999Z</time></trkpt><trkpt lat="44.391281770866065" lon="7.5699461481961015"><ele>508.0</ele><time>2026-04-19T17:21:20.999Z</time></trkpt><trkpt lat="44.391295827737025" lon="7.569719824510285"><ele>507.5</ele><time>2026-04-19T17:21:21.999Z</time></trkpt><trkpt lat="44.39131138720167" lon="7.56950220183602"><ele>507.0</ele><time>2026-04-19T17:21:22.999Z</time></trkpt><trkpt lat="44.39132599421729" lon="7.569294922080423"><ele>506.5</ele><time>2026-04-19T17:21:23.999Z</time></trkpt><trkpt lat="44.391341912155234" lon="7.56910198899249"><ele>506.0</ele><time>2026-04-19T17:21:24.999Z</time></trkpt><trkpt lat="44.39135753838253" lon="7.568920286919642"><ele>506.0</ele><time>2026-04-19T17:21:25.999Z</time></trkpt><trkpt lat="44.39137338437273" lon="7.5687442543930645"><ele>506.0</ele><time>2026-04-19T17:21:26.999Z</time></trkpt><trkpt lat="44.391389740170496" lon="7.568578613225984"><ele>506.0</ele><time>2026-04-19T17:21:27.999Z</time></trkpt><trkpt lat="44.39140437210864" lon="7.568420599809285"><ele>506.0</ele><time>2026-04-19T17:21:28.999Z</time></trkpt><trkpt lat="44.39141916414891" lon="7.56826445138463"><ele>506.0</ele><time>2026-04-19T17:21:29.999Z</time></trkpt><trkpt lat="44.39143528233515" lon="7.568119418062948"><ele>506.0</ele><time>2026-04-19T17:21:30.999Z</time></trkpt><trkpt lat="44.391457574272806" lon="7.567980725276399"><ele>506.0</ele><time>2026-04-19T17:21:31.999Z</time></trkpt><trkpt lat="44.391453694724326" lon="7.567843190723364"><ele>506.0</ele><time>2026-04-19T17:21:32.999Z</time></trkpt><trkpt lat="44.39146796916989" lon="7.567705904857209"><ele>506.0</ele><time>2026-04-19T17:21:33.999Z</time></trkpt><trkpt lat="44.39147671953109" lon="7.567560788491998"><ele>506.0</ele><time>2026-04-19T17:21:34.999Z</time></trkpt><trkpt lat="44.39148207834108" lon="7.5673937968706975"><ele>506.0</ele><time>2026-04-19T17:21:35.999Z</time></trkpt><trkpt lat="44.391483213585936" lon="7.5672139820946045"><ele>506.0</ele><time>2026-04-19T17:21:36.999Z</time></trkpt><trkpt lat="44.39148125508392" lon="7.567021036359858"><ele>506.0</ele><time>2026-04-19T17:21:37.999Z</time></trkpt><trkpt lat="44.391473204965436" lon="7.566817675078554"><ele>505.5</ele><time>2026-04-19T17:21:38.999Z</time></trkpt><trkpt lat="44.39146196516211" lon="7.566618542115356"><ele>505.0</ele><time>2026-04-19T17:21:39.999Z</time></trkpt><trkpt lat="44.39144959673585" lon="7.566422381436273"><ele>504.5</ele><time>2026-04-19T17:21:40.999Z</time></trkpt><trkpt lat="44.39143651314861" lon="7.566230433785851"><ele>504.0</ele><time>2026-04-19T17:21:41.999Z</time></trkpt><trkpt lat="44.39142533909764" lon="7.566039996939568"><ele>503.5</ele><time>2026-04-19T17:21:43Z</time></trkpt><trkpt lat="44.39141320193127" lon="7.565850413925474"><ele>503.0</ele><time>2026-04-19T17:21:44Z</time></trkpt><trkpt lat="44.391399673511266" lon="7.565650257439316"><ele>502.5</ele><time>2026-04-19T17:21:45Z</time></trkpt><trkpt lat="44.39138889234361" lon="7.565439933490766"><ele>502.0</ele><time>2026-04-19T17:21:46Z</time></trkpt><trkpt lat="44.391381236841696" lon="7.565232023059484"><ele>502.0</ele><time>2026-04-19T17:21:47Z</time></trkpt><trkpt lat="44.39138174950088" lon="7.565035737011979"><ele>502.0</ele><time>2026-04-19T17:21:48Z</time></trkpt><trkpt lat="44.39138673962093" lon="7.56484718920523"><ele>502.0</ele><time>2026-04-19T17:21:49Z</time></trkpt><trkpt lat="44.391391737556496" lon="7.564668165216513"><ele>502.0</ele><time>2026-04-19T17:21:50Z</time></trkpt><trkpt lat="44.39139780491222" lon="7.564497515121659"><ele>501.8</ele><time>2026-04-19T17:21:51Z</time></trkpt><trkpt lat="44.39140595255268" lon="7.5643397807588855"><ele>501.6</ele><time>2026-04-19T17:21:52Z</time></trkpt><trkpt lat="44.39141644373583" lon="7.564197796980599"><ele>501.40000000000003</ele><time>2026-04-19T17:21:53Z</time></trkpt><trkpt lat="44.391426289456476" lon="7.564066999728289"><ele>501.20000000000005</ele><time>2026-04-19T17:21:54Z</time></trkpt><trkpt lat="44.39143341803162" lon="7.563956575873403"><ele>501.0</ele><time>2026-04-19T17:21:55Z</time></trkpt><trkpt lat="44.391442790090295" lon="7.563869014788835"><ele>501.0</ele><time>2026-04-19T17:21:56Z</time></trkpt><trkpt lat="44.391475111098046" lon="7.563731835181911"><ele>501.0</ele><time>2026-04-19T17:21:58Z</time></trkpt><trkpt lat="44.391501196050484" lon="7.563646745266356"><ele>501.0</ele><time>2026-04-19T17:22:00Z</time></trkpt><trkpt lat="44.39152546603911" lon="7.563561267209203"><ele>501.0</ele><time>2026-04-19T17:22:03Z</time></trkpt><trkpt lat="44.391574736860015" lon="7.563463760774686"><ele>501.0</ele><time>2026-04-19T17:22:05Z</time></trkpt><trkpt lat="44.39163756405498" lon="7.563376824310108"><ele>501.0</ele><time>2026-04-19T17:22:07Z</time></trkpt><trkpt lat="44.39154752658964" lon="7.563131558748836"><ele>501.0</ele><time>2026-04-19T17:22:10Z</time></trkpt><trkpt lat="44.39150291068262" lon="7.563052884769545"><ele>501.0</ele><time>2026-04-19T17:22:11Z</time></trkpt><trkpt lat="44.39143698027584" lon="7.562907189684166"><ele>501.0</ele><time>2026-04-19T17:22:13Z</time></trkpt><trkpt lat="44.39141439214881" lon="7.562808697419751"><ele>501.0</ele><time>2026-04-19T17:22:14Z</time></trkpt><trkpt lat="44.391396557303416" lon="7.562698004948096"><ele>501.0</ele><time>2026-04-19T17:22:15Z</time></trkpt><trkpt lat="44.39138331768381" lon="7.56258271281542"><ele>501.0</ele><time>2026-04-19T17:22:16Z</time></trkpt><trkpt lat="44.39137591181096" lon="7.562470127717147"><ele>501.0</ele><time>2026-04-19T17:22:17Z</time></trkpt><trkpt lat="44.39137120937458" lon="7.562355913740261"><ele>501.0</ele><time>2026-04-19T17:22:18Z</time></trkpt><trkpt lat="44.391367289527004" lon="7.562228833466768"><ele>501.0</ele><time>2026-04-19T17:22:19Z</time></trkpt><trkpt lat="44.39136157535255" lon="7.56208699623559"><ele>501.0</ele><time>2026-04-19T17:22:20Z</time></trkpt><trkpt lat="44.391352237673615" lon="7.5619142034127105"><ele>501.0</ele><time>2026-04-19T17:22:21Z</time></trkpt><trkpt lat="44.391339786045386" lon="7.561719149254055"><ele>501.0</ele><time>2026-04-19T17:22:22Z</time></trkpt><trkpt lat="44.39132269239064" lon="7.561512124677091"><ele>501.0</ele><time>2026-04-19T17:22:23Z</time></trkpt><trkpt lat="44.3912968027826" lon="7.561281768733586"><ele>501.0</ele><time>2026-04-19T17:22:24Z</time></trkpt><trkpt lat="44.39127490282146" lon="7.561032753086076"><ele>501.0</ele><time>2026-04-19T17:22:25Z</time></trkpt><trkpt lat="44.39126346446614" lon="7.5607760872805105"><ele>501.0</ele><time>2026-04-19T17:22:26Z</time></trkpt><trkpt lat="44.39124609530503" lon="7.560507266978152"><ele>501.0</ele><time>2026-04-19T17:22:27Z</time></trkpt><trkpt lat="44.39122629220366" lon="7.56024038178613"><ele>500.66666666666663</ele><time>2026-04-19T17:22:28Z</time></trkpt><trkpt lat="44.39121514217206" lon="7.559996184598797"><ele>500.3333333333333</ele><time>2026-04-19T17:22:29Z</time></trkpt><trkpt lat="44.39120473957046" lon="7.559762158365474"><ele>500.0</ele><time>2026-04-19T17:22:30Z</time></trkpt><trkpt lat="44.39119456419932" lon="7.559540417307549"><ele>500.5</ele><time>2026-04-19T17:22:31Z</time></trkpt><trkpt lat="44.39118815202613" lon="7.5593393281816095"><ele>501.0</ele><time>2026-04-19T17:22:32Z</time></trkpt><trkpt lat="44.39118858158445" lon="7.55916513092448"><ele>501.5</ele><time>2026-04-19T17:22:33Z</time></trkpt><trkpt lat="44.391192740511336" lon="7.559019299181275"><ele>502.0</ele><time>2026-04-19T17:22:34Z</time></trkpt><trkpt lat="44.39120227645326" lon="7.558901787059498"><ele>502.0</ele><time>2026-04-19T17:22:35Z</time></trkpt><trkpt lat="44.391212114036485" lon="7.558797605925908"><ele>502.00000000000006</ele><time>2026-04-19T17:22:36Z</time></trkpt><trkpt lat="44.39126040292695" lon="7.558646030324185"><ele>502.00000000000006</ele><time>2026-04-19T17:22:38Z</time></trkpt><trkpt lat="44.391314027443" lon="7.558471285267832"><ele>502.0</ele><time>2026-04-19T17:22:40Z</time></trkpt><trkpt lat="44.39132834205501" lon="7.558341670985048"><ele>502.0</ele><time>2026-04-19T17:22:41Z</time></trkpt><trkpt lat="44.39135761068526" lon="7.558195206586014"><ele>502.25</ele><time>2026-04-19T17:22:42Z</time></trkpt><trkpt lat="44.39139915172572" lon="7.558050392100933"><ele>502.5</ele><time>2026-04-19T17:22:43Z</time></trkpt><trkpt lat="44.39145293005049" lon="7.557898979575838"><ele>502.75</ele><time>2026-04-19T17:22:44Z</time></trkpt><trkpt lat="44.39151262982687" lon="7.557742756355824"><ele>503.0</ele><time>2026-04-19T17:22:45Z</time></trkpt><trkpt lat="44.3915755579662" lon="7.557585821604554"><ele>503.0</ele><time>2026-04-19T17:22:46Z</time></trkpt><trkpt lat="44.391656496895834" lon="7.5574048599514265"><ele>503.0</ele><time>2026-04-19T17:22:47Z</time></trkpt><trkpt lat="44.39174635954462" lon="7.55720305916874"><ele>503.0</ele><time>2026-04-19T17:22:48Z</time></trkpt><trkpt lat="44.39182914205379" lon="7.5569793999333585"><ele>502.3333333333333</ele><time>2026-04-19T17:22:49Z</time></trkpt><trkpt lat="44.39190239370496" lon="7.556762526172013"><ele>501.66666666666663</ele><time>2026-04-19T17:22:50Z</time></trkpt><trkpt lat="44.39197085784365" lon="7.556562958391488"><ele>501.0</ele><time>2026-04-19T17:22:51Z</time></trkpt><trkpt lat="44.39203469552126" lon="7.556379814438984"><ele>501.0</ele><time>2026-04-19T17:22:52Z</time></trkpt><trkpt lat="44.392093177603186" lon="7.55621087711541"><ele>501.0</ele><time>2026-04-19T17:22:53Z</time></trkpt><trkpt lat="44.39214858298541" lon="7.556054144534865"><ele>501.0</ele><time>2026-04-19T17:22:54Z</time></trkpt><trkpt lat="44.3921966685279" lon="7.55592359804621"><ele>501.0</ele><time>2026-04-19T17:22:54.999Z</time></trkpt><trkpt lat="44.39223167329886" lon="7.5558331215767875"><ele>501.0</ele><time>2026-04-19T17:22:55.999Z</time></trkpt><trkpt lat="44.392266610744876" lon="7.555734856530611"><ele>501.8333333333333</ele><time>2026-04-19T17:22:57.999Z</time></trkpt><trkpt lat="44.39230352630296" lon="7.5556223551151405"><ele>502.66666666666663</ele><time>2026-04-19T17:23:00.999Z</time></trkpt><trkpt lat="44.39233224955775" lon="7.555537965150626"><ele>503.5</ele><time>2026-04-19T17:23:01.999Z</time></trkpt><trkpt lat="44.39237572542565" lon="7.55545756671808"><ele>504.3333333333333</ele><time>2026-04-19T17:23:02.999Z</time></trkpt><trkpt lat="44.39242317027352" lon="7.555363341467224"><ele>505.16666666666663</ele><time>2026-04-19T17:23:03.999Z</time></trkpt><trkpt lat="44.392498856307796" lon="7.555241581273671"><ele>506.0</ele><time>2026-04-19T17:23:04.999Z</time></trkpt><trkpt lat="44.392544272603246" lon="7.555139118775801"><ele>506.8</ele><time>2026-04-19T17:23:05.999Z</time></trkpt><trkpt lat="44.3925723454878" lon="7.555044743516209"><ele>507.6</ele><time>2026-04-19T17:23:06.999Z</time></trkpt><trkpt lat="44.39255082956469" lon="7.554946449435703"><ele>508.4</ele><time>2026-04-19T17:23:07.999Z</time></trkpt><trkpt lat="44.3924206134525" lon="7.554828256137173"><ele>509.2</ele><time>2026-04-19T17:23:09.999Z</time></trkpt><trkpt lat="44.39232367451773" lon="7.554797762991275"><ele>510.0</ele><time>2026-04-19T17:23:10.999Z</time></trkpt><trkpt lat="44.39221743910766" lon="7.554745687420076"><ele>510.75</ele><time>2026-04-19T17:23:11.999Z</time></trkpt><trkpt lat="44.39211371553907" lon="7.5546462683401945"><ele>511.5</ele><time>2026-04-19T17:23:12.999Z</time></trkpt><trkpt lat="44.392015788672346" lon="7.554515614861904"><ele>512.25</ele><time>2026-04-19T17:23:13.999Z</time></trkpt><trkpt lat="44.39190184258709" lon="7.554363338009234"><ele>513.0</ele><time>2026-04-19T17:23:14.999Z</time></trkpt><trkpt lat="44.39175986978025" lon="7.554196481569959"><ele>513.0</ele><time>2026-04-19T17:23:15.999Z</time></trkpt><trkpt lat="44.39159927677797" lon="7.55402537139065"><ele>513.0</ele><time>2026-04-19T17:23:16.999Z</time></trkpt><trkpt lat="44.39141860604918" lon="7.553846927382633"><ele>513.0</ele><time>2026-04-19T17:23:17.999Z</time></trkpt><trkpt lat="44.39122748328901" lon="7.553656263618557"><ele>516.5</ele><time>2026-04-19T17:23:18.999Z</time></trkpt><trkpt lat="44.39102866790204" lon="7.553453486823085"><ele>520.0</ele><time>2026-04-19T17:23:19.999Z</time></trkpt><trkpt lat="44.390821888992434" lon="7.553240522217548"><ele>520.0</ele><time>2026-04-19T17:23:20.999Z</time></trkpt><trkpt lat="44.390615836181105" lon="7.553038044429471"><ele>520.0</ele><time>2026-04-19T17:23:21.999Z</time></trkpt><trkpt lat="44.39040778581152" lon="7.552840037145786"><ele>522.5</ele><time>2026-04-19T17:23:22.999Z</time></trkpt><trkpt lat="44.39020275657316" lon="7.552641415284507"><ele>525.0</ele><time>2026-04-19T17:23:23.999Z</time></trkpt><trkpt lat="44.39000134745267" lon="7.552479183368386"><ele>525.0</ele><time>2026-04-19T17:23:24.999Z</time></trkpt><trkpt lat="44.38981426322255" lon="7.552314891498289"><ele>525.0</ele><time>2026-04-19T17:23:25.999Z</time></trkpt><trkpt lat="44.38962924932801" lon="7.55215457620335"><ele>525.0</ele><time>2026-04-19T17:23:26.999Z</time></trkpt><trkpt lat="44.38943962342574" lon="7.551992349534705"><ele>529.0</ele><time>2026-04-19T17:23:27.999Z</time></trkpt><trkpt lat="44.38905767982257" lon="7.551663117473977"><ele>533.0</ele><time>2026-04-19T17:23:29.999Z</time></trkpt><trkpt lat="44.38886533356437" lon="7.551498878323852"><ele>534.6666666666666</ele><time>2026-04-19T17:23:30.999Z</time></trkpt><trkpt lat="44.38868276935751" lon="7.551341789861702"><ele>536.3333333333334</ele><time>2026-04-19T17:23:31.999Z</time></trkpt><trkpt lat="44.38851018449534" lon="7.551195773893282"><ele>538.0</ele><time>2026-04-19T17:23:32.999Z</time></trkpt><trkpt lat="44.3883477039496" lon="7.55105657808133"><ele>538.0</ele><time>2026-04-19T17:23:33.999Z</time></trkpt><trkpt lat="44.388196781380884" lon="7.5509191559944"><ele>538.0</ele><time>2026-04-19T17:23:34.999Z</time></trkpt><trkpt lat="44.38805449029039" lon="7.5507927183260755"><ele>538.0</ele><time>2026-04-19T17:23:35.999Z</time></trkpt><trkpt lat="44.387921298423336" lon="7.550677522612138"><ele>539.5</ele><time>2026-04-19T17:23:36.999Z</time></trkpt><trkpt lat="44.38779665221411" lon="7.550573691333302"><ele>541.0</ele><time>2026-04-19T17:23:37.999Z</time></trkpt><trkpt lat="44.38768108681604" lon="7.550478318643827"><ele>542.5</ele><time>2026-04-19T17:23:38.999Z</time></trkpt><trkpt lat="44.3875800126813" lon="7.550394212189257"><ele>544.0</ele><time>2026-04-19T17:23:39.999Z</time></trkpt><trkpt lat="44.38749310080828" lon="7.550314641075145"><ele>544.0</ele><time>2026-04-19T17:23:40.999Z</time></trkpt><trkpt lat="44.38742865167232" lon="7.55022765900926"><ele>544.0</ele><time>2026-04-19T17:23:41.999Z</time></trkpt><trkpt lat="44.38739937148972" lon="7.550130168057404"><ele>544.0</ele><time>2026-04-19T17:23:42.999Z</time></trkpt><trkpt lat="44.387403409973324" lon="7.550029671879673"><ele>544.0</ele><time>2026-04-19T17:23:43.999Z</time></trkpt><trkpt lat="44.38743276845861" lon="7.54994086106195"><ele>544.0</ele><time>2026-04-19T17:23:44.999Z</time></trkpt><trkpt lat="44.38748530877471" lon="7.5498420404752125"><ele>544.0</ele><time>2026-04-19T17:23:45.999Z</time></trkpt><trkpt lat="44.38754485788308" lon="7.549735923991235"><ele>544.0</ele><time>2026-04-19T17:23:46.999Z</time></trkpt><trkpt lat="44.38760683238464" lon="7.549611310760434"><ele>544.0</ele><time>2026-04-19T17:23:47.999Z</time></trkpt><trkpt lat="44.38765947974203" lon="7.549489945343683"><ele>544.0</ele><time>2026-04-19T17:23:49Z</time></trkpt><trkpt lat="44.38770676426287" lon="7.549390359020162"><ele>544.0</ele><time>2026-04-19T17:23:50Z</time></trkpt><trkpt lat="44.387752758584085" lon="7.5493071762242305"><ele>544.0</ele><time>2026-04-19T17:23:51Z</time></trkpt><trkpt lat="44.38780333952825" lon="7.549243558815935"><ele>544.0</ele><time>2026-04-19T17:23:52Z</time></trkpt><trkpt lat="44.38786194146856" lon="7.549200873359926"><ele>544.0</ele><time>2026-04-19T17:23:53Z</time></trkpt><trkpt lat="44.38792468429162" lon="7.549165695512075"><ele>544.0</ele><time>2026-04-19T17:23:54Z</time></trkpt><trkpt lat="44.3879923453407" lon="7.549133874729571"><ele>544.0</ele><time>2026-04-19T17:23:55Z</time></trkpt><trkpt lat="44.38802602630274" lon="7.548959554666987"><ele>544.0</ele><time>2026-04-19T17:23:57Z</time></trkpt><trkpt lat="44.388034867374394" lon="7.548835946392857"><ele>544.0</ele><time>2026-04-19T17:23:58Z</time></trkpt><trkpt lat="44.38806649564031" lon="7.5487059526671"><ele>544.6</ele><time>2026-04-19T17:23:59Z</time></trkpt><trkpt lat="44.388118541494826" lon="7.548569389116958"><ele>545.2</ele><time>2026-04-19T17:24:00Z</time></trkpt><trkpt lat="44.38817962554507" lon="7.548435799373611"><ele>545.8000000000001</ele><time>2026-04-19T17:24:01Z</time></trkpt><trkpt lat="44.388245163859686" lon="7.5483159240370075"><ele>546.4</ele><time>2026-04-19T17:24:02Z</time></trkpt><trkpt lat="44.38830592356195" lon="7.5482013586704415"><ele>547.0</ele><time>2026-04-19T17:24:03Z</time></trkpt><trkpt lat="44.38836383358143" lon="7.5480858238443025"><ele>547.0</ele><time>2026-04-19T17:24:04Z</time></trkpt><trkpt lat="44.388416953784045" lon="7.547976411332094"><ele>547.0</ele><time>2026-04-19T17:24:05Z</time></trkpt><trkpt lat="44.388464296610536" lon="7.547878647493151"><ele>547.0</ele><time>2026-04-19T17:24:06Z</time></trkpt><trkpt lat="44.388504839988315" lon="7.547795592118282"><ele>547.0</ele><time>2026-04-19T17:24:07Z</time></trkpt><trkpt lat="44.38857063631834" lon="7.547685426621426"><ele>547.0</ele><time>2026-04-19T17:24:09Z</time></trkpt><trkpt lat="44.38869347648859" lon="7.547647728395567"><ele>547.0</ele><time>2026-04-19T17:24:12Z</time></trkpt><trkpt lat="44.38878359829934" lon="7.547705035932346"><ele>547.0</ele><time>2026-04-19T17:24:14Z</time></trkpt><trkpt lat="44.388888373506894" lon="7.547802532376073"><ele>547.0</ele><time>2026-04-19T17:24:16Z</time></trkpt><trkpt lat="44.38895583702486" lon="7.547859360662177"><ele>547.0</ele><time>2026-04-19T17:24:17Z</time></trkpt><trkpt lat="44.38902684471469" lon="7.547926522859135"><ele>547.0</ele><time>2026-04-19T17:24:18Z</time></trkpt><trkpt lat="44.38910360319992" lon="7.548002400083114"><ele>546.3333333333334</ele><time>2026-04-19T17:24:19Z</time></trkpt><trkpt lat="44.389180704423914" lon="7.548084019057085"><ele>545.6666666666667</ele><time>2026-04-19T17:24:20Z</time></trkpt><trkpt lat="44.38925265859703" lon="7.548164438199469"><ele>545.0</ele><time>2026-04-19T17:24:21Z</time></trkpt><trkpt lat="44.38932390572562" lon="7.548237106151517"><ele>544.3333333333334</ele><time>2026-04-19T17:24:22Z</time></trkpt><trkpt lat="44.38939350717297" lon="7.548306289812211"><ele>543.6666666666666</ele><time>2026-04-19T17:24:23Z</time></trkpt><trkpt lat="44.38946294220629" lon="7.548371847743991"><ele>543.0</ele><time>2026-04-19T17:24:24Z</time></trkpt><trkpt lat="44.38952914677127" lon="7.548437328470214"><ele>543.0</ele><time>2026-04-19T17:24:25Z</time></trkpt><trkpt lat="44.38959147776016" lon="7.548501655799687"><ele>543.0</ele><time>2026-04-19T17:24:26Z</time></trkpt><trkpt lat="44.389653690583934" lon="7.548562081461135"><ele>543.0</ele><time>2026-04-19T17:24:27Z</time></trkpt><trkpt lat="44.38971599027823" lon="7.548620285688735"><ele>543.0</ele><time>2026-04-19T17:24:28Z</time></trkpt><trkpt lat="44.38977941050969" lon="7.548668989489061"><ele>543.0</ele><time>2026-04-19T17:24:29Z</time></trkpt><trkpt lat="44.38982978939546" lon="7.548731022309466"><ele>543.0</ele><time>2026-04-19T17:24:30Z</time></trkpt><trkpt lat="44.38997830956257" lon="7.548683290504359"><ele>542.8333333333334</ele><time>2026-04-19T17:24:32Z</time></trkpt><trkpt lat="44.39007768741827" lon="7.5486035035532675"><ele>542.6666666666666</ele><time>2026-04-19T17:24:34Z</time></trkpt><trkpt lat="44.39014837871783" lon="7.548525099944729"><ele>542.5</ele><time>2026-04-19T17:24:36Z</time></trkpt><trkpt lat="44.39020400705181" lon="7.548470654805129"><ele>542.3333333333333</ele><time>2026-04-19T17:24:38Z</time></trkpt><trkpt lat="44.39024785530836" lon="7.548382976288988"><ele>542.1666666666666</ele><time>2026-04-19T17:24:42Z</time></trkpt><trkpt lat="44.390270693718136" lon="7.548263291305685"><ele>542.0</ele><time>2026-04-19T17:24:45Z</time></trkpt><trkpt lat="44.39026724263531" lon="7.548092796019362"><ele>542.0</ele><time>2026-04-19T17:24:47Z</time></trkpt><trkpt lat="44.390243581417096" lon="7.547990430965076"><ele>542.0</ele><time>2026-04-19T17:24:48Z</time></trkpt><trkpt lat="44.3902078767123" lon="7.547906496221373"><ele>542.0</ele><time>2026-04-19T17:24:49Z</time></trkpt><trkpt lat="44.39015652380619" lon="7.5478379460586975"><ele>542.0</ele><time>2026-04-19T17:24:50Z</time></trkpt><trkpt lat="44.390095435162976" lon="7.547774214852162"><ele>542.0</ele><time>2026-04-19T17:24:51Z</time></trkpt><trkpt lat="44.390030881593624" lon="7.547713975731612"><ele>542.0</ele><time>2026-04-19T17:24:52Z</time></trkpt><trkpt lat="44.38996806788309" lon="7.5476590046972545"><ele>542.0</ele><time>2026-04-19T17:24:53Z</time></trkpt><trkpt lat="44.389910859793126" lon="7.5476037091038375"><ele>541.8000000000001</ele><time>2026-04-19T17:24:54Z</time></trkpt><trkpt lat="44.38985723914201" lon="7.547549143466343"><ele>541.6</ele><time>2026-04-19T17:24:55Z</time></trkpt><trkpt lat="44.38975525891241" lon="7.547452978855168"><ele>541.4000000000001</ele><time>2026-04-19T17:24:57Z</time></trkpt><trkpt lat="44.38966772327867" lon="7.547357831303598"><ele>541.2</ele><time>2026-04-19T17:24:59Z</time></trkpt><trkpt lat="44.389574850099955" lon="7.547245241917406"><ele>541.0</ele><time>2026-04-19T17:25:00.999Z</time></trkpt><trkpt lat="44.389523731624685" lon="7.547188694782517"><ele>541.0</ele><time>2026-04-19T17:25:01.999Z</time></trkpt><trkpt lat="44.38947168031542" lon="7.547131637556291"><ele>541.0</ele><time>2026-04-19T17:25:02.999Z</time></trkpt><trkpt lat="44.38940860321368" lon="7.5470957657289395"><ele>541.0</ele><time>2026-04-19T17:25:03.999Z</time></trkpt><trkpt lat="44.38935040701904" lon="7.547046907182338"><ele>541.0</ele><time>2026-04-19T17:25:04.999Z</time></trkpt><trkpt lat="44.389295373020985" lon="7.547000703422539"><ele>541.0</ele><time>2026-04-19T17:25:05.999Z</time></trkpt><trkpt lat="44.389224653377845" lon="7.546877179744381"><ele>541.0</ele><time>2026-04-19T17:25:07.999Z</time></trkpt><trkpt lat="44.389160164206" lon="7.546809874344883"><ele>541.8</ele><time>2026-04-19T17:25:09.999Z</time></trkpt><trkpt lat="44.38912273846188" lon="7.546727418352229"><ele>542.6</ele><time>2026-04-19T17:25:12.999Z</time></trkpt><trkpt lat="44.38909755813638" lon="7.546605250385725"><ele>543.4</ele><time>2026-04-19T17:25:26.999Z</time></trkpt><trkpt lat="44.3891636443964" lon="7.54652361600666"><ele>544.2</ele><time>2026-04-19T17:25:27.999Z</time></trkpt><trkpt lat="44.38923832036294" lon="7.546363511924589"><ele>545.0</ele><time>2026-04-19T17:25:29.999Z</time></trkpt><trkpt lat="44.38928809138346" lon="7.546263542213213"><ele>545.0</ele><time>2026-04-19T17:25:30.999Z</time></trkpt><trkpt lat="44.389341280683304" lon="7.5461667316749015"><ele>545.0</ele><time>2026-04-19T17:25:31.999Z</time></trkpt><trkpt lat="44.38939106545856" lon="7.546080149444707"><ele>545.0</ele><time>2026-04-19T17:25:32.999Z</time></trkpt><trkpt lat="44.389430065974395" lon="7.545999473782161"><ele>545.0</ele><time>2026-04-19T17:25:33.999Z</time></trkpt><trkpt lat="44.38950034622311" lon="7.545857059681559"><ele>545.0</ele><time>2026-04-19T17:25:35.999Z</time></trkpt><trkpt lat="44.38953627075331" lon="7.545779643648892"><ele>545.0</ele><time>2026-04-19T17:25:36.999Z</time></trkpt><trkpt lat="44.38958422774239" lon="7.54567651794159"><ele>545.0</ele><time>2026-04-19T17:25:37.999Z</time></trkpt><trkpt lat="44.38964319424933" lon="7.5455587664464945"><ele>545.0</ele><time>2026-04-19T17:25:38.999Z</time></trkpt><trkpt lat="44.38970784995162" lon="7.545427108863823"><ele>545.0</ele><time>2026-04-19T17:25:39.999Z</time></trkpt><trkpt lat="44.389781729393704" lon="7.54528548991559"><ele>545.0</ele><time>2026-04-19T17:25:40.999Z</time></trkpt><trkpt lat="44.389859644481845" lon="7.545133741417077"><ele>544.6666666666666</ele><time>2026-04-19T17:25:41.999Z</time></trkpt><trkpt lat="44.389942783524894" lon="7.5449706039251065"><ele>544.3333333333334</ele><time>2026-04-19T17:25:42.999Z</time></trkpt><trkpt lat="44.390039567446856" lon="7.544787367684838"><ele>544.0</ele><time>2026-04-19T17:25:43.999Z</time></trkpt><trkpt lat="44.39013012825835" lon="7.544615321291659"><ele>543.75</ele><time>2026-04-19T17:25:44.999Z</time></trkpt><trkpt lat="44.39021470886293" lon="7.544448860218236"><ele>543.5</ele><time>2026-04-19T17:25:45.999Z</time></trkpt><trkpt lat="44.390293936416676" lon="7.544290239582763"><ele>543.25</ele><time>2026-04-19T17:25:46.999Z</time></trkpt><trkpt lat="44.390371076329025" lon="7.544139209157377"><ele>543.0</ele><time>2026-04-19T17:25:47.999Z</time></trkpt><trkpt lat="44.390445653209234" lon="7.543996934492479"><ele>542.75</ele><time>2026-04-19T17:25:48.999Z</time></trkpt><trkpt lat="44.39051657004455" lon="7.543856887351291"><ele>542.5</ele><time>2026-04-19T17:25:49.999Z</time></trkpt><trkpt lat="44.390584769522874" lon="7.543718518242012"><ele>542.25</ele><time>2026-04-19T17:25:50.999Z</time></trkpt><trkpt lat="44.390652638574586" lon="7.543589653904748"><ele>542.0</ele><time>2026-04-19T17:25:51.999Z</time></trkpt><trkpt lat="44.39071601975391" lon="7.543475280607371"><ele>542.0</ele><time>2026-04-19T17:25:52.999Z</time></trkpt><trkpt lat="44.390771281384986" lon="7.543375915075876"><ele>542.0</ele><time>2026-04-19T17:25:53.999Z</time></trkpt><trkpt lat="44.39081973465746" lon="7.543291254636754"><ele>542.0</ele><time>2026-04-19T17:25:55Z</time></trkpt><trkpt lat="44.39087226383577" lon="7.543216925338662"><ele>542.0</ele><time>2026-04-19T17:25:56Z</time></trkpt><trkpt lat="44.3909383530533" lon="7.543167652156768"><ele>542.0</ele><time>2026-04-19T17:25:57Z</time></trkpt><trkpt lat="44.39100342940901" lon="7.543128104765673"><ele>542.0</ele><time>2026-04-19T17:25:58Z</time></trkpt><trkpt lat="44.39105782285373" lon="7.543074351503775"><ele>542.0</ele><time>2026-04-19T17:25:59Z</time></trkpt><trkpt lat="44.39110131124887" lon="7.543002901095282"><ele>542.0</ele><time>2026-04-19T17:26:00Z</time></trkpt><trkpt lat="44.39114344008741" lon="7.542919590123685"><ele>542.0</ele><time>2026-04-19T17:26:01Z</time></trkpt><trkpt lat="44.39119736967487" lon="7.542842535822518"><ele>542.0</ele><time>2026-04-19T17:26:02Z</time></trkpt><trkpt lat="44.39126337861973" lon="7.5427754691737015"><ele>542.0</ele><time>2026-04-19T17:26:03Z</time></trkpt><trkpt lat="44.391430992407976" lon="7.542658751246755"><ele>540.5</ele><time>2026-04-19T17:26:05Z</time></trkpt><trkpt lat="44.39152824098331" lon="7.542594894528168"><ele>539.0</ele><time>2026-04-19T17:26:06Z</time></trkpt><trkpt lat="44.391631410414476" lon="7.542528806426099"><ele>537.5</ele><time>2026-04-19T17:26:07Z</time></trkpt><trkpt lat="44.391739325508325" lon="7.5424631260679655"><ele>536.0</ele><time>2026-04-19T17:26:08Z</time></trkpt><trkpt lat="44.391850885093106" lon="7.542394316060487"><ele>536.0</ele><time>2026-04-19T17:26:09Z</time></trkpt><trkpt lat="44.3919659812757" lon="7.542326799265417"><ele>536.0</ele><time>2026-04-19T17:26:10Z</time></trkpt><trkpt lat="44.39208201536593" lon="7.542255310056252"><ele>536.0</ele><time>2026-04-19T17:26:11Z</time></trkpt><trkpt lat="44.392198018132255" lon="7.542181872649642"><ele>536.0</ele><time>2026-04-19T17:26:12Z</time></trkpt><trkpt lat="44.392315233569626" lon="7.542107789107463"><ele>533.5</ele><time>2026-04-19T17:26:13Z</time></trkpt><trkpt lat="44.39243373951362" lon="7.5420338778871265"><ele>531.0</ele><time>2026-04-19T17:26:14Z</time></trkpt><trkpt lat="44.39255283229214" lon="7.541957159467361"><ele>528.5</ele><time>2026-04-19T17:26:15Z</time></trkpt><trkpt lat="44.39267342533824" lon="7.5418780998012425"><ele>526.0</ele><time>2026-04-19T17:26:16Z</time></trkpt><trkpt lat="44.39279800933535" lon="7.541802260137042"><ele>526.0</ele><time>2026-04-19T17:26:17Z</time></trkpt><trkpt lat="44.392926963166985" lon="7.541722762153718"><ele>526.0</ele><time>2026-04-19T17:26:18Z</time></trkpt><trkpt lat="44.39306544354699" lon="7.541634900318246"><ele>526.0</ele><time>2026-04-19T17:26:19Z</time></trkpt><trkpt lat="44.39321437823333" lon="7.541543356093661"><ele>523.3333333333334</ele><time>2026-04-19T17:26:20Z</time></trkpt><trkpt lat="44.393369589257986" lon="7.541446770373387"><ele>520.6666666666666</ele><time>2026-04-19T17:26:21Z</time></trkpt><trkpt lat="44.39353096659691" lon="7.541345378580004"><ele>518.0</ele><time>2026-04-19T17:26:22Z</time></trkpt><trkpt lat="44.39370029911632" lon="7.541239987730971"><ele>516.3333333333333</ele><time>2026-04-19T17:26:23Z</time></trkpt><trkpt lat="44.39387596117561" lon="7.541130229641741"><ele>514.6666666666666</ele><time>2026-04-19T17:26:24Z</time></trkpt><trkpt lat="44.39405488234128" lon="7.541020635393462"><ele>513.0</ele><time>2026-04-19T17:26:25Z</time></trkpt><trkpt lat="44.39423760603277" lon="7.5409084346107935"><ele>513.0</ele><time>2026-04-19T17:26:26Z</time></trkpt><trkpt lat="44.39441827836765" lon="7.540797909510864"><ele>513.0</ele><time>2026-04-19T17:26:27Z</time></trkpt><trkpt lat="44.39459301566972" lon="7.540690378896409"><ele>513.0</ele><time>2026-04-19T17:26:28Z</time></trkpt><trkpt lat="44.39476290859456" lon="7.540583371193069"><ele>510.66666666666663</ele><time>2026-04-19T17:26:29Z</time></trkpt><trkpt lat="44.3949296025527" lon="7.540479602113426"><ele>508.3333333333333</ele><time>2026-04-19T17:26:30Z</time></trkpt><trkpt lat="44.39509272084659" lon="7.540376713408213"><ele>506.0</ele><time>2026-04-19T17:26:31Z</time></trkpt><trkpt lat="44.395253766308976" lon="7.540277121680671"><ele>506.0</ele><time>2026-04-19T17:26:32Z</time></trkpt><trkpt lat="44.3954132257394" lon="7.540177690501558"><ele>506.0</ele><time>2026-04-19T17:26:33Z</time></trkpt><trkpt lat="44.39557174611845" lon="7.540080021624389"><ele>506.0</ele><time>2026-04-19T17:26:34Z</time></trkpt><trkpt lat="44.39573106859805" lon="7.539982968176141"><ele>505.66666666666663</ele><time>2026-04-19T17:26:35Z</time></trkpt><trkpt lat="44.395893910395856" lon="7.539883370481348"><ele>505.33333333333337</ele><time>2026-04-19T17:26:36Z</time></trkpt><trkpt lat="44.39606203598365" lon="7.539781316812036"><ele>505.0</ele><time>2026-04-19T17:26:37Z</time></trkpt><trkpt lat="44.39624016054489" lon="7.539672650271086"><ele>502.6666666666667</ele><time>2026-04-19T17:26:38Z</time></trkpt><trkpt lat="44.39642300260588" lon="7.539560113171203"><ele>500.33333333333337</ele><time>2026-04-19T17:26:39Z</time></trkpt><trkpt lat="44.396607314335625" lon="7.5394468845940805"><ele>498.0</ele><time>2026-04-19T17:26:40Z</time></trkpt><trkpt lat="44.396785291965635" lon="7.539337797036533"><ele>503.33333333333337</ele><time>2026-04-19T17:26:41Z</time></trkpt><trkpt lat="44.39695691869322" lon="7.539230241840774"><ele>508.6666666666667</ele><time>2026-04-19T17:26:42Z</time></trkpt><trkpt lat="44.39712166978118" lon="7.539126942638867"><ele>514.0</ele><time>2026-04-19T17:26:43Z</time></trkpt><trkpt lat="44.39727828768178" lon="7.539029299401387"><ele>516.25</ele><time>2026-04-19T17:26:44Z</time></trkpt><trkpt lat="44.397423030916464" lon="7.538937976520891"><ele>518.5</ele><time>2026-04-19T17:26:45Z</time></trkpt><trkpt lat="44.397550038506054" lon="7.538856743383337"><ele>520.75</ele><time>2026-04-19T17:26:46Z</time></trkpt><trkpt lat="44.39765708305743" lon="7.538787816175117"><ele>523.0</ele><time>2026-04-19T17:26:47Z</time></trkpt><trkpt lat="44.39775939503802" lon="7.538745031682303"><ele>523.0</ele><time>2026-04-19T17:26:48Z</time></trkpt><trkpt lat="44.39784224044725" lon="7.538739084308227"><ele>523.0</ele><time>2026-04-19T17:26:49Z</time></trkpt><trkpt lat="44.39792446794711" lon="7.538763606309994"><ele>523.0</ele><time>2026-04-19T17:26:50Z</time></trkpt><trkpt lat="44.3980038782256" lon="7.538758323259244"><ele>523.0</ele><time>2026-04-19T17:26:51Z</time></trkpt><trkpt lat="44.39806513697531" lon="7.538704304775173"><ele>523.0</ele><time>2026-04-19T17:26:52Z</time></trkpt><trkpt lat="44.398098546858336" lon="7.5386195334776644"><ele>523.0</ele><time>2026-04-19T17:26:53Z</time></trkpt><trkpt lat="44.39810061919052" lon="7.538516047036642"><ele>525.25</ele><time>2026-04-19T17:26:54Z</time></trkpt><trkpt lat="44.39806488062008" lon="7.538388995240547"><ele>527.5</ele><time>2026-04-19T17:26:55Z</time></trkpt><trkpt lat="44.39802865583533" lon="7.538246287816693"><ele>529.75</ele><time>2026-04-19T17:26:56Z</time></trkpt><trkpt lat="44.397979129907824" lon="7.538083562667258"><ele>532.0</ele><time>2026-04-19T17:26:57Z</time></trkpt><trkpt lat="44.3979114153514" lon="7.53791087391721"><ele>533.0</ele><time>2026-04-19T17:26:58Z</time></trkpt><trkpt lat="44.397840055871015" lon="7.537717300874364"><ele>534.0</ele><time>2026-04-19T17:26:59Z</time></trkpt><trkpt lat="44.39774102528932" lon="7.537524997476505"><ele>535.0</ele><time>2026-04-19T17:27:00Z</time></trkpt><trkpt lat="44.3976302152634" lon="7.537322636361593"><ele>535.0</ele><time>2026-04-19T17:27:01Z</time></trkpt><trkpt lat="44.39751802011112" lon="7.537111034810431"><ele>535.0</ele><time>2026-04-19T17:27:02Z</time></trkpt><trkpt lat="44.39740181601939" lon="7.536885426436143"><ele>535.0</ele><time>2026-04-19T17:27:03Z</time></trkpt><trkpt lat="44.39728118979683" lon="7.536652816277791"><ele>535.3333333333334</ele><time>2026-04-19T17:27:03.999Z</time></trkpt><trkpt lat="44.397160974097226" lon="7.536420507726353"><ele>535.6666666666666</ele><time>2026-04-19T17:27:04.999Z</time></trkpt><trkpt lat="44.39704620622172" lon="7.536201535122083"><ele>536.0</ele><time>2026-04-19T17:27:05.999Z</time></trkpt><trkpt lat="44.3969375498784" lon="7.535990239234246"><ele>536.0</ele><time>2026-04-19T17:27:06.999Z</time></trkpt><trkpt lat="44.396835357436046" lon="7.535785815471352"><ele>536.0</ele><time>2026-04-19T17:27:07.999Z</time></trkpt><trkpt lat="44.396736749966756" lon="7.535587617791968"><ele>536.0</ele><time>2026-04-19T17:27:08.999Z</time></trkpt><trkpt lat="44.39664298994133" lon="7.5353980142225705"><ele>537.6666666666666</ele><time>2026-04-19T17:27:09.999Z</time></trkpt><trkpt lat="44.3965496141407" lon="7.535214065660771"><ele>539.3333333333334</ele><time>2026-04-19T17:27:10.999Z</time></trkpt><trkpt lat="44.396457709522906" lon="7.535036151732529"><ele>541.0</ele><time>2026-04-19T17:27:11.999Z</time></trkpt><trkpt lat="44.3963716576298" lon="7.5348690725040335"><ele>539.75</ele><time>2026-04-19T17:27:12.999Z</time></trkpt><trkpt lat="44.396291765018105" lon="7.534708823996726"><ele>538.5</ele><time>2026-04-19T17:27:13.999Z</time></trkpt><trkpt lat="44.396216186917805" lon="7.534560968454352"><ele>537.25</ele><time>2026-04-19T17:27:14.999Z</time></trkpt><trkpt lat="44.396144103459584" lon="7.534429476429774"><ele>536.0</ele><time>2026-04-19T17:27:15.999Z</time></trkpt><trkpt lat="44.396078827287624" lon="7.534311161100519"><ele>536.0</ele><time>2026-04-19T17:27:16.999Z</time></trkpt><trkpt lat="44.39601650071591" lon="7.534213651185018"><ele>536.0</ele><time>2026-04-19T17:27:17.999Z</time></trkpt><trkpt lat="44.395960015764324" lon="7.534122363913445"><ele>536.0</ele><time>2026-04-19T17:27:18.999Z</time></trkpt><trkpt lat="44.395924789061546" lon="7.5340260944950375"><ele>536.0</ele><time>2026-04-19T17:27:19.999Z</time></trkpt><trkpt lat="44.395903654369235" lon="7.533942757957162"><ele>536.0</ele><time>2026-04-19T17:27:20.999Z</time></trkpt><trkpt lat="44.39582048934149" lon="7.533845959414036"><ele>536.0</ele><time>2026-04-19T17:27:22.999Z</time></trkpt><trkpt lat="44.39575469168508" lon="7.5338049863561825"><ele>536.0</ele><time>2026-04-19T17:27:24.999Z</time></trkpt><trkpt lat="44.39569319636243" lon="7.533967894813363"><ele>536.0</ele><time>2026-04-19T17:27:25.999Z</time></trkpt><trkpt lat="44.39574173096768" lon="7.534124083610449"><ele>536.0</ele><time>2026-04-19T17:27:27.999Z</time></trkpt><trkpt lat="44.39581150850446" lon="7.534168790967275"><ele>536.0</ele><time>2026-04-19T17:27:28.999Z</time></trkpt><trkpt lat="44.395898181769155" lon="7.534204394450342"><ele>536.0</ele><time>2026-04-19T17:27:29.999Z</time></trkpt><trkpt lat="44.39599253226859" lon="7.53426035689832"><ele>536.0</ele><time>2026-04-19T17:27:30.999Z</time></trkpt><trkpt lat="44.39607932717412" lon="7.534357978869665"><ele>536.0</ele><time>2026-04-19T17:27:31.999Z</time></trkpt><trkpt lat="44.39615852262827" lon="7.534503813979848"><ele>536.0</ele><time>2026-04-19T17:27:32.999Z</time></trkpt><trkpt lat="44.39623897418666" lon="7.5346625812355175"><ele>536.0</ele><time>2026-04-19T17:27:33.999Z</time></trkpt><trkpt lat="44.39632748466002" lon="7.534841538962389"><ele>536.0</ele><time>2026-04-19T17:27:34.999Z</time></trkpt><trkpt lat="44.39642078862755" lon="7.5350361489231465"><ele>536.0</ele><time>2026-04-19T17:27:35.999Z</time></trkpt><trkpt lat="44.39652141251893" lon="7.535240760635538"><ele>536.0</ele><time>2026-04-19T17:27:36.999Z</time></trkpt><trkpt lat="44.39662959373183" lon="7.535458643674413"><ele>536.0</ele><time>2026-04-19T17:27:37.999Z</time></trkpt><trkpt lat="44.39674432960688" lon="7.535688838114842"><ele>536.0</ele><time>2026-04-19T17:27:38.999Z</time></trkpt><trkpt lat="44.3968628168046" lon="7.535926225655544"><ele>536.0</ele><time>2026-04-19T17:27:39.999Z</time></trkpt><trkpt lat="44.39697643937751" lon="7.536148736626557"><ele>536.3333333333333</ele><time>2026-04-19T17:27:40.999Z</time></trkpt><trkpt lat="44.39708608234058" lon="7.536362292823449"><ele>536.6666666666666</ele><time>2026-04-19T17:27:41.999Z</time></trkpt><trkpt lat="44.39719243236362" lon="7.536567541627586"><ele>537.0</ele><time>2026-04-19T17:27:42.999Z</time></trkpt><trkpt lat="44.39729631297432" lon="7.536765826575149"><ele>537.0</ele><time>2026-04-19T17:27:43.999Z</time></trkpt><trkpt lat="44.39739843265458" lon="7.5369554027282"><ele>537.0</ele><time>2026-04-19T17:27:44.999Z</time></trkpt><trkpt lat="44.39749952664927" lon="7.537136968120541"><ele>537.0</ele><time>2026-04-19T17:27:45.999Z</time></trkpt><trkpt lat="44.39759820414536" lon="7.537316442862383"><ele>536.5</ele><time>2026-04-19T17:27:46.999Z</time></trkpt><trkpt lat="44.39768970758127" lon="7.5374912587786955"><ele>536.0</ele><time>2026-04-19T17:27:47.999Z</time></trkpt><trkpt lat="44.397772807572345" lon="7.537662359165575"><ele>535.5</ele><time>2026-04-19T17:27:48.999Z</time></trkpt><trkpt lat="44.39783907734556" lon="7.537829741392799"><ele>535.0</ele><time>2026-04-19T17:27:49.999Z</time></trkpt><trkpt lat="44.397880504971894" lon="7.537994233963205"><ele>534.4</ele><time>2026-04-19T17:27:50.999Z</time></trkpt><trkpt lat="44.39789382716615" lon="7.538151821753806"><ele>533.8</ele><time>2026-04-19T17:27:51.999Z</time></trkpt><trkpt lat="44.39788555318849" lon="7.538298129727849"><ele>533.2</ele><time>2026-04-19T17:27:52.999Z</time></trkpt><trkpt lat="44.39786154576203" lon="7.538432739935765"><ele>532.6</ele><time>2026-04-19T17:27:53.999Z</time></trkpt><trkpt lat="44.397848473654534" lon="7.538561564201448"><ele>532.0</ele><time>2026-04-19T17:27:54.999Z</time></trkpt><trkpt lat="44.397858724908644" lon="7.538665450778372"><ele>532.0</ele><time>2026-04-19T17:27:55.999Z</time></trkpt><trkpt lat="44.39789895804139" lon="7.538750256372917"><ele>532.0</ele><time>2026-04-19T17:27:56.999Z</time></trkpt><trkpt lat="44.39795831818138" lon="7.5388066157169735"><ele>532.0</ele><time>2026-04-19T17:27:57.999Z</time></trkpt><trkpt lat="44.39803746251159" lon="7.538856584256516"><ele>532.0</ele><time>2026-04-19T17:27:58.999Z</time></trkpt><trkpt lat="44.3981299839602" lon="7.538921228529917"><ele>532.0</ele><time>2026-04-19T17:27:59.999Z</time></trkpt><trkpt lat="44.39822877438178" lon="7.539007390820695"><ele>532.0</ele><time>2026-04-19T17:28:01Z</time></trkpt><trkpt lat="44.398332101054436" lon="7.53911203110445"><ele>532.0</ele><time>2026-04-19T17:28:02Z</time></trkpt><trkpt lat="44.39844905726148" lon="7.53923120417632"><ele>532.0</ele><time>2026-04-19T17:28:03Z</time></trkpt><trkpt lat="44.39857799628581" lon="7.539363265143707"><ele>532.0</ele><time>2026-04-19T17:28:04Z</time></trkpt><trkpt lat="44.39870904529779" lon="7.5395338381679995"><ele>532.0</ele><time>2026-04-19T17:28:05Z</time></trkpt><trkpt lat="44.39886196429252" lon="7.539704732408018"><ele>532.0</ele><time>2026-04-19T17:28:06Z</time></trkpt><trkpt lat="44.39902755106955" lon="7.539891159978559"><ele>532.0</ele><time>2026-04-19T17:28:07Z</time></trkpt><trkpt lat="44.399214169875854" lon="7.5400815978125"><ele>532.0</ele><time>2026-04-19T17:28:08Z</time></trkpt><trkpt lat="44.39939537656015" lon="7.540309391106339"><ele>532.0</ele><time>2026-04-19T17:28:09Z</time></trkpt><trkpt lat="44.399581672385324" lon="7.5405247619912235"><ele>532.0</ele><time>2026-04-19T17:28:10Z</time></trkpt><trkpt lat="44.39978576074717" lon="7.540755157311542"><ele>532.0</ele><time>2026-04-19T17:28:11Z</time></trkpt><trkpt lat="44.39998627198147" lon="7.540983048879224"><ele>532.0</ele><time>2026-04-19T17:28:12Z</time></trkpt><trkpt lat="44.400176941180035" lon="7.541191568771613"><ele>532.0</ele><time>2026-04-19T17:28:13Z</time></trkpt><trkpt lat="44.400359776059446" lon="7.541391225221477"><ele>532.0</ele><time>2026-04-19T17:28:14Z</time></trkpt><trkpt lat="44.40053892756766" lon="7.541595428678647"><ele>532.0</ele><time>2026-04-19T17:28:15Z</time></trkpt><trkpt lat="44.40072650471494" lon="7.5418033946794605"><ele>532.0</ele><time>2026-04-19T17:28:16Z</time></trkpt><trkpt lat="44.4009186370103" lon="7.542024161557458"><ele>532.0</ele><time>2026-04-19T17:28:17Z</time></trkpt><trkpt lat="44.40111355824807" lon="7.542243573537327"><ele>533.0</ele><time>2026-04-19T17:28:18Z</time></trkpt><trkpt lat="44.40131412039501" lon="7.542470579313035"><ele>534.0</ele><time>2026-04-19T17:28:19Z</time></trkpt><trkpt lat="44.401513813731206" lon="7.542700357971296"><ele>530.5</ele><time>2026-04-19T17:28:20Z</time></trkpt><trkpt lat="44.40171527695771" lon="7.542928745873173"><ele>527.0</ele><time>2026-04-19T17:28:21Z</time></trkpt><trkpt lat="44.40192173154815" lon="7.543156774456286"><ele>527.0</ele><time>2026-04-19T17:28:22Z</time></trkpt><trkpt lat="44.402125896356026" lon="7.5433902255796825"><ele>527.0</ele><time>2026-04-19T17:28:23Z</time></trkpt><trkpt lat="44.40233256167625" lon="7.5436201411048005"><ele>527.5</ele><time>2026-04-19T17:28:24Z</time></trkpt><trkpt lat="44.40252992013525" lon="7.543841333107369"><ele>528.0</ele><time>2026-04-19T17:28:25Z</time></trkpt><trkpt lat="44.402718165563584" lon="7.544051379431191"><ele>528.0</ele><time>2026-04-19T17:28:26Z</time></trkpt><trkpt lat="44.402902540519406" lon="7.544259053249194"><ele>528.0</ele><time>2026-04-19T17:28:27Z</time></trkpt><trkpt lat="44.40309514704832" lon="7.544470119334614"><ele>528.0</ele><time>2026-04-19T17:28:28Z</time></trkpt><trkpt lat="44.40329254472432" lon="7.544687791142646"><ele>528.0</ele><time>2026-04-19T17:28:29Z</time></trkpt><trkpt lat="44.40349256495369" lon="7.544913384897388"><ele>528.0</ele><time>2026-04-19T17:28:30Z</time></trkpt><trkpt lat="44.4036956110317" lon="7.545140965118449"><ele>528.0</ele><time>2026-04-19T17:28:31Z</time></trkpt><trkpt lat="44.40389544727459" lon="7.545366766597107"><ele>528.0</ele><time>2026-04-19T17:28:32Z</time></trkpt><trkpt lat="44.404081297260134" lon="7.545576722309784"><ele>528.0</ele><time>2026-04-19T17:28:33Z</time></trkpt><trkpt lat="44.40426008736926" lon="7.545783833681024"><ele>528.0</ele><time>2026-04-19T17:28:34Z</time></trkpt><trkpt lat="44.40442711635517" lon="7.545970685009434"><ele>528.0</ele><time>2026-04-19T17:28:35Z</time></trkpt><trkpt lat="44.40458643662175" lon="7.546144449147583"><ele>528.0</ele><time>2026-04-19T17:28:36Z</time></trkpt><trkpt lat="44.40473916018035" lon="7.546321805516755"><ele>527.6666666666666</ele><time>2026-04-19T17:28:37Z</time></trkpt><trkpt lat="44.40488986489695" lon="7.546481775663789"><ele>527.3333333333333</ele><time>2026-04-19T17:28:38Z</time></trkpt><trkpt lat="44.405035320030414" lon="7.546645741525719"><ele>527.0</ele><time>2026-04-19T17:28:39Z</time></trkpt><trkpt lat="44.40516541650032" lon="7.546807103063282"><ele>527.0</ele><time>2026-04-19T17:28:40Z</time></trkpt><trkpt lat="44.40530498040885" lon="7.546966580299398"><ele>527.0</ele><time>2026-04-19T17:28:41Z</time></trkpt><trkpt lat="44.405451208945564" lon="7.547131494168245"><ele>527.0</ele><time>2026-04-19T17:28:42Z</time></trkpt><trkpt lat="44.40559120990603" lon="7.547293496520632"><ele>526.3333333333333</ele><time>2026-04-19T17:28:43Z</time></trkpt><trkpt lat="44.40572623528545" lon="7.547448575915804"><ele>525.6666666666666</ele><time>2026-04-19T17:28:44Z</time></trkpt><trkpt lat="44.40585523415252" lon="7.54759782080186"><ele>525.0</ele><time>2026-04-19T17:28:45Z</time></trkpt><trkpt lat="44.405976343867096" lon="7.547749902336895"><ele>524.6666666666666</ele><time>2026-04-19T17:28:46Z</time></trkpt><trkpt lat="44.40609691252912" lon="7.547901324675479"><ele>524.3333333333333</ele><time>2026-04-19T17:28:47Z</time></trkpt><trkpt lat="44.406214503830064" lon="7.548053266754812"><ele>524.0</ele><time>2026-04-19T17:28:48Z</time></trkpt><trkpt lat="44.40632863380831" lon="7.54820394237945"><ele>524.0</ele><time>2026-04-19T17:28:49Z</time></trkpt><trkpt lat="44.40644013972261" lon="7.548348457275134"><ele>524.0</ele><time>2026-04-19T17:28:50Z</time></trkpt><trkpt lat="44.40654092073089" lon="7.5484799295707745"><ele>524.0</ele><time>2026-04-19T17:28:51Z</time></trkpt><trkpt lat="44.40662633550301" lon="7.548597421496388"><ele>524.0</ele><time>2026-04-19T17:28:52Z</time></trkpt><trkpt lat="44.40670049135139" lon="7.548699984996356"><ele>524.0</ele><time>2026-04-19T17:28:53Z</time></trkpt><trkpt lat="44.406760156087806" lon="7.548790295981943"><ele>524.0</ele><time>2026-04-19T17:28:54Z</time></trkpt><trkpt lat="44.40680235653999" lon="7.548874954632106"><ele>524.0</ele><time>2026-04-19T17:28:55Z</time></trkpt><trkpt lat="44.406822617878646" lon="7.5489685793176635"><ele>524.0</ele><time>2026-04-19T17:28:56Z</time></trkpt><trkpt lat="44.40684648841122" lon="7.5490594125872414"><ele>524.0</ele><time>2026-04-19T17:28:57Z</time></trkpt><trkpt lat="44.40691443308866" lon="7.549210439108372"><ele>524.0</ele><time>2026-04-19T17:28:59Z</time></trkpt><trkpt lat="44.40699205225871" lon="7.549267923827425"><ele>524.0</ele><time>2026-04-19T17:29:00Z</time></trkpt><trkpt lat="44.407090924727406" lon="7.549312584057671"><ele>524.0</ele><time>2026-04-19T17:29:01Z</time></trkpt><trkpt lat="44.407201397053726" lon="7.549383917874896"><ele>524.0</ele><time>2026-04-19T17:29:02Z</time></trkpt><trkpt lat="44.40730986117488" lon="7.549513075623376"><ele>524.0</ele><time>2026-04-19T17:29:03Z</time></trkpt><trkpt lat="44.40742511632426" lon="7.549685094680475"><ele>523.3333333333333</ele><time>2026-04-19T17:29:04Z</time></trkpt><trkpt lat="44.40756081133697" lon="7.549876896096992"><ele>522.6666666666666</ele><time>2026-04-19T17:29:05Z</time></trkpt><trkpt lat="44.40770689176141" lon="7.5500764202722594"><ele>522.0</ele><time>2026-04-19T17:29:06Z</time></trkpt><trkpt lat="44.40785906380304" lon="7.550288322482151"><ele>522.0</ele><time>2026-04-19T17:29:07Z</time></trkpt><trkpt lat="44.40799626075187" lon="7.550481748774465"><ele>522.0</ele><time>2026-04-19T17:29:08Z</time></trkpt><trkpt lat="44.40812684080088" lon="7.550662101669415"><ele>522.0</ele><time>2026-04-19T17:29:09Z</time></trkpt><trkpt lat="44.40825252372903" lon="7.550835190055554"><ele>522.0</ele><time>2026-04-19T17:29:09.999Z</time></trkpt><trkpt lat="44.408374629985296" lon="7.5510007912680654"><ele>522.0</ele><time>2026-04-19T17:29:10.999Z</time></trkpt><trkpt lat="44.408492665319805" lon="7.5511617126605035"><ele>522.0</ele><time>2026-04-19T17:29:11.999Z</time></trkpt><trkpt lat="44.40860835813189" lon="7.551320213002297"><ele>522.0</ele><time>2026-04-19T17:29:12.999Z</time></trkpt><trkpt lat="44.408726733395184" lon="7.551486214103217"><ele>522.0</ele><time>2026-04-19T17:29:13.999Z</time></trkpt><trkpt lat="44.40885278051647" lon="7.551662896190829"><ele>522.0</ele><time>2026-04-19T17:29:14.999Z</time></trkpt><trkpt lat="44.40898157464558" lon="7.5518419659554645"><ele>522.0</ele><time>2026-04-19T17:29:15.999Z</time></trkpt><trkpt lat="44.40910248201363" lon="7.552009035907416"><ele>522.0</ele><time>2026-04-19T17:29:16.999Z</time></trkpt><trkpt lat="44.409216550394135" lon="7.552167145469986"><ele>522.0</ele><time>2026-04-19T17:29:17.999Z</time></trkpt><trkpt lat="44.40932937616121" lon="7.552313099764146"><ele>521.5</ele><time>2026-04-19T17:29:18.999Z</time></trkpt><trkpt lat="44.409448193808394" lon="7.552437393370337"><ele>521.0</ele><time>2026-04-19T17:29:19.999Z</time></trkpt><trkpt lat="44.40957089695145" lon="7.552540578338201"><ele>520.5</ele><time>2026-04-19T17:29:20.999Z</time></trkpt><trkpt lat="44.409697021159865" lon="7.552616896716522"><ele>520.0</ele><time>2026-04-19T17:29:21.999Z</time></trkpt><trkpt lat="44.40982393895253" lon="7.552663609993029"><ele>520.0</ele><time>2026-04-19T17:29:22.999Z</time></trkpt><trkpt lat="44.40995087204436" lon="7.552685690040803"><ele>520.0</ele><time>2026-04-19T17:29:23.999Z</time></trkpt><trkpt lat="44.4100780066601" lon="7.552695482738492"><ele>520.0</ele><time>2026-04-19T17:29:24.999Z</time></trkpt><trkpt lat="44.41020434777493" lon="7.552692595003632"><ele>520.0</ele><time>2026-04-19T17:29:25.999Z</time></trkpt><trkpt lat="44.41032468339908" lon="7.552672621347457"><ele>520.0</ele><time>2026-04-19T17:29:26.999Z</time></trkpt><trkpt lat="44.41043808109881" lon="7.552629739056817"><ele>520.0</ele><time>2026-04-19T17:29:27.999Z</time></trkpt><trkpt lat="44.41054401431112" lon="7.55256646360939"><ele>520.0</ele><time>2026-04-19T17:29:28.999Z</time></trkpt><trkpt lat="44.41065170863492" lon="7.552495385674182"><ele>520.0</ele><time>2026-04-19T17:29:29.999Z</time></trkpt><trkpt lat="44.41090497486678" lon="7.552347423536699"><ele>520.0</ele><time>2026-04-19T17:29:31.999Z</time></trkpt><trkpt lat="44.411041731568936" lon="7.5522863598538175"><ele>520.0</ele><time>2026-04-19T17:29:32.999Z</time></trkpt><trkpt lat="44.411166849489724" lon="7.5522413941531426"><ele>520.0</ele><time>2026-04-19T17:29:33.999Z</time></trkpt><trkpt lat="44.41128158445658" lon="7.552222697144786"><ele>520.0</ele><time>2026-04-19T17:29:34.999Z</time></trkpt><trkpt lat="44.41139036579" lon="7.552229605406432"><ele>519.6</ele><time>2026-04-19T17:29:35.999Z</time></trkpt><trkpt lat="44.41148601445557" lon="7.5522579415621"><ele>519.2</ele><time>2026-04-19T17:29:36.999Z</time></trkpt><trkpt lat="44.41157024627017" lon="7.552282592270399"><ele>518.8</ele><time>2026-04-19T17:29:37.999Z</time></trkpt><trkpt lat="44.41164548813332" lon="7.552266015030683"><ele>518.4</ele><time>2026-04-19T17:29:38.999Z</time></trkpt><trkpt lat="44.41169508417893" lon="7.552208595974987"><ele>518.0</ele><time>2026-04-19T17:29:39.999Z</time></trkpt><trkpt lat="44.411727095203595" lon="7.552034325798357"><ele>518.0</ele><time>2026-04-19T17:29:41.999Z</time></trkpt><trkpt lat="44.4117516841845" lon="7.551917611705508"><ele>518.0</ele><time>2026-04-19T17:29:42.999Z</time></trkpt><trkpt lat="44.4118053687706" lon="7.551792072352256"><ele>518.0</ele><time>2026-04-19T17:29:43.999Z</time></trkpt><trkpt lat="44.4118528707928" lon="7.5516719866083015"><ele>518.0</ele><time>2026-04-19T17:29:44.999Z</time></trkpt><trkpt lat="44.41197990867639" lon="7.551624143495229"><ele>518.0</ele><time>2026-04-19T17:29:45.999Z</time></trkpt><trkpt lat="44.41206678181366" lon="7.551565447588042"><ele>518.0</ele><time>2026-04-19T17:29:46.999Z</time></trkpt><trkpt lat="44.41215104984342" lon="7.551510333760722"><ele>518.0</ele><time>2026-04-19T17:29:47.999Z</time></trkpt><trkpt lat="44.41224315588662" lon="7.5514498943506165"><ele>518.0</ele><time>2026-04-19T17:29:48.999Z</time></trkpt><trkpt lat="44.41235403802885" lon="7.55137495316442"><ele>518.0</ele><time>2026-04-19T17:29:49.999Z</time></trkpt><trkpt lat="44.41247727897491" lon="7.551289372038355"><ele>518.3333333333333</ele><time>2026-04-19T17:29:50.999Z</time></trkpt><trkpt lat="44.412609902192386" lon="7.55119767844698"><ele>518.6666666666666</ele><time>2026-04-19T17:29:51.999Z</time></trkpt><trkpt lat="44.41274934954867" lon="7.551100982322945"><ele>519.0</ele><time>2026-04-19T17:29:52.999Z</time></trkpt><trkpt lat="44.41289561474839" lon="7.551000808571707"><ele>518.0</ele><time>2026-04-19T17:29:53.999Z</time></trkpt><trkpt lat="44.41304610658972" lon="7.550893647951593"><ele>517.0</ele><time>2026-04-19T17:29:54.999Z</time></trkpt><trkpt lat="44.413202394471384" lon="7.550783745060665"><ele>516.0</ele><time>2026-04-19T17:29:55.999Z</time></trkpt><trkpt lat="44.413361855154385" lon="7.550675576059106"><ele>516.0</ele><time>2026-04-19T17:29:56.999Z</time></trkpt><trkpt lat="44.41351816723503" lon="7.55057351689773"><ele>516.0</ele><time>2026-04-19T17:29:57.999Z</time></trkpt><trkpt lat="44.41367192041933" lon="7.5504732998976225"><ele>516.0</ele><time>2026-04-19T17:29:58.999Z</time></trkpt><trkpt lat="44.41382339702309" lon="7.55037064967731"><ele>516.6666666666666</ele><time>2026-04-19T17:29:59.999Z</time></trkpt><trkpt lat="44.41397341995751" lon="7.550265107275351"><ele>517.3333333333333</ele><time>2026-04-19T17:30:00.999Z</time></trkpt><trkpt lat="44.41412295128981" lon="7.550159258060411"><ele>518.0</ele><time>2026-04-19T17:30:01.999Z</time></trkpt><trkpt lat="44.41427155809559" lon="7.5500525875307485"><ele>518.0</ele><time>2026-04-19T17:30:02.999Z</time></trkpt><trkpt lat="44.414425192468414" lon="7.549948174721877"><ele>518.0</ele><time>2026-04-19T17:30:03.999Z</time></trkpt><trkpt lat="44.41458365983586" lon="7.549842214963847"><ele>518.0</ele><time>2026-04-19T17:30:04.999Z</time></trkpt><trkpt lat="44.41474499940778" lon="7.549733996953689"><ele>517.6666666666666</ele><time>2026-04-19T17:30:06Z</time></trkpt><trkpt lat="44.414909852373086" lon="7.54962622818075"><ele>517.3333333333334</ele><time>2026-04-19T17:30:07Z</time></trkpt><trkpt lat="44.41507577029637" lon="7.549514712061508"><ele>517.0</ele><time>2026-04-19T17:30:08Z</time></trkpt><trkpt lat="44.41524292048232" lon="7.549398998032115"><ele>517.0</ele><time>2026-04-19T17:30:09Z</time></trkpt><trkpt lat="44.4154090379934" lon="7.549280431286387"><ele>517.0</ele><time>2026-04-19T17:30:10Z</time></trkpt><trkpt lat="44.41558360822773" lon="7.549184645914246"><ele>517.0</ele><time>2026-04-19T17:30:11Z</time></trkpt><trkpt lat="44.41575264512551" lon="7.549070008993646"><ele>516.3333333333334</ele><time>2026-04-19T17:30:12Z</time></trkpt><trkpt lat="44.415919566038376" lon="7.548955939415367"><ele>515.6666666666666</ele><time>2026-04-19T17:30:13Z</time></trkpt><trkpt lat="44.41606778825347" lon="7.548829351483261"><ele>515.0</ele><time>2026-04-19T17:30:14Z</time></trkpt><trkpt lat="44.416227086248824" lon="7.548745190731734"><ele>514.6666666666666</ele><time>2026-04-19T17:30:15Z</time></trkpt><trkpt lat="44.416374597355194" lon="7.548644708963777"><ele>514.3333333333334</ele><time>2026-04-19T17:30:16Z</time></trkpt><trkpt lat="44.41651927554117" lon="7.548546593994036"><ele>514.0</ele><time>2026-04-19T17:30:17Z</time></trkpt><trkpt lat="44.416670990485386" lon="7.548444597907806"><ele>514.0</ele><time>2026-04-19T17:30:18Z</time></trkpt><trkpt lat="44.416823806018336" lon="7.548315199459385"><ele>514.0</ele><time>2026-04-19T17:30:19Z</time></trkpt><trkpt lat="44.41698944778075" lon="7.5482048321161965"><ele>514.0</ele><time>2026-04-19T17:30:20Z</time></trkpt><trkpt lat="44.417150260830596" lon="7.548097499057048"><ele>514.0</ele><time>2026-04-19T17:30:21Z</time></trkpt><trkpt lat="44.417310761523844" lon="7.547990881097908"><ele>514.0</ele><time>2026-04-19T17:30:22Z</time></trkpt><trkpt lat="44.41746909441726" lon="7.547888920017372"><ele>514.0</ele><time>2026-04-19T17:30:23Z</time></trkpt><trkpt lat="44.41762509704017" lon="7.547785393308359"><ele>514.3333333333334</ele><time>2026-04-19T17:30:24Z</time></trkpt><trkpt lat="44.41777809131061" lon="7.547682369036168"><ele>514.6666666666666</ele><time>2026-04-19T17:30:25Z</time></trkpt><trkpt lat="44.417927404982365" lon="7.547581522382779"><ele>515.0</ele><time>2026-04-19T17:30:26Z</time></trkpt><trkpt lat="44.41807440528134" lon="7.547480340087417"><ele>514.3333333333333</ele><time>2026-04-19T17:30:27Z</time></trkpt><trkpt lat="44.418217505438" lon="7.547381606142716"><ele>513.6666666666666</ele><time>2026-04-19T17:30:28Z</time></trkpt><trkpt lat="44.418356489416354" lon="7.547281310630849"><ele>513.0</ele><time>2026-04-19T17:30:29Z</time></trkpt><trkpt lat="44.418492860970346" lon="7.547185833359365"><ele>513.0</ele><time>2026-04-19T17:30:30Z</time></trkpt><trkpt lat="44.41862700635033" lon="7.547094883170911"><ele>513.0</ele><time>2026-04-19T17:30:31Z</time></trkpt><trkpt lat="44.418754425267224" lon="7.547008490349517"><ele>513.0</ele><time>2026-04-19T17:30:32Z</time></trkpt><trkpt lat="44.418876168937615" lon="7.5469292082207895"><ele>513.0</ele><time>2026-04-19T17:30:33Z</time></trkpt><trkpt lat="44.41898828018412" lon="7.546850818564637"><ele>512.6</ele><time>2026-04-19T17:30:34Z</time></trkpt><trkpt lat="44.41909615510893" lon="7.546774238470534"><ele>512.1999999999999</ele><time>2026-04-19T17:30:35Z</time></trkpt><trkpt lat="44.419198229353064" lon="7.546708752127705"><ele>511.8</ele><time>2026-04-19T17:30:36Z</time></trkpt><trkpt lat="44.41929383049593" lon="7.546645411319089"><ele>511.4</ele><time>2026-04-19T17:30:37Z</time></trkpt><trkpt lat="44.419388240003016" lon="7.546589284602845"><ele>511.0</ele><time>2026-04-19T17:30:38Z</time></trkpt><trkpt lat="44.419480557235794" lon="7.546535711552734"><ele>511.00000000000006</ele><time>2026-04-19T17:30:39Z</time></trkpt><trkpt lat="44.41956304601143" lon="7.546493083602031"><ele>511.0</ele><time>2026-04-19T17:30:40Z</time></trkpt><trkpt lat="44.41963886591891" lon="7.546463930968885"><ele>511.0</ele><time>2026-04-19T17:30:41Z</time></trkpt><trkpt lat="44.4197184374775" lon="7.546460192989789"><ele>511.0</ele><time>2026-04-19T17:30:42Z</time></trkpt><trkpt lat="44.41979375555203" lon="7.546477274233985"><ele>511.00000000000006</ele><time>2026-04-19T17:30:43Z</time></trkpt><trkpt lat="44.41986850061972" lon="7.546486725604072"><ele>511.0</ele><time>2026-04-19T17:30:44Z</time></trkpt><trkpt lat="44.41993642033123" lon="7.546463960070825"><ele>511.1666666666667</ele><time>2026-04-19T17:30:45Z</time></trkpt><trkpt lat="44.42000025372773" lon="7.546425004321772"><ele>511.33333333333337</ele><time>2026-04-19T17:30:46Z</time></trkpt><trkpt lat="44.420041836843616" lon="7.546349105149884"><ele>511.5</ele><time>2026-04-19T17:30:47Z</time></trkpt><trkpt lat="44.42007941963073" lon="7.546266475398871"><ele>511.66666666666663</ele><time>2026-04-19T17:30:48Z</time></trkpt><trkpt lat="44.42012887893142" lon="7.546180633136057"><ele>511.8333333333333</ele><time>2026-04-19T17:30:49Z</time></trkpt><trkpt lat="44.420202018933885" lon="7.546096748231285"><ele>512.0</ele><time>2026-04-19T17:30:50Z</time></trkpt><trkpt lat="44.420283748522216" lon="7.54601781369665"><ele>512.0</ele><time>2026-04-19T17:30:51Z</time></trkpt><trkpt lat="44.420374037660494" lon="7.5459409145729115"><ele>512.0</ele><time>2026-04-19T17:30:52Z</time></trkpt><trkpt lat="44.42047404344733" lon="7.54586218843996"><ele>512.0</ele><time>2026-04-19T17:30:53Z</time></trkpt><trkpt lat="44.420576825792914" lon="7.545787966893748"><ele>512.0</ele><time>2026-04-19T17:30:54Z</time></trkpt><trkpt lat="44.420673288961154" lon="7.545714281987549"><ele>512.0</ele><time>2026-04-19T17:30:55Z</time></trkpt><trkpt lat="44.420764278620595" lon="7.545649063432388"><ele>511.8</ele><time>2026-04-19T17:30:56Z</time></trkpt><trkpt lat="44.42084688350428" lon="7.54559138394001"><ele>511.6</ele><time>2026-04-19T17:30:57Z</time></trkpt><trkpt lat="44.42091263649411" lon="7.5455403587195"><ele>511.40000000000003</ele><time>2026-04-19T17:30:58Z</time></trkpt><trkpt lat="44.42100906312983" lon="7.54549806721568"><ele>511.20000000000005</ele><time>2026-04-19T17:31:00Z</time></trkpt><trkpt lat="44.42095977388257" lon="7.545288779138911"><ele>511.0</ele><time>2026-04-19T17:31:01Z</time></trkpt><trkpt lat="44.4209220253439" lon="7.5451596054710075"><ele>511.5</ele><time>2026-04-19T17:31:02Z</time></trkpt><trkpt lat="44.42086576628696" lon="7.545025557644108"><ele>512.0</ele><time>2026-04-19T17:31:03Z</time></trkpt><trkpt lat="44.42080011362754" lon="7.544878393924373"><ele>512.5</ele><time>2026-04-19T17:31:04Z</time></trkpt><trkpt lat="44.42072870832344" lon="7.544717022734869"><ele>513.0</ele><time>2026-04-19T17:31:05Z</time></trkpt><trkpt lat="44.42067670618309" lon="7.544531904492852"><ele>513.0</ele><time>2026-04-19T17:31:06Z</time></trkpt><trkpt lat="44.42061453329777" lon="7.544356443854411"><ele>513.0</ele><time>2026-04-19T17:31:07Z</time></trkpt><trkpt lat="44.42055551713174" lon="7.544189892019715"><ele>513.0</ele><time>2026-04-19T17:31:08Z</time></trkpt><trkpt lat="44.42049765428338" lon="7.544029410790326"><ele>513.0</ele><time>2026-04-19T17:31:09Z</time></trkpt><trkpt lat="44.42042910030588" lon="7.543882986007507"><ele>512.8</ele><time>2026-04-19T17:31:10Z</time></trkpt><trkpt lat="44.42037546809125" lon="7.543735745661271"><ele>512.5999999999999</ele><time>2026-04-19T17:31:11Z</time></trkpt><trkpt lat="44.42032141055518" lon="7.54360015066595"><ele>512.4000000000001</ele><time>2026-04-19T17:31:12Z</time></trkpt><trkpt lat="44.42028052165067" lon="7.543470182866621"><ele>512.2</ele><time>2026-04-19T17:31:13Z</time></trkpt><trkpt lat="44.42025987640584" lon="7.543337114327805"><ele>512.0</ele><time>2026-04-19T17:31:14Z</time></trkpt><trkpt lat="44.4202534717362" lon="7.5432052801840355"><ele>512.0</ele><time>2026-04-19T17:31:15Z</time></trkpt><trkpt lat="44.42026289452127" lon="7.543081029571348"><ele>512.0</ele><time>2026-04-19T17:31:16Z</time></trkpt><trkpt lat="44.420280955523886" lon="7.542961535024539"><ele>512.0</ele><time>2026-04-19T17:31:17Z</time></trkpt><trkpt lat="44.4203216139277" lon="7.542848241139335"><ele>512.0</ele><time>2026-04-19T17:31:18Z</time></trkpt><trkpt lat="44.420345367968544" lon="7.542722244329315"><ele>512.0</ele><time>2026-04-19T17:31:18.999Z</time></trkpt><trkpt lat="44.42036789723542" lon="7.542600614386505"><ele>512.0</ele><time>2026-04-19T17:31:19.999Z</time></trkpt><trkpt lat="44.42038947254103" lon="7.542486204885146"><ele>512.0</ele><time>2026-04-19T17:31:20.999Z</time></trkpt><trkpt lat="44.420457209688486" lon="7.542417279848103"><ele>512.0</ele><time>2026-04-19T17:31:21.999Z</time></trkpt><trkpt lat="44.42052582810639" lon="7.542348099334566"><ele>512.0</ele><time>2026-04-19T17:31:22.999Z</time></trkpt><trkpt lat="44.420602000699844" lon="7.542246257249098"><ele>512.0</ele><time>2026-04-19T17:31:23.999Z</time></trkpt><trkpt lat="44.420705393145425" lon="7.542153257415081"><ele>512.0</ele><time>2026-04-19T17:31:24.999Z</time></trkpt><trkpt lat="44.42081813342523" lon="7.54205133714158"><ele>512.0</ele><time>2026-04-19T17:31:25.999Z</time></trkpt><trkpt lat="44.42093933236801" lon="7.541938290177634"><ele>512.0</ele><time>2026-04-19T17:31:26.999Z</time></trkpt><trkpt lat="44.42106745379075" lon="7.541812263220276"><ele>512.0</ele><time>2026-04-19T17:31:27.999Z</time></trkpt><trkpt lat="44.42120789657144" lon="7.541706260106892"><ele>511.5</ele><time>2026-04-19T17:31:28.999Z</time></trkpt><trkpt lat="44.421335444397464" lon="7.541591591582892"><ele>511.0</ele><time>2026-04-19T17:31:29.999Z</time></trkpt><trkpt lat="44.4214583170534" lon="7.541474880231083"><ele>510.5</ele><time>2026-04-19T17:31:30.999Z</time></trkpt><trkpt lat="44.42157636044842" lon="7.541355300975012"><ele>510.0</ele><time>2026-04-19T17:31:31.999Z</time></trkpt><trkpt lat="44.421669953441985" lon="7.541200289863427"><ele>510.0</ele><time>2026-04-19T17:31:32.999Z</time></trkpt><trkpt lat="44.42176907793164" lon="7.541062975943142"><ele>510.0</ele><time>2026-04-19T17:31:33.999Z</time></trkpt><trkpt lat="44.42196595353735" lon="7.540805127412552"><ele>510.0</ele><time>2026-04-19T17:31:35.999Z</time></trkpt><trkpt lat="44.42207196983496" lon="7.540679813146803"><ele>510.0</ele><time>2026-04-19T17:31:36.999Z</time></trkpt><trkpt lat="44.42218737681576" lon="7.540560590791942"><ele>510.0</ele><time>2026-04-19T17:31:37.999Z</time></trkpt><trkpt lat="44.42230957601145" lon="7.5404463496556025"><ele>510.0</ele><time>2026-04-19T17:31:38.999Z</time></trkpt><trkpt lat="44.4224411349783" lon="7.5403204012334815"><ele>510.0</ele><time>2026-04-19T17:31:39.999Z</time></trkpt><trkpt lat="44.42257894631219" lon="7.54018207910406"><ele>510.0</ele><time>2026-04-19T17:31:40.999Z</time></trkpt><trkpt lat="44.42272559350272" lon="7.5400373247329044"><ele>510.0</ele><time>2026-04-19T17:31:41.999Z</time></trkpt><trkpt lat="44.4228773545548" lon="7.539888755309574"><ele>509.66666666666663</ele><time>2026-04-19T17:31:42.999Z</time></trkpt><trkpt lat="44.42302276384031" lon="7.539745443219527"><ele>509.3333333333333</ele><time>2026-04-19T17:31:43.999Z</time></trkpt><trkpt lat="44.42316611257432" lon="7.539600204300016"><ele>509.0</ele><time>2026-04-19T17:31:44.999Z</time></trkpt><trkpt lat="44.42330670326298" lon="7.539461707536576"><ele>509.0</ele><time>2026-04-19T17:31:45.999Z</time></trkpt><trkpt lat="44.42344602226037" lon="7.539334065571503"><ele>509.0</ele><time>2026-04-19T17:31:46.999Z</time></trkpt><trkpt lat="44.42358111891416" lon="7.539213842280333"><ele>509.0</ele><time>2026-04-19T17:31:47.999Z</time></trkpt><trkpt lat="44.42370877662484" lon="7.539100802905899"><ele>509.0</ele><time>2026-04-19T17:31:48.999Z</time></trkpt><trkpt lat="44.423826548648854" lon="7.538996181970786"><ele>509.0</ele><time>2026-04-19T17:31:49.999Z</time></trkpt><trkpt lat="44.423936745924806" lon="7.538895522145189"><ele>509.0</ele><time>2026-04-19T17:31:50.999Z</time></trkpt><trkpt lat="44.42403771372043" lon="7.538801783078808"><ele>509.0</ele><time>2026-04-19T17:31:51.999Z</time></trkpt><trkpt lat="44.42412430992036" lon="7.538719322034492"><ele>509.2</ele><time>2026-04-19T17:31:52.999Z</time></trkpt><trkpt lat="44.42422120228391" lon="7.538688729793835"><ele>509.4</ele><time>2026-04-19T17:31:53.999Z</time></trkpt><trkpt lat="44.42428268629821" lon="7.5386313385988455"><ele>509.6</ele><time>2026-04-19T17:31:54.999Z</time></trkpt><trkpt lat="44.42437760817299" lon="7.538601906323384"><ele>509.8</ele><time>2026-04-19T17:31:56.999Z</time></trkpt><trkpt lat="44.424464435601706" lon="7.538603268628796"><ele>510.0</ele><time>2026-04-19T17:31:58.999Z</time></trkpt><trkpt lat="44.42459667585352" lon="7.538518261465308"><ele>509.25</ele><time>2026-04-19T17:32:00.999Z</time></trkpt><trkpt lat="44.424675182154495" lon="7.538422585843616"><ele>508.5</ele><time>2026-04-19T17:32:01.999Z</time></trkpt><trkpt lat="44.4247765331455" lon="7.5383355235496765"><ele>507.75</ele><time>2026-04-19T17:32:02.999Z</time></trkpt><trkpt lat="44.424881209111106" lon="7.538246001614593"><ele>507.0</ele><time>2026-04-19T17:32:03.999Z</time></trkpt><trkpt lat="44.42497773154177" lon="7.538165913032295"><ele>507.0</ele><time>2026-04-19T17:32:04.999Z</time></trkpt><trkpt lat="44.42507031988605" lon="7.538087425630438"><ele>507.00000000000006</ele><time>2026-04-19T17:32:05.999Z</time></trkpt><trkpt lat="44.42515554382147" lon="7.538016986154946"><ele>507.00000000000006</ele><time>2026-04-19T17:32:06.999Z</time></trkpt><trkpt lat="44.42522565448396" lon="7.537958830603347"><ele>507.0</ele><time>2026-04-19T17:32:07.999Z</time></trkpt><trkpt lat="44.425311047971206" lon="7.53787104607775"><ele>507.0</ele><time>2026-04-19T17:32:09.999Z</time></trkpt><trkpt lat="44.42526685948088" lon="7.537596805759725"><ele>507.0</ele><time>2026-04-19T17:32:13Z</time></trkpt><trkpt lat="44.425208756459526" lon="7.537425386282012"><ele>507.0</ele><time>2026-04-19T17:32:14Z</time></trkpt><trkpt lat="44.42516406024033" lon="7.537216392103357"><ele>507.0</ele><time>2026-04-19T17:32:15Z</time></trkpt><trkpt lat="44.42510268407213" lon="7.53706850123064"><ele>507.0</ele><time>2026-04-19T17:32:16Z</time></trkpt><trkpt lat="44.42507008351029" lon="7.536946198022084"><ele>507.0</ele><time>2026-04-19T17:32:17Z</time></trkpt><trkpt lat="44.42503667685821" lon="7.5368474408636095"><ele>507.00000000000006</ele><time>2026-04-19T17:32:18Z</time></trkpt><trkpt lat="44.42500005761298" lon="7.536724865344806"><ele>507.00000000000006</ele><time>2026-04-19T17:32:20Z</time></trkpt><trkpt lat="44.42505458562406" lon="7.536847033681568"><ele>507.0</ele><time>2026-04-19T17:34:07.999Z</time></trkpt><trkpt lat="44.42509521396989" lon="7.537048392025895"><ele>507.0</ele><time>2026-04-19T17:34:08.999Z</time></trkpt><trkpt lat="44.4251473976952" lon="7.537218756937456"><ele>507.0</ele><time>2026-04-19T17:34:09.999Z</time></trkpt><trkpt lat="44.42520246840144" lon="7.537397247560431"><ele>507.00000000000006</ele><time>2026-04-19T17:34:10.999Z</time></trkpt><trkpt lat="44.42524569023239" lon="7.537538484607825"><ele>507.00000000000006</ele><time>2026-04-19T17:34:11.999Z</time></trkpt><trkpt lat="44.42528015360582" lon="7.537643595391381"><ele>507.0</ele><time>2026-04-19T17:34:12.999Z</time></trkpt><trkpt lat="44.42530648306546" lon="7.537727778359243"><ele>507.0</ele><time>2026-04-19T17:34:13.999Z</time></trkpt><trkpt lat="44.42531778797373" lon="7.537855327295765"><ele>507.0</ele><time>2026-04-19T17:34:15.999Z</time></trkpt><trkpt lat="44.42524618224815" lon="7.537944119023578"><ele>507.00000000000006</ele><time>2026-04-19T17:34:18.001Z</time></trkpt><trkpt lat="44.42517892670585" lon="7.537987712631865"><ele>507.00000000000006</ele><time>2026-04-19T17:34:19.001Z</time></trkpt><trkpt lat="44.42509627461786" lon="7.5380637590802335"><ele>507.0</ele><time>2026-04-19T17:34:20.001Z</time></trkpt><trkpt lat="44.424973699734146" lon="7.538175959504457"><ele>507.0</ele><time>2026-04-19T17:34:21.001Z</time></trkpt><trkpt lat="44.42481151614473" lon="7.538314317189798"><ele>507.0</ele><time>2026-04-19T17:34:22.001Z</time></trkpt><trkpt lat="44.42467653544448" lon="7.538422905571978"><ele>507.00000000000006</ele><time>2026-04-19T17:34:23.001Z</time></trkpt><trkpt lat="44.42458205045092" lon="7.538501781840429"><ele>507.00000000000006</ele><time>2026-04-19T17:34:24.001Z</time></trkpt><trkpt lat="44.424512736907914" lon="7.538558937253392"><ele>507.0</ele><time>2026-04-19T17:34:25.001Z</time></trkpt><trkpt lat="44.42445295464355" lon="7.538629902364092"><ele>507.0</ele><time>2026-04-19T17:34:27.001Z</time></trkpt><trkpt lat="44.424510066933415" lon="7.5388301568812555"><ele>507.33333333333337</ele><time>2026-04-19T17:34:30.001Z</time></trkpt><trkpt lat="44.42458230265676" lon="7.538995546484169"><ele>507.6666666666667</ele><time>2026-04-19T17:34:31.001Z</time></trkpt><trkpt lat="44.424668324244706" lon="7.539193969579325"><ele>508.0</ele><time>2026-04-19T17:34:32.001Z</time></trkpt><trkpt lat="44.424776335262855" lon="7.539440425967884"><ele>509.0</ele><time>2026-04-19T17:34:33.001Z</time></trkpt><trkpt lat="44.42490297291776" lon="7.539724802816769"><ele>510.0</ele><time>2026-04-19T17:34:34.001Z</time></trkpt><trkpt lat="44.42501819433509" lon="7.539991752530015"><ele>510.0</ele><time>2026-04-19T17:34:35Z</time></trkpt><trkpt lat="44.42513153396573" lon="7.540240431639371"><ele>510.0</ele><time>2026-04-19T17:34:36Z</time></trkpt><trkpt lat="44.425237707927764" lon="7.540475602902869"><ele>510.0</ele><time>2026-04-19T17:34:37Z</time></trkpt><trkpt lat="44.425340668859306" lon="7.540704144342169"><ele>509.33333333333337</ele><time>2026-04-19T17:34:38Z</time></trkpt><trkpt lat="44.42543478867392" lon="7.540916974561569"><ele>508.6666666666667</ele><time>2026-04-19T17:34:39Z</time></trkpt><trkpt lat="44.42552167417687" lon="7.541111804933439"><ele>508.0</ele><time>2026-04-19T17:34:40Z</time></trkpt><trkpt lat="44.425602180407495" lon="7.541292619789572"><ele>507.75</ele><time>2026-04-19T17:34:41Z</time></trkpt><trkpt lat="44.425675483804966" lon="7.541460849078048"><ele>507.5</ele><time>2026-04-19T17:34:42Z</time></trkpt><trkpt lat="44.42574099772565" lon="7.541612909089645"><ele>507.25</ele><time>2026-04-19T17:34:43Z</time></trkpt><trkpt lat="44.42578340581899" lon="7.541762608236375"><ele>507.0</ele><time>2026-04-19T17:34:44Z</time></trkpt><trkpt lat="44.42584614510767" lon="7.541871203226448"><ele>507.0</ele><time>2026-04-19T17:34:45Z</time></trkpt><trkpt lat="44.425883838192625" lon="7.541959847822126"><ele>507.00000000000006</ele><time>2026-04-19T17:34:46Z</time></trkpt><trkpt lat="44.425930082391105" lon="7.542054743339473"><ele>507.00000000000006</ele><time>2026-04-19T17:34:48Z</time></trkpt><trkpt lat="44.42595032235493" lon="7.542147540364819"><ele>507.0</ele><time>2026-04-19T17:34:52Z</time></trkpt><trkpt lat="44.426077800292184" lon="7.542056838667643"><ele>507.0</ele><time>2026-04-19T17:34:53Z</time></trkpt><trkpt lat="44.4261595859198" lon="7.541989320907557"><ele>507.0</ele><time>2026-04-19T17:34:54Z</time></trkpt><trkpt lat="44.4262522557261" lon="7.541938521746645"><ele>507.0</ele><time>2026-04-19T17:34:55Z</time></trkpt><trkpt lat="44.42632569921311" lon="7.541919114719549"><ele>507.0</ele><time>2026-04-19T17:34:56Z</time></trkpt><trkpt lat="44.42643839286851" lon="7.541970556570948"><ele>507.0</ele><time>2026-04-19T17:34:58Z</time></trkpt><trkpt lat="44.4265186544741" lon="7.542181110259012"><ele>506.66666666666663</ele><time>2026-04-19T17:35:00Z</time></trkpt><trkpt lat="44.42657046175734" lon="7.542343177187949"><ele>506.3333333333333</ele><time>2026-04-19T17:35:01Z</time></trkpt><trkpt lat="44.426650443320334" lon="7.5425251222781915"><ele>506.0</ele><time>2026-04-19T17:35:02Z</time></trkpt><trkpt lat="44.42672071026074" lon="7.542750537112404"><ele>506.66666666666663</ele><time>2026-04-19T17:35:03Z</time></trkpt><trkpt lat="44.426804710153036" lon="7.542999806444895"><ele>507.33333333333337</ele><time>2026-04-19T17:35:04Z</time></trkpt><trkpt lat="44.426898566015225" lon="7.5432674538195785"><ele>508.0</ele><time>2026-04-19T17:35:05Z</time></trkpt><trkpt lat="44.42698857288183" lon="7.54352575358151"><ele>507.6666666666667</ele><time>2026-04-19T17:35:06Z</time></trkpt><trkpt lat="44.42707308399178" lon="7.54376415840646"><ele>507.33333333333337</ele><time>2026-04-19T17:35:07Z</time></trkpt><trkpt lat="44.42715386573016" lon="7.5439927985619"><ele>507.0</ele><time>2026-04-19T17:35:08Z</time></trkpt><trkpt lat="44.42722472789356" lon="7.544204293762789"><ele>507.5</ele><time>2026-04-19T17:35:09Z</time></trkpt><trkpt lat="44.42728319473057" lon="7.544377371845785"><ele>508.0</ele><time>2026-04-19T17:35:10Z</time></trkpt><trkpt lat="44.42733809441812" lon="7.544530377331398"><ele>508.5</ele><time>2026-04-19T17:35:11Z</time></trkpt><trkpt lat="44.4273930304965" lon="7.5446671925596585"><ele>509.0</ele><time>2026-04-19T17:35:12Z</time></trkpt><trkpt lat="44.427450740206936" lon="7.5447783368415715"><ele>508.16666666666663</ele><time>2026-04-19T17:35:13Z</time></trkpt><trkpt lat="44.42749291393792" lon="7.544882219162466"><ele>507.3333333333333</ele><time>2026-04-19T17:35:14Z</time></trkpt><trkpt lat="44.427545786332004" lon="7.544951078499692"><ele>506.5</ele><time>2026-04-19T17:35:15Z</time></trkpt><trkpt lat="44.42755768592797" lon="7.545099683737926"><ele>505.66666666666663</ele><time>2026-04-19T17:35:17Z</time></trkpt><trkpt lat="44.42754438459701" lon="7.545204903911598"><ele>504.8333333333333</ele><time>2026-04-19T17:35:18Z</time></trkpt><trkpt lat="44.427538567290654" lon="7.545311070275456"><ele>504.0</ele><time>2026-04-19T17:35:19Z</time></trkpt><trkpt lat="44.42754203611147" lon="7.545470909878496"><ele>504.0</ele><time>2026-04-19T17:35:21Z</time></trkpt><trkpt lat="44.42741480486477" lon="7.545626585116721"><ele>504.0</ele><time>2026-04-19T17:35:23Z</time></trkpt><trkpt lat="44.42731674247476" lon="7.545739725035262"><ele>504.0</ele><time>2026-04-19T17:35:24Z</time></trkpt><trkpt lat="44.42719845627522" lon="7.545884878906602"><ele>504.0</ele><time>2026-04-19T17:35:25Z</time></trkpt><trkpt lat="44.42706799551294" lon="7.546065773315242"><ele>504.0</ele><time>2026-04-19T17:35:26Z</time></trkpt><trkpt lat="44.4269309983079" lon="7.5462837615241245"><ele>504.0</ele><time>2026-04-19T17:35:27Z</time></trkpt><trkpt lat="44.42679114970807" lon="7.546532532946366"><ele>502.0</ele><time>2026-04-19T17:35:28Z</time></trkpt><trkpt lat="44.42665227563593" lon="7.546811603913577"><ele>500.0</ele><time>2026-04-19T17:35:29Z</time></trkpt><trkpt lat="44.426516910976076" lon="7.547119133034842"><ele>500.0</ele><time>2026-04-19T17:35:30Z</time></trkpt><trkpt lat="44.42639374839007" lon="7.547444625598253"><ele>500.0</ele><time>2026-04-19T17:35:31Z</time></trkpt><trkpt lat="44.42629129501461" lon="7.547786153488391"><ele>502.5</ele><time>2026-04-19T17:35:32Z</time></trkpt><trkpt lat="44.426208419655616" lon="7.548138774096774"><ele>505.0</ele><time>2026-04-19T17:35:33Z</time></trkpt><trkpt lat="44.426150885964915" lon="7.5484964984070055"><ele>504.0</ele><time>2026-04-19T17:35:34Z</time></trkpt><trkpt lat="44.42611539284671" lon="7.548861618940174"><ele>503.0</ele><time>2026-04-19T17:35:35Z</time></trkpt><trkpt lat="44.4260961156241" lon="7.549230098733619"><ele>502.5</ele><time>2026-04-19T17:35:36Z</time></trkpt><trkpt lat="44.4261025350025" lon="7.549595057537506"><ele>502.0</ele><time>2026-04-19T17:35:37Z</time></trkpt><trkpt lat="44.426127988897676" lon="7.54995650807906"><ele>502.0</ele><time>2026-04-19T17:35:38Z</time></trkpt><trkpt lat="44.42617067763643" lon="7.5503115388239275"><ele>502.0</ele><time>2026-04-19T17:35:39Z</time></trkpt><trkpt lat="44.42622185552544" lon="7.550651808009504"><ele>501.5</ele><time>2026-04-19T17:35:40Z</time></trkpt><trkpt lat="44.42626804479694" lon="7.55097830781057"><ele>501.0</ele><time>2026-04-19T17:35:41Z</time></trkpt><trkpt lat="44.42630860907681" lon="7.551293582401201"><ele>501.33333333333337</ele><time>2026-04-19T17:35:42Z</time></trkpt><trkpt lat="44.42634943846752" lon="7.55159818959296"><ele>501.6666666666667</ele><time>2026-04-19T17:35:43Z</time></trkpt><trkpt lat="44.42639079310065" lon="7.551888711146388"><ele>502.0</ele><time>2026-04-19T17:35:44Z</time></trkpt><trkpt lat="44.42642962367082" lon="7.552167086717188"><ele>501.33333333333337</ele><time>2026-04-19T17:35:45Z</time></trkpt><trkpt lat="44.426462907588096" lon="7.552419061450025"><ele>500.66666666666663</ele><time>2026-04-19T17:35:46Z</time></trkpt><trkpt lat="44.426493823972784" lon="7.552666093612541"><ele>500.0</ele><time>2026-04-19T17:35:47Z</time></trkpt><trkpt lat="44.42651695330375" lon="7.552903823558569"><ele>499.3333333333333</ele><time>2026-04-19T17:35:48Z</time></trkpt><trkpt lat="44.426529376623556" lon="7.553138228138269"><ele>498.66666666666663</ele><time>2026-04-19T17:35:48.999Z</time></trkpt><trkpt lat="44.426533948844195" lon="7.553376130654936"><ele>498.0</ele><time>2026-04-19T17:35:49.999Z</time></trkpt><trkpt lat="44.42653057495818" lon="7.553621341808063"><ele>498.0</ele><time>2026-04-19T17:35:50.999Z</time></trkpt><trkpt lat="44.42652040335356" lon="7.5538392737610405"><ele>498.0</ele><time>2026-04-19T17:35:51.999Z</time></trkpt><trkpt lat="44.426506378346325" lon="7.5540242174439305"><ele>498.0</ele><time>2026-04-19T17:35:52.999Z</time></trkpt><trkpt lat="44.426491061096314" lon="7.55418529387921"><ele>498.0</ele><time>2026-04-19T17:35:53.999Z</time></trkpt><trkpt lat="44.426475488390814" lon="7.554301813172513"><ele>498.0</ele><time>2026-04-19T17:35:54.999Z</time></trkpt><trkpt lat="44.426416385321" lon="7.554407483514779"><ele>498.0</ele><time>2026-04-19T17:35:56.999Z</time></trkpt><trkpt lat="44.42633043987767" lon="7.5544031572047965"><ele>498.0</ele><time>2026-04-19T17:35:58.999Z</time></trkpt><trkpt lat="44.42626896125438" lon="7.554374775902804"><ele>498.0</ele><time>2026-04-19T17:35:59.999Z</time></trkpt><trkpt lat="44.42619589384102" lon="7.5543666845686115"><ele>498.0</ele><time>2026-04-19T17:36:00.999Z</time></trkpt><trkpt lat="44.42610944439528" lon="7.554358624019975"><ele>498.0</ele><time>2026-04-19T17:36:01.999Z</time></trkpt><trkpt lat="44.42601776738532" lon="7.554350588457073"><ele>498.59999999999997</ele><time>2026-04-19T17:36:02.999Z</time></trkpt><trkpt lat="44.425929322036744" lon="7.554354328603306"><ele>499.19999999999993</ele><time>2026-04-19T17:36:03.999Z</time></trkpt><trkpt lat="44.42583949650976" lon="7.554356822499495"><ele>499.8</ele><time>2026-04-19T17:36:04.999Z</time></trkpt><trkpt lat="44.425738271611316" lon="7.554364273381116"><ele>500.4</ele><time>2026-04-19T17:36:05.999Z</time></trkpt><trkpt lat="44.42562764317802" lon="7.554372509179929"><ele>501.0</ele><time>2026-04-19T17:36:06.999Z</time></trkpt><trkpt lat="44.42550716112646" lon="7.554371741622227"><ele>501.0</ele><time>2026-04-19T17:36:07.999Z</time></trkpt><trkpt lat="44.425385574398895" lon="7.554365558935273"><ele>501.0</ele><time>2026-04-19T17:36:08.998Z</time></trkpt><trkpt lat="44.42527786892811" lon="7.554359733763522"><ele>501.0</ele><time>2026-04-19T17:36:09.998Z</time></trkpt><trkpt lat="44.42518031363272" lon="7.554357212420971"><ele>501.0</ele><time>2026-04-19T17:36:10.998Z</time></trkpt><trkpt lat="44.425093188195405" lon="7.5543579702380645"><ele>501.0</ele><time>2026-04-19T17:36:11.998Z</time></trkpt><trkpt lat="44.42501599204224" lon="7.55435874156192"><ele>501.0</ele><time>2026-04-19T17:36:12.998Z</time></trkpt><trkpt lat="44.424923301363194" lon="7.554323126932415"><ele>501.0</ele><time>2026-04-19T17:36:14.998Z</time></trkpt><trkpt lat="44.424884453020766" lon="7.554217614654971"><ele>501.0</ele><time>2026-04-19T17:36:16.998Z</time></trkpt><trkpt lat="44.42488000645687" lon="7.5541197332975605"><ele>501.0</ele><time>2026-04-19T17:36:17.998Z</time></trkpt><trkpt lat="44.424880781046156" lon="7.554004469315456"><ele>501.0</ele><time>2026-04-19T17:36:18.998Z</time></trkpt><trkpt lat="44.42488334151524" lon="7.553878595743422"><ele>501.0</ele><time>2026-04-19T17:36:19.998Z</time></trkpt><trkpt lat="44.424898126564955" lon="7.5537556382176465"><ele>501.0</ele><time>2026-04-19T17:36:20.998Z</time></trkpt><trkpt lat="44.42493149400407" lon="7.5536485804709566"><ele>501.0</ele><time>2026-04-19T17:36:21.998Z</time></trkpt><trkpt lat="44.424960576021945" lon="7.553534473275535"><ele>501.0</ele><time>2026-04-19T17:36:23Z</time></trkpt><trkpt lat="44.42497321249506" lon="7.55340673463378"><ele>501.0</ele><time>2026-04-19T17:36:24Z</time></trkpt><trkpt lat="44.42497991026062" lon="7.55327372569514"><ele>501.0</ele><time>2026-04-19T17:36:25Z</time></trkpt><trkpt lat="44.42499474539905" lon="7.553148355860435"><ele>501.0</ele><time>2026-04-19T17:36:26Z</time></trkpt><trkpt lat="44.425026148348195" lon="7.553047100449082"><ele>501.0</ele><time>2026-04-19T17:36:27Z</time></trkpt><trkpt lat="44.42500507390672" lon="7.552917058510546"><ele>501.0</ele><time>2026-04-19T17:36:28Z</time></trkpt><trkpt lat="44.42498046748964" lon="7.552805290730073"><ele>501.0</ele><time>2026-04-19T17:36:29Z</time></trkpt><trkpt lat="44.42494813898797" lon="7.552703300640879"><ele>501.0</ele><time>2026-04-19T17:36:30Z</time></trkpt><trkpt lat="44.42492089037009" lon="7.552606884109227"><ele>501.0</ele><time>2026-04-19T17:36:31Z</time></trkpt><trkpt lat="44.424897749018164" lon="7.552462339483278"><ele>501.0</ele><time>2026-04-19T17:36:33Z</time></trkpt><trkpt lat="44.42494101416596" lon="7.5523592787105365"><ele>501.0</ele><time>2026-04-19T17:36:35Z</time></trkpt><trkpt lat="44.42495975466087" lon="7.552256274682511"><ele>501.0</ele><time>2026-04-19T17:36:39Z</time></trkpt><trkpt lat="44.42497516560497" lon="7.552170554038606"><ele>501.0</ele><time>2026-04-19T17:36:42Z</time></trkpt><trkpt lat="44.4250860933063" lon="7.552176995335091"><ele>501.0</ele><time>2026-04-19T17:37:46.999Z</time></trkpt><trkpt lat="44.42511168917868" lon="7.55225838578792"><ele>501.0</ele><time>2026-04-19T17:43:33.999Z</time></trkpt><trkpt lat="44.42506617665388" lon="7.55216469943485"><ele>501.0</ele><time>2026-04-19T17:45:02Z</time></trkpt><trkpt lat="44.42503320459025" lon="7.552066191011199"><ele>501.0</ele><time>2026-04-19T17:48:21.999Z</time></trkpt><trkpt lat="44.42494496062679" lon="7.5521382578302845"><ele>501.0</ele><time>2026-04-19T17:48:25.998Z</time></trkpt><trkpt lat="44.42493409161976" lon="7.552276416198432"><ele>501.0</ele><time>2026-04-19T17:48:27.998Z</time></trkpt><trkpt lat="44.42490803168584" lon="7.552423608251724"><ele>501.0</ele><time>2026-04-19T17:48:29.998Z</time></trkpt><trkpt lat="44.42493501951824" lon="7.552592142751779"><ele>501.0</ele><time>2026-04-19T17:48:31.998Z</time></trkpt><trkpt lat="44.424956354716315" lon="7.552696471212427"><ele>501.0</ele><time>2026-04-19T17:48:32.998Z</time></trkpt><trkpt lat="44.42494279352781" lon="7.552823704413478"><ele>501.0</ele><time>2026-04-19T17:48:33.998Z</time></trkpt><trkpt lat="44.42495963868403" lon="7.5529166169567254"><ele>501.0</ele><time>2026-04-19T17:48:34.998Z</time></trkpt><trkpt lat="44.42497901704273" lon="7.553060777859883"><ele>501.0</ele><time>2026-04-19T17:48:36.998Z</time></trkpt><trkpt lat="44.42494695713066" lon="7.55316729477572"><ele>501.0</ele><time>2026-04-19T17:48:38.998Z</time></trkpt><trkpt lat="44.424825155983676" lon="7.553181221294192"><ele>501.0</ele><time>2026-04-19T17:48:40.998Z</time></trkpt><trkpt lat="44.42472389900631" lon="7.553248536853537"><ele>501.0</ele><time>2026-04-19T17:48:42.998Z</time></trkpt><trkpt lat="44.42468067210259" lon="7.553329477601659"><ele>501.0</ele><time>2026-04-19T17:48:43.998Z</time></trkpt><trkpt lat="44.42465723463671" lon="7.553427038436772"><ele>501.0</ele><time>2026-04-19T17:48:44.998Z</time></trkpt><trkpt lat="44.4246441177731" lon="7.553526341017808"><ele>501.0</ele><time>2026-04-19T17:48:45.998Z</time></trkpt><trkpt lat="44.42466831750638" lon="7.553632778427122"><ele>501.0</ele><time>2026-04-19T17:48:46.998Z</time></trkpt><trkpt lat="44.42475847163877" lon="7.55370792886159"><ele>501.0</ele><time>2026-04-19T17:48:47.998Z</time></trkpt><trkpt lat="44.424829022624074" lon="7.553748026320527"><ele>501.0</ele><time>2026-04-19T17:48:48.998Z</time></trkpt><trkpt lat="44.424842110327134" lon="7.55393053375074"><ele>501.0</ele><time>2026-04-19T17:48:49.998Z</time></trkpt><trkpt lat="44.424847142669634" lon="7.554055770899307"><ele>501.0</ele><time>2026-04-19T17:48:50.998Z</time></trkpt><trkpt lat="44.42482719988038" lon="7.554199603787013"><ele>501.0</ele><time>2026-04-19T17:48:51.998Z</time></trkpt><trkpt lat="44.4247876771812" lon="7.554360011680939"><ele>501.0</ele><time>2026-04-19T17:48:52.998Z</time></trkpt><trkpt lat="44.42473796592904" lon="7.554535265599781"><ele>501.0</ele><time>2026-04-19T17:48:53.998Z</time></trkpt><trkpt lat="44.42469022756289" lon="7.554703581933477"><ele>501.0</ele><time>2026-04-19T17:48:54.998Z</time></trkpt><trkpt lat="44.42464579177737" lon="7.554843580323285"><ele>501.0</ele><time>2026-04-19T17:48:55.998Z</time></trkpt><trkpt lat="44.42460638302594" lon="7.554966940259566"><ele>501.0</ele><time>2026-04-19T17:48:56.998Z</time></trkpt><trkpt lat="44.42455851225325" lon="7.555069489858678"><ele>501.0</ele><time>2026-04-19T17:48:58Z</time></trkpt><trkpt lat="44.42449695924558" lon="7.555150775987284"><ele>501.0</ele><time>2026-04-19T17:48:59Z</time></trkpt><trkpt lat="44.42443820050917" lon="7.555226740812528"><ele>501.0</ele><time>2026-04-19T17:49:00Z</time></trkpt><trkpt lat="44.42440316888072" lon="7.555319146105539"><ele>501.0</ele><time>2026-04-19T17:49:01Z</time></trkpt><trkpt lat="44.42440249573715" lon="7.555421117415976"><ele>501.0</ele><time>2026-04-19T17:49:02Z</time></trkpt><trkpt lat="44.42443512881692" lon="7.5555121299046295"><ele>501.0</ele><time>2026-04-19T17:49:03Z</time></trkpt><trkpt lat="44.424486077077525" lon="7.55557676354913"><ele>501.0</ele><time>2026-04-19T17:49:04Z</time></trkpt><trkpt lat="44.42454876872211" lon="7.555617856790523"><ele>501.0</ele><time>2026-04-19T17:49:05Z</time></trkpt><trkpt lat="44.42462957202667" lon="7.555644232058723"><ele>501.0</ele><time>2026-04-19T17:49:06Z</time></trkpt><trkpt lat="44.42472230150741" lon="7.555672165269743"><ele>501.0</ele><time>2026-04-19T17:49:07Z</time></trkpt><trkpt lat="44.42482730783352" lon="7.555708733790179"><ele>501.0</ele><time>2026-04-19T17:49:08Z</time></trkpt><trkpt lat="44.42494673834049" lon="7.55576316076222"><ele>501.0</ele><time>2026-04-19T17:49:09Z</time></trkpt><trkpt lat="44.42508721924407" lon="7.5558281267524485"><ele>501.0</ele><time>2026-04-19T17:49:10Z</time></trkpt><trkpt lat="44.425244104602655" lon="7.555875260319211"><ele>501.0</ele><time>2026-04-19T17:49:11Z</time></trkpt><trkpt lat="44.42538500101315" lon="7.55596322809585"><ele>500.75</ele><time>2026-04-19T17:49:12Z</time></trkpt><trkpt lat="44.425516333436654" lon="7.5560251195303065"><ele>500.5</ele><time>2026-04-19T17:49:13Z</time></trkpt><trkpt lat="44.425638138411024" lon="7.556085374406946"><ele>500.25</ele><time>2026-04-19T17:49:14Z</time></trkpt><trkpt lat="44.42574900758943" lon="7.5561404800130765"><ele>500.0</ele><time>2026-04-19T17:49:15Z</time></trkpt><trkpt lat="44.42584910846869" lon="7.556189030777693"><ele>500.0</ele><time>2026-04-19T17:49:16Z</time></trkpt><trkpt lat="44.42594047725526" lon="7.5562285943646845"><ele>500.0</ele><time>2026-04-19T17:49:17Z</time></trkpt><trkpt lat="44.426013774948785" lon="7.556283008417553"><ele>500.0</ele><time>2026-04-19T17:49:18Z</time></trkpt><trkpt lat="44.426108358528296" lon="7.55631406713792"><ele>500.0</ele><time>2026-04-19T17:49:20Z</time></trkpt><trkpt lat="44.4261755582101" lon="7.556084142380919"><ele>500.0</ele><time>2026-04-19T17:49:21Z</time></trkpt><trkpt lat="44.426185858474426" lon="7.5559879962030685"><ele>500.0</ele><time>2026-04-19T17:49:22Z</time></trkpt><trkpt lat="44.42619564531717" lon="7.5558726034198775"><ele>500.0</ele><time>2026-04-19T17:49:23Z</time></trkpt><trkpt lat="44.426216315828604" lon="7.555747671087607"><ele>500.0</ele><time>2026-04-19T17:49:24Z</time></trkpt><trkpt lat="44.426243537001426" lon="7.555610818378712"><ele>500.0</ele><time>2026-04-19T17:49:25Z</time></trkpt><trkpt lat="44.42627077240942" lon="7.555467651059482"><ele>500.25</ele><time>2026-04-19T17:49:26Z</time></trkpt><trkpt lat="44.42630109785224" lon="7.555297096031615"><ele>500.5</ele><time>2026-04-19T17:49:27Z</time></trkpt><trkpt lat="44.42634159885692" lon="7.555096794094413"><ele>500.75</ele><time>2026-04-19T17:49:27.999Z</time></trkpt><trkpt lat="44.42639186832113" lon="7.554873328493086"><ele>501.0</ele><time>2026-04-19T17:49:28.999Z</time></trkpt><trkpt lat="44.426448160325236" lon="7.554638673911445"><ele>500.0</ele><time>2026-04-19T17:49:29.999Z</time></trkpt><trkpt lat="44.426495904388645" lon="7.554393116512661"><ele>499.0</ele><time>2026-04-19T17:49:30.999Z</time></trkpt><trkpt lat="44.42652925178724" lon="7.554143851114002"><ele>498.0</ele><time>2026-04-19T17:49:31.999Z</time></trkpt><trkpt lat="44.42655271540087" lon="7.553885403170497"><ele>498.0</ele><time>2026-04-19T17:49:32.999Z</time></trkpt><trkpt lat="44.42656592140372" lon="7.553622490022527"><ele>498.0</ele><time>2026-04-19T17:49:33.999Z</time></trkpt><trkpt lat="44.42656680434693" lon="7.553357964132029"><ele>498.0</ele><time>2026-04-19T17:49:34.999Z</time></trkpt><trkpt lat="44.426557114677266" lon="7.5530921961215185"><ele>498.66666666666663</ele><time>2026-04-19T17:49:35.999Z</time></trkpt><trkpt lat="44.42653905198552" lon="7.552825636032282"><ele>499.3333333333333</ele><time>2026-04-19T17:49:36.999Z</time></trkpt><trkpt lat="44.426513548228336" lon="7.5525589585919635"><ele>500.0</ele><time>2026-04-19T17:49:37.999Z</time></trkpt><trkpt lat="44.42647923802421" lon="7.552293192782635"><ele>500.66666666666663</ele><time>2026-04-19T17:49:38.999Z</time></trkpt><trkpt lat="44.42644103266312" lon="7.552025038948545"><ele>501.33333333333337</ele><time>2026-04-19T17:49:39.999Z</time></trkpt><trkpt lat="44.426403036258264" lon="7.551755039605923"><ele>502.0</ele><time>2026-04-19T17:49:40.999Z</time></trkpt><trkpt lat="44.42636537322553" lon="7.551483764245731"><ele>502.0</ele><time>2026-04-19T17:49:41.999Z</time></trkpt><trkpt lat="44.426330187507034" lon="7.551211140004354"><ele>502.0</ele><time>2026-04-19T17:49:42.999Z</time></trkpt><trkpt lat="44.42629481543939" lon="7.550940232048998"><ele>502.0</ele><time>2026-04-19T17:49:43.999Z</time></trkpt><trkpt lat="44.42625824478064" lon="7.550670295368393"><ele>502.0</ele><time>2026-04-19T17:49:44.999Z</time></trkpt><trkpt lat="44.42622113781497" lon="7.550398270742157"><ele>502.0</ele><time>2026-04-19T17:49:45.999Z</time></trkpt><trkpt lat="44.42618445667864" lon="7.550120689120853"><ele>502.0</ele><time>2026-04-19T17:49:46.999Z</time></trkpt><trkpt lat="44.42615242605035" lon="7.549838920707292"><ele>502.0</ele><time>2026-04-19T17:49:47.999Z</time></trkpt><trkpt lat="44.42613287548031" lon="7.549554954845376"><ele>502.0</ele><time>2026-04-19T17:49:48.999Z</time></trkpt><trkpt lat="44.42612746963343" lon="7.549266265655376"><ele>502.0</ele><time>2026-04-19T17:49:49.999Z</time></trkpt><trkpt lat="44.42613688093919" lon="7.5489755577006985"><ele>503.0</ele><time>2026-04-19T17:49:50.999Z</time></trkpt><trkpt lat="44.42616361611192" lon="7.54867927047504"><ele>504.0</ele><time>2026-04-19T17:49:51.999Z</time></trkpt><trkpt lat="44.426205405856805" lon="7.548383170976905"><ele>505.0</ele><time>2026-04-19T17:49:52.999Z</time></trkpt><trkpt lat="44.426257062319614" lon="7.548090275375435"><ele>503.33333333333337</ele><time>2026-04-19T17:49:53.999Z</time></trkpt><trkpt lat="44.42632021024532" lon="7.547803743744051"><ele>501.66666666666663</ele><time>2026-04-19T17:49:54.999Z</time></trkpt><trkpt lat="44.42639806294771" lon="7.547525787225147"><ele>500.0</ele><time>2026-04-19T17:49:55.999Z</time></trkpt><trkpt lat="44.42648298590216" lon="7.547270103303889"><ele>500.0</ele><time>2026-04-19T17:49:56.999Z</time></trkpt><trkpt lat="44.426573106602866" lon="7.547031398360741"><ele>500.0</ele><time>2026-04-19T17:49:57.999Z</time></trkpt><trkpt lat="44.42667408969766" lon="7.5468095609416395"><ele>500.0</ele><time>2026-04-19T17:49:58.999Z</time></trkpt><trkpt lat="44.42678454922571" lon="7.546595150606963"><ele>500.0</ele><time>2026-04-19T17:49:59.999Z</time></trkpt><trkpt lat="44.426903559807464" lon="7.546387197900693"><ele>500.0</ele><time>2026-04-19T17:50:00.999Z</time></trkpt><trkpt lat="44.427023831103035" lon="7.5461908155870665"><ele>500.0</ele><time>2026-04-19T17:50:01.999Z</time></trkpt><trkpt lat="44.42714018094675" lon="7.546013334015456"><ele>501.0</ele><time>2026-04-19T17:50:02.999Z</time></trkpt><trkpt lat="44.42725250859158" lon="7.545859357184604"><ele>502.0</ele><time>2026-04-19T17:50:03.999Z</time></trkpt><trkpt lat="44.42735950320588" lon="7.545735794627611"><ele>503.0</ele><time>2026-04-19T17:50:04.999Z</time></trkpt><trkpt lat="44.42744496878427" lon="7.545650578589692"><ele>504.0</ele><time>2026-04-19T17:50:05.999Z</time></trkpt><trkpt lat="44.427508950007216" lon="7.545572467741298"><ele>504.0</ele><time>2026-04-19T17:50:06.999Z</time></trkpt><trkpt lat="44.4275755135568" lon="7.5455265334563375"><ele>504.0</ele><time>2026-04-19T17:50:07.999Z</time></trkpt><trkpt lat="44.42757683338416" lon="7.5452836643921275"><ele>504.0</ele><time>2026-04-19T17:50:09.999Z</time></trkpt><trkpt lat="44.42758616256222" lon="7.545184017838697"><ele>504.0</ele><time>2026-04-19T17:50:10.999Z</time></trkpt><trkpt lat="44.42761071745532" lon="7.545041199975072"><ele>504.0</ele><time>2026-04-19T17:50:12.999Z</time></trkpt><trkpt lat="44.427621909346634" lon="7.5449036329899455"><ele>504.0</ele><time>2026-04-19T17:50:15.999Z</time></trkpt><trkpt lat="44.42750293787953" lon="7.54481277171761"><ele>504.0</ele><time>2026-04-19T17:50:16.999Z</time></trkpt><trkpt lat="44.42744608569283" lon="7.544721274766478"><ele>504.0</ele><time>2026-04-19T17:50:17.999Z</time></trkpt><trkpt lat="44.427395504822016" lon="7.544591146766804"><ele>504.0</ele><time>2026-04-19T17:50:18.999Z</time></trkpt><trkpt lat="44.42734345520915" lon="7.544417463949694"><ele>505.0</ele><time>2026-04-19T17:50:19.999Z</time></trkpt><trkpt lat="44.4272772887293" lon="7.544215010709289"><ele>506.0</ele><time>2026-04-19T17:50:20.999Z</time></trkpt><trkpt lat="44.427199001749216" lon="7.543989926567943"><ele>507.0</ele><time>2026-04-19T17:50:21.999Z</time></trkpt><trkpt lat="44.42711531886663" lon="7.543748658455341"><ele>507.33333333333337</ele><time>2026-04-19T17:50:22.999Z</time></trkpt><trkpt lat="44.42703282886936" lon="7.543516101385279"><ele>507.6666666666667</ele><time>2026-04-19T17:50:23.999Z</time></trkpt><trkpt lat="44.426958145905516" lon="7.54330197188449"><ele>508.0</ele><time>2026-04-19T17:50:24.999Z</time></trkpt><trkpt lat="44.42688812549466" lon="7.543098247191748"><ele>508.0</ele><time>2026-04-19T17:50:25.999Z</time></trkpt><trkpt lat="44.42682055061586" lon="7.542909498826249"><ele>508.0</ele><time>2026-04-19T17:50:26.999Z</time></trkpt><trkpt lat="44.42675558173934" lon="7.542732902978591"><ele>508.0</ele><time>2026-04-19T17:50:27.999Z</time></trkpt><trkpt lat="44.42669698724182" lon="7.542566182866295"><ele>508.0</ele><time>2026-04-19T17:50:28.998Z</time></trkpt><trkpt lat="44.42664302916912" lon="7.5424074073119955"><ele>507.6666666666667</ele><time>2026-04-19T17:50:29.998Z</time></trkpt><trkpt lat="44.42659732049552" lon="7.54226255322821"><ele>507.33333333333337</ele><time>2026-04-19T17:50:30.998Z</time></trkpt><trkpt lat="44.42655515406223" lon="7.542133371271684"><ele>507.0</ele><time>2026-04-19T17:50:31.998Z</time></trkpt><trkpt lat="44.42651752639037" lon="7.542023895353419"><ele>506.66666666666663</ele><time>2026-04-19T17:50:32.998Z</time></trkpt><trkpt lat="44.426490807256066" lon="7.541943289050769"><ele>506.3333333333333</ele><time>2026-04-19T17:50:33.998Z</time></trkpt><trkpt lat="44.426456626755076" lon="7.541849503700923"><ele>506.0</ele><time>2026-04-19T17:50:36.998Z</time></trkpt><trkpt lat="44.42631853763202" lon="7.5418417613388895"><ele>506.20000000000005</ele><time>2026-04-19T17:50:40.998Z</time></trkpt><trkpt lat="44.42622990076033" lon="7.541889816828083"><ele>506.40000000000003</ele><time>2026-04-19T17:50:41.998Z</time></trkpt><trkpt lat="44.426135585635805" lon="7.541953875387074"><ele>506.6</ele><time>2026-04-19T17:50:42.998Z</time></trkpt><trkpt lat="44.4260686162501" lon="7.542013707315552"><ele>506.8</ele><time>2026-04-19T17:50:43.998Z</time></trkpt><trkpt lat="44.426005369659805" lon="7.542023039777982"><ele>507.0</ele><time>2026-04-19T17:50:44.998Z</time></trkpt><trkpt lat="44.42590097264398" lon="7.54196775861427"><ele>507.0</ele><time>2026-04-19T17:50:46.998Z</time></trkpt><trkpt lat="44.4258511565479" lon="7.541892286546031"><ele>507.00000000000006</ele><time>2026-04-19T17:50:47.998Z</time></trkpt><trkpt lat="44.425805877152115" lon="7.541783348232008"><ele>507.00000000000006</ele><time>2026-04-19T17:50:48.998Z</time></trkpt><trkpt lat="44.425755317785374" lon="7.5416410954554385"><ele>507.0</ele><time>2026-04-19T17:50:49.998Z</time></trkpt><trkpt lat="44.4256932891085" lon="7.541474460053501"><ele>507.0</ele><time>2026-04-19T17:50:50.998Z</time></trkpt><trkpt lat="44.42561562586735" lon="7.541288995928704"><ele>507.0</ele><time>2026-04-19T17:50:51.998Z</time></trkpt><trkpt lat="44.42553665301335" lon="7.541094052609819"><ele>507.0</ele><time>2026-04-19T17:50:52.998Z</time></trkpt><trkpt lat="44.425442604847134" lon="7.540879983500378"><ele>507.0</ele><time>2026-04-19T17:50:53.998Z</time></trkpt><trkpt lat="44.42533453750126" lon="7.5406378121983595"><ele>507.33333333333337</ele><time>2026-04-19T17:50:54.998Z</time></trkpt><trkpt lat="44.42522645900834" lon="7.540388556961198"><ele>507.6666666666667</ele><time>2026-04-19T17:50:55.998Z</time></trkpt><trkpt lat="44.4251285471343" lon="7.5401710994945175"><ele>508.0</ele><time>2026-04-19T17:50:56.998Z</time></trkpt><trkpt lat="44.425033093124945" lon="7.539964398435016"><ele>508.0</ele><time>2026-04-19T17:50:57.998Z</time></trkpt><trkpt lat="44.42494720455097" lon="7.5397821509805825"><ele>508.0</ele><time>2026-04-19T17:50:58.998Z</time></trkpt><trkpt lat="44.42487942687728" lon="7.539595120791464"><ele>508.0</ele><time>2026-04-19T17:50:59.998Z</time></trkpt><trkpt lat="44.42480549576027" lon="7.539432122880735"><ele>508.0</ele><time>2026-04-19T17:51:00.998Z</time></trkpt><trkpt lat="44.42473717645313" lon="7.5392814979215945"><ele>508.0</ele><time>2026-04-19T17:51:01.998Z</time></trkpt><trkpt lat="44.42465903705245" lon="7.539159138211783"><ele>507.99999999999994</ele><time>2026-04-19T17:51:02.998Z</time></trkpt><trkpt lat="44.42460465030035" lon="7.539035897661997"><ele>507.99999999999994</ele><time>2026-04-19T17:51:04Z</time></trkpt><trkpt lat="44.424557984759595" lon="7.538926524743254"><ele>508.0</ele><time>2026-04-19T17:51:05Z</time></trkpt><trkpt lat="44.42451668607873" lon="7.538833345351105"><ele>508.0</ele><time>2026-04-19T17:51:06Z</time></trkpt><trkpt lat="44.42448101863181" lon="7.538753272893065"><ele>507.79999999999995</ele><time>2026-04-19T17:51:07Z</time></trkpt><trkpt lat="44.42446292449626" lon="7.538649615991957"><ele>507.59999999999997</ele><time>2026-04-19T17:51:09Z</time></trkpt><trkpt lat="44.42456809393689" lon="7.53854390001462"><ele>507.40000000000003</ele><time>2026-04-19T17:51:12Z</time></trkpt><trkpt lat="44.42463325959982" lon="7.538485449176409"><ele>507.20000000000005</ele><time>2026-04-19T17:51:13Z</time></trkpt><trkpt lat="44.42470978358875" lon="7.53839147799806"><ele>507.0</ele><time>2026-04-19T17:51:14Z</time></trkpt><trkpt lat="44.42481484133586" lon="7.538304476869639"><ele>507.0</ele><time>2026-04-19T17:51:15Z</time></trkpt><trkpt lat="44.424935447319264" lon="7.538206847484466"><ele>507.0</ele><time>2026-04-19T17:51:16Z</time></trkpt><trkpt lat="44.42504635168094" lon="7.538116885928757"><ele>507.0</ele><time>2026-04-19T17:51:17Z</time></trkpt><trkpt lat="44.425139575899394" lon="7.538038481354876"><ele>507.0</ele><time>2026-04-19T17:51:18Z</time></trkpt><trkpt lat="44.425218923315924" lon="7.537973615086031"><ele>507.0</ele><time>2026-04-19T17:51:19Z</time></trkpt><trkpt lat="44.425279781426035" lon="7.537922146604467"><ele>507.00000000000006</ele><time>2026-04-19T17:51:20Z</time></trkpt><trkpt lat="44.425347065601756" lon="7.537849005886013"><ele>507.00000000000006</ele><time>2026-04-19T17:51:22Z</time></trkpt><trkpt lat="44.425303986228926" lon="7.537671858666563"><ele>507.0</ele><time>2026-04-19T17:51:24Z</time></trkpt><trkpt lat="44.42526582385469" lon="7.537571348129212"><ele>507.0</ele><time>2026-04-19T17:51:25Z</time></trkpt><trkpt lat="44.4252270309957" lon="7.537434037451223"><ele>507.0</ele><time>2026-04-19T17:51:26Z</time></trkpt><trkpt lat="44.42518067687115" lon="7.537281751396969"><ele>507.00000000000006</ele><time>2026-04-19T17:51:27Z</time></trkpt><trkpt lat="44.42513822607978" lon="7.5371398912568495"><ele>507.00000000000006</ele><time>2026-04-19T17:51:28Z</time></trkpt><trkpt lat="44.425102431151636" lon="7.537019440593806"><ele>507.0</ele><time>2026-04-19T17:51:29Z</time></trkpt><trkpt lat="44.425071660481315" lon="7.536918859595035"><ele>507.0</ele><time>2026-04-19T17:51:30Z</time></trkpt><trkpt lat="44.42504145610182" lon="7.5368400233385655"><ele>507.20000000000005</ele><time>2026-04-19T17:51:31Z</time></trkpt><trkpt lat="44.425015442056015" lon="7.536759333911247"><ele>507.40000000000003</ele><time>2026-04-19T17:51:33Z</time></trkpt><trkpt lat="44.42498427447749" lon="7.536664172186613"><ele>507.59999999999997</ele><time>2026-04-19T17:52:02.999Z</time></trkpt><trkpt lat="44.42495828933351" lon="7.536582501644698"><ele>507.79999999999995</ele><time>2026-04-19T17:52:04.999Z</time></trkpt><trkpt lat="44.425066308751425" lon="7.536411458500764"><ele>508.0</ele><time>2026-04-19T17:52:07.999Z</time></trkpt><trkpt lat="44.42503914497616" lon="7.536295817548728"><ele>508.0</ele><time>2026-04-19T17:52:09.999Z</time></trkpt><trkpt lat="44.4250148963724" lon="7.536201063871739"><ele>508.0</ele><time>2026-04-19T17:52:14.999Z</time></trkpt><trkpt lat="44.424724829504946" lon="7.536315153269728"><ele>508.0</ele><time>2026-04-19T17:53:21Z</time></trkpt><trkpt lat="44.424648007902896" lon="7.536340402538963"><ele>508.0</ele><time>2026-04-19T17:53:26Z</time></trkpt><trkpt lat="44.42469370275541" lon="7.536423883855534"><ele>508.0</ele><time>2026-04-19T17:53:40Z</time></trkpt><trkpt lat="44.42477550800169" lon="7.536321219194209"><ele>508.0</ele><time>2026-04-19T17:59:46Z</time></trkpt><trkpt lat="44.42487780661207" lon="7.536314028814282"><ele>508.0</ele><time>2026-04-19T18:02:55.999Z</time></trkpt></trkseg></trk></gpx>